<?xml version="1.0" encoding="UTF-8" standalone="no" ?>
<gpx xmlns="http://www.topografix.com/GPX/1/1" xmlns:xsi="http://www.w3.org/2001/XMLSchema-instance" xsi:schemaLocation="http://www.topografix.com/GPX/1/1 http://www.topografix.com/GPX/1/1/gpx.xsd" version="1.1" creator="VisuGPX - https://www.visugpx.com">
  <metadata>
    <name>Sortie Balleroy + Planquery</name>
    <desc><![CDATA[Je voulais aller dans la Manche, mais j'ai tourné une route trop tôt. Ca sera pour la prochaine sortie. Beau temps.]]></desc>
  </metadata>
  <trk>
    <name><![CDATA[Sortie Balleroy + Planquery_1]]></name>
    <trkseg>
      <trkpt lat="49.18854" lon="-0.40392">
        <ele>57</ele>
        <time>2023-04-25T10:52:13Z</time>
      </trkpt>
      <trkpt lat="49.18853" lon="-0.40398">
        <ele>57.2</ele>
        <time>2023-04-25T10:52:14Z</time>
      </trkpt>
      <trkpt lat="49.18853" lon="-0.40405">
        <ele>57.2</ele>
        <time>2023-04-25T10:52:15Z</time>
      </trkpt>
      <trkpt lat="49.18852" lon="-0.40412">
        <ele>57.2</ele>
        <time>2023-04-25T10:52:16Z</time>
      </trkpt>
      <trkpt lat="49.18851" lon="-0.40419">
        <ele>57.2</ele>
        <time>2023-04-25T10:52:17Z</time>
      </trkpt>
      <trkpt lat="49.1885" lon="-0.40425">
        <ele>57.6</ele>
        <time>2023-04-25T10:52:18Z</time>
      </trkpt>
      <trkpt lat="49.18849" lon="-0.40432">
        <ele>57.8</ele>
        <time>2023-04-25T10:52:19Z</time>
      </trkpt>
      <trkpt lat="49.18848" lon="-0.40438">
        <ele>57.8</ele>
        <time>2023-04-25T10:52:20Z</time>
      </trkpt>
      <trkpt lat="49.18848" lon="-0.40445">
        <ele>58</ele>
        <time>2023-04-25T10:52:21Z</time>
      </trkpt>
      <trkpt lat="49.18847" lon="-0.40451">
        <ele>58.2</ele>
        <time>2023-04-25T10:52:22Z</time>
      </trkpt>
      <trkpt lat="49.18846" lon="-0.40457">
        <ele>58.2</ele>
        <time>2023-04-25T10:52:23Z</time>
      </trkpt>
      <trkpt lat="49.18846" lon="-0.40464">
        <ele>58.6</ele>
        <time>2023-04-25T10:52:24Z</time>
      </trkpt>
      <trkpt lat="49.18845" lon="-0.4047">
        <ele>58.8</ele>
        <time>2023-04-25T10:52:25Z</time>
      </trkpt>
      <trkpt lat="49.18844" lon="-0.40476">
        <ele>58.8</ele>
        <time>2023-04-25T10:52:26Z</time>
      </trkpt>
      <trkpt lat="49.18844" lon="-0.40482">
        <ele>59</ele>
        <time>2023-04-25T10:52:27Z</time>
      </trkpt>
      <trkpt lat="49.18843" lon="-0.40489">
        <ele>59.2</ele>
        <time>2023-04-25T10:52:28Z</time>
      </trkpt>
      <trkpt lat="49.18842" lon="-0.40495">
        <ele>59.4</ele>
        <time>2023-04-25T10:52:29Z</time>
      </trkpt>
      <trkpt lat="49.18842" lon="-0.40501">
        <ele>59.6</ele>
        <time>2023-04-25T10:52:30Z</time>
      </trkpt>
      <trkpt lat="49.18841" lon="-0.40507">
        <ele>59.6</ele>
        <time>2023-04-25T10:52:31Z</time>
      </trkpt>
      <trkpt lat="49.1884" lon="-0.40513">
        <ele>59.4</ele>
        <time>2023-04-25T10:52:32Z</time>
      </trkpt>
      <trkpt lat="49.1884" lon="-0.40519">
        <ele>59.4</ele>
        <time>2023-04-25T10:52:33Z</time>
      </trkpt>
      <trkpt lat="49.18839" lon="-0.40525">
        <ele>59.2</ele>
        <time>2023-04-25T10:52:34Z</time>
      </trkpt>
      <trkpt lat="49.18838" lon="-0.40531">
        <ele>59.2</ele>
        <time>2023-04-25T10:52:35Z</time>
      </trkpt>
      <trkpt lat="49.18837" lon="-0.40537">
        <ele>59.2</ele>
        <time>2023-04-25T10:52:36Z</time>
      </trkpt>
      <trkpt lat="49.18837" lon="-0.40544">
        <ele>59.2</ele>
        <time>2023-04-25T10:52:37Z</time>
      </trkpt>
      <trkpt lat="49.18836" lon="-0.4055">
        <ele>59.2</ele>
        <time>2023-04-25T10:52:38Z</time>
      </trkpt>
      <trkpt lat="49.18835" lon="-0.40556">
        <ele>59</ele>
        <time>2023-04-25T10:52:39Z</time>
      </trkpt>
      <trkpt lat="49.18834" lon="-0.40562">
        <ele>59</ele>
        <time>2023-04-25T10:52:40Z</time>
      </trkpt>
      <trkpt lat="49.18833" lon="-0.40567">
        <ele>59</ele>
        <time>2023-04-25T10:52:41Z</time>
      </trkpt>
      <trkpt lat="49.1883" lon="-0.40572">
        <ele>58.8</ele>
        <time>2023-04-25T10:52:42Z</time>
      </trkpt>
      <trkpt lat="49.18827" lon="-0.40576">
        <ele>58.6</ele>
        <time>2023-04-25T10:52:43Z</time>
      </trkpt>
      <trkpt lat="49.18823" lon="-0.40579">
        <ele>58.4</ele>
        <time>2023-04-25T10:52:44Z</time>
      </trkpt>
      <trkpt lat="49.18818" lon="-0.4058">
        <ele>58</ele>
        <time>2023-04-25T10:52:45Z</time>
      </trkpt>
      <trkpt lat="49.18812" lon="-0.40581">
        <ele>57.8</ele>
        <time>2023-04-25T10:52:46Z</time>
      </trkpt>
      <trkpt lat="49.18807" lon="-0.40581">
        <ele>57.4</ele>
        <time>2023-04-25T10:52:47Z</time>
      </trkpt>
      <trkpt lat="49.18801" lon="-0.40581">
        <ele>57</ele>
        <time>2023-04-25T10:52:48Z</time>
      </trkpt>
      <trkpt lat="49.18796" lon="-0.40582">
        <ele>56.8</ele>
        <time>2023-04-25T10:52:49Z</time>
      </trkpt>
      <trkpt lat="49.18791" lon="-0.40582">
        <ele>56.6</ele>
        <time>2023-04-25T10:52:50Z</time>
      </trkpt>
      <trkpt lat="49.18787" lon="-0.40583">
        <ele>56.2</ele>
        <time>2023-04-25T10:52:51Z</time>
      </trkpt>
      <trkpt lat="49.18784" lon="-0.40584">
        <ele>56</ele>
        <time>2023-04-25T10:52:52Z</time>
      </trkpt>
      <trkpt lat="49.18781" lon="-0.40585">
        <ele>56</ele>
        <time>2023-04-25T10:52:53Z</time>
      </trkpt>
      <trkpt lat="49.1878" lon="-0.40585">
        <ele>55.8</ele>
        <time>2023-04-25T10:52:54Z</time>
      </trkpt>
      <trkpt lat="49.18779" lon="-0.40585">
        <ele>55.8</ele>
        <time>2023-04-25T10:52:55Z</time>
      </trkpt>
      <trkpt lat="49.18777" lon="-0.40585">
        <ele>55.6</ele>
        <time>2023-04-25T10:52:56Z</time>
      </trkpt>
      <trkpt lat="49.18775" lon="-0.40584">
        <ele>55.6</ele>
        <time>2023-04-25T10:52:57Z</time>
      </trkpt>
      <trkpt lat="49.18773" lon="-0.40582">
        <ele>55.4</ele>
        <time>2023-04-25T10:52:58Z</time>
      </trkpt>
      <trkpt lat="49.18771" lon="-0.40578">
        <ele>55.2</ele>
        <time>2023-04-25T10:52:59Z</time>
      </trkpt>
      <trkpt lat="49.1877" lon="-0.40573">
        <ele>55</ele>
        <time>2023-04-25T10:53:00Z</time>
      </trkpt>
      <trkpt lat="49.18768" lon="-0.40567">
        <ele>55</ele>
        <time>2023-04-25T10:53:01Z</time>
      </trkpt>
      <trkpt lat="49.18767" lon="-0.4056">
        <ele>54.8</ele>
        <time>2023-04-25T10:53:02Z</time>
      </trkpt>
      <trkpt lat="49.18766" lon="-0.40552">
        <ele>54.8</ele>
        <time>2023-04-25T10:53:03Z</time>
      </trkpt>
      <trkpt lat="49.18765" lon="-0.40544">
        <ele>54.6</ele>
        <time>2023-04-25T10:53:04Z</time>
      </trkpt>
      <trkpt lat="49.18763" lon="-0.40536">
        <ele>54.2</ele>
        <time>2023-04-25T10:53:05Z</time>
      </trkpt>
      <trkpt lat="49.18761" lon="-0.40528">
        <ele>54</ele>
        <time>2023-04-25T10:53:06Z</time>
      </trkpt>
      <trkpt lat="49.18759" lon="-0.40519">
        <ele>54</ele>
        <time>2023-04-25T10:53:07Z</time>
      </trkpt>
      <trkpt lat="49.18758" lon="-0.4051">
        <ele>53.8</ele>
        <time>2023-04-25T10:53:08Z</time>
      </trkpt>
      <trkpt lat="49.18756" lon="-0.40501">
        <ele>53.4</ele>
        <time>2023-04-25T10:53:09Z</time>
      </trkpt>
      <trkpt lat="49.18754" lon="-0.40492">
        <ele>53</ele>
        <time>2023-04-25T10:53:10Z</time>
      </trkpt>
      <trkpt lat="49.18751" lon="-0.40483">
        <ele>52.8</ele>
        <time>2023-04-25T10:53:11Z</time>
      </trkpt>
      <trkpt lat="49.18749" lon="-0.40474">
        <ele>52.2</ele>
        <time>2023-04-25T10:53:12Z</time>
      </trkpt>
      <trkpt lat="49.18747" lon="-0.40464">
        <ele>52</ele>
        <time>2023-04-25T10:53:13Z</time>
      </trkpt>
      <trkpt lat="49.18745" lon="-0.40454">
        <ele>51.6</ele>
        <time>2023-04-25T10:53:14Z</time>
      </trkpt>
      <trkpt lat="49.18742" lon="-0.40444">
        <ele>51.2</ele>
        <time>2023-04-25T10:53:15Z</time>
      </trkpt>
      <trkpt lat="49.1874" lon="-0.40435">
        <ele>51</ele>
        <time>2023-04-25T10:53:16Z</time>
      </trkpt>
      <trkpt lat="49.18738" lon="-0.40425">
        <ele>50.6</ele>
        <time>2023-04-25T10:53:17Z</time>
      </trkpt>
      <trkpt lat="49.18736" lon="-0.40416">
        <ele>50.2</ele>
        <time>2023-04-25T10:53:18Z</time>
      </trkpt>
      <trkpt lat="49.18734" lon="-0.40409">
        <ele>50</ele>
        <time>2023-04-25T10:53:19Z</time>
      </trkpt>
      <trkpt lat="49.18732" lon="-0.40404">
        <ele>50</ele>
        <time>2023-04-25T10:53:20Z</time>
      </trkpt>
      <trkpt lat="49.18732" lon="-0.404">
        <ele>49.8</ele>
        <time>2023-04-25T10:53:21Z</time>
      </trkpt>
      <trkpt lat="49.18731" lon="-0.40397">
        <ele>49.8</ele>
        <time>2023-04-25T10:53:22Z</time>
      </trkpt>
      <trkpt lat="49.1873" lon="-0.40395">
        <ele>49.6</ele>
        <time>2023-04-25T10:53:23Z</time>
      </trkpt>
      <trkpt lat="49.18729" lon="-0.40392">
        <ele>49.6</ele>
        <time>2023-04-25T10:53:24Z</time>
      </trkpt>
      <trkpt lat="49.18728" lon="-0.4039">
        <ele>49.4</ele>
        <time>2023-04-25T10:53:25Z</time>
      </trkpt>
      <trkpt lat="49.18728" lon="-0.40388">
        <ele>49.2</ele>
        <time>2023-04-25T10:53:26Z</time>
      </trkpt>
      <trkpt lat="49.18727" lon="-0.40386">
        <ele>49.2</ele>
        <time>2023-04-25T10:53:27Z</time>
      </trkpt>
      <trkpt lat="49.18726" lon="-0.40384">
        <ele>49.2</ele>
        <time>2023-04-25T10:53:28Z</time>
      </trkpt>
      <trkpt lat="49.18726" lon="-0.40382">
        <ele>49</ele>
        <time>2023-04-25T10:53:29Z</time>
      </trkpt>
      <trkpt lat="49.18725" lon="-0.4038">
        <ele>49</ele>
        <time>2023-04-25T10:53:30Z</time>
      </trkpt>
      <trkpt lat="49.18723" lon="-0.40379">
        <ele>49</ele>
        <time>2023-04-25T10:53:31Z</time>
      </trkpt>
      <trkpt lat="49.1872" lon="-0.4038">
        <ele>48.8</ele>
        <time>2023-04-25T10:53:32Z</time>
      </trkpt>
      <trkpt lat="49.18718" lon="-0.40383">
        <ele>48.8</ele>
        <time>2023-04-25T10:53:33Z</time>
      </trkpt>
      <trkpt lat="49.18717" lon="-0.40388">
        <ele>49</ele>
        <time>2023-04-25T10:53:34Z</time>
      </trkpt>
      <trkpt lat="49.18717" lon="-0.40394">
        <ele>49</ele>
        <time>2023-04-25T10:53:35Z</time>
      </trkpt>
      <trkpt lat="49.18718" lon="-0.40401">
        <ele>49</ele>
        <time>2023-04-25T10:53:36Z</time>
      </trkpt>
      <trkpt lat="49.18719" lon="-0.40407">
        <ele>49.2</ele>
        <time>2023-04-25T10:53:37Z</time>
      </trkpt>
      <trkpt lat="49.18719" lon="-0.40413">
        <ele>49.6</ele>
        <time>2023-04-25T10:53:38Z</time>
      </trkpt>
      <trkpt lat="49.1872" lon="-0.4042">
        <ele>49.6</ele>
        <time>2023-04-25T10:53:39Z</time>
      </trkpt>
      <trkpt lat="49.1872" lon="-0.40427">
        <ele>49.8</ele>
        <time>2023-04-25T10:53:40Z</time>
      </trkpt>
      <trkpt lat="49.18721" lon="-0.40434">
        <ele>49.8</ele>
        <time>2023-04-25T10:53:41Z</time>
      </trkpt>
      <trkpt lat="49.18721" lon="-0.4044">
        <ele>50</ele>
        <time>2023-04-25T10:53:42Z</time>
      </trkpt>
      <trkpt lat="49.18722" lon="-0.40447">
        <ele>50</ele>
        <time>2023-04-25T10:53:43Z</time>
      </trkpt>
      <trkpt lat="49.18723" lon="-0.40454">
        <ele>50</ele>
        <time>2023-04-25T10:53:44Z</time>
      </trkpt>
      <trkpt lat="49.18723" lon="-0.40461">
        <ele>50.2</ele>
        <time>2023-04-25T10:53:45Z</time>
      </trkpt>
      <trkpt lat="49.18724" lon="-0.40468">
        <ele>50.4</ele>
        <time>2023-04-25T10:53:46Z</time>
      </trkpt>
      <trkpt lat="49.18724" lon="-0.40475">
        <ele>50.6</ele>
        <time>2023-04-25T10:53:47Z</time>
      </trkpt>
      <trkpt lat="49.18725" lon="-0.40481">
        <ele>50.6</ele>
        <time>2023-04-25T10:53:48Z</time>
      </trkpt>
      <trkpt lat="49.18725" lon="-0.40488">
        <ele>50.8</ele>
        <time>2023-04-25T10:53:49Z</time>
      </trkpt>
      <trkpt lat="49.18726" lon="-0.40495">
        <ele>51</ele>
        <time>2023-04-25T10:53:50Z</time>
      </trkpt>
      <trkpt lat="49.18727" lon="-0.40502">
        <ele>51</ele>
        <time>2023-04-25T10:53:51Z</time>
      </trkpt>
      <trkpt lat="49.18727" lon="-0.40509">
        <ele>51.2</ele>
        <time>2023-04-25T10:53:52Z</time>
      </trkpt>
      <trkpt lat="49.18728" lon="-0.40516">
        <ele>51.2</ele>
        <time>2023-04-25T10:53:53Z</time>
      </trkpt>
      <trkpt lat="49.18728" lon="-0.40523">
        <ele>51.6</ele>
        <time>2023-04-25T10:53:54Z</time>
      </trkpt>
      <trkpt lat="49.18729" lon="-0.4053">
        <ele>51.6</ele>
        <time>2023-04-25T10:53:55Z</time>
      </trkpt>
      <trkpt lat="49.18729" lon="-0.40537">
        <ele>51.8</ele>
        <time>2023-04-25T10:53:56Z</time>
      </trkpt>
      <trkpt lat="49.1873" lon="-0.40544">
        <ele>51.8</ele>
        <time>2023-04-25T10:53:57Z</time>
      </trkpt>
      <trkpt lat="49.1873" lon="-0.40551">
        <ele>52</ele>
        <time>2023-04-25T10:53:58Z</time>
      </trkpt>
      <trkpt lat="49.18731" lon="-0.40559">
        <ele>52</ele>
        <time>2023-04-25T10:53:59Z</time>
      </trkpt>
      <trkpt lat="49.18731" lon="-0.40566">
        <ele>52.2</ele>
        <time>2023-04-25T10:54:00Z</time>
      </trkpt>
      <trkpt lat="49.18731" lon="-0.40573">
        <ele>52.2</ele>
        <time>2023-04-25T10:54:01Z</time>
      </trkpt>
      <trkpt lat="49.18731" lon="-0.4058">
        <ele>52.2</ele>
        <time>2023-04-25T10:54:02Z</time>
      </trkpt>
      <trkpt lat="49.1873" lon="-0.40587">
        <ele>52.4</ele>
        <time>2023-04-25T10:54:03Z</time>
      </trkpt>
      <trkpt lat="49.1873" lon="-0.40594">
        <ele>52.4</ele>
        <time>2023-04-25T10:54:04Z</time>
      </trkpt>
      <trkpt lat="49.1873" lon="-0.40601">
        <ele>52.4</ele>
        <time>2023-04-25T10:54:05Z</time>
      </trkpt>
      <trkpt lat="49.18729" lon="-0.40609">
        <ele>52.6</ele>
        <time>2023-04-25T10:54:06Z</time>
      </trkpt>
      <trkpt lat="49.18729" lon="-0.40616">
        <ele>52.6</ele>
        <time>2023-04-25T10:54:07Z</time>
      </trkpt>
      <trkpt lat="49.18728" lon="-0.40623">
        <ele>52.6</ele>
        <time>2023-04-25T10:54:08Z</time>
      </trkpt>
      <trkpt lat="49.18728" lon="-0.4063">
        <ele>52.6</ele>
        <time>2023-04-25T10:54:09Z</time>
      </trkpt>
      <trkpt lat="49.18727" lon="-0.40638">
        <ele>52.6</ele>
        <time>2023-04-25T10:54:10Z</time>
      </trkpt>
      <trkpt lat="49.18727" lon="-0.40645">
        <ele>52.6</ele>
        <time>2023-04-25T10:54:11Z</time>
      </trkpt>
      <trkpt lat="49.18727" lon="-0.40652">
        <ele>52.6</ele>
        <time>2023-04-25T10:54:12Z</time>
      </trkpt>
      <trkpt lat="49.18726" lon="-0.4066">
        <ele>52.8</ele>
        <time>2023-04-25T10:54:13Z</time>
      </trkpt>
      <trkpt lat="49.18726" lon="-0.40668">
        <ele>52.8</ele>
        <time>2023-04-25T10:54:14Z</time>
      </trkpt>
      <trkpt lat="49.18726" lon="-0.40675">
        <ele>52.6</ele>
        <time>2023-04-25T10:54:15Z</time>
      </trkpt>
      <trkpt lat="49.18726" lon="-0.40683">
        <ele>52.6</ele>
        <time>2023-04-25T10:54:16Z</time>
      </trkpt>
      <trkpt lat="49.18725" lon="-0.40691">
        <ele>52.6</ele>
        <time>2023-04-25T10:54:17Z</time>
      </trkpt>
      <trkpt lat="49.18725" lon="-0.407">
        <ele>52.6</ele>
        <time>2023-04-25T10:54:18Z</time>
      </trkpt>
      <trkpt lat="49.18725" lon="-0.40708">
        <ele>52.4</ele>
        <time>2023-04-25T10:54:19Z</time>
      </trkpt>
      <trkpt lat="49.18725" lon="-0.40716">
        <ele>52.4</ele>
        <time>2023-04-25T10:54:20Z</time>
      </trkpt>
      <trkpt lat="49.18725" lon="-0.40725">
        <ele>52.2</ele>
        <time>2023-04-25T10:54:21Z</time>
      </trkpt>
      <trkpt lat="49.18725" lon="-0.40734">
        <ele>52.2</ele>
        <time>2023-04-25T10:54:22Z</time>
      </trkpt>
      <trkpt lat="49.18725" lon="-0.40743">
        <ele>52.2</ele>
        <time>2023-04-25T10:54:23Z</time>
      </trkpt>
      <trkpt lat="49.18725" lon="-0.40751">
        <ele>52.2</ele>
        <time>2023-04-25T10:54:24Z</time>
      </trkpt>
      <trkpt lat="49.18725" lon="-0.4076">
        <ele>52.2</ele>
        <time>2023-04-25T10:54:25Z</time>
      </trkpt>
      <trkpt lat="49.18725" lon="-0.4077">
        <ele>52.2</ele>
        <time>2023-04-25T10:54:26Z</time>
      </trkpt>
      <trkpt lat="49.18725" lon="-0.40779">
        <ele>52.2</ele>
        <time>2023-04-25T10:54:27Z</time>
      </trkpt>
      <trkpt lat="49.18726" lon="-0.40787">
        <ele>52.2</ele>
        <time>2023-04-25T10:54:28Z</time>
      </trkpt>
      <trkpt lat="49.18726" lon="-0.40796">
        <ele>52.2</ele>
        <time>2023-04-25T10:54:29Z</time>
      </trkpt>
      <trkpt lat="49.18726" lon="-0.40806">
        <ele>52.2</ele>
        <time>2023-04-25T10:54:30Z</time>
      </trkpt>
      <trkpt lat="49.18727" lon="-0.40814">
        <ele>52.4</ele>
        <time>2023-04-25T10:54:31Z</time>
      </trkpt>
      <trkpt lat="49.18728" lon="-0.40823">
        <ele>52.4</ele>
        <time>2023-04-25T10:54:32Z</time>
      </trkpt>
      <trkpt lat="49.18728" lon="-0.40832">
        <ele>52.4</ele>
        <time>2023-04-25T10:54:33Z</time>
      </trkpt>
      <trkpt lat="49.18729" lon="-0.40841">
        <ele>52.6</ele>
        <time>2023-04-25T10:54:34Z</time>
      </trkpt>
      <trkpt lat="49.18729" lon="-0.4085">
        <ele>52.8</ele>
        <time>2023-04-25T10:54:35Z</time>
      </trkpt>
      <trkpt lat="49.1873" lon="-0.40858">
        <ele>52.8</ele>
        <time>2023-04-25T10:54:36Z</time>
      </trkpt>
      <trkpt lat="49.18731" lon="-0.40867">
        <ele>53</ele>
        <time>2023-04-25T10:54:37Z</time>
      </trkpt>
      <trkpt lat="49.18731" lon="-0.40875">
        <ele>53</ele>
        <time>2023-04-25T10:54:38Z</time>
      </trkpt>
      <trkpt lat="49.18732" lon="-0.40884">
        <ele>53</ele>
        <time>2023-04-25T10:54:39Z</time>
      </trkpt>
      <trkpt lat="49.18732" lon="-0.40892">
        <ele>53.2</ele>
        <time>2023-04-25T10:54:40Z</time>
      </trkpt>
      <trkpt lat="49.18733" lon="-0.409">
        <ele>53.4</ele>
        <time>2023-04-25T10:54:41Z</time>
      </trkpt>
      <trkpt lat="49.18733" lon="-0.40908">
        <ele>53.6</ele>
        <time>2023-04-25T10:54:42Z</time>
      </trkpt>
      <trkpt lat="49.18734" lon="-0.40915">
        <ele>53.6</ele>
        <time>2023-04-25T10:54:43Z</time>
      </trkpt>
      <trkpt lat="49.18735" lon="-0.40923">
        <ele>53.8</ele>
        <time>2023-04-25T10:54:44Z</time>
      </trkpt>
      <trkpt lat="49.18735" lon="-0.4093">
        <ele>54</ele>
        <time>2023-04-25T10:54:45Z</time>
      </trkpt>
      <trkpt lat="49.18736" lon="-0.40937">
        <ele>54.2</ele>
        <time>2023-04-25T10:54:46Z</time>
      </trkpt>
      <trkpt lat="49.18736" lon="-0.40944">
        <ele>54.4</ele>
        <time>2023-04-25T10:54:47Z</time>
      </trkpt>
      <trkpt lat="49.18737" lon="-0.40952">
        <ele>54.6</ele>
        <time>2023-04-25T10:54:48Z</time>
      </trkpt>
      <trkpt lat="49.18738" lon="-0.40959">
        <ele>54.8</ele>
        <time>2023-04-25T10:54:49Z</time>
      </trkpt>
      <trkpt lat="49.18738" lon="-0.40967">
        <ele>55</ele>
        <time>2023-04-25T10:54:50Z</time>
      </trkpt>
      <trkpt lat="49.18739" lon="-0.40975">
        <ele>55.2</ele>
        <time>2023-04-25T10:54:51Z</time>
      </trkpt>
      <trkpt lat="49.18739" lon="-0.40983">
        <ele>55.6</ele>
        <time>2023-04-25T10:54:52Z</time>
      </trkpt>
      <trkpt lat="49.18739" lon="-0.40991">
        <ele>55.6</ele>
        <time>2023-04-25T10:54:53Z</time>
      </trkpt>
      <trkpt lat="49.18738" lon="-0.40999">
        <ele>55.8</ele>
        <time>2023-04-25T10:54:54Z</time>
      </trkpt>
      <trkpt lat="49.18737" lon="-0.41007">
        <ele>55.6</ele>
        <time>2023-04-25T10:54:55Z</time>
      </trkpt>
      <trkpt lat="49.18736" lon="-0.41015">
        <ele>55.2</ele>
        <time>2023-04-25T10:54:56Z</time>
      </trkpt>
      <trkpt lat="49.18735" lon="-0.41022">
        <ele>55</ele>
        <time>2023-04-25T10:54:57Z</time>
      </trkpt>
      <trkpt lat="49.18734" lon="-0.41028">
        <ele>54.8</ele>
        <time>2023-04-25T10:54:58Z</time>
      </trkpt>
      <trkpt lat="49.18733" lon="-0.41033">
        <ele>54.6</ele>
        <time>2023-04-25T10:54:59Z</time>
      </trkpt>
      <trkpt lat="49.18733" lon="-0.41036">
        <ele>54.6</ele>
        <time>2023-04-25T10:55:00Z</time>
      </trkpt>
      <trkpt lat="49.18733" lon="-0.41039">
        <ele>54.6</ele>
        <time>2023-04-25T10:55:01Z</time>
      </trkpt>
      <trkpt lat="49.18734" lon="-0.41041">
        <ele>54.6</ele>
        <time>2023-04-25T10:55:02Z</time>
      </trkpt>
      <trkpt lat="49.18734" lon="-0.41043">
        <ele>54.6</ele>
        <time>2023-04-25T10:55:03Z</time>
      </trkpt>
      <trkpt lat="49.18735" lon="-0.41046">
        <ele>54.6</ele>
        <time>2023-04-25T10:55:04Z</time>
      </trkpt>
      <trkpt lat="49.18736" lon="-0.4105">
        <ele>54.6</ele>
        <time>2023-04-25T10:55:05Z</time>
      </trkpt>
      <trkpt lat="49.18737" lon="-0.41056">
        <ele>54.6</ele>
        <time>2023-04-25T10:55:06Z</time>
      </trkpt>
      <trkpt lat="49.18737" lon="-0.41062">
        <ele>54.4</ele>
        <time>2023-04-25T10:55:07Z</time>
      </trkpt>
      <trkpt lat="49.18736" lon="-0.41068">
        <ele>54.2</ele>
        <time>2023-04-25T10:55:08Z</time>
      </trkpt>
      <trkpt lat="49.18735" lon="-0.41075">
        <ele>54</ele>
        <time>2023-04-25T10:55:09Z</time>
      </trkpt>
      <trkpt lat="49.18732" lon="-0.41081">
        <ele>53.8</ele>
        <time>2023-04-25T10:55:10Z</time>
      </trkpt>
      <trkpt lat="49.18729" lon="-0.41087">
        <ele>53.6</ele>
        <time>2023-04-25T10:55:11Z</time>
      </trkpt>
      <trkpt lat="49.18727" lon="-0.41094">
        <ele>53.6</ele>
        <time>2023-04-25T10:55:12Z</time>
      </trkpt>
      <trkpt lat="49.18724" lon="-0.41101">
        <ele>53.4</ele>
        <time>2023-04-25T10:55:13Z</time>
      </trkpt>
      <trkpt lat="49.18723" lon="-0.41108">
        <ele>53.4</ele>
        <time>2023-04-25T10:55:14Z</time>
      </trkpt>
      <trkpt lat="49.18723" lon="-0.41115">
        <ele>53.6</ele>
        <time>2023-04-25T10:55:15Z</time>
      </trkpt>
      <trkpt lat="49.18724" lon="-0.41123">
        <ele>53.8</ele>
        <time>2023-04-25T10:55:16Z</time>
      </trkpt>
      <trkpt lat="49.18726" lon="-0.41132">
        <ele>54</ele>
        <time>2023-04-25T10:55:17Z</time>
      </trkpt>
      <trkpt lat="49.18728" lon="-0.4114">
        <ele>54.2</ele>
        <time>2023-04-25T10:55:18Z</time>
      </trkpt>
      <trkpt lat="49.1873" lon="-0.41148">
        <ele>54.6</ele>
        <time>2023-04-25T10:55:19Z</time>
      </trkpt>
      <trkpt lat="49.18732" lon="-0.41156">
        <ele>54.8</ele>
        <time>2023-04-25T10:55:20Z</time>
      </trkpt>
      <trkpt lat="49.18733" lon="-0.41164">
        <ele>55</ele>
        <time>2023-04-25T10:55:21Z</time>
      </trkpt>
      <trkpt lat="49.18735" lon="-0.41172">
        <ele>55.2</ele>
        <time>2023-04-25T10:55:22Z</time>
      </trkpt>
      <trkpt lat="49.18736" lon="-0.4118">
        <ele>55.4</ele>
        <time>2023-04-25T10:55:23Z</time>
      </trkpt>
      <trkpt lat="49.18736" lon="-0.41188">
        <ele>55.6</ele>
        <time>2023-04-25T10:55:24Z</time>
      </trkpt>
      <trkpt lat="49.18737" lon="-0.41197">
        <ele>55.8</ele>
        <time>2023-04-25T10:55:25Z</time>
      </trkpt>
      <trkpt lat="49.18738" lon="-0.41205">
        <ele>56</ele>
        <time>2023-04-25T10:55:26Z</time>
      </trkpt>
      <trkpt lat="49.18738" lon="-0.41213">
        <ele>56</ele>
        <time>2023-04-25T10:55:27Z</time>
      </trkpt>
      <trkpt lat="49.18738" lon="-0.41222">
        <ele>56.2</ele>
        <time>2023-04-25T10:55:28Z</time>
      </trkpt>
      <trkpt lat="49.18738" lon="-0.4123">
        <ele>56.2</ele>
        <time>2023-04-25T10:55:29Z</time>
      </trkpt>
      <trkpt lat="49.18738" lon="-0.41239">
        <ele>56.6</ele>
        <time>2023-04-25T10:55:30Z</time>
      </trkpt>
      <trkpt lat="49.18737" lon="-0.41248">
        <ele>56.6</ele>
        <time>2023-04-25T10:55:31Z</time>
      </trkpt>
      <trkpt lat="49.18737" lon="-0.41257">
        <ele>56.6</ele>
        <time>2023-04-25T10:55:32Z</time>
      </trkpt>
      <trkpt lat="49.18737" lon="-0.41265">
        <ele>56.4</ele>
        <time>2023-04-25T10:55:33Z</time>
      </trkpt>
      <trkpt lat="49.18737" lon="-0.41274">
        <ele>56.2</ele>
        <time>2023-04-25T10:55:34Z</time>
      </trkpt>
      <trkpt lat="49.18737" lon="-0.41283">
        <ele>56.2</ele>
        <time>2023-04-25T10:55:35Z</time>
      </trkpt>
      <trkpt lat="49.18736" lon="-0.41292">
        <ele>56</ele>
        <time>2023-04-25T10:55:36Z</time>
      </trkpt>
      <trkpt lat="49.18736" lon="-0.41301">
        <ele>56</ele>
        <time>2023-04-25T10:55:37Z</time>
      </trkpt>
      <trkpt lat="49.18736" lon="-0.41309">
        <ele>56</ele>
        <time>2023-04-25T10:55:38Z</time>
      </trkpt>
      <trkpt lat="49.18736" lon="-0.41318">
        <ele>55.8</ele>
        <time>2023-04-25T10:55:39Z</time>
      </trkpt>
      <trkpt lat="49.18736" lon="-0.41327">
        <ele>55.8</ele>
        <time>2023-04-25T10:55:40Z</time>
      </trkpt>
      <trkpt lat="49.18736" lon="-0.41336">
        <ele>55.8</ele>
        <time>2023-04-25T10:55:41Z</time>
      </trkpt>
      <trkpt lat="49.18735" lon="-0.41345">
        <ele>56</ele>
        <time>2023-04-25T10:55:42Z</time>
      </trkpt>
      <trkpt lat="49.18735" lon="-0.41353">
        <ele>56</ele>
        <time>2023-04-25T10:55:43Z</time>
      </trkpt>
      <trkpt lat="49.18735" lon="-0.41362">
        <ele>56.2</ele>
        <time>2023-04-25T10:55:44Z</time>
      </trkpt>
      <trkpt lat="49.18735" lon="-0.41371">
        <ele>56.4</ele>
        <time>2023-04-25T10:55:45Z</time>
      </trkpt>
      <trkpt lat="49.18735" lon="-0.4138">
        <ele>56.6</ele>
        <time>2023-04-25T10:55:46Z</time>
      </trkpt>
      <trkpt lat="49.18735" lon="-0.41388">
        <ele>56.8</ele>
        <time>2023-04-25T10:55:47Z</time>
      </trkpt>
      <trkpt lat="49.18734" lon="-0.41397">
        <ele>57</ele>
        <time>2023-04-25T10:55:48Z</time>
      </trkpt>
      <trkpt lat="49.18734" lon="-0.41407">
        <ele>57</ele>
        <time>2023-04-25T10:55:49Z</time>
      </trkpt>
      <trkpt lat="49.18734" lon="-0.41416">
        <ele>57.2</ele>
        <time>2023-04-25T10:55:50Z</time>
      </trkpt>
      <trkpt lat="49.18734" lon="-0.41425">
        <ele>57.2</ele>
        <time>2023-04-25T10:55:51Z</time>
      </trkpt>
      <trkpt lat="49.18733" lon="-0.41434">
        <ele>57.2</ele>
        <time>2023-04-25T10:55:52Z</time>
      </trkpt>
      <trkpt lat="49.18733" lon="-0.41443">
        <ele>57.2</ele>
        <time>2023-04-25T10:55:53Z</time>
      </trkpt>
      <trkpt lat="49.18733" lon="-0.41453">
        <ele>57.2</ele>
        <time>2023-04-25T10:55:54Z</time>
      </trkpt>
      <trkpt lat="49.18733" lon="-0.41463">
        <ele>57.2</ele>
        <time>2023-04-25T10:55:55Z</time>
      </trkpt>
      <trkpt lat="49.18733" lon="-0.41472">
        <ele>57</ele>
        <time>2023-04-25T10:55:56Z</time>
      </trkpt>
      <trkpt lat="49.18733" lon="-0.41482">
        <ele>57</ele>
        <time>2023-04-25T10:55:57Z</time>
      </trkpt>
      <trkpt lat="49.18732" lon="-0.41492">
        <ele>57</ele>
        <time>2023-04-25T10:55:58Z</time>
      </trkpt>
      <trkpt lat="49.18732" lon="-0.41501">
        <ele>57</ele>
        <time>2023-04-25T10:55:59Z</time>
      </trkpt>
      <trkpt lat="49.18732" lon="-0.41511">
        <ele>57</ele>
        <time>2023-04-25T10:56:00Z</time>
      </trkpt>
      <trkpt lat="49.18732" lon="-0.41521">
        <ele>57</ele>
        <time>2023-04-25T10:56:01Z</time>
      </trkpt>
      <trkpt lat="49.18732" lon="-0.4153">
        <ele>56.8</ele>
        <time>2023-04-25T10:56:02Z</time>
      </trkpt>
      <trkpt lat="49.18732" lon="-0.4154">
        <ele>56.6</ele>
        <time>2023-04-25T10:56:03Z</time>
      </trkpt>
      <trkpt lat="49.18731" lon="-0.41549">
        <ele>56.6</ele>
        <time>2023-04-25T10:56:04Z</time>
      </trkpt>
      <trkpt lat="49.18731" lon="-0.41559">
        <ele>56.4</ele>
        <time>2023-04-25T10:56:05Z</time>
      </trkpt>
      <trkpt lat="49.18731" lon="-0.41569">
        <ele>56.2</ele>
        <time>2023-04-25T10:56:06Z</time>
      </trkpt>
      <trkpt lat="49.18731" lon="-0.41578">
        <ele>56.2</ele>
        <time>2023-04-25T10:56:07Z</time>
      </trkpt>
      <trkpt lat="49.18731" lon="-0.41588">
        <ele>56</ele>
        <time>2023-04-25T10:56:08Z</time>
      </trkpt>
      <trkpt lat="49.1873" lon="-0.41597">
        <ele>56</ele>
        <time>2023-04-25T10:56:09Z</time>
      </trkpt>
      <trkpt lat="49.1873" lon="-0.41607">
        <ele>56</ele>
        <time>2023-04-25T10:56:10Z</time>
      </trkpt>
      <trkpt lat="49.1873" lon="-0.41617">
        <ele>56</ele>
        <time>2023-04-25T10:56:11Z</time>
      </trkpt>
      <trkpt lat="49.1873" lon="-0.41627">
        <ele>56</ele>
        <time>2023-04-25T10:56:12Z</time>
      </trkpt>
      <trkpt lat="49.18729" lon="-0.41637">
        <ele>56</ele>
        <time>2023-04-25T10:56:13Z</time>
      </trkpt>
      <trkpt lat="49.18729" lon="-0.41647">
        <ele>56</ele>
        <time>2023-04-25T10:56:14Z</time>
      </trkpt>
      <trkpt lat="49.18729" lon="-0.41657">
        <ele>56</ele>
        <time>2023-04-25T10:56:15Z</time>
      </trkpt>
      <trkpt lat="49.18729" lon="-0.41667">
        <ele>56</ele>
        <time>2023-04-25T10:56:16Z</time>
      </trkpt>
      <trkpt lat="49.18729" lon="-0.41677">
        <ele>56</ele>
        <time>2023-04-25T10:56:17Z</time>
      </trkpt>
      <trkpt lat="49.18729" lon="-0.41687">
        <ele>56</ele>
        <time>2023-04-25T10:56:18Z</time>
      </trkpt>
      <trkpt lat="49.18729" lon="-0.41698">
        <ele>56</ele>
        <time>2023-04-25T10:56:19Z</time>
      </trkpt>
      <trkpt lat="49.18728" lon="-0.41708">
        <ele>56</ele>
        <time>2023-04-25T10:56:20Z</time>
      </trkpt>
      <trkpt lat="49.18728" lon="-0.41719">
        <ele>56</ele>
        <time>2023-04-25T10:56:21Z</time>
      </trkpt>
      <trkpt lat="49.18728" lon="-0.41729">
        <ele>56</ele>
        <time>2023-04-25T10:56:22Z</time>
      </trkpt>
      <trkpt lat="49.18728" lon="-0.4174">
        <ele>56</ele>
        <time>2023-04-25T10:56:23Z</time>
      </trkpt>
      <trkpt lat="49.18728" lon="-0.4175">
        <ele>56</ele>
        <time>2023-04-25T10:56:24Z</time>
      </trkpt>
      <trkpt lat="49.18727" lon="-0.41761">
        <ele>56</ele>
        <time>2023-04-25T10:56:25Z</time>
      </trkpt>
      <trkpt lat="49.18727" lon="-0.41772">
        <ele>56</ele>
        <time>2023-04-25T10:56:26Z</time>
      </trkpt>
      <trkpt lat="49.18727" lon="-0.41782">
        <ele>56</ele>
        <time>2023-04-25T10:56:27Z</time>
      </trkpt>
      <trkpt lat="49.18726" lon="-0.41793">
        <ele>56</ele>
        <time>2023-04-25T10:56:28Z</time>
      </trkpt>
      <trkpt lat="49.18726" lon="-0.41804">
        <ele>56</ele>
        <time>2023-04-25T10:56:29Z</time>
      </trkpt>
      <trkpt lat="49.18726" lon="-0.41815">
        <ele>56</ele>
        <time>2023-04-25T10:56:30Z</time>
      </trkpt>
      <trkpt lat="49.18726" lon="-0.41826">
        <ele>56</ele>
        <time>2023-04-25T10:56:31Z</time>
      </trkpt>
      <trkpt lat="49.18726" lon="-0.41836">
        <ele>56</ele>
        <time>2023-04-25T10:56:32Z</time>
      </trkpt>
      <trkpt lat="49.18726" lon="-0.41847">
        <ele>55.8</ele>
        <time>2023-04-25T10:56:33Z</time>
      </trkpt>
      <trkpt lat="49.18725" lon="-0.41859">
        <ele>55.4</ele>
        <time>2023-04-25T10:56:34Z</time>
      </trkpt>
      <trkpt lat="49.18725" lon="-0.4187">
        <ele>55.2</ele>
        <time>2023-04-25T10:56:35Z</time>
      </trkpt>
      <trkpt lat="49.18725" lon="-0.41881">
        <ele>55</ele>
        <time>2023-04-25T10:56:36Z</time>
      </trkpt>
      <trkpt lat="49.18725" lon="-0.41892">
        <ele>54.8</ele>
        <time>2023-04-25T10:56:37Z</time>
      </trkpt>
      <trkpt lat="49.18725" lon="-0.41903">
        <ele>54.4</ele>
        <time>2023-04-25T10:56:38Z</time>
      </trkpt>
      <trkpt lat="49.18724" lon="-0.41914">
        <ele>54.2</ele>
        <time>2023-04-25T10:56:39Z</time>
      </trkpt>
      <trkpt lat="49.18724" lon="-0.41926">
        <ele>54.2</ele>
        <time>2023-04-25T10:56:40Z</time>
      </trkpt>
      <trkpt lat="49.18724" lon="-0.41937">
        <ele>54.2</ele>
        <time>2023-04-25T10:56:41Z</time>
      </trkpt>
      <trkpt lat="49.18724" lon="-0.41948">
        <ele>54.2</ele>
        <time>2023-04-25T10:56:42Z</time>
      </trkpt>
      <trkpt lat="49.18723" lon="-0.4196">
        <ele>54.2</ele>
        <time>2023-04-25T10:56:43Z</time>
      </trkpt>
      <trkpt lat="49.18723" lon="-0.41971">
        <ele>54.2</ele>
        <time>2023-04-25T10:56:44Z</time>
      </trkpt>
      <trkpt lat="49.18723" lon="-0.41982">
        <ele>54.2</ele>
        <time>2023-04-25T10:56:45Z</time>
      </trkpt>
      <trkpt lat="49.18723" lon="-0.41994">
        <ele>54.4</ele>
        <time>2023-04-25T10:56:46Z</time>
      </trkpt>
      <trkpt lat="49.18723" lon="-0.42005">
        <ele>54.2</ele>
        <time>2023-04-25T10:56:47Z</time>
      </trkpt>
      <trkpt lat="49.18723" lon="-0.42017">
        <ele>54.2</ele>
        <time>2023-04-25T10:56:48Z</time>
      </trkpt>
      <trkpt lat="49.18723" lon="-0.42028">
        <ele>54.2</ele>
        <time>2023-04-25T10:56:49Z</time>
      </trkpt>
      <trkpt lat="49.18723" lon="-0.4204">
        <ele>54</ele>
        <time>2023-04-25T10:56:50Z</time>
      </trkpt>
      <trkpt lat="49.18723" lon="-0.42051">
        <ele>54</ele>
        <time>2023-04-25T10:56:51Z</time>
      </trkpt>
      <trkpt lat="49.18723" lon="-0.42063">
        <ele>54</ele>
        <time>2023-04-25T10:56:52Z</time>
      </trkpt>
      <trkpt lat="49.18723" lon="-0.42075">
        <ele>53.8</ele>
        <time>2023-04-25T10:56:53Z</time>
      </trkpt>
      <trkpt lat="49.18723" lon="-0.42086">
        <ele>53.8</ele>
        <time>2023-04-25T10:56:54Z</time>
      </trkpt>
      <trkpt lat="49.18723" lon="-0.42097">
        <ele>53.8</ele>
        <time>2023-04-25T10:56:55Z</time>
      </trkpt>
      <trkpt lat="49.18723" lon="-0.42107">
        <ele>53.8</ele>
        <time>2023-04-25T10:56:56Z</time>
      </trkpt>
      <trkpt lat="49.18722" lon="-0.42116">
        <ele>53.8</ele>
        <time>2023-04-25T10:56:57Z</time>
      </trkpt>
      <trkpt lat="49.18722" lon="-0.42125">
        <ele>53.8</ele>
        <time>2023-04-25T10:56:58Z</time>
      </trkpt>
      <trkpt lat="49.18722" lon="-0.42132">
        <ele>53.8</ele>
        <time>2023-04-25T10:56:59Z</time>
      </trkpt>
      <trkpt lat="49.18722" lon="-0.42138">
        <ele>53.8</ele>
        <time>2023-04-25T10:57:00Z</time>
      </trkpt>
      <trkpt lat="49.18722" lon="-0.42143">
        <ele>53.8</ele>
        <time>2023-04-25T10:57:01Z</time>
      </trkpt>
      <trkpt lat="49.18722" lon="-0.42146">
        <ele>53.8</ele>
        <time>2023-04-25T10:57:02Z</time>
      </trkpt>
      <trkpt lat="49.18722" lon="-0.4215">
        <ele>53.8</ele>
        <time>2023-04-25T10:57:03Z</time>
      </trkpt>
      <trkpt lat="49.18722" lon="-0.42152">
        <ele>53.8</ele>
        <time>2023-04-25T10:57:04Z</time>
      </trkpt>
      <trkpt lat="49.18722" lon="-0.42153">
        <ele>53.8</ele>
        <time>2023-04-25T10:57:05Z</time>
      </trkpt>
      <trkpt lat="49.18722" lon="-0.42155">
        <ele>53.8</ele>
        <time>2023-04-25T10:57:06Z</time>
      </trkpt>
      <trkpt lat="49.18722" lon="-0.42155">
        <ele>53.8</ele>
        <time>2023-04-25T10:57:07Z</time>
      </trkpt>
      <trkpt lat="49.18722" lon="-0.42156">
        <ele>53.8</ele>
        <time>2023-04-25T10:57:08Z</time>
      </trkpt>
      <trkpt lat="49.18722" lon="-0.42156">
        <ele>53.8</ele>
        <time>2023-04-25T10:57:09Z</time>
      </trkpt>
      <trkpt lat="49.18722" lon="-0.42156">
        <ele>53.8</ele>
        <time>2023-04-25T10:57:10Z</time>
      </trkpt>
      <trkpt lat="49.18722" lon="-0.42156">
        <ele>53.8</ele>
        <time>2023-04-25T10:57:11Z</time>
      </trkpt>
      <trkpt lat="49.18722" lon="-0.42156">
        <ele>53.8</ele>
        <time>2023-04-25T10:57:12Z</time>
      </trkpt>
      <trkpt lat="49.18722" lon="-0.42156">
        <ele>53.8</ele>
        <time>2023-04-25T10:57:13Z</time>
      </trkpt>
      <trkpt lat="49.18722" lon="-0.42156">
        <ele>53.8</ele>
        <time>2023-04-25T10:57:14Z</time>
      </trkpt>
      <trkpt lat="49.18722" lon="-0.42156">
        <ele>53.8</ele>
        <time>2023-04-25T10:57:15Z</time>
      </trkpt>
      <trkpt lat="49.18722" lon="-0.42156">
        <ele>53.8</ele>
        <time>2023-04-25T10:57:16Z</time>
      </trkpt>
      <trkpt lat="49.18722" lon="-0.42156">
        <ele>53.8</ele>
        <time>2023-04-25T10:57:17Z</time>
      </trkpt>
      <trkpt lat="49.18722" lon="-0.42156">
        <ele>53.8</ele>
        <time>2023-04-25T10:57:18Z</time>
      </trkpt>
      <trkpt lat="49.18722" lon="-0.42156">
        <ele>53.8</ele>
        <time>2023-04-25T10:57:19Z</time>
      </trkpt>
      <trkpt lat="49.18722" lon="-0.42156">
        <ele>53.8</ele>
        <time>2023-04-25T10:57:20Z</time>
      </trkpt>
      <trkpt lat="49.18722" lon="-0.42156">
        <ele>53.8</ele>
        <time>2023-04-25T10:57:21Z</time>
      </trkpt>
      <trkpt lat="49.18722" lon="-0.42157">
        <ele>53.8</ele>
        <time>2023-04-25T10:57:22Z</time>
      </trkpt>
      <trkpt lat="49.18722" lon="-0.42159">
        <ele>53.8</ele>
        <time>2023-04-25T10:57:23Z</time>
      </trkpt>
      <trkpt lat="49.18722" lon="-0.42162">
        <ele>53.8</ele>
        <time>2023-04-25T10:57:24Z</time>
      </trkpt>
      <trkpt lat="49.18722" lon="-0.42167">
        <ele>53.8</ele>
        <time>2023-04-25T10:57:25Z</time>
      </trkpt>
      <trkpt lat="49.18722" lon="-0.42173">
        <ele>53.8</ele>
        <time>2023-04-25T10:57:26Z</time>
      </trkpt>
      <trkpt lat="49.18722" lon="-0.4218">
        <ele>53.8</ele>
        <time>2023-04-25T10:57:27Z</time>
      </trkpt>
      <trkpt lat="49.18722" lon="-0.42188">
        <ele>53.8</ele>
        <time>2023-04-25T10:57:28Z</time>
      </trkpt>
      <trkpt lat="49.18722" lon="-0.42197">
        <ele>53.8</ele>
        <time>2023-04-25T10:57:29Z</time>
      </trkpt>
      <trkpt lat="49.18722" lon="-0.42207">
        <ele>53.8</ele>
        <time>2023-04-25T10:57:30Z</time>
      </trkpt>
      <trkpt lat="49.18722" lon="-0.42217">
        <ele>53.8</ele>
        <time>2023-04-25T10:57:31Z</time>
      </trkpt>
      <trkpt lat="49.18722" lon="-0.42227">
        <ele>53.8</ele>
        <time>2023-04-25T10:57:32Z</time>
      </trkpt>
      <trkpt lat="49.18722" lon="-0.42238">
        <ele>53.8</ele>
        <time>2023-04-25T10:57:33Z</time>
      </trkpt>
      <trkpt lat="49.18721" lon="-0.4225">
        <ele>53.8</ele>
        <time>2023-04-25T10:57:34Z</time>
      </trkpt>
      <trkpt lat="49.18721" lon="-0.42262">
        <ele>53.8</ele>
        <time>2023-04-25T10:57:35Z</time>
      </trkpt>
      <trkpt lat="49.18721" lon="-0.42274">
        <ele>53.6</ele>
        <time>2023-04-25T10:57:36Z</time>
      </trkpt>
      <trkpt lat="49.1872" lon="-0.42287">
        <ele>53.6</ele>
        <time>2023-04-25T10:57:37Z</time>
      </trkpt>
      <trkpt lat="49.1872" lon="-0.42301">
        <ele>53.6</ele>
        <time>2023-04-25T10:57:38Z</time>
      </trkpt>
      <trkpt lat="49.1872" lon="-0.42314">
        <ele>53.6</ele>
        <time>2023-04-25T10:57:39Z</time>
      </trkpt>
      <trkpt lat="49.1872" lon="-0.42328">
        <ele>53.6</ele>
        <time>2023-04-25T10:57:40Z</time>
      </trkpt>
      <trkpt lat="49.1872" lon="-0.42342">
        <ele>53.6</ele>
        <time>2023-04-25T10:57:41Z</time>
      </trkpt>
      <trkpt lat="49.18719" lon="-0.42355">
        <ele>53.6</ele>
        <time>2023-04-25T10:57:42Z</time>
      </trkpt>
      <trkpt lat="49.18719" lon="-0.42369">
        <ele>53.6</ele>
        <time>2023-04-25T10:57:43Z</time>
      </trkpt>
      <trkpt lat="49.18718" lon="-0.42382">
        <ele>53.4</ele>
        <time>2023-04-25T10:57:44Z</time>
      </trkpt>
      <trkpt lat="49.18718" lon="-0.42395">
        <ele>53.2</ele>
        <time>2023-04-25T10:57:45Z</time>
      </trkpt>
      <trkpt lat="49.18717" lon="-0.42409">
        <ele>53.2</ele>
        <time>2023-04-25T10:57:46Z</time>
      </trkpt>
      <trkpt lat="49.18716" lon="-0.42421">
        <ele>53.2</ele>
        <time>2023-04-25T10:57:47Z</time>
      </trkpt>
      <trkpt lat="49.18715" lon="-0.42434">
        <ele>53.2</ele>
        <time>2023-04-25T10:57:48Z</time>
      </trkpt>
      <trkpt lat="49.18715" lon="-0.42447">
        <ele>53.6</ele>
        <time>2023-04-25T10:57:49Z</time>
      </trkpt>
      <trkpt lat="49.18714" lon="-0.42459">
        <ele>53.6</ele>
        <time>2023-04-25T10:57:50Z</time>
      </trkpt>
      <trkpt lat="49.18713" lon="-0.42471">
        <ele>53.8</ele>
        <time>2023-04-25T10:57:51Z</time>
      </trkpt>
      <trkpt lat="49.18713" lon="-0.42483">
        <ele>53.8</ele>
        <time>2023-04-25T10:57:52Z</time>
      </trkpt>
      <trkpt lat="49.18713" lon="-0.42495">
        <ele>54</ele>
        <time>2023-04-25T10:57:53Z</time>
      </trkpt>
      <trkpt lat="49.18713" lon="-0.42506">
        <ele>54</ele>
        <time>2023-04-25T10:57:54Z</time>
      </trkpt>
      <trkpt lat="49.18713" lon="-0.42517">
        <ele>53.8</ele>
        <time>2023-04-25T10:57:55Z</time>
      </trkpt>
      <trkpt lat="49.18713" lon="-0.42528">
        <ele>53.8</ele>
        <time>2023-04-25T10:57:56Z</time>
      </trkpt>
      <trkpt lat="49.18712" lon="-0.42539">
        <ele>53.6</ele>
        <time>2023-04-25T10:57:57Z</time>
      </trkpt>
      <trkpt lat="49.18712" lon="-0.42549">
        <ele>53.6</ele>
        <time>2023-04-25T10:57:58Z</time>
      </trkpt>
      <trkpt lat="49.18712" lon="-0.4256">
        <ele>53.2</ele>
        <time>2023-04-25T10:57:59Z</time>
      </trkpt>
      <trkpt lat="49.18712" lon="-0.42571">
        <ele>53.2</ele>
        <time>2023-04-25T10:58:00Z</time>
      </trkpt>
      <trkpt lat="49.18712" lon="-0.42582">
        <ele>53</ele>
        <time>2023-04-25T10:58:01Z</time>
      </trkpt>
      <trkpt lat="49.18711" lon="-0.42593">
        <ele>52.8</ele>
        <time>2023-04-25T10:58:02Z</time>
      </trkpt>
      <trkpt lat="49.1871" lon="-0.42604">
        <ele>52.4</ele>
        <time>2023-04-25T10:58:03Z</time>
      </trkpt>
      <trkpt lat="49.1871" lon="-0.42615">
        <ele>52</ele>
        <time>2023-04-25T10:58:04Z</time>
      </trkpt>
      <trkpt lat="49.18709" lon="-0.42626">
        <ele>51.6</ele>
        <time>2023-04-25T10:58:05Z</time>
      </trkpt>
      <trkpt lat="49.18708" lon="-0.42637">
        <ele>51</ele>
        <time>2023-04-25T10:58:06Z</time>
      </trkpt>
      <trkpt lat="49.18707" lon="-0.42648">
        <ele>50.6</ele>
        <time>2023-04-25T10:58:07Z</time>
      </trkpt>
      <trkpt lat="49.18706" lon="-0.4266">
        <ele>50</ele>
        <time>2023-04-25T10:58:08Z</time>
      </trkpt>
      <trkpt lat="49.18704" lon="-0.42671">
        <ele>49.6</ele>
        <time>2023-04-25T10:58:09Z</time>
      </trkpt>
      <trkpt lat="49.18702" lon="-0.42683">
        <ele>49</ele>
        <time>2023-04-25T10:58:10Z</time>
      </trkpt>
      <trkpt lat="49.187" lon="-0.42695">
        <ele>48.8</ele>
        <time>2023-04-25T10:58:11Z</time>
      </trkpt>
      <trkpt lat="49.18698" lon="-0.42706">
        <ele>48.4</ele>
        <time>2023-04-25T10:58:12Z</time>
      </trkpt>
      <trkpt lat="49.18696" lon="-0.42718">
        <ele>48</ele>
        <time>2023-04-25T10:58:13Z</time>
      </trkpt>
      <trkpt lat="49.18694" lon="-0.4273">
        <ele>47.6</ele>
        <time>2023-04-25T10:58:14Z</time>
      </trkpt>
      <trkpt lat="49.18692" lon="-0.42742">
        <ele>47.2</ele>
        <time>2023-04-25T10:58:15Z</time>
      </trkpt>
      <trkpt lat="49.18689" lon="-0.42753">
        <ele>47</ele>
        <time>2023-04-25T10:58:16Z</time>
      </trkpt>
      <trkpt lat="49.18687" lon="-0.42765">
        <ele>47</ele>
        <time>2023-04-25T10:58:17Z</time>
      </trkpt>
      <trkpt lat="49.18685" lon="-0.42776">
        <ele>47</ele>
        <time>2023-04-25T10:58:18Z</time>
      </trkpt>
      <trkpt lat="49.18682" lon="-0.42787">
        <ele>47</ele>
        <time>2023-04-25T10:58:19Z</time>
      </trkpt>
      <trkpt lat="49.1868" lon="-0.42798">
        <ele>47</ele>
        <time>2023-04-25T10:58:20Z</time>
      </trkpt>
      <trkpt lat="49.18678" lon="-0.42809">
        <ele>47</ele>
        <time>2023-04-25T10:58:21Z</time>
      </trkpt>
      <trkpt lat="49.18676" lon="-0.4282">
        <ele>47</ele>
        <time>2023-04-25T10:58:22Z</time>
      </trkpt>
      <trkpt lat="49.18673" lon="-0.4283">
        <ele>47.2</ele>
        <time>2023-04-25T10:58:23Z</time>
      </trkpt>
      <trkpt lat="49.18671" lon="-0.4284">
        <ele>47</ele>
        <time>2023-04-25T10:58:24Z</time>
      </trkpt>
      <trkpt lat="49.18669" lon="-0.42851">
        <ele>47</ele>
        <time>2023-04-25T10:58:25Z</time>
      </trkpt>
      <trkpt lat="49.18667" lon="-0.4286">
        <ele>46.8</ele>
        <time>2023-04-25T10:58:26Z</time>
      </trkpt>
      <trkpt lat="49.18665" lon="-0.4287">
        <ele>46.6</ele>
        <time>2023-04-25T10:58:27Z</time>
      </trkpt>
      <trkpt lat="49.18663" lon="-0.4288">
        <ele>46.6</ele>
        <time>2023-04-25T10:58:28Z</time>
      </trkpt>
      <trkpt lat="49.18661" lon="-0.42889">
        <ele>46.4</ele>
        <time>2023-04-25T10:58:29Z</time>
      </trkpt>
      <trkpt lat="49.18659" lon="-0.42898">
        <ele>46.4</ele>
        <time>2023-04-25T10:58:30Z</time>
      </trkpt>
      <trkpt lat="49.18657" lon="-0.42908">
        <ele>46.2</ele>
        <time>2023-04-25T10:58:31Z</time>
      </trkpt>
      <trkpt lat="49.18655" lon="-0.42917">
        <ele>46.2</ele>
        <time>2023-04-25T10:58:32Z</time>
      </trkpt>
      <trkpt lat="49.18653" lon="-0.42926">
        <ele>46.2</ele>
        <time>2023-04-25T10:58:33Z</time>
      </trkpt>
      <trkpt lat="49.18651" lon="-0.42936">
        <ele>46.4</ele>
        <time>2023-04-25T10:58:34Z</time>
      </trkpt>
      <trkpt lat="49.18649" lon="-0.42945">
        <ele>46.4</ele>
        <time>2023-04-25T10:58:35Z</time>
      </trkpt>
      <trkpt lat="49.18647" lon="-0.42954">
        <ele>46.6</ele>
        <time>2023-04-25T10:58:36Z</time>
      </trkpt>
      <trkpt lat="49.18645" lon="-0.42964">
        <ele>46.6</ele>
        <time>2023-04-25T10:58:37Z</time>
      </trkpt>
      <trkpt lat="49.18643" lon="-0.42974">
        <ele>46.6</ele>
        <time>2023-04-25T10:58:38Z</time>
      </trkpt>
      <trkpt lat="49.18641" lon="-0.42983">
        <ele>46.6</ele>
        <time>2023-04-25T10:58:39Z</time>
      </trkpt>
      <trkpt lat="49.1864" lon="-0.42993">
        <ele>46.6</ele>
        <time>2023-04-25T10:58:40Z</time>
      </trkpt>
      <trkpt lat="49.18638" lon="-0.43003">
        <ele>46.8</ele>
        <time>2023-04-25T10:58:41Z</time>
      </trkpt>
      <trkpt lat="49.18636" lon="-0.43013">
        <ele>47</ele>
        <time>2023-04-25T10:58:42Z</time>
      </trkpt>
      <trkpt lat="49.18633" lon="-0.43023">
        <ele>47</ele>
        <time>2023-04-25T10:58:43Z</time>
      </trkpt>
      <trkpt lat="49.18631" lon="-0.43033">
        <ele>47.2</ele>
        <time>2023-04-25T10:58:44Z</time>
      </trkpt>
      <trkpt lat="49.18628" lon="-0.43043">
        <ele>47.4</ele>
        <time>2023-04-25T10:58:45Z</time>
      </trkpt>
      <trkpt lat="49.18626" lon="-0.43053">
        <ele>47.6</ele>
        <time>2023-04-25T10:58:46Z</time>
      </trkpt>
      <trkpt lat="49.18624" lon="-0.43062">
        <ele>47.8</ele>
        <time>2023-04-25T10:58:47Z</time>
      </trkpt>
      <trkpt lat="49.18622" lon="-0.43072">
        <ele>48</ele>
        <time>2023-04-25T10:58:48Z</time>
      </trkpt>
      <trkpt lat="49.1862" lon="-0.43082">
        <ele>48</ele>
        <time>2023-04-25T10:58:49Z</time>
      </trkpt>
      <trkpt lat="49.18618" lon="-0.43091">
        <ele>48.2</ele>
        <time>2023-04-25T10:58:50Z</time>
      </trkpt>
      <trkpt lat="49.18616" lon="-0.43101">
        <ele>48.2</ele>
        <time>2023-04-25T10:58:51Z</time>
      </trkpt>
      <trkpt lat="49.18614" lon="-0.4311">
        <ele>48.4</ele>
        <time>2023-04-25T10:58:52Z</time>
      </trkpt>
      <trkpt lat="49.18612" lon="-0.43119">
        <ele>48.6</ele>
        <time>2023-04-25T10:58:53Z</time>
      </trkpt>
      <trkpt lat="49.1861" lon="-0.43128">
        <ele>48.6</ele>
        <time>2023-04-25T10:58:54Z</time>
      </trkpt>
      <trkpt lat="49.18607" lon="-0.43138">
        <ele>48.6</ele>
        <time>2023-04-25T10:58:55Z</time>
      </trkpt>
      <trkpt lat="49.18605" lon="-0.43147">
        <ele>48.8</ele>
        <time>2023-04-25T10:58:56Z</time>
      </trkpt>
      <trkpt lat="49.18604" lon="-0.43156">
        <ele>48.8</ele>
        <time>2023-04-25T10:58:57Z</time>
      </trkpt>
      <trkpt lat="49.18602" lon="-0.43165">
        <ele>48.8</ele>
        <time>2023-04-25T10:58:58Z</time>
      </trkpt>
      <trkpt lat="49.186" lon="-0.43174">
        <ele>49</ele>
        <time>2023-04-25T10:58:59Z</time>
      </trkpt>
      <trkpt lat="49.18598" lon="-0.43183">
        <ele>49.2</ele>
        <time>2023-04-25T10:59:00Z</time>
      </trkpt>
      <trkpt lat="49.18596" lon="-0.43192">
        <ele>49.4</ele>
        <time>2023-04-25T10:59:01Z</time>
      </trkpt>
      <trkpt lat="49.18594" lon="-0.43201">
        <ele>49.6</ele>
        <time>2023-04-25T10:59:02Z</time>
      </trkpt>
      <trkpt lat="49.18592" lon="-0.43209">
        <ele>50</ele>
        <time>2023-04-25T10:59:03Z</time>
      </trkpt>
      <trkpt lat="49.1859" lon="-0.43219">
        <ele>50</ele>
        <time>2023-04-25T10:59:04Z</time>
      </trkpt>
      <trkpt lat="49.18588" lon="-0.43227">
        <ele>50.4</ele>
        <time>2023-04-25T10:59:05Z</time>
      </trkpt>
      <trkpt lat="49.18586" lon="-0.43236">
        <ele>50.6</ele>
        <time>2023-04-25T10:59:06Z</time>
      </trkpt>
      <trkpt lat="49.18584" lon="-0.43245">
        <ele>51</ele>
        <time>2023-04-25T10:59:07Z</time>
      </trkpt>
      <trkpt lat="49.18582" lon="-0.43254">
        <ele>51</ele>
        <time>2023-04-25T10:59:08Z</time>
      </trkpt>
      <trkpt lat="49.1858" lon="-0.43264">
        <ele>51.2</ele>
        <time>2023-04-25T10:59:09Z</time>
      </trkpt>
      <trkpt lat="49.18578" lon="-0.43273">
        <ele>51.4</ele>
        <time>2023-04-25T10:59:10Z</time>
      </trkpt>
      <trkpt lat="49.18576" lon="-0.43282">
        <ele>51.6</ele>
        <time>2023-04-25T10:59:11Z</time>
      </trkpt>
      <trkpt lat="49.18574" lon="-0.43291">
        <ele>51.8</ele>
        <time>2023-04-25T10:59:12Z</time>
      </trkpt>
      <trkpt lat="49.18572" lon="-0.433">
        <ele>51.8</ele>
        <time>2023-04-25T10:59:13Z</time>
      </trkpt>
      <trkpt lat="49.1857" lon="-0.43309">
        <ele>52</ele>
        <time>2023-04-25T10:59:14Z</time>
      </trkpt>
      <trkpt lat="49.18568" lon="-0.43318">
        <ele>52</ele>
        <time>2023-04-25T10:59:15Z</time>
      </trkpt>
      <trkpt lat="49.18566" lon="-0.43327">
        <ele>52</ele>
        <time>2023-04-25T10:59:16Z</time>
      </trkpt>
      <trkpt lat="49.18565" lon="-0.43336">
        <ele>52.2</ele>
        <time>2023-04-25T10:59:17Z</time>
      </trkpt>
      <trkpt lat="49.18563" lon="-0.43344">
        <ele>52.2</ele>
        <time>2023-04-25T10:59:18Z</time>
      </trkpt>
      <trkpt lat="49.18561" lon="-0.43352">
        <ele>52.2</ele>
        <time>2023-04-25T10:59:19Z</time>
      </trkpt>
      <trkpt lat="49.18559" lon="-0.4336">
        <ele>52.4</ele>
        <time>2023-04-25T10:59:20Z</time>
      </trkpt>
      <trkpt lat="49.18558" lon="-0.43369">
        <ele>52.4</ele>
        <time>2023-04-25T10:59:21Z</time>
      </trkpt>
      <trkpt lat="49.18556" lon="-0.43377">
        <ele>52.6</ele>
        <time>2023-04-25T10:59:22Z</time>
      </trkpt>
      <trkpt lat="49.18555" lon="-0.43385">
        <ele>52.6</ele>
        <time>2023-04-25T10:59:23Z</time>
      </trkpt>
      <trkpt lat="49.18553" lon="-0.43393">
        <ele>52.6</ele>
        <time>2023-04-25T10:59:24Z</time>
      </trkpt>
      <trkpt lat="49.18552" lon="-0.43401">
        <ele>52.8</ele>
        <time>2023-04-25T10:59:25Z</time>
      </trkpt>
      <trkpt lat="49.18551" lon="-0.43409">
        <ele>52.8</ele>
        <time>2023-04-25T10:59:26Z</time>
      </trkpt>
      <trkpt lat="49.1855" lon="-0.43417">
        <ele>52.8</ele>
        <time>2023-04-25T10:59:27Z</time>
      </trkpt>
      <trkpt lat="49.18549" lon="-0.43424">
        <ele>52.8</ele>
        <time>2023-04-25T10:59:28Z</time>
      </trkpt>
      <trkpt lat="49.18548" lon="-0.43431">
        <ele>53</ele>
        <time>2023-04-25T10:59:29Z</time>
      </trkpt>
      <trkpt lat="49.18546" lon="-0.43437">
        <ele>53</ele>
        <time>2023-04-25T10:59:30Z</time>
      </trkpt>
      <trkpt lat="49.18545" lon="-0.43442">
        <ele>53</ele>
        <time>2023-04-25T10:59:31Z</time>
      </trkpt>
      <trkpt lat="49.18545" lon="-0.43445">
        <ele>53</ele>
        <time>2023-04-25T10:59:32Z</time>
      </trkpt>
      <trkpt lat="49.18544" lon="-0.43447">
        <ele>53</ele>
        <time>2023-04-25T10:59:33Z</time>
      </trkpt>
      <trkpt lat="49.18544" lon="-0.43448">
        <ele>53</ele>
        <time>2023-04-25T10:59:34Z</time>
      </trkpt>
      <trkpt lat="49.18544" lon="-0.43447">
        <ele>53</ele>
        <time>2023-04-25T10:59:35Z</time>
      </trkpt>
      <trkpt lat="49.18544" lon="-0.43447">
        <ele>53</ele>
        <time>2023-04-25T10:59:36Z</time>
      </trkpt>
      <trkpt lat="49.18544" lon="-0.43449">
        <ele>53</ele>
        <time>2023-04-25T10:59:37Z</time>
      </trkpt>
      <trkpt lat="49.18543" lon="-0.43451">
        <ele>53</ele>
        <time>2023-04-25T10:59:38Z</time>
      </trkpt>
      <trkpt lat="49.18542" lon="-0.43454">
        <ele>53</ele>
        <time>2023-04-25T10:59:39Z</time>
      </trkpt>
      <trkpt lat="49.18542" lon="-0.43457">
        <ele>53</ele>
        <time>2023-04-25T10:59:40Z</time>
      </trkpt>
      <trkpt lat="49.18541" lon="-0.43461">
        <ele>53</ele>
        <time>2023-04-25T10:59:41Z</time>
      </trkpt>
      <trkpt lat="49.18541" lon="-0.43466">
        <ele>53</ele>
        <time>2023-04-25T10:59:42Z</time>
      </trkpt>
      <trkpt lat="49.18542" lon="-0.43473">
        <ele>53</ele>
        <time>2023-04-25T10:59:43Z</time>
      </trkpt>
      <trkpt lat="49.18541" lon="-0.43481">
        <ele>53</ele>
        <time>2023-04-25T10:59:44Z</time>
      </trkpt>
      <trkpt lat="49.1854" lon="-0.43489">
        <ele>53</ele>
        <time>2023-04-25T10:59:45Z</time>
      </trkpt>
      <trkpt lat="49.18538" lon="-0.43498">
        <ele>53</ele>
        <time>2023-04-25T10:59:46Z</time>
      </trkpt>
      <trkpt lat="49.18535" lon="-0.43507">
        <ele>53.2</ele>
        <time>2023-04-25T10:59:47Z</time>
      </trkpt>
      <trkpt lat="49.18532" lon="-0.43516">
        <ele>53.2</ele>
        <time>2023-04-25T10:59:48Z</time>
      </trkpt>
      <trkpt lat="49.18528" lon="-0.43525">
        <ele>53.4</ele>
        <time>2023-04-25T10:59:49Z</time>
      </trkpt>
      <trkpt lat="49.18525" lon="-0.43534">
        <ele>53.6</ele>
        <time>2023-04-25T10:59:50Z</time>
      </trkpt>
      <trkpt lat="49.18522" lon="-0.43544">
        <ele>53.8</ele>
        <time>2023-04-25T10:59:51Z</time>
      </trkpt>
      <trkpt lat="49.18519" lon="-0.43553">
        <ele>54</ele>
        <time>2023-04-25T10:59:52Z</time>
      </trkpt>
      <trkpt lat="49.18515" lon="-0.43562">
        <ele>54</ele>
        <time>2023-04-25T10:59:53Z</time>
      </trkpt>
      <trkpt lat="49.18512" lon="-0.43571">
        <ele>54.2</ele>
        <time>2023-04-25T10:59:54Z</time>
      </trkpt>
      <trkpt lat="49.18508" lon="-0.4358">
        <ele>54.6</ele>
        <time>2023-04-25T10:59:55Z</time>
      </trkpt>
      <trkpt lat="49.18504" lon="-0.43589">
        <ele>54.8</ele>
        <time>2023-04-25T10:59:56Z</time>
      </trkpt>
      <trkpt lat="49.18501" lon="-0.43598">
        <ele>54.6</ele>
        <time>2023-04-25T10:59:57Z</time>
      </trkpt>
      <trkpt lat="49.18498" lon="-0.43607">
        <ele>54.6</ele>
        <time>2023-04-25T10:59:58Z</time>
      </trkpt>
      <trkpt lat="49.18495" lon="-0.43616">
        <ele>54.2</ele>
        <time>2023-04-25T10:59:59Z</time>
      </trkpt>
      <trkpt lat="49.18491" lon="-0.43626">
        <ele>54</ele>
        <time>2023-04-25T11:00:00Z</time>
      </trkpt>
      <trkpt lat="49.18488" lon="-0.43635">
        <ele>54</ele>
        <time>2023-04-25T11:00:01Z</time>
      </trkpt>
      <trkpt lat="49.18485" lon="-0.43644">
        <ele>54</ele>
        <time>2023-04-25T11:00:02Z</time>
      </trkpt>
      <trkpt lat="49.18482" lon="-0.43653">
        <ele>54</ele>
        <time>2023-04-25T11:00:03Z</time>
      </trkpt>
      <trkpt lat="49.18479" lon="-0.43662">
        <ele>53.8</ele>
        <time>2023-04-25T11:00:04Z</time>
      </trkpt>
      <trkpt lat="49.18475" lon="-0.43671">
        <ele>54</ele>
        <time>2023-04-25T11:00:05Z</time>
      </trkpt>
      <trkpt lat="49.18472" lon="-0.4368">
        <ele>54</ele>
        <time>2023-04-25T11:00:06Z</time>
      </trkpt>
      <trkpt lat="49.18469" lon="-0.43689">
        <ele>54</ele>
        <time>2023-04-25T11:00:07Z</time>
      </trkpt>
      <trkpt lat="49.18465" lon="-0.43698">
        <ele>54</ele>
        <time>2023-04-25T11:00:08Z</time>
      </trkpt>
      <trkpt lat="49.18462" lon="-0.43706">
        <ele>54.2</ele>
        <time>2023-04-25T11:00:09Z</time>
      </trkpt>
      <trkpt lat="49.18459" lon="-0.43714">
        <ele>54.2</ele>
        <time>2023-04-25T11:00:10Z</time>
      </trkpt>
      <trkpt lat="49.18455" lon="-0.43723">
        <ele>54.2</ele>
        <time>2023-04-25T11:00:11Z</time>
      </trkpt>
      <trkpt lat="49.18452" lon="-0.43731">
        <ele>54.2</ele>
        <time>2023-04-25T11:00:12Z</time>
      </trkpt>
      <trkpt lat="49.18449" lon="-0.43739">
        <ele>54.2</ele>
        <time>2023-04-25T11:00:13Z</time>
      </trkpt>
      <trkpt lat="49.18446" lon="-0.43747">
        <ele>54.2</ele>
        <time>2023-04-25T11:00:14Z</time>
      </trkpt>
      <trkpt lat="49.18442" lon="-0.43754">
        <ele>54.4</ele>
        <time>2023-04-25T11:00:15Z</time>
      </trkpt>
      <trkpt lat="49.18439" lon="-0.4376">
        <ele>54.6</ele>
        <time>2023-04-25T11:00:16Z</time>
      </trkpt>
      <trkpt lat="49.18435" lon="-0.43765">
        <ele>54.8</ele>
        <time>2023-04-25T11:00:17Z</time>
      </trkpt>
      <trkpt lat="49.18431" lon="-0.43771">
        <ele>55</ele>
        <time>2023-04-25T11:00:18Z</time>
      </trkpt>
      <trkpt lat="49.18428" lon="-0.43777">
        <ele>55</ele>
        <time>2023-04-25T11:00:19Z</time>
      </trkpt>
      <trkpt lat="49.18425" lon="-0.43784">
        <ele>55.2</ele>
        <time>2023-04-25T11:00:20Z</time>
      </trkpt>
      <trkpt lat="49.18422" lon="-0.43792">
        <ele>55.2</ele>
        <time>2023-04-25T11:00:21Z</time>
      </trkpt>
      <trkpt lat="49.18419" lon="-0.438">
        <ele>55.6</ele>
        <time>2023-04-25T11:00:22Z</time>
      </trkpt>
      <trkpt lat="49.18415" lon="-0.43808">
        <ele>55.8</ele>
        <time>2023-04-25T11:00:23Z</time>
      </trkpt>
      <trkpt lat="49.18412" lon="-0.43817">
        <ele>55.8</ele>
        <time>2023-04-25T11:00:24Z</time>
      </trkpt>
      <trkpt lat="49.18409" lon="-0.43825">
        <ele>56</ele>
        <time>2023-04-25T11:00:25Z</time>
      </trkpt>
      <trkpt lat="49.18406" lon="-0.43834">
        <ele>56</ele>
        <time>2023-04-25T11:00:26Z</time>
      </trkpt>
      <trkpt lat="49.18403" lon="-0.43842">
        <ele>56</ele>
        <time>2023-04-25T11:00:27Z</time>
      </trkpt>
      <trkpt lat="49.18399" lon="-0.43851">
        <ele>56</ele>
        <time>2023-04-25T11:00:28Z</time>
      </trkpt>
      <trkpt lat="49.18397" lon="-0.43859">
        <ele>56</ele>
        <time>2023-04-25T11:00:29Z</time>
      </trkpt>
      <trkpt lat="49.18394" lon="-0.43868">
        <ele>56</ele>
        <time>2023-04-25T11:00:30Z</time>
      </trkpt>
      <trkpt lat="49.18391" lon="-0.43877">
        <ele>56.2</ele>
        <time>2023-04-25T11:00:31Z</time>
      </trkpt>
      <trkpt lat="49.18388" lon="-0.43886">
        <ele>56.2</ele>
        <time>2023-04-25T11:00:32Z</time>
      </trkpt>
      <trkpt lat="49.18385" lon="-0.43895">
        <ele>56.2</ele>
        <time>2023-04-25T11:00:33Z</time>
      </trkpt>
      <trkpt lat="49.18382" lon="-0.43904">
        <ele>56.2</ele>
        <time>2023-04-25T11:00:34Z</time>
      </trkpt>
      <trkpt lat="49.1838" lon="-0.43913">
        <ele>56.4</ele>
        <time>2023-04-25T11:00:35Z</time>
      </trkpt>
      <trkpt lat="49.18377" lon="-0.43922">
        <ele>56.6</ele>
        <time>2023-04-25T11:00:36Z</time>
      </trkpt>
      <trkpt lat="49.18374" lon="-0.43931">
        <ele>56.6</ele>
        <time>2023-04-25T11:00:37Z</time>
      </trkpt>
      <trkpt lat="49.18372" lon="-0.4394">
        <ele>56.6</ele>
        <time>2023-04-25T11:00:38Z</time>
      </trkpt>
      <trkpt lat="49.18369" lon="-0.43948">
        <ele>56.6</ele>
        <time>2023-04-25T11:00:39Z</time>
      </trkpt>
      <trkpt lat="49.18366" lon="-0.43957">
        <ele>56.6</ele>
        <time>2023-04-25T11:00:40Z</time>
      </trkpt>
      <trkpt lat="49.18364" lon="-0.43965">
        <ele>56.6</ele>
        <time>2023-04-25T11:00:41Z</time>
      </trkpt>
      <trkpt lat="49.18362" lon="-0.43973">
        <ele>56.8</ele>
        <time>2023-04-25T11:00:42Z</time>
      </trkpt>
      <trkpt lat="49.18359" lon="-0.4398">
        <ele>56.8</ele>
        <time>2023-04-25T11:00:43Z</time>
      </trkpt>
      <trkpt lat="49.18357" lon="-0.43987">
        <ele>56.8</ele>
        <time>2023-04-25T11:00:44Z</time>
      </trkpt>
      <trkpt lat="49.18355" lon="-0.43993">
        <ele>56.8</ele>
        <time>2023-04-25T11:00:45Z</time>
      </trkpt>
      <trkpt lat="49.18354" lon="-0.43999">
        <ele>56.8</ele>
        <time>2023-04-25T11:00:46Z</time>
      </trkpt>
      <trkpt lat="49.18352" lon="-0.44004">
        <ele>56.8</ele>
        <time>2023-04-25T11:00:47Z</time>
      </trkpt>
      <trkpt lat="49.18351" lon="-0.44008">
        <ele>56.8</ele>
        <time>2023-04-25T11:00:48Z</time>
      </trkpt>
      <trkpt lat="49.1835" lon="-0.44012">
        <ele>57</ele>
        <time>2023-04-25T11:00:49Z</time>
      </trkpt>
      <trkpt lat="49.18349" lon="-0.44016">
        <ele>57</ele>
        <time>2023-04-25T11:00:50Z</time>
      </trkpt>
      <trkpt lat="49.18348" lon="-0.44019">
        <ele>57</ele>
        <time>2023-04-25T11:00:51Z</time>
      </trkpt>
      <trkpt lat="49.18347" lon="-0.44021">
        <ele>57</ele>
        <time>2023-04-25T11:00:52Z</time>
      </trkpt>
      <trkpt lat="49.18346" lon="-0.44024">
        <ele>57</ele>
        <time>2023-04-25T11:00:53Z</time>
      </trkpt>
      <trkpt lat="49.18346" lon="-0.44026">
        <ele>57</ele>
        <time>2023-04-25T11:00:54Z</time>
      </trkpt>
      <trkpt lat="49.18346" lon="-0.44027">
        <ele>57</ele>
        <time>2023-04-25T11:00:55Z</time>
      </trkpt>
      <trkpt lat="49.18345" lon="-0.44029">
        <ele>57</ele>
        <time>2023-04-25T11:00:56Z</time>
      </trkpt>
      <trkpt lat="49.18345" lon="-0.4403">
        <ele>57</ele>
        <time>2023-04-25T11:00:57Z</time>
      </trkpt>
      <trkpt lat="49.18345" lon="-0.4403">
        <ele>57</ele>
        <time>2023-04-25T11:00:58Z</time>
      </trkpt>
      <trkpt lat="49.18345" lon="-0.4403">
        <ele>57</ele>
        <time>2023-04-25T11:00:59Z</time>
      </trkpt>
      <trkpt lat="49.18345" lon="-0.4403">
        <ele>57</ele>
        <time>2023-04-25T11:01:00Z</time>
      </trkpt>
      <trkpt lat="49.18345" lon="-0.4403">
        <ele>57</ele>
        <time>2023-04-25T11:01:01Z</time>
      </trkpt>
      <trkpt lat="49.18345" lon="-0.4403">
        <ele>57</ele>
        <time>2023-04-25T11:01:02Z</time>
      </trkpt>
      <trkpt lat="49.18345" lon="-0.4403">
        <ele>57</ele>
        <time>2023-04-25T11:01:03Z</time>
      </trkpt>
      <trkpt lat="49.18345" lon="-0.4403">
        <ele>57</ele>
        <time>2023-04-25T11:01:04Z</time>
      </trkpt>
      <trkpt lat="49.18345" lon="-0.4403">
        <ele>57</ele>
        <time>2023-04-25T11:01:05Z</time>
      </trkpt>
      <trkpt lat="49.18345" lon="-0.4403">
        <ele>57</ele>
        <time>2023-04-25T11:01:06Z</time>
      </trkpt>
      <trkpt lat="49.18345" lon="-0.4403">
        <ele>57</ele>
        <time>2023-04-25T11:01:07Z</time>
      </trkpt>
      <trkpt lat="49.18345" lon="-0.4403">
        <ele>57</ele>
        <time>2023-04-25T11:01:08Z</time>
      </trkpt>
      <trkpt lat="49.18344" lon="-0.44032">
        <ele>57.2</ele>
        <time>2023-04-25T11:01:09Z</time>
      </trkpt>
      <trkpt lat="49.18343" lon="-0.44035">
        <ele>57.2</ele>
        <time>2023-04-25T11:01:10Z</time>
      </trkpt>
      <trkpt lat="49.18343" lon="-0.44038">
        <ele>57.2</ele>
        <time>2023-04-25T11:01:11Z</time>
      </trkpt>
      <trkpt lat="49.18342" lon="-0.44043">
        <ele>57.2</ele>
        <time>2023-04-25T11:01:12Z</time>
      </trkpt>
      <trkpt lat="49.18342" lon="-0.44049">
        <ele>57.4</ele>
        <time>2023-04-25T11:01:13Z</time>
      </trkpt>
      <trkpt lat="49.18341" lon="-0.44056">
        <ele>57.6</ele>
        <time>2023-04-25T11:01:14Z</time>
      </trkpt>
      <trkpt lat="49.18341" lon="-0.44065">
        <ele>57.6</ele>
        <time>2023-04-25T11:01:15Z</time>
      </trkpt>
      <trkpt lat="49.18341" lon="-0.44075">
        <ele>57.8</ele>
        <time>2023-04-25T11:01:16Z</time>
      </trkpt>
      <trkpt lat="49.1834" lon="-0.44085">
        <ele>57.8</ele>
        <time>2023-04-25T11:01:17Z</time>
      </trkpt>
      <trkpt lat="49.1834" lon="-0.44095">
        <ele>57.8</ele>
        <time>2023-04-25T11:01:18Z</time>
      </trkpt>
      <trkpt lat="49.1834" lon="-0.44106">
        <ele>57.8</ele>
        <time>2023-04-25T11:01:19Z</time>
      </trkpt>
      <trkpt lat="49.1834" lon="-0.44117">
        <ele>57.8</ele>
        <time>2023-04-25T11:01:20Z</time>
      </trkpt>
      <trkpt lat="49.1834" lon="-0.44128">
        <ele>58</ele>
        <time>2023-04-25T11:01:21Z</time>
      </trkpt>
      <trkpt lat="49.1834" lon="-0.44139">
        <ele>58</ele>
        <time>2023-04-25T11:01:22Z</time>
      </trkpt>
      <trkpt lat="49.18341" lon="-0.4415">
        <ele>58</ele>
        <time>2023-04-25T11:01:23Z</time>
      </trkpt>
      <trkpt lat="49.18341" lon="-0.4416">
        <ele>58</ele>
        <time>2023-04-25T11:01:24Z</time>
      </trkpt>
      <trkpt lat="49.18342" lon="-0.44171">
        <ele>58</ele>
        <time>2023-04-25T11:01:25Z</time>
      </trkpt>
      <trkpt lat="49.18344" lon="-0.44182">
        <ele>58</ele>
        <time>2023-04-25T11:01:26Z</time>
      </trkpt>
      <trkpt lat="49.18345" lon="-0.44192">
        <ele>57.8</ele>
        <time>2023-04-25T11:01:27Z</time>
      </trkpt>
      <trkpt lat="49.18346" lon="-0.44203">
        <ele>57.8</ele>
        <time>2023-04-25T11:01:28Z</time>
      </trkpt>
      <trkpt lat="49.18348" lon="-0.44213">
        <ele>57.8</ele>
        <time>2023-04-25T11:01:29Z</time>
      </trkpt>
      <trkpt lat="49.18349" lon="-0.44224">
        <ele>57.8</ele>
        <time>2023-04-25T11:01:30Z</time>
      </trkpt>
      <trkpt lat="49.18351" lon="-0.44234">
        <ele>57.6</ele>
        <time>2023-04-25T11:01:31Z</time>
      </trkpt>
      <trkpt lat="49.18352" lon="-0.44244">
        <ele>57.6</ele>
        <time>2023-04-25T11:01:32Z</time>
      </trkpt>
      <trkpt lat="49.18353" lon="-0.44255">
        <ele>57.6</ele>
        <time>2023-04-25T11:01:33Z</time>
      </trkpt>
      <trkpt lat="49.18354" lon="-0.44265">
        <ele>57.4</ele>
        <time>2023-04-25T11:01:34Z</time>
      </trkpt>
      <trkpt lat="49.18356" lon="-0.44276">
        <ele>57.2</ele>
        <time>2023-04-25T11:01:35Z</time>
      </trkpt>
      <trkpt lat="49.18357" lon="-0.44286">
        <ele>57</ele>
        <time>2023-04-25T11:01:36Z</time>
      </trkpt>
      <trkpt lat="49.1836" lon="-0.44295">
        <ele>57</ele>
        <time>2023-04-25T11:01:37Z</time>
      </trkpt>
      <trkpt lat="49.18363" lon="-0.44305">
        <ele>57</ele>
        <time>2023-04-25T11:01:38Z</time>
      </trkpt>
      <trkpt lat="49.18366" lon="-0.44314">
        <ele>56.8</ele>
        <time>2023-04-25T11:01:39Z</time>
      </trkpt>
      <trkpt lat="49.1837" lon="-0.44323">
        <ele>56.6</ele>
        <time>2023-04-25T11:01:40Z</time>
      </trkpt>
      <trkpt lat="49.18372" lon="-0.44333">
        <ele>56.6</ele>
        <time>2023-04-25T11:01:41Z</time>
      </trkpt>
      <trkpt lat="49.18374" lon="-0.44343">
        <ele>56.6</ele>
        <time>2023-04-25T11:01:42Z</time>
      </trkpt>
      <trkpt lat="49.18375" lon="-0.44353">
        <ele>56.6</ele>
        <time>2023-04-25T11:01:43Z</time>
      </trkpt>
      <trkpt lat="49.18375" lon="-0.44364">
        <ele>56.8</ele>
        <time>2023-04-25T11:01:44Z</time>
      </trkpt>
      <trkpt lat="49.18375" lon="-0.44374">
        <ele>56.8</ele>
        <time>2023-04-25T11:01:45Z</time>
      </trkpt>
      <trkpt lat="49.18376" lon="-0.44385">
        <ele>56.8</ele>
        <time>2023-04-25T11:01:46Z</time>
      </trkpt>
      <trkpt lat="49.18376" lon="-0.44395">
        <ele>57</ele>
        <time>2023-04-25T11:01:47Z</time>
      </trkpt>
      <trkpt lat="49.18376" lon="-0.44406">
        <ele>57</ele>
        <time>2023-04-25T11:01:48Z</time>
      </trkpt>
      <trkpt lat="49.18377" lon="-0.44416">
        <ele>57</ele>
        <time>2023-04-25T11:01:49Z</time>
      </trkpt>
      <trkpt lat="49.18378" lon="-0.44427">
        <ele>57.2</ele>
        <time>2023-04-25T11:01:50Z</time>
      </trkpt>
      <trkpt lat="49.18379" lon="-0.44438">
        <ele>57.6</ele>
        <time>2023-04-25T11:01:51Z</time>
      </trkpt>
      <trkpt lat="49.1838" lon="-0.44448">
        <ele>57.8</ele>
        <time>2023-04-25T11:01:52Z</time>
      </trkpt>
      <trkpt lat="49.18381" lon="-0.44459">
        <ele>58</ele>
        <time>2023-04-25T11:01:53Z</time>
      </trkpt>
      <trkpt lat="49.18382" lon="-0.44469">
        <ele>58.2</ele>
        <time>2023-04-25T11:01:54Z</time>
      </trkpt>
      <trkpt lat="49.18383" lon="-0.44479">
        <ele>58.6</ele>
        <time>2023-04-25T11:01:55Z</time>
      </trkpt>
      <trkpt lat="49.18384" lon="-0.44489">
        <ele>58.8</ele>
        <time>2023-04-25T11:01:56Z</time>
      </trkpt>
      <trkpt lat="49.18385" lon="-0.44499">
        <ele>59</ele>
        <time>2023-04-25T11:01:57Z</time>
      </trkpt>
      <trkpt lat="49.18386" lon="-0.44508">
        <ele>59</ele>
        <time>2023-04-25T11:01:58Z</time>
      </trkpt>
      <trkpt lat="49.18387" lon="-0.44518">
        <ele>59</ele>
        <time>2023-04-25T11:01:59Z</time>
      </trkpt>
      <trkpt lat="49.18388" lon="-0.44527">
        <ele>59</ele>
        <time>2023-04-25T11:02:00Z</time>
      </trkpt>
      <trkpt lat="49.18389" lon="-0.44537">
        <ele>59</ele>
        <time>2023-04-25T11:02:01Z</time>
      </trkpt>
      <trkpt lat="49.1839" lon="-0.44546">
        <ele>59</ele>
        <time>2023-04-25T11:02:02Z</time>
      </trkpt>
      <trkpt lat="49.18391" lon="-0.44556">
        <ele>59</ele>
        <time>2023-04-25T11:02:03Z</time>
      </trkpt>
      <trkpt lat="49.18392" lon="-0.44565">
        <ele>59</ele>
        <time>2023-04-25T11:02:04Z</time>
      </trkpt>
      <trkpt lat="49.18393" lon="-0.44574">
        <ele>59</ele>
        <time>2023-04-25T11:02:05Z</time>
      </trkpt>
      <trkpt lat="49.18394" lon="-0.44584">
        <ele>59</ele>
        <time>2023-04-25T11:02:06Z</time>
      </trkpt>
      <trkpt lat="49.18395" lon="-0.44593">
        <ele>59</ele>
        <time>2023-04-25T11:02:07Z</time>
      </trkpt>
      <trkpt lat="49.18396" lon="-0.44602">
        <ele>59</ele>
        <time>2023-04-25T11:02:08Z</time>
      </trkpt>
      <trkpt lat="49.18396" lon="-0.44611">
        <ele>58.8</ele>
        <time>2023-04-25T11:02:09Z</time>
      </trkpt>
      <trkpt lat="49.18397" lon="-0.44619">
        <ele>58.8</ele>
        <time>2023-04-25T11:02:10Z</time>
      </trkpt>
      <trkpt lat="49.18397" lon="-0.44626">
        <ele>58.8</ele>
        <time>2023-04-25T11:02:11Z</time>
      </trkpt>
      <trkpt lat="49.18398" lon="-0.44633">
        <ele>58.8</ele>
        <time>2023-04-25T11:02:12Z</time>
      </trkpt>
      <trkpt lat="49.18399" lon="-0.44638">
        <ele>58.6</ele>
        <time>2023-04-25T11:02:13Z</time>
      </trkpt>
      <trkpt lat="49.184" lon="-0.44642">
        <ele>58.6</ele>
        <time>2023-04-25T11:02:14Z</time>
      </trkpt>
      <trkpt lat="49.184" lon="-0.44644">
        <ele>58.6</ele>
        <time>2023-04-25T11:02:15Z</time>
      </trkpt>
      <trkpt lat="49.18401" lon="-0.44646">
        <ele>58.6</ele>
        <time>2023-04-25T11:02:16Z</time>
      </trkpt>
      <trkpt lat="49.18401" lon="-0.44647">
        <ele>58.6</ele>
        <time>2023-04-25T11:02:17Z</time>
      </trkpt>
      <trkpt lat="49.18401" lon="-0.44647">
        <ele>58.6</ele>
        <time>2023-04-25T11:02:18Z</time>
      </trkpt>
      <trkpt lat="49.18401" lon="-0.44647">
        <ele>58.6</ele>
        <time>2023-04-25T11:02:19Z</time>
      </trkpt>
      <trkpt lat="49.18401" lon="-0.44647">
        <ele>58.6</ele>
        <time>2023-04-25T11:02:20Z</time>
      </trkpt>
      <trkpt lat="49.18401" lon="-0.44647">
        <ele>58.6</ele>
        <time>2023-04-25T11:02:21Z</time>
      </trkpt>
      <trkpt lat="49.18401" lon="-0.44647">
        <ele>58.6</ele>
        <time>2023-04-25T11:02:22Z</time>
      </trkpt>
      <trkpt lat="49.18401" lon="-0.44647">
        <ele>58.6</ele>
        <time>2023-04-25T11:02:23Z</time>
      </trkpt>
      <trkpt lat="49.18401" lon="-0.44647">
        <ele>58.6</ele>
        <time>2023-04-25T11:02:24Z</time>
      </trkpt>
      <trkpt lat="49.18401" lon="-0.44647">
        <ele>58.6</ele>
        <time>2023-04-25T11:02:25Z</time>
      </trkpt>
      <trkpt lat="49.18401" lon="-0.44647">
        <ele>58.6</ele>
        <time>2023-04-25T11:02:26Z</time>
      </trkpt>
      <trkpt lat="49.18401" lon="-0.44647">
        <ele>58.6</ele>
        <time>2023-04-25T11:02:27Z</time>
      </trkpt>
      <trkpt lat="49.18401" lon="-0.44647">
        <ele>58.6</ele>
        <time>2023-04-25T11:02:28Z</time>
      </trkpt>
      <trkpt lat="49.18401" lon="-0.44647">
        <ele>58.6</ele>
        <time>2023-04-25T11:02:29Z</time>
      </trkpt>
      <trkpt lat="49.18401" lon="-0.44647">
        <ele>58.6</ele>
        <time>2023-04-25T11:02:30Z</time>
      </trkpt>
      <trkpt lat="49.18401" lon="-0.44647">
        <ele>58.6</ele>
        <time>2023-04-25T11:02:31Z</time>
      </trkpt>
      <trkpt lat="49.18401" lon="-0.44647">
        <ele>58.6</ele>
        <time>2023-04-25T11:02:32Z</time>
      </trkpt>
      <trkpt lat="49.18401" lon="-0.44647">
        <ele>58.6</ele>
        <time>2023-04-25T11:02:33Z</time>
      </trkpt>
      <trkpt lat="49.18401" lon="-0.44647">
        <ele>58.6</ele>
        <time>2023-04-25T11:02:34Z</time>
      </trkpt>
      <trkpt lat="49.18401" lon="-0.44647">
        <ele>58.6</ele>
        <time>2023-04-25T11:02:35Z</time>
      </trkpt>
      <trkpt lat="49.18401" lon="-0.44647">
        <ele>58.6</ele>
        <time>2023-04-25T11:02:36Z</time>
      </trkpt>
      <trkpt lat="49.18401" lon="-0.44647">
        <ele>58.6</ele>
        <time>2023-04-25T11:02:37Z</time>
      </trkpt>
      <trkpt lat="49.18401" lon="-0.44647">
        <ele>58.6</ele>
        <time>2023-04-25T11:02:38Z</time>
      </trkpt>
      <trkpt lat="49.18401" lon="-0.44647">
        <ele>58.6</ele>
        <time>2023-04-25T11:02:39Z</time>
      </trkpt>
      <trkpt lat="49.18401" lon="-0.44647">
        <ele>58.6</ele>
        <time>2023-04-25T11:02:40Z</time>
      </trkpt>
      <trkpt lat="49.18401" lon="-0.44648">
        <ele>58.6</ele>
        <time>2023-04-25T11:02:41Z</time>
      </trkpt>
      <trkpt lat="49.18402" lon="-0.44651">
        <ele>58.6</ele>
        <time>2023-04-25T11:02:42Z</time>
      </trkpt>
      <trkpt lat="49.18403" lon="-0.44655">
        <ele>58.4</ele>
        <time>2023-04-25T11:02:43Z</time>
      </trkpt>
      <trkpt lat="49.18404" lon="-0.4466">
        <ele>58.4</ele>
        <time>2023-04-25T11:02:44Z</time>
      </trkpt>
      <trkpt lat="49.18406" lon="-0.44664">
        <ele>58.2</ele>
        <time>2023-04-25T11:02:45Z</time>
      </trkpt>
      <trkpt lat="49.18408" lon="-0.44671">
        <ele>58.2</ele>
        <time>2023-04-25T11:02:46Z</time>
      </trkpt>
      <trkpt lat="49.18409" lon="-0.44678">
        <ele>58.2</ele>
        <time>2023-04-25T11:02:47Z</time>
      </trkpt>
      <trkpt lat="49.18409" lon="-0.44686">
        <ele>58.4</ele>
        <time>2023-04-25T11:02:48Z</time>
      </trkpt>
      <trkpt lat="49.18408" lon="-0.44694">
        <ele>58.6</ele>
        <time>2023-04-25T11:02:49Z</time>
      </trkpt>
      <trkpt lat="49.18408" lon="-0.44703">
        <ele>58.6</ele>
        <time>2023-04-25T11:02:50Z</time>
      </trkpt>
      <trkpt lat="49.18407" lon="-0.44712">
        <ele>58.8</ele>
        <time>2023-04-25T11:02:51Z</time>
      </trkpt>
      <trkpt lat="49.18408" lon="-0.44721">
        <ele>58.8</ele>
        <time>2023-04-25T11:02:52Z</time>
      </trkpt>
      <trkpt lat="49.1841" lon="-0.44731">
        <ele>59</ele>
        <time>2023-04-25T11:02:53Z</time>
      </trkpt>
      <trkpt lat="49.18411" lon="-0.4474">
        <ele>59</ele>
        <time>2023-04-25T11:02:54Z</time>
      </trkpt>
      <trkpt lat="49.18412" lon="-0.44749">
        <ele>59</ele>
        <time>2023-04-25T11:02:55Z</time>
      </trkpt>
      <trkpt lat="49.18413" lon="-0.44758">
        <ele>59</ele>
        <time>2023-04-25T11:02:56Z</time>
      </trkpt>
      <trkpt lat="49.18414" lon="-0.44768">
        <ele>59.2</ele>
        <time>2023-04-25T11:02:57Z</time>
      </trkpt>
      <trkpt lat="49.18415" lon="-0.44777">
        <ele>59.2</ele>
        <time>2023-04-25T11:02:58Z</time>
      </trkpt>
      <trkpt lat="49.18416" lon="-0.44785">
        <ele>59.4</ele>
        <time>2023-04-25T11:02:59Z</time>
      </trkpt>
      <trkpt lat="49.18417" lon="-0.44794">
        <ele>59.6</ele>
        <time>2023-04-25T11:03:00Z</time>
      </trkpt>
      <trkpt lat="49.18418" lon="-0.44803">
        <ele>59.6</ele>
        <time>2023-04-25T11:03:01Z</time>
      </trkpt>
      <trkpt lat="49.18419" lon="-0.44812">
        <ele>59.8</ele>
        <time>2023-04-25T11:03:02Z</time>
      </trkpt>
      <trkpt lat="49.1842" lon="-0.44821">
        <ele>60</ele>
        <time>2023-04-25T11:03:03Z</time>
      </trkpt>
      <trkpt lat="49.1842" lon="-0.44831">
        <ele>60</ele>
        <time>2023-04-25T11:03:04Z</time>
      </trkpt>
      <trkpt lat="49.18421" lon="-0.44841">
        <ele>59.8</ele>
        <time>2023-04-25T11:03:05Z</time>
      </trkpt>
      <trkpt lat="49.18422" lon="-0.44852">
        <ele>59.6</ele>
        <time>2023-04-25T11:03:06Z</time>
      </trkpt>
      <trkpt lat="49.18423" lon="-0.44863">
        <ele>59.2</ele>
        <time>2023-04-25T11:03:07Z</time>
      </trkpt>
      <trkpt lat="49.18424" lon="-0.44874">
        <ele>59</ele>
        <time>2023-04-25T11:03:08Z</time>
      </trkpt>
      <trkpt lat="49.18425" lon="-0.44886">
        <ele>58.8</ele>
        <time>2023-04-25T11:03:09Z</time>
      </trkpt>
      <trkpt lat="49.18426" lon="-0.44897">
        <ele>58.6</ele>
        <time>2023-04-25T11:03:10Z</time>
      </trkpt>
      <trkpt lat="49.18427" lon="-0.44909">
        <ele>58.2</ele>
        <time>2023-04-25T11:03:11Z</time>
      </trkpt>
      <trkpt lat="49.18428" lon="-0.44921">
        <ele>58</ele>
        <time>2023-04-25T11:03:12Z</time>
      </trkpt>
      <trkpt lat="49.18429" lon="-0.44932">
        <ele>58</ele>
        <time>2023-04-25T11:03:13Z</time>
      </trkpt>
      <trkpt lat="49.1843" lon="-0.44944">
        <ele>58</ele>
        <time>2023-04-25T11:03:14Z</time>
      </trkpt>
      <trkpt lat="49.18431" lon="-0.44956">
        <ele>58</ele>
        <time>2023-04-25T11:03:15Z</time>
      </trkpt>
      <trkpt lat="49.18432" lon="-0.44967">
        <ele>58</ele>
        <time>2023-04-25T11:03:16Z</time>
      </trkpt>
      <trkpt lat="49.18433" lon="-0.44979">
        <ele>58</ele>
        <time>2023-04-25T11:03:17Z</time>
      </trkpt>
      <trkpt lat="49.18434" lon="-0.44991">
        <ele>58</ele>
        <time>2023-04-25T11:03:18Z</time>
      </trkpt>
      <trkpt lat="49.18435" lon="-0.45002">
        <ele>58</ele>
        <time>2023-04-25T11:03:19Z</time>
      </trkpt>
      <trkpt lat="49.18436" lon="-0.45014">
        <ele>58</ele>
        <time>2023-04-25T11:03:20Z</time>
      </trkpt>
      <trkpt lat="49.18437" lon="-0.45025">
        <ele>58</ele>
        <time>2023-04-25T11:03:21Z</time>
      </trkpt>
      <trkpt lat="49.18438" lon="-0.45037">
        <ele>58</ele>
        <time>2023-04-25T11:03:22Z</time>
      </trkpt>
      <trkpt lat="49.18439" lon="-0.45048">
        <ele>58.2</ele>
        <time>2023-04-25T11:03:23Z</time>
      </trkpt>
      <trkpt lat="49.1844" lon="-0.45059">
        <ele>58.2</ele>
        <time>2023-04-25T11:03:24Z</time>
      </trkpt>
      <trkpt lat="49.1844" lon="-0.4507">
        <ele>58.2</ele>
        <time>2023-04-25T11:03:25Z</time>
      </trkpt>
      <trkpt lat="49.18441" lon="-0.45081">
        <ele>58.2</ele>
        <time>2023-04-25T11:03:26Z</time>
      </trkpt>
      <trkpt lat="49.18442" lon="-0.45092">
        <ele>58.4</ele>
        <time>2023-04-25T11:03:27Z</time>
      </trkpt>
      <trkpt lat="49.18443" lon="-0.45103">
        <ele>58.6</ele>
        <time>2023-04-25T11:03:28Z</time>
      </trkpt>
      <trkpt lat="49.18444" lon="-0.45114">
        <ele>58.8</ele>
        <time>2023-04-25T11:03:29Z</time>
      </trkpt>
      <trkpt lat="49.18444" lon="-0.45125">
        <ele>58.8</ele>
        <time>2023-04-25T11:03:30Z</time>
      </trkpt>
      <trkpt lat="49.18445" lon="-0.45135">
        <ele>59</ele>
        <time>2023-04-25T11:03:31Z</time>
      </trkpt>
      <trkpt lat="49.18446" lon="-0.45146">
        <ele>59</ele>
        <time>2023-04-25T11:03:32Z</time>
      </trkpt>
      <trkpt lat="49.18447" lon="-0.45157">
        <ele>59.2</ele>
        <time>2023-04-25T11:03:33Z</time>
      </trkpt>
      <trkpt lat="49.18447" lon="-0.45168">
        <ele>59.4</ele>
        <time>2023-04-25T11:03:34Z</time>
      </trkpt>
      <trkpt lat="49.18448" lon="-0.45179">
        <ele>59.6</ele>
        <time>2023-04-25T11:03:35Z</time>
      </trkpt>
      <trkpt lat="49.18449" lon="-0.4519">
        <ele>59.8</ele>
        <time>2023-04-25T11:03:36Z</time>
      </trkpt>
      <trkpt lat="49.18449" lon="-0.45201">
        <ele>60</ele>
        <time>2023-04-25T11:03:37Z</time>
      </trkpt>
      <trkpt lat="49.1845" lon="-0.45211">
        <ele>60.2</ele>
        <time>2023-04-25T11:03:38Z</time>
      </trkpt>
      <trkpt lat="49.18451" lon="-0.45222">
        <ele>60.4</ele>
        <time>2023-04-25T11:03:39Z</time>
      </trkpt>
      <trkpt lat="49.18452" lon="-0.45233">
        <ele>60.6</ele>
        <time>2023-04-25T11:03:40Z</time>
      </trkpt>
      <trkpt lat="49.18452" lon="-0.45244">
        <ele>60.8</ele>
        <time>2023-04-25T11:03:41Z</time>
      </trkpt>
      <trkpt lat="49.18453" lon="-0.45255">
        <ele>61</ele>
        <time>2023-04-25T11:03:42Z</time>
      </trkpt>
      <trkpt lat="49.18454" lon="-0.45265">
        <ele>61</ele>
        <time>2023-04-25T11:03:43Z</time>
      </trkpt>
      <trkpt lat="49.18454" lon="-0.45276">
        <ele>61.2</ele>
        <time>2023-04-25T11:03:44Z</time>
      </trkpt>
      <trkpt lat="49.18455" lon="-0.45286">
        <ele>61.4</ele>
        <time>2023-04-25T11:03:45Z</time>
      </trkpt>
      <trkpt lat="49.18456" lon="-0.45297">
        <ele>61.6</ele>
        <time>2023-04-25T11:03:46Z</time>
      </trkpt>
      <trkpt lat="49.18456" lon="-0.45307">
        <ele>61.6</ele>
        <time>2023-04-25T11:03:47Z</time>
      </trkpt>
      <trkpt lat="49.18457" lon="-0.45317">
        <ele>61.8</ele>
        <time>2023-04-25T11:03:48Z</time>
      </trkpt>
      <trkpt lat="49.18458" lon="-0.45327">
        <ele>62</ele>
        <time>2023-04-25T11:03:49Z</time>
      </trkpt>
      <trkpt lat="49.18458" lon="-0.45336">
        <ele>62</ele>
        <time>2023-04-25T11:03:50Z</time>
      </trkpt>
      <trkpt lat="49.18459" lon="-0.45346">
        <ele>62</ele>
        <time>2023-04-25T11:03:51Z</time>
      </trkpt>
      <trkpt lat="49.1846" lon="-0.45356">
        <ele>61.8</ele>
        <time>2023-04-25T11:03:52Z</time>
      </trkpt>
      <trkpt lat="49.1846" lon="-0.45365">
        <ele>61.8</ele>
        <time>2023-04-25T11:03:53Z</time>
      </trkpt>
      <trkpt lat="49.18461" lon="-0.45375">
        <ele>61.6</ele>
        <time>2023-04-25T11:03:54Z</time>
      </trkpt>
      <trkpt lat="49.18462" lon="-0.45384">
        <ele>61.6</ele>
        <time>2023-04-25T11:03:55Z</time>
      </trkpt>
      <trkpt lat="49.18463" lon="-0.45394">
        <ele>61.4</ele>
        <time>2023-04-25T11:03:56Z</time>
      </trkpt>
      <trkpt lat="49.18463" lon="-0.45404">
        <ele>61.2</ele>
        <time>2023-04-25T11:03:57Z</time>
      </trkpt>
      <trkpt lat="49.18464" lon="-0.45413">
        <ele>61.2</ele>
        <time>2023-04-25T11:03:58Z</time>
      </trkpt>
      <trkpt lat="49.18465" lon="-0.45422">
        <ele>61</ele>
        <time>2023-04-25T11:03:59Z</time>
      </trkpt>
      <trkpt lat="49.18466" lon="-0.45432">
        <ele>61</ele>
        <time>2023-04-25T11:04:00Z</time>
      </trkpt>
      <trkpt lat="49.18466" lon="-0.45441">
        <ele>60.8</ele>
        <time>2023-04-25T11:04:01Z</time>
      </trkpt>
      <trkpt lat="49.18466" lon="-0.4545">
        <ele>60.6</ele>
        <time>2023-04-25T11:04:02Z</time>
      </trkpt>
      <trkpt lat="49.18467" lon="-0.45459">
        <ele>60.4</ele>
        <time>2023-04-25T11:04:03Z</time>
      </trkpt>
      <trkpt lat="49.18467" lon="-0.45468">
        <ele>60.2</ele>
        <time>2023-04-25T11:04:04Z</time>
      </trkpt>
      <trkpt lat="49.18467" lon="-0.45477">
        <ele>60</ele>
        <time>2023-04-25T11:04:05Z</time>
      </trkpt>
      <trkpt lat="49.18467" lon="-0.45486">
        <ele>60</ele>
        <time>2023-04-25T11:04:06Z</time>
      </trkpt>
      <trkpt lat="49.18467" lon="-0.45495">
        <ele>59.8</ele>
        <time>2023-04-25T11:04:07Z</time>
      </trkpt>
      <trkpt lat="49.18467" lon="-0.45503">
        <ele>59.6</ele>
        <time>2023-04-25T11:04:08Z</time>
      </trkpt>
      <trkpt lat="49.18467" lon="-0.45512">
        <ele>59.8</ele>
        <time>2023-04-25T11:04:09Z</time>
      </trkpt>
      <trkpt lat="49.18467" lon="-0.45521">
        <ele>59.8</ele>
        <time>2023-04-25T11:04:10Z</time>
      </trkpt>
      <trkpt lat="49.18467" lon="-0.45529">
        <ele>59.8</ele>
        <time>2023-04-25T11:04:11Z</time>
      </trkpt>
      <trkpt lat="49.18466" lon="-0.45538">
        <ele>59.8</ele>
        <time>2023-04-25T11:04:12Z</time>
      </trkpt>
      <trkpt lat="49.18466" lon="-0.45546">
        <ele>59.8</ele>
        <time>2023-04-25T11:04:13Z</time>
      </trkpt>
      <trkpt lat="49.18465" lon="-0.45555">
        <ele>60</ele>
        <time>2023-04-25T11:04:14Z</time>
      </trkpt>
      <trkpt lat="49.18464" lon="-0.45564">
        <ele>60</ele>
        <time>2023-04-25T11:04:15Z</time>
      </trkpt>
      <trkpt lat="49.18463" lon="-0.45572">
        <ele>60</ele>
        <time>2023-04-25T11:04:16Z</time>
      </trkpt>
      <trkpt lat="49.18463" lon="-0.45581">
        <ele>60</ele>
        <time>2023-04-25T11:04:17Z</time>
      </trkpt>
      <trkpt lat="49.18462" lon="-0.4559">
        <ele>60.2</ele>
        <time>2023-04-25T11:04:18Z</time>
      </trkpt>
      <trkpt lat="49.1846" lon="-0.45598">
        <ele>60.4</ele>
        <time>2023-04-25T11:04:19Z</time>
      </trkpt>
      <trkpt lat="49.18459" lon="-0.45607">
        <ele>60.6</ele>
        <time>2023-04-25T11:04:20Z</time>
      </trkpt>
      <trkpt lat="49.18458" lon="-0.45615">
        <ele>60.8</ele>
        <time>2023-04-25T11:04:21Z</time>
      </trkpt>
      <trkpt lat="49.18457" lon="-0.45624">
        <ele>61</ele>
        <time>2023-04-25T11:04:22Z</time>
      </trkpt>
      <trkpt lat="49.18455" lon="-0.45632">
        <ele>61.2</ele>
        <time>2023-04-25T11:04:23Z</time>
      </trkpt>
      <trkpt lat="49.18454" lon="-0.45641">
        <ele>61.4</ele>
        <time>2023-04-25T11:04:24Z</time>
      </trkpt>
      <trkpt lat="49.18453" lon="-0.45649">
        <ele>61.6</ele>
        <time>2023-04-25T11:04:25Z</time>
      </trkpt>
      <trkpt lat="49.18451" lon="-0.45658">
        <ele>61.8</ele>
        <time>2023-04-25T11:04:26Z</time>
      </trkpt>
      <trkpt lat="49.1845" lon="-0.45666">
        <ele>62</ele>
        <time>2023-04-25T11:04:27Z</time>
      </trkpt>
      <trkpt lat="49.18448" lon="-0.45674">
        <ele>62</ele>
        <time>2023-04-25T11:04:28Z</time>
      </trkpt>
      <trkpt lat="49.18446" lon="-0.45682">
        <ele>62</ele>
        <time>2023-04-25T11:04:29Z</time>
      </trkpt>
      <trkpt lat="49.18445" lon="-0.45691">
        <ele>62</ele>
        <time>2023-04-25T11:04:30Z</time>
      </trkpt>
      <trkpt lat="49.18443" lon="-0.45699">
        <ele>62</ele>
        <time>2023-04-25T11:04:31Z</time>
      </trkpt>
      <trkpt lat="49.18442" lon="-0.45708">
        <ele>62</ele>
        <time>2023-04-25T11:04:32Z</time>
      </trkpt>
      <trkpt lat="49.1844" lon="-0.45716">
        <ele>61.8</ele>
        <time>2023-04-25T11:04:33Z</time>
      </trkpt>
      <trkpt lat="49.18439" lon="-0.45724">
        <ele>61.8</ele>
        <time>2023-04-25T11:04:34Z</time>
      </trkpt>
      <trkpt lat="49.18437" lon="-0.45733">
        <ele>61.8</ele>
        <time>2023-04-25T11:04:35Z</time>
      </trkpt>
      <trkpt lat="49.18436" lon="-0.45741">
        <ele>61.8</ele>
        <time>2023-04-25T11:04:36Z</time>
      </trkpt>
      <trkpt lat="49.18434" lon="-0.45749">
        <ele>61.8</ele>
        <time>2023-04-25T11:04:37Z</time>
      </trkpt>
      <trkpt lat="49.18433" lon="-0.45757">
        <ele>62</ele>
        <time>2023-04-25T11:04:38Z</time>
      </trkpt>
      <trkpt lat="49.18431" lon="-0.45766">
        <ele>62.2</ele>
        <time>2023-04-25T11:04:39Z</time>
      </trkpt>
      <trkpt lat="49.1843" lon="-0.45774">
        <ele>62.6</ele>
        <time>2023-04-25T11:04:40Z</time>
      </trkpt>
      <trkpt lat="49.18428" lon="-0.45782">
        <ele>62.8</ele>
        <time>2023-04-25T11:04:41Z</time>
      </trkpt>
      <trkpt lat="49.18427" lon="-0.4579">
        <ele>63</ele>
        <time>2023-04-25T11:04:42Z</time>
      </trkpt>
      <trkpt lat="49.18425" lon="-0.45799">
        <ele>63.2</ele>
        <time>2023-04-25T11:04:43Z</time>
      </trkpt>
      <trkpt lat="49.18423" lon="-0.45807">
        <ele>63.4</ele>
        <time>2023-04-25T11:04:44Z</time>
      </trkpt>
      <trkpt lat="49.18421" lon="-0.45815">
        <ele>63.6</ele>
        <time>2023-04-25T11:04:45Z</time>
      </trkpt>
      <trkpt lat="49.1842" lon="-0.45824">
        <ele>63.8</ele>
        <time>2023-04-25T11:04:46Z</time>
      </trkpt>
      <trkpt lat="49.18418" lon="-0.45832">
        <ele>64</ele>
        <time>2023-04-25T11:04:47Z</time>
      </trkpt>
      <trkpt lat="49.18416" lon="-0.45841">
        <ele>64</ele>
        <time>2023-04-25T11:04:48Z</time>
      </trkpt>
      <trkpt lat="49.18414" lon="-0.45849">
        <ele>64</ele>
        <time>2023-04-25T11:04:49Z</time>
      </trkpt>
      <trkpt lat="49.18412" lon="-0.45857">
        <ele>64.2</ele>
        <time>2023-04-25T11:04:50Z</time>
      </trkpt>
      <trkpt lat="49.1841" lon="-0.45866">
        <ele>64.4</ele>
        <time>2023-04-25T11:04:51Z</time>
      </trkpt>
      <trkpt lat="49.18408" lon="-0.45874">
        <ele>64.4</ele>
        <time>2023-04-25T11:04:52Z</time>
      </trkpt>
      <trkpt lat="49.18406" lon="-0.45883">
        <ele>64.4</ele>
        <time>2023-04-25T11:04:53Z</time>
      </trkpt>
      <trkpt lat="49.18404" lon="-0.45891">
        <ele>64.4</ele>
        <time>2023-04-25T11:04:54Z</time>
      </trkpt>
      <trkpt lat="49.18402" lon="-0.459">
        <ele>64.6</ele>
        <time>2023-04-25T11:04:55Z</time>
      </trkpt>
      <trkpt lat="49.184" lon="-0.45908">
        <ele>64.6</ele>
        <time>2023-04-25T11:04:56Z</time>
      </trkpt>
      <trkpt lat="49.18398" lon="-0.45916">
        <ele>64.6</ele>
        <time>2023-04-25T11:04:57Z</time>
      </trkpt>
      <trkpt lat="49.18396" lon="-0.45924">
        <ele>64.6</ele>
        <time>2023-04-25T11:04:58Z</time>
      </trkpt>
      <trkpt lat="49.18394" lon="-0.45933">
        <ele>64.6</ele>
        <time>2023-04-25T11:04:59Z</time>
      </trkpt>
      <trkpt lat="49.18392" lon="-0.45941">
        <ele>64.6</ele>
        <time>2023-04-25T11:05:00Z</time>
      </trkpt>
      <trkpt lat="49.1839" lon="-0.4595">
        <ele>64.6</ele>
        <time>2023-04-25T11:05:01Z</time>
      </trkpt>
      <trkpt lat="49.18388" lon="-0.45958">
        <ele>64.6</ele>
        <time>2023-04-25T11:05:02Z</time>
      </trkpt>
      <trkpt lat="49.18387" lon="-0.45966">
        <ele>64.6</ele>
        <time>2023-04-25T11:05:03Z</time>
      </trkpt>
      <trkpt lat="49.18385" lon="-0.45974">
        <ele>64.6</ele>
        <time>2023-04-25T11:05:04Z</time>
      </trkpt>
      <trkpt lat="49.18383" lon="-0.45983">
        <ele>64.6</ele>
        <time>2023-04-25T11:05:05Z</time>
      </trkpt>
      <trkpt lat="49.18381" lon="-0.45991">
        <ele>64.6</ele>
        <time>2023-04-25T11:05:06Z</time>
      </trkpt>
      <trkpt lat="49.18379" lon="-0.45999">
        <ele>64.6</ele>
        <time>2023-04-25T11:05:07Z</time>
      </trkpt>
      <trkpt lat="49.18378" lon="-0.46008">
        <ele>64.6</ele>
        <time>2023-04-25T11:05:08Z</time>
      </trkpt>
      <trkpt lat="49.18376" lon="-0.46016">
        <ele>64.6</ele>
        <time>2023-04-25T11:05:09Z</time>
      </trkpt>
      <trkpt lat="49.18374" lon="-0.46025">
        <ele>64.6</ele>
        <time>2023-04-25T11:05:10Z</time>
      </trkpt>
      <trkpt lat="49.18372" lon="-0.46033">
        <ele>64.6</ele>
        <time>2023-04-25T11:05:11Z</time>
      </trkpt>
      <trkpt lat="49.1837" lon="-0.46041">
        <ele>64.6</ele>
        <time>2023-04-25T11:05:12Z</time>
      </trkpt>
      <trkpt lat="49.18368" lon="-0.4605">
        <ele>64.6</ele>
        <time>2023-04-25T11:05:13Z</time>
      </trkpt>
      <trkpt lat="49.18367" lon="-0.46058">
        <ele>64.6</ele>
        <time>2023-04-25T11:05:14Z</time>
      </trkpt>
      <trkpt lat="49.18365" lon="-0.46066">
        <ele>64.6</ele>
        <time>2023-04-25T11:05:15Z</time>
      </trkpt>
      <trkpt lat="49.18363" lon="-0.46075">
        <ele>64.6</ele>
        <time>2023-04-25T11:05:16Z</time>
      </trkpt>
      <trkpt lat="49.18361" lon="-0.46083">
        <ele>64.6</ele>
        <time>2023-04-25T11:05:17Z</time>
      </trkpt>
      <trkpt lat="49.1836" lon="-0.46091">
        <ele>64.8</ele>
        <time>2023-04-25T11:05:18Z</time>
      </trkpt>
      <trkpt lat="49.18358" lon="-0.461">
        <ele>65</ele>
        <time>2023-04-25T11:05:19Z</time>
      </trkpt>
      <trkpt lat="49.18356" lon="-0.46108">
        <ele>65</ele>
        <time>2023-04-25T11:05:20Z</time>
      </trkpt>
      <trkpt lat="49.18354" lon="-0.46117">
        <ele>65</ele>
        <time>2023-04-25T11:05:21Z</time>
      </trkpt>
      <trkpt lat="49.18353" lon="-0.46125">
        <ele>65.2</ele>
        <time>2023-04-25T11:05:22Z</time>
      </trkpt>
      <trkpt lat="49.18351" lon="-0.46134">
        <ele>65.4</ele>
        <time>2023-04-25T11:05:23Z</time>
      </trkpt>
      <trkpt lat="49.18349" lon="-0.46142">
        <ele>65.6</ele>
        <time>2023-04-25T11:05:24Z</time>
      </trkpt>
      <trkpt lat="49.18347" lon="-0.46151">
        <ele>65.6</ele>
        <time>2023-04-25T11:05:25Z</time>
      </trkpt>
      <trkpt lat="49.18346" lon="-0.46159">
        <ele>65.8</ele>
        <time>2023-04-25T11:05:26Z</time>
      </trkpt>
      <trkpt lat="49.18344" lon="-0.46167">
        <ele>66</ele>
        <time>2023-04-25T11:05:27Z</time>
      </trkpt>
      <trkpt lat="49.18342" lon="-0.46176">
        <ele>66</ele>
        <time>2023-04-25T11:05:28Z</time>
      </trkpt>
      <trkpt lat="49.1834" lon="-0.46184">
        <ele>66</ele>
        <time>2023-04-25T11:05:29Z</time>
      </trkpt>
      <trkpt lat="49.18338" lon="-0.46193">
        <ele>66</ele>
        <time>2023-04-25T11:05:30Z</time>
      </trkpt>
      <trkpt lat="49.18337" lon="-0.46201">
        <ele>66</ele>
        <time>2023-04-25T11:05:31Z</time>
      </trkpt>
      <trkpt lat="49.18335" lon="-0.4621">
        <ele>66</ele>
        <time>2023-04-25T11:05:32Z</time>
      </trkpt>
      <trkpt lat="49.18333" lon="-0.46218">
        <ele>66</ele>
        <time>2023-04-25T11:05:33Z</time>
      </trkpt>
      <trkpt lat="49.18331" lon="-0.46226">
        <ele>66</ele>
        <time>2023-04-25T11:05:34Z</time>
      </trkpt>
      <trkpt lat="49.18329" lon="-0.46235">
        <ele>66</ele>
        <time>2023-04-25T11:05:35Z</time>
      </trkpt>
      <trkpt lat="49.18327" lon="-0.46243">
        <ele>66</ele>
        <time>2023-04-25T11:05:36Z</time>
      </trkpt>
      <trkpt lat="49.18326" lon="-0.46252">
        <ele>66</ele>
        <time>2023-04-25T11:05:37Z</time>
      </trkpt>
      <trkpt lat="49.18324" lon="-0.4626">
        <ele>66.2</ele>
        <time>2023-04-25T11:05:38Z</time>
      </trkpt>
      <trkpt lat="49.18322" lon="-0.46269">
        <ele>66.4</ele>
        <time>2023-04-25T11:05:39Z</time>
      </trkpt>
      <trkpt lat="49.1832" lon="-0.46277">
        <ele>66.6</ele>
        <time>2023-04-25T11:05:40Z</time>
      </trkpt>
      <trkpt lat="49.18318" lon="-0.46286">
        <ele>66.6</ele>
        <time>2023-04-25T11:05:41Z</time>
      </trkpt>
      <trkpt lat="49.18317" lon="-0.46294">
        <ele>66.6</ele>
        <time>2023-04-25T11:05:42Z</time>
      </trkpt>
      <trkpt lat="49.18315" lon="-0.46303">
        <ele>67</ele>
        <time>2023-04-25T11:05:43Z</time>
      </trkpt>
      <trkpt lat="49.18313" lon="-0.46311">
        <ele>67</ele>
        <time>2023-04-25T11:05:44Z</time>
      </trkpt>
      <trkpt lat="49.18311" lon="-0.4632">
        <ele>67</ele>
        <time>2023-04-25T11:05:45Z</time>
      </trkpt>
      <trkpt lat="49.18309" lon="-0.46328">
        <ele>67.2</ele>
        <time>2023-04-25T11:05:46Z</time>
      </trkpt>
      <trkpt lat="49.18308" lon="-0.46337">
        <ele>67.4</ele>
        <time>2023-04-25T11:05:47Z</time>
      </trkpt>
      <trkpt lat="49.18306" lon="-0.46346">
        <ele>67.4</ele>
        <time>2023-04-25T11:05:48Z</time>
      </trkpt>
      <trkpt lat="49.18304" lon="-0.46354">
        <ele>67.4</ele>
        <time>2023-04-25T11:05:49Z</time>
      </trkpt>
      <trkpt lat="49.18303" lon="-0.46363">
        <ele>67.4</ele>
        <time>2023-04-25T11:05:50Z</time>
      </trkpt>
      <trkpt lat="49.18301" lon="-0.46372">
        <ele>67.4</ele>
        <time>2023-04-25T11:05:51Z</time>
      </trkpt>
      <trkpt lat="49.18299" lon="-0.4638">
        <ele>67.4</ele>
        <time>2023-04-25T11:05:52Z</time>
      </trkpt>
      <trkpt lat="49.18298" lon="-0.46389">
        <ele>67.4</ele>
        <time>2023-04-25T11:05:53Z</time>
      </trkpt>
      <trkpt lat="49.18296" lon="-0.46398">
        <ele>67.4</ele>
        <time>2023-04-25T11:05:54Z</time>
      </trkpt>
      <trkpt lat="49.18295" lon="-0.46407">
        <ele>67.6</ele>
        <time>2023-04-25T11:05:55Z</time>
      </trkpt>
      <trkpt lat="49.18294" lon="-0.46416">
        <ele>67.6</ele>
        <time>2023-04-25T11:05:56Z</time>
      </trkpt>
      <trkpt lat="49.18293" lon="-0.46425">
        <ele>67.6</ele>
        <time>2023-04-25T11:05:57Z</time>
      </trkpt>
      <trkpt lat="49.18292" lon="-0.46435">
        <ele>67.6</ele>
        <time>2023-04-25T11:05:58Z</time>
      </trkpt>
      <trkpt lat="49.18291" lon="-0.46444">
        <ele>67.6</ele>
        <time>2023-04-25T11:05:59Z</time>
      </trkpt>
      <trkpt lat="49.1829" lon="-0.46453">
        <ele>67.6</ele>
        <time>2023-04-25T11:06:00Z</time>
      </trkpt>
      <trkpt lat="49.18289" lon="-0.46462">
        <ele>67.6</ele>
        <time>2023-04-25T11:06:01Z</time>
      </trkpt>
      <trkpt lat="49.18289" lon="-0.46471">
        <ele>67.6</ele>
        <time>2023-04-25T11:06:02Z</time>
      </trkpt>
      <trkpt lat="49.18288" lon="-0.4648">
        <ele>67.6</ele>
        <time>2023-04-25T11:06:03Z</time>
      </trkpt>
      <trkpt lat="49.18288" lon="-0.46489">
        <ele>67.6</ele>
        <time>2023-04-25T11:06:04Z</time>
      </trkpt>
      <trkpt lat="49.18287" lon="-0.46499">
        <ele>67.6</ele>
        <time>2023-04-25T11:06:05Z</time>
      </trkpt>
      <trkpt lat="49.18286" lon="-0.46508">
        <ele>67.8</ele>
        <time>2023-04-25T11:06:06Z</time>
      </trkpt>
      <trkpt lat="49.18286" lon="-0.46517">
        <ele>68</ele>
        <time>2023-04-25T11:06:07Z</time>
      </trkpt>
      <trkpt lat="49.18285" lon="-0.46527">
        <ele>68</ele>
        <time>2023-04-25T11:06:08Z</time>
      </trkpt>
      <trkpt lat="49.18285" lon="-0.46536">
        <ele>68</ele>
        <time>2023-04-25T11:06:09Z</time>
      </trkpt>
      <trkpt lat="49.18284" lon="-0.46545">
        <ele>68.2</ele>
        <time>2023-04-25T11:06:10Z</time>
      </trkpt>
      <trkpt lat="49.18284" lon="-0.46555">
        <ele>68.4</ele>
        <time>2023-04-25T11:06:11Z</time>
      </trkpt>
      <trkpt lat="49.18283" lon="-0.46564">
        <ele>68.4</ele>
        <time>2023-04-25T11:06:12Z</time>
      </trkpt>
      <trkpt lat="49.18283" lon="-0.46574">
        <ele>68.6</ele>
        <time>2023-04-25T11:06:13Z</time>
      </trkpt>
      <trkpt lat="49.18282" lon="-0.46583">
        <ele>68.6</ele>
        <time>2023-04-25T11:06:14Z</time>
      </trkpt>
      <trkpt lat="49.18282" lon="-0.46593">
        <ele>68.6</ele>
        <time>2023-04-25T11:06:15Z</time>
      </trkpt>
      <trkpt lat="49.18281" lon="-0.46602">
        <ele>68.6</ele>
        <time>2023-04-25T11:06:16Z</time>
      </trkpt>
      <trkpt lat="49.18281" lon="-0.46612">
        <ele>68.6</ele>
        <time>2023-04-25T11:06:17Z</time>
      </trkpt>
      <trkpt lat="49.18281" lon="-0.46622">
        <ele>68.6</ele>
        <time>2023-04-25T11:06:18Z</time>
      </trkpt>
      <trkpt lat="49.1828" lon="-0.46632">
        <ele>68.6</ele>
        <time>2023-04-25T11:06:19Z</time>
      </trkpt>
      <trkpt lat="49.1828" lon="-0.46641">
        <ele>68.6</ele>
        <time>2023-04-25T11:06:20Z</time>
      </trkpt>
      <trkpt lat="49.1828" lon="-0.46651">
        <ele>68.6</ele>
        <time>2023-04-25T11:06:21Z</time>
      </trkpt>
      <trkpt lat="49.1828" lon="-0.46661">
        <ele>68.6</ele>
        <time>2023-04-25T11:06:22Z</time>
      </trkpt>
      <trkpt lat="49.1828" lon="-0.46671">
        <ele>68.6</ele>
        <time>2023-04-25T11:06:23Z</time>
      </trkpt>
      <trkpt lat="49.1828" lon="-0.46681">
        <ele>68.6</ele>
        <time>2023-04-25T11:06:24Z</time>
      </trkpt>
      <trkpt lat="49.1828" lon="-0.46691">
        <ele>68.6</ele>
        <time>2023-04-25T11:06:25Z</time>
      </trkpt>
      <trkpt lat="49.1828" lon="-0.46701">
        <ele>68.6</ele>
        <time>2023-04-25T11:06:26Z</time>
      </trkpt>
      <trkpt lat="49.1828" lon="-0.46711">
        <ele>68.4</ele>
        <time>2023-04-25T11:06:27Z</time>
      </trkpt>
      <trkpt lat="49.1828" lon="-0.46722">
        <ele>68.4</ele>
        <time>2023-04-25T11:06:28Z</time>
      </trkpt>
      <trkpt lat="49.1828" lon="-0.46732">
        <ele>68.4</ele>
        <time>2023-04-25T11:06:29Z</time>
      </trkpt>
      <trkpt lat="49.1828" lon="-0.46742">
        <ele>68.4</ele>
        <time>2023-04-25T11:06:30Z</time>
      </trkpt>
      <trkpt lat="49.1828" lon="-0.46752">
        <ele>68.4</ele>
        <time>2023-04-25T11:06:31Z</time>
      </trkpt>
      <trkpt lat="49.18281" lon="-0.46762">
        <ele>68.2</ele>
        <time>2023-04-25T11:06:32Z</time>
      </trkpt>
      <trkpt lat="49.18281" lon="-0.46773">
        <ele>68</ele>
        <time>2023-04-25T11:06:33Z</time>
      </trkpt>
      <trkpt lat="49.18281" lon="-0.46783">
        <ele>68</ele>
        <time>2023-04-25T11:06:34Z</time>
      </trkpt>
      <trkpt lat="49.18281" lon="-0.46793">
        <ele>68</ele>
        <time>2023-04-25T11:06:35Z</time>
      </trkpt>
      <trkpt lat="49.18282" lon="-0.46803">
        <ele>67.8</ele>
        <time>2023-04-25T11:06:36Z</time>
      </trkpt>
      <trkpt lat="49.18282" lon="-0.46813">
        <ele>67.8</ele>
        <time>2023-04-25T11:06:37Z</time>
      </trkpt>
      <trkpt lat="49.18282" lon="-0.46823">
        <ele>67.6</ele>
        <time>2023-04-25T11:06:38Z</time>
      </trkpt>
      <trkpt lat="49.18282" lon="-0.46834">
        <ele>67.6</ele>
        <time>2023-04-25T11:06:39Z</time>
      </trkpt>
      <trkpt lat="49.18283" lon="-0.46844">
        <ele>67.6</ele>
        <time>2023-04-25T11:06:40Z</time>
      </trkpt>
      <trkpt lat="49.18283" lon="-0.46854">
        <ele>67.6</ele>
        <time>2023-04-25T11:06:41Z</time>
      </trkpt>
      <trkpt lat="49.18283" lon="-0.46864">
        <ele>67.6</ele>
        <time>2023-04-25T11:06:42Z</time>
      </trkpt>
      <trkpt lat="49.18284" lon="-0.46874">
        <ele>67.6</ele>
        <time>2023-04-25T11:06:43Z</time>
      </trkpt>
      <trkpt lat="49.18284" lon="-0.46884">
        <ele>67.6</ele>
        <time>2023-04-25T11:06:44Z</time>
      </trkpt>
      <trkpt lat="49.18285" lon="-0.46895">
        <ele>67.6</ele>
        <time>2023-04-25T11:06:45Z</time>
      </trkpt>
      <trkpt lat="49.18285" lon="-0.46905">
        <ele>67.6</ele>
        <time>2023-04-25T11:06:46Z</time>
      </trkpt>
      <trkpt lat="49.18285" lon="-0.46915">
        <ele>67.6</ele>
        <time>2023-04-25T11:06:47Z</time>
      </trkpt>
      <trkpt lat="49.18286" lon="-0.46925">
        <ele>67.6</ele>
        <time>2023-04-25T11:06:48Z</time>
      </trkpt>
      <trkpt lat="49.18286" lon="-0.46935">
        <ele>67.6</ele>
        <time>2023-04-25T11:06:49Z</time>
      </trkpt>
      <trkpt lat="49.18286" lon="-0.46945">
        <ele>67.4</ele>
        <time>2023-04-25T11:06:50Z</time>
      </trkpt>
      <trkpt lat="49.18287" lon="-0.46955">
        <ele>67.4</ele>
        <time>2023-04-25T11:06:51Z</time>
      </trkpt>
      <trkpt lat="49.18287" lon="-0.46965">
        <ele>67.4</ele>
        <time>2023-04-25T11:06:52Z</time>
      </trkpt>
      <trkpt lat="49.18287" lon="-0.46975">
        <ele>67.2</ele>
        <time>2023-04-25T11:06:53Z</time>
      </trkpt>
      <trkpt lat="49.18288" lon="-0.46985">
        <ele>67.2</ele>
        <time>2023-04-25T11:06:54Z</time>
      </trkpt>
      <trkpt lat="49.18288" lon="-0.46996">
        <ele>67</ele>
        <time>2023-04-25T11:06:55Z</time>
      </trkpt>
      <trkpt lat="49.18288" lon="-0.47006">
        <ele>67</ele>
        <time>2023-04-25T11:06:56Z</time>
      </trkpt>
      <trkpt lat="49.18289" lon="-0.47016">
        <ele>67.2</ele>
        <time>2023-04-25T11:06:57Z</time>
      </trkpt>
      <trkpt lat="49.18289" lon="-0.47026">
        <ele>67.4</ele>
        <time>2023-04-25T11:06:58Z</time>
      </trkpt>
      <trkpt lat="49.18289" lon="-0.47036">
        <ele>67.6</ele>
        <time>2023-04-25T11:06:59Z</time>
      </trkpt>
      <trkpt lat="49.1829" lon="-0.47046">
        <ele>67.6</ele>
        <time>2023-04-25T11:07:00Z</time>
      </trkpt>
      <trkpt lat="49.1829" lon="-0.47056">
        <ele>67.6</ele>
        <time>2023-04-25T11:07:01Z</time>
      </trkpt>
      <trkpt lat="49.1829" lon="-0.47067">
        <ele>67.8</ele>
        <time>2023-04-25T11:07:02Z</time>
      </trkpt>
      <trkpt lat="49.18291" lon="-0.47077">
        <ele>68</ele>
        <time>2023-04-25T11:07:03Z</time>
      </trkpt>
      <trkpt lat="49.18291" lon="-0.47087">
        <ele>68</ele>
        <time>2023-04-25T11:07:04Z</time>
      </trkpt>
      <trkpt lat="49.18291" lon="-0.47097">
        <ele>68.2</ele>
        <time>2023-04-25T11:07:05Z</time>
      </trkpt>
      <trkpt lat="49.18292" lon="-0.47107">
        <ele>68.4</ele>
        <time>2023-04-25T11:07:06Z</time>
      </trkpt>
      <trkpt lat="49.18292" lon="-0.47118">
        <ele>68.4</ele>
        <time>2023-04-25T11:07:07Z</time>
      </trkpt>
      <trkpt lat="49.18292" lon="-0.47128">
        <ele>68.6</ele>
        <time>2023-04-25T11:07:08Z</time>
      </trkpt>
      <trkpt lat="49.18292" lon="-0.47138">
        <ele>68.6</ele>
        <time>2023-04-25T11:07:09Z</time>
      </trkpt>
      <trkpt lat="49.18293" lon="-0.47148">
        <ele>68.8</ele>
        <time>2023-04-25T11:07:10Z</time>
      </trkpt>
      <trkpt lat="49.18293" lon="-0.47158">
        <ele>69</ele>
        <time>2023-04-25T11:07:11Z</time>
      </trkpt>
      <trkpt lat="49.18293" lon="-0.47168">
        <ele>69</ele>
        <time>2023-04-25T11:07:12Z</time>
      </trkpt>
      <trkpt lat="49.18294" lon="-0.47178">
        <ele>69</ele>
        <time>2023-04-25T11:07:13Z</time>
      </trkpt>
      <trkpt lat="49.18294" lon="-0.47188">
        <ele>69</ele>
        <time>2023-04-25T11:07:14Z</time>
      </trkpt>
      <trkpt lat="49.18294" lon="-0.47198">
        <ele>69</ele>
        <time>2023-04-25T11:07:15Z</time>
      </trkpt>
      <trkpt lat="49.18295" lon="-0.47208">
        <ele>69</ele>
        <time>2023-04-25T11:07:16Z</time>
      </trkpt>
      <trkpt lat="49.18295" lon="-0.47218">
        <ele>69</ele>
        <time>2023-04-25T11:07:17Z</time>
      </trkpt>
      <trkpt lat="49.18295" lon="-0.47229">
        <ele>69</ele>
        <time>2023-04-25T11:07:18Z</time>
      </trkpt>
      <trkpt lat="49.18296" lon="-0.47239">
        <ele>69</ele>
        <time>2023-04-25T11:07:19Z</time>
      </trkpt>
      <trkpt lat="49.18296" lon="-0.47249">
        <ele>69</ele>
        <time>2023-04-25T11:07:20Z</time>
      </trkpt>
      <trkpt lat="49.18297" lon="-0.47259">
        <ele>69</ele>
        <time>2023-04-25T11:07:21Z</time>
      </trkpt>
      <trkpt lat="49.18297" lon="-0.47269">
        <ele>69</ele>
        <time>2023-04-25T11:07:22Z</time>
      </trkpt>
      <trkpt lat="49.18298" lon="-0.4728">
        <ele>69</ele>
        <time>2023-04-25T11:07:23Z</time>
      </trkpt>
      <trkpt lat="49.18299" lon="-0.4729">
        <ele>69</ele>
        <time>2023-04-25T11:07:24Z</time>
      </trkpt>
      <trkpt lat="49.18299" lon="-0.47301">
        <ele>69</ele>
        <time>2023-04-25T11:07:25Z</time>
      </trkpt>
      <trkpt lat="49.183" lon="-0.47311">
        <ele>69</ele>
        <time>2023-04-25T11:07:26Z</time>
      </trkpt>
      <trkpt lat="49.18301" lon="-0.47322">
        <ele>68.8</ele>
        <time>2023-04-25T11:07:27Z</time>
      </trkpt>
      <trkpt lat="49.18301" lon="-0.47332">
        <ele>68.8</ele>
        <time>2023-04-25T11:07:28Z</time>
      </trkpt>
      <trkpt lat="49.18302" lon="-0.47343">
        <ele>68.6</ele>
        <time>2023-04-25T11:07:29Z</time>
      </trkpt>
      <trkpt lat="49.18303" lon="-0.47353">
        <ele>68.6</ele>
        <time>2023-04-25T11:07:30Z</time>
      </trkpt>
      <trkpt lat="49.18304" lon="-0.47364">
        <ele>68.6</ele>
        <time>2023-04-25T11:07:31Z</time>
      </trkpt>
      <trkpt lat="49.18305" lon="-0.47375">
        <ele>68.6</ele>
        <time>2023-04-25T11:07:32Z</time>
      </trkpt>
      <trkpt lat="49.18306" lon="-0.47385">
        <ele>68.6</ele>
        <time>2023-04-25T11:07:33Z</time>
      </trkpt>
      <trkpt lat="49.18307" lon="-0.47396">
        <ele>68.4</ele>
        <time>2023-04-25T11:07:34Z</time>
      </trkpt>
      <trkpt lat="49.18308" lon="-0.47407">
        <ele>68.4</ele>
        <time>2023-04-25T11:07:35Z</time>
      </trkpt>
      <trkpt lat="49.18309" lon="-0.47418">
        <ele>68.4</ele>
        <time>2023-04-25T11:07:36Z</time>
      </trkpt>
      <trkpt lat="49.18309" lon="-0.47428">
        <ele>68.6</ele>
        <time>2023-04-25T11:07:37Z</time>
      </trkpt>
      <trkpt lat="49.1831" lon="-0.47439">
        <ele>68.6</ele>
        <time>2023-04-25T11:07:38Z</time>
      </trkpt>
      <trkpt lat="49.18311" lon="-0.4745">
        <ele>68.8</ele>
        <time>2023-04-25T11:07:39Z</time>
      </trkpt>
      <trkpt lat="49.18312" lon="-0.47461">
        <ele>69</ele>
        <time>2023-04-25T11:07:40Z</time>
      </trkpt>
      <trkpt lat="49.18313" lon="-0.47471">
        <ele>69</ele>
        <time>2023-04-25T11:07:41Z</time>
      </trkpt>
      <trkpt lat="49.18314" lon="-0.47482">
        <ele>69.2</ele>
        <time>2023-04-25T11:07:42Z</time>
      </trkpt>
      <trkpt lat="49.18315" lon="-0.47493">
        <ele>69.4</ele>
        <time>2023-04-25T11:07:43Z</time>
      </trkpt>
      <trkpt lat="49.18316" lon="-0.47504">
        <ele>69.4</ele>
        <time>2023-04-25T11:07:44Z</time>
      </trkpt>
      <trkpt lat="49.18317" lon="-0.47515">
        <ele>69.4</ele>
        <time>2023-04-25T11:07:45Z</time>
      </trkpt>
      <trkpt lat="49.18318" lon="-0.47525">
        <ele>69.4</ele>
        <time>2023-04-25T11:07:46Z</time>
      </trkpt>
      <trkpt lat="49.18319" lon="-0.47536">
        <ele>69.4</ele>
        <time>2023-04-25T11:07:47Z</time>
      </trkpt>
      <trkpt lat="49.1832" lon="-0.47547">
        <ele>69.2</ele>
        <time>2023-04-25T11:07:48Z</time>
      </trkpt>
      <trkpt lat="49.18321" lon="-0.47558">
        <ele>69.2</ele>
        <time>2023-04-25T11:07:49Z</time>
      </trkpt>
      <trkpt lat="49.18322" lon="-0.47568">
        <ele>69.2</ele>
        <time>2023-04-25T11:07:50Z</time>
      </trkpt>
      <trkpt lat="49.18322" lon="-0.47579">
        <ele>69</ele>
        <time>2023-04-25T11:07:51Z</time>
      </trkpt>
      <trkpt lat="49.18323" lon="-0.4759">
        <ele>69</ele>
        <time>2023-04-25T11:07:52Z</time>
      </trkpt>
      <trkpt lat="49.18324" lon="-0.47601">
        <ele>69</ele>
        <time>2023-04-25T11:07:53Z</time>
      </trkpt>
      <trkpt lat="49.18325" lon="-0.47611">
        <ele>69</ele>
        <time>2023-04-25T11:07:54Z</time>
      </trkpt>
      <trkpt lat="49.18326" lon="-0.47622">
        <ele>69</ele>
        <time>2023-04-25T11:07:55Z</time>
      </trkpt>
      <trkpt lat="49.18327" lon="-0.47633">
        <ele>69</ele>
        <time>2023-04-25T11:07:56Z</time>
      </trkpt>
      <trkpt lat="49.18328" lon="-0.47644">
        <ele>69</ele>
        <time>2023-04-25T11:07:57Z</time>
      </trkpt>
      <trkpt lat="49.18329" lon="-0.47654">
        <ele>69</ele>
        <time>2023-04-25T11:07:58Z</time>
      </trkpt>
      <trkpt lat="49.1833" lon="-0.47665">
        <ele>69</ele>
        <time>2023-04-25T11:07:59Z</time>
      </trkpt>
      <trkpt lat="49.1833" lon="-0.47676">
        <ele>69</ele>
        <time>2023-04-25T11:08:00Z</time>
      </trkpt>
      <trkpt lat="49.18331" lon="-0.47687">
        <ele>69.2</ele>
        <time>2023-04-25T11:08:01Z</time>
      </trkpt>
      <trkpt lat="49.18331" lon="-0.47697">
        <ele>69.4</ele>
        <time>2023-04-25T11:08:02Z</time>
      </trkpt>
      <trkpt lat="49.18332" lon="-0.47708">
        <ele>69.6</ele>
        <time>2023-04-25T11:08:03Z</time>
      </trkpt>
      <trkpt lat="49.18332" lon="-0.47718">
        <ele>69.6</ele>
        <time>2023-04-25T11:08:04Z</time>
      </trkpt>
      <trkpt lat="49.18332" lon="-0.47729">
        <ele>69.6</ele>
        <time>2023-04-25T11:08:05Z</time>
      </trkpt>
      <trkpt lat="49.18333" lon="-0.4774">
        <ele>70</ele>
        <time>2023-04-25T11:08:06Z</time>
      </trkpt>
      <trkpt lat="49.18333" lon="-0.4775">
        <ele>70</ele>
        <time>2023-04-25T11:08:07Z</time>
      </trkpt>
      <trkpt lat="49.18333" lon="-0.47761">
        <ele>70</ele>
        <time>2023-04-25T11:08:08Z</time>
      </trkpt>
      <trkpt lat="49.18333" lon="-0.47771">
        <ele>70</ele>
        <time>2023-04-25T11:08:09Z</time>
      </trkpt>
      <trkpt lat="49.18333" lon="-0.47782">
        <ele>70</ele>
        <time>2023-04-25T11:08:10Z</time>
      </trkpt>
      <trkpt lat="49.18333" lon="-0.47792">
        <ele>70</ele>
        <time>2023-04-25T11:08:11Z</time>
      </trkpt>
      <trkpt lat="49.18333" lon="-0.47803">
        <ele>70</ele>
        <time>2023-04-25T11:08:12Z</time>
      </trkpt>
      <trkpt lat="49.18333" lon="-0.47814">
        <ele>70</ele>
        <time>2023-04-25T11:08:13Z</time>
      </trkpt>
      <trkpt lat="49.18333" lon="-0.47824">
        <ele>70</ele>
        <time>2023-04-25T11:08:14Z</time>
      </trkpt>
      <trkpt lat="49.18333" lon="-0.47835">
        <ele>70</ele>
        <time>2023-04-25T11:08:15Z</time>
      </trkpt>
      <trkpt lat="49.18333" lon="-0.47845">
        <ele>70</ele>
        <time>2023-04-25T11:08:16Z</time>
      </trkpt>
      <trkpt lat="49.18333" lon="-0.47856">
        <ele>70</ele>
        <time>2023-04-25T11:08:17Z</time>
      </trkpt>
      <trkpt lat="49.18332" lon="-0.47867">
        <ele>70</ele>
        <time>2023-04-25T11:08:18Z</time>
      </trkpt>
      <trkpt lat="49.18332" lon="-0.47877">
        <ele>70</ele>
        <time>2023-04-25T11:08:19Z</time>
      </trkpt>
      <trkpt lat="49.18332" lon="-0.47888">
        <ele>70</ele>
        <time>2023-04-25T11:08:20Z</time>
      </trkpt>
      <trkpt lat="49.18332" lon="-0.47898">
        <ele>70</ele>
        <time>2023-04-25T11:08:21Z</time>
      </trkpt>
      <trkpt lat="49.18332" lon="-0.47909">
        <ele>70</ele>
        <time>2023-04-25T11:08:22Z</time>
      </trkpt>
      <trkpt lat="49.18332" lon="-0.4792">
        <ele>70</ele>
        <time>2023-04-25T11:08:23Z</time>
      </trkpt>
      <trkpt lat="49.18332" lon="-0.4793">
        <ele>70</ele>
        <time>2023-04-25T11:08:24Z</time>
      </trkpt>
      <trkpt lat="49.18332" lon="-0.47941">
        <ele>70</ele>
        <time>2023-04-25T11:08:25Z</time>
      </trkpt>
      <trkpt lat="49.18332" lon="-0.47951">
        <ele>70</ele>
        <time>2023-04-25T11:08:26Z</time>
      </trkpt>
      <trkpt lat="49.18332" lon="-0.47962">
        <ele>70</ele>
        <time>2023-04-25T11:08:27Z</time>
      </trkpt>
      <trkpt lat="49.18332" lon="-0.47972">
        <ele>70</ele>
        <time>2023-04-25T11:08:28Z</time>
      </trkpt>
      <trkpt lat="49.18332" lon="-0.47983">
        <ele>70</ele>
        <time>2023-04-25T11:08:29Z</time>
      </trkpt>
      <trkpt lat="49.18331" lon="-0.47993">
        <ele>70</ele>
        <time>2023-04-25T11:08:30Z</time>
      </trkpt>
      <trkpt lat="49.18331" lon="-0.48003">
        <ele>70</ele>
        <time>2023-04-25T11:08:31Z</time>
      </trkpt>
      <trkpt lat="49.18331" lon="-0.48013">
        <ele>70.2</ele>
        <time>2023-04-25T11:08:32Z</time>
      </trkpt>
      <trkpt lat="49.18331" lon="-0.48023">
        <ele>70.4</ele>
        <time>2023-04-25T11:08:33Z</time>
      </trkpt>
      <trkpt lat="49.18331" lon="-0.48033">
        <ele>70.6</ele>
        <time>2023-04-25T11:08:34Z</time>
      </trkpt>
      <trkpt lat="49.18331" lon="-0.48043">
        <ele>70.6</ele>
        <time>2023-04-25T11:08:35Z</time>
      </trkpt>
      <trkpt lat="49.18331" lon="-0.48053">
        <ele>70.6</ele>
        <time>2023-04-25T11:08:36Z</time>
      </trkpt>
      <trkpt lat="49.1833" lon="-0.48063">
        <ele>70.8</ele>
        <time>2023-04-25T11:08:37Z</time>
      </trkpt>
      <trkpt lat="49.1833" lon="-0.48073">
        <ele>71</ele>
        <time>2023-04-25T11:08:38Z</time>
      </trkpt>
      <trkpt lat="49.1833" lon="-0.48083">
        <ele>71</ele>
        <time>2023-04-25T11:08:39Z</time>
      </trkpt>
      <trkpt lat="49.1833" lon="-0.48093">
        <ele>71</ele>
        <time>2023-04-25T11:08:40Z</time>
      </trkpt>
      <trkpt lat="49.18329" lon="-0.48103">
        <ele>71</ele>
        <time>2023-04-25T11:08:41Z</time>
      </trkpt>
      <trkpt lat="49.18329" lon="-0.48114">
        <ele>71</ele>
        <time>2023-04-25T11:08:42Z</time>
      </trkpt>
      <trkpt lat="49.18329" lon="-0.48124">
        <ele>71</ele>
        <time>2023-04-25T11:08:43Z</time>
      </trkpt>
      <trkpt lat="49.18329" lon="-0.48134">
        <ele>71</ele>
        <time>2023-04-25T11:08:44Z</time>
      </trkpt>
      <trkpt lat="49.18328" lon="-0.48144">
        <ele>71</ele>
        <time>2023-04-25T11:08:45Z</time>
      </trkpt>
      <trkpt lat="49.18328" lon="-0.48154">
        <ele>71</ele>
        <time>2023-04-25T11:08:46Z</time>
      </trkpt>
      <trkpt lat="49.18328" lon="-0.48164">
        <ele>71</ele>
        <time>2023-04-25T11:08:47Z</time>
      </trkpt>
      <trkpt lat="49.18327" lon="-0.48174">
        <ele>71</ele>
        <time>2023-04-25T11:08:48Z</time>
      </trkpt>
      <trkpt lat="49.18327" lon="-0.48185">
        <ele>71.2</ele>
        <time>2023-04-25T11:08:49Z</time>
      </trkpt>
      <trkpt lat="49.18326" lon="-0.48195">
        <ele>71.2</ele>
        <time>2023-04-25T11:08:50Z</time>
      </trkpt>
      <trkpt lat="49.18326" lon="-0.48205">
        <ele>71.2</ele>
        <time>2023-04-25T11:08:51Z</time>
      </trkpt>
      <trkpt lat="49.18326" lon="-0.48215">
        <ele>71.2</ele>
        <time>2023-04-25T11:08:52Z</time>
      </trkpt>
      <trkpt lat="49.18325" lon="-0.48225">
        <ele>71.2</ele>
        <time>2023-04-25T11:08:53Z</time>
      </trkpt>
      <trkpt lat="49.18325" lon="-0.48235">
        <ele>71.2</ele>
        <time>2023-04-25T11:08:54Z</time>
      </trkpt>
      <trkpt lat="49.18325" lon="-0.48246">
        <ele>71.2</ele>
        <time>2023-04-25T11:08:55Z</time>
      </trkpt>
      <trkpt lat="49.18324" lon="-0.48256">
        <ele>71</ele>
        <time>2023-04-25T11:08:56Z</time>
      </trkpt>
      <trkpt lat="49.18324" lon="-0.48266">
        <ele>71</ele>
        <time>2023-04-25T11:08:57Z</time>
      </trkpt>
      <trkpt lat="49.18323" lon="-0.48277">
        <ele>71</ele>
        <time>2023-04-25T11:08:58Z</time>
      </trkpt>
      <trkpt lat="49.18323" lon="-0.48287">
        <ele>70.8</ele>
        <time>2023-04-25T11:08:59Z</time>
      </trkpt>
      <trkpt lat="49.18322" lon="-0.48297">
        <ele>70.6</ele>
        <time>2023-04-25T11:09:00Z</time>
      </trkpt>
      <trkpt lat="49.18321" lon="-0.48308">
        <ele>70.6</ele>
        <time>2023-04-25T11:09:01Z</time>
      </trkpt>
      <trkpt lat="49.18321" lon="-0.48318">
        <ele>70.4</ele>
        <time>2023-04-25T11:09:02Z</time>
      </trkpt>
      <trkpt lat="49.18319" lon="-0.48329">
        <ele>70.2</ele>
        <time>2023-04-25T11:09:03Z</time>
      </trkpt>
      <trkpt lat="49.18318" lon="-0.48339">
        <ele>70.2</ele>
        <time>2023-04-25T11:09:04Z</time>
      </trkpt>
      <trkpt lat="49.18317" lon="-0.48349">
        <ele>70</ele>
        <time>2023-04-25T11:09:05Z</time>
      </trkpt>
      <trkpt lat="49.18316" lon="-0.4836">
        <ele>70</ele>
        <time>2023-04-25T11:09:06Z</time>
      </trkpt>
      <trkpt lat="49.18314" lon="-0.4837">
        <ele>70</ele>
        <time>2023-04-25T11:09:07Z</time>
      </trkpt>
      <trkpt lat="49.18313" lon="-0.4838">
        <ele>70</ele>
        <time>2023-04-25T11:09:08Z</time>
      </trkpt>
      <trkpt lat="49.18311" lon="-0.48391">
        <ele>70</ele>
        <time>2023-04-25T11:09:09Z</time>
      </trkpt>
      <trkpt lat="49.1831" lon="-0.48401">
        <ele>69.8</ele>
        <time>2023-04-25T11:09:10Z</time>
      </trkpt>
      <trkpt lat="49.18308" lon="-0.48411">
        <ele>69.6</ele>
        <time>2023-04-25T11:09:11Z</time>
      </trkpt>
      <trkpt lat="49.18306" lon="-0.48422">
        <ele>69.6</ele>
        <time>2023-04-25T11:09:12Z</time>
      </trkpt>
      <trkpt lat="49.18304" lon="-0.48432">
        <ele>69.6</ele>
        <time>2023-04-25T11:09:13Z</time>
      </trkpt>
      <trkpt lat="49.18302" lon="-0.48442">
        <ele>69.4</ele>
        <time>2023-04-25T11:09:14Z</time>
      </trkpt>
      <trkpt lat="49.183" lon="-0.48452">
        <ele>69.2</ele>
        <time>2023-04-25T11:09:15Z</time>
      </trkpt>
      <trkpt lat="49.18298" lon="-0.48462">
        <ele>69</ele>
        <time>2023-04-25T11:09:16Z</time>
      </trkpt>
      <trkpt lat="49.18296" lon="-0.48473">
        <ele>69</ele>
        <time>2023-04-25T11:09:17Z</time>
      </trkpt>
      <trkpt lat="49.18294" lon="-0.48483">
        <ele>68.6</ele>
        <time>2023-04-25T11:09:18Z</time>
      </trkpt>
      <trkpt lat="49.18292" lon="-0.48494">
        <ele>68.6</ele>
        <time>2023-04-25T11:09:19Z</time>
      </trkpt>
      <trkpt lat="49.1829" lon="-0.48504">
        <ele>68.6</ele>
        <time>2023-04-25T11:09:20Z</time>
      </trkpt>
      <trkpt lat="49.18288" lon="-0.48515">
        <ele>68.6</ele>
        <time>2023-04-25T11:09:21Z</time>
      </trkpt>
      <trkpt lat="49.18286" lon="-0.48525">
        <ele>68.4</ele>
        <time>2023-04-25T11:09:22Z</time>
      </trkpt>
      <trkpt lat="49.18283" lon="-0.48536">
        <ele>68.4</ele>
        <time>2023-04-25T11:09:23Z</time>
      </trkpt>
      <trkpt lat="49.18281" lon="-0.48547">
        <ele>68.4</ele>
        <time>2023-04-25T11:09:24Z</time>
      </trkpt>
      <trkpt lat="49.18279" lon="-0.48557">
        <ele>68.4</ele>
        <time>2023-04-25T11:09:25Z</time>
      </trkpt>
      <trkpt lat="49.18277" lon="-0.48568">
        <ele>68.4</ele>
        <time>2023-04-25T11:09:26Z</time>
      </trkpt>
      <trkpt lat="49.18275" lon="-0.48578">
        <ele>68.4</ele>
        <time>2023-04-25T11:09:27Z</time>
      </trkpt>
      <trkpt lat="49.18273" lon="-0.48589">
        <ele>68.2</ele>
        <time>2023-04-25T11:09:28Z</time>
      </trkpt>
      <trkpt lat="49.18272" lon="-0.48599">
        <ele>68.2</ele>
        <time>2023-04-25T11:09:29Z</time>
      </trkpt>
      <trkpt lat="49.1827" lon="-0.4861">
        <ele>68</ele>
        <time>2023-04-25T11:09:30Z</time>
      </trkpt>
      <trkpt lat="49.18268" lon="-0.4862">
        <ele>68</ele>
        <time>2023-04-25T11:09:31Z</time>
      </trkpt>
      <trkpt lat="49.18266" lon="-0.4863">
        <ele>68</ele>
        <time>2023-04-25T11:09:32Z</time>
      </trkpt>
      <trkpt lat="49.18264" lon="-0.48641">
        <ele>68</ele>
        <time>2023-04-25T11:09:33Z</time>
      </trkpt>
      <trkpt lat="49.18262" lon="-0.48651">
        <ele>68</ele>
        <time>2023-04-25T11:09:34Z</time>
      </trkpt>
      <trkpt lat="49.1826" lon="-0.48661">
        <ele>68</ele>
        <time>2023-04-25T11:09:35Z</time>
      </trkpt>
      <trkpt lat="49.18259" lon="-0.48671">
        <ele>68</ele>
        <time>2023-04-25T11:09:36Z</time>
      </trkpt>
      <trkpt lat="49.18257" lon="-0.48681">
        <ele>68</ele>
        <time>2023-04-25T11:09:37Z</time>
      </trkpt>
      <trkpt lat="49.18255" lon="-0.48692">
        <ele>68.2</ele>
        <time>2023-04-25T11:09:38Z</time>
      </trkpt>
      <trkpt lat="49.18253" lon="-0.48702">
        <ele>68.4</ele>
        <time>2023-04-25T11:09:39Z</time>
      </trkpt>
      <trkpt lat="49.18251" lon="-0.48712">
        <ele>68.6</ele>
        <time>2023-04-25T11:09:40Z</time>
      </trkpt>
      <trkpt lat="49.1825" lon="-0.48722">
        <ele>68.6</ele>
        <time>2023-04-25T11:09:41Z</time>
      </trkpt>
      <trkpt lat="49.18248" lon="-0.48732">
        <ele>68.8</ele>
        <time>2023-04-25T11:09:42Z</time>
      </trkpt>
      <trkpt lat="49.18246" lon="-0.48742">
        <ele>69</ele>
        <time>2023-04-25T11:09:43Z</time>
      </trkpt>
      <trkpt lat="49.18244" lon="-0.48752">
        <ele>69</ele>
        <time>2023-04-25T11:09:44Z</time>
      </trkpt>
      <trkpt lat="49.18243" lon="-0.48762">
        <ele>69</ele>
        <time>2023-04-25T11:09:45Z</time>
      </trkpt>
      <trkpt lat="49.18241" lon="-0.48772">
        <ele>69.2</ele>
        <time>2023-04-25T11:09:46Z</time>
      </trkpt>
      <trkpt lat="49.18239" lon="-0.48781">
        <ele>69.4</ele>
        <time>2023-04-25T11:09:47Z</time>
      </trkpt>
      <trkpt lat="49.18237" lon="-0.48791">
        <ele>69.4</ele>
        <time>2023-04-25T11:09:48Z</time>
      </trkpt>
      <trkpt lat="49.18236" lon="-0.48801">
        <ele>69.6</ele>
        <time>2023-04-25T11:09:49Z</time>
      </trkpt>
      <trkpt lat="49.18234" lon="-0.48811">
        <ele>69.6</ele>
        <time>2023-04-25T11:09:50Z</time>
      </trkpt>
      <trkpt lat="49.18232" lon="-0.48821">
        <ele>69.8</ele>
        <time>2023-04-25T11:09:51Z</time>
      </trkpt>
      <trkpt lat="49.1823" lon="-0.4883">
        <ele>70</ele>
        <time>2023-04-25T11:09:52Z</time>
      </trkpt>
      <trkpt lat="49.18229" lon="-0.4884">
        <ele>70</ele>
        <time>2023-04-25T11:09:53Z</time>
      </trkpt>
      <trkpt lat="49.18227" lon="-0.4885">
        <ele>70</ele>
        <time>2023-04-25T11:09:54Z</time>
      </trkpt>
      <trkpt lat="49.18225" lon="-0.48859">
        <ele>70.2</ele>
        <time>2023-04-25T11:09:55Z</time>
      </trkpt>
      <trkpt lat="49.18224" lon="-0.48869">
        <ele>70.4</ele>
        <time>2023-04-25T11:09:56Z</time>
      </trkpt>
      <trkpt lat="49.18222" lon="-0.48878">
        <ele>70.4</ele>
        <time>2023-04-25T11:09:57Z</time>
      </trkpt>
      <trkpt lat="49.1822" lon="-0.48888">
        <ele>70.6</ele>
        <time>2023-04-25T11:09:58Z</time>
      </trkpt>
      <trkpt lat="49.18219" lon="-0.48897">
        <ele>70.6</ele>
        <time>2023-04-25T11:09:59Z</time>
      </trkpt>
      <trkpt lat="49.18217" lon="-0.48906">
        <ele>70.6</ele>
        <time>2023-04-25T11:10:00Z</time>
      </trkpt>
      <trkpt lat="49.18215" lon="-0.48915">
        <ele>70.8</ele>
        <time>2023-04-25T11:10:01Z</time>
      </trkpt>
      <trkpt lat="49.18213" lon="-0.48924">
        <ele>70.8</ele>
        <time>2023-04-25T11:10:02Z</time>
      </trkpt>
      <trkpt lat="49.18211" lon="-0.48933">
        <ele>70.8</ele>
        <time>2023-04-25T11:10:03Z</time>
      </trkpt>
      <trkpt lat="49.18209" lon="-0.48941">
        <ele>70.8</ele>
        <time>2023-04-25T11:10:04Z</time>
      </trkpt>
      <trkpt lat="49.18207" lon="-0.4895">
        <ele>70.8</ele>
        <time>2023-04-25T11:10:05Z</time>
      </trkpt>
      <trkpt lat="49.18205" lon="-0.48959">
        <ele>70.8</ele>
        <time>2023-04-25T11:10:06Z</time>
      </trkpt>
      <trkpt lat="49.18203" lon="-0.48967">
        <ele>70.8</ele>
        <time>2023-04-25T11:10:07Z</time>
      </trkpt>
      <trkpt lat="49.182" lon="-0.48976">
        <ele>70.8</ele>
        <time>2023-04-25T11:10:08Z</time>
      </trkpt>
      <trkpt lat="49.18198" lon="-0.48984">
        <ele>70.6</ele>
        <time>2023-04-25T11:10:09Z</time>
      </trkpt>
      <trkpt lat="49.18195" lon="-0.48993">
        <ele>70.6</ele>
        <time>2023-04-25T11:10:10Z</time>
      </trkpt>
      <trkpt lat="49.18193" lon="-0.49002">
        <ele>70.6</ele>
        <time>2023-04-25T11:10:11Z</time>
      </trkpt>
      <trkpt lat="49.1819" lon="-0.4901">
        <ele>70.8</ele>
        <time>2023-04-25T11:10:12Z</time>
      </trkpt>
      <trkpt lat="49.18187" lon="-0.49018">
        <ele>70.8</ele>
        <time>2023-04-25T11:10:13Z</time>
      </trkpt>
      <trkpt lat="49.18184" lon="-0.49027">
        <ele>71</ele>
        <time>2023-04-25T11:10:14Z</time>
      </trkpt>
      <trkpt lat="49.18181" lon="-0.49035">
        <ele>71</ele>
        <time>2023-04-25T11:10:15Z</time>
      </trkpt>
      <trkpt lat="49.18178" lon="-0.49044">
        <ele>71</ele>
        <time>2023-04-25T11:10:16Z</time>
      </trkpt>
      <trkpt lat="49.18175" lon="-0.49052">
        <ele>71</ele>
        <time>2023-04-25T11:10:17Z</time>
      </trkpt>
      <trkpt lat="49.18172" lon="-0.4906">
        <ele>71</ele>
        <time>2023-04-25T11:10:18Z</time>
      </trkpt>
      <trkpt lat="49.18169" lon="-0.49069">
        <ele>71</ele>
        <time>2023-04-25T11:10:19Z</time>
      </trkpt>
      <trkpt lat="49.18166" lon="-0.49077">
        <ele>71</ele>
        <time>2023-04-25T11:10:20Z</time>
      </trkpt>
      <trkpt lat="49.18164" lon="-0.49085">
        <ele>71</ele>
        <time>2023-04-25T11:10:21Z</time>
      </trkpt>
      <trkpt lat="49.18163" lon="-0.49094">
        <ele>71.2</ele>
        <time>2023-04-25T11:10:22Z</time>
      </trkpt>
      <trkpt lat="49.18163" lon="-0.49103">
        <ele>71.4</ele>
        <time>2023-04-25T11:10:23Z</time>
      </trkpt>
      <trkpt lat="49.18165" lon="-0.49112">
        <ele>71.4</ele>
        <time>2023-04-25T11:10:24Z</time>
      </trkpt>
      <trkpt lat="49.18167" lon="-0.4912">
        <ele>71.4</ele>
        <time>2023-04-25T11:10:25Z</time>
      </trkpt>
      <trkpt lat="49.18168" lon="-0.4913">
        <ele>71.6</ele>
        <time>2023-04-25T11:10:26Z</time>
      </trkpt>
      <trkpt lat="49.18167" lon="-0.49139">
        <ele>71.6</ele>
        <time>2023-04-25T11:10:27Z</time>
      </trkpt>
      <trkpt lat="49.18165" lon="-0.49148">
        <ele>71.8</ele>
        <time>2023-04-25T11:10:28Z</time>
      </trkpt>
      <trkpt lat="49.18161" lon="-0.49155">
        <ele>72</ele>
        <time>2023-04-25T11:10:29Z</time>
      </trkpt>
      <trkpt lat="49.18157" lon="-0.49161">
        <ele>72</ele>
        <time>2023-04-25T11:10:30Z</time>
      </trkpt>
      <trkpt lat="49.18151" lon="-0.49166">
        <ele>72</ele>
        <time>2023-04-25T11:10:31Z</time>
      </trkpt>
      <trkpt lat="49.18146" lon="-0.4917">
        <ele>72</ele>
        <time>2023-04-25T11:10:32Z</time>
      </trkpt>
      <trkpt lat="49.1814" lon="-0.49173">
        <ele>72</ele>
        <time>2023-04-25T11:10:33Z</time>
      </trkpt>
      <trkpt lat="49.18135" lon="-0.49177">
        <ele>72</ele>
        <time>2023-04-25T11:10:34Z</time>
      </trkpt>
      <trkpt lat="49.18131" lon="-0.49184">
        <ele>72.2</ele>
        <time>2023-04-25T11:10:35Z</time>
      </trkpt>
      <trkpt lat="49.18127" lon="-0.49191">
        <ele>72.4</ele>
        <time>2023-04-25T11:10:36Z</time>
      </trkpt>
      <trkpt lat="49.18124" lon="-0.492">
        <ele>72.4</ele>
        <time>2023-04-25T11:10:37Z</time>
      </trkpt>
      <trkpt lat="49.18121" lon="-0.49208">
        <ele>72.6</ele>
        <time>2023-04-25T11:10:38Z</time>
      </trkpt>
      <trkpt lat="49.18118" lon="-0.49217">
        <ele>72.6</ele>
        <time>2023-04-25T11:10:39Z</time>
      </trkpt>
      <trkpt lat="49.18115" lon="-0.49226">
        <ele>72.6</ele>
        <time>2023-04-25T11:10:40Z</time>
      </trkpt>
      <trkpt lat="49.18112" lon="-0.49235">
        <ele>72.8</ele>
        <time>2023-04-25T11:10:41Z</time>
      </trkpt>
      <trkpt lat="49.18109" lon="-0.49243">
        <ele>73</ele>
        <time>2023-04-25T11:10:42Z</time>
      </trkpt>
      <trkpt lat="49.18105" lon="-0.49252">
        <ele>73</ele>
        <time>2023-04-25T11:10:43Z</time>
      </trkpt>
      <trkpt lat="49.18102" lon="-0.49261">
        <ele>73</ele>
        <time>2023-04-25T11:10:44Z</time>
      </trkpt>
      <trkpt lat="49.18099" lon="-0.49269">
        <ele>73.2</ele>
        <time>2023-04-25T11:10:45Z</time>
      </trkpt>
      <trkpt lat="49.18095" lon="-0.49278">
        <ele>73.4</ele>
        <time>2023-04-25T11:10:46Z</time>
      </trkpt>
      <trkpt lat="49.18092" lon="-0.49286">
        <ele>73.4</ele>
        <time>2023-04-25T11:10:47Z</time>
      </trkpt>
      <trkpt lat="49.18089" lon="-0.49295">
        <ele>73.6</ele>
        <time>2023-04-25T11:10:48Z</time>
      </trkpt>
      <trkpt lat="49.18086" lon="-0.49304">
        <ele>73.6</ele>
        <time>2023-04-25T11:10:49Z</time>
      </trkpt>
      <trkpt lat="49.18083" lon="-0.49312">
        <ele>73.8</ele>
        <time>2023-04-25T11:10:50Z</time>
      </trkpt>
      <trkpt lat="49.18079" lon="-0.49321">
        <ele>74</ele>
        <time>2023-04-25T11:10:51Z</time>
      </trkpt>
      <trkpt lat="49.18076" lon="-0.4933">
        <ele>74</ele>
        <time>2023-04-25T11:10:52Z</time>
      </trkpt>
      <trkpt lat="49.18073" lon="-0.49339">
        <ele>74</ele>
        <time>2023-04-25T11:10:53Z</time>
      </trkpt>
      <trkpt lat="49.1807" lon="-0.49348">
        <ele>74.2</ele>
        <time>2023-04-25T11:10:54Z</time>
      </trkpt>
      <trkpt lat="49.18067" lon="-0.49357">
        <ele>74.2</ele>
        <time>2023-04-25T11:10:55Z</time>
      </trkpt>
      <trkpt lat="49.18064" lon="-0.49365">
        <ele>74.2</ele>
        <time>2023-04-25T11:10:56Z</time>
      </trkpt>
      <trkpt lat="49.18061" lon="-0.49374">
        <ele>74.4</ele>
        <time>2023-04-25T11:10:57Z</time>
      </trkpt>
      <trkpt lat="49.18058" lon="-0.49383">
        <ele>74.4</ele>
        <time>2023-04-25T11:10:58Z</time>
      </trkpt>
      <trkpt lat="49.18055" lon="-0.49392">
        <ele>74.4</ele>
        <time>2023-04-25T11:10:59Z</time>
      </trkpt>
      <trkpt lat="49.18052" lon="-0.49401">
        <ele>74.4</ele>
        <time>2023-04-25T11:11:00Z</time>
      </trkpt>
      <trkpt lat="49.18049" lon="-0.4941">
        <ele>74.4</ele>
        <time>2023-04-25T11:11:01Z</time>
      </trkpt>
      <trkpt lat="49.18046" lon="-0.49418">
        <ele>74.4</ele>
        <time>2023-04-25T11:11:02Z</time>
      </trkpt>
      <trkpt lat="49.18043" lon="-0.49427">
        <ele>74.6</ele>
        <time>2023-04-25T11:11:03Z</time>
      </trkpt>
      <trkpt lat="49.1804" lon="-0.49435">
        <ele>74.6</ele>
        <time>2023-04-25T11:11:04Z</time>
      </trkpt>
      <trkpt lat="49.18037" lon="-0.49444">
        <ele>74.6</ele>
        <time>2023-04-25T11:11:05Z</time>
      </trkpt>
      <trkpt lat="49.18035" lon="-0.49452">
        <ele>74.6</ele>
        <time>2023-04-25T11:11:06Z</time>
      </trkpt>
      <trkpt lat="49.18032" lon="-0.4946">
        <ele>74.6</ele>
        <time>2023-04-25T11:11:07Z</time>
      </trkpt>
      <trkpt lat="49.18029" lon="-0.49469">
        <ele>74.6</ele>
        <time>2023-04-25T11:11:08Z</time>
      </trkpt>
      <trkpt lat="49.18026" lon="-0.49477">
        <ele>74.6</ele>
        <time>2023-04-25T11:11:09Z</time>
      </trkpt>
      <trkpt lat="49.18023" lon="-0.49485">
        <ele>74.6</ele>
        <time>2023-04-25T11:11:10Z</time>
      </trkpt>
      <trkpt lat="49.1802" lon="-0.49493">
        <ele>74.8</ele>
        <time>2023-04-25T11:11:11Z</time>
      </trkpt>
      <trkpt lat="49.18018" lon="-0.49501">
        <ele>74.8</ele>
        <time>2023-04-25T11:11:12Z</time>
      </trkpt>
      <trkpt lat="49.18015" lon="-0.49509">
        <ele>74.6</ele>
        <time>2023-04-25T11:11:13Z</time>
      </trkpt>
      <trkpt lat="49.18012" lon="-0.49518">
        <ele>74.6</ele>
        <time>2023-04-25T11:11:14Z</time>
      </trkpt>
      <trkpt lat="49.18009" lon="-0.49526">
        <ele>74.6</ele>
        <time>2023-04-25T11:11:15Z</time>
      </trkpt>
      <trkpt lat="49.18007" lon="-0.49534">
        <ele>74.6</ele>
        <time>2023-04-25T11:11:16Z</time>
      </trkpt>
      <trkpt lat="49.18004" lon="-0.49542">
        <ele>74.6</ele>
        <time>2023-04-25T11:11:17Z</time>
      </trkpt>
      <trkpt lat="49.18001" lon="-0.4955">
        <ele>74.4</ele>
        <time>2023-04-25T11:11:18Z</time>
      </trkpt>
      <trkpt lat="49.17998" lon="-0.49558">
        <ele>74.4</ele>
        <time>2023-04-25T11:11:19Z</time>
      </trkpt>
      <trkpt lat="49.17996" lon="-0.49567">
        <ele>74.2</ele>
        <time>2023-04-25T11:11:20Z</time>
      </trkpt>
      <trkpt lat="49.17993" lon="-0.49575">
        <ele>74.2</ele>
        <time>2023-04-25T11:11:21Z</time>
      </trkpt>
      <trkpt lat="49.1799" lon="-0.49583">
        <ele>74</ele>
        <time>2023-04-25T11:11:22Z</time>
      </trkpt>
      <trkpt lat="49.17987" lon="-0.49591">
        <ele>74.2</ele>
        <time>2023-04-25T11:11:23Z</time>
      </trkpt>
      <trkpt lat="49.17984" lon="-0.49599">
        <ele>74.4</ele>
        <time>2023-04-25T11:11:24Z</time>
      </trkpt>
      <trkpt lat="49.17982" lon="-0.49607">
        <ele>74.6</ele>
        <time>2023-04-25T11:11:25Z</time>
      </trkpt>
      <trkpt lat="49.17979" lon="-0.49616">
        <ele>74.6</ele>
        <time>2023-04-25T11:11:26Z</time>
      </trkpt>
      <trkpt lat="49.17976" lon="-0.49624">
        <ele>74.8</ele>
        <time>2023-04-25T11:11:27Z</time>
      </trkpt>
      <trkpt lat="49.17973" lon="-0.49632">
        <ele>75</ele>
        <time>2023-04-25T11:11:28Z</time>
      </trkpt>
      <trkpt lat="49.1797" lon="-0.4964">
        <ele>75</ele>
        <time>2023-04-25T11:11:29Z</time>
      </trkpt>
      <trkpt lat="49.17968" lon="-0.49648">
        <ele>75.2</ele>
        <time>2023-04-25T11:11:30Z</time>
      </trkpt>
      <trkpt lat="49.17965" lon="-0.49656">
        <ele>75.4</ele>
        <time>2023-04-25T11:11:31Z</time>
      </trkpt>
      <trkpt lat="49.17962" lon="-0.49665">
        <ele>75.4</ele>
        <time>2023-04-25T11:11:32Z</time>
      </trkpt>
      <trkpt lat="49.17959" lon="-0.49673">
        <ele>75.6</ele>
        <time>2023-04-25T11:11:33Z</time>
      </trkpt>
      <trkpt lat="49.17956" lon="-0.49681">
        <ele>75.6</ele>
        <time>2023-04-25T11:11:34Z</time>
      </trkpt>
      <trkpt lat="49.17954" lon="-0.49689">
        <ele>75.8</ele>
        <time>2023-04-25T11:11:35Z</time>
      </trkpt>
      <trkpt lat="49.17951" lon="-0.49698">
        <ele>76</ele>
        <time>2023-04-25T11:11:36Z</time>
      </trkpt>
      <trkpt lat="49.17948" lon="-0.49706">
        <ele>76</ele>
        <time>2023-04-25T11:11:37Z</time>
      </trkpt>
      <trkpt lat="49.17945" lon="-0.49714">
        <ele>76.2</ele>
        <time>2023-04-25T11:11:38Z</time>
      </trkpt>
      <trkpt lat="49.17942" lon="-0.49723">
        <ele>76.4</ele>
        <time>2023-04-25T11:11:39Z</time>
      </trkpt>
      <trkpt lat="49.17939" lon="-0.49731">
        <ele>76.6</ele>
        <time>2023-04-25T11:11:40Z</time>
      </trkpt>
      <trkpt lat="49.17937" lon="-0.49739">
        <ele>76.6</ele>
        <time>2023-04-25T11:11:41Z</time>
      </trkpt>
      <trkpt lat="49.17934" lon="-0.49748">
        <ele>76.8</ele>
        <time>2023-04-25T11:11:42Z</time>
      </trkpt>
      <trkpt lat="49.17931" lon="-0.49756">
        <ele>77</ele>
        <time>2023-04-25T11:11:43Z</time>
      </trkpt>
      <trkpt lat="49.17928" lon="-0.49764">
        <ele>77</ele>
        <time>2023-04-25T11:11:44Z</time>
      </trkpt>
      <trkpt lat="49.17925" lon="-0.49773">
        <ele>77</ele>
        <time>2023-04-25T11:11:45Z</time>
      </trkpt>
      <trkpt lat="49.17922" lon="-0.49781">
        <ele>77</ele>
        <time>2023-04-25T11:11:46Z</time>
      </trkpt>
      <trkpt lat="49.17919" lon="-0.49789">
        <ele>77</ele>
        <time>2023-04-25T11:11:47Z</time>
      </trkpt>
      <trkpt lat="49.17917" lon="-0.49797">
        <ele>77</ele>
        <time>2023-04-25T11:11:48Z</time>
      </trkpt>
      <trkpt lat="49.17914" lon="-0.49806">
        <ele>77</ele>
        <time>2023-04-25T11:11:49Z</time>
      </trkpt>
      <trkpt lat="49.17911" lon="-0.49814">
        <ele>77</ele>
        <time>2023-04-25T11:11:50Z</time>
      </trkpt>
      <trkpt lat="49.17908" lon="-0.49822">
        <ele>77</ele>
        <time>2023-04-25T11:11:51Z</time>
      </trkpt>
      <trkpt lat="49.17905" lon="-0.4983">
        <ele>77</ele>
        <time>2023-04-25T11:11:52Z</time>
      </trkpt>
      <trkpt lat="49.17902" lon="-0.49839">
        <ele>77</ele>
        <time>2023-04-25T11:11:53Z</time>
      </trkpt>
      <trkpt lat="49.179" lon="-0.49847">
        <ele>77</ele>
        <time>2023-04-25T11:11:54Z</time>
      </trkpt>
      <trkpt lat="49.17897" lon="-0.49855">
        <ele>77</ele>
        <time>2023-04-25T11:11:55Z</time>
      </trkpt>
      <trkpt lat="49.17894" lon="-0.49863">
        <ele>77.4</ele>
        <time>2023-04-25T11:11:56Z</time>
      </trkpt>
      <trkpt lat="49.17891" lon="-0.49871">
        <ele>77.4</ele>
        <time>2023-04-25T11:11:57Z</time>
      </trkpt>
      <trkpt lat="49.17888" lon="-0.4988">
        <ele>77.6</ele>
        <time>2023-04-25T11:11:58Z</time>
      </trkpt>
      <trkpt lat="49.17886" lon="-0.49888">
        <ele>77.8</ele>
        <time>2023-04-25T11:11:59Z</time>
      </trkpt>
      <trkpt lat="49.17883" lon="-0.49896">
        <ele>78</ele>
        <time>2023-04-25T11:12:00Z</time>
      </trkpt>
      <trkpt lat="49.1788" lon="-0.49905">
        <ele>78.2</ele>
        <time>2023-04-25T11:12:01Z</time>
      </trkpt>
      <trkpt lat="49.17877" lon="-0.49913">
        <ele>78.4</ele>
        <time>2023-04-25T11:12:02Z</time>
      </trkpt>
      <trkpt lat="49.17874" lon="-0.49922">
        <ele>78.6</ele>
        <time>2023-04-25T11:12:03Z</time>
      </trkpt>
      <trkpt lat="49.17871" lon="-0.4993">
        <ele>78.6</ele>
        <time>2023-04-25T11:12:04Z</time>
      </trkpt>
      <trkpt lat="49.17869" lon="-0.49939">
        <ele>78.8</ele>
        <time>2023-04-25T11:12:05Z</time>
      </trkpt>
      <trkpt lat="49.17866" lon="-0.49947">
        <ele>79</ele>
        <time>2023-04-25T11:12:06Z</time>
      </trkpt>
      <trkpt lat="49.17863" lon="-0.49956">
        <ele>79</ele>
        <time>2023-04-25T11:12:07Z</time>
      </trkpt>
      <trkpt lat="49.1786" lon="-0.49964">
        <ele>79.4</ele>
        <time>2023-04-25T11:12:08Z</time>
      </trkpt>
      <trkpt lat="49.17857" lon="-0.49973">
        <ele>79.4</ele>
        <time>2023-04-25T11:12:09Z</time>
      </trkpt>
      <trkpt lat="49.17854" lon="-0.49981">
        <ele>79.6</ele>
        <time>2023-04-25T11:12:10Z</time>
      </trkpt>
      <trkpt lat="49.17851" lon="-0.4999">
        <ele>79.6</ele>
        <time>2023-04-25T11:12:11Z</time>
      </trkpt>
      <trkpt lat="49.17848" lon="-0.49999">
        <ele>79.8</ele>
        <time>2023-04-25T11:12:12Z</time>
      </trkpt>
      <trkpt lat="49.17845" lon="-0.50007">
        <ele>80</ele>
        <time>2023-04-25T11:12:13Z</time>
      </trkpt>
      <trkpt lat="49.17842" lon="-0.50016">
        <ele>80</ele>
        <time>2023-04-25T11:12:14Z</time>
      </trkpt>
      <trkpt lat="49.17839" lon="-0.50024">
        <ele>80</ele>
        <time>2023-04-25T11:12:15Z</time>
      </trkpt>
      <trkpt lat="49.17837" lon="-0.50033">
        <ele>80</ele>
        <time>2023-04-25T11:12:16Z</time>
      </trkpt>
      <trkpt lat="49.17834" lon="-0.50041">
        <ele>80</ele>
        <time>2023-04-25T11:12:17Z</time>
      </trkpt>
      <trkpt lat="49.17831" lon="-0.5005">
        <ele>80</ele>
        <time>2023-04-25T11:12:18Z</time>
      </trkpt>
      <trkpt lat="49.17828" lon="-0.50059">
        <ele>80</ele>
        <time>2023-04-25T11:12:19Z</time>
      </trkpt>
      <trkpt lat="49.17825" lon="-0.50067">
        <ele>80</ele>
        <time>2023-04-25T11:12:20Z</time>
      </trkpt>
      <trkpt lat="49.17822" lon="-0.50076">
        <ele>80</ele>
        <time>2023-04-25T11:12:21Z</time>
      </trkpt>
      <trkpt lat="49.17819" lon="-0.50085">
        <ele>79.8</ele>
        <time>2023-04-25T11:12:22Z</time>
      </trkpt>
      <trkpt lat="49.17816" lon="-0.50093">
        <ele>79.8</ele>
        <time>2023-04-25T11:12:23Z</time>
      </trkpt>
      <trkpt lat="49.17814" lon="-0.50102">
        <ele>79.8</ele>
        <time>2023-04-25T11:12:24Z</time>
      </trkpt>
      <trkpt lat="49.17811" lon="-0.50111">
        <ele>79.8</ele>
        <time>2023-04-25T11:12:25Z</time>
      </trkpt>
      <trkpt lat="49.17809" lon="-0.5012">
        <ele>79.8</ele>
        <time>2023-04-25T11:12:26Z</time>
      </trkpt>
      <trkpt lat="49.17807" lon="-0.50129">
        <ele>80</ele>
        <time>2023-04-25T11:12:27Z</time>
      </trkpt>
      <trkpt lat="49.17804" lon="-0.50138">
        <ele>80</ele>
        <time>2023-04-25T11:12:28Z</time>
      </trkpt>
      <trkpt lat="49.17803" lon="-0.50147">
        <ele>80</ele>
        <time>2023-04-25T11:12:29Z</time>
      </trkpt>
      <trkpt lat="49.17801" lon="-0.50156">
        <ele>80</ele>
        <time>2023-04-25T11:12:30Z</time>
      </trkpt>
      <trkpt lat="49.17799" lon="-0.50165">
        <ele>80</ele>
        <time>2023-04-25T11:12:31Z</time>
      </trkpt>
      <trkpt lat="49.17797" lon="-0.50174">
        <ele>80</ele>
        <time>2023-04-25T11:12:32Z</time>
      </trkpt>
      <trkpt lat="49.17795" lon="-0.50184">
        <ele>80</ele>
        <time>2023-04-25T11:12:33Z</time>
      </trkpt>
      <trkpt lat="49.17794" lon="-0.50193">
        <ele>79.8</ele>
        <time>2023-04-25T11:12:34Z</time>
      </trkpt>
      <trkpt lat="49.17792" lon="-0.50202">
        <ele>79.8</ele>
        <time>2023-04-25T11:12:35Z</time>
      </trkpt>
      <trkpt lat="49.17791" lon="-0.50212">
        <ele>79.6</ele>
        <time>2023-04-25T11:12:36Z</time>
      </trkpt>
      <trkpt lat="49.17789" lon="-0.50221">
        <ele>79.6</ele>
        <time>2023-04-25T11:12:37Z</time>
      </trkpt>
      <trkpt lat="49.17788" lon="-0.50231">
        <ele>79.6</ele>
        <time>2023-04-25T11:12:38Z</time>
      </trkpt>
      <trkpt lat="49.17786" lon="-0.5024">
        <ele>79.6</ele>
        <time>2023-04-25T11:12:39Z</time>
      </trkpt>
      <trkpt lat="49.17785" lon="-0.5025">
        <ele>79.4</ele>
        <time>2023-04-25T11:12:40Z</time>
      </trkpt>
      <trkpt lat="49.17783" lon="-0.50259">
        <ele>79.6</ele>
        <time>2023-04-25T11:12:41Z</time>
      </trkpt>
      <trkpt lat="49.17782" lon="-0.50269">
        <ele>79.6</ele>
        <time>2023-04-25T11:12:42Z</time>
      </trkpt>
      <trkpt lat="49.17781" lon="-0.50279">
        <ele>79.6</ele>
        <time>2023-04-25T11:12:43Z</time>
      </trkpt>
      <trkpt lat="49.17779" lon="-0.50288">
        <ele>79.6</ele>
        <time>2023-04-25T11:12:44Z</time>
      </trkpt>
      <trkpt lat="49.17778" lon="-0.50298">
        <ele>79.6</ele>
        <time>2023-04-25T11:12:45Z</time>
      </trkpt>
      <trkpt lat="49.17777" lon="-0.50308">
        <ele>79.8</ele>
        <time>2023-04-25T11:12:46Z</time>
      </trkpt>
      <trkpt lat="49.17775" lon="-0.50318">
        <ele>80</ele>
        <time>2023-04-25T11:12:47Z</time>
      </trkpt>
      <trkpt lat="49.17774" lon="-0.50328">
        <ele>80</ele>
        <time>2023-04-25T11:12:48Z</time>
      </trkpt>
      <trkpt lat="49.17773" lon="-0.50338">
        <ele>80</ele>
        <time>2023-04-25T11:12:49Z</time>
      </trkpt>
      <trkpt lat="49.17771" lon="-0.50349">
        <ele>80</ele>
        <time>2023-04-25T11:12:50Z</time>
      </trkpt>
      <trkpt lat="49.1777" lon="-0.50359">
        <ele>80.2</ele>
        <time>2023-04-25T11:12:51Z</time>
      </trkpt>
      <trkpt lat="49.17768" lon="-0.50369">
        <ele>80.4</ele>
        <time>2023-04-25T11:12:52Z</time>
      </trkpt>
      <trkpt lat="49.17767" lon="-0.5038">
        <ele>80.4</ele>
        <time>2023-04-25T11:12:53Z</time>
      </trkpt>
      <trkpt lat="49.17766" lon="-0.5039">
        <ele>80.6</ele>
        <time>2023-04-25T11:12:54Z</time>
      </trkpt>
      <trkpt lat="49.17764" lon="-0.50401">
        <ele>80.6</ele>
        <time>2023-04-25T11:12:55Z</time>
      </trkpt>
      <trkpt lat="49.17763" lon="-0.50412">
        <ele>80.8</ele>
        <time>2023-04-25T11:12:56Z</time>
      </trkpt>
      <trkpt lat="49.17761" lon="-0.50423">
        <ele>81</ele>
        <time>2023-04-25T11:12:57Z</time>
      </trkpt>
      <trkpt lat="49.1776" lon="-0.50433">
        <ele>81</ele>
        <time>2023-04-25T11:12:58Z</time>
      </trkpt>
      <trkpt lat="49.17758" lon="-0.50444">
        <ele>81</ele>
        <time>2023-04-25T11:12:59Z</time>
      </trkpt>
      <trkpt lat="49.17756" lon="-0.50455">
        <ele>81</ele>
        <time>2023-04-25T11:13:00Z</time>
      </trkpt>
      <trkpt lat="49.17755" lon="-0.50466">
        <ele>81</ele>
        <time>2023-04-25T11:13:01Z</time>
      </trkpt>
      <trkpt lat="49.17753" lon="-0.50477">
        <ele>81</ele>
        <time>2023-04-25T11:13:02Z</time>
      </trkpt>
      <trkpt lat="49.17752" lon="-0.50488">
        <ele>81</ele>
        <time>2023-04-25T11:13:03Z</time>
      </trkpt>
      <trkpt lat="49.1775" lon="-0.50499">
        <ele>81</ele>
        <time>2023-04-25T11:13:04Z</time>
      </trkpt>
      <trkpt lat="49.17749" lon="-0.5051">
        <ele>81</ele>
        <time>2023-04-25T11:13:05Z</time>
      </trkpt>
      <trkpt lat="49.17747" lon="-0.50522">
        <ele>81.2</ele>
        <time>2023-04-25T11:13:06Z</time>
      </trkpt>
      <trkpt lat="49.17745" lon="-0.50533">
        <ele>81.2</ele>
        <time>2023-04-25T11:13:07Z</time>
      </trkpt>
      <trkpt lat="49.17744" lon="-0.50544">
        <ele>81.4</ele>
        <time>2023-04-25T11:13:08Z</time>
      </trkpt>
      <trkpt lat="49.17742" lon="-0.50555">
        <ele>81.4</ele>
        <time>2023-04-25T11:13:09Z</time>
      </trkpt>
      <trkpt lat="49.17741" lon="-0.50566">
        <ele>81.6</ele>
        <time>2023-04-25T11:13:10Z</time>
      </trkpt>
      <trkpt lat="49.17739" lon="-0.50578">
        <ele>81.6</ele>
        <time>2023-04-25T11:13:11Z</time>
      </trkpt>
      <trkpt lat="49.17737" lon="-0.50589">
        <ele>81.6</ele>
        <time>2023-04-25T11:13:12Z</time>
      </trkpt>
      <trkpt lat="49.17735" lon="-0.50601">
        <ele>81.4</ele>
        <time>2023-04-25T11:13:13Z</time>
      </trkpt>
      <trkpt lat="49.17734" lon="-0.50612">
        <ele>81.2</ele>
        <time>2023-04-25T11:13:14Z</time>
      </trkpt>
      <trkpt lat="49.17732" lon="-0.50624">
        <ele>81</ele>
        <time>2023-04-25T11:13:15Z</time>
      </trkpt>
      <trkpt lat="49.1773" lon="-0.50636">
        <ele>80.8</ele>
        <time>2023-04-25T11:13:16Z</time>
      </trkpt>
      <trkpt lat="49.17728" lon="-0.50648">
        <ele>80.6</ele>
        <time>2023-04-25T11:13:17Z</time>
      </trkpt>
      <trkpt lat="49.17726" lon="-0.5066">
        <ele>80.4</ele>
        <time>2023-04-25T11:13:18Z</time>
      </trkpt>
      <trkpt lat="49.17724" lon="-0.50672">
        <ele>80</ele>
        <time>2023-04-25T11:13:19Z</time>
      </trkpt>
      <trkpt lat="49.17723" lon="-0.50685">
        <ele>79.6</ele>
        <time>2023-04-25T11:13:20Z</time>
      </trkpt>
      <trkpt lat="49.17721" lon="-0.50698">
        <ele>79</ele>
        <time>2023-04-25T11:13:21Z</time>
      </trkpt>
      <trkpt lat="49.17719" lon="-0.50711">
        <ele>78.6</ele>
        <time>2023-04-25T11:13:22Z</time>
      </trkpt>
      <trkpt lat="49.17717" lon="-0.50724">
        <ele>78</ele>
        <time>2023-04-25T11:13:23Z</time>
      </trkpt>
      <trkpt lat="49.17715" lon="-0.50737">
        <ele>77.4</ele>
        <time>2023-04-25T11:13:24Z</time>
      </trkpt>
      <trkpt lat="49.17712" lon="-0.50751">
        <ele>77</ele>
        <time>2023-04-25T11:13:25Z</time>
      </trkpt>
      <trkpt lat="49.1771" lon="-0.50765">
        <ele>76.4</ele>
        <time>2023-04-25T11:13:26Z</time>
      </trkpt>
      <trkpt lat="49.17708" lon="-0.50779">
        <ele>76</ele>
        <time>2023-04-25T11:13:27Z</time>
      </trkpt>
      <trkpt lat="49.17706" lon="-0.50794">
        <ele>75.4</ele>
        <time>2023-04-25T11:13:28Z</time>
      </trkpt>
      <trkpt lat="49.17704" lon="-0.5081">
        <ele>75</ele>
        <time>2023-04-25T11:13:29Z</time>
      </trkpt>
      <trkpt lat="49.17703" lon="-0.50826">
        <ele>74.4</ele>
        <time>2023-04-25T11:13:30Z</time>
      </trkpt>
      <trkpt lat="49.17701" lon="-0.50842">
        <ele>73.6</ele>
        <time>2023-04-25T11:13:31Z</time>
      </trkpt>
      <trkpt lat="49.177" lon="-0.50859">
        <ele>73.4</ele>
        <time>2023-04-25T11:13:32Z</time>
      </trkpt>
      <trkpt lat="49.177" lon="-0.50876">
        <ele>72.8</ele>
        <time>2023-04-25T11:13:33Z</time>
      </trkpt>
      <trkpt lat="49.17699" lon="-0.50894">
        <ele>72.4</ele>
        <time>2023-04-25T11:13:34Z</time>
      </trkpt>
      <trkpt lat="49.17698" lon="-0.50912">
        <ele>71.8</ele>
        <time>2023-04-25T11:13:35Z</time>
      </trkpt>
      <trkpt lat="49.17698" lon="-0.5093">
        <ele>71</ele>
        <time>2023-04-25T11:13:36Z</time>
      </trkpt>
      <trkpt lat="49.17697" lon="-0.50948">
        <ele>70.6</ele>
        <time>2023-04-25T11:13:37Z</time>
      </trkpt>
      <trkpt lat="49.17697" lon="-0.50967">
        <ele>69.8</ele>
        <time>2023-04-25T11:13:38Z</time>
      </trkpt>
      <trkpt lat="49.17697" lon="-0.50985">
        <ele>69.2</ele>
        <time>2023-04-25T11:13:39Z</time>
      </trkpt>
      <trkpt lat="49.17697" lon="-0.51003">
        <ele>68.6</ele>
        <time>2023-04-25T11:13:40Z</time>
      </trkpt>
      <trkpt lat="49.17697" lon="-0.51021">
        <ele>68.4</ele>
        <time>2023-04-25T11:13:41Z</time>
      </trkpt>
      <trkpt lat="49.17698" lon="-0.51038">
        <ele>68</ele>
        <time>2023-04-25T11:13:42Z</time>
      </trkpt>
      <trkpt lat="49.17699" lon="-0.51055">
        <ele>67.6</ele>
        <time>2023-04-25T11:13:43Z</time>
      </trkpt>
      <trkpt lat="49.177" lon="-0.51072">
        <ele>67.4</ele>
        <time>2023-04-25T11:13:44Z</time>
      </trkpt>
      <trkpt lat="49.17702" lon="-0.51089">
        <ele>67.4</ele>
        <time>2023-04-25T11:13:45Z</time>
      </trkpt>
      <trkpt lat="49.17703" lon="-0.51105">
        <ele>67.6</ele>
        <time>2023-04-25T11:13:46Z</time>
      </trkpt>
      <trkpt lat="49.17705" lon="-0.51121">
        <ele>67.6</ele>
        <time>2023-04-25T11:13:47Z</time>
      </trkpt>
      <trkpt lat="49.17707" lon="-0.51136">
        <ele>68</ele>
        <time>2023-04-25T11:13:48Z</time>
      </trkpt>
      <trkpt lat="49.17709" lon="-0.51151">
        <ele>68.2</ele>
        <time>2023-04-25T11:13:49Z</time>
      </trkpt>
      <trkpt lat="49.17711" lon="-0.51166">
        <ele>68.6</ele>
        <time>2023-04-25T11:13:50Z</time>
      </trkpt>
      <trkpt lat="49.17712" lon="-0.5118">
        <ele>69</ele>
        <time>2023-04-25T11:13:51Z</time>
      </trkpt>
      <trkpt lat="49.17714" lon="-0.51195">
        <ele>69.8</ele>
        <time>2023-04-25T11:13:52Z</time>
      </trkpt>
      <trkpt lat="49.17715" lon="-0.51208">
        <ele>70.4</ele>
        <time>2023-04-25T11:13:53Z</time>
      </trkpt>
      <trkpt lat="49.17716" lon="-0.51222">
        <ele>71</ele>
        <time>2023-04-25T11:13:54Z</time>
      </trkpt>
      <trkpt lat="49.17716" lon="-0.51236">
        <ele>71.6</ele>
        <time>2023-04-25T11:13:55Z</time>
      </trkpt>
      <trkpt lat="49.17716" lon="-0.5125">
        <ele>72.4</ele>
        <time>2023-04-25T11:13:56Z</time>
      </trkpt>
      <trkpt lat="49.17715" lon="-0.51263">
        <ele>72.4</ele>
        <time>2023-04-25T11:13:57Z</time>
      </trkpt>
      <trkpt lat="49.17715" lon="-0.51276">
        <ele>72.4</ele>
        <time>2023-04-25T11:13:58Z</time>
      </trkpt>
      <trkpt lat="49.17714" lon="-0.51289">
        <ele>72.2</ele>
        <time>2023-04-25T11:13:59Z</time>
      </trkpt>
      <trkpt lat="49.17712" lon="-0.51301">
        <ele>72.2</ele>
        <time>2023-04-25T11:14:00Z</time>
      </trkpt>
      <trkpt lat="49.17711" lon="-0.51314">
        <ele>72</ele>
        <time>2023-04-25T11:14:01Z</time>
      </trkpt>
      <trkpt lat="49.17709" lon="-0.51326">
        <ele>72</ele>
        <time>2023-04-25T11:14:02Z</time>
      </trkpt>
      <trkpt lat="49.17708" lon="-0.51338">
        <ele>72</ele>
        <time>2023-04-25T11:14:03Z</time>
      </trkpt>
      <trkpt lat="49.17706" lon="-0.5135">
        <ele>72.2</ele>
        <time>2023-04-25T11:14:04Z</time>
      </trkpt>
      <trkpt lat="49.17705" lon="-0.51361">
        <ele>72.4</ele>
        <time>2023-04-25T11:14:05Z</time>
      </trkpt>
      <trkpt lat="49.17703" lon="-0.51373">
        <ele>72.6</ele>
        <time>2023-04-25T11:14:06Z</time>
      </trkpt>
      <trkpt lat="49.17701" lon="-0.51384">
        <ele>72.6</ele>
        <time>2023-04-25T11:14:07Z</time>
      </trkpt>
      <trkpt lat="49.177" lon="-0.51395">
        <ele>72.6</ele>
        <time>2023-04-25T11:14:08Z</time>
      </trkpt>
      <trkpt lat="49.17699" lon="-0.51405">
        <ele>73</ele>
        <time>2023-04-25T11:14:09Z</time>
      </trkpt>
      <trkpt lat="49.17697" lon="-0.51416">
        <ele>73</ele>
        <time>2023-04-25T11:14:10Z</time>
      </trkpt>
      <trkpt lat="49.17696" lon="-0.51426">
        <ele>73.4</ele>
        <time>2023-04-25T11:14:11Z</time>
      </trkpt>
      <trkpt lat="49.17695" lon="-0.51436">
        <ele>73.6</ele>
        <time>2023-04-25T11:14:12Z</time>
      </trkpt>
      <trkpt lat="49.17694" lon="-0.51446">
        <ele>73.8</ele>
        <time>2023-04-25T11:14:13Z</time>
      </trkpt>
      <trkpt lat="49.17692" lon="-0.51456">
        <ele>74</ele>
        <time>2023-04-25T11:14:14Z</time>
      </trkpt>
      <trkpt lat="49.17691" lon="-0.51465">
        <ele>74.4</ele>
        <time>2023-04-25T11:14:15Z</time>
      </trkpt>
      <trkpt lat="49.1769" lon="-0.51475">
        <ele>74.6</ele>
        <time>2023-04-25T11:14:16Z</time>
      </trkpt>
      <trkpt lat="49.17689" lon="-0.51484">
        <ele>74.8</ele>
        <time>2023-04-25T11:14:17Z</time>
      </trkpt>
      <trkpt lat="49.17688" lon="-0.51493">
        <ele>75</ele>
        <time>2023-04-25T11:14:18Z</time>
      </trkpt>
      <trkpt lat="49.17687" lon="-0.51503">
        <ele>75.2</ele>
        <time>2023-04-25T11:14:19Z</time>
      </trkpt>
      <trkpt lat="49.17686" lon="-0.51512">
        <ele>75.2</ele>
        <time>2023-04-25T11:14:20Z</time>
      </trkpt>
      <trkpt lat="49.17685" lon="-0.5152">
        <ele>75.2</ele>
        <time>2023-04-25T11:14:21Z</time>
      </trkpt>
      <trkpt lat="49.17684" lon="-0.51529">
        <ele>75.2</ele>
        <time>2023-04-25T11:14:22Z</time>
      </trkpt>
      <trkpt lat="49.17683" lon="-0.51538">
        <ele>75.2</ele>
        <time>2023-04-25T11:14:23Z</time>
      </trkpt>
      <trkpt lat="49.17682" lon="-0.51547">
        <ele>75.2</ele>
        <time>2023-04-25T11:14:24Z</time>
      </trkpt>
      <trkpt lat="49.17681" lon="-0.51556">
        <ele>75.2</ele>
        <time>2023-04-25T11:14:25Z</time>
      </trkpt>
      <trkpt lat="49.17679" lon="-0.51564">
        <ele>75.2</ele>
        <time>2023-04-25T11:14:26Z</time>
      </trkpt>
      <trkpt lat="49.17678" lon="-0.51573">
        <ele>75</ele>
        <time>2023-04-25T11:14:27Z</time>
      </trkpt>
      <trkpt lat="49.17678" lon="-0.51581">
        <ele>75</ele>
        <time>2023-04-25T11:14:28Z</time>
      </trkpt>
      <trkpt lat="49.17676" lon="-0.51589">
        <ele>75.4</ele>
        <time>2023-04-25T11:14:29Z</time>
      </trkpt>
      <trkpt lat="49.17675" lon="-0.51598">
        <ele>75.6</ele>
        <time>2023-04-25T11:14:30Z</time>
      </trkpt>
      <trkpt lat="49.17675" lon="-0.51606">
        <ele>75.6</ele>
        <time>2023-04-25T11:14:31Z</time>
      </trkpt>
      <trkpt lat="49.17674" lon="-0.51615">
        <ele>75.8</ele>
        <time>2023-04-25T11:14:32Z</time>
      </trkpt>
      <trkpt lat="49.17672" lon="-0.51623">
        <ele>76</ele>
        <time>2023-04-25T11:14:33Z</time>
      </trkpt>
      <trkpt lat="49.17672" lon="-0.51631">
        <ele>76.2</ele>
        <time>2023-04-25T11:14:34Z</time>
      </trkpt>
      <trkpt lat="49.17671" lon="-0.51639">
        <ele>76.4</ele>
        <time>2023-04-25T11:14:35Z</time>
      </trkpt>
      <trkpt lat="49.17669" lon="-0.51648">
        <ele>76.6</ele>
        <time>2023-04-25T11:14:36Z</time>
      </trkpt>
      <trkpt lat="49.17668" lon="-0.51656">
        <ele>76.8</ele>
        <time>2023-04-25T11:14:37Z</time>
      </trkpt>
      <trkpt lat="49.17668" lon="-0.51664">
        <ele>77</ele>
        <time>2023-04-25T11:14:38Z</time>
      </trkpt>
      <trkpt lat="49.17667" lon="-0.51672">
        <ele>77</ele>
        <time>2023-04-25T11:14:39Z</time>
      </trkpt>
      <trkpt lat="49.17666" lon="-0.5168">
        <ele>77</ele>
        <time>2023-04-25T11:14:40Z</time>
      </trkpt>
      <trkpt lat="49.17665" lon="-0.51688">
        <ele>77.2</ele>
        <time>2023-04-25T11:14:41Z</time>
      </trkpt>
      <trkpt lat="49.17664" lon="-0.51695">
        <ele>77.4</ele>
        <time>2023-04-25T11:14:42Z</time>
      </trkpt>
      <trkpt lat="49.17663" lon="-0.51703">
        <ele>77.4</ele>
        <time>2023-04-25T11:14:43Z</time>
      </trkpt>
      <trkpt lat="49.17662" lon="-0.51711">
        <ele>77.6</ele>
        <time>2023-04-25T11:14:44Z</time>
      </trkpt>
      <trkpt lat="49.17661" lon="-0.51719">
        <ele>77.6</ele>
        <time>2023-04-25T11:14:45Z</time>
      </trkpt>
      <trkpt lat="49.1766" lon="-0.51727">
        <ele>77.6</ele>
        <time>2023-04-25T11:14:46Z</time>
      </trkpt>
      <trkpt lat="49.17659" lon="-0.51734">
        <ele>77.6</ele>
        <time>2023-04-25T11:14:47Z</time>
      </trkpt>
      <trkpt lat="49.17658" lon="-0.51742">
        <ele>77.8</ele>
        <time>2023-04-25T11:14:48Z</time>
      </trkpt>
      <trkpt lat="49.17657" lon="-0.5175">
        <ele>78</ele>
        <time>2023-04-25T11:14:49Z</time>
      </trkpt>
      <trkpt lat="49.17656" lon="-0.51758">
        <ele>78</ele>
        <time>2023-04-25T11:14:50Z</time>
      </trkpt>
      <trkpt lat="49.17655" lon="-0.51766">
        <ele>78.4</ele>
        <time>2023-04-25T11:14:51Z</time>
      </trkpt>
      <trkpt lat="49.17654" lon="-0.51774">
        <ele>78.6</ele>
        <time>2023-04-25T11:14:52Z</time>
      </trkpt>
      <trkpt lat="49.17653" lon="-0.51782">
        <ele>79</ele>
        <time>2023-04-25T11:14:53Z</time>
      </trkpt>
      <trkpt lat="49.17652" lon="-0.5179">
        <ele>79.2</ele>
        <time>2023-04-25T11:14:54Z</time>
      </trkpt>
      <trkpt lat="49.17651" lon="-0.51798">
        <ele>79.4</ele>
        <time>2023-04-25T11:14:55Z</time>
      </trkpt>
      <trkpt lat="49.1765" lon="-0.51806">
        <ele>79.6</ele>
        <time>2023-04-25T11:14:56Z</time>
      </trkpt>
      <trkpt lat="49.17649" lon="-0.51814">
        <ele>80</ele>
        <time>2023-04-25T11:14:57Z</time>
      </trkpt>
      <trkpt lat="49.17648" lon="-0.51822">
        <ele>80.2</ele>
        <time>2023-04-25T11:14:58Z</time>
      </trkpt>
      <trkpt lat="49.17647" lon="-0.5183">
        <ele>80.4</ele>
        <time>2023-04-25T11:14:59Z</time>
      </trkpt>
      <trkpt lat="49.17646" lon="-0.51838">
        <ele>80.6</ele>
        <time>2023-04-25T11:15:00Z</time>
      </trkpt>
      <trkpt lat="49.17645" lon="-0.51846">
        <ele>80.6</ele>
        <time>2023-04-25T11:15:01Z</time>
      </trkpt>
      <trkpt lat="49.17645" lon="-0.51854">
        <ele>80.8</ele>
        <time>2023-04-25T11:15:02Z</time>
      </trkpt>
      <trkpt lat="49.17644" lon="-0.51862">
        <ele>81</ele>
        <time>2023-04-25T11:15:03Z</time>
      </trkpt>
      <trkpt lat="49.17643" lon="-0.51869">
        <ele>81</ele>
        <time>2023-04-25T11:15:04Z</time>
      </trkpt>
      <trkpt lat="49.17642" lon="-0.51877">
        <ele>81</ele>
        <time>2023-04-25T11:15:05Z</time>
      </trkpt>
      <trkpt lat="49.17641" lon="-0.51885">
        <ele>81.2</ele>
        <time>2023-04-25T11:15:06Z</time>
      </trkpt>
      <trkpt lat="49.1764" lon="-0.51892">
        <ele>81.4</ele>
        <time>2023-04-25T11:15:07Z</time>
      </trkpt>
      <trkpt lat="49.17639" lon="-0.519">
        <ele>81.4</ele>
        <time>2023-04-25T11:15:08Z</time>
      </trkpt>
      <trkpt lat="49.17638" lon="-0.51908">
        <ele>81.6</ele>
        <time>2023-04-25T11:15:09Z</time>
      </trkpt>
      <trkpt lat="49.17637" lon="-0.51916">
        <ele>81.6</ele>
        <time>2023-04-25T11:15:10Z</time>
      </trkpt>
      <trkpt lat="49.17636" lon="-0.51924">
        <ele>81.6</ele>
        <time>2023-04-25T11:15:11Z</time>
      </trkpt>
      <trkpt lat="49.17636" lon="-0.51931">
        <ele>81.8</ele>
        <time>2023-04-25T11:15:12Z</time>
      </trkpt>
      <trkpt lat="49.17635" lon="-0.51939">
        <ele>82</ele>
        <time>2023-04-25T11:15:13Z</time>
      </trkpt>
      <trkpt lat="49.17634" lon="-0.51947">
        <ele>82</ele>
        <time>2023-04-25T11:15:14Z</time>
      </trkpt>
      <trkpt lat="49.17633" lon="-0.51955">
        <ele>82</ele>
        <time>2023-04-25T11:15:15Z</time>
      </trkpt>
      <trkpt lat="49.17632" lon="-0.51963">
        <ele>82</ele>
        <time>2023-04-25T11:15:16Z</time>
      </trkpt>
      <trkpt lat="49.17631" lon="-0.51971">
        <ele>82.2</ele>
        <time>2023-04-25T11:15:17Z</time>
      </trkpt>
      <trkpt lat="49.1763" lon="-0.51979">
        <ele>82.4</ele>
        <time>2023-04-25T11:15:18Z</time>
      </trkpt>
      <trkpt lat="49.17629" lon="-0.51987">
        <ele>82.4</ele>
        <time>2023-04-25T11:15:19Z</time>
      </trkpt>
      <trkpt lat="49.17628" lon="-0.51995">
        <ele>82.6</ele>
        <time>2023-04-25T11:15:20Z</time>
      </trkpt>
      <trkpt lat="49.17627" lon="-0.52003">
        <ele>82.6</ele>
        <time>2023-04-25T11:15:21Z</time>
      </trkpt>
      <trkpt lat="49.17626" lon="-0.5201">
        <ele>82.6</ele>
        <time>2023-04-25T11:15:22Z</time>
      </trkpt>
      <trkpt lat="49.17625" lon="-0.52018">
        <ele>82.6</ele>
        <time>2023-04-25T11:15:23Z</time>
      </trkpt>
      <trkpt lat="49.17624" lon="-0.52026">
        <ele>82.8</ele>
        <time>2023-04-25T11:15:24Z</time>
      </trkpt>
      <trkpt lat="49.17623" lon="-0.52033">
        <ele>83</ele>
        <time>2023-04-25T11:15:25Z</time>
      </trkpt>
      <trkpt lat="49.17622" lon="-0.52041">
        <ele>83</ele>
        <time>2023-04-25T11:15:26Z</time>
      </trkpt>
      <trkpt lat="49.17622" lon="-0.52049">
        <ele>83</ele>
        <time>2023-04-25T11:15:27Z</time>
      </trkpt>
      <trkpt lat="49.17621" lon="-0.52056">
        <ele>83</ele>
        <time>2023-04-25T11:15:28Z</time>
      </trkpt>
      <trkpt lat="49.1762" lon="-0.52064">
        <ele>83.2</ele>
        <time>2023-04-25T11:15:29Z</time>
      </trkpt>
      <trkpt lat="49.17619" lon="-0.52072">
        <ele>83.4</ele>
        <time>2023-04-25T11:15:30Z</time>
      </trkpt>
      <trkpt lat="49.17618" lon="-0.52079">
        <ele>83.4</ele>
        <time>2023-04-25T11:15:31Z</time>
      </trkpt>
      <trkpt lat="49.17617" lon="-0.52087">
        <ele>83.4</ele>
        <time>2023-04-25T11:15:32Z</time>
      </trkpt>
      <trkpt lat="49.17616" lon="-0.52094">
        <ele>83.6</ele>
        <time>2023-04-25T11:15:33Z</time>
      </trkpt>
      <trkpt lat="49.17615" lon="-0.52102">
        <ele>83.6</ele>
        <time>2023-04-25T11:15:34Z</time>
      </trkpt>
      <trkpt lat="49.17614" lon="-0.5211">
        <ele>83.6</ele>
        <time>2023-04-25T11:15:35Z</time>
      </trkpt>
      <trkpt lat="49.17613" lon="-0.52117">
        <ele>83.6</ele>
        <time>2023-04-25T11:15:36Z</time>
      </trkpt>
      <trkpt lat="49.17613" lon="-0.52124">
        <ele>83.6</ele>
        <time>2023-04-25T11:15:37Z</time>
      </trkpt>
      <trkpt lat="49.17612" lon="-0.52132">
        <ele>83.6</ele>
        <time>2023-04-25T11:15:38Z</time>
      </trkpt>
      <trkpt lat="49.17611" lon="-0.5214">
        <ele>83.8</ele>
        <time>2023-04-25T11:15:39Z</time>
      </trkpt>
      <trkpt lat="49.1761" lon="-0.52147">
        <ele>83.8</ele>
        <time>2023-04-25T11:15:40Z</time>
      </trkpt>
      <trkpt lat="49.17609" lon="-0.52155">
        <ele>84</ele>
        <time>2023-04-25T11:15:41Z</time>
      </trkpt>
      <trkpt lat="49.17608" lon="-0.52162">
        <ele>84</ele>
        <time>2023-04-25T11:15:42Z</time>
      </trkpt>
      <trkpt lat="49.17607" lon="-0.5217">
        <ele>84</ele>
        <time>2023-04-25T11:15:43Z</time>
      </trkpt>
      <trkpt lat="49.17607" lon="-0.52177">
        <ele>84</ele>
        <time>2023-04-25T11:15:44Z</time>
      </trkpt>
      <trkpt lat="49.17606" lon="-0.52185">
        <ele>84.2</ele>
        <time>2023-04-25T11:15:45Z</time>
      </trkpt>
      <trkpt lat="49.17605" lon="-0.52192">
        <ele>84.4</ele>
        <time>2023-04-25T11:15:46Z</time>
      </trkpt>
      <trkpt lat="49.17604" lon="-0.522">
        <ele>84.4</ele>
        <time>2023-04-25T11:15:47Z</time>
      </trkpt>
      <trkpt lat="49.17603" lon="-0.52207">
        <ele>84.6</ele>
        <time>2023-04-25T11:15:48Z</time>
      </trkpt>
      <trkpt lat="49.17602" lon="-0.52215">
        <ele>84.6</ele>
        <time>2023-04-25T11:15:49Z</time>
      </trkpt>
      <trkpt lat="49.17602" lon="-0.52223">
        <ele>84.6</ele>
        <time>2023-04-25T11:15:50Z</time>
      </trkpt>
      <trkpt lat="49.17601" lon="-0.5223">
        <ele>84.8</ele>
        <time>2023-04-25T11:15:51Z</time>
      </trkpt>
      <trkpt lat="49.176" lon="-0.52238">
        <ele>85</ele>
        <time>2023-04-25T11:15:52Z</time>
      </trkpt>
      <trkpt lat="49.17599" lon="-0.52246">
        <ele>85</ele>
        <time>2023-04-25T11:15:53Z</time>
      </trkpt>
      <trkpt lat="49.17598" lon="-0.52253">
        <ele>85</ele>
        <time>2023-04-25T11:15:54Z</time>
      </trkpt>
      <trkpt lat="49.17597" lon="-0.52261">
        <ele>85.2</ele>
        <time>2023-04-25T11:15:55Z</time>
      </trkpt>
      <trkpt lat="49.17596" lon="-0.52268">
        <ele>85.4</ele>
        <time>2023-04-25T11:15:56Z</time>
      </trkpt>
      <trkpt lat="49.17595" lon="-0.52276">
        <ele>85.6</ele>
        <time>2023-04-25T11:15:57Z</time>
      </trkpt>
      <trkpt lat="49.17594" lon="-0.52284">
        <ele>85.6</ele>
        <time>2023-04-25T11:15:58Z</time>
      </trkpt>
      <trkpt lat="49.17593" lon="-0.52291">
        <ele>86</ele>
        <time>2023-04-25T11:15:59Z</time>
      </trkpt>
      <trkpt lat="49.17593" lon="-0.52299">
        <ele>86</ele>
        <time>2023-04-25T11:16:00Z</time>
      </trkpt>
      <trkpt lat="49.17592" lon="-0.52306">
        <ele>86.2</ele>
        <time>2023-04-25T11:16:01Z</time>
      </trkpt>
      <trkpt lat="49.17591" lon="-0.52314">
        <ele>86.4</ele>
        <time>2023-04-25T11:16:02Z</time>
      </trkpt>
      <trkpt lat="49.1759" lon="-0.52321">
        <ele>86.6</ele>
        <time>2023-04-25T11:16:03Z</time>
      </trkpt>
      <trkpt lat="49.17589" lon="-0.52329">
        <ele>86.8</ele>
        <time>2023-04-25T11:16:04Z</time>
      </trkpt>
      <trkpt lat="49.17588" lon="-0.52337">
        <ele>87</ele>
        <time>2023-04-25T11:16:05Z</time>
      </trkpt>
      <trkpt lat="49.17587" lon="-0.52344">
        <ele>87</ele>
        <time>2023-04-25T11:16:06Z</time>
      </trkpt>
      <trkpt lat="49.17586" lon="-0.52352">
        <ele>87</ele>
        <time>2023-04-25T11:16:07Z</time>
      </trkpt>
      <trkpt lat="49.17586" lon="-0.5236">
        <ele>87</ele>
        <time>2023-04-25T11:16:08Z</time>
      </trkpt>
      <trkpt lat="49.17585" lon="-0.52367">
        <ele>87</ele>
        <time>2023-04-25T11:16:09Z</time>
      </trkpt>
      <trkpt lat="49.17584" lon="-0.52375">
        <ele>87</ele>
        <time>2023-04-25T11:16:10Z</time>
      </trkpt>
      <trkpt lat="49.17583" lon="-0.52382">
        <ele>87</ele>
        <time>2023-04-25T11:16:11Z</time>
      </trkpt>
      <trkpt lat="49.17582" lon="-0.5239">
        <ele>87</ele>
        <time>2023-04-25T11:16:12Z</time>
      </trkpt>
      <trkpt lat="49.17581" lon="-0.52398">
        <ele>87</ele>
        <time>2023-04-25T11:16:13Z</time>
      </trkpt>
      <trkpt lat="49.1758" lon="-0.52405">
        <ele>87</ele>
        <time>2023-04-25T11:16:14Z</time>
      </trkpt>
      <trkpt lat="49.17579" lon="-0.52413">
        <ele>87</ele>
        <time>2023-04-25T11:16:15Z</time>
      </trkpt>
      <trkpt lat="49.17578" lon="-0.52421">
        <ele>87</ele>
        <time>2023-04-25T11:16:16Z</time>
      </trkpt>
      <trkpt lat="49.17577" lon="-0.52428">
        <ele>87.2</ele>
        <time>2023-04-25T11:16:17Z</time>
      </trkpt>
      <trkpt lat="49.17577" lon="-0.52436">
        <ele>87.4</ele>
        <time>2023-04-25T11:16:18Z</time>
      </trkpt>
      <trkpt lat="49.17576" lon="-0.52443">
        <ele>87.4</ele>
        <time>2023-04-25T11:16:19Z</time>
      </trkpt>
      <trkpt lat="49.17575" lon="-0.52451">
        <ele>87.6</ele>
        <time>2023-04-25T11:16:20Z</time>
      </trkpt>
      <trkpt lat="49.17574" lon="-0.52458">
        <ele>87.6</ele>
        <time>2023-04-25T11:16:21Z</time>
      </trkpt>
      <trkpt lat="49.17573" lon="-0.52466">
        <ele>87.6</ele>
        <time>2023-04-25T11:16:22Z</time>
      </trkpt>
      <trkpt lat="49.17572" lon="-0.52473">
        <ele>87.6</ele>
        <time>2023-04-25T11:16:23Z</time>
      </trkpt>
      <trkpt lat="49.17571" lon="-0.52481">
        <ele>87.8</ele>
        <time>2023-04-25T11:16:24Z</time>
      </trkpt>
      <trkpt lat="49.1757" lon="-0.52488">
        <ele>88</ele>
        <time>2023-04-25T11:16:25Z</time>
      </trkpt>
      <trkpt lat="49.17569" lon="-0.52495">
        <ele>88</ele>
        <time>2023-04-25T11:16:26Z</time>
      </trkpt>
      <trkpt lat="49.17568" lon="-0.52503">
        <ele>88</ele>
        <time>2023-04-25T11:16:27Z</time>
      </trkpt>
      <trkpt lat="49.17567" lon="-0.52511">
        <ele>88.2</ele>
        <time>2023-04-25T11:16:28Z</time>
      </trkpt>
      <trkpt lat="49.17567" lon="-0.52518">
        <ele>88.4</ele>
        <time>2023-04-25T11:16:29Z</time>
      </trkpt>
      <trkpt lat="49.17566" lon="-0.52526">
        <ele>88.4</ele>
        <time>2023-04-25T11:16:30Z</time>
      </trkpt>
      <trkpt lat="49.17565" lon="-0.52534">
        <ele>88.6</ele>
        <time>2023-04-25T11:16:31Z</time>
      </trkpt>
      <trkpt lat="49.17564" lon="-0.52542">
        <ele>88.6</ele>
        <time>2023-04-25T11:16:32Z</time>
      </trkpt>
      <trkpt lat="49.17563" lon="-0.52551">
        <ele>88.8</ele>
        <time>2023-04-25T11:16:33Z</time>
      </trkpt>
      <trkpt lat="49.17562" lon="-0.52559">
        <ele>89</ele>
        <time>2023-04-25T11:16:34Z</time>
      </trkpt>
      <trkpt lat="49.17561" lon="-0.52567">
        <ele>89</ele>
        <time>2023-04-25T11:16:35Z</time>
      </trkpt>
      <trkpt lat="49.1756" lon="-0.52576">
        <ele>89.2</ele>
        <time>2023-04-25T11:16:36Z</time>
      </trkpt>
      <trkpt lat="49.17558" lon="-0.52585">
        <ele>89.4</ele>
        <time>2023-04-25T11:16:37Z</time>
      </trkpt>
      <trkpt lat="49.17557" lon="-0.52594">
        <ele>89.2</ele>
        <time>2023-04-25T11:16:38Z</time>
      </trkpt>
      <trkpt lat="49.17556" lon="-0.52602">
        <ele>89</ele>
        <time>2023-04-25T11:16:39Z</time>
      </trkpt>
      <trkpt lat="49.17555" lon="-0.52611">
        <ele>89</ele>
        <time>2023-04-25T11:16:40Z</time>
      </trkpt>
      <trkpt lat="49.17554" lon="-0.5262">
        <ele>89</ele>
        <time>2023-04-25T11:16:41Z</time>
      </trkpt>
      <trkpt lat="49.17553" lon="-0.5263">
        <ele>88.8</ele>
        <time>2023-04-25T11:16:42Z</time>
      </trkpt>
      <trkpt lat="49.17552" lon="-0.52639">
        <ele>88.6</ele>
        <time>2023-04-25T11:16:43Z</time>
      </trkpt>
      <trkpt lat="49.17551" lon="-0.52648">
        <ele>88.6</ele>
        <time>2023-04-25T11:16:44Z</time>
      </trkpt>
      <trkpt lat="49.1755" lon="-0.52657">
        <ele>88.6</ele>
        <time>2023-04-25T11:16:45Z</time>
      </trkpt>
      <trkpt lat="49.17549" lon="-0.52667">
        <ele>88.4</ele>
        <time>2023-04-25T11:16:46Z</time>
      </trkpt>
      <trkpt lat="49.17547" lon="-0.52677">
        <ele>88.4</ele>
        <time>2023-04-25T11:16:47Z</time>
      </trkpt>
      <trkpt lat="49.17546" lon="-0.52686">
        <ele>88.4</ele>
        <time>2023-04-25T11:16:48Z</time>
      </trkpt>
      <trkpt lat="49.17545" lon="-0.52696">
        <ele>88.4</ele>
        <time>2023-04-25T11:16:49Z</time>
      </trkpt>
      <trkpt lat="49.17544" lon="-0.52706">
        <ele>88.2</ele>
        <time>2023-04-25T11:16:50Z</time>
      </trkpt>
      <trkpt lat="49.17543" lon="-0.52716">
        <ele>88.2</ele>
        <time>2023-04-25T11:16:51Z</time>
      </trkpt>
      <trkpt lat="49.17541" lon="-0.52727">
        <ele>88</ele>
        <time>2023-04-25T11:16:52Z</time>
      </trkpt>
      <trkpt lat="49.1754" lon="-0.52737">
        <ele>88</ele>
        <time>2023-04-25T11:16:53Z</time>
      </trkpt>
      <trkpt lat="49.17539" lon="-0.52748">
        <ele>88</ele>
        <time>2023-04-25T11:16:54Z</time>
      </trkpt>
      <trkpt lat="49.17538" lon="-0.52758">
        <ele>88</ele>
        <time>2023-04-25T11:16:55Z</time>
      </trkpt>
      <trkpt lat="49.17537" lon="-0.52769">
        <ele>87.8</ele>
        <time>2023-04-25T11:16:56Z</time>
      </trkpt>
      <trkpt lat="49.17535" lon="-0.5278">
        <ele>87.6</ele>
        <time>2023-04-25T11:16:57Z</time>
      </trkpt>
      <trkpt lat="49.17534" lon="-0.52791">
        <ele>87.6</ele>
        <time>2023-04-25T11:16:58Z</time>
      </trkpt>
      <trkpt lat="49.17533" lon="-0.52802">
        <ele>87.4</ele>
        <time>2023-04-25T11:16:59Z</time>
      </trkpt>
      <trkpt lat="49.17531" lon="-0.52813">
        <ele>87.2</ele>
        <time>2023-04-25T11:17:00Z</time>
      </trkpt>
      <trkpt lat="49.1753" lon="-0.52824">
        <ele>87</ele>
        <time>2023-04-25T11:17:01Z</time>
      </trkpt>
      <trkpt lat="49.17528" lon="-0.52836">
        <ele>87</ele>
        <time>2023-04-25T11:17:02Z</time>
      </trkpt>
      <trkpt lat="49.17527" lon="-0.52847">
        <ele>87</ele>
        <time>2023-04-25T11:17:03Z</time>
      </trkpt>
      <trkpt lat="49.17526" lon="-0.52859">
        <ele>86.8</ele>
        <time>2023-04-25T11:17:04Z</time>
      </trkpt>
      <trkpt lat="49.17524" lon="-0.52871">
        <ele>86.6</ele>
        <time>2023-04-25T11:17:05Z</time>
      </trkpt>
      <trkpt lat="49.17523" lon="-0.52883">
        <ele>86.6</ele>
        <time>2023-04-25T11:17:06Z</time>
      </trkpt>
      <trkpt lat="49.17521" lon="-0.52895">
        <ele>86.6</ele>
        <time>2023-04-25T11:17:07Z</time>
      </trkpt>
      <trkpt lat="49.1752" lon="-0.52907">
        <ele>86.4</ele>
        <time>2023-04-25T11:17:08Z</time>
      </trkpt>
      <trkpt lat="49.17519" lon="-0.52919">
        <ele>86.4</ele>
        <time>2023-04-25T11:17:09Z</time>
      </trkpt>
      <trkpt lat="49.17517" lon="-0.52931">
        <ele>86.6</ele>
        <time>2023-04-25T11:17:10Z</time>
      </trkpt>
      <trkpt lat="49.17516" lon="-0.52943">
        <ele>86.6</ele>
        <time>2023-04-25T11:17:11Z</time>
      </trkpt>
      <trkpt lat="49.17514" lon="-0.52956">
        <ele>86.8</ele>
        <time>2023-04-25T11:17:12Z</time>
      </trkpt>
      <trkpt lat="49.17513" lon="-0.52968">
        <ele>87</ele>
        <time>2023-04-25T11:17:13Z</time>
      </trkpt>
      <trkpt lat="49.17511" lon="-0.52981">
        <ele>87.2</ele>
        <time>2023-04-25T11:17:14Z</time>
      </trkpt>
      <trkpt lat="49.1751" lon="-0.52994">
        <ele>87.4</ele>
        <time>2023-04-25T11:17:15Z</time>
      </trkpt>
      <trkpt lat="49.17508" lon="-0.53007">
        <ele>87.4</ele>
        <time>2023-04-25T11:17:16Z</time>
      </trkpt>
      <trkpt lat="49.17507" lon="-0.5302">
        <ele>87</ele>
        <time>2023-04-25T11:17:17Z</time>
      </trkpt>
      <trkpt lat="49.17505" lon="-0.53033">
        <ele>86.6</ele>
        <time>2023-04-25T11:17:18Z</time>
      </trkpt>
      <trkpt lat="49.17503" lon="-0.53046">
        <ele>86.2</ele>
        <time>2023-04-25T11:17:19Z</time>
      </trkpt>
      <trkpt lat="49.17502" lon="-0.5306">
        <ele>85.8</ele>
        <time>2023-04-25T11:17:20Z</time>
      </trkpt>
      <trkpt lat="49.175" lon="-0.53073">
        <ele>85.4</ele>
        <time>2023-04-25T11:17:21Z</time>
      </trkpt>
      <trkpt lat="49.17498" lon="-0.53087">
        <ele>85</ele>
        <time>2023-04-25T11:17:22Z</time>
      </trkpt>
      <trkpt lat="49.17497" lon="-0.531">
        <ele>84.6</ele>
        <time>2023-04-25T11:17:23Z</time>
      </trkpt>
      <trkpt lat="49.17495" lon="-0.53114">
        <ele>84.6</ele>
        <time>2023-04-25T11:17:24Z</time>
      </trkpt>
      <trkpt lat="49.17494" lon="-0.53128">
        <ele>84.2</ele>
        <time>2023-04-25T11:17:25Z</time>
      </trkpt>
      <trkpt lat="49.17492" lon="-0.53142">
        <ele>84</ele>
        <time>2023-04-25T11:17:26Z</time>
      </trkpt>
      <trkpt lat="49.1749" lon="-0.53155">
        <ele>83.6</ele>
        <time>2023-04-25T11:17:27Z</time>
      </trkpt>
      <trkpt lat="49.17488" lon="-0.53169">
        <ele>83.6</ele>
        <time>2023-04-25T11:17:28Z</time>
      </trkpt>
      <trkpt lat="49.17487" lon="-0.53183">
        <ele>83.6</ele>
        <time>2023-04-25T11:17:29Z</time>
      </trkpt>
      <trkpt lat="49.17485" lon="-0.53197">
        <ele>83.4</ele>
        <time>2023-04-25T11:17:30Z</time>
      </trkpt>
      <trkpt lat="49.17484" lon="-0.53211">
        <ele>83.4</ele>
        <time>2023-04-25T11:17:31Z</time>
      </trkpt>
      <trkpt lat="49.17482" lon="-0.53225">
        <ele>83.4</ele>
        <time>2023-04-25T11:17:32Z</time>
      </trkpt>
      <trkpt lat="49.1748" lon="-0.53238">
        <ele>83.4</ele>
        <time>2023-04-25T11:17:33Z</time>
      </trkpt>
      <trkpt lat="49.17478" lon="-0.53253">
        <ele>83.4</ele>
        <time>2023-04-25T11:17:34Z</time>
      </trkpt>
      <trkpt lat="49.17477" lon="-0.53266">
        <ele>83.4</ele>
        <time>2023-04-25T11:17:35Z</time>
      </trkpt>
      <trkpt lat="49.17475" lon="-0.5328">
        <ele>83.4</ele>
        <time>2023-04-25T11:17:36Z</time>
      </trkpt>
      <trkpt lat="49.17473" lon="-0.53294">
        <ele>83.4</ele>
        <time>2023-04-25T11:17:37Z</time>
      </trkpt>
      <trkpt lat="49.17472" lon="-0.53308">
        <ele>83.6</ele>
        <time>2023-04-25T11:17:38Z</time>
      </trkpt>
      <trkpt lat="49.1747" lon="-0.53322">
        <ele>83.6</ele>
        <time>2023-04-25T11:17:39Z</time>
      </trkpt>
      <trkpt lat="49.17468" lon="-0.53336">
        <ele>83.6</ele>
        <time>2023-04-25T11:17:40Z</time>
      </trkpt>
      <trkpt lat="49.17467" lon="-0.5335">
        <ele>83.4</ele>
        <time>2023-04-25T11:17:41Z</time>
      </trkpt>
      <trkpt lat="49.17465" lon="-0.53364">
        <ele>83</ele>
        <time>2023-04-25T11:17:42Z</time>
      </trkpt>
      <trkpt lat="49.17463" lon="-0.53378">
        <ele>83</ele>
        <time>2023-04-25T11:17:43Z</time>
      </trkpt>
      <trkpt lat="49.17462" lon="-0.53392">
        <ele>82.8</ele>
        <time>2023-04-25T11:17:44Z</time>
      </trkpt>
      <trkpt lat="49.1746" lon="-0.53407">
        <ele>82.6</ele>
        <time>2023-04-25T11:17:45Z</time>
      </trkpt>
      <trkpt lat="49.17458" lon="-0.53421">
        <ele>82.4</ele>
        <time>2023-04-25T11:17:46Z</time>
      </trkpt>
      <trkpt lat="49.17457" lon="-0.53435">
        <ele>82.2</ele>
        <time>2023-04-25T11:17:47Z</time>
      </trkpt>
      <trkpt lat="49.17455" lon="-0.53449">
        <ele>82</ele>
        <time>2023-04-25T11:17:48Z</time>
      </trkpt>
      <trkpt lat="49.17454" lon="-0.53463">
        <ele>81.8</ele>
        <time>2023-04-25T11:17:49Z</time>
      </trkpt>
      <trkpt lat="49.17452" lon="-0.53477">
        <ele>81.6</ele>
        <time>2023-04-25T11:17:50Z</time>
      </trkpt>
      <trkpt lat="49.1745" lon="-0.53491">
        <ele>81.4</ele>
        <time>2023-04-25T11:17:51Z</time>
      </trkpt>
      <trkpt lat="49.17449" lon="-0.53505">
        <ele>81.2</ele>
        <time>2023-04-25T11:17:52Z</time>
      </trkpt>
      <trkpt lat="49.17447" lon="-0.53519">
        <ele>81</ele>
        <time>2023-04-25T11:17:53Z</time>
      </trkpt>
      <trkpt lat="49.17445" lon="-0.53532">
        <ele>81</ele>
        <time>2023-04-25T11:17:54Z</time>
      </trkpt>
      <trkpt lat="49.17444" lon="-0.53546">
        <ele>80.8</ele>
        <time>2023-04-25T11:17:55Z</time>
      </trkpt>
      <trkpt lat="49.17442" lon="-0.5356">
        <ele>80.6</ele>
        <time>2023-04-25T11:17:56Z</time>
      </trkpt>
      <trkpt lat="49.1744" lon="-0.53573">
        <ele>80.6</ele>
        <time>2023-04-25T11:17:57Z</time>
      </trkpt>
      <trkpt lat="49.17439" lon="-0.53587">
        <ele>80.6</ele>
        <time>2023-04-25T11:17:58Z</time>
      </trkpt>
      <trkpt lat="49.17437" lon="-0.536">
        <ele>80.6</ele>
        <time>2023-04-25T11:17:59Z</time>
      </trkpt>
      <trkpt lat="49.17435" lon="-0.53614">
        <ele>80.6</ele>
        <time>2023-04-25T11:18:00Z</time>
      </trkpt>
      <trkpt lat="49.17434" lon="-0.53627">
        <ele>80.6</ele>
        <time>2023-04-25T11:18:01Z</time>
      </trkpt>
      <trkpt lat="49.17432" lon="-0.5364">
        <ele>80.6</ele>
        <time>2023-04-25T11:18:02Z</time>
      </trkpt>
      <trkpt lat="49.17431" lon="-0.53654">
        <ele>80.6</ele>
        <time>2023-04-25T11:18:03Z</time>
      </trkpt>
      <trkpt lat="49.17429" lon="-0.53667">
        <ele>80.6</ele>
        <time>2023-04-25T11:18:04Z</time>
      </trkpt>
      <trkpt lat="49.17428" lon="-0.5368">
        <ele>80.6</ele>
        <time>2023-04-25T11:18:05Z</time>
      </trkpt>
      <trkpt lat="49.17426" lon="-0.53693">
        <ele>80.4</ele>
        <time>2023-04-25T11:18:06Z</time>
      </trkpt>
      <trkpt lat="49.17424" lon="-0.53706">
        <ele>80.4</ele>
        <time>2023-04-25T11:18:07Z</time>
      </trkpt>
      <trkpt lat="49.17423" lon="-0.53719">
        <ele>80.2</ele>
        <time>2023-04-25T11:18:08Z</time>
      </trkpt>
      <trkpt lat="49.17421" lon="-0.53732">
        <ele>80</ele>
        <time>2023-04-25T11:18:09Z</time>
      </trkpt>
      <trkpt lat="49.17419" lon="-0.53744">
        <ele>80</ele>
        <time>2023-04-25T11:18:10Z</time>
      </trkpt>
      <trkpt lat="49.17418" lon="-0.53757">
        <ele>80</ele>
        <time>2023-04-25T11:18:11Z</time>
      </trkpt>
      <trkpt lat="49.17416" lon="-0.5377">
        <ele>80</ele>
        <time>2023-04-25T11:18:12Z</time>
      </trkpt>
      <trkpt lat="49.17415" lon="-0.53783">
        <ele>80</ele>
        <time>2023-04-25T11:18:13Z</time>
      </trkpt>
      <trkpt lat="49.17413" lon="-0.53796">
        <ele>80</ele>
        <time>2023-04-25T11:18:14Z</time>
      </trkpt>
      <trkpt lat="49.17412" lon="-0.53809">
        <ele>80.2</ele>
        <time>2023-04-25T11:18:15Z</time>
      </trkpt>
      <trkpt lat="49.1741" lon="-0.53822">
        <ele>80.2</ele>
        <time>2023-04-25T11:18:16Z</time>
      </trkpt>
      <trkpt lat="49.17409" lon="-0.53835">
        <ele>80.4</ele>
        <time>2023-04-25T11:18:17Z</time>
      </trkpt>
      <trkpt lat="49.17407" lon="-0.53848">
        <ele>80.4</ele>
        <time>2023-04-25T11:18:18Z</time>
      </trkpt>
      <trkpt lat="49.17405" lon="-0.53861">
        <ele>80.4</ele>
        <time>2023-04-25T11:18:19Z</time>
      </trkpt>
      <trkpt lat="49.17404" lon="-0.53874">
        <ele>80.4</ele>
        <time>2023-04-25T11:18:20Z</time>
      </trkpt>
      <trkpt lat="49.17402" lon="-0.53888">
        <ele>80.4</ele>
        <time>2023-04-25T11:18:21Z</time>
      </trkpt>
      <trkpt lat="49.17401" lon="-0.53901">
        <ele>80.4</ele>
        <time>2023-04-25T11:18:22Z</time>
      </trkpt>
      <trkpt lat="49.17399" lon="-0.53915">
        <ele>80.4</ele>
        <time>2023-04-25T11:18:23Z</time>
      </trkpt>
      <trkpt lat="49.17397" lon="-0.53928">
        <ele>80.2</ele>
        <time>2023-04-25T11:18:24Z</time>
      </trkpt>
      <trkpt lat="49.17396" lon="-0.53942">
        <ele>79.8</ele>
        <time>2023-04-25T11:18:25Z</time>
      </trkpt>
      <trkpt lat="49.17394" lon="-0.53955">
        <ele>79.6</ele>
        <time>2023-04-25T11:18:26Z</time>
      </trkpt>
      <trkpt lat="49.17393" lon="-0.53969">
        <ele>79.2</ele>
        <time>2023-04-25T11:18:27Z</time>
      </trkpt>
      <trkpt lat="49.17391" lon="-0.53982">
        <ele>78.8</ele>
        <time>2023-04-25T11:18:28Z</time>
      </trkpt>
      <trkpt lat="49.17389" lon="-0.53996">
        <ele>78.4</ele>
        <time>2023-04-25T11:18:29Z</time>
      </trkpt>
      <trkpt lat="49.17387" lon="-0.5401">
        <ele>78.2</ele>
        <time>2023-04-25T11:18:30Z</time>
      </trkpt>
      <trkpt lat="49.17386" lon="-0.54024">
        <ele>78</ele>
        <time>2023-04-25T11:18:31Z</time>
      </trkpt>
      <trkpt lat="49.17384" lon="-0.54038">
        <ele>77.8</ele>
        <time>2023-04-25T11:18:32Z</time>
      </trkpt>
      <trkpt lat="49.17382" lon="-0.54051">
        <ele>77.6</ele>
        <time>2023-04-25T11:18:33Z</time>
      </trkpt>
      <trkpt lat="49.17381" lon="-0.54066">
        <ele>77.6</ele>
        <time>2023-04-25T11:18:34Z</time>
      </trkpt>
      <trkpt lat="49.17379" lon="-0.5408">
        <ele>77.4</ele>
        <time>2023-04-25T11:18:35Z</time>
      </trkpt>
      <trkpt lat="49.17377" lon="-0.54094">
        <ele>77.4</ele>
        <time>2023-04-25T11:18:36Z</time>
      </trkpt>
      <trkpt lat="49.17376" lon="-0.54108">
        <ele>77.4</ele>
        <time>2023-04-25T11:18:37Z</time>
      </trkpt>
      <trkpt lat="49.17374" lon="-0.54122">
        <ele>77.4</ele>
        <time>2023-04-25T11:18:38Z</time>
      </trkpt>
      <trkpt lat="49.17372" lon="-0.54136">
        <ele>77.4</ele>
        <time>2023-04-25T11:18:39Z</time>
      </trkpt>
      <trkpt lat="49.17371" lon="-0.54151">
        <ele>77.4</ele>
        <time>2023-04-25T11:18:40Z</time>
      </trkpt>
      <trkpt lat="49.17369" lon="-0.54165">
        <ele>77.4</ele>
        <time>2023-04-25T11:18:41Z</time>
      </trkpt>
      <trkpt lat="49.17367" lon="-0.54179">
        <ele>77.4</ele>
        <time>2023-04-25T11:18:42Z</time>
      </trkpt>
      <trkpt lat="49.17366" lon="-0.54193">
        <ele>77.4</ele>
        <time>2023-04-25T11:18:43Z</time>
      </trkpt>
      <trkpt lat="49.17364" lon="-0.54208">
        <ele>77.2</ele>
        <time>2023-04-25T11:18:44Z</time>
      </trkpt>
      <trkpt lat="49.17362" lon="-0.54222">
        <ele>77.2</ele>
        <time>2023-04-25T11:18:45Z</time>
      </trkpt>
      <trkpt lat="49.1736" lon="-0.54236">
        <ele>77</ele>
        <time>2023-04-25T11:18:46Z</time>
      </trkpt>
      <trkpt lat="49.17359" lon="-0.5425">
        <ele>77</ele>
        <time>2023-04-25T11:18:47Z</time>
      </trkpt>
      <trkpt lat="49.17357" lon="-0.54264">
        <ele>77.2</ele>
        <time>2023-04-25T11:18:48Z</time>
      </trkpt>
      <trkpt lat="49.17355" lon="-0.54278">
        <ele>77.4</ele>
        <time>2023-04-25T11:18:49Z</time>
      </trkpt>
      <trkpt lat="49.17354" lon="-0.54291">
        <ele>77.4</ele>
        <time>2023-04-25T11:18:50Z</time>
      </trkpt>
      <trkpt lat="49.17352" lon="-0.54305">
        <ele>77.6</ele>
        <time>2023-04-25T11:18:51Z</time>
      </trkpt>
      <trkpt lat="49.17351" lon="-0.54318">
        <ele>77.6</ele>
        <time>2023-04-25T11:18:52Z</time>
      </trkpt>
      <trkpt lat="49.17349" lon="-0.54331">
        <ele>77.6</ele>
        <time>2023-04-25T11:18:53Z</time>
      </trkpt>
      <trkpt lat="49.17348" lon="-0.54343">
        <ele>77.8</ele>
        <time>2023-04-25T11:18:54Z</time>
      </trkpt>
      <trkpt lat="49.17346" lon="-0.54356">
        <ele>78</ele>
        <time>2023-04-25T11:18:55Z</time>
      </trkpt>
      <trkpt lat="49.17345" lon="-0.54369">
        <ele>78.2</ele>
        <time>2023-04-25T11:18:56Z</time>
      </trkpt>
      <trkpt lat="49.17343" lon="-0.54381">
        <ele>78.4</ele>
        <time>2023-04-25T11:18:57Z</time>
      </trkpt>
      <trkpt lat="49.17342" lon="-0.54393">
        <ele>78.6</ele>
        <time>2023-04-25T11:18:58Z</time>
      </trkpt>
      <trkpt lat="49.1734" lon="-0.54405">
        <ele>78.8</ele>
        <time>2023-04-25T11:18:59Z</time>
      </trkpt>
      <trkpt lat="49.17339" lon="-0.54417">
        <ele>79</ele>
        <time>2023-04-25T11:19:00Z</time>
      </trkpt>
      <trkpt lat="49.17337" lon="-0.54429">
        <ele>79</ele>
        <time>2023-04-25T11:19:01Z</time>
      </trkpt>
      <trkpt lat="49.17336" lon="-0.54441">
        <ele>79.4</ele>
        <time>2023-04-25T11:19:02Z</time>
      </trkpt>
      <trkpt lat="49.17334" lon="-0.54452">
        <ele>79.4</ele>
        <time>2023-04-25T11:19:03Z</time>
      </trkpt>
      <trkpt lat="49.17333" lon="-0.54464">
        <ele>79.6</ele>
        <time>2023-04-25T11:19:04Z</time>
      </trkpt>
      <trkpt lat="49.17332" lon="-0.54475">
        <ele>79.6</ele>
        <time>2023-04-25T11:19:05Z</time>
      </trkpt>
      <trkpt lat="49.1733" lon="-0.54486">
        <ele>79.8</ele>
        <time>2023-04-25T11:19:06Z</time>
      </trkpt>
      <trkpt lat="49.17329" lon="-0.54497">
        <ele>80</ele>
        <time>2023-04-25T11:19:07Z</time>
      </trkpt>
      <trkpt lat="49.17328" lon="-0.54508">
        <ele>80</ele>
        <time>2023-04-25T11:19:08Z</time>
      </trkpt>
      <trkpt lat="49.17327" lon="-0.54519">
        <ele>80</ele>
        <time>2023-04-25T11:19:09Z</time>
      </trkpt>
      <trkpt lat="49.17325" lon="-0.5453">
        <ele>80</ele>
        <time>2023-04-25T11:19:10Z</time>
      </trkpt>
      <trkpt lat="49.17324" lon="-0.54541">
        <ele>80.2</ele>
        <time>2023-04-25T11:19:11Z</time>
      </trkpt>
      <trkpt lat="49.17323" lon="-0.54551">
        <ele>80.4</ele>
        <time>2023-04-25T11:19:12Z</time>
      </trkpt>
      <trkpt lat="49.17321" lon="-0.54562">
        <ele>80.4</ele>
        <time>2023-04-25T11:19:13Z</time>
      </trkpt>
      <trkpt lat="49.1732" lon="-0.54572">
        <ele>80.4</ele>
        <time>2023-04-25T11:19:14Z</time>
      </trkpt>
      <trkpt lat="49.17319" lon="-0.54583">
        <ele>80.6</ele>
        <time>2023-04-25T11:19:15Z</time>
      </trkpt>
      <trkpt lat="49.17318" lon="-0.54593">
        <ele>80.6</ele>
        <time>2023-04-25T11:19:16Z</time>
      </trkpt>
      <trkpt lat="49.17317" lon="-0.54603">
        <ele>80.6</ele>
        <time>2023-04-25T11:19:17Z</time>
      </trkpt>
      <trkpt lat="49.17315" lon="-0.54613">
        <ele>81</ele>
        <time>2023-04-25T11:19:18Z</time>
      </trkpt>
      <trkpt lat="49.17314" lon="-0.54623">
        <ele>81</ele>
        <time>2023-04-25T11:19:19Z</time>
      </trkpt>
      <trkpt lat="49.17313" lon="-0.54633">
        <ele>81.2</ele>
        <time>2023-04-25T11:19:20Z</time>
      </trkpt>
      <trkpt lat="49.17312" lon="-0.54643">
        <ele>81.4</ele>
        <time>2023-04-25T11:19:21Z</time>
      </trkpt>
      <trkpt lat="49.1731" lon="-0.54654">
        <ele>81.6</ele>
        <time>2023-04-25T11:19:22Z</time>
      </trkpt>
      <trkpt lat="49.17309" lon="-0.54664">
        <ele>81.6</ele>
        <time>2023-04-25T11:19:23Z</time>
      </trkpt>
      <trkpt lat="49.17308" lon="-0.54673">
        <ele>81.6</ele>
        <time>2023-04-25T11:19:24Z</time>
      </trkpt>
      <trkpt lat="49.17307" lon="-0.54683">
        <ele>81.6</ele>
        <time>2023-04-25T11:19:25Z</time>
      </trkpt>
      <trkpt lat="49.17306" lon="-0.54693">
        <ele>81.6</ele>
        <time>2023-04-25T11:19:26Z</time>
      </trkpt>
      <trkpt lat="49.17304" lon="-0.54703">
        <ele>81.6</ele>
        <time>2023-04-25T11:19:27Z</time>
      </trkpt>
      <trkpt lat="49.17303" lon="-0.54713">
        <ele>81.6</ele>
        <time>2023-04-25T11:19:28Z</time>
      </trkpt>
      <trkpt lat="49.17302" lon="-0.54722">
        <ele>81.6</ele>
        <time>2023-04-25T11:19:29Z</time>
      </trkpt>
      <trkpt lat="49.17301" lon="-0.54732">
        <ele>81.6</ele>
        <time>2023-04-25T11:19:30Z</time>
      </trkpt>
      <trkpt lat="49.173" lon="-0.54741">
        <ele>81.6</ele>
        <time>2023-04-25T11:19:31Z</time>
      </trkpt>
      <trkpt lat="49.17299" lon="-0.54751">
        <ele>81.6</ele>
        <time>2023-04-25T11:19:32Z</time>
      </trkpt>
      <trkpt lat="49.17298" lon="-0.5476">
        <ele>81.8</ele>
        <time>2023-04-25T11:19:33Z</time>
      </trkpt>
      <trkpt lat="49.17296" lon="-0.5477">
        <ele>82</ele>
        <time>2023-04-25T11:19:34Z</time>
      </trkpt>
      <trkpt lat="49.17295" lon="-0.54779">
        <ele>82</ele>
        <time>2023-04-25T11:19:35Z</time>
      </trkpt>
      <trkpt lat="49.17294" lon="-0.54789">
        <ele>82.2</ele>
        <time>2023-04-25T11:19:36Z</time>
      </trkpt>
      <trkpt lat="49.17293" lon="-0.54798">
        <ele>82.4</ele>
        <time>2023-04-25T11:19:37Z</time>
      </trkpt>
      <trkpt lat="49.17292" lon="-0.54807">
        <ele>82.6</ele>
        <time>2023-04-25T11:19:38Z</time>
      </trkpt>
      <trkpt lat="49.17291" lon="-0.54816">
        <ele>82.6</ele>
        <time>2023-04-25T11:19:39Z</time>
      </trkpt>
      <trkpt lat="49.1729" lon="-0.54826">
        <ele>83</ele>
        <time>2023-04-25T11:19:40Z</time>
      </trkpt>
      <trkpt lat="49.17289" lon="-0.54835">
        <ele>83</ele>
        <time>2023-04-25T11:19:41Z</time>
      </trkpt>
      <trkpt lat="49.17288" lon="-0.54844">
        <ele>83</ele>
        <time>2023-04-25T11:19:42Z</time>
      </trkpt>
      <trkpt lat="49.17287" lon="-0.54853">
        <ele>83.2</ele>
        <time>2023-04-25T11:19:43Z</time>
      </trkpt>
      <trkpt lat="49.17285" lon="-0.54862">
        <ele>83.4</ele>
        <time>2023-04-25T11:19:44Z</time>
      </trkpt>
      <trkpt lat="49.17284" lon="-0.54871">
        <ele>83.4</ele>
        <time>2023-04-25T11:19:45Z</time>
      </trkpt>
      <trkpt lat="49.17283" lon="-0.5488">
        <ele>83.6</ele>
        <time>2023-04-25T11:19:46Z</time>
      </trkpt>
      <trkpt lat="49.17282" lon="-0.54889">
        <ele>83.6</ele>
        <time>2023-04-25T11:19:47Z</time>
      </trkpt>
      <trkpt lat="49.17281" lon="-0.54898">
        <ele>83.6</ele>
        <time>2023-04-25T11:19:48Z</time>
      </trkpt>
      <trkpt lat="49.1728" lon="-0.54907">
        <ele>83.6</ele>
        <time>2023-04-25T11:19:49Z</time>
      </trkpt>
      <trkpt lat="49.17279" lon="-0.54916">
        <ele>83.6</ele>
        <time>2023-04-25T11:19:50Z</time>
      </trkpt>
      <trkpt lat="49.17278" lon="-0.54925">
        <ele>83.8</ele>
        <time>2023-04-25T11:19:51Z</time>
      </trkpt>
      <trkpt lat="49.17277" lon="-0.54934">
        <ele>84</ele>
        <time>2023-04-25T11:19:52Z</time>
      </trkpt>
      <trkpt lat="49.17276" lon="-0.54943">
        <ele>84</ele>
        <time>2023-04-25T11:19:53Z</time>
      </trkpt>
      <trkpt lat="49.17275" lon="-0.54951">
        <ele>84</ele>
        <time>2023-04-25T11:19:54Z</time>
      </trkpt>
      <trkpt lat="49.17274" lon="-0.5496">
        <ele>84</ele>
        <time>2023-04-25T11:19:55Z</time>
      </trkpt>
      <trkpt lat="49.17273" lon="-0.54969">
        <ele>84.2</ele>
        <time>2023-04-25T11:19:56Z</time>
      </trkpt>
      <trkpt lat="49.17272" lon="-0.54978">
        <ele>84.4</ele>
        <time>2023-04-25T11:19:57Z</time>
      </trkpt>
      <trkpt lat="49.17271" lon="-0.54987">
        <ele>84.4</ele>
        <time>2023-04-25T11:19:58Z</time>
      </trkpt>
      <trkpt lat="49.1727" lon="-0.54996">
        <ele>84.4</ele>
        <time>2023-04-25T11:19:59Z</time>
      </trkpt>
      <trkpt lat="49.17268" lon="-0.55005">
        <ele>84.6</ele>
        <time>2023-04-25T11:20:00Z</time>
      </trkpt>
      <trkpt lat="49.17268" lon="-0.55013">
        <ele>84.6</ele>
        <time>2023-04-25T11:20:01Z</time>
      </trkpt>
      <trkpt lat="49.17266" lon="-0.55022">
        <ele>84.6</ele>
        <time>2023-04-25T11:20:02Z</time>
      </trkpt>
      <trkpt lat="49.17265" lon="-0.55031">
        <ele>84.6</ele>
        <time>2023-04-25T11:20:03Z</time>
      </trkpt>
      <trkpt lat="49.17264" lon="-0.5504">
        <ele>84.6</ele>
        <time>2023-04-25T11:20:04Z</time>
      </trkpt>
      <trkpt lat="49.17263" lon="-0.55049">
        <ele>84.8</ele>
        <time>2023-04-25T11:20:05Z</time>
      </trkpt>
      <trkpt lat="49.17262" lon="-0.55058">
        <ele>85</ele>
        <time>2023-04-25T11:20:06Z</time>
      </trkpt>
      <trkpt lat="49.17261" lon="-0.55066">
        <ele>85</ele>
        <time>2023-04-25T11:20:07Z</time>
      </trkpt>
      <trkpt lat="49.1726" lon="-0.55075">
        <ele>85</ele>
        <time>2023-04-25T11:20:08Z</time>
      </trkpt>
      <trkpt lat="49.17259" lon="-0.55084">
        <ele>85</ele>
        <time>2023-04-25T11:20:09Z</time>
      </trkpt>
      <trkpt lat="49.17258" lon="-0.55093">
        <ele>85.4</ele>
        <time>2023-04-25T11:20:10Z</time>
      </trkpt>
      <trkpt lat="49.17257" lon="-0.55101">
        <ele>85.6</ele>
        <time>2023-04-25T11:20:11Z</time>
      </trkpt>
      <trkpt lat="49.17256" lon="-0.5511">
        <ele>85.6</ele>
        <time>2023-04-25T11:20:12Z</time>
      </trkpt>
      <trkpt lat="49.17255" lon="-0.55119">
        <ele>86</ele>
        <time>2023-04-25T11:20:13Z</time>
      </trkpt>
      <trkpt lat="49.17253" lon="-0.55128">
        <ele>86</ele>
        <time>2023-04-25T11:20:14Z</time>
      </trkpt>
      <trkpt lat="49.17252" lon="-0.55136">
        <ele>86.4</ele>
        <time>2023-04-25T11:20:15Z</time>
      </trkpt>
      <trkpt lat="49.17251" lon="-0.55145">
        <ele>86.6</ele>
        <time>2023-04-25T11:20:16Z</time>
      </trkpt>
      <trkpt lat="49.1725" lon="-0.55154">
        <ele>86.6</ele>
        <time>2023-04-25T11:20:17Z</time>
      </trkpt>
      <trkpt lat="49.17249" lon="-0.55162">
        <ele>87</ele>
        <time>2023-04-25T11:20:18Z</time>
      </trkpt>
      <trkpt lat="49.17248" lon="-0.55171">
        <ele>87</ele>
        <time>2023-04-25T11:20:19Z</time>
      </trkpt>
      <trkpt lat="49.17247" lon="-0.5518">
        <ele>87</ele>
        <time>2023-04-25T11:20:20Z</time>
      </trkpt>
      <trkpt lat="49.17246" lon="-0.55189">
        <ele>87.2</ele>
        <time>2023-04-25T11:20:21Z</time>
      </trkpt>
      <trkpt lat="49.17245" lon="-0.55198">
        <ele>87.4</ele>
        <time>2023-04-25T11:20:22Z</time>
      </trkpt>
      <trkpt lat="49.17244" lon="-0.55206">
        <ele>87.4</ele>
        <time>2023-04-25T11:20:23Z</time>
      </trkpt>
      <trkpt lat="49.17243" lon="-0.55215">
        <ele>87.6</ele>
        <time>2023-04-25T11:20:24Z</time>
      </trkpt>
      <trkpt lat="49.17242" lon="-0.55224">
        <ele>87.6</ele>
        <time>2023-04-25T11:20:25Z</time>
      </trkpt>
      <trkpt lat="49.17241" lon="-0.55233">
        <ele>87.6</ele>
        <time>2023-04-25T11:20:26Z</time>
      </trkpt>
      <trkpt lat="49.17239" lon="-0.55241">
        <ele>87.8</ele>
        <time>2023-04-25T11:20:27Z</time>
      </trkpt>
      <trkpt lat="49.17238" lon="-0.5525">
        <ele>88</ele>
        <time>2023-04-25T11:20:28Z</time>
      </trkpt>
      <trkpt lat="49.17237" lon="-0.55259">
        <ele>88</ele>
        <time>2023-04-25T11:20:29Z</time>
      </trkpt>
      <trkpt lat="49.17236" lon="-0.55267">
        <ele>88.2</ele>
        <time>2023-04-25T11:20:30Z</time>
      </trkpt>
      <trkpt lat="49.17235" lon="-0.55276">
        <ele>88.4</ele>
        <time>2023-04-25T11:20:31Z</time>
      </trkpt>
      <trkpt lat="49.17234" lon="-0.55285">
        <ele>88.6</ele>
        <time>2023-04-25T11:20:32Z</time>
      </trkpt>
      <trkpt lat="49.17233" lon="-0.55293">
        <ele>88.6</ele>
        <time>2023-04-25T11:20:33Z</time>
      </trkpt>
      <trkpt lat="49.17232" lon="-0.55302">
        <ele>89</ele>
        <time>2023-04-25T11:20:34Z</time>
      </trkpt>
      <trkpt lat="49.17231" lon="-0.55311">
        <ele>89</ele>
        <time>2023-04-25T11:20:35Z</time>
      </trkpt>
      <trkpt lat="49.1723" lon="-0.55319">
        <ele>89.2</ele>
        <time>2023-04-25T11:20:36Z</time>
      </trkpt>
      <trkpt lat="49.17229" lon="-0.55328">
        <ele>89.4</ele>
        <time>2023-04-25T11:20:37Z</time>
      </trkpt>
      <trkpt lat="49.17228" lon="-0.55337">
        <ele>89.6</ele>
        <time>2023-04-25T11:20:38Z</time>
      </trkpt>
      <trkpt lat="49.17227" lon="-0.55345">
        <ele>89.6</ele>
        <time>2023-04-25T11:20:39Z</time>
      </trkpt>
      <trkpt lat="49.17226" lon="-0.55354">
        <ele>89.6</ele>
        <time>2023-04-25T11:20:40Z</time>
      </trkpt>
      <trkpt lat="49.17225" lon="-0.55363">
        <ele>89.6</ele>
        <time>2023-04-25T11:20:41Z</time>
      </trkpt>
      <trkpt lat="49.17224" lon="-0.55371">
        <ele>89.6</ele>
        <time>2023-04-25T11:20:42Z</time>
      </trkpt>
      <trkpt lat="49.17223" lon="-0.5538">
        <ele>89.6</ele>
        <time>2023-04-25T11:20:43Z</time>
      </trkpt>
      <trkpt lat="49.17222" lon="-0.55389">
        <ele>89.6</ele>
        <time>2023-04-25T11:20:44Z</time>
      </trkpt>
      <trkpt lat="49.17221" lon="-0.55397">
        <ele>89.6</ele>
        <time>2023-04-25T11:20:45Z</time>
      </trkpt>
      <trkpt lat="49.1722" lon="-0.55406">
        <ele>89.6</ele>
        <time>2023-04-25T11:20:46Z</time>
      </trkpt>
      <trkpt lat="49.17219" lon="-0.55415">
        <ele>89.6</ele>
        <time>2023-04-25T11:20:47Z</time>
      </trkpt>
      <trkpt lat="49.17218" lon="-0.55424">
        <ele>89.6</ele>
        <time>2023-04-25T11:20:48Z</time>
      </trkpt>
      <trkpt lat="49.17217" lon="-0.55433">
        <ele>89.6</ele>
        <time>2023-04-25T11:20:49Z</time>
      </trkpt>
      <trkpt lat="49.17216" lon="-0.55441">
        <ele>89.4</ele>
        <time>2023-04-25T11:20:50Z</time>
      </trkpt>
      <trkpt lat="49.17214" lon="-0.5545">
        <ele>89.4</ele>
        <time>2023-04-25T11:20:51Z</time>
      </trkpt>
      <trkpt lat="49.17213" lon="-0.55459">
        <ele>89.4</ele>
        <time>2023-04-25T11:20:52Z</time>
      </trkpt>
      <trkpt lat="49.17212" lon="-0.55468">
        <ele>89.2</ele>
        <time>2023-04-25T11:20:53Z</time>
      </trkpt>
      <trkpt lat="49.17211" lon="-0.55477">
        <ele>89</ele>
        <time>2023-04-25T11:20:54Z</time>
      </trkpt>
      <trkpt lat="49.1721" lon="-0.55486">
        <ele>89</ele>
        <time>2023-04-25T11:20:55Z</time>
      </trkpt>
      <trkpt lat="49.17209" lon="-0.55495">
        <ele>89</ele>
        <time>2023-04-25T11:20:56Z</time>
      </trkpt>
      <trkpt lat="49.17208" lon="-0.55504">
        <ele>89</ele>
        <time>2023-04-25T11:20:57Z</time>
      </trkpt>
      <trkpt lat="49.17207" lon="-0.55513">
        <ele>89.2</ele>
        <time>2023-04-25T11:20:58Z</time>
      </trkpt>
      <trkpt lat="49.17206" lon="-0.55522">
        <ele>89.4</ele>
        <time>2023-04-25T11:20:59Z</time>
      </trkpt>
      <trkpt lat="49.17205" lon="-0.55531">
        <ele>89.6</ele>
        <time>2023-04-25T11:21:00Z</time>
      </trkpt>
      <trkpt lat="49.17203" lon="-0.55541">
        <ele>89.6</ele>
        <time>2023-04-25T11:21:01Z</time>
      </trkpt>
      <trkpt lat="49.17202" lon="-0.5555">
        <ele>90</ele>
        <time>2023-04-25T11:21:02Z</time>
      </trkpt>
      <trkpt lat="49.17201" lon="-0.55559">
        <ele>90</ele>
        <time>2023-04-25T11:21:03Z</time>
      </trkpt>
      <trkpt lat="49.172" lon="-0.55568">
        <ele>90</ele>
        <time>2023-04-25T11:21:04Z</time>
      </trkpt>
      <trkpt lat="49.17199" lon="-0.55578">
        <ele>90.4</ele>
        <time>2023-04-25T11:21:05Z</time>
      </trkpt>
      <trkpt lat="49.17198" lon="-0.55587">
        <ele>90.4</ele>
        <time>2023-04-25T11:21:06Z</time>
      </trkpt>
      <trkpt lat="49.17197" lon="-0.55596">
        <ele>90.4</ele>
        <time>2023-04-25T11:21:07Z</time>
      </trkpt>
      <trkpt lat="49.17196" lon="-0.55606">
        <ele>90.4</ele>
        <time>2023-04-25T11:21:08Z</time>
      </trkpt>
      <trkpt lat="49.17194" lon="-0.55615">
        <ele>90.4</ele>
        <time>2023-04-25T11:21:09Z</time>
      </trkpt>
      <trkpt lat="49.17193" lon="-0.55624">
        <ele>90.4</ele>
        <time>2023-04-25T11:21:10Z</time>
      </trkpt>
      <trkpt lat="49.17192" lon="-0.55634">
        <ele>90.4</ele>
        <time>2023-04-25T11:21:11Z</time>
      </trkpt>
      <trkpt lat="49.17191" lon="-0.55643">
        <ele>90.4</ele>
        <time>2023-04-25T11:21:12Z</time>
      </trkpt>
      <trkpt lat="49.1719" lon="-0.55653">
        <ele>90.4</ele>
        <time>2023-04-25T11:21:13Z</time>
      </trkpt>
      <trkpt lat="49.17189" lon="-0.55662">
        <ele>90.4</ele>
        <time>2023-04-25T11:21:14Z</time>
      </trkpt>
      <trkpt lat="49.17188" lon="-0.55672">
        <ele>90.4</ele>
        <time>2023-04-25T11:21:15Z</time>
      </trkpt>
      <trkpt lat="49.17186" lon="-0.55681">
        <ele>90.2</ele>
        <time>2023-04-25T11:21:16Z</time>
      </trkpt>
      <trkpt lat="49.17185" lon="-0.55691">
        <ele>90.2</ele>
        <time>2023-04-25T11:21:17Z</time>
      </trkpt>
      <trkpt lat="49.17184" lon="-0.557">
        <ele>90.2</ele>
        <time>2023-04-25T11:21:18Z</time>
      </trkpt>
      <trkpt lat="49.17183" lon="-0.5571">
        <ele>90.2</ele>
        <time>2023-04-25T11:21:19Z</time>
      </trkpt>
      <trkpt lat="49.17182" lon="-0.55719">
        <ele>90.2</ele>
        <time>2023-04-25T11:21:20Z</time>
      </trkpt>
      <trkpt lat="49.17181" lon="-0.55728">
        <ele>90.2</ele>
        <time>2023-04-25T11:21:21Z</time>
      </trkpt>
      <trkpt lat="49.1718" lon="-0.55738">
        <ele>90.2</ele>
        <time>2023-04-25T11:21:22Z</time>
      </trkpt>
      <trkpt lat="49.17179" lon="-0.55747">
        <ele>90</ele>
        <time>2023-04-25T11:21:23Z</time>
      </trkpt>
      <trkpt lat="49.17177" lon="-0.55757">
        <ele>90.2</ele>
        <time>2023-04-25T11:21:24Z</time>
      </trkpt>
      <trkpt lat="49.17176" lon="-0.55766">
        <ele>90.4</ele>
        <time>2023-04-25T11:21:25Z</time>
      </trkpt>
      <trkpt lat="49.17175" lon="-0.55776">
        <ele>90.4</ele>
        <time>2023-04-25T11:21:26Z</time>
      </trkpt>
      <trkpt lat="49.17174" lon="-0.55785">
        <ele>90.6</ele>
        <time>2023-04-25T11:21:27Z</time>
      </trkpt>
      <trkpt lat="49.17173" lon="-0.55795">
        <ele>90.6</ele>
        <time>2023-04-25T11:21:28Z</time>
      </trkpt>
      <trkpt lat="49.17172" lon="-0.55804">
        <ele>90.6</ele>
        <time>2023-04-25T11:21:29Z</time>
      </trkpt>
      <trkpt lat="49.17171" lon="-0.55813">
        <ele>90.8</ele>
        <time>2023-04-25T11:21:30Z</time>
      </trkpt>
      <trkpt lat="49.1717" lon="-0.55823">
        <ele>91</ele>
        <time>2023-04-25T11:21:31Z</time>
      </trkpt>
      <trkpt lat="49.17169" lon="-0.55832">
        <ele>91</ele>
        <time>2023-04-25T11:21:32Z</time>
      </trkpt>
      <trkpt lat="49.17167" lon="-0.55842">
        <ele>91.2</ele>
        <time>2023-04-25T11:21:33Z</time>
      </trkpt>
      <trkpt lat="49.17166" lon="-0.55851">
        <ele>91.4</ele>
        <time>2023-04-25T11:21:34Z</time>
      </trkpt>
      <trkpt lat="49.17165" lon="-0.5586">
        <ele>91.6</ele>
        <time>2023-04-25T11:21:35Z</time>
      </trkpt>
      <trkpt lat="49.17164" lon="-0.5587">
        <ele>91.8</ele>
        <time>2023-04-25T11:21:36Z</time>
      </trkpt>
      <trkpt lat="49.17163" lon="-0.55879">
        <ele>92</ele>
        <time>2023-04-25T11:21:37Z</time>
      </trkpt>
      <trkpt lat="49.17162" lon="-0.55889">
        <ele>92.4</ele>
        <time>2023-04-25T11:21:38Z</time>
      </trkpt>
      <trkpt lat="49.1716" lon="-0.55898">
        <ele>92.4</ele>
        <time>2023-04-25T11:21:39Z</time>
      </trkpt>
      <trkpt lat="49.17159" lon="-0.55908">
        <ele>92.6</ele>
        <time>2023-04-25T11:21:40Z</time>
      </trkpt>
      <trkpt lat="49.17158" lon="-0.55918">
        <ele>92.8</ele>
        <time>2023-04-25T11:21:41Z</time>
      </trkpt>
      <trkpt lat="49.17157" lon="-0.55927">
        <ele>93</ele>
        <time>2023-04-25T11:21:42Z</time>
      </trkpt>
      <trkpt lat="49.17156" lon="-0.55937">
        <ele>93</ele>
        <time>2023-04-25T11:21:43Z</time>
      </trkpt>
      <trkpt lat="49.17155" lon="-0.55946">
        <ele>93</ele>
        <time>2023-04-25T11:21:44Z</time>
      </trkpt>
      <trkpt lat="49.17153" lon="-0.55956">
        <ele>93.2</ele>
        <time>2023-04-25T11:21:45Z</time>
      </trkpt>
      <trkpt lat="49.17152" lon="-0.55966">
        <ele>93.4</ele>
        <time>2023-04-25T11:21:46Z</time>
      </trkpt>
      <trkpt lat="49.17151" lon="-0.55975">
        <ele>93.6</ele>
        <time>2023-04-25T11:21:47Z</time>
      </trkpt>
      <trkpt lat="49.1715" lon="-0.55985">
        <ele>93.6</ele>
        <time>2023-04-25T11:21:48Z</time>
      </trkpt>
      <trkpt lat="49.17149" lon="-0.55995">
        <ele>93.6</ele>
        <time>2023-04-25T11:21:49Z</time>
      </trkpt>
      <trkpt lat="49.17148" lon="-0.56004">
        <ele>93.6</ele>
        <time>2023-04-25T11:21:50Z</time>
      </trkpt>
      <trkpt lat="49.17147" lon="-0.56014">
        <ele>93.6</ele>
        <time>2023-04-25T11:21:51Z</time>
      </trkpt>
      <trkpt lat="49.17145" lon="-0.56024">
        <ele>93.6</ele>
        <time>2023-04-25T11:21:52Z</time>
      </trkpt>
      <trkpt lat="49.17144" lon="-0.56034">
        <ele>93.6</ele>
        <time>2023-04-25T11:21:53Z</time>
      </trkpt>
      <trkpt lat="49.17143" lon="-0.56043">
        <ele>93.6</ele>
        <time>2023-04-25T11:21:54Z</time>
      </trkpt>
      <trkpt lat="49.17142" lon="-0.56053">
        <ele>93.4</ele>
        <time>2023-04-25T11:21:55Z</time>
      </trkpt>
      <trkpt lat="49.17141" lon="-0.56062">
        <ele>93.4</ele>
        <time>2023-04-25T11:21:56Z</time>
      </trkpt>
      <trkpt lat="49.1714" lon="-0.56072">
        <ele>93.4</ele>
        <time>2023-04-25T11:21:57Z</time>
      </trkpt>
      <trkpt lat="49.17138" lon="-0.56082">
        <ele>93.4</ele>
        <time>2023-04-25T11:21:58Z</time>
      </trkpt>
      <trkpt lat="49.17137" lon="-0.56091">
        <ele>93.4</ele>
        <time>2023-04-25T11:21:59Z</time>
      </trkpt>
      <trkpt lat="49.17136" lon="-0.56101">
        <ele>93.4</ele>
        <time>2023-04-25T11:22:00Z</time>
      </trkpt>
      <trkpt lat="49.17135" lon="-0.56111">
        <ele>93.4</ele>
        <time>2023-04-25T11:22:01Z</time>
      </trkpt>
      <trkpt lat="49.17134" lon="-0.5612">
        <ele>93.4</ele>
        <time>2023-04-25T11:22:02Z</time>
      </trkpt>
      <trkpt lat="49.17132" lon="-0.5613">
        <ele>93.4</ele>
        <time>2023-04-25T11:22:03Z</time>
      </trkpt>
      <trkpt lat="49.17131" lon="-0.5614">
        <ele>93.4</ele>
        <time>2023-04-25T11:22:04Z</time>
      </trkpt>
      <trkpt lat="49.1713" lon="-0.5615">
        <ele>93.4</ele>
        <time>2023-04-25T11:22:05Z</time>
      </trkpt>
      <trkpt lat="49.17129" lon="-0.5616">
        <ele>93.6</ele>
        <time>2023-04-25T11:22:06Z</time>
      </trkpt>
      <trkpt lat="49.17128" lon="-0.56169">
        <ele>93.6</ele>
        <time>2023-04-25T11:22:07Z</time>
      </trkpt>
      <trkpt lat="49.17126" lon="-0.56179">
        <ele>93.6</ele>
        <time>2023-04-25T11:22:08Z</time>
      </trkpt>
      <trkpt lat="49.17125" lon="-0.56189">
        <ele>93.6</ele>
        <time>2023-04-25T11:22:09Z</time>
      </trkpt>
      <trkpt lat="49.17124" lon="-0.562">
        <ele>93.6</ele>
        <time>2023-04-25T11:22:10Z</time>
      </trkpt>
      <trkpt lat="49.17123" lon="-0.5621">
        <ele>93.8</ele>
        <time>2023-04-25T11:22:11Z</time>
      </trkpt>
      <trkpt lat="49.17121" lon="-0.5622">
        <ele>93.8</ele>
        <time>2023-04-25T11:22:12Z</time>
      </trkpt>
      <trkpt lat="49.1712" lon="-0.5623">
        <ele>94</ele>
        <time>2023-04-25T11:22:13Z</time>
      </trkpt>
      <trkpt lat="49.17119" lon="-0.5624">
        <ele>94</ele>
        <time>2023-04-25T11:22:14Z</time>
      </trkpt>
      <trkpt lat="49.17118" lon="-0.5625">
        <ele>94</ele>
        <time>2023-04-25T11:22:15Z</time>
      </trkpt>
      <trkpt lat="49.17116" lon="-0.56261">
        <ele>94</ele>
        <time>2023-04-25T11:22:16Z</time>
      </trkpt>
      <trkpt lat="49.17115" lon="-0.56271">
        <ele>94</ele>
        <time>2023-04-25T11:22:17Z</time>
      </trkpt>
      <trkpt lat="49.17114" lon="-0.56281">
        <ele>94</ele>
        <time>2023-04-25T11:22:18Z</time>
      </trkpt>
      <trkpt lat="49.17113" lon="-0.56292">
        <ele>94</ele>
        <time>2023-04-25T11:22:19Z</time>
      </trkpt>
      <trkpt lat="49.17111" lon="-0.56302">
        <ele>94</ele>
        <time>2023-04-25T11:22:20Z</time>
      </trkpt>
      <trkpt lat="49.1711" lon="-0.56312">
        <ele>94</ele>
        <time>2023-04-25T11:22:21Z</time>
      </trkpt>
      <trkpt lat="49.17109" lon="-0.56323">
        <ele>94</ele>
        <time>2023-04-25T11:22:22Z</time>
      </trkpt>
      <trkpt lat="49.17108" lon="-0.56333">
        <ele>94</ele>
        <time>2023-04-25T11:22:23Z</time>
      </trkpt>
      <trkpt lat="49.17106" lon="-0.56343">
        <ele>94.2</ele>
        <time>2023-04-25T11:22:24Z</time>
      </trkpt>
      <trkpt lat="49.17105" lon="-0.56354">
        <ele>94.4</ele>
        <time>2023-04-25T11:22:25Z</time>
      </trkpt>
      <trkpt lat="49.17104" lon="-0.56364">
        <ele>94.6</ele>
        <time>2023-04-25T11:22:26Z</time>
      </trkpt>
      <trkpt lat="49.17103" lon="-0.56375">
        <ele>94.6</ele>
        <time>2023-04-25T11:22:27Z</time>
      </trkpt>
      <trkpt lat="49.17101" lon="-0.56385">
        <ele>95</ele>
        <time>2023-04-25T11:22:28Z</time>
      </trkpt>
      <trkpt lat="49.171" lon="-0.56395">
        <ele>95</ele>
        <time>2023-04-25T11:22:29Z</time>
      </trkpt>
      <trkpt lat="49.17099" lon="-0.56406">
        <ele>95.2</ele>
        <time>2023-04-25T11:22:30Z</time>
      </trkpt>
      <trkpt lat="49.17098" lon="-0.56416">
        <ele>95.4</ele>
        <time>2023-04-25T11:22:31Z</time>
      </trkpt>
      <trkpt lat="49.17097" lon="-0.56427">
        <ele>95.4</ele>
        <time>2023-04-25T11:22:32Z</time>
      </trkpt>
      <trkpt lat="49.17095" lon="-0.56437">
        <ele>95.6</ele>
        <time>2023-04-25T11:22:33Z</time>
      </trkpt>
      <trkpt lat="49.17094" lon="-0.56448">
        <ele>95.6</ele>
        <time>2023-04-25T11:22:34Z</time>
      </trkpt>
      <trkpt lat="49.17093" lon="-0.56458">
        <ele>95.6</ele>
        <time>2023-04-25T11:22:35Z</time>
      </trkpt>
      <trkpt lat="49.17092" lon="-0.56468">
        <ele>95.6</ele>
        <time>2023-04-25T11:22:36Z</time>
      </trkpt>
      <trkpt lat="49.1709" lon="-0.56479">
        <ele>95.8</ele>
        <time>2023-04-25T11:22:37Z</time>
      </trkpt>
      <trkpt lat="49.17089" lon="-0.56489">
        <ele>96</ele>
        <time>2023-04-25T11:22:38Z</time>
      </trkpt>
      <trkpt lat="49.17088" lon="-0.56499">
        <ele>96</ele>
        <time>2023-04-25T11:22:39Z</time>
      </trkpt>
      <trkpt lat="49.17087" lon="-0.56509">
        <ele>96</ele>
        <time>2023-04-25T11:22:40Z</time>
      </trkpt>
      <trkpt lat="49.17085" lon="-0.56519">
        <ele>96</ele>
        <time>2023-04-25T11:22:41Z</time>
      </trkpt>
      <trkpt lat="49.17084" lon="-0.56529">
        <ele>96</ele>
        <time>2023-04-25T11:22:42Z</time>
      </trkpt>
      <trkpt lat="49.17083" lon="-0.5654">
        <ele>96</ele>
        <time>2023-04-25T11:22:43Z</time>
      </trkpt>
      <trkpt lat="49.17081" lon="-0.5655">
        <ele>96</ele>
        <time>2023-04-25T11:22:44Z</time>
      </trkpt>
      <trkpt lat="49.1708" lon="-0.5656">
        <ele>96</ele>
        <time>2023-04-25T11:22:45Z</time>
      </trkpt>
      <trkpt lat="49.17079" lon="-0.56571">
        <ele>96</ele>
        <time>2023-04-25T11:22:46Z</time>
      </trkpt>
      <trkpt lat="49.17078" lon="-0.56581">
        <ele>96</ele>
        <time>2023-04-25T11:22:47Z</time>
      </trkpt>
      <trkpt lat="49.17077" lon="-0.56591">
        <ele>96</ele>
        <time>2023-04-25T11:22:48Z</time>
      </trkpt>
      <trkpt lat="49.17075" lon="-0.56602">
        <ele>96</ele>
        <time>2023-04-25T11:22:49Z</time>
      </trkpt>
      <trkpt lat="49.17074" lon="-0.56612">
        <ele>96</ele>
        <time>2023-04-25T11:22:50Z</time>
      </trkpt>
      <trkpt lat="49.17073" lon="-0.56623">
        <ele>96</ele>
        <time>2023-04-25T11:22:51Z</time>
      </trkpt>
      <trkpt lat="49.17071" lon="-0.56633">
        <ele>96</ele>
        <time>2023-04-25T11:22:52Z</time>
      </trkpt>
      <trkpt lat="49.1707" lon="-0.56644">
        <ele>95.8</ele>
        <time>2023-04-25T11:22:53Z</time>
      </trkpt>
      <trkpt lat="49.17069" lon="-0.56655">
        <ele>95.8</ele>
        <time>2023-04-25T11:22:54Z</time>
      </trkpt>
      <trkpt lat="49.17068" lon="-0.56665">
        <ele>95.8</ele>
        <time>2023-04-25T11:22:55Z</time>
      </trkpt>
      <trkpt lat="49.17066" lon="-0.56676">
        <ele>95.8</ele>
        <time>2023-04-25T11:22:56Z</time>
      </trkpt>
      <trkpt lat="49.17065" lon="-0.56687">
        <ele>95.8</ele>
        <time>2023-04-25T11:22:57Z</time>
      </trkpt>
      <trkpt lat="49.17063" lon="-0.56698">
        <ele>95.8</ele>
        <time>2023-04-25T11:22:58Z</time>
      </trkpt>
      <trkpt lat="49.17062" lon="-0.56709">
        <ele>95.6</ele>
        <time>2023-04-25T11:22:59Z</time>
      </trkpt>
      <trkpt lat="49.17061" lon="-0.5672">
        <ele>95.6</ele>
        <time>2023-04-25T11:23:00Z</time>
      </trkpt>
      <trkpt lat="49.1706" lon="-0.5673">
        <ele>95.6</ele>
        <time>2023-04-25T11:23:01Z</time>
      </trkpt>
      <trkpt lat="49.17059" lon="-0.56742">
        <ele>95.6</ele>
        <time>2023-04-25T11:23:02Z</time>
      </trkpt>
      <trkpt lat="49.17058" lon="-0.56753">
        <ele>95.6</ele>
        <time>2023-04-25T11:23:03Z</time>
      </trkpt>
      <trkpt lat="49.17058" lon="-0.56764">
        <ele>95.6</ele>
        <time>2023-04-25T11:23:04Z</time>
      </trkpt>
      <trkpt lat="49.17059" lon="-0.56775">
        <ele>95.4</ele>
        <time>2023-04-25T11:23:05Z</time>
      </trkpt>
      <trkpt lat="49.1706" lon="-0.56786">
        <ele>95.4</ele>
        <time>2023-04-25T11:23:06Z</time>
      </trkpt>
      <trkpt lat="49.17061" lon="-0.56798">
        <ele>95.2</ele>
        <time>2023-04-25T11:23:07Z</time>
      </trkpt>
      <trkpt lat="49.17063" lon="-0.56809">
        <ele>95</ele>
        <time>2023-04-25T11:23:08Z</time>
      </trkpt>
      <trkpt lat="49.17065" lon="-0.56821">
        <ele>95</ele>
        <time>2023-04-25T11:23:09Z</time>
      </trkpt>
      <trkpt lat="49.17067" lon="-0.56833">
        <ele>94.8</ele>
        <time>2023-04-25T11:23:10Z</time>
      </trkpt>
      <trkpt lat="49.17068" lon="-0.56845">
        <ele>94.6</ele>
        <time>2023-04-25T11:23:11Z</time>
      </trkpt>
      <trkpt lat="49.1707" lon="-0.56856">
        <ele>94</ele>
        <time>2023-04-25T11:23:12Z</time>
      </trkpt>
      <trkpt lat="49.17072" lon="-0.56868">
        <ele>93.6</ele>
        <time>2023-04-25T11:23:13Z</time>
      </trkpt>
      <trkpt lat="49.17074" lon="-0.5688">
        <ele>93.4</ele>
        <time>2023-04-25T11:23:14Z</time>
      </trkpt>
      <trkpt lat="49.17076" lon="-0.56892">
        <ele>93</ele>
        <time>2023-04-25T11:23:15Z</time>
      </trkpt>
      <trkpt lat="49.17078" lon="-0.56904">
        <ele>92.6</ele>
        <time>2023-04-25T11:23:16Z</time>
      </trkpt>
      <trkpt lat="49.1708" lon="-0.56915">
        <ele>92</ele>
        <time>2023-04-25T11:23:17Z</time>
      </trkpt>
      <trkpt lat="49.17082" lon="-0.56927">
        <ele>92</ele>
        <time>2023-04-25T11:23:18Z</time>
      </trkpt>
      <trkpt lat="49.17084" lon="-0.56939">
        <ele>92</ele>
        <time>2023-04-25T11:23:19Z</time>
      </trkpt>
      <trkpt lat="49.17086" lon="-0.56951">
        <ele>92</ele>
        <time>2023-04-25T11:23:20Z</time>
      </trkpt>
      <trkpt lat="49.17088" lon="-0.56963">
        <ele>92</ele>
        <time>2023-04-25T11:23:21Z</time>
      </trkpt>
      <trkpt lat="49.1709" lon="-0.56974">
        <ele>92</ele>
        <time>2023-04-25T11:23:22Z</time>
      </trkpt>
      <trkpt lat="49.17092" lon="-0.56986">
        <ele>92</ele>
        <time>2023-04-25T11:23:23Z</time>
      </trkpt>
      <trkpt lat="49.17094" lon="-0.56998">
        <ele>92</ele>
        <time>2023-04-25T11:23:24Z</time>
      </trkpt>
      <trkpt lat="49.17096" lon="-0.5701">
        <ele>92</ele>
        <time>2023-04-25T11:23:25Z</time>
      </trkpt>
      <trkpt lat="49.17098" lon="-0.57021">
        <ele>92</ele>
        <time>2023-04-25T11:23:26Z</time>
      </trkpt>
      <trkpt lat="49.171" lon="-0.57033">
        <ele>91.8</ele>
        <time>2023-04-25T11:23:27Z</time>
      </trkpt>
      <trkpt lat="49.17102" lon="-0.57045">
        <ele>91.8</ele>
        <time>2023-04-25T11:23:28Z</time>
      </trkpt>
      <trkpt lat="49.17104" lon="-0.57057">
        <ele>91.6</ele>
        <time>2023-04-25T11:23:29Z</time>
      </trkpt>
      <trkpt lat="49.17106" lon="-0.57068">
        <ele>91.6</ele>
        <time>2023-04-25T11:23:30Z</time>
      </trkpt>
      <trkpt lat="49.17108" lon="-0.5708">
        <ele>91.4</ele>
        <time>2023-04-25T11:23:31Z</time>
      </trkpt>
      <trkpt lat="49.1711" lon="-0.57091">
        <ele>91.4</ele>
        <time>2023-04-25T11:23:32Z</time>
      </trkpt>
      <trkpt lat="49.17112" lon="-0.57103">
        <ele>91.6</ele>
        <time>2023-04-25T11:23:33Z</time>
      </trkpt>
      <trkpt lat="49.17114" lon="-0.57115">
        <ele>91.6</ele>
        <time>2023-04-25T11:23:34Z</time>
      </trkpt>
      <trkpt lat="49.17116" lon="-0.57127">
        <ele>91.6</ele>
        <time>2023-04-25T11:23:35Z</time>
      </trkpt>
      <trkpt lat="49.17118" lon="-0.57138">
        <ele>91.6</ele>
        <time>2023-04-25T11:23:36Z</time>
      </trkpt>
      <trkpt lat="49.1712" lon="-0.5715">
        <ele>91.6</ele>
        <time>2023-04-25T11:23:37Z</time>
      </trkpt>
      <trkpt lat="49.17122" lon="-0.57162">
        <ele>91.6</ele>
        <time>2023-04-25T11:23:38Z</time>
      </trkpt>
      <trkpt lat="49.17124" lon="-0.57173">
        <ele>91.4</ele>
        <time>2023-04-25T11:23:39Z</time>
      </trkpt>
      <trkpt lat="49.17126" lon="-0.57185">
        <ele>91</ele>
        <time>2023-04-25T11:23:40Z</time>
      </trkpt>
      <trkpt lat="49.17128" lon="-0.57197">
        <ele>91</ele>
        <time>2023-04-25T11:23:41Z</time>
      </trkpt>
      <trkpt lat="49.1713" lon="-0.57209">
        <ele>90.6</ele>
        <time>2023-04-25T11:23:42Z</time>
      </trkpt>
      <trkpt lat="49.17131" lon="-0.5722">
        <ele>90.4</ele>
        <time>2023-04-25T11:23:43Z</time>
      </trkpt>
      <trkpt lat="49.17133" lon="-0.57232">
        <ele>90</ele>
        <time>2023-04-25T11:23:44Z</time>
      </trkpt>
      <trkpt lat="49.17135" lon="-0.57244">
        <ele>90</ele>
        <time>2023-04-25T11:23:45Z</time>
      </trkpt>
      <trkpt lat="49.17137" lon="-0.57255">
        <ele>89.6</ele>
        <time>2023-04-25T11:23:46Z</time>
      </trkpt>
      <trkpt lat="49.17139" lon="-0.57267">
        <ele>89.6</ele>
        <time>2023-04-25T11:23:47Z</time>
      </trkpt>
      <trkpt lat="49.17141" lon="-0.57279">
        <ele>89.6</ele>
        <time>2023-04-25T11:23:48Z</time>
      </trkpt>
      <trkpt lat="49.17143" lon="-0.57291">
        <ele>89.4</ele>
        <time>2023-04-25T11:23:49Z</time>
      </trkpt>
      <trkpt lat="49.17145" lon="-0.57303">
        <ele>89.4</ele>
        <time>2023-04-25T11:23:50Z</time>
      </trkpt>
      <trkpt lat="49.17147" lon="-0.57315">
        <ele>89.4</ele>
        <time>2023-04-25T11:23:51Z</time>
      </trkpt>
      <trkpt lat="49.17149" lon="-0.57326">
        <ele>89.2</ele>
        <time>2023-04-25T11:23:52Z</time>
      </trkpt>
      <trkpt lat="49.17151" lon="-0.57338">
        <ele>89</ele>
        <time>2023-04-25T11:23:53Z</time>
      </trkpt>
      <trkpt lat="49.17153" lon="-0.5735">
        <ele>89</ele>
        <time>2023-04-25T11:23:54Z</time>
      </trkpt>
      <trkpt lat="49.17155" lon="-0.57362">
        <ele>88.8</ele>
        <time>2023-04-25T11:23:55Z</time>
      </trkpt>
      <trkpt lat="49.17157" lon="-0.57374">
        <ele>88.6</ele>
        <time>2023-04-25T11:23:56Z</time>
      </trkpt>
      <trkpt lat="49.17159" lon="-0.57386">
        <ele>88.6</ele>
        <time>2023-04-25T11:23:57Z</time>
      </trkpt>
      <trkpt lat="49.17161" lon="-0.57398">
        <ele>88.4</ele>
        <time>2023-04-25T11:23:58Z</time>
      </trkpt>
      <trkpt lat="49.17163" lon="-0.5741">
        <ele>88</ele>
        <time>2023-04-25T11:23:59Z</time>
      </trkpt>
      <trkpt lat="49.17165" lon="-0.57422">
        <ele>88</ele>
        <time>2023-04-25T11:24:00Z</time>
      </trkpt>
      <trkpt lat="49.17167" lon="-0.57434">
        <ele>88</ele>
        <time>2023-04-25T11:24:01Z</time>
      </trkpt>
      <trkpt lat="49.17169" lon="-0.57447">
        <ele>88</ele>
        <time>2023-04-25T11:24:02Z</time>
      </trkpt>
      <trkpt lat="49.17171" lon="-0.57459">
        <ele>88</ele>
        <time>2023-04-25T11:24:03Z</time>
      </trkpt>
      <trkpt lat="49.17173" lon="-0.57471">
        <ele>88</ele>
        <time>2023-04-25T11:24:04Z</time>
      </trkpt>
      <trkpt lat="49.17176" lon="-0.57483">
        <ele>87.8</ele>
        <time>2023-04-25T11:24:05Z</time>
      </trkpt>
      <trkpt lat="49.17177" lon="-0.57496">
        <ele>87.8</ele>
        <time>2023-04-25T11:24:06Z</time>
      </trkpt>
      <trkpt lat="49.1718" lon="-0.57508">
        <ele>87.6</ele>
        <time>2023-04-25T11:24:07Z</time>
      </trkpt>
      <trkpt lat="49.17182" lon="-0.57521">
        <ele>87.6</ele>
        <time>2023-04-25T11:24:08Z</time>
      </trkpt>
      <trkpt lat="49.17184" lon="-0.57533">
        <ele>87.6</ele>
        <time>2023-04-25T11:24:09Z</time>
      </trkpt>
      <trkpt lat="49.17186" lon="-0.57546">
        <ele>87.4</ele>
        <time>2023-04-25T11:24:10Z</time>
      </trkpt>
      <trkpt lat="49.17188" lon="-0.57559">
        <ele>87.4</ele>
        <time>2023-04-25T11:24:11Z</time>
      </trkpt>
      <trkpt lat="49.1719" lon="-0.57571">
        <ele>87.2</ele>
        <time>2023-04-25T11:24:12Z</time>
      </trkpt>
      <trkpt lat="49.17193" lon="-0.57584">
        <ele>87</ele>
        <time>2023-04-25T11:24:13Z</time>
      </trkpt>
      <trkpt lat="49.17195" lon="-0.57597">
        <ele>87</ele>
        <time>2023-04-25T11:24:14Z</time>
      </trkpt>
      <trkpt lat="49.17197" lon="-0.5761">
        <ele>87</ele>
        <time>2023-04-25T11:24:15Z</time>
      </trkpt>
      <trkpt lat="49.17199" lon="-0.57623">
        <ele>87</ele>
        <time>2023-04-25T11:24:16Z</time>
      </trkpt>
      <trkpt lat="49.17202" lon="-0.57637">
        <ele>87</ele>
        <time>2023-04-25T11:24:17Z</time>
      </trkpt>
      <trkpt lat="49.17204" lon="-0.5765">
        <ele>87</ele>
        <time>2023-04-25T11:24:18Z</time>
      </trkpt>
      <trkpt lat="49.17206" lon="-0.57663">
        <ele>87</ele>
        <time>2023-04-25T11:24:19Z</time>
      </trkpt>
      <trkpt lat="49.17208" lon="-0.57676">
        <ele>87</ele>
        <time>2023-04-25T11:24:20Z</time>
      </trkpt>
      <trkpt lat="49.1721" lon="-0.57689">
        <ele>86.6</ele>
        <time>2023-04-25T11:24:21Z</time>
      </trkpt>
      <trkpt lat="49.17213" lon="-0.57703">
        <ele>86.6</ele>
        <time>2023-04-25T11:24:22Z</time>
      </trkpt>
      <trkpt lat="49.17215" lon="-0.57716">
        <ele>86.2</ele>
        <time>2023-04-25T11:24:23Z</time>
      </trkpt>
      <trkpt lat="49.17217" lon="-0.57729">
        <ele>86</ele>
        <time>2023-04-25T11:24:24Z</time>
      </trkpt>
      <trkpt lat="49.1722" lon="-0.57742">
        <ele>85.8</ele>
        <time>2023-04-25T11:24:25Z</time>
      </trkpt>
      <trkpt lat="49.17222" lon="-0.57756">
        <ele>85.6</ele>
        <time>2023-04-25T11:24:26Z</time>
      </trkpt>
      <trkpt lat="49.17224" lon="-0.57769">
        <ele>85.4</ele>
        <time>2023-04-25T11:24:27Z</time>
      </trkpt>
      <trkpt lat="49.17227" lon="-0.57782">
        <ele>85.2</ele>
        <time>2023-04-25T11:24:28Z</time>
      </trkpt>
      <trkpt lat="49.17229" lon="-0.57796">
        <ele>85</ele>
        <time>2023-04-25T11:24:29Z</time>
      </trkpt>
      <trkpt lat="49.17231" lon="-0.57809">
        <ele>84.6</ele>
        <time>2023-04-25T11:24:30Z</time>
      </trkpt>
      <trkpt lat="49.17233" lon="-0.57823">
        <ele>84.6</ele>
        <time>2023-04-25T11:24:31Z</time>
      </trkpt>
      <trkpt lat="49.17236" lon="-0.57836">
        <ele>84.4</ele>
        <time>2023-04-25T11:24:32Z</time>
      </trkpt>
      <trkpt lat="49.17238" lon="-0.5785">
        <ele>84</ele>
        <time>2023-04-25T11:24:33Z</time>
      </trkpt>
      <trkpt lat="49.1724" lon="-0.57864">
        <ele>83.8</ele>
        <time>2023-04-25T11:24:34Z</time>
      </trkpt>
      <trkpt lat="49.17242" lon="-0.57878">
        <ele>83.6</ele>
        <time>2023-04-25T11:24:35Z</time>
      </trkpt>
      <trkpt lat="49.17245" lon="-0.57891">
        <ele>83.4</ele>
        <time>2023-04-25T11:24:36Z</time>
      </trkpt>
      <trkpt lat="49.17247" lon="-0.57905">
        <ele>83.2</ele>
        <time>2023-04-25T11:24:37Z</time>
      </trkpt>
      <trkpt lat="49.17249" lon="-0.57918">
        <ele>83</ele>
        <time>2023-04-25T11:24:38Z</time>
      </trkpt>
      <trkpt lat="49.17251" lon="-0.57931">
        <ele>83</ele>
        <time>2023-04-25T11:24:39Z</time>
      </trkpt>
      <trkpt lat="49.17254" lon="-0.57944">
        <ele>83</ele>
        <time>2023-04-25T11:24:40Z</time>
      </trkpt>
      <trkpt lat="49.17256" lon="-0.57957">
        <ele>83.2</ele>
        <time>2023-04-25T11:24:41Z</time>
      </trkpt>
      <trkpt lat="49.17258" lon="-0.57969">
        <ele>83.4</ele>
        <time>2023-04-25T11:24:42Z</time>
      </trkpt>
      <trkpt lat="49.1726" lon="-0.57982">
        <ele>83.4</ele>
        <time>2023-04-25T11:24:43Z</time>
      </trkpt>
      <trkpt lat="49.17262" lon="-0.57994">
        <ele>83.4</ele>
        <time>2023-04-25T11:24:44Z</time>
      </trkpt>
      <trkpt lat="49.17264" lon="-0.58006">
        <ele>83.6</ele>
        <time>2023-04-25T11:24:45Z</time>
      </trkpt>
      <trkpt lat="49.17266" lon="-0.58017">
        <ele>83.6</ele>
        <time>2023-04-25T11:24:46Z</time>
      </trkpt>
      <trkpt lat="49.17268" lon="-0.58029">
        <ele>83.6</ele>
        <time>2023-04-25T11:24:47Z</time>
      </trkpt>
      <trkpt lat="49.1727" lon="-0.5804">
        <ele>83.6</ele>
        <time>2023-04-25T11:24:48Z</time>
      </trkpt>
      <trkpt lat="49.17272" lon="-0.58052">
        <ele>83.6</ele>
        <time>2023-04-25T11:24:49Z</time>
      </trkpt>
      <trkpt lat="49.17274" lon="-0.58063">
        <ele>83.6</ele>
        <time>2023-04-25T11:24:50Z</time>
      </trkpt>
      <trkpt lat="49.17276" lon="-0.58074">
        <ele>83.6</ele>
        <time>2023-04-25T11:24:51Z</time>
      </trkpt>
      <trkpt lat="49.17278" lon="-0.58085">
        <ele>83.6</ele>
        <time>2023-04-25T11:24:52Z</time>
      </trkpt>
      <trkpt lat="49.1728" lon="-0.58096">
        <ele>83.6</ele>
        <time>2023-04-25T11:24:53Z</time>
      </trkpt>
      <trkpt lat="49.17281" lon="-0.58107">
        <ele>83.8</ele>
        <time>2023-04-25T11:24:54Z</time>
      </trkpt>
      <trkpt lat="49.17283" lon="-0.58118">
        <ele>83.8</ele>
        <time>2023-04-25T11:24:55Z</time>
      </trkpt>
      <trkpt lat="49.17285" lon="-0.58129">
        <ele>83.8</ele>
        <time>2023-04-25T11:24:56Z</time>
      </trkpt>
      <trkpt lat="49.17287" lon="-0.5814">
        <ele>84</ele>
        <time>2023-04-25T11:24:57Z</time>
      </trkpt>
      <trkpt lat="49.17289" lon="-0.5815">
        <ele>84</ele>
        <time>2023-04-25T11:24:58Z</time>
      </trkpt>
      <trkpt lat="49.17291" lon="-0.58161">
        <ele>84</ele>
        <time>2023-04-25T11:24:59Z</time>
      </trkpt>
      <trkpt lat="49.17292" lon="-0.58171">
        <ele>84</ele>
        <time>2023-04-25T11:25:00Z</time>
      </trkpt>
      <trkpt lat="49.17294" lon="-0.58182">
        <ele>84</ele>
        <time>2023-04-25T11:25:01Z</time>
      </trkpt>
      <trkpt lat="49.17296" lon="-0.58192">
        <ele>84</ele>
        <time>2023-04-25T11:25:02Z</time>
      </trkpt>
      <trkpt lat="49.17298" lon="-0.58203">
        <ele>84.2</ele>
        <time>2023-04-25T11:25:03Z</time>
      </trkpt>
      <trkpt lat="49.17299" lon="-0.58213">
        <ele>84.4</ele>
        <time>2023-04-25T11:25:04Z</time>
      </trkpt>
      <trkpt lat="49.17301" lon="-0.58223">
        <ele>84.4</ele>
        <time>2023-04-25T11:25:05Z</time>
      </trkpt>
      <trkpt lat="49.17303" lon="-0.58234">
        <ele>84.6</ele>
        <time>2023-04-25T11:25:06Z</time>
      </trkpt>
      <trkpt lat="49.17305" lon="-0.58244">
        <ele>84.6</ele>
        <time>2023-04-25T11:25:07Z</time>
      </trkpt>
      <trkpt lat="49.17306" lon="-0.58254">
        <ele>84.6</ele>
        <time>2023-04-25T11:25:08Z</time>
      </trkpt>
      <trkpt lat="49.17308" lon="-0.58264">
        <ele>84.8</ele>
        <time>2023-04-25T11:25:09Z</time>
      </trkpt>
      <trkpt lat="49.1731" lon="-0.58274">
        <ele>85</ele>
        <time>2023-04-25T11:25:10Z</time>
      </trkpt>
      <trkpt lat="49.17311" lon="-0.58285">
        <ele>85</ele>
        <time>2023-04-25T11:25:11Z</time>
      </trkpt>
      <trkpt lat="49.17313" lon="-0.58295">
        <ele>85</ele>
        <time>2023-04-25T11:25:12Z</time>
      </trkpt>
      <trkpt lat="49.17315" lon="-0.58305">
        <ele>85</ele>
        <time>2023-04-25T11:25:13Z</time>
      </trkpt>
      <trkpt lat="49.17317" lon="-0.58315">
        <ele>85.2</ele>
        <time>2023-04-25T11:25:14Z</time>
      </trkpt>
      <trkpt lat="49.17318" lon="-0.58325">
        <ele>85.4</ele>
        <time>2023-04-25T11:25:15Z</time>
      </trkpt>
      <trkpt lat="49.1732" lon="-0.58335">
        <ele>85.4</ele>
        <time>2023-04-25T11:25:16Z</time>
      </trkpt>
      <trkpt lat="49.17322" lon="-0.58346">
        <ele>85.2</ele>
        <time>2023-04-25T11:25:17Z</time>
      </trkpt>
      <trkpt lat="49.17324" lon="-0.58356">
        <ele>85</ele>
        <time>2023-04-25T11:25:18Z</time>
      </trkpt>
      <trkpt lat="49.17325" lon="-0.58366">
        <ele>85</ele>
        <time>2023-04-25T11:25:19Z</time>
      </trkpt>
      <trkpt lat="49.17327" lon="-0.58376">
        <ele>84.6</ele>
        <time>2023-04-25T11:25:20Z</time>
      </trkpt>
      <trkpt lat="49.17328" lon="-0.58386">
        <ele>84.6</ele>
        <time>2023-04-25T11:25:21Z</time>
      </trkpt>
      <trkpt lat="49.1733" lon="-0.58396">
        <ele>84.4</ele>
        <time>2023-04-25T11:25:22Z</time>
      </trkpt>
      <trkpt lat="49.17332" lon="-0.58406">
        <ele>84.2</ele>
        <time>2023-04-25T11:25:23Z</time>
      </trkpt>
      <trkpt lat="49.17334" lon="-0.58416">
        <ele>84</ele>
        <time>2023-04-25T11:25:24Z</time>
      </trkpt>
      <trkpt lat="49.17335" lon="-0.58426">
        <ele>84</ele>
        <time>2023-04-25T11:25:25Z</time>
      </trkpt>
      <trkpt lat="49.17337" lon="-0.58436">
        <ele>84</ele>
        <time>2023-04-25T11:25:26Z</time>
      </trkpt>
      <trkpt lat="49.17338" lon="-0.58446">
        <ele>84</ele>
        <time>2023-04-25T11:25:27Z</time>
      </trkpt>
      <trkpt lat="49.1734" lon="-0.58456">
        <ele>84</ele>
        <time>2023-04-25T11:25:28Z</time>
      </trkpt>
      <trkpt lat="49.17342" lon="-0.58466">
        <ele>84</ele>
        <time>2023-04-25T11:25:29Z</time>
      </trkpt>
      <trkpt lat="49.17343" lon="-0.58475">
        <ele>84</ele>
        <time>2023-04-25T11:25:30Z</time>
      </trkpt>
      <trkpt lat="49.17345" lon="-0.58485">
        <ele>84</ele>
        <time>2023-04-25T11:25:31Z</time>
      </trkpt>
      <trkpt lat="49.17347" lon="-0.58495">
        <ele>84.2</ele>
        <time>2023-04-25T11:25:32Z</time>
      </trkpt>
      <trkpt lat="49.17348" lon="-0.58505">
        <ele>84.2</ele>
        <time>2023-04-25T11:25:33Z</time>
      </trkpt>
      <trkpt lat="49.1735" lon="-0.58515">
        <ele>84.2</ele>
        <time>2023-04-25T11:25:34Z</time>
      </trkpt>
      <trkpt lat="49.17352" lon="-0.58525">
        <ele>84.2</ele>
        <time>2023-04-25T11:25:35Z</time>
      </trkpt>
      <trkpt lat="49.17353" lon="-0.58536">
        <ele>84</ele>
        <time>2023-04-25T11:25:36Z</time>
      </trkpt>
      <trkpt lat="49.17355" lon="-0.58546">
        <ele>84</ele>
        <time>2023-04-25T11:25:37Z</time>
      </trkpt>
      <trkpt lat="49.17357" lon="-0.58557">
        <ele>84</ele>
        <time>2023-04-25T11:25:38Z</time>
      </trkpt>
      <trkpt lat="49.17359" lon="-0.58567">
        <ele>84</ele>
        <time>2023-04-25T11:25:39Z</time>
      </trkpt>
      <trkpt lat="49.1736" lon="-0.58577">
        <ele>84</ele>
        <time>2023-04-25T11:25:40Z</time>
      </trkpt>
      <trkpt lat="49.17362" lon="-0.58587">
        <ele>84</ele>
        <time>2023-04-25T11:25:41Z</time>
      </trkpt>
      <trkpt lat="49.17363" lon="-0.58598">
        <ele>84</ele>
        <time>2023-04-25T11:25:42Z</time>
      </trkpt>
      <trkpt lat="49.17365" lon="-0.58608">
        <ele>84.2</ele>
        <time>2023-04-25T11:25:43Z</time>
      </trkpt>
      <trkpt lat="49.17367" lon="-0.58618">
        <ele>84.2</ele>
        <time>2023-04-25T11:25:44Z</time>
      </trkpt>
      <trkpt lat="49.17369" lon="-0.58628">
        <ele>84.4</ele>
        <time>2023-04-25T11:25:45Z</time>
      </trkpt>
      <trkpt lat="49.1737" lon="-0.58638">
        <ele>84.4</ele>
        <time>2023-04-25T11:25:46Z</time>
      </trkpt>
      <trkpt lat="49.17372" lon="-0.58649">
        <ele>84.4</ele>
        <time>2023-04-25T11:25:47Z</time>
      </trkpt>
      <trkpt lat="49.17374" lon="-0.58659">
        <ele>84.6</ele>
        <time>2023-04-25T11:25:48Z</time>
      </trkpt>
      <trkpt lat="49.17376" lon="-0.58669">
        <ele>84.6</ele>
        <time>2023-04-25T11:25:49Z</time>
      </trkpt>
      <trkpt lat="49.17377" lon="-0.58679">
        <ele>84.6</ele>
        <time>2023-04-25T11:25:50Z</time>
      </trkpt>
      <trkpt lat="49.17379" lon="-0.58689">
        <ele>84.4</ele>
        <time>2023-04-25T11:25:51Z</time>
      </trkpt>
      <trkpt lat="49.17381" lon="-0.587">
        <ele>84.4</ele>
        <time>2023-04-25T11:25:52Z</time>
      </trkpt>
      <trkpt lat="49.17383" lon="-0.5871">
        <ele>84.4</ele>
        <time>2023-04-25T11:25:53Z</time>
      </trkpt>
      <trkpt lat="49.17384" lon="-0.5872">
        <ele>84.4</ele>
        <time>2023-04-25T11:25:54Z</time>
      </trkpt>
      <trkpt lat="49.17386" lon="-0.5873">
        <ele>84.4</ele>
        <time>2023-04-25T11:25:55Z</time>
      </trkpt>
      <trkpt lat="49.17388" lon="-0.58741">
        <ele>84.4</ele>
        <time>2023-04-25T11:25:56Z</time>
      </trkpt>
      <trkpt lat="49.17389" lon="-0.58751">
        <ele>84.4</ele>
        <time>2023-04-25T11:25:57Z</time>
      </trkpt>
      <trkpt lat="49.17391" lon="-0.58761">
        <ele>84.4</ele>
        <time>2023-04-25T11:25:58Z</time>
      </trkpt>
      <trkpt lat="49.17393" lon="-0.58771">
        <ele>84.2</ele>
        <time>2023-04-25T11:25:59Z</time>
      </trkpt>
      <trkpt lat="49.17395" lon="-0.58781">
        <ele>84.2</ele>
        <time>2023-04-25T11:26:00Z</time>
      </trkpt>
      <trkpt lat="49.17396" lon="-0.58792">
        <ele>84</ele>
        <time>2023-04-25T11:26:01Z</time>
      </trkpt>
      <trkpt lat="49.17398" lon="-0.58802">
        <ele>84</ele>
        <time>2023-04-25T11:26:02Z</time>
      </trkpt>
      <trkpt lat="49.174" lon="-0.58812">
        <ele>84</ele>
        <time>2023-04-25T11:26:03Z</time>
      </trkpt>
      <trkpt lat="49.17401" lon="-0.58823">
        <ele>84</ele>
        <time>2023-04-25T11:26:04Z</time>
      </trkpt>
      <trkpt lat="49.17403" lon="-0.58833">
        <ele>84</ele>
        <time>2023-04-25T11:26:05Z</time>
      </trkpt>
      <trkpt lat="49.17405" lon="-0.58843">
        <ele>84</ele>
        <time>2023-04-25T11:26:06Z</time>
      </trkpt>
      <trkpt lat="49.17407" lon="-0.58854">
        <ele>84</ele>
        <time>2023-04-25T11:26:07Z</time>
      </trkpt>
      <trkpt lat="49.17408" lon="-0.58864">
        <ele>84</ele>
        <time>2023-04-25T11:26:08Z</time>
      </trkpt>
      <trkpt lat="49.1741" lon="-0.58875">
        <ele>84</ele>
        <time>2023-04-25T11:26:09Z</time>
      </trkpt>
      <trkpt lat="49.17412" lon="-0.58885">
        <ele>84</ele>
        <time>2023-04-25T11:26:10Z</time>
      </trkpt>
      <trkpt lat="49.17414" lon="-0.58896">
        <ele>84</ele>
        <time>2023-04-25T11:26:11Z</time>
      </trkpt>
      <trkpt lat="49.17415" lon="-0.58906">
        <ele>84</ele>
        <time>2023-04-25T11:26:12Z</time>
      </trkpt>
      <trkpt lat="49.17417" lon="-0.58917">
        <ele>84</ele>
        <time>2023-04-25T11:26:13Z</time>
      </trkpt>
      <trkpt lat="49.17419" lon="-0.58928">
        <ele>84</ele>
        <time>2023-04-25T11:26:14Z</time>
      </trkpt>
      <trkpt lat="49.17421" lon="-0.58938">
        <ele>84</ele>
        <time>2023-04-25T11:26:15Z</time>
      </trkpt>
      <trkpt lat="49.17422" lon="-0.58949">
        <ele>84</ele>
        <time>2023-04-25T11:26:16Z</time>
      </trkpt>
      <trkpt lat="49.17424" lon="-0.58959">
        <ele>84</ele>
        <time>2023-04-25T11:26:17Z</time>
      </trkpt>
      <trkpt lat="49.17426" lon="-0.5897">
        <ele>84</ele>
        <time>2023-04-25T11:26:18Z</time>
      </trkpt>
      <trkpt lat="49.17428" lon="-0.58981">
        <ele>84</ele>
        <time>2023-04-25T11:26:19Z</time>
      </trkpt>
      <trkpt lat="49.1743" lon="-0.58991">
        <ele>84</ele>
        <time>2023-04-25T11:26:20Z</time>
      </trkpt>
      <trkpt lat="49.17431" lon="-0.59002">
        <ele>84</ele>
        <time>2023-04-25T11:26:21Z</time>
      </trkpt>
      <trkpt lat="49.17433" lon="-0.59013">
        <ele>83.8</ele>
        <time>2023-04-25T11:26:22Z</time>
      </trkpt>
      <trkpt lat="49.17435" lon="-0.59023">
        <ele>83.6</ele>
        <time>2023-04-25T11:26:23Z</time>
      </trkpt>
      <trkpt lat="49.17437" lon="-0.59034">
        <ele>83.6</ele>
        <time>2023-04-25T11:26:24Z</time>
      </trkpt>
      <trkpt lat="49.17439" lon="-0.59044">
        <ele>83.6</ele>
        <time>2023-04-25T11:26:25Z</time>
      </trkpt>
      <trkpt lat="49.1744" lon="-0.59055">
        <ele>83.4</ele>
        <time>2023-04-25T11:26:26Z</time>
      </trkpt>
      <trkpt lat="49.17442" lon="-0.59066">
        <ele>83.2</ele>
        <time>2023-04-25T11:26:27Z</time>
      </trkpt>
      <trkpt lat="49.17444" lon="-0.59076">
        <ele>83</ele>
        <time>2023-04-25T11:26:28Z</time>
      </trkpt>
      <trkpt lat="49.17445" lon="-0.59087">
        <ele>83</ele>
        <time>2023-04-25T11:26:29Z</time>
      </trkpt>
      <trkpt lat="49.17447" lon="-0.59097">
        <ele>83</ele>
        <time>2023-04-25T11:26:30Z</time>
      </trkpt>
      <trkpt lat="49.17449" lon="-0.59108">
        <ele>83</ele>
        <time>2023-04-25T11:26:31Z</time>
      </trkpt>
      <trkpt lat="49.17451" lon="-0.59118">
        <ele>83</ele>
        <time>2023-04-25T11:26:32Z</time>
      </trkpt>
      <trkpt lat="49.17453" lon="-0.59129">
        <ele>83</ele>
        <time>2023-04-25T11:26:33Z</time>
      </trkpt>
      <trkpt lat="49.17454" lon="-0.59139">
        <ele>83</ele>
        <time>2023-04-25T11:26:34Z</time>
      </trkpt>
      <trkpt lat="49.17456" lon="-0.5915">
        <ele>83</ele>
        <time>2023-04-25T11:26:35Z</time>
      </trkpt>
      <trkpt lat="49.17458" lon="-0.5916">
        <ele>83</ele>
        <time>2023-04-25T11:26:36Z</time>
      </trkpt>
      <trkpt lat="49.1746" lon="-0.59171">
        <ele>83</ele>
        <time>2023-04-25T11:26:37Z</time>
      </trkpt>
      <trkpt lat="49.17461" lon="-0.59181">
        <ele>83.2</ele>
        <time>2023-04-25T11:26:38Z</time>
      </trkpt>
      <trkpt lat="49.17463" lon="-0.59191">
        <ele>83.4</ele>
        <time>2023-04-25T11:26:39Z</time>
      </trkpt>
      <trkpt lat="49.17465" lon="-0.59202">
        <ele>83.4</ele>
        <time>2023-04-25T11:26:40Z</time>
      </trkpt>
      <trkpt lat="49.17466" lon="-0.59212">
        <ele>83.6</ele>
        <time>2023-04-25T11:26:41Z</time>
      </trkpt>
      <trkpt lat="49.17468" lon="-0.59222">
        <ele>83.6</ele>
        <time>2023-04-25T11:26:42Z</time>
      </trkpt>
      <trkpt lat="49.1747" lon="-0.59232">
        <ele>83.8</ele>
        <time>2023-04-25T11:26:43Z</time>
      </trkpt>
      <trkpt lat="49.17472" lon="-0.59242">
        <ele>84</ele>
        <time>2023-04-25T11:26:44Z</time>
      </trkpt>
      <trkpt lat="49.17473" lon="-0.59253">
        <ele>84</ele>
        <time>2023-04-25T11:26:45Z</time>
      </trkpt>
      <trkpt lat="49.17475" lon="-0.59263">
        <ele>84</ele>
        <time>2023-04-25T11:26:46Z</time>
      </trkpt>
      <trkpt lat="49.17477" lon="-0.59273">
        <ele>84</ele>
        <time>2023-04-25T11:26:47Z</time>
      </trkpt>
      <trkpt lat="49.17478" lon="-0.59283">
        <ele>83.8</ele>
        <time>2023-04-25T11:26:48Z</time>
      </trkpt>
      <trkpt lat="49.1748" lon="-0.59293">
        <ele>83.6</ele>
        <time>2023-04-25T11:26:49Z</time>
      </trkpt>
      <trkpt lat="49.17482" lon="-0.59303">
        <ele>83.6</ele>
        <time>2023-04-25T11:26:50Z</time>
      </trkpt>
      <trkpt lat="49.17483" lon="-0.59313">
        <ele>83.6</ele>
        <time>2023-04-25T11:26:51Z</time>
      </trkpt>
      <trkpt lat="49.17485" lon="-0.59324">
        <ele>83.4</ele>
        <time>2023-04-25T11:26:52Z</time>
      </trkpt>
      <trkpt lat="49.17487" lon="-0.59334">
        <ele>83.4</ele>
        <time>2023-04-25T11:26:53Z</time>
      </trkpt>
      <trkpt lat="49.17489" lon="-0.59344">
        <ele>83.4</ele>
        <time>2023-04-25T11:26:54Z</time>
      </trkpt>
      <trkpt lat="49.1749" lon="-0.59354">
        <ele>83.2</ele>
        <time>2023-04-25T11:26:55Z</time>
      </trkpt>
      <trkpt lat="49.17492" lon="-0.59365">
        <ele>83.2</ele>
        <time>2023-04-25T11:26:56Z</time>
      </trkpt>
      <trkpt lat="49.17494" lon="-0.59375">
        <ele>83.2</ele>
        <time>2023-04-25T11:26:57Z</time>
      </trkpt>
      <trkpt lat="49.17495" lon="-0.59385">
        <ele>83</ele>
        <time>2023-04-25T11:26:58Z</time>
      </trkpt>
      <trkpt lat="49.17497" lon="-0.59395">
        <ele>83</ele>
        <time>2023-04-25T11:26:59Z</time>
      </trkpt>
      <trkpt lat="49.17499" lon="-0.59405">
        <ele>83</ele>
        <time>2023-04-25T11:27:00Z</time>
      </trkpt>
      <trkpt lat="49.17501" lon="-0.59416">
        <ele>83</ele>
        <time>2023-04-25T11:27:01Z</time>
      </trkpt>
      <trkpt lat="49.17502" lon="-0.59426">
        <ele>83</ele>
        <time>2023-04-25T11:27:02Z</time>
      </trkpt>
      <trkpt lat="49.17504" lon="-0.59436">
        <ele>83</ele>
        <time>2023-04-25T11:27:03Z</time>
      </trkpt>
      <trkpt lat="49.17506" lon="-0.59446">
        <ele>83.2</ele>
        <time>2023-04-25T11:27:04Z</time>
      </trkpt>
      <trkpt lat="49.17508" lon="-0.59457">
        <ele>83.4</ele>
        <time>2023-04-25T11:27:05Z</time>
      </trkpt>
      <trkpt lat="49.17509" lon="-0.59467">
        <ele>83.4</ele>
        <time>2023-04-25T11:27:06Z</time>
      </trkpt>
      <trkpt lat="49.17511" lon="-0.59477">
        <ele>83.6</ele>
        <time>2023-04-25T11:27:07Z</time>
      </trkpt>
      <trkpt lat="49.17513" lon="-0.59487">
        <ele>83.6</ele>
        <time>2023-04-25T11:27:08Z</time>
      </trkpt>
      <trkpt lat="49.17514" lon="-0.59497">
        <ele>83.6</ele>
        <time>2023-04-25T11:27:09Z</time>
      </trkpt>
      <trkpt lat="49.17516" lon="-0.59507">
        <ele>83.6</ele>
        <time>2023-04-25T11:27:10Z</time>
      </trkpt>
      <trkpt lat="49.17518" lon="-0.59518">
        <ele>83.6</ele>
        <time>2023-04-25T11:27:11Z</time>
      </trkpt>
      <trkpt lat="49.1752" lon="-0.59528">
        <ele>83.6</ele>
        <time>2023-04-25T11:27:12Z</time>
      </trkpt>
      <trkpt lat="49.17521" lon="-0.59538">
        <ele>83.6</ele>
        <time>2023-04-25T11:27:13Z</time>
      </trkpt>
      <trkpt lat="49.17523" lon="-0.59548">
        <ele>83.6</ele>
        <time>2023-04-25T11:27:14Z</time>
      </trkpt>
      <trkpt lat="49.17525" lon="-0.59559">
        <ele>83.6</ele>
        <time>2023-04-25T11:27:15Z</time>
      </trkpt>
      <trkpt lat="49.17526" lon="-0.59569">
        <ele>83.6</ele>
        <time>2023-04-25T11:27:16Z</time>
      </trkpt>
      <trkpt lat="49.17528" lon="-0.5958">
        <ele>83.6</ele>
        <time>2023-04-25T11:27:17Z</time>
      </trkpt>
      <trkpt lat="49.1753" lon="-0.5959">
        <ele>83.6</ele>
        <time>2023-04-25T11:27:18Z</time>
      </trkpt>
      <trkpt lat="49.17532" lon="-0.59601">
        <ele>83.6</ele>
        <time>2023-04-25T11:27:19Z</time>
      </trkpt>
      <trkpt lat="49.17533" lon="-0.59611">
        <ele>83.6</ele>
        <time>2023-04-25T11:27:20Z</time>
      </trkpt>
      <trkpt lat="49.17535" lon="-0.59622">
        <ele>83.4</ele>
        <time>2023-04-25T11:27:21Z</time>
      </trkpt>
      <trkpt lat="49.17537" lon="-0.59633">
        <ele>83.4</ele>
        <time>2023-04-25T11:27:22Z</time>
      </trkpt>
      <trkpt lat="49.17539" lon="-0.59644">
        <ele>83.2</ele>
        <time>2023-04-25T11:27:23Z</time>
      </trkpt>
      <trkpt lat="49.17541" lon="-0.59655">
        <ele>83</ele>
        <time>2023-04-25T11:27:24Z</time>
      </trkpt>
      <trkpt lat="49.17543" lon="-0.59666">
        <ele>83</ele>
        <time>2023-04-25T11:27:25Z</time>
      </trkpt>
      <trkpt lat="49.17544" lon="-0.59677">
        <ele>82.8</ele>
        <time>2023-04-25T11:27:26Z</time>
      </trkpt>
      <trkpt lat="49.17546" lon="-0.59688">
        <ele>82.6</ele>
        <time>2023-04-25T11:27:27Z</time>
      </trkpt>
      <trkpt lat="49.17548" lon="-0.59699">
        <ele>82.4</ele>
        <time>2023-04-25T11:27:28Z</time>
      </trkpt>
      <trkpt lat="49.1755" lon="-0.5971">
        <ele>82</ele>
        <time>2023-04-25T11:27:29Z</time>
      </trkpt>
      <trkpt lat="49.17552" lon="-0.59721">
        <ele>82</ele>
        <time>2023-04-25T11:27:30Z</time>
      </trkpt>
      <trkpt lat="49.17553" lon="-0.59732">
        <ele>81.6</ele>
        <time>2023-04-25T11:27:31Z</time>
      </trkpt>
      <trkpt lat="49.17555" lon="-0.59743">
        <ele>81.6</ele>
        <time>2023-04-25T11:27:32Z</time>
      </trkpt>
      <trkpt lat="49.17557" lon="-0.59754">
        <ele>81.4</ele>
        <time>2023-04-25T11:27:33Z</time>
      </trkpt>
      <trkpt lat="49.17559" lon="-0.59765">
        <ele>81.2</ele>
        <time>2023-04-25T11:27:34Z</time>
      </trkpt>
      <trkpt lat="49.17561" lon="-0.59776">
        <ele>81</ele>
        <time>2023-04-25T11:27:35Z</time>
      </trkpt>
      <trkpt lat="49.17563" lon="-0.59788">
        <ele>81</ele>
        <time>2023-04-25T11:27:36Z</time>
      </trkpt>
      <trkpt lat="49.17565" lon="-0.59799">
        <ele>80.8</ele>
        <time>2023-04-25T11:27:37Z</time>
      </trkpt>
      <trkpt lat="49.17567" lon="-0.5981">
        <ele>80.6</ele>
        <time>2023-04-25T11:27:38Z</time>
      </trkpt>
      <trkpt lat="49.17569" lon="-0.59822">
        <ele>80.6</ele>
        <time>2023-04-25T11:27:39Z</time>
      </trkpt>
      <trkpt lat="49.1757" lon="-0.59833">
        <ele>80.4</ele>
        <time>2023-04-25T11:27:40Z</time>
      </trkpt>
      <trkpt lat="49.17572" lon="-0.59845">
        <ele>80.2</ele>
        <time>2023-04-25T11:27:41Z</time>
      </trkpt>
      <trkpt lat="49.17574" lon="-0.59856">
        <ele>80.2</ele>
        <time>2023-04-25T11:27:42Z</time>
      </trkpt>
      <trkpt lat="49.17576" lon="-0.59867">
        <ele>80</ele>
        <time>2023-04-25T11:27:43Z</time>
      </trkpt>
      <trkpt lat="49.17578" lon="-0.59879">
        <ele>80</ele>
        <time>2023-04-25T11:27:44Z</time>
      </trkpt>
      <trkpt lat="49.1758" lon="-0.5989">
        <ele>80</ele>
        <time>2023-04-25T11:27:45Z</time>
      </trkpt>
      <trkpt lat="49.17582" lon="-0.59902">
        <ele>80</ele>
        <time>2023-04-25T11:27:46Z</time>
      </trkpt>
      <trkpt lat="49.17584" lon="-0.59913">
        <ele>80</ele>
        <time>2023-04-25T11:27:47Z</time>
      </trkpt>
      <trkpt lat="49.17586" lon="-0.59924">
        <ele>80</ele>
        <time>2023-04-25T11:27:48Z</time>
      </trkpt>
      <trkpt lat="49.17588" lon="-0.59936">
        <ele>79.6</ele>
        <time>2023-04-25T11:27:49Z</time>
      </trkpt>
      <trkpt lat="49.1759" lon="-0.59947">
        <ele>79.6</ele>
        <time>2023-04-25T11:27:50Z</time>
      </trkpt>
      <trkpt lat="49.17591" lon="-0.59959">
        <ele>79.4</ele>
        <time>2023-04-25T11:27:51Z</time>
      </trkpt>
      <trkpt lat="49.17593" lon="-0.5997">
        <ele>79.2</ele>
        <time>2023-04-25T11:27:52Z</time>
      </trkpt>
      <trkpt lat="49.17595" lon="-0.59981">
        <ele>79</ele>
        <time>2023-04-25T11:27:53Z</time>
      </trkpt>
      <trkpt lat="49.17597" lon="-0.59993">
        <ele>79</ele>
        <time>2023-04-25T11:27:54Z</time>
      </trkpt>
      <trkpt lat="49.17599" lon="-0.60004">
        <ele>78.8</ele>
        <time>2023-04-25T11:27:55Z</time>
      </trkpt>
      <trkpt lat="49.17601" lon="-0.60016">
        <ele>78.6</ele>
        <time>2023-04-25T11:27:56Z</time>
      </trkpt>
      <trkpt lat="49.17603" lon="-0.60027">
        <ele>78.6</ele>
        <time>2023-04-25T11:27:57Z</time>
      </trkpt>
      <trkpt lat="49.17605" lon="-0.60039">
        <ele>78.6</ele>
        <time>2023-04-25T11:27:58Z</time>
      </trkpt>
      <trkpt lat="49.17607" lon="-0.60051">
        <ele>78.6</ele>
        <time>2023-04-25T11:27:59Z</time>
      </trkpt>
      <trkpt lat="49.17609" lon="-0.60064">
        <ele>78.6</ele>
        <time>2023-04-25T11:28:00Z</time>
      </trkpt>
      <trkpt lat="49.17611" lon="-0.60076">
        <ele>78.4</ele>
        <time>2023-04-25T11:28:01Z</time>
      </trkpt>
      <trkpt lat="49.17613" lon="-0.60089">
        <ele>78.2</ele>
        <time>2023-04-25T11:28:02Z</time>
      </trkpt>
      <trkpt lat="49.17615" lon="-0.60101">
        <ele>78</ele>
        <time>2023-04-25T11:28:03Z</time>
      </trkpt>
      <trkpt lat="49.17617" lon="-0.60114">
        <ele>78</ele>
        <time>2023-04-25T11:28:04Z</time>
      </trkpt>
      <trkpt lat="49.1762" lon="-0.60128">
        <ele>77.8</ele>
        <time>2023-04-25T11:28:05Z</time>
      </trkpt>
      <trkpt lat="49.17622" lon="-0.60141">
        <ele>77.6</ele>
        <time>2023-04-25T11:28:06Z</time>
      </trkpt>
      <trkpt lat="49.17624" lon="-0.60155">
        <ele>77.6</ele>
        <time>2023-04-25T11:28:07Z</time>
      </trkpt>
      <trkpt lat="49.17626" lon="-0.60168">
        <ele>77.4</ele>
        <time>2023-04-25T11:28:08Z</time>
      </trkpt>
      <trkpt lat="49.17629" lon="-0.60182">
        <ele>77</ele>
        <time>2023-04-25T11:28:09Z</time>
      </trkpt>
      <trkpt lat="49.17631" lon="-0.60196">
        <ele>76.6</ele>
        <time>2023-04-25T11:28:10Z</time>
      </trkpt>
      <trkpt lat="49.17633" lon="-0.60211">
        <ele>76</ele>
        <time>2023-04-25T11:28:11Z</time>
      </trkpt>
      <trkpt lat="49.17636" lon="-0.60225">
        <ele>75.6</ele>
        <time>2023-04-25T11:28:12Z</time>
      </trkpt>
      <trkpt lat="49.17638" lon="-0.60239">
        <ele>75.4</ele>
        <time>2023-04-25T11:28:13Z</time>
      </trkpt>
      <trkpt lat="49.1764" lon="-0.60254">
        <ele>75</ele>
        <time>2023-04-25T11:28:14Z</time>
      </trkpt>
      <trkpt lat="49.17643" lon="-0.60268">
        <ele>74.6</ele>
        <time>2023-04-25T11:28:15Z</time>
      </trkpt>
      <trkpt lat="49.17645" lon="-0.60283">
        <ele>74.4</ele>
        <time>2023-04-25T11:28:16Z</time>
      </trkpt>
      <trkpt lat="49.17648" lon="-0.60297">
        <ele>74.2</ele>
        <time>2023-04-25T11:28:17Z</time>
      </trkpt>
      <trkpt lat="49.1765" lon="-0.60311">
        <ele>74</ele>
        <time>2023-04-25T11:28:18Z</time>
      </trkpt>
      <trkpt lat="49.17652" lon="-0.60325">
        <ele>73.8</ele>
        <time>2023-04-25T11:28:19Z</time>
      </trkpt>
      <trkpt lat="49.17655" lon="-0.60339">
        <ele>73.6</ele>
        <time>2023-04-25T11:28:20Z</time>
      </trkpt>
      <trkpt lat="49.17657" lon="-0.60353">
        <ele>73.6</ele>
        <time>2023-04-25T11:28:21Z</time>
      </trkpt>
      <trkpt lat="49.17659" lon="-0.60366">
        <ele>73.8</ele>
        <time>2023-04-25T11:28:22Z</time>
      </trkpt>
      <trkpt lat="49.17661" lon="-0.60379">
        <ele>73.8</ele>
        <time>2023-04-25T11:28:23Z</time>
      </trkpt>
      <trkpt lat="49.17663" lon="-0.60392">
        <ele>74</ele>
        <time>2023-04-25T11:28:24Z</time>
      </trkpt>
      <trkpt lat="49.17665" lon="-0.60404">
        <ele>74</ele>
        <time>2023-04-25T11:28:25Z</time>
      </trkpt>
      <trkpt lat="49.17668" lon="-0.60416">
        <ele>74</ele>
        <time>2023-04-25T11:28:26Z</time>
      </trkpt>
      <trkpt lat="49.17669" lon="-0.60427">
        <ele>74.4</ele>
        <time>2023-04-25T11:28:27Z</time>
      </trkpt>
      <trkpt lat="49.17671" lon="-0.60439">
        <ele>74.6</ele>
        <time>2023-04-25T11:28:28Z</time>
      </trkpt>
      <trkpt lat="49.17673" lon="-0.6045">
        <ele>75</ele>
        <time>2023-04-25T11:28:29Z</time>
      </trkpt>
      <trkpt lat="49.17675" lon="-0.6046">
        <ele>75.4</ele>
        <time>2023-04-25T11:28:30Z</time>
      </trkpt>
      <trkpt lat="49.17677" lon="-0.60471">
        <ele>75.6</ele>
        <time>2023-04-25T11:28:31Z</time>
      </trkpt>
      <trkpt lat="49.17678" lon="-0.60481">
        <ele>76</ele>
        <time>2023-04-25T11:28:32Z</time>
      </trkpt>
      <trkpt lat="49.1768" lon="-0.60491">
        <ele>76.4</ele>
        <time>2023-04-25T11:28:33Z</time>
      </trkpt>
      <trkpt lat="49.17682" lon="-0.60501">
        <ele>76.6</ele>
        <time>2023-04-25T11:28:34Z</time>
      </trkpt>
      <trkpt lat="49.17684" lon="-0.60511">
        <ele>77</ele>
        <time>2023-04-25T11:28:35Z</time>
      </trkpt>
      <trkpt lat="49.17685" lon="-0.60521">
        <ele>77.4</ele>
        <time>2023-04-25T11:28:36Z</time>
      </trkpt>
      <trkpt lat="49.17687" lon="-0.60531">
        <ele>77.6</ele>
        <time>2023-04-25T11:28:37Z</time>
      </trkpt>
      <trkpt lat="49.17688" lon="-0.60541">
        <ele>78</ele>
        <time>2023-04-25T11:28:38Z</time>
      </trkpt>
      <trkpt lat="49.1769" lon="-0.6055">
        <ele>78</ele>
        <time>2023-04-25T11:28:39Z</time>
      </trkpt>
      <trkpt lat="49.17691" lon="-0.6056">
        <ele>78.4</ele>
        <time>2023-04-25T11:28:40Z</time>
      </trkpt>
      <trkpt lat="49.17693" lon="-0.60569">
        <ele>78.6</ele>
        <time>2023-04-25T11:28:41Z</time>
      </trkpt>
      <trkpt lat="49.17695" lon="-0.60579">
        <ele>79</ele>
        <time>2023-04-25T11:28:42Z</time>
      </trkpt>
      <trkpt lat="49.17696" lon="-0.60588">
        <ele>79</ele>
        <time>2023-04-25T11:28:43Z</time>
      </trkpt>
      <trkpt lat="49.17698" lon="-0.60597">
        <ele>79.2</ele>
        <time>2023-04-25T11:28:44Z</time>
      </trkpt>
      <trkpt lat="49.177" lon="-0.60606">
        <ele>79.4</ele>
        <time>2023-04-25T11:28:45Z</time>
      </trkpt>
      <trkpt lat="49.17701" lon="-0.60614">
        <ele>79.4</ele>
        <time>2023-04-25T11:28:46Z</time>
      </trkpt>
      <trkpt lat="49.17703" lon="-0.60623">
        <ele>79.6</ele>
        <time>2023-04-25T11:28:47Z</time>
      </trkpt>
      <trkpt lat="49.17705" lon="-0.60632">
        <ele>79.6</ele>
        <time>2023-04-25T11:28:48Z</time>
      </trkpt>
      <trkpt lat="49.17706" lon="-0.60641">
        <ele>79.6</ele>
        <time>2023-04-25T11:28:49Z</time>
      </trkpt>
      <trkpt lat="49.17708" lon="-0.6065">
        <ele>79.8</ele>
        <time>2023-04-25T11:28:50Z</time>
      </trkpt>
      <trkpt lat="49.17709" lon="-0.60659">
        <ele>80</ele>
        <time>2023-04-25T11:28:51Z</time>
      </trkpt>
      <trkpt lat="49.17711" lon="-0.60667">
        <ele>80</ele>
        <time>2023-04-25T11:28:52Z</time>
      </trkpt>
      <trkpt lat="49.17712" lon="-0.60676">
        <ele>80</ele>
        <time>2023-04-25T11:28:53Z</time>
      </trkpt>
      <trkpt lat="49.17714" lon="-0.60685">
        <ele>80</ele>
        <time>2023-04-25T11:28:54Z</time>
      </trkpt>
      <trkpt lat="49.17715" lon="-0.60694">
        <ele>80</ele>
        <time>2023-04-25T11:28:55Z</time>
      </trkpt>
      <trkpt lat="49.17717" lon="-0.60703">
        <ele>80</ele>
        <time>2023-04-25T11:28:56Z</time>
      </trkpt>
      <trkpt lat="49.17718" lon="-0.60712">
        <ele>80</ele>
        <time>2023-04-25T11:28:57Z</time>
      </trkpt>
      <trkpt lat="49.1772" lon="-0.60721">
        <ele>80</ele>
        <time>2023-04-25T11:28:58Z</time>
      </trkpt>
      <trkpt lat="49.17721" lon="-0.6073">
        <ele>80</ele>
        <time>2023-04-25T11:28:59Z</time>
      </trkpt>
      <trkpt lat="49.17722" lon="-0.60738">
        <ele>80</ele>
        <time>2023-04-25T11:29:00Z</time>
      </trkpt>
      <trkpt lat="49.17724" lon="-0.60747">
        <ele>80</ele>
        <time>2023-04-25T11:29:01Z</time>
      </trkpt>
      <trkpt lat="49.17725" lon="-0.60756">
        <ele>80</ele>
        <time>2023-04-25T11:29:02Z</time>
      </trkpt>
      <trkpt lat="49.17726" lon="-0.60765">
        <ele>80.2</ele>
        <time>2023-04-25T11:29:03Z</time>
      </trkpt>
      <trkpt lat="49.17727" lon="-0.60773">
        <ele>80.4</ele>
        <time>2023-04-25T11:29:04Z</time>
      </trkpt>
      <trkpt lat="49.17728" lon="-0.60782">
        <ele>80.4</ele>
        <time>2023-04-25T11:29:05Z</time>
      </trkpt>
      <trkpt lat="49.1773" lon="-0.6079">
        <ele>80.6</ele>
        <time>2023-04-25T11:29:06Z</time>
      </trkpt>
      <trkpt lat="49.17731" lon="-0.60798">
        <ele>80.6</ele>
        <time>2023-04-25T11:29:07Z</time>
      </trkpt>
      <trkpt lat="49.17732" lon="-0.60807">
        <ele>80.6</ele>
        <time>2023-04-25T11:29:08Z</time>
      </trkpt>
      <trkpt lat="49.17733" lon="-0.60815">
        <ele>80.8</ele>
        <time>2023-04-25T11:29:09Z</time>
      </trkpt>
      <trkpt lat="49.17734" lon="-0.60823">
        <ele>81</ele>
        <time>2023-04-25T11:29:10Z</time>
      </trkpt>
      <trkpt lat="49.17736" lon="-0.6083">
        <ele>81</ele>
        <time>2023-04-25T11:29:11Z</time>
      </trkpt>
      <trkpt lat="49.17737" lon="-0.60838">
        <ele>81</ele>
        <time>2023-04-25T11:29:12Z</time>
      </trkpt>
      <trkpt lat="49.17738" lon="-0.60846">
        <ele>81</ele>
        <time>2023-04-25T11:29:13Z</time>
      </trkpt>
      <trkpt lat="49.1774" lon="-0.60854">
        <ele>81</ele>
        <time>2023-04-25T11:29:14Z</time>
      </trkpt>
      <trkpt lat="49.17741" lon="-0.60862">
        <ele>81</ele>
        <time>2023-04-25T11:29:15Z</time>
      </trkpt>
      <trkpt lat="49.17742" lon="-0.60869">
        <ele>81</ele>
        <time>2023-04-25T11:29:16Z</time>
      </trkpt>
      <trkpt lat="49.17744" lon="-0.60877">
        <ele>81</ele>
        <time>2023-04-25T11:29:17Z</time>
      </trkpt>
      <trkpt lat="49.17745" lon="-0.60885">
        <ele>81</ele>
        <time>2023-04-25T11:29:18Z</time>
      </trkpt>
      <trkpt lat="49.17746" lon="-0.60893">
        <ele>81</ele>
        <time>2023-04-25T11:29:19Z</time>
      </trkpt>
      <trkpt lat="49.17748" lon="-0.60901">
        <ele>81</ele>
        <time>2023-04-25T11:29:20Z</time>
      </trkpt>
      <trkpt lat="49.17749" lon="-0.60909">
        <ele>81</ele>
        <time>2023-04-25T11:29:21Z</time>
      </trkpt>
      <trkpt lat="49.17751" lon="-0.60918">
        <ele>81</ele>
        <time>2023-04-25T11:29:22Z</time>
      </trkpt>
      <trkpt lat="49.17752" lon="-0.60926">
        <ele>81</ele>
        <time>2023-04-25T11:29:23Z</time>
      </trkpt>
      <trkpt lat="49.17753" lon="-0.60934">
        <ele>81</ele>
        <time>2023-04-25T11:29:24Z</time>
      </trkpt>
      <trkpt lat="49.17755" lon="-0.60943">
        <ele>81</ele>
        <time>2023-04-25T11:29:25Z</time>
      </trkpt>
      <trkpt lat="49.17756" lon="-0.60952">
        <ele>81</ele>
        <time>2023-04-25T11:29:26Z</time>
      </trkpt>
      <trkpt lat="49.17758" lon="-0.6096">
        <ele>81</ele>
        <time>2023-04-25T11:29:27Z</time>
      </trkpt>
      <trkpt lat="49.17759" lon="-0.60969">
        <ele>81</ele>
        <time>2023-04-25T11:29:28Z</time>
      </trkpt>
      <trkpt lat="49.17761" lon="-0.60978">
        <ele>81</ele>
        <time>2023-04-25T11:29:29Z</time>
      </trkpt>
      <trkpt lat="49.17762" lon="-0.60988">
        <ele>81</ele>
        <time>2023-04-25T11:29:30Z</time>
      </trkpt>
      <trkpt lat="49.17764" lon="-0.60997">
        <ele>81</ele>
        <time>2023-04-25T11:29:31Z</time>
      </trkpt>
      <trkpt lat="49.17765" lon="-0.61006">
        <ele>81</ele>
        <time>2023-04-25T11:29:32Z</time>
      </trkpt>
      <trkpt lat="49.17767" lon="-0.61016">
        <ele>81.2</ele>
        <time>2023-04-25T11:29:33Z</time>
      </trkpt>
      <trkpt lat="49.17768" lon="-0.61025">
        <ele>81.4</ele>
        <time>2023-04-25T11:29:34Z</time>
      </trkpt>
      <trkpt lat="49.1777" lon="-0.61035">
        <ele>81.4</ele>
        <time>2023-04-25T11:29:35Z</time>
      </trkpt>
      <trkpt lat="49.17771" lon="-0.61044">
        <ele>81.6</ele>
        <time>2023-04-25T11:29:36Z</time>
      </trkpt>
      <trkpt lat="49.17773" lon="-0.61054">
        <ele>81.6</ele>
        <time>2023-04-25T11:29:37Z</time>
      </trkpt>
      <trkpt lat="49.17774" lon="-0.61063">
        <ele>81.8</ele>
        <time>2023-04-25T11:29:38Z</time>
      </trkpt>
      <trkpt lat="49.17776" lon="-0.61073">
        <ele>82</ele>
        <time>2023-04-25T11:29:39Z</time>
      </trkpt>
      <trkpt lat="49.17777" lon="-0.61082">
        <ele>82</ele>
        <time>2023-04-25T11:29:40Z</time>
      </trkpt>
      <trkpt lat="49.17779" lon="-0.61091">
        <ele>82</ele>
        <time>2023-04-25T11:29:41Z</time>
      </trkpt>
      <trkpt lat="49.1778" lon="-0.61101">
        <ele>82</ele>
        <time>2023-04-25T11:29:42Z</time>
      </trkpt>
      <trkpt lat="49.17782" lon="-0.6111">
        <ele>82</ele>
        <time>2023-04-25T11:29:43Z</time>
      </trkpt>
      <trkpt lat="49.17784" lon="-0.61119">
        <ele>82</ele>
        <time>2023-04-25T11:29:44Z</time>
      </trkpt>
      <trkpt lat="49.17785" lon="-0.61129">
        <ele>82</ele>
        <time>2023-04-25T11:29:45Z</time>
      </trkpt>
      <trkpt lat="49.17787" lon="-0.61138">
        <ele>82</ele>
        <time>2023-04-25T11:29:46Z</time>
      </trkpt>
      <trkpt lat="49.17788" lon="-0.61148">
        <ele>82</ele>
        <time>2023-04-25T11:29:47Z</time>
      </trkpt>
      <trkpt lat="49.1779" lon="-0.61157">
        <ele>82</ele>
        <time>2023-04-25T11:29:48Z</time>
      </trkpt>
      <trkpt lat="49.17791" lon="-0.61167">
        <ele>82</ele>
        <time>2023-04-25T11:29:49Z</time>
      </trkpt>
      <trkpt lat="49.17793" lon="-0.61177">
        <ele>82</ele>
        <time>2023-04-25T11:29:50Z</time>
      </trkpt>
      <trkpt lat="49.17794" lon="-0.61187">
        <ele>81.8</ele>
        <time>2023-04-25T11:29:51Z</time>
      </trkpt>
      <trkpt lat="49.17796" lon="-0.61196">
        <ele>81.6</ele>
        <time>2023-04-25T11:29:52Z</time>
      </trkpt>
      <trkpt lat="49.17798" lon="-0.61206">
        <ele>81.6</ele>
        <time>2023-04-25T11:29:53Z</time>
      </trkpt>
      <trkpt lat="49.178" lon="-0.61216">
        <ele>81.6</ele>
        <time>2023-04-25T11:29:54Z</time>
      </trkpt>
      <trkpt lat="49.17802" lon="-0.61226">
        <ele>81.6</ele>
        <time>2023-04-25T11:29:55Z</time>
      </trkpt>
      <trkpt lat="49.17804" lon="-0.61236">
        <ele>81.6</ele>
        <time>2023-04-25T11:29:56Z</time>
      </trkpt>
      <trkpt lat="49.17806" lon="-0.61246">
        <ele>81.4</ele>
        <time>2023-04-25T11:29:57Z</time>
      </trkpt>
      <trkpt lat="49.17808" lon="-0.61257">
        <ele>81.2</ele>
        <time>2023-04-25T11:29:58Z</time>
      </trkpt>
      <trkpt lat="49.1781" lon="-0.61267">
        <ele>81</ele>
        <time>2023-04-25T11:29:59Z</time>
      </trkpt>
      <trkpt lat="49.17812" lon="-0.61277">
        <ele>80.8</ele>
        <time>2023-04-25T11:30:00Z</time>
      </trkpt>
      <trkpt lat="49.17813" lon="-0.61288">
        <ele>80.6</ele>
        <time>2023-04-25T11:30:01Z</time>
      </trkpt>
      <trkpt lat="49.17815" lon="-0.61298">
        <ele>80.2</ele>
        <time>2023-04-25T11:30:02Z</time>
      </trkpt>
      <trkpt lat="49.17817" lon="-0.61308">
        <ele>80</ele>
        <time>2023-04-25T11:30:03Z</time>
      </trkpt>
      <trkpt lat="49.17818" lon="-0.61318">
        <ele>79.6</ele>
        <time>2023-04-25T11:30:04Z</time>
      </trkpt>
      <trkpt lat="49.1782" lon="-0.61328">
        <ele>79.4</ele>
        <time>2023-04-25T11:30:05Z</time>
      </trkpt>
      <trkpt lat="49.17821" lon="-0.61338">
        <ele>79</ele>
        <time>2023-04-25T11:30:06Z</time>
      </trkpt>
      <trkpt lat="49.17823" lon="-0.61349">
        <ele>78.8</ele>
        <time>2023-04-25T11:30:07Z</time>
      </trkpt>
      <trkpt lat="49.17825" lon="-0.61359">
        <ele>78.6</ele>
        <time>2023-04-25T11:30:08Z</time>
      </trkpt>
      <trkpt lat="49.17826" lon="-0.6137">
        <ele>78.4</ele>
        <time>2023-04-25T11:30:09Z</time>
      </trkpt>
      <trkpt lat="49.17828" lon="-0.6138">
        <ele>78</ele>
        <time>2023-04-25T11:30:10Z</time>
      </trkpt>
      <trkpt lat="49.1783" lon="-0.61391">
        <ele>77.6</ele>
        <time>2023-04-25T11:30:11Z</time>
      </trkpt>
      <trkpt lat="49.17832" lon="-0.61403">
        <ele>77.4</ele>
        <time>2023-04-25T11:30:12Z</time>
      </trkpt>
      <trkpt lat="49.17834" lon="-0.61414">
        <ele>77</ele>
        <time>2023-04-25T11:30:13Z</time>
      </trkpt>
      <trkpt lat="49.17836" lon="-0.61426">
        <ele>76.8</ele>
        <time>2023-04-25T11:30:14Z</time>
      </trkpt>
      <trkpt lat="49.17838" lon="-0.61439">
        <ele>76.6</ele>
        <time>2023-04-25T11:30:15Z</time>
      </trkpt>
      <trkpt lat="49.1784" lon="-0.61451">
        <ele>76.2</ele>
        <time>2023-04-25T11:30:16Z</time>
      </trkpt>
      <trkpt lat="49.17842" lon="-0.61464">
        <ele>76</ele>
        <time>2023-04-25T11:30:17Z</time>
      </trkpt>
      <trkpt lat="49.17844" lon="-0.61477">
        <ele>75.6</ele>
        <time>2023-04-25T11:30:18Z</time>
      </trkpt>
      <trkpt lat="49.17846" lon="-0.6149">
        <ele>75.4</ele>
        <time>2023-04-25T11:30:19Z</time>
      </trkpt>
      <trkpt lat="49.17848" lon="-0.61504">
        <ele>75</ele>
        <time>2023-04-25T11:30:20Z</time>
      </trkpt>
      <trkpt lat="49.1785" lon="-0.61517">
        <ele>74.4</ele>
        <time>2023-04-25T11:30:21Z</time>
      </trkpt>
      <trkpt lat="49.17852" lon="-0.61531">
        <ele>74</ele>
        <time>2023-04-25T11:30:22Z</time>
      </trkpt>
      <trkpt lat="49.17855" lon="-0.61545">
        <ele>73.6</ele>
        <time>2023-04-25T11:30:23Z</time>
      </trkpt>
      <trkpt lat="49.17858" lon="-0.61559">
        <ele>73</ele>
        <time>2023-04-25T11:30:24Z</time>
      </trkpt>
      <trkpt lat="49.17861" lon="-0.61573">
        <ele>72.6</ele>
        <time>2023-04-25T11:30:25Z</time>
      </trkpt>
      <trkpt lat="49.17864" lon="-0.61587">
        <ele>72</ele>
        <time>2023-04-25T11:30:26Z</time>
      </trkpt>
      <trkpt lat="49.17866" lon="-0.61601">
        <ele>71.4</ele>
        <time>2023-04-25T11:30:27Z</time>
      </trkpt>
      <trkpt lat="49.17867" lon="-0.61615">
        <ele>70.6</ele>
        <time>2023-04-25T11:30:28Z</time>
      </trkpt>
      <trkpt lat="49.17868" lon="-0.6163">
        <ele>70</ele>
        <time>2023-04-25T11:30:29Z</time>
      </trkpt>
      <trkpt lat="49.17867" lon="-0.61644">
        <ele>69.4</ele>
        <time>2023-04-25T11:30:30Z</time>
      </trkpt>
      <trkpt lat="49.17865" lon="-0.61658">
        <ele>69</ele>
        <time>2023-04-25T11:30:31Z</time>
      </trkpt>
      <trkpt lat="49.17861" lon="-0.61672">
        <ele>68.4</ele>
        <time>2023-04-25T11:30:32Z</time>
      </trkpt>
      <trkpt lat="49.17856" lon="-0.61686">
        <ele>67.8</ele>
        <time>2023-04-25T11:30:33Z</time>
      </trkpt>
      <trkpt lat="49.1785" lon="-0.61698">
        <ele>67.4</ele>
        <time>2023-04-25T11:30:34Z</time>
      </trkpt>
      <trkpt lat="49.17844" lon="-0.61709">
        <ele>67</ele>
        <time>2023-04-25T11:30:35Z</time>
      </trkpt>
      <trkpt lat="49.17836" lon="-0.61721">
        <ele>66.6</ele>
        <time>2023-04-25T11:30:36Z</time>
      </trkpt>
      <trkpt lat="49.17829" lon="-0.61732">
        <ele>66.4</ele>
        <time>2023-04-25T11:30:37Z</time>
      </trkpt>
      <trkpt lat="49.17822" lon="-0.61744">
        <ele>66</ele>
        <time>2023-04-25T11:30:38Z</time>
      </trkpt>
      <trkpt lat="49.17815" lon="-0.61756">
        <ele>65.6</ele>
        <time>2023-04-25T11:30:39Z</time>
      </trkpt>
      <trkpt lat="49.17807" lon="-0.61768">
        <ele>65.4</ele>
        <time>2023-04-25T11:30:40Z</time>
      </trkpt>
      <trkpt lat="49.178" lon="-0.6178">
        <ele>65.2</ele>
        <time>2023-04-25T11:30:41Z</time>
      </trkpt>
      <trkpt lat="49.17793" lon="-0.61792">
        <ele>65</ele>
        <time>2023-04-25T11:30:42Z</time>
      </trkpt>
      <trkpt lat="49.17785" lon="-0.61804">
        <ele>64.6</ele>
        <time>2023-04-25T11:30:43Z</time>
      </trkpt>
      <trkpt lat="49.17778" lon="-0.61815">
        <ele>64.6</ele>
        <time>2023-04-25T11:30:44Z</time>
      </trkpt>
      <trkpt lat="49.1777" lon="-0.61826">
        <ele>64.4</ele>
        <time>2023-04-25T11:30:45Z</time>
      </trkpt>
      <trkpt lat="49.17763" lon="-0.61838">
        <ele>64</ele>
        <time>2023-04-25T11:30:46Z</time>
      </trkpt>
      <trkpt lat="49.17756" lon="-0.61849">
        <ele>63.8</ele>
        <time>2023-04-25T11:30:47Z</time>
      </trkpt>
      <trkpt lat="49.1775" lon="-0.61861">
        <ele>63.2</ele>
        <time>2023-04-25T11:30:48Z</time>
      </trkpt>
      <trkpt lat="49.17746" lon="-0.61875">
        <ele>62.8</ele>
        <time>2023-04-25T11:30:49Z</time>
      </trkpt>
      <trkpt lat="49.17744" lon="-0.6189">
        <ele>62</ele>
        <time>2023-04-25T11:30:50Z</time>
      </trkpt>
      <trkpt lat="49.17742" lon="-0.61905">
        <ele>61.2</ele>
        <time>2023-04-25T11:30:51Z</time>
      </trkpt>
      <trkpt lat="49.17742" lon="-0.61921">
        <ele>60.2</ele>
        <time>2023-04-25T11:30:52Z</time>
      </trkpt>
      <trkpt lat="49.17742" lon="-0.61936">
        <ele>59.2</ele>
        <time>2023-04-25T11:30:53Z</time>
      </trkpt>
      <trkpt lat="49.17742" lon="-0.61953">
        <ele>58.2</ele>
        <time>2023-04-25T11:30:54Z</time>
      </trkpt>
      <trkpt lat="49.17743" lon="-0.61969">
        <ele>57.2</ele>
        <time>2023-04-25T11:30:55Z</time>
      </trkpt>
      <trkpt lat="49.17743" lon="-0.61985">
        <ele>56.2</ele>
        <time>2023-04-25T11:30:56Z</time>
      </trkpt>
      <trkpt lat="49.17743" lon="-0.62002">
        <ele>55.2</ele>
        <time>2023-04-25T11:30:57Z</time>
      </trkpt>
      <trkpt lat="49.17744" lon="-0.62018">
        <ele>54.4</ele>
        <time>2023-04-25T11:30:58Z</time>
      </trkpt>
      <trkpt lat="49.17744" lon="-0.62035">
        <ele>53.6</ele>
        <time>2023-04-25T11:30:59Z</time>
      </trkpt>
      <trkpt lat="49.17744" lon="-0.62052">
        <ele>52.8</ele>
        <time>2023-04-25T11:31:00Z</time>
      </trkpt>
      <trkpt lat="49.17745" lon="-0.62068">
        <ele>52</ele>
        <time>2023-04-25T11:31:01Z</time>
      </trkpt>
      <trkpt lat="49.17745" lon="-0.62084">
        <ele>51.2</ele>
        <time>2023-04-25T11:31:02Z</time>
      </trkpt>
      <trkpt lat="49.17745" lon="-0.621">
        <ele>51.2</ele>
        <time>2023-04-25T11:31:03Z</time>
      </trkpt>
      <trkpt lat="49.17746" lon="-0.62116">
        <ele>51.4</ele>
        <time>2023-04-25T11:31:04Z</time>
      </trkpt>
      <trkpt lat="49.17746" lon="-0.62132">
        <ele>51.6</ele>
        <time>2023-04-25T11:31:05Z</time>
      </trkpt>
      <trkpt lat="49.17747" lon="-0.62147">
        <ele>51.8</ele>
        <time>2023-04-25T11:31:06Z</time>
      </trkpt>
      <trkpt lat="49.17747" lon="-0.62162">
        <ele>52</ele>
        <time>2023-04-25T11:31:07Z</time>
      </trkpt>
      <trkpt lat="49.17748" lon="-0.62176">
        <ele>51.8</ele>
        <time>2023-04-25T11:31:08Z</time>
      </trkpt>
      <trkpt lat="49.17748" lon="-0.62189">
        <ele>51.8</ele>
        <time>2023-04-25T11:31:09Z</time>
      </trkpt>
      <trkpt lat="49.17749" lon="-0.62203">
        <ele>51.6</ele>
        <time>2023-04-25T11:31:10Z</time>
      </trkpt>
      <trkpt lat="49.1775" lon="-0.62216">
        <ele>51.4</ele>
        <time>2023-04-25T11:31:11Z</time>
      </trkpt>
      <trkpt lat="49.1775" lon="-0.62229">
        <ele>51.2</ele>
        <time>2023-04-25T11:31:12Z</time>
      </trkpt>
      <trkpt lat="49.17751" lon="-0.62241">
        <ele>51</ele>
        <time>2023-04-25T11:31:13Z</time>
      </trkpt>
      <trkpt lat="49.17751" lon="-0.62253">
        <ele>51</ele>
        <time>2023-04-25T11:31:14Z</time>
      </trkpt>
      <trkpt lat="49.17751" lon="-0.62265">
        <ele>51</ele>
        <time>2023-04-25T11:31:15Z</time>
      </trkpt>
      <trkpt lat="49.17751" lon="-0.62277">
        <ele>51.2</ele>
        <time>2023-04-25T11:31:16Z</time>
      </trkpt>
      <trkpt lat="49.17751" lon="-0.62288">
        <ele>51.4</ele>
        <time>2023-04-25T11:31:17Z</time>
      </trkpt>
      <trkpt lat="49.17751" lon="-0.623">
        <ele>51.6</ele>
        <time>2023-04-25T11:31:18Z</time>
      </trkpt>
      <trkpt lat="49.1775" lon="-0.6231">
        <ele>51.8</ele>
        <time>2023-04-25T11:31:19Z</time>
      </trkpt>
      <trkpt lat="49.17749" lon="-0.62321">
        <ele>52</ele>
        <time>2023-04-25T11:31:20Z</time>
      </trkpt>
      <trkpt lat="49.17748" lon="-0.62331">
        <ele>52</ele>
        <time>2023-04-25T11:31:21Z</time>
      </trkpt>
      <trkpt lat="49.17748" lon="-0.62341">
        <ele>52.2</ele>
        <time>2023-04-25T11:31:22Z</time>
      </trkpt>
      <trkpt lat="49.17747" lon="-0.6235">
        <ele>52.8</ele>
        <time>2023-04-25T11:31:23Z</time>
      </trkpt>
      <trkpt lat="49.17744" lon="-0.62356">
        <ele>53</ele>
        <time>2023-04-25T11:31:24Z</time>
      </trkpt>
      <trkpt lat="49.1774" lon="-0.62362">
        <ele>53.2</ele>
        <time>2023-04-25T11:31:25Z</time>
      </trkpt>
      <trkpt lat="49.17736" lon="-0.62367">
        <ele>53.6</ele>
        <time>2023-04-25T11:31:26Z</time>
      </trkpt>
      <trkpt lat="49.17731" lon="-0.62373">
        <ele>53.8</ele>
        <time>2023-04-25T11:31:27Z</time>
      </trkpt>
      <trkpt lat="49.17728" lon="-0.62378">
        <ele>54</ele>
        <time>2023-04-25T11:31:28Z</time>
      </trkpt>
      <trkpt lat="49.17724" lon="-0.62384">
        <ele>54.2</ele>
        <time>2023-04-25T11:31:29Z</time>
      </trkpt>
      <trkpt lat="49.1772" lon="-0.6239">
        <ele>54.6</ele>
        <time>2023-04-25T11:31:30Z</time>
      </trkpt>
      <trkpt lat="49.17716" lon="-0.62395">
        <ele>54.8</ele>
        <time>2023-04-25T11:31:31Z</time>
      </trkpt>
      <trkpt lat="49.17712" lon="-0.62401">
        <ele>55</ele>
        <time>2023-04-25T11:31:32Z</time>
      </trkpt>
      <trkpt lat="49.17708" lon="-0.62406">
        <ele>55.2</ele>
        <time>2023-04-25T11:31:33Z</time>
      </trkpt>
      <trkpt lat="49.17704" lon="-0.62411">
        <ele>55.4</ele>
        <time>2023-04-25T11:31:34Z</time>
      </trkpt>
      <trkpt lat="49.17701" lon="-0.62417">
        <ele>55.6</ele>
        <time>2023-04-25T11:31:35Z</time>
      </trkpt>
      <trkpt lat="49.17697" lon="-0.62422">
        <ele>56</ele>
        <time>2023-04-25T11:31:36Z</time>
      </trkpt>
      <trkpt lat="49.17693" lon="-0.62427">
        <ele>56.2</ele>
        <time>2023-04-25T11:31:37Z</time>
      </trkpt>
      <trkpt lat="49.17689" lon="-0.62432">
        <ele>56.6</ele>
        <time>2023-04-25T11:31:38Z</time>
      </trkpt>
      <trkpt lat="49.17686" lon="-0.62436">
        <ele>56.8</ele>
        <time>2023-04-25T11:31:39Z</time>
      </trkpt>
      <trkpt lat="49.17682" lon="-0.62441">
        <ele>57</ele>
        <time>2023-04-25T11:31:40Z</time>
      </trkpt>
      <trkpt lat="49.17679" lon="-0.62446">
        <ele>57</ele>
        <time>2023-04-25T11:31:41Z</time>
      </trkpt>
      <trkpt lat="49.17675" lon="-0.62451">
        <ele>57.2</ele>
        <time>2023-04-25T11:31:42Z</time>
      </trkpt>
      <trkpt lat="49.17672" lon="-0.62455">
        <ele>57.4</ele>
        <time>2023-04-25T11:31:43Z</time>
      </trkpt>
      <trkpt lat="49.17668" lon="-0.6246">
        <ele>57.6</ele>
        <time>2023-04-25T11:31:44Z</time>
      </trkpt>
      <trkpt lat="49.17665" lon="-0.62465">
        <ele>57.8</ele>
        <time>2023-04-25T11:31:45Z</time>
      </trkpt>
      <trkpt lat="49.17661" lon="-0.6247">
        <ele>58</ele>
        <time>2023-04-25T11:31:46Z</time>
      </trkpt>
      <trkpt lat="49.17658" lon="-0.62475">
        <ele>58</ele>
        <time>2023-04-25T11:31:47Z</time>
      </trkpt>
      <trkpt lat="49.17654" lon="-0.6248">
        <ele>58.2</ele>
        <time>2023-04-25T11:31:48Z</time>
      </trkpt>
      <trkpt lat="49.17651" lon="-0.62485">
        <ele>58.6</ele>
        <time>2023-04-25T11:31:49Z</time>
      </trkpt>
      <trkpt lat="49.17647" lon="-0.6249">
        <ele>58.6</ele>
        <time>2023-04-25T11:31:50Z</time>
      </trkpt>
      <trkpt lat="49.17643" lon="-0.62495">
        <ele>58.8</ele>
        <time>2023-04-25T11:31:51Z</time>
      </trkpt>
      <trkpt lat="49.1764" lon="-0.625">
        <ele>59</ele>
        <time>2023-04-25T11:31:52Z</time>
      </trkpt>
      <trkpt lat="49.17636" lon="-0.62504">
        <ele>59.2</ele>
        <time>2023-04-25T11:31:53Z</time>
      </trkpt>
      <trkpt lat="49.17633" lon="-0.62509">
        <ele>59.4</ele>
        <time>2023-04-25T11:31:54Z</time>
      </trkpt>
      <trkpt lat="49.17629" lon="-0.62514">
        <ele>59.6</ele>
        <time>2023-04-25T11:31:55Z</time>
      </trkpt>
      <trkpt lat="49.17625" lon="-0.62518">
        <ele>59.8</ele>
        <time>2023-04-25T11:31:56Z</time>
      </trkpt>
      <trkpt lat="49.17622" lon="-0.62523">
        <ele>60</ele>
        <time>2023-04-25T11:31:57Z</time>
      </trkpt>
      <trkpt lat="49.17618" lon="-0.62527">
        <ele>60</ele>
        <time>2023-04-25T11:31:58Z</time>
      </trkpt>
      <trkpt lat="49.17614" lon="-0.62532">
        <ele>60.2</ele>
        <time>2023-04-25T11:31:59Z</time>
      </trkpt>
      <trkpt lat="49.1761" lon="-0.62536">
        <ele>60.2</ele>
        <time>2023-04-25T11:32:00Z</time>
      </trkpt>
      <trkpt lat="49.17607" lon="-0.62541">
        <ele>60.4</ele>
        <time>2023-04-25T11:32:01Z</time>
      </trkpt>
      <trkpt lat="49.17603" lon="-0.62547">
        <ele>60.6</ele>
        <time>2023-04-25T11:32:02Z</time>
      </trkpt>
      <trkpt lat="49.176" lon="-0.62552">
        <ele>60.6</ele>
        <time>2023-04-25T11:32:03Z</time>
      </trkpt>
      <trkpt lat="49.17596" lon="-0.62557">
        <ele>60.8</ele>
        <time>2023-04-25T11:32:04Z</time>
      </trkpt>
      <trkpt lat="49.17592" lon="-0.62562">
        <ele>60.8</ele>
        <time>2023-04-25T11:32:05Z</time>
      </trkpt>
      <trkpt lat="49.17588" lon="-0.62566">
        <ele>60.8</ele>
        <time>2023-04-25T11:32:06Z</time>
      </trkpt>
      <trkpt lat="49.17584" lon="-0.62571">
        <ele>60.8</ele>
        <time>2023-04-25T11:32:07Z</time>
      </trkpt>
      <trkpt lat="49.17581" lon="-0.62577">
        <ele>60.8</ele>
        <time>2023-04-25T11:32:08Z</time>
      </trkpt>
      <trkpt lat="49.17578" lon="-0.62582">
        <ele>60.8</ele>
        <time>2023-04-25T11:32:09Z</time>
      </trkpt>
      <trkpt lat="49.17575" lon="-0.62588">
        <ele>61</ele>
        <time>2023-04-25T11:32:10Z</time>
      </trkpt>
      <trkpt lat="49.17573" lon="-0.62595">
        <ele>61.2</ele>
        <time>2023-04-25T11:32:11Z</time>
      </trkpt>
      <trkpt lat="49.1757" lon="-0.62601">
        <ele>61.6</ele>
        <time>2023-04-25T11:32:12Z</time>
      </trkpt>
      <trkpt lat="49.17568" lon="-0.62606">
        <ele>61.6</ele>
        <time>2023-04-25T11:32:13Z</time>
      </trkpt>
      <trkpt lat="49.17564" lon="-0.6261">
        <ele>61.8</ele>
        <time>2023-04-25T11:32:14Z</time>
      </trkpt>
      <trkpt lat="49.1756" lon="-0.62614">
        <ele>61.8</ele>
        <time>2023-04-25T11:32:15Z</time>
      </trkpt>
      <trkpt lat="49.17555" lon="-0.62618">
        <ele>61.8</ele>
        <time>2023-04-25T11:32:16Z</time>
      </trkpt>
      <trkpt lat="49.17551" lon="-0.62623">
        <ele>61.8</ele>
        <time>2023-04-25T11:32:17Z</time>
      </trkpt>
      <trkpt lat="49.17547" lon="-0.62629">
        <ele>61.8</ele>
        <time>2023-04-25T11:32:18Z</time>
      </trkpt>
      <trkpt lat="49.17544" lon="-0.62635">
        <ele>62</ele>
        <time>2023-04-25T11:32:19Z</time>
      </trkpt>
      <trkpt lat="49.17542" lon="-0.62642">
        <ele>62</ele>
        <time>2023-04-25T11:32:20Z</time>
      </trkpt>
      <trkpt lat="49.17539" lon="-0.62649">
        <ele>62.2</ele>
        <time>2023-04-25T11:32:21Z</time>
      </trkpt>
      <trkpt lat="49.17537" lon="-0.62656">
        <ele>62.4</ele>
        <time>2023-04-25T11:32:22Z</time>
      </trkpt>
      <trkpt lat="49.17535" lon="-0.62663">
        <ele>62.6</ele>
        <time>2023-04-25T11:32:23Z</time>
      </trkpt>
      <trkpt lat="49.17534" lon="-0.62669">
        <ele>62.8</ele>
        <time>2023-04-25T11:32:24Z</time>
      </trkpt>
      <trkpt lat="49.17532" lon="-0.62676">
        <ele>63</ele>
        <time>2023-04-25T11:32:25Z</time>
      </trkpt>
      <trkpt lat="49.1753" lon="-0.62682">
        <ele>63.4</ele>
        <time>2023-04-25T11:32:26Z</time>
      </trkpt>
      <trkpt lat="49.17528" lon="-0.62687">
        <ele>63.8</ele>
        <time>2023-04-25T11:32:27Z</time>
      </trkpt>
      <trkpt lat="49.17526" lon="-0.62693">
        <ele>64</ele>
        <time>2023-04-25T11:32:28Z</time>
      </trkpt>
      <trkpt lat="49.17525" lon="-0.62698">
        <ele>64.2</ele>
        <time>2023-04-25T11:32:29Z</time>
      </trkpt>
      <trkpt lat="49.17523" lon="-0.62704">
        <ele>64.6</ele>
        <time>2023-04-25T11:32:30Z</time>
      </trkpt>
      <trkpt lat="49.17522" lon="-0.62709">
        <ele>64.6</ele>
        <time>2023-04-25T11:32:31Z</time>
      </trkpt>
      <trkpt lat="49.17521" lon="-0.62714">
        <ele>65</ele>
        <time>2023-04-25T11:32:32Z</time>
      </trkpt>
      <trkpt lat="49.17519" lon="-0.62719">
        <ele>65.2</ele>
        <time>2023-04-25T11:32:33Z</time>
      </trkpt>
      <trkpt lat="49.17518" lon="-0.62724">
        <ele>65.6</ele>
        <time>2023-04-25T11:32:34Z</time>
      </trkpt>
      <trkpt lat="49.17517" lon="-0.62729">
        <ele>65.6</ele>
        <time>2023-04-25T11:32:35Z</time>
      </trkpt>
      <trkpt lat="49.17516" lon="-0.62734">
        <ele>66</ele>
        <time>2023-04-25T11:32:36Z</time>
      </trkpt>
      <trkpt lat="49.17515" lon="-0.62739">
        <ele>66.2</ele>
        <time>2023-04-25T11:32:37Z</time>
      </trkpt>
      <trkpt lat="49.17514" lon="-0.62743">
        <ele>66.4</ele>
        <time>2023-04-25T11:32:38Z</time>
      </trkpt>
      <trkpt lat="49.17512" lon="-0.62748">
        <ele>66.6</ele>
        <time>2023-04-25T11:32:39Z</time>
      </trkpt>
      <trkpt lat="49.17511" lon="-0.62753">
        <ele>66.8</ele>
        <time>2023-04-25T11:32:40Z</time>
      </trkpt>
      <trkpt lat="49.1751" lon="-0.62758">
        <ele>67</ele>
        <time>2023-04-25T11:32:41Z</time>
      </trkpt>
      <trkpt lat="49.17509" lon="-0.62763">
        <ele>67.2</ele>
        <time>2023-04-25T11:32:42Z</time>
      </trkpt>
      <trkpt lat="49.17508" lon="-0.62767">
        <ele>67.4</ele>
        <time>2023-04-25T11:32:43Z</time>
      </trkpt>
      <trkpt lat="49.17508" lon="-0.62772">
        <ele>67.6</ele>
        <time>2023-04-25T11:32:44Z</time>
      </trkpt>
      <trkpt lat="49.17507" lon="-0.62777">
        <ele>67.6</ele>
        <time>2023-04-25T11:32:45Z</time>
      </trkpt>
      <trkpt lat="49.17506" lon="-0.62782">
        <ele>68</ele>
        <time>2023-04-25T11:32:46Z</time>
      </trkpt>
      <trkpt lat="49.17505" lon="-0.62787">
        <ele>68</ele>
        <time>2023-04-25T11:32:47Z</time>
      </trkpt>
      <trkpt lat="49.17504" lon="-0.62791">
        <ele>68.4</ele>
        <time>2023-04-25T11:32:48Z</time>
      </trkpt>
      <trkpt lat="49.17503" lon="-0.62796">
        <ele>68.4</ele>
        <time>2023-04-25T11:32:49Z</time>
      </trkpt>
      <trkpt lat="49.17503" lon="-0.62801">
        <ele>68.6</ele>
        <time>2023-04-25T11:32:50Z</time>
      </trkpt>
      <trkpt lat="49.17502" lon="-0.62806">
        <ele>68.8</ele>
        <time>2023-04-25T11:32:51Z</time>
      </trkpt>
      <trkpt lat="49.17501" lon="-0.62811">
        <ele>69</ele>
        <time>2023-04-25T11:32:52Z</time>
      </trkpt>
      <trkpt lat="49.17501" lon="-0.62815">
        <ele>69.2</ele>
        <time>2023-04-25T11:32:53Z</time>
      </trkpt>
      <trkpt lat="49.175" lon="-0.6282">
        <ele>69.4</ele>
        <time>2023-04-25T11:32:54Z</time>
      </trkpt>
      <trkpt lat="49.175" lon="-0.62825">
        <ele>69.6</ele>
        <time>2023-04-25T11:32:55Z</time>
      </trkpt>
      <trkpt lat="49.17499" lon="-0.6283">
        <ele>69.8</ele>
        <time>2023-04-25T11:32:56Z</time>
      </trkpt>
      <trkpt lat="49.17498" lon="-0.62835">
        <ele>70</ele>
        <time>2023-04-25T11:32:57Z</time>
      </trkpt>
      <trkpt lat="49.17498" lon="-0.6284">
        <ele>70.4</ele>
        <time>2023-04-25T11:32:58Z</time>
      </trkpt>
      <trkpt lat="49.17497" lon="-0.62844">
        <ele>70.6</ele>
        <time>2023-04-25T11:32:59Z</time>
      </trkpt>
      <trkpt lat="49.17497" lon="-0.62849">
        <ele>70.8</ele>
        <time>2023-04-25T11:33:00Z</time>
      </trkpt>
      <trkpt lat="49.17496" lon="-0.62854">
        <ele>71</ele>
        <time>2023-04-25T11:33:01Z</time>
      </trkpt>
      <trkpt lat="49.17496" lon="-0.62859">
        <ele>71.4</ele>
        <time>2023-04-25T11:33:02Z</time>
      </trkpt>
      <trkpt lat="49.17495" lon="-0.62864">
        <ele>71.6</ele>
        <time>2023-04-25T11:33:03Z</time>
      </trkpt>
      <trkpt lat="49.17495" lon="-0.62868">
        <ele>72</ele>
        <time>2023-04-25T11:33:04Z</time>
      </trkpt>
      <trkpt lat="49.17494" lon="-0.62873">
        <ele>72</ele>
        <time>2023-04-25T11:33:05Z</time>
      </trkpt>
      <trkpt lat="49.17494" lon="-0.62878">
        <ele>72.4</ele>
        <time>2023-04-25T11:33:06Z</time>
      </trkpt>
      <trkpt lat="49.17493" lon="-0.62882">
        <ele>72.6</ele>
        <time>2023-04-25T11:33:07Z</time>
      </trkpt>
      <trkpt lat="49.17493" lon="-0.62887">
        <ele>73</ele>
        <time>2023-04-25T11:33:08Z</time>
      </trkpt>
      <trkpt lat="49.17492" lon="-0.62892">
        <ele>73</ele>
        <time>2023-04-25T11:33:09Z</time>
      </trkpt>
      <trkpt lat="49.17492" lon="-0.62897">
        <ele>73.4</ele>
        <time>2023-04-25T11:33:10Z</time>
      </trkpt>
      <trkpt lat="49.17491" lon="-0.62901">
        <ele>73.6</ele>
        <time>2023-04-25T11:33:11Z</time>
      </trkpt>
      <trkpt lat="49.17491" lon="-0.62906">
        <ele>74</ele>
        <time>2023-04-25T11:33:12Z</time>
      </trkpt>
      <trkpt lat="49.1749" lon="-0.6291">
        <ele>74.2</ele>
        <time>2023-04-25T11:33:13Z</time>
      </trkpt>
      <trkpt lat="49.1749" lon="-0.62915">
        <ele>74.4</ele>
        <time>2023-04-25T11:33:14Z</time>
      </trkpt>
      <trkpt lat="49.17489" lon="-0.6292">
        <ele>74.6</ele>
        <time>2023-04-25T11:33:15Z</time>
      </trkpt>
      <trkpt lat="49.17489" lon="-0.62924">
        <ele>75</ele>
        <time>2023-04-25T11:33:16Z</time>
      </trkpt>
      <trkpt lat="49.17488" lon="-0.62929">
        <ele>75</ele>
        <time>2023-04-25T11:33:17Z</time>
      </trkpt>
      <trkpt lat="49.17488" lon="-0.62934">
        <ele>75.4</ele>
        <time>2023-04-25T11:33:18Z</time>
      </trkpt>
      <trkpt lat="49.17487" lon="-0.62938">
        <ele>75.6</ele>
        <time>2023-04-25T11:33:19Z</time>
      </trkpt>
      <trkpt lat="49.17487" lon="-0.62943">
        <ele>75.6</ele>
        <time>2023-04-25T11:33:20Z</time>
      </trkpt>
      <trkpt lat="49.17486" lon="-0.62947">
        <ele>76</ele>
        <time>2023-04-25T11:33:21Z</time>
      </trkpt>
      <trkpt lat="49.17486" lon="-0.62952">
        <ele>76.2</ele>
        <time>2023-04-25T11:33:22Z</time>
      </trkpt>
      <trkpt lat="49.17485" lon="-0.62957">
        <ele>76.4</ele>
        <time>2023-04-25T11:33:23Z</time>
      </trkpt>
      <trkpt lat="49.17485" lon="-0.62961">
        <ele>76.6</ele>
        <time>2023-04-25T11:33:24Z</time>
      </trkpt>
      <trkpt lat="49.17484" lon="-0.62966">
        <ele>76.8</ele>
        <time>2023-04-25T11:33:25Z</time>
      </trkpt>
      <trkpt lat="49.17484" lon="-0.6297">
        <ele>77</ele>
        <time>2023-04-25T11:33:26Z</time>
      </trkpt>
      <trkpt lat="49.17483" lon="-0.62975">
        <ele>77.4</ele>
        <time>2023-04-25T11:33:27Z</time>
      </trkpt>
      <trkpt lat="49.17483" lon="-0.62979">
        <ele>77.6</ele>
        <time>2023-04-25T11:33:28Z</time>
      </trkpt>
      <trkpt lat="49.17482" lon="-0.62984">
        <ele>77.6</ele>
        <time>2023-04-25T11:33:29Z</time>
      </trkpt>
      <trkpt lat="49.17482" lon="-0.62988">
        <ele>78</ele>
        <time>2023-04-25T11:33:30Z</time>
      </trkpt>
      <trkpt lat="49.17481" lon="-0.62993">
        <ele>78.2</ele>
        <time>2023-04-25T11:33:31Z</time>
      </trkpt>
      <trkpt lat="49.17481" lon="-0.62998">
        <ele>78.4</ele>
        <time>2023-04-25T11:33:32Z</time>
      </trkpt>
      <trkpt lat="49.1748" lon="-0.63002">
        <ele>78.6</ele>
        <time>2023-04-25T11:33:33Z</time>
      </trkpt>
      <trkpt lat="49.1748" lon="-0.63007">
        <ele>79</ele>
        <time>2023-04-25T11:33:34Z</time>
      </trkpt>
      <trkpt lat="49.17479" lon="-0.63012">
        <ele>79</ele>
        <time>2023-04-25T11:33:35Z</time>
      </trkpt>
      <trkpt lat="49.17479" lon="-0.63017">
        <ele>79.4</ele>
        <time>2023-04-25T11:33:36Z</time>
      </trkpt>
      <trkpt lat="49.17478" lon="-0.63022">
        <ele>79.6</ele>
        <time>2023-04-25T11:33:37Z</time>
      </trkpt>
      <trkpt lat="49.17478" lon="-0.63026">
        <ele>79.8</ele>
        <time>2023-04-25T11:33:38Z</time>
      </trkpt>
      <trkpt lat="49.17477" lon="-0.63031">
        <ele>80</ele>
        <time>2023-04-25T11:33:39Z</time>
      </trkpt>
      <trkpt lat="49.17477" lon="-0.63036">
        <ele>80.4</ele>
        <time>2023-04-25T11:33:40Z</time>
      </trkpt>
      <trkpt lat="49.17476" lon="-0.63041">
        <ele>80.6</ele>
        <time>2023-04-25T11:33:41Z</time>
      </trkpt>
      <trkpt lat="49.17476" lon="-0.63045">
        <ele>80.8</ele>
        <time>2023-04-25T11:33:42Z</time>
      </trkpt>
      <trkpt lat="49.17475" lon="-0.6305">
        <ele>81</ele>
        <time>2023-04-25T11:33:43Z</time>
      </trkpt>
      <trkpt lat="49.17475" lon="-0.63055">
        <ele>81.2</ele>
        <time>2023-04-25T11:33:44Z</time>
      </trkpt>
      <trkpt lat="49.17474" lon="-0.63059">
        <ele>81.4</ele>
        <time>2023-04-25T11:33:45Z</time>
      </trkpt>
      <trkpt lat="49.17474" lon="-0.63064">
        <ele>81.6</ele>
        <time>2023-04-25T11:33:46Z</time>
      </trkpt>
      <trkpt lat="49.17473" lon="-0.63069">
        <ele>82</ele>
        <time>2023-04-25T11:33:47Z</time>
      </trkpt>
      <trkpt lat="49.17472" lon="-0.63073">
        <ele>82</ele>
        <time>2023-04-25T11:33:48Z</time>
      </trkpt>
      <trkpt lat="49.17472" lon="-0.63078">
        <ele>82.4</ele>
        <time>2023-04-25T11:33:49Z</time>
      </trkpt>
      <trkpt lat="49.17471" lon="-0.63082">
        <ele>82.6</ele>
        <time>2023-04-25T11:33:50Z</time>
      </trkpt>
      <trkpt lat="49.17471" lon="-0.63087">
        <ele>82.8</ele>
        <time>2023-04-25T11:33:51Z</time>
      </trkpt>
      <trkpt lat="49.1747" lon="-0.63091">
        <ele>83</ele>
        <time>2023-04-25T11:33:52Z</time>
      </trkpt>
      <trkpt lat="49.1747" lon="-0.63096">
        <ele>83</ele>
        <time>2023-04-25T11:33:53Z</time>
      </trkpt>
      <trkpt lat="49.17469" lon="-0.631">
        <ele>83.4</ele>
        <time>2023-04-25T11:33:54Z</time>
      </trkpt>
      <trkpt lat="49.17469" lon="-0.63105">
        <ele>83.6</ele>
        <time>2023-04-25T11:33:55Z</time>
      </trkpt>
      <trkpt lat="49.17468" lon="-0.63109">
        <ele>83.6</ele>
        <time>2023-04-25T11:33:56Z</time>
      </trkpt>
      <trkpt lat="49.17468" lon="-0.63114">
        <ele>83.8</ele>
        <time>2023-04-25T11:33:57Z</time>
      </trkpt>
      <trkpt lat="49.17468" lon="-0.63118">
        <ele>84</ele>
        <time>2023-04-25T11:33:58Z</time>
      </trkpt>
      <trkpt lat="49.17467" lon="-0.63123">
        <ele>84.2</ele>
        <time>2023-04-25T11:33:59Z</time>
      </trkpt>
      <trkpt lat="49.17467" lon="-0.63127">
        <ele>84.4</ele>
        <time>2023-04-25T11:34:00Z</time>
      </trkpt>
      <trkpt lat="49.17466" lon="-0.63132">
        <ele>84.6</ele>
        <time>2023-04-25T11:34:01Z</time>
      </trkpt>
      <trkpt lat="49.17466" lon="-0.63136">
        <ele>84.6</ele>
        <time>2023-04-25T11:34:02Z</time>
      </trkpt>
      <trkpt lat="49.17465" lon="-0.63141">
        <ele>85</ele>
        <time>2023-04-25T11:34:03Z</time>
      </trkpt>
      <trkpt lat="49.17465" lon="-0.63145">
        <ele>85</ele>
        <time>2023-04-25T11:34:04Z</time>
      </trkpt>
      <trkpt lat="49.17464" lon="-0.6315">
        <ele>85.4</ele>
        <time>2023-04-25T11:34:05Z</time>
      </trkpt>
      <trkpt lat="49.17464" lon="-0.63154">
        <ele>85.6</ele>
        <time>2023-04-25T11:34:06Z</time>
      </trkpt>
      <trkpt lat="49.17463" lon="-0.63159">
        <ele>85.6</ele>
        <time>2023-04-25T11:34:07Z</time>
      </trkpt>
      <trkpt lat="49.17463" lon="-0.63164">
        <ele>86</ele>
        <time>2023-04-25T11:34:08Z</time>
      </trkpt>
      <trkpt lat="49.17462" lon="-0.63169">
        <ele>86</ele>
        <time>2023-04-25T11:34:09Z</time>
      </trkpt>
      <trkpt lat="49.17462" lon="-0.63173">
        <ele>86.2</ele>
        <time>2023-04-25T11:34:10Z</time>
      </trkpt>
      <trkpt lat="49.17462" lon="-0.63178">
        <ele>86.4</ele>
        <time>2023-04-25T11:34:11Z</time>
      </trkpt>
      <trkpt lat="49.17461" lon="-0.63183">
        <ele>86.6</ele>
        <time>2023-04-25T11:34:12Z</time>
      </trkpt>
      <trkpt lat="49.17461" lon="-0.63187">
        <ele>86.6</ele>
        <time>2023-04-25T11:34:13Z</time>
      </trkpt>
      <trkpt lat="49.1746" lon="-0.63192">
        <ele>86.8</ele>
        <time>2023-04-25T11:34:14Z</time>
      </trkpt>
      <trkpt lat="49.1746" lon="-0.63197">
        <ele>87</ele>
        <time>2023-04-25T11:34:15Z</time>
      </trkpt>
      <trkpt lat="49.17459" lon="-0.63201">
        <ele>87</ele>
        <time>2023-04-25T11:34:16Z</time>
      </trkpt>
      <trkpt lat="49.17459" lon="-0.63206">
        <ele>87.2</ele>
        <time>2023-04-25T11:34:17Z</time>
      </trkpt>
      <trkpt lat="49.17458" lon="-0.63211">
        <ele>87.4</ele>
        <time>2023-04-25T11:34:18Z</time>
      </trkpt>
      <trkpt lat="49.17458" lon="-0.63215">
        <ele>87.6</ele>
        <time>2023-04-25T11:34:19Z</time>
      </trkpt>
      <trkpt lat="49.17457" lon="-0.6322">
        <ele>87.6</ele>
        <time>2023-04-25T11:34:20Z</time>
      </trkpt>
      <trkpt lat="49.17457" lon="-0.63224">
        <ele>87.6</ele>
        <time>2023-04-25T11:34:21Z</time>
      </trkpt>
      <trkpt lat="49.17456" lon="-0.63229">
        <ele>87.8</ele>
        <time>2023-04-25T11:34:22Z</time>
      </trkpt>
      <trkpt lat="49.17456" lon="-0.63233">
        <ele>88</ele>
        <time>2023-04-25T11:34:23Z</time>
      </trkpt>
      <trkpt lat="49.17455" lon="-0.63238">
        <ele>88</ele>
        <time>2023-04-25T11:34:24Z</time>
      </trkpt>
      <trkpt lat="49.17455" lon="-0.63243">
        <ele>88.2</ele>
        <time>2023-04-25T11:34:25Z</time>
      </trkpt>
      <trkpt lat="49.17454" lon="-0.63247">
        <ele>88.4</ele>
        <time>2023-04-25T11:34:26Z</time>
      </trkpt>
      <trkpt lat="49.17453" lon="-0.63252">
        <ele>88.6</ele>
        <time>2023-04-25T11:34:27Z</time>
      </trkpt>
      <trkpt lat="49.17453" lon="-0.63257">
        <ele>88.6</ele>
        <time>2023-04-25T11:34:28Z</time>
      </trkpt>
      <trkpt lat="49.17452" lon="-0.63262">
        <ele>88.6</ele>
        <time>2023-04-25T11:34:29Z</time>
      </trkpt>
      <trkpt lat="49.17452" lon="-0.63266">
        <ele>88.6</ele>
        <time>2023-04-25T11:34:30Z</time>
      </trkpt>
      <trkpt lat="49.17451" lon="-0.63272">
        <ele>88.8</ele>
        <time>2023-04-25T11:34:31Z</time>
      </trkpt>
      <trkpt lat="49.17451" lon="-0.63277">
        <ele>89</ele>
        <time>2023-04-25T11:34:32Z</time>
      </trkpt>
      <trkpt lat="49.1745" lon="-0.63282">
        <ele>89</ele>
        <time>2023-04-25T11:34:33Z</time>
      </trkpt>
      <trkpt lat="49.17449" lon="-0.63287">
        <ele>89</ele>
        <time>2023-04-25T11:34:34Z</time>
      </trkpt>
      <trkpt lat="49.17449" lon="-0.63293">
        <ele>89</ele>
        <time>2023-04-25T11:34:35Z</time>
      </trkpt>
      <trkpt lat="49.17448" lon="-0.63298">
        <ele>89.2</ele>
        <time>2023-04-25T11:34:36Z</time>
      </trkpt>
      <trkpt lat="49.17448" lon="-0.63304">
        <ele>89.4</ele>
        <time>2023-04-25T11:34:37Z</time>
      </trkpt>
      <trkpt lat="49.17447" lon="-0.63309">
        <ele>89.4</ele>
        <time>2023-04-25T11:34:38Z</time>
      </trkpt>
      <trkpt lat="49.17446" lon="-0.63315">
        <ele>89.4</ele>
        <time>2023-04-25T11:34:39Z</time>
      </trkpt>
      <trkpt lat="49.17445" lon="-0.6332">
        <ele>89.6</ele>
        <time>2023-04-25T11:34:40Z</time>
      </trkpt>
      <trkpt lat="49.17445" lon="-0.63326">
        <ele>89.6</ele>
        <time>2023-04-25T11:34:41Z</time>
      </trkpt>
      <trkpt lat="49.17444" lon="-0.63332">
        <ele>89.6</ele>
        <time>2023-04-25T11:34:42Z</time>
      </trkpt>
      <trkpt lat="49.17444" lon="-0.63338">
        <ele>89.6</ele>
        <time>2023-04-25T11:34:43Z</time>
      </trkpt>
      <trkpt lat="49.17443" lon="-0.63344">
        <ele>89.8</ele>
        <time>2023-04-25T11:34:44Z</time>
      </trkpt>
      <trkpt lat="49.17442" lon="-0.6335">
        <ele>89.8</ele>
        <time>2023-04-25T11:34:45Z</time>
      </trkpt>
      <trkpt lat="49.17442" lon="-0.63356">
        <ele>90</ele>
        <time>2023-04-25T11:34:46Z</time>
      </trkpt>
      <trkpt lat="49.17441" lon="-0.63361">
        <ele>90</ele>
        <time>2023-04-25T11:34:47Z</time>
      </trkpt>
      <trkpt lat="49.1744" lon="-0.63368">
        <ele>90</ele>
        <time>2023-04-25T11:34:48Z</time>
      </trkpt>
      <trkpt lat="49.1744" lon="-0.63374">
        <ele>90</ele>
        <time>2023-04-25T11:34:49Z</time>
      </trkpt>
      <trkpt lat="49.17439" lon="-0.6338">
        <ele>90.2</ele>
        <time>2023-04-25T11:34:50Z</time>
      </trkpt>
      <trkpt lat="49.17438" lon="-0.63386">
        <ele>90.4</ele>
        <time>2023-04-25T11:34:51Z</time>
      </trkpt>
      <trkpt lat="49.17438" lon="-0.63393">
        <ele>90.4</ele>
        <time>2023-04-25T11:34:52Z</time>
      </trkpt>
      <trkpt lat="49.17437" lon="-0.63399">
        <ele>90.6</ele>
        <time>2023-04-25T11:34:53Z</time>
      </trkpt>
      <trkpt lat="49.17436" lon="-0.63406">
        <ele>90.6</ele>
        <time>2023-04-25T11:34:54Z</time>
      </trkpt>
      <trkpt lat="49.17435" lon="-0.63412">
        <ele>90.6</ele>
        <time>2023-04-25T11:34:55Z</time>
      </trkpt>
      <trkpt lat="49.17435" lon="-0.63419">
        <ele>90.8</ele>
        <time>2023-04-25T11:34:56Z</time>
      </trkpt>
      <trkpt lat="49.17434" lon="-0.63425">
        <ele>91</ele>
        <time>2023-04-25T11:34:57Z</time>
      </trkpt>
      <trkpt lat="49.17433" lon="-0.63432">
        <ele>91</ele>
        <time>2023-04-25T11:34:58Z</time>
      </trkpt>
      <trkpt lat="49.17432" lon="-0.63439">
        <ele>91</ele>
        <time>2023-04-25T11:34:59Z</time>
      </trkpt>
      <trkpt lat="49.17432" lon="-0.63446">
        <ele>91</ele>
        <time>2023-04-25T11:35:00Z</time>
      </trkpt>
      <trkpt lat="49.17431" lon="-0.63453">
        <ele>91.2</ele>
        <time>2023-04-25T11:35:01Z</time>
      </trkpt>
      <trkpt lat="49.1743" lon="-0.6346">
        <ele>91.4</ele>
        <time>2023-04-25T11:35:02Z</time>
      </trkpt>
      <trkpt lat="49.17429" lon="-0.63467">
        <ele>91.4</ele>
        <time>2023-04-25T11:35:03Z</time>
      </trkpt>
      <trkpt lat="49.17428" lon="-0.63474">
        <ele>91.6</ele>
        <time>2023-04-25T11:35:04Z</time>
      </trkpt>
      <trkpt lat="49.17428" lon="-0.63481">
        <ele>91.6</ele>
        <time>2023-04-25T11:35:05Z</time>
      </trkpt>
      <trkpt lat="49.17427" lon="-0.63488">
        <ele>91.6</ele>
        <time>2023-04-25T11:35:06Z</time>
      </trkpt>
      <trkpt lat="49.17426" lon="-0.63495">
        <ele>91.6</ele>
        <time>2023-04-25T11:35:07Z</time>
      </trkpt>
      <trkpt lat="49.17425" lon="-0.63503">
        <ele>91.8</ele>
        <time>2023-04-25T11:35:08Z</time>
      </trkpt>
      <trkpt lat="49.17424" lon="-0.6351">
        <ele>91.6</ele>
        <time>2023-04-25T11:35:09Z</time>
      </trkpt>
      <trkpt lat="49.17423" lon="-0.63517">
        <ele>91.6</ele>
        <time>2023-04-25T11:35:10Z</time>
      </trkpt>
      <trkpt lat="49.17423" lon="-0.63525">
        <ele>91.6</ele>
        <time>2023-04-25T11:35:11Z</time>
      </trkpt>
      <trkpt lat="49.17422" lon="-0.63532">
        <ele>91.6</ele>
        <time>2023-04-25T11:35:12Z</time>
      </trkpt>
      <trkpt lat="49.17421" lon="-0.6354">
        <ele>91.4</ele>
        <time>2023-04-25T11:35:13Z</time>
      </trkpt>
      <trkpt lat="49.1742" lon="-0.63547">
        <ele>91.4</ele>
        <time>2023-04-25T11:35:14Z</time>
      </trkpt>
      <trkpt lat="49.17419" lon="-0.63554">
        <ele>91.4</ele>
        <time>2023-04-25T11:35:15Z</time>
      </trkpt>
      <trkpt lat="49.17418" lon="-0.63562">
        <ele>91.2</ele>
        <time>2023-04-25T11:35:16Z</time>
      </trkpt>
      <trkpt lat="49.17418" lon="-0.63569">
        <ele>91</ele>
        <time>2023-04-25T11:35:17Z</time>
      </trkpt>
      <trkpt lat="49.17417" lon="-0.63577">
        <ele>91</ele>
        <time>2023-04-25T11:35:18Z</time>
      </trkpt>
      <trkpt lat="49.17416" lon="-0.63584">
        <ele>91</ele>
        <time>2023-04-25T11:35:19Z</time>
      </trkpt>
      <trkpt lat="49.17415" lon="-0.63592">
        <ele>91.4</ele>
        <time>2023-04-25T11:35:20Z</time>
      </trkpt>
      <trkpt lat="49.17414" lon="-0.63599">
        <ele>91.6</ele>
        <time>2023-04-25T11:35:21Z</time>
      </trkpt>
      <trkpt lat="49.17413" lon="-0.63606">
        <ele>92</ele>
        <time>2023-04-25T11:35:22Z</time>
      </trkpt>
      <trkpt lat="49.17412" lon="-0.63614">
        <ele>92.2</ele>
        <time>2023-04-25T11:35:23Z</time>
      </trkpt>
      <trkpt lat="49.17412" lon="-0.63621">
        <ele>92.6</ele>
        <time>2023-04-25T11:35:24Z</time>
      </trkpt>
      <trkpt lat="49.17411" lon="-0.63629">
        <ele>92.8</ele>
        <time>2023-04-25T11:35:25Z</time>
      </trkpt>
      <trkpt lat="49.1741" lon="-0.63636">
        <ele>93</ele>
        <time>2023-04-25T11:35:26Z</time>
      </trkpt>
      <trkpt lat="49.17409" lon="-0.63643">
        <ele>93.4</ele>
        <time>2023-04-25T11:35:27Z</time>
      </trkpt>
      <trkpt lat="49.17408" lon="-0.63651">
        <ele>93.6</ele>
        <time>2023-04-25T11:35:28Z</time>
      </trkpt>
      <trkpt lat="49.17407" lon="-0.63658">
        <ele>93.8</ele>
        <time>2023-04-25T11:35:29Z</time>
      </trkpt>
      <trkpt lat="49.17407" lon="-0.63665">
        <ele>94</ele>
        <time>2023-04-25T11:35:30Z</time>
      </trkpt>
      <trkpt lat="49.17406" lon="-0.63673">
        <ele>94</ele>
        <time>2023-04-25T11:35:31Z</time>
      </trkpt>
      <trkpt lat="49.17405" lon="-0.6368">
        <ele>94</ele>
        <time>2023-04-25T11:35:32Z</time>
      </trkpt>
      <trkpt lat="49.17404" lon="-0.63688">
        <ele>94</ele>
        <time>2023-04-25T11:35:33Z</time>
      </trkpt>
      <trkpt lat="49.17403" lon="-0.63695">
        <ele>94</ele>
        <time>2023-04-25T11:35:34Z</time>
      </trkpt>
      <trkpt lat="49.17403" lon="-0.63703">
        <ele>94</ele>
        <time>2023-04-25T11:35:35Z</time>
      </trkpt>
      <trkpt lat="49.17402" lon="-0.6371">
        <ele>94</ele>
        <time>2023-04-25T11:35:36Z</time>
      </trkpt>
      <trkpt lat="49.17401" lon="-0.63718">
        <ele>94</ele>
        <time>2023-04-25T11:35:37Z</time>
      </trkpt>
      <trkpt lat="49.174" lon="-0.63725">
        <ele>94</ele>
        <time>2023-04-25T11:35:38Z</time>
      </trkpt>
      <trkpt lat="49.17399" lon="-0.63732">
        <ele>94</ele>
        <time>2023-04-25T11:35:39Z</time>
      </trkpt>
      <trkpt lat="49.17398" lon="-0.6374">
        <ele>94</ele>
        <time>2023-04-25T11:35:40Z</time>
      </trkpt>
      <trkpt lat="49.17398" lon="-0.63748">
        <ele>94</ele>
        <time>2023-04-25T11:35:41Z</time>
      </trkpt>
      <trkpt lat="49.17397" lon="-0.63755">
        <ele>94</ele>
        <time>2023-04-25T11:35:42Z</time>
      </trkpt>
      <trkpt lat="49.17396" lon="-0.63762">
        <ele>94</ele>
        <time>2023-04-25T11:35:43Z</time>
      </trkpt>
      <trkpt lat="49.17395" lon="-0.6377">
        <ele>94</ele>
        <time>2023-04-25T11:35:44Z</time>
      </trkpt>
      <trkpt lat="49.17394" lon="-0.63777">
        <ele>94</ele>
        <time>2023-04-25T11:35:45Z</time>
      </trkpt>
      <trkpt lat="49.17393" lon="-0.63785">
        <ele>94</ele>
        <time>2023-04-25T11:35:46Z</time>
      </trkpt>
      <trkpt lat="49.17393" lon="-0.63792">
        <ele>94</ele>
        <time>2023-04-25T11:35:47Z</time>
      </trkpt>
      <trkpt lat="49.17392" lon="-0.638">
        <ele>94</ele>
        <time>2023-04-25T11:35:48Z</time>
      </trkpt>
      <trkpt lat="49.17391" lon="-0.63807">
        <ele>94</ele>
        <time>2023-04-25T11:35:49Z</time>
      </trkpt>
      <trkpt lat="49.1739" lon="-0.63814">
        <ele>94</ele>
        <time>2023-04-25T11:35:50Z</time>
      </trkpt>
      <trkpt lat="49.17389" lon="-0.63822">
        <ele>94</ele>
        <time>2023-04-25T11:35:51Z</time>
      </trkpt>
      <trkpt lat="49.17388" lon="-0.63829">
        <ele>94</ele>
        <time>2023-04-25T11:35:52Z</time>
      </trkpt>
      <trkpt lat="49.17388" lon="-0.63836">
        <ele>94</ele>
        <time>2023-04-25T11:35:53Z</time>
      </trkpt>
      <trkpt lat="49.17387" lon="-0.63844">
        <ele>94</ele>
        <time>2023-04-25T11:35:54Z</time>
      </trkpt>
      <trkpt lat="49.17386" lon="-0.63852">
        <ele>93.8</ele>
        <time>2023-04-25T11:35:55Z</time>
      </trkpt>
      <trkpt lat="49.17385" lon="-0.63859">
        <ele>93.6</ele>
        <time>2023-04-25T11:35:56Z</time>
      </trkpt>
      <trkpt lat="49.17384" lon="-0.63867">
        <ele>93.6</ele>
        <time>2023-04-25T11:35:57Z</time>
      </trkpt>
      <trkpt lat="49.17383" lon="-0.63875">
        <ele>93.6</ele>
        <time>2023-04-25T11:35:58Z</time>
      </trkpt>
      <trkpt lat="49.17383" lon="-0.63883">
        <ele>93.4</ele>
        <time>2023-04-25T11:35:59Z</time>
      </trkpt>
      <trkpt lat="49.17382" lon="-0.63892">
        <ele>93.4</ele>
        <time>2023-04-25T11:36:00Z</time>
      </trkpt>
      <trkpt lat="49.17381" lon="-0.639">
        <ele>93.2</ele>
        <time>2023-04-25T11:36:01Z</time>
      </trkpt>
      <trkpt lat="49.1738" lon="-0.63909">
        <ele>93</ele>
        <time>2023-04-25T11:36:02Z</time>
      </trkpt>
      <trkpt lat="49.17379" lon="-0.63918">
        <ele>93</ele>
        <time>2023-04-25T11:36:03Z</time>
      </trkpt>
      <trkpt lat="49.17378" lon="-0.63927">
        <ele>93</ele>
        <time>2023-04-25T11:36:04Z</time>
      </trkpt>
      <trkpt lat="49.17377" lon="-0.63936">
        <ele>93</ele>
        <time>2023-04-25T11:36:05Z</time>
      </trkpt>
      <trkpt lat="49.17376" lon="-0.63945">
        <ele>92.8</ele>
        <time>2023-04-25T11:36:06Z</time>
      </trkpt>
      <trkpt lat="49.17375" lon="-0.63954">
        <ele>92.8</ele>
        <time>2023-04-25T11:36:07Z</time>
      </trkpt>
      <trkpt lat="49.17374" lon="-0.63964">
        <ele>92.6</ele>
        <time>2023-04-25T11:36:08Z</time>
      </trkpt>
      <trkpt lat="49.17373" lon="-0.63973">
        <ele>92.6</ele>
        <time>2023-04-25T11:36:09Z</time>
      </trkpt>
      <trkpt lat="49.17372" lon="-0.63983">
        <ele>92.6</ele>
        <time>2023-04-25T11:36:10Z</time>
      </trkpt>
      <trkpt lat="49.17371" lon="-0.63993">
        <ele>92.6</ele>
        <time>2023-04-25T11:36:11Z</time>
      </trkpt>
      <trkpt lat="49.1737" lon="-0.64003">
        <ele>92.6</ele>
        <time>2023-04-25T11:36:12Z</time>
      </trkpt>
      <trkpt lat="49.17369" lon="-0.64013">
        <ele>92.6</ele>
        <time>2023-04-25T11:36:13Z</time>
      </trkpt>
      <trkpt lat="49.17367" lon="-0.64023">
        <ele>92.6</ele>
        <time>2023-04-25T11:36:14Z</time>
      </trkpt>
      <trkpt lat="49.17366" lon="-0.64033">
        <ele>92.4</ele>
        <time>2023-04-25T11:36:15Z</time>
      </trkpt>
      <trkpt lat="49.17365" lon="-0.64043">
        <ele>92.4</ele>
        <time>2023-04-25T11:36:16Z</time>
      </trkpt>
      <trkpt lat="49.17364" lon="-0.64053">
        <ele>92.4</ele>
        <time>2023-04-25T11:36:17Z</time>
      </trkpt>
      <trkpt lat="49.17363" lon="-0.64064">
        <ele>92.4</ele>
        <time>2023-04-25T11:36:18Z</time>
      </trkpt>
      <trkpt lat="49.17362" lon="-0.64075">
        <ele>92.4</ele>
        <time>2023-04-25T11:36:19Z</time>
      </trkpt>
      <trkpt lat="49.17361" lon="-0.64085">
        <ele>92.4</ele>
        <time>2023-04-25T11:36:20Z</time>
      </trkpt>
      <trkpt lat="49.17361" lon="-0.64096">
        <ele>92.2</ele>
        <time>2023-04-25T11:36:21Z</time>
      </trkpt>
      <trkpt lat="49.17361" lon="-0.64107">
        <ele>92</ele>
        <time>2023-04-25T11:36:22Z</time>
      </trkpt>
      <trkpt lat="49.17362" lon="-0.64118">
        <ele>92</ele>
        <time>2023-04-25T11:36:23Z</time>
      </trkpt>
      <trkpt lat="49.17362" lon="-0.64129">
        <ele>92</ele>
        <time>2023-04-25T11:36:24Z</time>
      </trkpt>
      <trkpt lat="49.17363" lon="-0.6414">
        <ele>91.8</ele>
        <time>2023-04-25T11:36:25Z</time>
      </trkpt>
      <trkpt lat="49.17365" lon="-0.64151">
        <ele>91.6</ele>
        <time>2023-04-25T11:36:26Z</time>
      </trkpt>
      <trkpt lat="49.17367" lon="-0.64162">
        <ele>91.6</ele>
        <time>2023-04-25T11:36:27Z</time>
      </trkpt>
      <trkpt lat="49.17368" lon="-0.64174">
        <ele>91.4</ele>
        <time>2023-04-25T11:36:28Z</time>
      </trkpt>
      <trkpt lat="49.1737" lon="-0.64185">
        <ele>91</ele>
        <time>2023-04-25T11:36:29Z</time>
      </trkpt>
      <trkpt lat="49.17372" lon="-0.64197">
        <ele>90.6</ele>
        <time>2023-04-25T11:36:30Z</time>
      </trkpt>
      <trkpt lat="49.17374" lon="-0.64208">
        <ele>90</ele>
        <time>2023-04-25T11:36:31Z</time>
      </trkpt>
      <trkpt lat="49.17377" lon="-0.64221">
        <ele>89.6</ele>
        <time>2023-04-25T11:36:32Z</time>
      </trkpt>
      <trkpt lat="49.17379" lon="-0.64233">
        <ele>89</ele>
        <time>2023-04-25T11:36:33Z</time>
      </trkpt>
      <trkpt lat="49.17381" lon="-0.64246">
        <ele>88.6</ele>
        <time>2023-04-25T11:36:34Z</time>
      </trkpt>
      <trkpt lat="49.17384" lon="-0.6426">
        <ele>88</ele>
        <time>2023-04-25T11:36:35Z</time>
      </trkpt>
      <trkpt lat="49.17386" lon="-0.64275">
        <ele>87</ele>
        <time>2023-04-25T11:36:36Z</time>
      </trkpt>
      <trkpt lat="49.17389" lon="-0.6429">
        <ele>86.4</ele>
        <time>2023-04-25T11:36:37Z</time>
      </trkpt>
      <trkpt lat="49.17392" lon="-0.64306">
        <ele>85.4</ele>
        <time>2023-04-25T11:36:38Z</time>
      </trkpt>
      <trkpt lat="49.17395" lon="-0.64323">
        <ele>84.6</ele>
        <time>2023-04-25T11:36:39Z</time>
      </trkpt>
      <trkpt lat="49.17399" lon="-0.64341">
        <ele>83.4</ele>
        <time>2023-04-25T11:36:40Z</time>
      </trkpt>
      <trkpt lat="49.17402" lon="-0.64359">
        <ele>82</ele>
        <time>2023-04-25T11:36:41Z</time>
      </trkpt>
      <trkpt lat="49.17405" lon="-0.64378">
        <ele>80.6</ele>
        <time>2023-04-25T11:36:42Z</time>
      </trkpt>
      <trkpt lat="49.17409" lon="-0.64396">
        <ele>79.4</ele>
        <time>2023-04-25T11:36:43Z</time>
      </trkpt>
      <trkpt lat="49.17412" lon="-0.64415">
        <ele>78</ele>
        <time>2023-04-25T11:36:44Z</time>
      </trkpt>
      <trkpt lat="49.17415" lon="-0.64435">
        <ele>77</ele>
        <time>2023-04-25T11:36:45Z</time>
      </trkpt>
      <trkpt lat="49.17418" lon="-0.64454">
        <ele>76</ele>
        <time>2023-04-25T11:36:46Z</time>
      </trkpt>
      <trkpt lat="49.17422" lon="-0.64474">
        <ele>75</ele>
        <time>2023-04-25T11:36:47Z</time>
      </trkpt>
      <trkpt lat="49.17425" lon="-0.64494">
        <ele>74</ele>
        <time>2023-04-25T11:36:48Z</time>
      </trkpt>
      <trkpt lat="49.17428" lon="-0.64513">
        <ele>73.8</ele>
        <time>2023-04-25T11:36:49Z</time>
      </trkpt>
      <trkpt lat="49.17431" lon="-0.64532">
        <ele>74</ele>
        <time>2023-04-25T11:36:50Z</time>
      </trkpt>
      <trkpt lat="49.17435" lon="-0.6455">
        <ele>74.4</ele>
        <time>2023-04-25T11:36:51Z</time>
      </trkpt>
      <trkpt lat="49.17438" lon="-0.64567">
        <ele>74.6</ele>
        <time>2023-04-25T11:36:52Z</time>
      </trkpt>
      <trkpt lat="49.17441" lon="-0.64584">
        <ele>75</ele>
        <time>2023-04-25T11:36:53Z</time>
      </trkpt>
      <trkpt lat="49.17444" lon="-0.646">
        <ele>76</ele>
        <time>2023-04-25T11:36:54Z</time>
      </trkpt>
      <trkpt lat="49.17446" lon="-0.64614">
        <ele>76.6</ele>
        <time>2023-04-25T11:36:55Z</time>
      </trkpt>
      <trkpt lat="49.17449" lon="-0.64628">
        <ele>77.6</ele>
        <time>2023-04-25T11:36:56Z</time>
      </trkpt>
      <trkpt lat="49.17451" lon="-0.64641">
        <ele>78.4</ele>
        <time>2023-04-25T11:36:57Z</time>
      </trkpt>
      <trkpt lat="49.17453" lon="-0.64653">
        <ele>79</ele>
        <time>2023-04-25T11:36:58Z</time>
      </trkpt>
      <trkpt lat="49.17455" lon="-0.64664">
        <ele>79.8</ele>
        <time>2023-04-25T11:36:59Z</time>
      </trkpt>
      <trkpt lat="49.17457" lon="-0.64675">
        <ele>80.6</ele>
        <time>2023-04-25T11:37:00Z</time>
      </trkpt>
      <trkpt lat="49.17458" lon="-0.64686">
        <ele>81.4</ele>
        <time>2023-04-25T11:37:01Z</time>
      </trkpt>
      <trkpt lat="49.1746" lon="-0.64696">
        <ele>82</ele>
        <time>2023-04-25T11:37:02Z</time>
      </trkpt>
      <trkpt lat="49.17462" lon="-0.64706">
        <ele>82.6</ele>
        <time>2023-04-25T11:37:03Z</time>
      </trkpt>
      <trkpt lat="49.17463" lon="-0.64715">
        <ele>83.2</ele>
        <time>2023-04-25T11:37:04Z</time>
      </trkpt>
      <trkpt lat="49.17464" lon="-0.64725">
        <ele>83.8</ele>
        <time>2023-04-25T11:37:05Z</time>
      </trkpt>
      <trkpt lat="49.17466" lon="-0.64734">
        <ele>84.4</ele>
        <time>2023-04-25T11:37:06Z</time>
      </trkpt>
      <trkpt lat="49.17467" lon="-0.64743">
        <ele>85</ele>
        <time>2023-04-25T11:37:07Z</time>
      </trkpt>
      <trkpt lat="49.17469" lon="-0.64752">
        <ele>85.4</ele>
        <time>2023-04-25T11:37:08Z</time>
      </trkpt>
      <trkpt lat="49.1747" lon="-0.6476">
        <ele>85.6</ele>
        <time>2023-04-25T11:37:09Z</time>
      </trkpt>
      <trkpt lat="49.17471" lon="-0.64769">
        <ele>86</ele>
        <time>2023-04-25T11:37:10Z</time>
      </trkpt>
      <trkpt lat="49.17473" lon="-0.64777">
        <ele>86</ele>
        <time>2023-04-25T11:37:11Z</time>
      </trkpt>
      <trkpt lat="49.17474" lon="-0.64785">
        <ele>86.4</ele>
        <time>2023-04-25T11:37:12Z</time>
      </trkpt>
      <trkpt lat="49.17476" lon="-0.64794">
        <ele>86.6</ele>
        <time>2023-04-25T11:37:13Z</time>
      </trkpt>
      <trkpt lat="49.17477" lon="-0.64802">
        <ele>86.8</ele>
        <time>2023-04-25T11:37:14Z</time>
      </trkpt>
      <trkpt lat="49.17479" lon="-0.6481">
        <ele>87</ele>
        <time>2023-04-25T11:37:15Z</time>
      </trkpt>
      <trkpt lat="49.1748" lon="-0.64818">
        <ele>87.4</ele>
        <time>2023-04-25T11:37:16Z</time>
      </trkpt>
      <trkpt lat="49.17482" lon="-0.64826">
        <ele>87.6</ele>
        <time>2023-04-25T11:37:17Z</time>
      </trkpt>
      <trkpt lat="49.17483" lon="-0.64833">
        <ele>87.8</ele>
        <time>2023-04-25T11:37:18Z</time>
      </trkpt>
      <trkpt lat="49.17485" lon="-0.64841">
        <ele>88</ele>
        <time>2023-04-25T11:37:19Z</time>
      </trkpt>
      <trkpt lat="49.17486" lon="-0.64849">
        <ele>88</ele>
        <time>2023-04-25T11:37:20Z</time>
      </trkpt>
      <trkpt lat="49.17488" lon="-0.64856">
        <ele>88.2</ele>
        <time>2023-04-25T11:37:21Z</time>
      </trkpt>
      <trkpt lat="49.17489" lon="-0.64864">
        <ele>88.4</ele>
        <time>2023-04-25T11:37:22Z</time>
      </trkpt>
      <trkpt lat="49.17491" lon="-0.64871">
        <ele>88.4</ele>
        <time>2023-04-25T11:37:23Z</time>
      </trkpt>
      <trkpt lat="49.17492" lon="-0.64878">
        <ele>88.6</ele>
        <time>2023-04-25T11:37:24Z</time>
      </trkpt>
      <trkpt lat="49.17493" lon="-0.64885">
        <ele>88.6</ele>
        <time>2023-04-25T11:37:25Z</time>
      </trkpt>
      <trkpt lat="49.17495" lon="-0.64892">
        <ele>88.6</ele>
        <time>2023-04-25T11:37:26Z</time>
      </trkpt>
      <trkpt lat="49.17496" lon="-0.64899">
        <ele>88.8</ele>
        <time>2023-04-25T11:37:27Z</time>
      </trkpt>
      <trkpt lat="49.17497" lon="-0.64906">
        <ele>89</ele>
        <time>2023-04-25T11:37:28Z</time>
      </trkpt>
      <trkpt lat="49.17499" lon="-0.64913">
        <ele>89</ele>
        <time>2023-04-25T11:37:29Z</time>
      </trkpt>
      <trkpt lat="49.175" lon="-0.6492">
        <ele>89</ele>
        <time>2023-04-25T11:37:30Z</time>
      </trkpt>
      <trkpt lat="49.17501" lon="-0.64927">
        <ele>89.2</ele>
        <time>2023-04-25T11:37:31Z</time>
      </trkpt>
      <trkpt lat="49.17502" lon="-0.64933">
        <ele>89.4</ele>
        <time>2023-04-25T11:37:32Z</time>
      </trkpt>
      <trkpt lat="49.17503" lon="-0.6494">
        <ele>89.6</ele>
        <time>2023-04-25T11:37:33Z</time>
      </trkpt>
      <trkpt lat="49.17504" lon="-0.64948">
        <ele>89.6</ele>
        <time>2023-04-25T11:37:34Z</time>
      </trkpt>
      <trkpt lat="49.17505" lon="-0.64955">
        <ele>90</ele>
        <time>2023-04-25T11:37:35Z</time>
      </trkpt>
      <trkpt lat="49.17506" lon="-0.64962">
        <ele>90</ele>
        <time>2023-04-25T11:37:36Z</time>
      </trkpt>
      <trkpt lat="49.17507" lon="-0.64969">
        <ele>90.2</ele>
        <time>2023-04-25T11:37:37Z</time>
      </trkpt>
      <trkpt lat="49.17507" lon="-0.64976">
        <ele>90.4</ele>
        <time>2023-04-25T11:37:38Z</time>
      </trkpt>
      <trkpt lat="49.17508" lon="-0.64983">
        <ele>90.6</ele>
        <time>2023-04-25T11:37:39Z</time>
      </trkpt>
      <trkpt lat="49.17508" lon="-0.6499">
        <ele>90.6</ele>
        <time>2023-04-25T11:37:40Z</time>
      </trkpt>
      <trkpt lat="49.17509" lon="-0.64997">
        <ele>90.8</ele>
        <time>2023-04-25T11:37:41Z</time>
      </trkpt>
      <trkpt lat="49.17509" lon="-0.65004">
        <ele>91</ele>
        <time>2023-04-25T11:37:42Z</time>
      </trkpt>
      <trkpt lat="49.17509" lon="-0.65011">
        <ele>91.2</ele>
        <time>2023-04-25T11:37:43Z</time>
      </trkpt>
      <trkpt lat="49.17509" lon="-0.65019">
        <ele>91.4</ele>
        <time>2023-04-25T11:37:44Z</time>
      </trkpt>
      <trkpt lat="49.17509" lon="-0.65026">
        <ele>91.6</ele>
        <time>2023-04-25T11:37:45Z</time>
      </trkpt>
      <trkpt lat="49.17509" lon="-0.65033">
        <ele>91.6</ele>
        <time>2023-04-25T11:37:46Z</time>
      </trkpt>
      <trkpt lat="49.17509" lon="-0.6504">
        <ele>91.8</ele>
        <time>2023-04-25T11:37:47Z</time>
      </trkpt>
      <trkpt lat="49.17509" lon="-0.65047">
        <ele>92</ele>
        <time>2023-04-25T11:37:48Z</time>
      </trkpt>
      <trkpt lat="49.17508" lon="-0.65055">
        <ele>92</ele>
        <time>2023-04-25T11:37:49Z</time>
      </trkpt>
      <trkpt lat="49.17508" lon="-0.65062">
        <ele>92.4</ele>
        <time>2023-04-25T11:37:50Z</time>
      </trkpt>
      <trkpt lat="49.17508" lon="-0.65069">
        <ele>92.6</ele>
        <time>2023-04-25T11:37:51Z</time>
      </trkpt>
      <trkpt lat="49.17507" lon="-0.65076">
        <ele>92.6</ele>
        <time>2023-04-25T11:37:52Z</time>
      </trkpt>
      <trkpt lat="49.17507" lon="-0.65084">
        <ele>92.8</ele>
        <time>2023-04-25T11:37:53Z</time>
      </trkpt>
      <trkpt lat="49.17506" lon="-0.65091">
        <ele>92.8</ele>
        <time>2023-04-25T11:37:54Z</time>
      </trkpt>
      <trkpt lat="49.17505" lon="-0.65099">
        <ele>92.8</ele>
        <time>2023-04-25T11:37:55Z</time>
      </trkpt>
      <trkpt lat="49.17505" lon="-0.65107">
        <ele>93</ele>
        <time>2023-04-25T11:37:56Z</time>
      </trkpt>
      <trkpt lat="49.17504" lon="-0.65115">
        <ele>93</ele>
        <time>2023-04-25T11:37:57Z</time>
      </trkpt>
      <trkpt lat="49.17503" lon="-0.65123">
        <ele>93</ele>
        <time>2023-04-25T11:37:58Z</time>
      </trkpt>
      <trkpt lat="49.17503" lon="-0.65132">
        <ele>93</ele>
        <time>2023-04-25T11:37:59Z</time>
      </trkpt>
      <trkpt lat="49.17502" lon="-0.65141">
        <ele>93</ele>
        <time>2023-04-25T11:38:00Z</time>
      </trkpt>
      <trkpt lat="49.17501" lon="-0.65149">
        <ele>93</ele>
        <time>2023-04-25T11:38:01Z</time>
      </trkpt>
      <trkpt lat="49.175" lon="-0.65158">
        <ele>93</ele>
        <time>2023-04-25T11:38:02Z</time>
      </trkpt>
      <trkpt lat="49.175" lon="-0.65168">
        <ele>93</ele>
        <time>2023-04-25T11:38:03Z</time>
      </trkpt>
      <trkpt lat="49.17499" lon="-0.65177">
        <ele>93</ele>
        <time>2023-04-25T11:38:04Z</time>
      </trkpt>
      <trkpt lat="49.17498" lon="-0.65186">
        <ele>93</ele>
        <time>2023-04-25T11:38:05Z</time>
      </trkpt>
      <trkpt lat="49.17497" lon="-0.65195">
        <ele>93.2</ele>
        <time>2023-04-25T11:38:06Z</time>
      </trkpt>
      <trkpt lat="49.17496" lon="-0.65205">
        <ele>93.4</ele>
        <time>2023-04-25T11:38:07Z</time>
      </trkpt>
      <trkpt lat="49.17495" lon="-0.65214">
        <ele>93.4</ele>
        <time>2023-04-25T11:38:08Z</time>
      </trkpt>
      <trkpt lat="49.17494" lon="-0.65224">
        <ele>93.6</ele>
        <time>2023-04-25T11:38:09Z</time>
      </trkpt>
      <trkpt lat="49.17493" lon="-0.65233">
        <ele>93.6</ele>
        <time>2023-04-25T11:38:10Z</time>
      </trkpt>
      <trkpt lat="49.17492" lon="-0.65243">
        <ele>93.8</ele>
        <time>2023-04-25T11:38:11Z</time>
      </trkpt>
      <trkpt lat="49.17491" lon="-0.65253">
        <ele>94</ele>
        <time>2023-04-25T11:38:12Z</time>
      </trkpt>
      <trkpt lat="49.1749" lon="-0.65263">
        <ele>93.8</ele>
        <time>2023-04-25T11:38:13Z</time>
      </trkpt>
      <trkpt lat="49.17489" lon="-0.65273">
        <ele>93.6</ele>
        <time>2023-04-25T11:38:14Z</time>
      </trkpt>
      <trkpt lat="49.17488" lon="-0.65283">
        <ele>93.6</ele>
        <time>2023-04-25T11:38:15Z</time>
      </trkpt>
      <trkpt lat="49.17487" lon="-0.65293">
        <ele>93.6</ele>
        <time>2023-04-25T11:38:16Z</time>
      </trkpt>
      <trkpt lat="49.17486" lon="-0.65303">
        <ele>93.4</ele>
        <time>2023-04-25T11:38:17Z</time>
      </trkpt>
      <trkpt lat="49.17485" lon="-0.65314">
        <ele>93.4</ele>
        <time>2023-04-25T11:38:18Z</time>
      </trkpt>
      <trkpt lat="49.17484" lon="-0.65324">
        <ele>93.4</ele>
        <time>2023-04-25T11:38:19Z</time>
      </trkpt>
      <trkpt lat="49.17483" lon="-0.65335">
        <ele>93.2</ele>
        <time>2023-04-25T11:38:20Z</time>
      </trkpt>
      <trkpt lat="49.17482" lon="-0.65345">
        <ele>93</ele>
        <time>2023-04-25T11:38:21Z</time>
      </trkpt>
      <trkpt lat="49.17481" lon="-0.65356">
        <ele>93</ele>
        <time>2023-04-25T11:38:22Z</time>
      </trkpt>
      <trkpt lat="49.1748" lon="-0.65367">
        <ele>93</ele>
        <time>2023-04-25T11:38:23Z</time>
      </trkpt>
      <trkpt lat="49.17479" lon="-0.65378">
        <ele>92.8</ele>
        <time>2023-04-25T11:38:24Z</time>
      </trkpt>
      <trkpt lat="49.17478" lon="-0.65389">
        <ele>92.6</ele>
        <time>2023-04-25T11:38:25Z</time>
      </trkpt>
      <trkpt lat="49.17477" lon="-0.65399">
        <ele>92.6</ele>
        <time>2023-04-25T11:38:26Z</time>
      </trkpt>
      <trkpt lat="49.17476" lon="-0.6541">
        <ele>92.4</ele>
        <time>2023-04-25T11:38:27Z</time>
      </trkpt>
      <trkpt lat="49.17475" lon="-0.65421">
        <ele>92.4</ele>
        <time>2023-04-25T11:38:28Z</time>
      </trkpt>
      <trkpt lat="49.17474" lon="-0.65432">
        <ele>92</ele>
        <time>2023-04-25T11:38:29Z</time>
      </trkpt>
      <trkpt lat="49.17473" lon="-0.65444">
        <ele>92</ele>
        <time>2023-04-25T11:38:30Z</time>
      </trkpt>
      <trkpt lat="49.17472" lon="-0.65455">
        <ele>91.8</ele>
        <time>2023-04-25T11:38:31Z</time>
      </trkpt>
      <trkpt lat="49.17471" lon="-0.65466">
        <ele>91.6</ele>
        <time>2023-04-25T11:38:32Z</time>
      </trkpt>
      <trkpt lat="49.1747" lon="-0.65477">
        <ele>91.4</ele>
        <time>2023-04-25T11:38:33Z</time>
      </trkpt>
      <trkpt lat="49.17469" lon="-0.65488">
        <ele>91.2</ele>
        <time>2023-04-25T11:38:34Z</time>
      </trkpt>
      <trkpt lat="49.17468" lon="-0.65499">
        <ele>91</ele>
        <time>2023-04-25T11:38:35Z</time>
      </trkpt>
      <trkpt lat="49.17466" lon="-0.65511">
        <ele>91</ele>
        <time>2023-04-25T11:38:36Z</time>
      </trkpt>
      <trkpt lat="49.17465" lon="-0.65522">
        <ele>91</ele>
        <time>2023-04-25T11:38:37Z</time>
      </trkpt>
      <trkpt lat="49.17464" lon="-0.65533">
        <ele>90.8</ele>
        <time>2023-04-25T11:38:38Z</time>
      </trkpt>
      <trkpt lat="49.17463" lon="-0.65545">
        <ele>90.6</ele>
        <time>2023-04-25T11:38:39Z</time>
      </trkpt>
      <trkpt lat="49.17462" lon="-0.65556">
        <ele>90.6</ele>
        <time>2023-04-25T11:38:40Z</time>
      </trkpt>
      <trkpt lat="49.17461" lon="-0.65568">
        <ele>90.6</ele>
        <time>2023-04-25T11:38:41Z</time>
      </trkpt>
      <trkpt lat="49.17459" lon="-0.6558">
        <ele>90.6</ele>
        <time>2023-04-25T11:38:42Z</time>
      </trkpt>
      <trkpt lat="49.17458" lon="-0.65591">
        <ele>90.6</ele>
        <time>2023-04-25T11:38:43Z</time>
      </trkpt>
      <trkpt lat="49.17457" lon="-0.65603">
        <ele>90.8</ele>
        <time>2023-04-25T11:38:44Z</time>
      </trkpt>
      <trkpt lat="49.17456" lon="-0.65615">
        <ele>91</ele>
        <time>2023-04-25T11:38:45Z</time>
      </trkpt>
      <trkpt lat="49.17455" lon="-0.65626">
        <ele>91.2</ele>
        <time>2023-04-25T11:38:46Z</time>
      </trkpt>
      <trkpt lat="49.17454" lon="-0.65638">
        <ele>91.4</ele>
        <time>2023-04-25T11:38:47Z</time>
      </trkpt>
      <trkpt lat="49.17452" lon="-0.6565">
        <ele>91.6</ele>
        <time>2023-04-25T11:38:48Z</time>
      </trkpt>
      <trkpt lat="49.17451" lon="-0.65662">
        <ele>92</ele>
        <time>2023-04-25T11:38:49Z</time>
      </trkpt>
      <trkpt lat="49.1745" lon="-0.65674">
        <ele>92</ele>
        <time>2023-04-25T11:38:50Z</time>
      </trkpt>
      <trkpt lat="49.17449" lon="-0.65686">
        <ele>92</ele>
        <time>2023-04-25T11:38:51Z</time>
      </trkpt>
      <trkpt lat="49.17448" lon="-0.65698">
        <ele>92</ele>
        <time>2023-04-25T11:38:52Z</time>
      </trkpt>
      <trkpt lat="49.17446" lon="-0.65711">
        <ele>92</ele>
        <time>2023-04-25T11:38:53Z</time>
      </trkpt>
      <trkpt lat="49.17445" lon="-0.65723">
        <ele>92</ele>
        <time>2023-04-25T11:38:54Z</time>
      </trkpt>
      <trkpt lat="49.17444" lon="-0.65735">
        <ele>92</ele>
        <time>2023-04-25T11:38:55Z</time>
      </trkpt>
      <trkpt lat="49.17443" lon="-0.65747">
        <ele>92</ele>
        <time>2023-04-25T11:38:56Z</time>
      </trkpt>
      <trkpt lat="49.17442" lon="-0.6576">
        <ele>92.2</ele>
        <time>2023-04-25T11:38:57Z</time>
      </trkpt>
      <trkpt lat="49.17441" lon="-0.65772">
        <ele>92.4</ele>
        <time>2023-04-25T11:38:58Z</time>
      </trkpt>
      <trkpt lat="49.17439" lon="-0.65784">
        <ele>92.4</ele>
        <time>2023-04-25T11:38:59Z</time>
      </trkpt>
      <trkpt lat="49.17438" lon="-0.65796">
        <ele>92.4</ele>
        <time>2023-04-25T11:39:00Z</time>
      </trkpt>
      <trkpt lat="49.17437" lon="-0.65808">
        <ele>92.6</ele>
        <time>2023-04-25T11:39:01Z</time>
      </trkpt>
      <trkpt lat="49.17436" lon="-0.6582">
        <ele>92.6</ele>
        <time>2023-04-25T11:39:02Z</time>
      </trkpt>
      <trkpt lat="49.17435" lon="-0.65832">
        <ele>92.6</ele>
        <time>2023-04-25T11:39:03Z</time>
      </trkpt>
      <trkpt lat="49.17433" lon="-0.65844">
        <ele>92.6</ele>
        <time>2023-04-25T11:39:04Z</time>
      </trkpt>
      <trkpt lat="49.17432" lon="-0.65855">
        <ele>92.2</ele>
        <time>2023-04-25T11:39:05Z</time>
      </trkpt>
      <trkpt lat="49.17431" lon="-0.65867">
        <ele>92</ele>
        <time>2023-04-25T11:39:06Z</time>
      </trkpt>
      <trkpt lat="49.1743" lon="-0.65878">
        <ele>91.6</ele>
        <time>2023-04-25T11:39:07Z</time>
      </trkpt>
      <trkpt lat="49.17429" lon="-0.65889">
        <ele>91.4</ele>
        <time>2023-04-25T11:39:08Z</time>
      </trkpt>
      <trkpt lat="49.17428" lon="-0.659">
        <ele>91</ele>
        <time>2023-04-25T11:39:09Z</time>
      </trkpt>
      <trkpt lat="49.17427" lon="-0.65911">
        <ele>90.8</ele>
        <time>2023-04-25T11:39:10Z</time>
      </trkpt>
      <trkpt lat="49.17426" lon="-0.65922">
        <ele>90.6</ele>
        <time>2023-04-25T11:39:11Z</time>
      </trkpt>
      <trkpt lat="49.17425" lon="-0.65933">
        <ele>90.6</ele>
        <time>2023-04-25T11:39:12Z</time>
      </trkpt>
      <trkpt lat="49.17424" lon="-0.65944">
        <ele>90.8</ele>
        <time>2023-04-25T11:39:13Z</time>
      </trkpt>
      <trkpt lat="49.17423" lon="-0.65954">
        <ele>90.8</ele>
        <time>2023-04-25T11:39:14Z</time>
      </trkpt>
      <trkpt lat="49.17422" lon="-0.65965">
        <ele>91</ele>
        <time>2023-04-25T11:39:15Z</time>
      </trkpt>
      <trkpt lat="49.1742" lon="-0.65975">
        <ele>91</ele>
        <time>2023-04-25T11:39:16Z</time>
      </trkpt>
      <trkpt lat="49.17419" lon="-0.65986">
        <ele>91</ele>
        <time>2023-04-25T11:39:17Z</time>
      </trkpt>
      <trkpt lat="49.17419" lon="-0.65997">
        <ele>91</ele>
        <time>2023-04-25T11:39:18Z</time>
      </trkpt>
      <trkpt lat="49.17418" lon="-0.66007">
        <ele>91</ele>
        <time>2023-04-25T11:39:19Z</time>
      </trkpt>
      <trkpt lat="49.17416" lon="-0.66018">
        <ele>91</ele>
        <time>2023-04-25T11:39:20Z</time>
      </trkpt>
      <trkpt lat="49.17416" lon="-0.66029">
        <ele>91</ele>
        <time>2023-04-25T11:39:21Z</time>
      </trkpt>
      <trkpt lat="49.17415" lon="-0.66039">
        <ele>91</ele>
        <time>2023-04-25T11:39:22Z</time>
      </trkpt>
      <trkpt lat="49.17413" lon="-0.6605">
        <ele>91</ele>
        <time>2023-04-25T11:39:23Z</time>
      </trkpt>
      <trkpt lat="49.17412" lon="-0.6606">
        <ele>91</ele>
        <time>2023-04-25T11:39:24Z</time>
      </trkpt>
      <trkpt lat="49.17412" lon="-0.66071">
        <ele>91</ele>
        <time>2023-04-25T11:39:25Z</time>
      </trkpt>
      <trkpt lat="49.1741" lon="-0.66082">
        <ele>91</ele>
        <time>2023-04-25T11:39:26Z</time>
      </trkpt>
      <trkpt lat="49.17409" lon="-0.66092">
        <ele>91</ele>
        <time>2023-04-25T11:39:27Z</time>
      </trkpt>
      <trkpt lat="49.17409" lon="-0.66103">
        <ele>90.8</ele>
        <time>2023-04-25T11:39:28Z</time>
      </trkpt>
      <trkpt lat="49.17407" lon="-0.66113">
        <ele>90.8</ele>
        <time>2023-04-25T11:39:29Z</time>
      </trkpt>
      <trkpt lat="49.17406" lon="-0.66124">
        <ele>90.6</ele>
        <time>2023-04-25T11:39:30Z</time>
      </trkpt>
      <trkpt lat="49.17405" lon="-0.66134">
        <ele>90.6</ele>
        <time>2023-04-25T11:39:31Z</time>
      </trkpt>
      <trkpt lat="49.17404" lon="-0.66144">
        <ele>90.6</ele>
        <time>2023-04-25T11:39:32Z</time>
      </trkpt>
      <trkpt lat="49.17403" lon="-0.66155">
        <ele>90.6</ele>
        <time>2023-04-25T11:39:33Z</time>
      </trkpt>
      <trkpt lat="49.17402" lon="-0.66165">
        <ele>90.6</ele>
        <time>2023-04-25T11:39:34Z</time>
      </trkpt>
      <trkpt lat="49.17401" lon="-0.66176">
        <ele>90.6</ele>
        <time>2023-04-25T11:39:35Z</time>
      </trkpt>
      <trkpt lat="49.174" lon="-0.66186">
        <ele>90.4</ele>
        <time>2023-04-25T11:39:36Z</time>
      </trkpt>
      <trkpt lat="49.17399" lon="-0.66196">
        <ele>90.4</ele>
        <time>2023-04-25T11:39:37Z</time>
      </trkpt>
      <trkpt lat="49.17398" lon="-0.66206">
        <ele>90.4</ele>
        <time>2023-04-25T11:39:38Z</time>
      </trkpt>
      <trkpt lat="49.17397" lon="-0.66216">
        <ele>90.4</ele>
        <time>2023-04-25T11:39:39Z</time>
      </trkpt>
      <trkpt lat="49.17396" lon="-0.66226">
        <ele>90.2</ele>
        <time>2023-04-25T11:39:40Z</time>
      </trkpt>
      <trkpt lat="49.17395" lon="-0.66236">
        <ele>90.2</ele>
        <time>2023-04-25T11:39:41Z</time>
      </trkpt>
      <trkpt lat="49.17394" lon="-0.66246">
        <ele>90</ele>
        <time>2023-04-25T11:39:42Z</time>
      </trkpt>
      <trkpt lat="49.17393" lon="-0.66256">
        <ele>90</ele>
        <time>2023-04-25T11:39:43Z</time>
      </trkpt>
      <trkpt lat="49.17393" lon="-0.66266">
        <ele>90</ele>
        <time>2023-04-25T11:39:44Z</time>
      </trkpt>
      <trkpt lat="49.17392" lon="-0.66275">
        <ele>90</ele>
        <time>2023-04-25T11:39:45Z</time>
      </trkpt>
      <trkpt lat="49.17391" lon="-0.66285">
        <ele>90</ele>
        <time>2023-04-25T11:39:46Z</time>
      </trkpt>
      <trkpt lat="49.1739" lon="-0.66295">
        <ele>90</ele>
        <time>2023-04-25T11:39:47Z</time>
      </trkpt>
      <trkpt lat="49.17389" lon="-0.66305">
        <ele>90</ele>
        <time>2023-04-25T11:39:48Z</time>
      </trkpt>
      <trkpt lat="49.17388" lon="-0.66314">
        <ele>90</ele>
        <time>2023-04-25T11:39:49Z</time>
      </trkpt>
      <trkpt lat="49.17387" lon="-0.66324">
        <ele>89.8</ele>
        <time>2023-04-25T11:39:50Z</time>
      </trkpt>
      <trkpt lat="49.17386" lon="-0.66334">
        <ele>89.6</ele>
        <time>2023-04-25T11:39:51Z</time>
      </trkpt>
      <trkpt lat="49.17385" lon="-0.66344">
        <ele>89.8</ele>
        <time>2023-04-25T11:39:52Z</time>
      </trkpt>
      <trkpt lat="49.17384" lon="-0.66354">
        <ele>89.8</ele>
        <time>2023-04-25T11:39:53Z</time>
      </trkpt>
      <trkpt lat="49.17383" lon="-0.66364">
        <ele>89.8</ele>
        <time>2023-04-25T11:39:54Z</time>
      </trkpt>
      <trkpt lat="49.17382" lon="-0.66374">
        <ele>89.8</ele>
        <time>2023-04-25T11:39:55Z</time>
      </trkpt>
      <trkpt lat="49.1738" lon="-0.66384">
        <ele>90</ele>
        <time>2023-04-25T11:39:56Z</time>
      </trkpt>
      <trkpt lat="49.17379" lon="-0.66395">
        <ele>90</ele>
        <time>2023-04-25T11:39:57Z</time>
      </trkpt>
      <trkpt lat="49.17378" lon="-0.66406">
        <ele>90</ele>
        <time>2023-04-25T11:39:58Z</time>
      </trkpt>
      <trkpt lat="49.17377" lon="-0.66418">
        <ele>90</ele>
        <time>2023-04-25T11:39:59Z</time>
      </trkpt>
      <trkpt lat="49.17376" lon="-0.66429">
        <ele>89.6</ele>
        <time>2023-04-25T11:40:00Z</time>
      </trkpt>
      <trkpt lat="49.17375" lon="-0.66441">
        <ele>89.6</ele>
        <time>2023-04-25T11:40:01Z</time>
      </trkpt>
      <trkpt lat="49.17374" lon="-0.66454">
        <ele>89.4</ele>
        <time>2023-04-25T11:40:02Z</time>
      </trkpt>
      <trkpt lat="49.17373" lon="-0.66466">
        <ele>89.2</ele>
        <time>2023-04-25T11:40:03Z</time>
      </trkpt>
      <trkpt lat="49.17372" lon="-0.66479">
        <ele>89</ele>
        <time>2023-04-25T11:40:04Z</time>
      </trkpt>
      <trkpt lat="49.17371" lon="-0.66492">
        <ele>88.8</ele>
        <time>2023-04-25T11:40:05Z</time>
      </trkpt>
      <trkpt lat="49.17371" lon="-0.66505">
        <ele>88.4</ele>
        <time>2023-04-25T11:40:06Z</time>
      </trkpt>
      <trkpt lat="49.17372" lon="-0.66519">
        <ele>88</ele>
        <time>2023-04-25T11:40:07Z</time>
      </trkpt>
      <trkpt lat="49.17373" lon="-0.66532">
        <ele>87.4</ele>
        <time>2023-04-25T11:40:08Z</time>
      </trkpt>
      <trkpt lat="49.17374" lon="-0.66546">
        <ele>87</ele>
        <time>2023-04-25T11:40:09Z</time>
      </trkpt>
      <trkpt lat="49.17376" lon="-0.6656">
        <ele>86.4</ele>
        <time>2023-04-25T11:40:10Z</time>
      </trkpt>
      <trkpt lat="49.17378" lon="-0.66574">
        <ele>85.6</ele>
        <time>2023-04-25T11:40:11Z</time>
      </trkpt>
      <trkpt lat="49.1738" lon="-0.66589">
        <ele>85</ele>
        <time>2023-04-25T11:40:12Z</time>
      </trkpt>
      <trkpt lat="49.17383" lon="-0.66603">
        <ele>84.6</ele>
        <time>2023-04-25T11:40:13Z</time>
      </trkpt>
      <trkpt lat="49.17385" lon="-0.66618">
        <ele>84.2</ele>
        <time>2023-04-25T11:40:14Z</time>
      </trkpt>
      <trkpt lat="49.17388" lon="-0.66633">
        <ele>83.6</ele>
        <time>2023-04-25T11:40:15Z</time>
      </trkpt>
      <trkpt lat="49.17391" lon="-0.66648">
        <ele>83.4</ele>
        <time>2023-04-25T11:40:16Z</time>
      </trkpt>
      <trkpt lat="49.17394" lon="-0.66663">
        <ele>83</ele>
        <time>2023-04-25T11:40:17Z</time>
      </trkpt>
      <trkpt lat="49.17397" lon="-0.66678">
        <ele>82.4</ele>
        <time>2023-04-25T11:40:18Z</time>
      </trkpt>
      <trkpt lat="49.174" lon="-0.66694">
        <ele>81.6</ele>
        <time>2023-04-25T11:40:19Z</time>
      </trkpt>
      <trkpt lat="49.17403" lon="-0.6671">
        <ele>81</ele>
        <time>2023-04-25T11:40:20Z</time>
      </trkpt>
      <trkpt lat="49.17406" lon="-0.66726">
        <ele>80.4</ele>
        <time>2023-04-25T11:40:21Z</time>
      </trkpt>
      <trkpt lat="49.17409" lon="-0.66742">
        <ele>79.6</ele>
        <time>2023-04-25T11:40:22Z</time>
      </trkpt>
      <trkpt lat="49.17412" lon="-0.66758">
        <ele>79.6</ele>
        <time>2023-04-25T11:40:23Z</time>
      </trkpt>
      <trkpt lat="49.17416" lon="-0.66773">
        <ele>80</ele>
        <time>2023-04-25T11:40:24Z</time>
      </trkpt>
      <trkpt lat="49.17419" lon="-0.66788">
        <ele>80.4</ele>
        <time>2023-04-25T11:40:25Z</time>
      </trkpt>
      <trkpt lat="49.17422" lon="-0.66802">
        <ele>81</ele>
        <time>2023-04-25T11:40:26Z</time>
      </trkpt>
      <trkpt lat="49.17424" lon="-0.66816">
        <ele>81.6</ele>
        <time>2023-04-25T11:40:27Z</time>
      </trkpt>
      <trkpt lat="49.17427" lon="-0.66829">
        <ele>82</ele>
        <time>2023-04-25T11:40:28Z</time>
      </trkpt>
      <trkpt lat="49.1743" lon="-0.66841">
        <ele>82.8</ele>
        <time>2023-04-25T11:40:29Z</time>
      </trkpt>
      <trkpt lat="49.17432" lon="-0.66853">
        <ele>83.6</ele>
        <time>2023-04-25T11:40:30Z</time>
      </trkpt>
      <trkpt lat="49.17434" lon="-0.66864">
        <ele>84.4</ele>
        <time>2023-04-25T11:40:31Z</time>
      </trkpt>
      <trkpt lat="49.17437" lon="-0.66875">
        <ele>85</ele>
        <time>2023-04-25T11:40:32Z</time>
      </trkpt>
      <trkpt lat="49.17439" lon="-0.66886">
        <ele>85.6</ele>
        <time>2023-04-25T11:40:33Z</time>
      </trkpt>
      <trkpt lat="49.17441" lon="-0.66896">
        <ele>86.2</ele>
        <time>2023-04-25T11:40:34Z</time>
      </trkpt>
      <trkpt lat="49.17443" lon="-0.66906">
        <ele>86.8</ele>
        <time>2023-04-25T11:40:35Z</time>
      </trkpt>
      <trkpt lat="49.17445" lon="-0.66916">
        <ele>87.4</ele>
        <time>2023-04-25T11:40:36Z</time>
      </trkpt>
      <trkpt lat="49.17447" lon="-0.66926">
        <ele>87.4</ele>
        <time>2023-04-25T11:40:37Z</time>
      </trkpt>
      <trkpt lat="49.17449" lon="-0.66935">
        <ele>87.4</ele>
        <time>2023-04-25T11:40:38Z</time>
      </trkpt>
      <trkpt lat="49.17451" lon="-0.66944">
        <ele>87.4</ele>
        <time>2023-04-25T11:40:39Z</time>
      </trkpt>
      <trkpt lat="49.17453" lon="-0.66953">
        <ele>87.4</ele>
        <time>2023-04-25T11:40:40Z</time>
      </trkpt>
      <trkpt lat="49.17454" lon="-0.66962">
        <ele>87.4</ele>
        <time>2023-04-25T11:40:41Z</time>
      </trkpt>
      <trkpt lat="49.17456" lon="-0.6697">
        <ele>87.4</ele>
        <time>2023-04-25T11:40:42Z</time>
      </trkpt>
      <trkpt lat="49.17458" lon="-0.66978">
        <ele>87.4</ele>
        <time>2023-04-25T11:40:43Z</time>
      </trkpt>
      <trkpt lat="49.17459" lon="-0.66986">
        <ele>87.4</ele>
        <time>2023-04-25T11:40:44Z</time>
      </trkpt>
      <trkpt lat="49.17461" lon="-0.66994">
        <ele>87.4</ele>
        <time>2023-04-25T11:40:45Z</time>
      </trkpt>
      <trkpt lat="49.17462" lon="-0.67001">
        <ele>87.4</ele>
        <time>2023-04-25T11:40:46Z</time>
      </trkpt>
      <trkpt lat="49.17464" lon="-0.67009">
        <ele>87.4</ele>
        <time>2023-04-25T11:40:47Z</time>
      </trkpt>
      <trkpt lat="49.17465" lon="-0.67017">
        <ele>87.6</ele>
        <time>2023-04-25T11:40:48Z</time>
      </trkpt>
      <trkpt lat="49.17467" lon="-0.67024">
        <ele>87.6</ele>
        <time>2023-04-25T11:40:49Z</time>
      </trkpt>
      <trkpt lat="49.17468" lon="-0.67032">
        <ele>87.6</ele>
        <time>2023-04-25T11:40:50Z</time>
      </trkpt>
      <trkpt lat="49.1747" lon="-0.6704">
        <ele>87.6</ele>
        <time>2023-04-25T11:40:51Z</time>
      </trkpt>
      <trkpt lat="49.17471" lon="-0.67047">
        <ele>87.6</ele>
        <time>2023-04-25T11:40:52Z</time>
      </trkpt>
      <trkpt lat="49.17473" lon="-0.67055">
        <ele>87.6</ele>
        <time>2023-04-25T11:40:53Z</time>
      </trkpt>
      <trkpt lat="49.17474" lon="-0.67063">
        <ele>87.6</ele>
        <time>2023-04-25T11:40:54Z</time>
      </trkpt>
      <trkpt lat="49.17476" lon="-0.6707">
        <ele>87.6</ele>
        <time>2023-04-25T11:40:55Z</time>
      </trkpt>
      <trkpt lat="49.17478" lon="-0.67078">
        <ele>87.8</ele>
        <time>2023-04-25T11:40:56Z</time>
      </trkpt>
      <trkpt lat="49.17479" lon="-0.67086">
        <ele>87.8</ele>
        <time>2023-04-25T11:40:57Z</time>
      </trkpt>
      <trkpt lat="49.17481" lon="-0.67094">
        <ele>88</ele>
        <time>2023-04-25T11:40:58Z</time>
      </trkpt>
      <trkpt lat="49.17482" lon="-0.67102">
        <ele>88</ele>
        <time>2023-04-25T11:40:59Z</time>
      </trkpt>
      <trkpt lat="49.17484" lon="-0.67111">
        <ele>88.2</ele>
        <time>2023-04-25T11:41:00Z</time>
      </trkpt>
      <trkpt lat="49.17485" lon="-0.67119">
        <ele>88.4</ele>
        <time>2023-04-25T11:41:01Z</time>
      </trkpt>
      <trkpt lat="49.17487" lon="-0.67127">
        <ele>88.4</ele>
        <time>2023-04-25T11:41:02Z</time>
      </trkpt>
      <trkpt lat="49.17488" lon="-0.67136">
        <ele>88.6</ele>
        <time>2023-04-25T11:41:03Z</time>
      </trkpt>
      <trkpt lat="49.1749" lon="-0.67144">
        <ele>88.6</ele>
        <time>2023-04-25T11:41:04Z</time>
      </trkpt>
      <trkpt lat="49.17492" lon="-0.67153">
        <ele>89</ele>
        <time>2023-04-25T11:41:05Z</time>
      </trkpt>
      <trkpt lat="49.17493" lon="-0.67161">
        <ele>89</ele>
        <time>2023-04-25T11:41:06Z</time>
      </trkpt>
      <trkpt lat="49.17495" lon="-0.6717">
        <ele>89</ele>
        <time>2023-04-25T11:41:07Z</time>
      </trkpt>
      <trkpt lat="49.17497" lon="-0.67179">
        <ele>89</ele>
        <time>2023-04-25T11:41:08Z</time>
      </trkpt>
      <trkpt lat="49.17498" lon="-0.67188">
        <ele>89</ele>
        <time>2023-04-25T11:41:09Z</time>
      </trkpt>
      <trkpt lat="49.175" lon="-0.67196">
        <ele>89</ele>
        <time>2023-04-25T11:41:10Z</time>
      </trkpt>
      <trkpt lat="49.17502" lon="-0.67205">
        <ele>89</ele>
        <time>2023-04-25T11:41:11Z</time>
      </trkpt>
      <trkpt lat="49.17503" lon="-0.67214">
        <ele>88.8</ele>
        <time>2023-04-25T11:41:12Z</time>
      </trkpt>
      <trkpt lat="49.17505" lon="-0.67223">
        <ele>88.8</ele>
        <time>2023-04-25T11:41:13Z</time>
      </trkpt>
      <trkpt lat="49.17507" lon="-0.67231">
        <ele>88.6</ele>
        <time>2023-04-25T11:41:14Z</time>
      </trkpt>
      <trkpt lat="49.17508" lon="-0.6724">
        <ele>88.6</ele>
        <time>2023-04-25T11:41:15Z</time>
      </trkpt>
      <trkpt lat="49.1751" lon="-0.6725">
        <ele>88.6</ele>
        <time>2023-04-25T11:41:16Z</time>
      </trkpt>
      <trkpt lat="49.17512" lon="-0.67259">
        <ele>88.2</ele>
        <time>2023-04-25T11:41:17Z</time>
      </trkpt>
      <trkpt lat="49.17514" lon="-0.67268">
        <ele>87.8</ele>
        <time>2023-04-25T11:41:18Z</time>
      </trkpt>
      <trkpt lat="49.17515" lon="-0.67278">
        <ele>87.6</ele>
        <time>2023-04-25T11:41:19Z</time>
      </trkpt>
      <trkpt lat="49.17517" lon="-0.67288">
        <ele>87</ele>
        <time>2023-04-25T11:41:20Z</time>
      </trkpt>
      <trkpt lat="49.17519" lon="-0.67298">
        <ele>86.6</ele>
        <time>2023-04-25T11:41:21Z</time>
      </trkpt>
      <trkpt lat="49.17521" lon="-0.67308">
        <ele>86.4</ele>
        <time>2023-04-25T11:41:22Z</time>
      </trkpt>
      <trkpt lat="49.17523" lon="-0.67318">
        <ele>85.8</ele>
        <time>2023-04-25T11:41:23Z</time>
      </trkpt>
      <trkpt lat="49.17525" lon="-0.67328">
        <ele>85.4</ele>
        <time>2023-04-25T11:41:24Z</time>
      </trkpt>
      <trkpt lat="49.17527" lon="-0.67339">
        <ele>85</ele>
        <time>2023-04-25T11:41:25Z</time>
      </trkpt>
      <trkpt lat="49.1753" lon="-0.67349">
        <ele>84.6</ele>
        <time>2023-04-25T11:41:26Z</time>
      </trkpt>
      <trkpt lat="49.17532" lon="-0.6736">
        <ele>84.6</ele>
        <time>2023-04-25T11:41:27Z</time>
      </trkpt>
      <trkpt lat="49.17534" lon="-0.67371">
        <ele>84.4</ele>
        <time>2023-04-25T11:41:28Z</time>
      </trkpt>
      <trkpt lat="49.17536" lon="-0.67382">
        <ele>84</ele>
        <time>2023-04-25T11:41:29Z</time>
      </trkpt>
      <trkpt lat="49.17539" lon="-0.67393">
        <ele>83.8</ele>
        <time>2023-04-25T11:41:30Z</time>
      </trkpt>
      <trkpt lat="49.17541" lon="-0.67404">
        <ele>83.6</ele>
        <time>2023-04-25T11:41:31Z</time>
      </trkpt>
      <trkpt lat="49.17543" lon="-0.67416">
        <ele>83.4</ele>
        <time>2023-04-25T11:41:32Z</time>
      </trkpt>
      <trkpt lat="49.17545" lon="-0.67427">
        <ele>83.4</ele>
        <time>2023-04-25T11:41:33Z</time>
      </trkpt>
      <trkpt lat="49.17547" lon="-0.67439">
        <ele>83.2</ele>
        <time>2023-04-25T11:41:34Z</time>
      </trkpt>
      <trkpt lat="49.1755" lon="-0.67451">
        <ele>83.2</ele>
        <time>2023-04-25T11:41:35Z</time>
      </trkpt>
      <trkpt lat="49.17552" lon="-0.67463">
        <ele>83.2</ele>
        <time>2023-04-25T11:41:36Z</time>
      </trkpt>
      <trkpt lat="49.17554" lon="-0.67476">
        <ele>83.2</ele>
        <time>2023-04-25T11:41:37Z</time>
      </trkpt>
      <trkpt lat="49.17557" lon="-0.67487">
        <ele>83.2</ele>
        <time>2023-04-25T11:41:38Z</time>
      </trkpt>
      <trkpt lat="49.17559" lon="-0.67499">
        <ele>83.4</ele>
        <time>2023-04-25T11:41:39Z</time>
      </trkpt>
      <trkpt lat="49.17561" lon="-0.67511">
        <ele>83.4</ele>
        <time>2023-04-25T11:41:40Z</time>
      </trkpt>
      <trkpt lat="49.17563" lon="-0.67522">
        <ele>83.4</ele>
        <time>2023-04-25T11:41:41Z</time>
      </trkpt>
      <trkpt lat="49.17565" lon="-0.67533">
        <ele>83.6</ele>
        <time>2023-04-25T11:41:42Z</time>
      </trkpt>
      <trkpt lat="49.17567" lon="-0.67543">
        <ele>83.6</ele>
        <time>2023-04-25T11:41:43Z</time>
      </trkpt>
      <trkpt lat="49.17568" lon="-0.67553">
        <ele>83.6</ele>
        <time>2023-04-25T11:41:44Z</time>
      </trkpt>
      <trkpt lat="49.1757" lon="-0.67563">
        <ele>83.8</ele>
        <time>2023-04-25T11:41:45Z</time>
      </trkpt>
      <trkpt lat="49.1757" lon="-0.67572">
        <ele>84</ele>
        <time>2023-04-25T11:41:46Z</time>
      </trkpt>
      <trkpt lat="49.17571" lon="-0.67581">
        <ele>84</ele>
        <time>2023-04-25T11:41:47Z</time>
      </trkpt>
      <trkpt lat="49.17572" lon="-0.67589">
        <ele>84</ele>
        <time>2023-04-25T11:41:48Z</time>
      </trkpt>
      <trkpt lat="49.17573" lon="-0.67598">
        <ele>84.4</ele>
        <time>2023-04-25T11:41:49Z</time>
      </trkpt>
      <trkpt lat="49.17574" lon="-0.67606">
        <ele>84.6</ele>
        <time>2023-04-25T11:41:50Z</time>
      </trkpt>
      <trkpt lat="49.17574" lon="-0.67614">
        <ele>84.6</ele>
        <time>2023-04-25T11:41:51Z</time>
      </trkpt>
      <trkpt lat="49.17575" lon="-0.67622">
        <ele>85</ele>
        <time>2023-04-25T11:41:52Z</time>
      </trkpt>
      <trkpt lat="49.17576" lon="-0.6763">
        <ele>85</ele>
        <time>2023-04-25T11:41:53Z</time>
      </trkpt>
      <trkpt lat="49.17577" lon="-0.67638">
        <ele>85.4</ele>
        <time>2023-04-25T11:41:54Z</time>
      </trkpt>
      <trkpt lat="49.17577" lon="-0.67646">
        <ele>85.4</ele>
        <time>2023-04-25T11:41:55Z</time>
      </trkpt>
      <trkpt lat="49.17578" lon="-0.67653">
        <ele>85.6</ele>
        <time>2023-04-25T11:41:56Z</time>
      </trkpt>
      <trkpt lat="49.17579" lon="-0.67661">
        <ele>85.8</ele>
        <time>2023-04-25T11:41:57Z</time>
      </trkpt>
      <trkpt lat="49.17579" lon="-0.67668">
        <ele>86</ele>
        <time>2023-04-25T11:41:58Z</time>
      </trkpt>
      <trkpt lat="49.1758" lon="-0.67675">
        <ele>86.2</ele>
        <time>2023-04-25T11:41:59Z</time>
      </trkpt>
      <trkpt lat="49.17581" lon="-0.67682">
        <ele>86.4</ele>
        <time>2023-04-25T11:42:00Z</time>
      </trkpt>
      <trkpt lat="49.17581" lon="-0.67689">
        <ele>86.6</ele>
        <time>2023-04-25T11:42:01Z</time>
      </trkpt>
      <trkpt lat="49.17582" lon="-0.67696">
        <ele>86.6</ele>
        <time>2023-04-25T11:42:02Z</time>
      </trkpt>
      <trkpt lat="49.17583" lon="-0.67703">
        <ele>87</ele>
        <time>2023-04-25T11:42:03Z</time>
      </trkpt>
      <trkpt lat="49.17583" lon="-0.6771">
        <ele>87</ele>
        <time>2023-04-25T11:42:04Z</time>
      </trkpt>
      <trkpt lat="49.17584" lon="-0.67716">
        <ele>87.2</ele>
        <time>2023-04-25T11:42:05Z</time>
      </trkpt>
      <trkpt lat="49.17585" lon="-0.67723">
        <ele>87.4</ele>
        <time>2023-04-25T11:42:06Z</time>
      </trkpt>
      <trkpt lat="49.17585" lon="-0.6773">
        <ele>87.6</ele>
        <time>2023-04-25T11:42:07Z</time>
      </trkpt>
      <trkpt lat="49.17586" lon="-0.67736">
        <ele>87.6</ele>
        <time>2023-04-25T11:42:08Z</time>
      </trkpt>
      <trkpt lat="49.17586" lon="-0.67743">
        <ele>87.6</ele>
        <time>2023-04-25T11:42:09Z</time>
      </trkpt>
      <trkpt lat="49.17587" lon="-0.6775">
        <ele>88</ele>
        <time>2023-04-25T11:42:10Z</time>
      </trkpt>
      <trkpt lat="49.17587" lon="-0.67756">
        <ele>88</ele>
        <time>2023-04-25T11:42:11Z</time>
      </trkpt>
      <trkpt lat="49.17588" lon="-0.67763">
        <ele>87.8</ele>
        <time>2023-04-25T11:42:12Z</time>
      </trkpt>
      <trkpt lat="49.17589" lon="-0.6777">
        <ele>87.8</ele>
        <time>2023-04-25T11:42:13Z</time>
      </trkpt>
      <trkpt lat="49.17589" lon="-0.67777">
        <ele>87.8</ele>
        <time>2023-04-25T11:42:14Z</time>
      </trkpt>
      <trkpt lat="49.1759" lon="-0.67784">
        <ele>87.8</ele>
        <time>2023-04-25T11:42:15Z</time>
      </trkpt>
      <trkpt lat="49.17591" lon="-0.67792">
        <ele>87.8</ele>
        <time>2023-04-25T11:42:16Z</time>
      </trkpt>
      <trkpt lat="49.17591" lon="-0.67799">
        <ele>87.8</ele>
        <time>2023-04-25T11:42:17Z</time>
      </trkpt>
      <trkpt lat="49.17592" lon="-0.67806">
        <ele>87.8</ele>
        <time>2023-04-25T11:42:18Z</time>
      </trkpt>
      <trkpt lat="49.17593" lon="-0.67814">
        <ele>87.8</ele>
        <time>2023-04-25T11:42:19Z</time>
      </trkpt>
      <trkpt lat="49.17593" lon="-0.67821">
        <ele>87.8</ele>
        <time>2023-04-25T11:42:20Z</time>
      </trkpt>
      <trkpt lat="49.17594" lon="-0.67829">
        <ele>88</ele>
        <time>2023-04-25T11:42:21Z</time>
      </trkpt>
      <trkpt lat="49.17595" lon="-0.67837">
        <ele>88</ele>
        <time>2023-04-25T11:42:22Z</time>
      </trkpt>
      <trkpt lat="49.17596" lon="-0.67845">
        <ele>88</ele>
        <time>2023-04-25T11:42:23Z</time>
      </trkpt>
      <trkpt lat="49.17597" lon="-0.67852">
        <ele>88</ele>
        <time>2023-04-25T11:42:24Z</time>
      </trkpt>
      <trkpt lat="49.17597" lon="-0.6786">
        <ele>88</ele>
        <time>2023-04-25T11:42:25Z</time>
      </trkpt>
      <trkpt lat="49.17598" lon="-0.67868">
        <ele>88</ele>
        <time>2023-04-25T11:42:26Z</time>
      </trkpt>
      <trkpt lat="49.17599" lon="-0.67876">
        <ele>88</ele>
        <time>2023-04-25T11:42:27Z</time>
      </trkpt>
      <trkpt lat="49.176" lon="-0.67884">
        <ele>88</ele>
        <time>2023-04-25T11:42:28Z</time>
      </trkpt>
      <trkpt lat="49.176" lon="-0.67892">
        <ele>88</ele>
        <time>2023-04-25T11:42:29Z</time>
      </trkpt>
      <trkpt lat="49.17601" lon="-0.679">
        <ele>88</ele>
        <time>2023-04-25T11:42:30Z</time>
      </trkpt>
      <trkpt lat="49.17602" lon="-0.67907">
        <ele>88</ele>
        <time>2023-04-25T11:42:31Z</time>
      </trkpt>
      <trkpt lat="49.17603" lon="-0.67916">
        <ele>88</ele>
        <time>2023-04-25T11:42:32Z</time>
      </trkpt>
      <trkpt lat="49.17603" lon="-0.67923">
        <ele>88</ele>
        <time>2023-04-25T11:42:33Z</time>
      </trkpt>
      <trkpt lat="49.17604" lon="-0.67931">
        <ele>88.4</ele>
        <time>2023-04-25T11:42:34Z</time>
      </trkpt>
      <trkpt lat="49.17605" lon="-0.67939">
        <ele>88.6</ele>
        <time>2023-04-25T11:42:35Z</time>
      </trkpt>
      <trkpt lat="49.17606" lon="-0.67947">
        <ele>88.6</ele>
        <time>2023-04-25T11:42:36Z</time>
      </trkpt>
      <trkpt lat="49.17606" lon="-0.67955">
        <ele>88.8</ele>
        <time>2023-04-25T11:42:37Z</time>
      </trkpt>
      <trkpt lat="49.17607" lon="-0.67963">
        <ele>89</ele>
        <time>2023-04-25T11:42:38Z</time>
      </trkpt>
      <trkpt lat="49.17608" lon="-0.67972">
        <ele>89</ele>
        <time>2023-04-25T11:42:39Z</time>
      </trkpt>
      <trkpt lat="49.17608" lon="-0.6798">
        <ele>89.4</ele>
        <time>2023-04-25T11:42:40Z</time>
      </trkpt>
      <trkpt lat="49.17609" lon="-0.67988">
        <ele>89.4</ele>
        <time>2023-04-25T11:42:41Z</time>
      </trkpt>
      <trkpt lat="49.1761" lon="-0.67996">
        <ele>89.6</ele>
        <time>2023-04-25T11:42:42Z</time>
      </trkpt>
      <trkpt lat="49.1761" lon="-0.68004">
        <ele>89.8</ele>
        <time>2023-04-25T11:42:43Z</time>
      </trkpt>
      <trkpt lat="49.17611" lon="-0.68012">
        <ele>90</ele>
        <time>2023-04-25T11:42:44Z</time>
      </trkpt>
      <trkpt lat="49.17612" lon="-0.68021">
        <ele>90.4</ele>
        <time>2023-04-25T11:42:45Z</time>
      </trkpt>
      <trkpt lat="49.17613" lon="-0.68029">
        <ele>90.6</ele>
        <time>2023-04-25T11:42:46Z</time>
      </trkpt>
      <trkpt lat="49.17613" lon="-0.68037">
        <ele>90.8</ele>
        <time>2023-04-25T11:42:47Z</time>
      </trkpt>
      <trkpt lat="49.17614" lon="-0.68046">
        <ele>91</ele>
        <time>2023-04-25T11:42:48Z</time>
      </trkpt>
      <trkpt lat="49.17615" lon="-0.68054">
        <ele>91.4</ele>
        <time>2023-04-25T11:42:49Z</time>
      </trkpt>
      <trkpt lat="49.17616" lon="-0.68062">
        <ele>91.6</ele>
        <time>2023-04-25T11:42:50Z</time>
      </trkpt>
      <trkpt lat="49.17616" lon="-0.6807">
        <ele>91.8</ele>
        <time>2023-04-25T11:42:51Z</time>
      </trkpt>
      <trkpt lat="49.17617" lon="-0.68079">
        <ele>92</ele>
        <time>2023-04-25T11:42:52Z</time>
      </trkpt>
      <trkpt lat="49.17618" lon="-0.68087">
        <ele>92.2</ele>
        <time>2023-04-25T11:42:53Z</time>
      </trkpt>
      <trkpt lat="49.17619" lon="-0.68095">
        <ele>92.4</ele>
        <time>2023-04-25T11:42:54Z</time>
      </trkpt>
      <trkpt lat="49.17619" lon="-0.68104">
        <ele>92.4</ele>
        <time>2023-04-25T11:42:55Z</time>
      </trkpt>
      <trkpt lat="49.1762" lon="-0.68112">
        <ele>92.6</ele>
        <time>2023-04-25T11:42:56Z</time>
      </trkpt>
      <trkpt lat="49.17621" lon="-0.6812">
        <ele>92.6</ele>
        <time>2023-04-25T11:42:57Z</time>
      </trkpt>
      <trkpt lat="49.17622" lon="-0.68128">
        <ele>92.6</ele>
        <time>2023-04-25T11:42:58Z</time>
      </trkpt>
      <trkpt lat="49.17622" lon="-0.68136">
        <ele>92.6</ele>
        <time>2023-04-25T11:42:59Z</time>
      </trkpt>
      <trkpt lat="49.17623" lon="-0.68145">
        <ele>92.8</ele>
        <time>2023-04-25T11:43:00Z</time>
      </trkpt>
      <trkpt lat="49.17624" lon="-0.68153">
        <ele>93</ele>
        <time>2023-04-25T11:43:01Z</time>
      </trkpt>
      <trkpt lat="49.17625" lon="-0.68161">
        <ele>93</ele>
        <time>2023-04-25T11:43:02Z</time>
      </trkpt>
      <trkpt lat="49.17625" lon="-0.68169">
        <ele>93</ele>
        <time>2023-04-25T11:43:03Z</time>
      </trkpt>
      <trkpt lat="49.17626" lon="-0.68178">
        <ele>93</ele>
        <time>2023-04-25T11:43:04Z</time>
      </trkpt>
      <trkpt lat="49.17627" lon="-0.68186">
        <ele>93</ele>
        <time>2023-04-25T11:43:05Z</time>
      </trkpt>
      <trkpt lat="49.17628" lon="-0.68194">
        <ele>93</ele>
        <time>2023-04-25T11:43:06Z</time>
      </trkpt>
      <trkpt lat="49.17628" lon="-0.68202">
        <ele>93</ele>
        <time>2023-04-25T11:43:07Z</time>
      </trkpt>
      <trkpt lat="49.17629" lon="-0.6821">
        <ele>93.2</ele>
        <time>2023-04-25T11:43:08Z</time>
      </trkpt>
      <trkpt lat="49.1763" lon="-0.68218">
        <ele>93.2</ele>
        <time>2023-04-25T11:43:09Z</time>
      </trkpt>
      <trkpt lat="49.17631" lon="-0.68226">
        <ele>93.4</ele>
        <time>2023-04-25T11:43:10Z</time>
      </trkpt>
      <trkpt lat="49.17631" lon="-0.68234">
        <ele>93.4</ele>
        <time>2023-04-25T11:43:11Z</time>
      </trkpt>
      <trkpt lat="49.17632" lon="-0.68242">
        <ele>93.4</ele>
        <time>2023-04-25T11:43:12Z</time>
      </trkpt>
      <trkpt lat="49.17633" lon="-0.6825">
        <ele>93.4</ele>
        <time>2023-04-25T11:43:13Z</time>
      </trkpt>
      <trkpt lat="49.17634" lon="-0.68258">
        <ele>93.4</ele>
        <time>2023-04-25T11:43:14Z</time>
      </trkpt>
      <trkpt lat="49.17635" lon="-0.68266">
        <ele>93.4</ele>
        <time>2023-04-25T11:43:15Z</time>
      </trkpt>
      <trkpt lat="49.17635" lon="-0.68274">
        <ele>93.4</ele>
        <time>2023-04-25T11:43:16Z</time>
      </trkpt>
      <trkpt lat="49.17636" lon="-0.68282">
        <ele>93.2</ele>
        <time>2023-04-25T11:43:17Z</time>
      </trkpt>
      <trkpt lat="49.17637" lon="-0.6829">
        <ele>93.2</ele>
        <time>2023-04-25T11:43:18Z</time>
      </trkpt>
      <trkpt lat="49.17638" lon="-0.68298">
        <ele>93</ele>
        <time>2023-04-25T11:43:19Z</time>
      </trkpt>
      <trkpt lat="49.17638" lon="-0.68307">
        <ele>93</ele>
        <time>2023-04-25T11:43:20Z</time>
      </trkpt>
      <trkpt lat="49.17639" lon="-0.68315">
        <ele>93</ele>
        <time>2023-04-25T11:43:21Z</time>
      </trkpt>
      <trkpt lat="49.1764" lon="-0.68323">
        <ele>93</ele>
        <time>2023-04-25T11:43:22Z</time>
      </trkpt>
      <trkpt lat="49.1764" lon="-0.68331">
        <ele>93</ele>
        <time>2023-04-25T11:43:23Z</time>
      </trkpt>
      <trkpt lat="49.17641" lon="-0.68339">
        <ele>93</ele>
        <time>2023-04-25T11:43:24Z</time>
      </trkpt>
      <trkpt lat="49.17642" lon="-0.68347">
        <ele>93</ele>
        <time>2023-04-25T11:43:25Z</time>
      </trkpt>
      <trkpt lat="49.17643" lon="-0.68355">
        <ele>93.2</ele>
        <time>2023-04-25T11:43:26Z</time>
      </trkpt>
      <trkpt lat="49.17643" lon="-0.68363">
        <ele>93.4</ele>
        <time>2023-04-25T11:43:27Z</time>
      </trkpt>
      <trkpt lat="49.17644" lon="-0.68372">
        <ele>93.4</ele>
        <time>2023-04-25T11:43:28Z</time>
      </trkpt>
      <trkpt lat="49.17645" lon="-0.6838">
        <ele>93.4</ele>
        <time>2023-04-25T11:43:29Z</time>
      </trkpt>
      <trkpt lat="49.17646" lon="-0.68388">
        <ele>93.6</ele>
        <time>2023-04-25T11:43:30Z</time>
      </trkpt>
      <trkpt lat="49.17646" lon="-0.68397">
        <ele>93.6</ele>
        <time>2023-04-25T11:43:31Z</time>
      </trkpt>
      <trkpt lat="49.17647" lon="-0.68405">
        <ele>93.6</ele>
        <time>2023-04-25T11:43:32Z</time>
      </trkpt>
      <trkpt lat="49.17648" lon="-0.68413">
        <ele>93.6</ele>
        <time>2023-04-25T11:43:33Z</time>
      </trkpt>
      <trkpt lat="49.17649" lon="-0.68422">
        <ele>93.8</ele>
        <time>2023-04-25T11:43:34Z</time>
      </trkpt>
      <trkpt lat="49.1765" lon="-0.6843">
        <ele>93.6</ele>
        <time>2023-04-25T11:43:35Z</time>
      </trkpt>
      <trkpt lat="49.1765" lon="-0.68439">
        <ele>93.6</ele>
        <time>2023-04-25T11:43:36Z</time>
      </trkpt>
      <trkpt lat="49.17651" lon="-0.68447">
        <ele>93.6</ele>
        <time>2023-04-25T11:43:37Z</time>
      </trkpt>
      <trkpt lat="49.17652" lon="-0.68456">
        <ele>93.6</ele>
        <time>2023-04-25T11:43:38Z</time>
      </trkpt>
      <trkpt lat="49.17653" lon="-0.68465">
        <ele>93.6</ele>
        <time>2023-04-25T11:43:39Z</time>
      </trkpt>
      <trkpt lat="49.17653" lon="-0.68474">
        <ele>93.6</ele>
        <time>2023-04-25T11:43:40Z</time>
      </trkpt>
      <trkpt lat="49.17654" lon="-0.68482">
        <ele>93.4</ele>
        <time>2023-04-25T11:43:41Z</time>
      </trkpt>
      <trkpt lat="49.17655" lon="-0.68491">
        <ele>93.4</ele>
        <time>2023-04-25T11:43:42Z</time>
      </trkpt>
      <trkpt lat="49.17656" lon="-0.685">
        <ele>93.4</ele>
        <time>2023-04-25T11:43:43Z</time>
      </trkpt>
      <trkpt lat="49.17657" lon="-0.68509">
        <ele>93</ele>
        <time>2023-04-25T11:43:44Z</time>
      </trkpt>
      <trkpt lat="49.17658" lon="-0.68519">
        <ele>93</ele>
        <time>2023-04-25T11:43:45Z</time>
      </trkpt>
      <trkpt lat="49.17658" lon="-0.68528">
        <ele>93</ele>
        <time>2023-04-25T11:43:46Z</time>
      </trkpt>
      <trkpt lat="49.17659" lon="-0.68537">
        <ele>92.8</ele>
        <time>2023-04-25T11:43:47Z</time>
      </trkpt>
      <trkpt lat="49.1766" lon="-0.68547">
        <ele>92.6</ele>
        <time>2023-04-25T11:43:48Z</time>
      </trkpt>
      <trkpt lat="49.17661" lon="-0.68556">
        <ele>92.6</ele>
        <time>2023-04-25T11:43:49Z</time>
      </trkpt>
      <trkpt lat="49.17662" lon="-0.68566">
        <ele>92.4</ele>
        <time>2023-04-25T11:43:50Z</time>
      </trkpt>
      <trkpt lat="49.17663" lon="-0.68575">
        <ele>92.2</ele>
        <time>2023-04-25T11:43:51Z</time>
      </trkpt>
      <trkpt lat="49.17664" lon="-0.68585">
        <ele>92</ele>
        <time>2023-04-25T11:43:52Z</time>
      </trkpt>
      <trkpt lat="49.17665" lon="-0.68595">
        <ele>92.2</ele>
        <time>2023-04-25T11:43:53Z</time>
      </trkpt>
      <trkpt lat="49.17666" lon="-0.68604">
        <ele>92.4</ele>
        <time>2023-04-25T11:43:54Z</time>
      </trkpt>
      <trkpt lat="49.17667" lon="-0.68614">
        <ele>92.4</ele>
        <time>2023-04-25T11:43:55Z</time>
      </trkpt>
      <trkpt lat="49.17668" lon="-0.68624">
        <ele>92.6</ele>
        <time>2023-04-25T11:43:56Z</time>
      </trkpt>
      <trkpt lat="49.17668" lon="-0.68634">
        <ele>92.6</ele>
        <time>2023-04-25T11:43:57Z</time>
      </trkpt>
      <trkpt lat="49.17669" lon="-0.68644">
        <ele>92.6</ele>
        <time>2023-04-25T11:43:58Z</time>
      </trkpt>
      <trkpt lat="49.1767" lon="-0.68654">
        <ele>92.8</ele>
        <time>2023-04-25T11:43:59Z</time>
      </trkpt>
      <trkpt lat="49.17671" lon="-0.68664">
        <ele>93</ele>
        <time>2023-04-25T11:44:00Z</time>
      </trkpt>
      <trkpt lat="49.17672" lon="-0.68674">
        <ele>93</ele>
        <time>2023-04-25T11:44:01Z</time>
      </trkpt>
      <trkpt lat="49.17673" lon="-0.68684">
        <ele>93</ele>
        <time>2023-04-25T11:44:02Z</time>
      </trkpt>
      <trkpt lat="49.17674" lon="-0.68694">
        <ele>93.2</ele>
        <time>2023-04-25T11:44:03Z</time>
      </trkpt>
      <trkpt lat="49.17675" lon="-0.68704">
        <ele>93.4</ele>
        <time>2023-04-25T11:44:04Z</time>
      </trkpt>
      <trkpt lat="49.17676" lon="-0.68715">
        <ele>93.4</ele>
        <time>2023-04-25T11:44:05Z</time>
      </trkpt>
      <trkpt lat="49.17677" lon="-0.68725">
        <ele>93.6</ele>
        <time>2023-04-25T11:44:06Z</time>
      </trkpt>
      <trkpt lat="49.17678" lon="-0.68735">
        <ele>93.6</ele>
        <time>2023-04-25T11:44:07Z</time>
      </trkpt>
      <trkpt lat="49.17679" lon="-0.68745">
        <ele>93.6</ele>
        <time>2023-04-25T11:44:08Z</time>
      </trkpt>
      <trkpt lat="49.1768" lon="-0.68755">
        <ele>93.6</ele>
        <time>2023-04-25T11:44:09Z</time>
      </trkpt>
      <trkpt lat="49.17681" lon="-0.68766">
        <ele>93.6</ele>
        <time>2023-04-25T11:44:10Z</time>
      </trkpt>
      <trkpt lat="49.17682" lon="-0.68776">
        <ele>93.4</ele>
        <time>2023-04-25T11:44:11Z</time>
      </trkpt>
      <trkpt lat="49.17682" lon="-0.68787">
        <ele>93.4</ele>
        <time>2023-04-25T11:44:12Z</time>
      </trkpt>
      <trkpt lat="49.17684" lon="-0.68797">
        <ele>93</ele>
        <time>2023-04-25T11:44:13Z</time>
      </trkpt>
      <trkpt lat="49.17685" lon="-0.68808">
        <ele>93</ele>
        <time>2023-04-25T11:44:14Z</time>
      </trkpt>
      <trkpt lat="49.17685" lon="-0.68819">
        <ele>93</ele>
        <time>2023-04-25T11:44:15Z</time>
      </trkpt>
      <trkpt lat="49.17686" lon="-0.68829">
        <ele>92.8</ele>
        <time>2023-04-25T11:44:16Z</time>
      </trkpt>
      <trkpt lat="49.17687" lon="-0.6884">
        <ele>92.8</ele>
        <time>2023-04-25T11:44:17Z</time>
      </trkpt>
      <trkpt lat="49.17688" lon="-0.68851">
        <ele>93</ele>
        <time>2023-04-25T11:44:18Z</time>
      </trkpt>
      <trkpt lat="49.17689" lon="-0.68862">
        <ele>93</ele>
        <time>2023-04-25T11:44:19Z</time>
      </trkpt>
      <trkpt lat="49.1769" lon="-0.68872">
        <ele>93</ele>
        <time>2023-04-25T11:44:20Z</time>
      </trkpt>
      <trkpt lat="49.17691" lon="-0.68883">
        <ele>93.2</ele>
        <time>2023-04-25T11:44:21Z</time>
      </trkpt>
      <trkpt lat="49.17692" lon="-0.68894">
        <ele>93.4</ele>
        <time>2023-04-25T11:44:22Z</time>
      </trkpt>
      <trkpt lat="49.17693" lon="-0.68905">
        <ele>93.6</ele>
        <time>2023-04-25T11:44:23Z</time>
      </trkpt>
      <trkpt lat="49.17694" lon="-0.68916">
        <ele>93.6</ele>
        <time>2023-04-25T11:44:24Z</time>
      </trkpt>
      <trkpt lat="49.17695" lon="-0.68927">
        <ele>93.8</ele>
        <time>2023-04-25T11:44:25Z</time>
      </trkpt>
      <trkpt lat="49.17696" lon="-0.68937">
        <ele>94</ele>
        <time>2023-04-25T11:44:26Z</time>
      </trkpt>
      <trkpt lat="49.17697" lon="-0.68948">
        <ele>94</ele>
        <time>2023-04-25T11:44:27Z</time>
      </trkpt>
      <trkpt lat="49.17698" lon="-0.68959">
        <ele>94</ele>
        <time>2023-04-25T11:44:28Z</time>
      </trkpt>
      <trkpt lat="49.17699" lon="-0.68969">
        <ele>94.2</ele>
        <time>2023-04-25T11:44:29Z</time>
      </trkpt>
      <trkpt lat="49.177" lon="-0.6898">
        <ele>94.4</ele>
        <time>2023-04-25T11:44:30Z</time>
      </trkpt>
      <trkpt lat="49.17701" lon="-0.6899">
        <ele>94.4</ele>
        <time>2023-04-25T11:44:31Z</time>
      </trkpt>
      <trkpt lat="49.17702" lon="-0.69001">
        <ele>94.4</ele>
        <time>2023-04-25T11:44:32Z</time>
      </trkpt>
      <trkpt lat="49.17703" lon="-0.69011">
        <ele>94.6</ele>
        <time>2023-04-25T11:44:33Z</time>
      </trkpt>
      <trkpt lat="49.17704" lon="-0.69021">
        <ele>94.6</ele>
        <time>2023-04-25T11:44:34Z</time>
      </trkpt>
      <trkpt lat="49.17705" lon="-0.69031">
        <ele>94.8</ele>
        <time>2023-04-25T11:44:35Z</time>
      </trkpt>
      <trkpt lat="49.17706" lon="-0.6904">
        <ele>95</ele>
        <time>2023-04-25T11:44:36Z</time>
      </trkpt>
      <trkpt lat="49.17707" lon="-0.6905">
        <ele>95</ele>
        <time>2023-04-25T11:44:37Z</time>
      </trkpt>
      <trkpt lat="49.17707" lon="-0.69059">
        <ele>95.2</ele>
        <time>2023-04-25T11:44:38Z</time>
      </trkpt>
      <trkpt lat="49.17708" lon="-0.69069">
        <ele>95.4</ele>
        <time>2023-04-25T11:44:39Z</time>
      </trkpt>
      <trkpt lat="49.17709" lon="-0.69078">
        <ele>95.4</ele>
        <time>2023-04-25T11:44:40Z</time>
      </trkpt>
      <trkpt lat="49.1771" lon="-0.69087">
        <ele>95.6</ele>
        <time>2023-04-25T11:44:41Z</time>
      </trkpt>
      <trkpt lat="49.17711" lon="-0.69096">
        <ele>95.8</ele>
        <time>2023-04-25T11:44:42Z</time>
      </trkpt>
      <trkpt lat="49.17711" lon="-0.69105">
        <ele>96</ele>
        <time>2023-04-25T11:44:43Z</time>
      </trkpt>
      <trkpt lat="49.17712" lon="-0.69114">
        <ele>96</ele>
        <time>2023-04-25T11:44:44Z</time>
      </trkpt>
      <trkpt lat="49.17713" lon="-0.69123">
        <ele>96.4</ele>
        <time>2023-04-25T11:44:45Z</time>
      </trkpt>
      <trkpt lat="49.17714" lon="-0.69132">
        <ele>96.4</ele>
        <time>2023-04-25T11:44:46Z</time>
      </trkpt>
      <trkpt lat="49.17715" lon="-0.69141">
        <ele>96.6</ele>
        <time>2023-04-25T11:44:47Z</time>
      </trkpt>
      <trkpt lat="49.17715" lon="-0.6915">
        <ele>96.6</ele>
        <time>2023-04-25T11:44:48Z</time>
      </trkpt>
      <trkpt lat="49.17716" lon="-0.69159">
        <ele>97</ele>
        <time>2023-04-25T11:44:49Z</time>
      </trkpt>
      <trkpt lat="49.17717" lon="-0.69167">
        <ele>97</ele>
        <time>2023-04-25T11:44:50Z</time>
      </trkpt>
      <trkpt lat="49.17718" lon="-0.69176">
        <ele>97</ele>
        <time>2023-04-25T11:44:51Z</time>
      </trkpt>
      <trkpt lat="49.17718" lon="-0.69185">
        <ele>97</ele>
        <time>2023-04-25T11:44:52Z</time>
      </trkpt>
      <trkpt lat="49.17719" lon="-0.69193">
        <ele>97</ele>
        <time>2023-04-25T11:44:53Z</time>
      </trkpt>
      <trkpt lat="49.1772" lon="-0.69202">
        <ele>96.8</ele>
        <time>2023-04-25T11:44:54Z</time>
      </trkpt>
      <trkpt lat="49.17721" lon="-0.6921">
        <ele>96.8</ele>
        <time>2023-04-25T11:44:55Z</time>
      </trkpt>
      <trkpt lat="49.17722" lon="-0.69219">
        <ele>96.8</ele>
        <time>2023-04-25T11:44:56Z</time>
      </trkpt>
      <trkpt lat="49.17722" lon="-0.69227">
        <ele>96.8</ele>
        <time>2023-04-25T11:44:57Z</time>
      </trkpt>
      <trkpt lat="49.17723" lon="-0.69236">
        <ele>96.6</ele>
        <time>2023-04-25T11:44:58Z</time>
      </trkpt>
      <trkpt lat="49.17724" lon="-0.69244">
        <ele>96.6</ele>
        <time>2023-04-25T11:44:59Z</time>
      </trkpt>
      <trkpt lat="49.17725" lon="-0.69253">
        <ele>96.6</ele>
        <time>2023-04-25T11:45:00Z</time>
      </trkpt>
      <trkpt lat="49.17725" lon="-0.69261">
        <ele>96.6</ele>
        <time>2023-04-25T11:45:01Z</time>
      </trkpt>
      <trkpt lat="49.17726" lon="-0.6927">
        <ele>96.6</ele>
        <time>2023-04-25T11:45:02Z</time>
      </trkpt>
      <trkpt lat="49.17727" lon="-0.69278">
        <ele>96.6</ele>
        <time>2023-04-25T11:45:03Z</time>
      </trkpt>
      <trkpt lat="49.17728" lon="-0.69287">
        <ele>96.6</ele>
        <time>2023-04-25T11:45:04Z</time>
      </trkpt>
      <trkpt lat="49.17729" lon="-0.69295">
        <ele>96.6</ele>
        <time>2023-04-25T11:45:05Z</time>
      </trkpt>
      <trkpt lat="49.1773" lon="-0.69304">
        <ele>96.4</ele>
        <time>2023-04-25T11:45:06Z</time>
      </trkpt>
      <trkpt lat="49.1773" lon="-0.69313">
        <ele>96.4</ele>
        <time>2023-04-25T11:45:07Z</time>
      </trkpt>
      <trkpt lat="49.17731" lon="-0.69321">
        <ele>96.4</ele>
        <time>2023-04-25T11:45:08Z</time>
      </trkpt>
      <trkpt lat="49.17732" lon="-0.6933">
        <ele>96.2</ele>
        <time>2023-04-25T11:45:09Z</time>
      </trkpt>
      <trkpt lat="49.17733" lon="-0.69338">
        <ele>96.4</ele>
        <time>2023-04-25T11:45:10Z</time>
      </trkpt>
      <trkpt lat="49.17733" lon="-0.69347">
        <ele>96.6</ele>
        <time>2023-04-25T11:45:11Z</time>
      </trkpt>
      <trkpt lat="49.17734" lon="-0.69355">
        <ele>96.8</ele>
        <time>2023-04-25T11:45:12Z</time>
      </trkpt>
      <trkpt lat="49.17735" lon="-0.69364">
        <ele>97</ele>
        <time>2023-04-25T11:45:13Z</time>
      </trkpt>
      <trkpt lat="49.17736" lon="-0.69373">
        <ele>97.4</ele>
        <time>2023-04-25T11:45:14Z</time>
      </trkpt>
      <trkpt lat="49.17737" lon="-0.69381">
        <ele>97.6</ele>
        <time>2023-04-25T11:45:15Z</time>
      </trkpt>
      <trkpt lat="49.17737" lon="-0.6939">
        <ele>97.6</ele>
        <time>2023-04-25T11:45:16Z</time>
      </trkpt>
      <trkpt lat="49.17738" lon="-0.69398">
        <ele>98</ele>
        <time>2023-04-25T11:45:17Z</time>
      </trkpt>
      <trkpt lat="49.17739" lon="-0.69407">
        <ele>98</ele>
        <time>2023-04-25T11:45:18Z</time>
      </trkpt>
      <trkpt lat="49.1774" lon="-0.69415">
        <ele>98.4</ele>
        <time>2023-04-25T11:45:19Z</time>
      </trkpt>
      <trkpt lat="49.1774" lon="-0.69424">
        <ele>98.6</ele>
        <time>2023-04-25T11:45:20Z</time>
      </trkpt>
      <trkpt lat="49.17741" lon="-0.69432">
        <ele>98.8</ele>
        <time>2023-04-25T11:45:21Z</time>
      </trkpt>
      <trkpt lat="49.17742" lon="-0.69441">
        <ele>99</ele>
        <time>2023-04-25T11:45:22Z</time>
      </trkpt>
      <trkpt lat="49.17743" lon="-0.6945">
        <ele>99.2</ele>
        <time>2023-04-25T11:45:23Z</time>
      </trkpt>
      <trkpt lat="49.17743" lon="-0.69458">
        <ele>99.4</ele>
        <time>2023-04-25T11:45:24Z</time>
      </trkpt>
      <trkpt lat="49.17744" lon="-0.69467">
        <ele>99.6</ele>
        <time>2023-04-25T11:45:25Z</time>
      </trkpt>
      <trkpt lat="49.17745" lon="-0.69476">
        <ele>99.6</ele>
        <time>2023-04-25T11:45:26Z</time>
      </trkpt>
      <trkpt lat="49.17746" lon="-0.69484">
        <ele>100</ele>
        <time>2023-04-25T11:45:27Z</time>
      </trkpt>
      <trkpt lat="49.17747" lon="-0.69493">
        <ele>100</ele>
        <time>2023-04-25T11:45:28Z</time>
      </trkpt>
      <trkpt lat="49.17747" lon="-0.69501">
        <ele>100.2</ele>
        <time>2023-04-25T11:45:29Z</time>
      </trkpt>
      <trkpt lat="49.17748" lon="-0.6951">
        <ele>100.4</ele>
        <time>2023-04-25T11:45:30Z</time>
      </trkpt>
      <trkpt lat="49.17749" lon="-0.69518">
        <ele>100.6</ele>
        <time>2023-04-25T11:45:31Z</time>
      </trkpt>
      <trkpt lat="49.1775" lon="-0.69526">
        <ele>100.6</ele>
        <time>2023-04-25T11:45:32Z</time>
      </trkpt>
      <trkpt lat="49.17751" lon="-0.69534">
        <ele>100.8</ele>
        <time>2023-04-25T11:45:33Z</time>
      </trkpt>
      <trkpt lat="49.17752" lon="-0.69542">
        <ele>101</ele>
        <time>2023-04-25T11:45:34Z</time>
      </trkpt>
      <trkpt lat="49.17753" lon="-0.6955">
        <ele>101.2</ele>
        <time>2023-04-25T11:45:35Z</time>
      </trkpt>
      <trkpt lat="49.17754" lon="-0.69559">
        <ele>101.4</ele>
        <time>2023-04-25T11:45:36Z</time>
      </trkpt>
      <trkpt lat="49.17755" lon="-0.69567">
        <ele>101.6</ele>
        <time>2023-04-25T11:45:37Z</time>
      </trkpt>
      <trkpt lat="49.17756" lon="-0.69576">
        <ele>101.8</ele>
        <time>2023-04-25T11:45:38Z</time>
      </trkpt>
      <trkpt lat="49.17757" lon="-0.69585">
        <ele>102</ele>
        <time>2023-04-25T11:45:39Z</time>
      </trkpt>
      <trkpt lat="49.17757" lon="-0.69593">
        <ele>102</ele>
        <time>2023-04-25T11:45:40Z</time>
      </trkpt>
      <trkpt lat="49.17758" lon="-0.69602">
        <ele>102</ele>
        <time>2023-04-25T11:45:41Z</time>
      </trkpt>
      <trkpt lat="49.17759" lon="-0.69611">
        <ele>102.2</ele>
        <time>2023-04-25T11:45:42Z</time>
      </trkpt>
      <trkpt lat="49.1776" lon="-0.6962">
        <ele>102.4</ele>
        <time>2023-04-25T11:45:43Z</time>
      </trkpt>
      <trkpt lat="49.1776" lon="-0.6963">
        <ele>102.4</ele>
        <time>2023-04-25T11:45:44Z</time>
      </trkpt>
      <trkpt lat="49.17761" lon="-0.69639">
        <ele>102.4</ele>
        <time>2023-04-25T11:45:45Z</time>
      </trkpt>
      <trkpt lat="49.17762" lon="-0.69648">
        <ele>102.6</ele>
        <time>2023-04-25T11:45:46Z</time>
      </trkpt>
      <trkpt lat="49.17763" lon="-0.69657">
        <ele>102.6</ele>
        <time>2023-04-25T11:45:47Z</time>
      </trkpt>
      <trkpt lat="49.17763" lon="-0.69666">
        <ele>102.6</ele>
        <time>2023-04-25T11:45:48Z</time>
      </trkpt>
      <trkpt lat="49.17764" lon="-0.69675">
        <ele>102.6</ele>
        <time>2023-04-25T11:45:49Z</time>
      </trkpt>
      <trkpt lat="49.17765" lon="-0.69684">
        <ele>102.4</ele>
        <time>2023-04-25T11:45:50Z</time>
      </trkpt>
      <trkpt lat="49.17766" lon="-0.69693">
        <ele>102</ele>
        <time>2023-04-25T11:45:51Z</time>
      </trkpt>
      <trkpt lat="49.17767" lon="-0.69702">
        <ele>102</ele>
        <time>2023-04-25T11:45:52Z</time>
      </trkpt>
      <trkpt lat="49.17767" lon="-0.69711">
        <ele>101.6</ele>
        <time>2023-04-25T11:45:53Z</time>
      </trkpt>
      <trkpt lat="49.17768" lon="-0.6972">
        <ele>101.6</ele>
        <time>2023-04-25T11:45:54Z</time>
      </trkpt>
      <trkpt lat="49.17769" lon="-0.69729">
        <ele>101.4</ele>
        <time>2023-04-25T11:45:55Z</time>
      </trkpt>
      <trkpt lat="49.1777" lon="-0.69737">
        <ele>101.2</ele>
        <time>2023-04-25T11:45:56Z</time>
      </trkpt>
      <trkpt lat="49.1777" lon="-0.69746">
        <ele>101</ele>
        <time>2023-04-25T11:45:57Z</time>
      </trkpt>
      <trkpt lat="49.17771" lon="-0.69755">
        <ele>101</ele>
        <time>2023-04-25T11:45:58Z</time>
      </trkpt>
      <trkpt lat="49.17772" lon="-0.69763">
        <ele>101.4</ele>
        <time>2023-04-25T11:45:59Z</time>
      </trkpt>
      <trkpt lat="49.17773" lon="-0.69772">
        <ele>101.4</ele>
        <time>2023-04-25T11:46:00Z</time>
      </trkpt>
      <trkpt lat="49.17774" lon="-0.6978">
        <ele>101.6</ele>
        <time>2023-04-25T11:46:01Z</time>
      </trkpt>
      <trkpt lat="49.17774" lon="-0.69788">
        <ele>101.8</ele>
        <time>2023-04-25T11:46:02Z</time>
      </trkpt>
      <trkpt lat="49.17775" lon="-0.69797">
        <ele>102</ele>
        <time>2023-04-25T11:46:03Z</time>
      </trkpt>
      <trkpt lat="49.17776" lon="-0.69805">
        <ele>102</ele>
        <time>2023-04-25T11:46:04Z</time>
      </trkpt>
      <trkpt lat="49.17777" lon="-0.69813">
        <ele>102.4</ele>
        <time>2023-04-25T11:46:05Z</time>
      </trkpt>
      <trkpt lat="49.17777" lon="-0.69821">
        <ele>102.4</ele>
        <time>2023-04-25T11:46:06Z</time>
      </trkpt>
      <trkpt lat="49.17778" lon="-0.6983">
        <ele>102.6</ele>
        <time>2023-04-25T11:46:07Z</time>
      </trkpt>
      <trkpt lat="49.17779" lon="-0.69838">
        <ele>102.6</ele>
        <time>2023-04-25T11:46:08Z</time>
      </trkpt>
      <trkpt lat="49.1778" lon="-0.69846">
        <ele>103</ele>
        <time>2023-04-25T11:46:09Z</time>
      </trkpt>
      <trkpt lat="49.1778" lon="-0.69854">
        <ele>103</ele>
        <time>2023-04-25T11:46:10Z</time>
      </trkpt>
      <trkpt lat="49.17781" lon="-0.69862">
        <ele>103</ele>
        <time>2023-04-25T11:46:11Z</time>
      </trkpt>
      <trkpt lat="49.17782" lon="-0.6987">
        <ele>103.2</ele>
        <time>2023-04-25T11:46:12Z</time>
      </trkpt>
      <trkpt lat="49.17783" lon="-0.69878">
        <ele>103.4</ele>
        <time>2023-04-25T11:46:13Z</time>
      </trkpt>
      <trkpt lat="49.17783" lon="-0.69887">
        <ele>103.6</ele>
        <time>2023-04-25T11:46:14Z</time>
      </trkpt>
      <trkpt lat="49.17784" lon="-0.69895">
        <ele>103.6</ele>
        <time>2023-04-25T11:46:15Z</time>
      </trkpt>
      <trkpt lat="49.17785" lon="-0.69903">
        <ele>103.8</ele>
        <time>2023-04-25T11:46:16Z</time>
      </trkpt>
      <trkpt lat="49.17786" lon="-0.69911">
        <ele>104</ele>
        <time>2023-04-25T11:46:17Z</time>
      </trkpt>
      <trkpt lat="49.17786" lon="-0.69919">
        <ele>104</ele>
        <time>2023-04-25T11:46:18Z</time>
      </trkpt>
      <trkpt lat="49.17787" lon="-0.69927">
        <ele>104.4</ele>
        <time>2023-04-25T11:46:19Z</time>
      </trkpt>
      <trkpt lat="49.17788" lon="-0.69935">
        <ele>104.6</ele>
        <time>2023-04-25T11:46:20Z</time>
      </trkpt>
      <trkpt lat="49.17789" lon="-0.69944">
        <ele>104.6</ele>
        <time>2023-04-25T11:46:21Z</time>
      </trkpt>
      <trkpt lat="49.17789" lon="-0.69952">
        <ele>104.8</ele>
        <time>2023-04-25T11:46:22Z</time>
      </trkpt>
      <trkpt lat="49.1779" lon="-0.6996">
        <ele>105</ele>
        <time>2023-04-25T11:46:23Z</time>
      </trkpt>
      <trkpt lat="49.17791" lon="-0.69968">
        <ele>105.2</ele>
        <time>2023-04-25T11:46:24Z</time>
      </trkpt>
      <trkpt lat="49.17791" lon="-0.69976">
        <ele>105.4</ele>
        <time>2023-04-25T11:46:25Z</time>
      </trkpt>
      <trkpt lat="49.17792" lon="-0.69984">
        <ele>105.6</ele>
        <time>2023-04-25T11:46:26Z</time>
      </trkpt>
      <trkpt lat="49.17793" lon="-0.69992">
        <ele>105.8</ele>
        <time>2023-04-25T11:46:27Z</time>
      </trkpt>
      <trkpt lat="49.17794" lon="-0.7">
        <ele>106</ele>
        <time>2023-04-25T11:46:28Z</time>
      </trkpt>
      <trkpt lat="49.17794" lon="-0.70007">
        <ele>106</ele>
        <time>2023-04-25T11:46:29Z</time>
      </trkpt>
      <trkpt lat="49.17795" lon="-0.70015">
        <ele>106.2</ele>
        <time>2023-04-25T11:46:30Z</time>
      </trkpt>
      <trkpt lat="49.17796" lon="-0.70023">
        <ele>106.4</ele>
        <time>2023-04-25T11:46:31Z</time>
      </trkpt>
      <trkpt lat="49.17796" lon="-0.70031">
        <ele>106.4</ele>
        <time>2023-04-25T11:46:32Z</time>
      </trkpt>
      <trkpt lat="49.17797" lon="-0.70039">
        <ele>106.6</ele>
        <time>2023-04-25T11:46:33Z</time>
      </trkpt>
      <trkpt lat="49.17798" lon="-0.70047">
        <ele>106.6</ele>
        <time>2023-04-25T11:46:34Z</time>
      </trkpt>
      <trkpt lat="49.17799" lon="-0.70055">
        <ele>106.6</ele>
        <time>2023-04-25T11:46:35Z</time>
      </trkpt>
      <trkpt lat="49.178" lon="-0.70063">
        <ele>106.8</ele>
        <time>2023-04-25T11:46:36Z</time>
      </trkpt>
      <trkpt lat="49.178" lon="-0.70071">
        <ele>107</ele>
        <time>2023-04-25T11:46:37Z</time>
      </trkpt>
      <trkpt lat="49.17801" lon="-0.70079">
        <ele>107</ele>
        <time>2023-04-25T11:46:38Z</time>
      </trkpt>
      <trkpt lat="49.17802" lon="-0.70087">
        <ele>107</ele>
        <time>2023-04-25T11:46:39Z</time>
      </trkpt>
      <trkpt lat="49.17803" lon="-0.70095">
        <ele>107</ele>
        <time>2023-04-25T11:46:40Z</time>
      </trkpt>
      <trkpt lat="49.17803" lon="-0.70103">
        <ele>107</ele>
        <time>2023-04-25T11:46:41Z</time>
      </trkpt>
      <trkpt lat="49.17804" lon="-0.70111">
        <ele>107</ele>
        <time>2023-04-25T11:46:42Z</time>
      </trkpt>
      <trkpt lat="49.17805" lon="-0.70119">
        <ele>107</ele>
        <time>2023-04-25T11:46:43Z</time>
      </trkpt>
      <trkpt lat="49.17806" lon="-0.70127">
        <ele>106.8</ele>
        <time>2023-04-25T11:46:44Z</time>
      </trkpt>
      <trkpt lat="49.17806" lon="-0.70135">
        <ele>106.8</ele>
        <time>2023-04-25T11:46:45Z</time>
      </trkpt>
      <trkpt lat="49.17807" lon="-0.70143">
        <ele>106.8</ele>
        <time>2023-04-25T11:46:46Z</time>
      </trkpt>
      <trkpt lat="49.17808" lon="-0.70151">
        <ele>106.8</ele>
        <time>2023-04-25T11:46:47Z</time>
      </trkpt>
      <trkpt lat="49.17809" lon="-0.70158">
        <ele>106.6</ele>
        <time>2023-04-25T11:46:48Z</time>
      </trkpt>
      <trkpt lat="49.17809" lon="-0.70166">
        <ele>106.6</ele>
        <time>2023-04-25T11:46:49Z</time>
      </trkpt>
      <trkpt lat="49.1781" lon="-0.70174">
        <ele>106.6</ele>
        <time>2023-04-25T11:46:50Z</time>
      </trkpt>
      <trkpt lat="49.17811" lon="-0.70182">
        <ele>106.6</ele>
        <time>2023-04-25T11:46:51Z</time>
      </trkpt>
      <trkpt lat="49.17812" lon="-0.7019">
        <ele>106.6</ele>
        <time>2023-04-25T11:46:52Z</time>
      </trkpt>
      <trkpt lat="49.17812" lon="-0.70198">
        <ele>106.6</ele>
        <time>2023-04-25T11:46:53Z</time>
      </trkpt>
      <trkpt lat="49.17813" lon="-0.70206">
        <ele>106.6</ele>
        <time>2023-04-25T11:46:54Z</time>
      </trkpt>
      <trkpt lat="49.17814" lon="-0.70214">
        <ele>106.6</ele>
        <time>2023-04-25T11:46:55Z</time>
      </trkpt>
      <trkpt lat="49.17815" lon="-0.70222">
        <ele>106.4</ele>
        <time>2023-04-25T11:46:56Z</time>
      </trkpt>
      <trkpt lat="49.17816" lon="-0.70231">
        <ele>106.4</ele>
        <time>2023-04-25T11:46:57Z</time>
      </trkpt>
      <trkpt lat="49.17816" lon="-0.70239">
        <ele>106.4</ele>
        <time>2023-04-25T11:46:58Z</time>
      </trkpt>
      <trkpt lat="49.17817" lon="-0.70247">
        <ele>106.2</ele>
        <time>2023-04-25T11:46:59Z</time>
      </trkpt>
      <trkpt lat="49.17818" lon="-0.70255">
        <ele>106.2</ele>
        <time>2023-04-25T11:47:00Z</time>
      </trkpt>
      <trkpt lat="49.17819" lon="-0.70263">
        <ele>106.4</ele>
        <time>2023-04-25T11:47:01Z</time>
      </trkpt>
      <trkpt lat="49.17819" lon="-0.70272">
        <ele>106.4</ele>
        <time>2023-04-25T11:47:02Z</time>
      </trkpt>
      <trkpt lat="49.1782" lon="-0.7028">
        <ele>106.6</ele>
        <time>2023-04-25T11:47:03Z</time>
      </trkpt>
      <trkpt lat="49.17821" lon="-0.70288">
        <ele>106.6</ele>
        <time>2023-04-25T11:47:04Z</time>
      </trkpt>
      <trkpt lat="49.17822" lon="-0.70296">
        <ele>106.6</ele>
        <time>2023-04-25T11:47:05Z</time>
      </trkpt>
      <trkpt lat="49.17823" lon="-0.70305">
        <ele>106.6</ele>
        <time>2023-04-25T11:47:06Z</time>
      </trkpt>
      <trkpt lat="49.17823" lon="-0.70313">
        <ele>106.8</ele>
        <time>2023-04-25T11:47:07Z</time>
      </trkpt>
      <trkpt lat="49.17824" lon="-0.70322">
        <ele>107</ele>
        <time>2023-04-25T11:47:08Z</time>
      </trkpt>
      <trkpt lat="49.17825" lon="-0.7033">
        <ele>107</ele>
        <time>2023-04-25T11:47:09Z</time>
      </trkpt>
      <trkpt lat="49.17826" lon="-0.70338">
        <ele>107</ele>
        <time>2023-04-25T11:47:10Z</time>
      </trkpt>
      <trkpt lat="49.17826" lon="-0.70347">
        <ele>107.4</ele>
        <time>2023-04-25T11:47:11Z</time>
      </trkpt>
      <trkpt lat="49.17827" lon="-0.70355">
        <ele>107.6</ele>
        <time>2023-04-25T11:47:12Z</time>
      </trkpt>
      <trkpt lat="49.17828" lon="-0.70364">
        <ele>107.6</ele>
        <time>2023-04-25T11:47:13Z</time>
      </trkpt>
      <trkpt lat="49.17829" lon="-0.70372">
        <ele>108</ele>
        <time>2023-04-25T11:47:14Z</time>
      </trkpt>
      <trkpt lat="49.1783" lon="-0.70381">
        <ele>108</ele>
        <time>2023-04-25T11:47:15Z</time>
      </trkpt>
      <trkpt lat="49.1783" lon="-0.70389">
        <ele>108.4</ele>
        <time>2023-04-25T11:47:16Z</time>
      </trkpt>
      <trkpt lat="49.17831" lon="-0.70398">
        <ele>108.6</ele>
        <time>2023-04-25T11:47:17Z</time>
      </trkpt>
      <trkpt lat="49.17832" lon="-0.70407">
        <ele>108.8</ele>
        <time>2023-04-25T11:47:18Z</time>
      </trkpt>
      <trkpt lat="49.17833" lon="-0.70415">
        <ele>109</ele>
        <time>2023-04-25T11:47:19Z</time>
      </trkpt>
      <trkpt lat="49.17834" lon="-0.70424">
        <ele>109</ele>
        <time>2023-04-25T11:47:20Z</time>
      </trkpt>
      <trkpt lat="49.17835" lon="-0.70433">
        <ele>109</ele>
        <time>2023-04-25T11:47:21Z</time>
      </trkpt>
      <trkpt lat="49.17835" lon="-0.70441">
        <ele>109</ele>
        <time>2023-04-25T11:47:22Z</time>
      </trkpt>
      <trkpt lat="49.17836" lon="-0.7045">
        <ele>109</ele>
        <time>2023-04-25T11:47:23Z</time>
      </trkpt>
      <trkpt lat="49.17837" lon="-0.70459">
        <ele>109</ele>
        <time>2023-04-25T11:47:24Z</time>
      </trkpt>
      <trkpt lat="49.17838" lon="-0.70468">
        <ele>109</ele>
        <time>2023-04-25T11:47:25Z</time>
      </trkpt>
      <trkpt lat="49.17839" lon="-0.70477">
        <ele>108.8</ele>
        <time>2023-04-25T11:47:26Z</time>
      </trkpt>
      <trkpt lat="49.17839" lon="-0.70486">
        <ele>108.8</ele>
        <time>2023-04-25T11:47:27Z</time>
      </trkpt>
      <trkpt lat="49.1784" lon="-0.70495">
        <ele>108.8</ele>
        <time>2023-04-25T11:47:28Z</time>
      </trkpt>
      <trkpt lat="49.17841" lon="-0.70504">
        <ele>108.6</ele>
        <time>2023-04-25T11:47:29Z</time>
      </trkpt>
      <trkpt lat="49.17842" lon="-0.70513">
        <ele>108.6</ele>
        <time>2023-04-25T11:47:30Z</time>
      </trkpt>
      <trkpt lat="49.17843" lon="-0.70522">
        <ele>108.4</ele>
        <time>2023-04-25T11:47:31Z</time>
      </trkpt>
      <trkpt lat="49.17844" lon="-0.70531">
        <ele>108.4</ele>
        <time>2023-04-25T11:47:32Z</time>
      </trkpt>
      <trkpt lat="49.17844" lon="-0.7054">
        <ele>108.2</ele>
        <time>2023-04-25T11:47:33Z</time>
      </trkpt>
      <trkpt lat="49.17845" lon="-0.70549">
        <ele>108</ele>
        <time>2023-04-25T11:47:34Z</time>
      </trkpt>
      <trkpt lat="49.17846" lon="-0.70559">
        <ele>108</ele>
        <time>2023-04-25T11:47:35Z</time>
      </trkpt>
      <trkpt lat="49.17847" lon="-0.70568">
        <ele>107.8</ele>
        <time>2023-04-25T11:47:36Z</time>
      </trkpt>
      <trkpt lat="49.17848" lon="-0.70577">
        <ele>107.6</ele>
        <time>2023-04-25T11:47:37Z</time>
      </trkpt>
      <trkpt lat="49.17849" lon="-0.70586">
        <ele>107.6</ele>
        <time>2023-04-25T11:47:38Z</time>
      </trkpt>
      <trkpt lat="49.1785" lon="-0.70595">
        <ele>107.4</ele>
        <time>2023-04-25T11:47:39Z</time>
      </trkpt>
      <trkpt lat="49.17851" lon="-0.70605">
        <ele>107.4</ele>
        <time>2023-04-25T11:47:40Z</time>
      </trkpt>
      <trkpt lat="49.17852" lon="-0.70615">
        <ele>107</ele>
        <time>2023-04-25T11:47:41Z</time>
      </trkpt>
      <trkpt lat="49.17853" lon="-0.70624">
        <ele>107</ele>
        <time>2023-04-25T11:47:42Z</time>
      </trkpt>
      <trkpt lat="49.17853" lon="-0.70634">
        <ele>106.8</ele>
        <time>2023-04-25T11:47:43Z</time>
      </trkpt>
      <trkpt lat="49.17854" lon="-0.70645">
        <ele>106.6</ele>
        <time>2023-04-25T11:47:44Z</time>
      </trkpt>
      <trkpt lat="49.17854" lon="-0.70655">
        <ele>106.4</ele>
        <time>2023-04-25T11:47:45Z</time>
      </trkpt>
      <trkpt lat="49.17854" lon="-0.70666">
        <ele>106.4</ele>
        <time>2023-04-25T11:47:46Z</time>
      </trkpt>
      <trkpt lat="49.17854" lon="-0.70677">
        <ele>106</ele>
        <time>2023-04-25T11:47:47Z</time>
      </trkpt>
      <trkpt lat="49.17853" lon="-0.70688">
        <ele>105.6</ele>
        <time>2023-04-25T11:47:48Z</time>
      </trkpt>
      <trkpt lat="49.17853" lon="-0.707">
        <ele>105.4</ele>
        <time>2023-04-25T11:47:49Z</time>
      </trkpt>
      <trkpt lat="49.17852" lon="-0.70712">
        <ele>105</ele>
        <time>2023-04-25T11:47:50Z</time>
      </trkpt>
      <trkpt lat="49.17852" lon="-0.70725">
        <ele>104.8</ele>
        <time>2023-04-25T11:47:51Z</time>
      </trkpt>
      <trkpt lat="49.17851" lon="-0.70739">
        <ele>104.4</ele>
        <time>2023-04-25T11:47:52Z</time>
      </trkpt>
      <trkpt lat="49.17851" lon="-0.70752">
        <ele>104</ele>
        <time>2023-04-25T11:47:53Z</time>
      </trkpt>
      <trkpt lat="49.1785" lon="-0.70767">
        <ele>103.4</ele>
        <time>2023-04-25T11:47:54Z</time>
      </trkpt>
      <trkpt lat="49.17849" lon="-0.70782">
        <ele>102.6</ele>
        <time>2023-04-25T11:47:55Z</time>
      </trkpt>
      <trkpt lat="49.17849" lon="-0.70798">
        <ele>102</ele>
        <time>2023-04-25T11:47:56Z</time>
      </trkpt>
      <trkpt lat="49.17848" lon="-0.70814">
        <ele>101.2</ele>
        <time>2023-04-25T11:47:57Z</time>
      </trkpt>
      <trkpt lat="49.17847" lon="-0.70831">
        <ele>100.4</ele>
        <time>2023-04-25T11:47:58Z</time>
      </trkpt>
      <trkpt lat="49.17847" lon="-0.70849">
        <ele>99.6</ele>
        <time>2023-04-25T11:47:59Z</time>
      </trkpt>
      <trkpt lat="49.17846" lon="-0.70867">
        <ele>99</ele>
        <time>2023-04-25T11:48:00Z</time>
      </trkpt>
      <trkpt lat="49.17845" lon="-0.70885">
        <ele>98.4</ele>
        <time>2023-04-25T11:48:01Z</time>
      </trkpt>
      <trkpt lat="49.17844" lon="-0.70904">
        <ele>97.6</ele>
        <time>2023-04-25T11:48:02Z</time>
      </trkpt>
      <trkpt lat="49.17843" lon="-0.70923">
        <ele>97</ele>
        <time>2023-04-25T11:48:03Z</time>
      </trkpt>
      <trkpt lat="49.17843" lon="-0.70942">
        <ele>96.4</ele>
        <time>2023-04-25T11:48:04Z</time>
      </trkpt>
      <trkpt lat="49.17843" lon="-0.70961">
        <ele>95.6</ele>
        <time>2023-04-25T11:48:05Z</time>
      </trkpt>
      <trkpt lat="49.17843" lon="-0.70981">
        <ele>95</ele>
        <time>2023-04-25T11:48:06Z</time>
      </trkpt>
      <trkpt lat="49.17845" lon="-0.71001">
        <ele>94</ele>
        <time>2023-04-25T11:48:07Z</time>
      </trkpt>
      <trkpt lat="49.17847" lon="-0.7102">
        <ele>92.6</ele>
        <time>2023-04-25T11:48:08Z</time>
      </trkpt>
      <trkpt lat="49.17851" lon="-0.7104">
        <ele>91.2</ele>
        <time>2023-04-25T11:48:09Z</time>
      </trkpt>
      <trkpt lat="49.17855" lon="-0.7106">
        <ele>89.8</ele>
        <time>2023-04-25T11:48:10Z</time>
      </trkpt>
      <trkpt lat="49.1786" lon="-0.7108">
        <ele>88.4</ele>
        <time>2023-04-25T11:48:11Z</time>
      </trkpt>
      <trkpt lat="49.17866" lon="-0.71099">
        <ele>86.8</ele>
        <time>2023-04-25T11:48:12Z</time>
      </trkpt>
      <trkpt lat="49.17872" lon="-0.71118">
        <ele>85.4</ele>
        <time>2023-04-25T11:48:13Z</time>
      </trkpt>
      <trkpt lat="49.17878" lon="-0.71137">
        <ele>83.8</ele>
        <time>2023-04-25T11:48:14Z</time>
      </trkpt>
      <trkpt lat="49.17884" lon="-0.71157">
        <ele>82.4</ele>
        <time>2023-04-25T11:48:15Z</time>
      </trkpt>
      <trkpt lat="49.17891" lon="-0.71176">
        <ele>80.8</ele>
        <time>2023-04-25T11:48:16Z</time>
      </trkpt>
      <trkpt lat="49.17897" lon="-0.71195">
        <ele>79.4</ele>
        <time>2023-04-25T11:48:17Z</time>
      </trkpt>
      <trkpt lat="49.17903" lon="-0.71215">
        <ele>78</ele>
        <time>2023-04-25T11:48:18Z</time>
      </trkpt>
      <trkpt lat="49.17909" lon="-0.71234">
        <ele>76.6</ele>
        <time>2023-04-25T11:48:19Z</time>
      </trkpt>
      <trkpt lat="49.17915" lon="-0.71254">
        <ele>75</ele>
        <time>2023-04-25T11:48:20Z</time>
      </trkpt>
      <trkpt lat="49.17921" lon="-0.71274">
        <ele>74.6</ele>
        <time>2023-04-25T11:48:21Z</time>
      </trkpt>
      <trkpt lat="49.17927" lon="-0.71293">
        <ele>74.2</ele>
        <time>2023-04-25T11:48:22Z</time>
      </trkpt>
      <trkpt lat="49.17933" lon="-0.71313">
        <ele>73.6</ele>
        <time>2023-04-25T11:48:23Z</time>
      </trkpt>
      <trkpt lat="49.17939" lon="-0.71332">
        <ele>73.2</ele>
        <time>2023-04-25T11:48:24Z</time>
      </trkpt>
      <trkpt lat="49.17945" lon="-0.71351">
        <ele>72.6</ele>
        <time>2023-04-25T11:48:25Z</time>
      </trkpt>
      <trkpt lat="49.17951" lon="-0.7137">
        <ele>71.6</ele>
        <time>2023-04-25T11:48:26Z</time>
      </trkpt>
      <trkpt lat="49.17957" lon="-0.71389">
        <ele>71</ele>
        <time>2023-04-25T11:48:27Z</time>
      </trkpt>
      <trkpt lat="49.17962" lon="-0.71408">
        <ele>70</ele>
        <time>2023-04-25T11:48:28Z</time>
      </trkpt>
      <trkpt lat="49.17968" lon="-0.71426">
        <ele>69.2</ele>
        <time>2023-04-25T11:48:29Z</time>
      </trkpt>
      <trkpt lat="49.17974" lon="-0.71444">
        <ele>68.6</ele>
        <time>2023-04-25T11:48:30Z</time>
      </trkpt>
      <trkpt lat="49.1798" lon="-0.71462">
        <ele>67.8</ele>
        <time>2023-04-25T11:48:31Z</time>
      </trkpt>
      <trkpt lat="49.17985" lon="-0.71479">
        <ele>67</ele>
        <time>2023-04-25T11:48:32Z</time>
      </trkpt>
      <trkpt lat="49.1799" lon="-0.71496">
        <ele>66.6</ele>
        <time>2023-04-25T11:48:33Z</time>
      </trkpt>
      <trkpt lat="49.17995" lon="-0.71512">
        <ele>66.4</ele>
        <time>2023-04-25T11:48:34Z</time>
      </trkpt>
      <trkpt lat="49.18" lon="-0.71528">
        <ele>66.6</ele>
        <time>2023-04-25T11:48:35Z</time>
      </trkpt>
      <trkpt lat="49.18005" lon="-0.71543">
        <ele>67.2</ele>
        <time>2023-04-25T11:48:36Z</time>
      </trkpt>
      <trkpt lat="49.1801" lon="-0.71557">
        <ele>67.8</ele>
        <time>2023-04-25T11:48:37Z</time>
      </trkpt>
      <trkpt lat="49.18014" lon="-0.71571">
        <ele>68.4</ele>
        <time>2023-04-25T11:48:38Z</time>
      </trkpt>
      <trkpt lat="49.18018" lon="-0.71584">
        <ele>69</ele>
        <time>2023-04-25T11:48:39Z</time>
      </trkpt>
      <trkpt lat="49.18022" lon="-0.71597">
        <ele>69.2</ele>
        <time>2023-04-25T11:48:40Z</time>
      </trkpt>
      <trkpt lat="49.18026" lon="-0.71609">
        <ele>69.6</ele>
        <time>2023-04-25T11:48:41Z</time>
      </trkpt>
      <trkpt lat="49.1803" lon="-0.7162">
        <ele>70</ele>
        <time>2023-04-25T11:48:42Z</time>
      </trkpt>
      <trkpt lat="49.18033" lon="-0.71632">
        <ele>70.2</ele>
        <time>2023-04-25T11:48:43Z</time>
      </trkpt>
      <trkpt lat="49.18037" lon="-0.71642">
        <ele>70.6</ele>
        <time>2023-04-25T11:48:44Z</time>
      </trkpt>
      <trkpt lat="49.1804" lon="-0.71653">
        <ele>70.8</ele>
        <time>2023-04-25T11:48:45Z</time>
      </trkpt>
      <trkpt lat="49.18043" lon="-0.71663">
        <ele>71</ele>
        <time>2023-04-25T11:48:46Z</time>
      </trkpt>
      <trkpt lat="49.18047" lon="-0.71673">
        <ele>71.4</ele>
        <time>2023-04-25T11:48:47Z</time>
      </trkpt>
      <trkpt lat="49.1805" lon="-0.71683">
        <ele>71.6</ele>
        <time>2023-04-25T11:48:48Z</time>
      </trkpt>
      <trkpt lat="49.18053" lon="-0.71693">
        <ele>71.6</ele>
        <time>2023-04-25T11:48:49Z</time>
      </trkpt>
      <trkpt lat="49.18056" lon="-0.71703">
        <ele>71.8</ele>
        <time>2023-04-25T11:48:50Z</time>
      </trkpt>
      <trkpt lat="49.18059" lon="-0.71713">
        <ele>72</ele>
        <time>2023-04-25T11:48:51Z</time>
      </trkpt>
      <trkpt lat="49.18062" lon="-0.71723">
        <ele>72</ele>
        <time>2023-04-25T11:48:52Z</time>
      </trkpt>
      <trkpt lat="49.18065" lon="-0.71732">
        <ele>72.4</ele>
        <time>2023-04-25T11:48:53Z</time>
      </trkpt>
      <trkpt lat="49.18068" lon="-0.71742">
        <ele>72.4</ele>
        <time>2023-04-25T11:48:54Z</time>
      </trkpt>
      <trkpt lat="49.1807" lon="-0.71751">
        <ele>72.6</ele>
        <time>2023-04-25T11:48:55Z</time>
      </trkpt>
      <trkpt lat="49.18073" lon="-0.7176">
        <ele>72.6</ele>
        <time>2023-04-25T11:48:56Z</time>
      </trkpt>
      <trkpt lat="49.18076" lon="-0.71769">
        <ele>72.8</ele>
        <time>2023-04-25T11:48:57Z</time>
      </trkpt>
      <trkpt lat="49.18079" lon="-0.71778">
        <ele>73</ele>
        <time>2023-04-25T11:48:58Z</time>
      </trkpt>
      <trkpt lat="49.18082" lon="-0.71787">
        <ele>73</ele>
        <time>2023-04-25T11:48:59Z</time>
      </trkpt>
      <trkpt lat="49.18085" lon="-0.71796">
        <ele>73</ele>
        <time>2023-04-25T11:49:00Z</time>
      </trkpt>
      <trkpt lat="49.18088" lon="-0.71805">
        <ele>73.2</ele>
        <time>2023-04-25T11:49:01Z</time>
      </trkpt>
      <trkpt lat="49.18091" lon="-0.71814">
        <ele>73.4</ele>
        <time>2023-04-25T11:49:02Z</time>
      </trkpt>
      <trkpt lat="49.18094" lon="-0.71823">
        <ele>73.6</ele>
        <time>2023-04-25T11:49:03Z</time>
      </trkpt>
      <trkpt lat="49.18096" lon="-0.71832">
        <ele>73.8</ele>
        <time>2023-04-25T11:49:04Z</time>
      </trkpt>
      <trkpt lat="49.18099" lon="-0.7184">
        <ele>74</ele>
        <time>2023-04-25T11:49:05Z</time>
      </trkpt>
      <trkpt lat="49.18102" lon="-0.71848">
        <ele>74.2</ele>
        <time>2023-04-25T11:49:06Z</time>
      </trkpt>
      <trkpt lat="49.18104" lon="-0.71856">
        <ele>74.4</ele>
        <time>2023-04-25T11:49:07Z</time>
      </trkpt>
      <trkpt lat="49.18106" lon="-0.71864">
        <ele>74.6</ele>
        <time>2023-04-25T11:49:08Z</time>
      </trkpt>
      <trkpt lat="49.18109" lon="-0.71871">
        <ele>74.8</ele>
        <time>2023-04-25T11:49:09Z</time>
      </trkpt>
      <trkpt lat="49.18111" lon="-0.71879">
        <ele>75</ele>
        <time>2023-04-25T11:49:10Z</time>
      </trkpt>
      <trkpt lat="49.18113" lon="-0.71886">
        <ele>75.2</ele>
        <time>2023-04-25T11:49:11Z</time>
      </trkpt>
      <trkpt lat="49.18115" lon="-0.71894">
        <ele>75.4</ele>
        <time>2023-04-25T11:49:12Z</time>
      </trkpt>
      <trkpt lat="49.18118" lon="-0.71901">
        <ele>75.6</ele>
        <time>2023-04-25T11:49:13Z</time>
      </trkpt>
      <trkpt lat="49.1812" lon="-0.71908">
        <ele>75.6</ele>
        <time>2023-04-25T11:49:14Z</time>
      </trkpt>
      <trkpt lat="49.18122" lon="-0.71915">
        <ele>75.8</ele>
        <time>2023-04-25T11:49:15Z</time>
      </trkpt>
      <trkpt lat="49.18124" lon="-0.71922">
        <ele>76</ele>
        <time>2023-04-25T11:49:16Z</time>
      </trkpt>
      <trkpt lat="49.18126" lon="-0.71928">
        <ele>76</ele>
        <time>2023-04-25T11:49:17Z</time>
      </trkpt>
      <trkpt lat="49.18128" lon="-0.71935">
        <ele>76.4</ele>
        <time>2023-04-25T11:49:18Z</time>
      </trkpt>
      <trkpt lat="49.1813" lon="-0.71942">
        <ele>76.4</ele>
        <time>2023-04-25T11:49:19Z</time>
      </trkpt>
      <trkpt lat="49.18132" lon="-0.71948">
        <ele>76.6</ele>
        <time>2023-04-25T11:49:20Z</time>
      </trkpt>
      <trkpt lat="49.18134" lon="-0.71955">
        <ele>76.6</ele>
        <time>2023-04-25T11:49:21Z</time>
      </trkpt>
      <trkpt lat="49.18136" lon="-0.71961">
        <ele>77</ele>
        <time>2023-04-25T11:49:22Z</time>
      </trkpt>
      <trkpt lat="49.18138" lon="-0.71967">
        <ele>77</ele>
        <time>2023-04-25T11:49:23Z</time>
      </trkpt>
      <trkpt lat="49.1814" lon="-0.71973">
        <ele>77.2</ele>
        <time>2023-04-25T11:49:24Z</time>
      </trkpt>
      <trkpt lat="49.18142" lon="-0.71979">
        <ele>77.4</ele>
        <time>2023-04-25T11:49:25Z</time>
      </trkpt>
      <trkpt lat="49.18144" lon="-0.71985">
        <ele>77.6</ele>
        <time>2023-04-25T11:49:26Z</time>
      </trkpt>
      <trkpt lat="49.18146" lon="-0.71991">
        <ele>77.6</ele>
        <time>2023-04-25T11:49:27Z</time>
      </trkpt>
      <trkpt lat="49.18147" lon="-0.71997">
        <ele>77.8</ele>
        <time>2023-04-25T11:49:28Z</time>
      </trkpt>
      <trkpt lat="49.18149" lon="-0.72003">
        <ele>78</ele>
        <time>2023-04-25T11:49:29Z</time>
      </trkpt>
      <trkpt lat="49.18151" lon="-0.72008">
        <ele>78.2</ele>
        <time>2023-04-25T11:49:30Z</time>
      </trkpt>
      <trkpt lat="49.18153" lon="-0.72014">
        <ele>78.6</ele>
        <time>2023-04-25T11:49:31Z</time>
      </trkpt>
      <trkpt lat="49.18154" lon="-0.72019">
        <ele>78.6</ele>
        <time>2023-04-25T11:49:32Z</time>
      </trkpt>
      <trkpt lat="49.18156" lon="-0.72025">
        <ele>79</ele>
        <time>2023-04-25T11:49:33Z</time>
      </trkpt>
      <trkpt lat="49.18158" lon="-0.7203">
        <ele>79</ele>
        <time>2023-04-25T11:49:34Z</time>
      </trkpt>
      <trkpt lat="49.18159" lon="-0.72035">
        <ele>79.4</ele>
        <time>2023-04-25T11:49:35Z</time>
      </trkpt>
      <trkpt lat="49.18161" lon="-0.72041">
        <ele>79.6</ele>
        <time>2023-04-25T11:49:36Z</time>
      </trkpt>
      <trkpt lat="49.18162" lon="-0.72046">
        <ele>79.8</ele>
        <time>2023-04-25T11:49:37Z</time>
      </trkpt>
      <trkpt lat="49.18164" lon="-0.72051">
        <ele>80</ele>
        <time>2023-04-25T11:49:38Z</time>
      </trkpt>
      <trkpt lat="49.18165" lon="-0.72057">
        <ele>80.4</ele>
        <time>2023-04-25T11:49:39Z</time>
      </trkpt>
      <trkpt lat="49.18167" lon="-0.72062">
        <ele>80.6</ele>
        <time>2023-04-25T11:49:40Z</time>
      </trkpt>
      <trkpt lat="49.18168" lon="-0.72067">
        <ele>80.6</ele>
        <time>2023-04-25T11:49:41Z</time>
      </trkpt>
      <trkpt lat="49.1817" lon="-0.72073">
        <ele>81</ele>
        <time>2023-04-25T11:49:42Z</time>
      </trkpt>
      <trkpt lat="49.18171" lon="-0.72078">
        <ele>81.2</ele>
        <time>2023-04-25T11:49:43Z</time>
      </trkpt>
      <trkpt lat="49.18173" lon="-0.72083">
        <ele>81.4</ele>
        <time>2023-04-25T11:49:44Z</time>
      </trkpt>
      <trkpt lat="49.18174" lon="-0.72089">
        <ele>81.6</ele>
        <time>2023-04-25T11:49:45Z</time>
      </trkpt>
      <trkpt lat="49.18176" lon="-0.72094">
        <ele>82</ele>
        <time>2023-04-25T11:49:46Z</time>
      </trkpt>
      <trkpt lat="49.18177" lon="-0.72099">
        <ele>82.4</ele>
        <time>2023-04-25T11:49:47Z</time>
      </trkpt>
      <trkpt lat="49.18178" lon="-0.72105">
        <ele>82.6</ele>
        <time>2023-04-25T11:49:48Z</time>
      </trkpt>
      <trkpt lat="49.1818" lon="-0.7211">
        <ele>82.8</ele>
        <time>2023-04-25T11:49:49Z</time>
      </trkpt>
      <trkpt lat="49.18181" lon="-0.72115">
        <ele>83</ele>
        <time>2023-04-25T11:49:50Z</time>
      </trkpt>
      <trkpt lat="49.18183" lon="-0.7212">
        <ele>83.2</ele>
        <time>2023-04-25T11:49:51Z</time>
      </trkpt>
      <trkpt lat="49.18184" lon="-0.72126">
        <ele>83.6</ele>
        <time>2023-04-25T11:49:52Z</time>
      </trkpt>
      <trkpt lat="49.18185" lon="-0.72131">
        <ele>83.6</ele>
        <time>2023-04-25T11:49:53Z</time>
      </trkpt>
      <trkpt lat="49.18187" lon="-0.72136">
        <ele>84</ele>
        <time>2023-04-25T11:49:54Z</time>
      </trkpt>
      <trkpt lat="49.18188" lon="-0.72141">
        <ele>84</ele>
        <time>2023-04-25T11:49:55Z</time>
      </trkpt>
      <trkpt lat="49.18189" lon="-0.72147">
        <ele>84.4</ele>
        <time>2023-04-25T11:49:56Z</time>
      </trkpt>
      <trkpt lat="49.1819" lon="-0.72152">
        <ele>84.6</ele>
        <time>2023-04-25T11:49:57Z</time>
      </trkpt>
      <trkpt lat="49.18191" lon="-0.72157">
        <ele>84.6</ele>
        <time>2023-04-25T11:49:58Z</time>
      </trkpt>
      <trkpt lat="49.18193" lon="-0.72163">
        <ele>84.8</ele>
        <time>2023-04-25T11:49:59Z</time>
      </trkpt>
      <trkpt lat="49.18194" lon="-0.72168">
        <ele>85</ele>
        <time>2023-04-25T11:50:00Z</time>
      </trkpt>
      <trkpt lat="49.18195" lon="-0.72173">
        <ele>85.4</ele>
        <time>2023-04-25T11:50:01Z</time>
      </trkpt>
      <trkpt lat="49.18196" lon="-0.72179">
        <ele>85.6</ele>
        <time>2023-04-25T11:50:02Z</time>
      </trkpt>
      <trkpt lat="49.18197" lon="-0.72184">
        <ele>85.6</ele>
        <time>2023-04-25T11:50:03Z</time>
      </trkpt>
      <trkpt lat="49.18197" lon="-0.7219">
        <ele>86</ele>
        <time>2023-04-25T11:50:04Z</time>
      </trkpt>
      <trkpt lat="49.18198" lon="-0.72195">
        <ele>86.2</ele>
        <time>2023-04-25T11:50:05Z</time>
      </trkpt>
      <trkpt lat="49.18199" lon="-0.72201">
        <ele>86.4</ele>
        <time>2023-04-25T11:50:06Z</time>
      </trkpt>
      <trkpt lat="49.182" lon="-0.72206">
        <ele>86.6</ele>
        <time>2023-04-25T11:50:07Z</time>
      </trkpt>
      <trkpt lat="49.18201" lon="-0.72212">
        <ele>87</ele>
        <time>2023-04-25T11:50:08Z</time>
      </trkpt>
      <trkpt lat="49.18202" lon="-0.72217">
        <ele>87</ele>
        <time>2023-04-25T11:50:09Z</time>
      </trkpt>
      <trkpt lat="49.18202" lon="-0.72223">
        <ele>87.4</ele>
        <time>2023-04-25T11:50:10Z</time>
      </trkpt>
      <trkpt lat="49.18203" lon="-0.72228">
        <ele>87.6</ele>
        <time>2023-04-25T11:50:11Z</time>
      </trkpt>
      <trkpt lat="49.18204" lon="-0.72233">
        <ele>87.6</ele>
        <time>2023-04-25T11:50:12Z</time>
      </trkpt>
      <trkpt lat="49.18205" lon="-0.72239">
        <ele>88</ele>
        <time>2023-04-25T11:50:13Z</time>
      </trkpt>
      <trkpt lat="49.18205" lon="-0.72244">
        <ele>88.2</ele>
        <time>2023-04-25T11:50:14Z</time>
      </trkpt>
      <trkpt lat="49.18206" lon="-0.7225">
        <ele>88.4</ele>
        <time>2023-04-25T11:50:15Z</time>
      </trkpt>
      <trkpt lat="49.18207" lon="-0.72255">
        <ele>88.6</ele>
        <time>2023-04-25T11:50:16Z</time>
      </trkpt>
      <trkpt lat="49.18208" lon="-0.7226">
        <ele>88.6</ele>
        <time>2023-04-25T11:50:17Z</time>
      </trkpt>
      <trkpt lat="49.18208" lon="-0.72266">
        <ele>89</ele>
        <time>2023-04-25T11:50:18Z</time>
      </trkpt>
      <trkpt lat="49.18209" lon="-0.72271">
        <ele>89</ele>
        <time>2023-04-25T11:50:19Z</time>
      </trkpt>
      <trkpt lat="49.18209" lon="-0.72276">
        <ele>89.2</ele>
        <time>2023-04-25T11:50:20Z</time>
      </trkpt>
      <trkpt lat="49.1821" lon="-0.72281">
        <ele>89.4</ele>
        <time>2023-04-25T11:50:21Z</time>
      </trkpt>
      <trkpt lat="49.1821" lon="-0.72287">
        <ele>89.4</ele>
        <time>2023-04-25T11:50:22Z</time>
      </trkpt>
      <trkpt lat="49.1821" lon="-0.72292">
        <ele>89.6</ele>
        <time>2023-04-25T11:50:23Z</time>
      </trkpt>
      <trkpt lat="49.18211" lon="-0.72297">
        <ele>89.6</ele>
        <time>2023-04-25T11:50:24Z</time>
      </trkpt>
      <trkpt lat="49.18211" lon="-0.72302">
        <ele>89.8</ele>
        <time>2023-04-25T11:50:25Z</time>
      </trkpt>
      <trkpt lat="49.18211" lon="-0.72308">
        <ele>90</ele>
        <time>2023-04-25T11:50:26Z</time>
      </trkpt>
      <trkpt lat="49.18211" lon="-0.72313">
        <ele>90</ele>
        <time>2023-04-25T11:50:27Z</time>
      </trkpt>
      <trkpt lat="49.18211" lon="-0.72319">
        <ele>90.4</ele>
        <time>2023-04-25T11:50:28Z</time>
      </trkpt>
      <trkpt lat="49.18211" lon="-0.72324">
        <ele>90.4</ele>
        <time>2023-04-25T11:50:29Z</time>
      </trkpt>
      <trkpt lat="49.18212" lon="-0.7233">
        <ele>90.6</ele>
        <time>2023-04-25T11:50:30Z</time>
      </trkpt>
      <trkpt lat="49.18212" lon="-0.72335">
        <ele>90.6</ele>
        <time>2023-04-25T11:50:31Z</time>
      </trkpt>
      <trkpt lat="49.18212" lon="-0.72341">
        <ele>90.6</ele>
        <time>2023-04-25T11:50:32Z</time>
      </trkpt>
      <trkpt lat="49.18212" lon="-0.72346">
        <ele>90.8</ele>
        <time>2023-04-25T11:50:33Z</time>
      </trkpt>
      <trkpt lat="49.18212" lon="-0.72352">
        <ele>90.8</ele>
        <time>2023-04-25T11:50:34Z</time>
      </trkpt>
      <trkpt lat="49.18212" lon="-0.72357">
        <ele>91</ele>
        <time>2023-04-25T11:50:35Z</time>
      </trkpt>
      <trkpt lat="49.18212" lon="-0.72363">
        <ele>91</ele>
        <time>2023-04-25T11:50:36Z</time>
      </trkpt>
      <trkpt lat="49.18212" lon="-0.72368">
        <ele>91</ele>
        <time>2023-04-25T11:50:37Z</time>
      </trkpt>
      <trkpt lat="49.18212" lon="-0.72374">
        <ele>91</ele>
        <time>2023-04-25T11:50:38Z</time>
      </trkpt>
      <trkpt lat="49.18212" lon="-0.7238">
        <ele>91</ele>
        <time>2023-04-25T11:50:39Z</time>
      </trkpt>
      <trkpt lat="49.18212" lon="-0.72385">
        <ele>91.2</ele>
        <time>2023-04-25T11:50:40Z</time>
      </trkpt>
      <trkpt lat="49.18212" lon="-0.72391">
        <ele>91.4</ele>
        <time>2023-04-25T11:50:41Z</time>
      </trkpt>
      <trkpt lat="49.18212" lon="-0.72397">
        <ele>91.4</ele>
        <time>2023-04-25T11:50:42Z</time>
      </trkpt>
      <trkpt lat="49.18211" lon="-0.72402">
        <ele>91.4</ele>
        <time>2023-04-25T11:50:43Z</time>
      </trkpt>
      <trkpt lat="49.18211" lon="-0.72408">
        <ele>91.4</ele>
        <time>2023-04-25T11:50:44Z</time>
      </trkpt>
      <trkpt lat="49.18211" lon="-0.72414">
        <ele>91.6</ele>
        <time>2023-04-25T11:50:45Z</time>
      </trkpt>
      <trkpt lat="49.18211" lon="-0.7242">
        <ele>91.6</ele>
        <time>2023-04-25T11:50:46Z</time>
      </trkpt>
      <trkpt lat="49.1821" lon="-0.72426">
        <ele>91.6</ele>
        <time>2023-04-25T11:50:47Z</time>
      </trkpt>
      <trkpt lat="49.1821" lon="-0.72432">
        <ele>91.8</ele>
        <time>2023-04-25T11:50:48Z</time>
      </trkpt>
      <trkpt lat="49.1821" lon="-0.72438">
        <ele>92</ele>
        <time>2023-04-25T11:50:49Z</time>
      </trkpt>
      <trkpt lat="49.18209" lon="-0.72445">
        <ele>92</ele>
        <time>2023-04-25T11:50:50Z</time>
      </trkpt>
      <trkpt lat="49.18209" lon="-0.72451">
        <ele>92</ele>
        <time>2023-04-25T11:50:51Z</time>
      </trkpt>
      <trkpt lat="49.18208" lon="-0.72457">
        <ele>92.2</ele>
        <time>2023-04-25T11:50:52Z</time>
      </trkpt>
      <trkpt lat="49.18208" lon="-0.72464">
        <ele>92.4</ele>
        <time>2023-04-25T11:50:53Z</time>
      </trkpt>
      <trkpt lat="49.18207" lon="-0.7247">
        <ele>92.6</ele>
        <time>2023-04-25T11:50:54Z</time>
      </trkpt>
      <trkpt lat="49.18207" lon="-0.72477">
        <ele>92.6</ele>
        <time>2023-04-25T11:50:55Z</time>
      </trkpt>
      <trkpt lat="49.18206" lon="-0.72484">
        <ele>92.6</ele>
        <time>2023-04-25T11:50:56Z</time>
      </trkpt>
      <trkpt lat="49.18205" lon="-0.72491">
        <ele>92.8</ele>
        <time>2023-04-25T11:50:57Z</time>
      </trkpt>
      <trkpt lat="49.18204" lon="-0.72498">
        <ele>93</ele>
        <time>2023-04-25T11:50:58Z</time>
      </trkpt>
      <trkpt lat="49.18203" lon="-0.72505">
        <ele>93</ele>
        <time>2023-04-25T11:50:59Z</time>
      </trkpt>
      <trkpt lat="49.18203" lon="-0.72512">
        <ele>93</ele>
        <time>2023-04-25T11:51:00Z</time>
      </trkpt>
      <trkpt lat="49.18201" lon="-0.7252">
        <ele>93</ele>
        <time>2023-04-25T11:51:01Z</time>
      </trkpt>
      <trkpt lat="49.182" lon="-0.72527">
        <ele>93</ele>
        <time>2023-04-25T11:51:02Z</time>
      </trkpt>
      <trkpt lat="49.18199" lon="-0.72534">
        <ele>93</ele>
        <time>2023-04-25T11:51:03Z</time>
      </trkpt>
      <trkpt lat="49.18198" lon="-0.72542">
        <ele>93</ele>
        <time>2023-04-25T11:51:04Z</time>
      </trkpt>
      <trkpt lat="49.18197" lon="-0.72549">
        <ele>93</ele>
        <time>2023-04-25T11:51:05Z</time>
      </trkpt>
      <trkpt lat="49.18196" lon="-0.72557">
        <ele>93</ele>
        <time>2023-04-25T11:51:06Z</time>
      </trkpt>
      <trkpt lat="49.18194" lon="-0.72564">
        <ele>93</ele>
        <time>2023-04-25T11:51:07Z</time>
      </trkpt>
      <trkpt lat="49.18193" lon="-0.72572">
        <ele>93</ele>
        <time>2023-04-25T11:51:08Z</time>
      </trkpt>
      <trkpt lat="49.18191" lon="-0.7258">
        <ele>93</ele>
        <time>2023-04-25T11:51:09Z</time>
      </trkpt>
      <trkpt lat="49.1819" lon="-0.72587">
        <ele>93</ele>
        <time>2023-04-25T11:51:10Z</time>
      </trkpt>
      <trkpt lat="49.18188" lon="-0.72595">
        <ele>93</ele>
        <time>2023-04-25T11:51:11Z</time>
      </trkpt>
      <trkpt lat="49.18187" lon="-0.72603">
        <ele>93.2</ele>
        <time>2023-04-25T11:51:12Z</time>
      </trkpt>
      <trkpt lat="49.18185" lon="-0.72611">
        <ele>93.4</ele>
        <time>2023-04-25T11:51:13Z</time>
      </trkpt>
      <trkpt lat="49.18184" lon="-0.72619">
        <ele>93.4</ele>
        <time>2023-04-25T11:51:14Z</time>
      </trkpt>
      <trkpt lat="49.18182" lon="-0.72627">
        <ele>93.4</ele>
        <time>2023-04-25T11:51:15Z</time>
      </trkpt>
      <trkpt lat="49.1818" lon="-0.72635">
        <ele>93.6</ele>
        <time>2023-04-25T11:51:16Z</time>
      </trkpt>
      <trkpt lat="49.18179" lon="-0.72643">
        <ele>93.6</ele>
        <time>2023-04-25T11:51:17Z</time>
      </trkpt>
      <trkpt lat="49.18177" lon="-0.72651">
        <ele>93.6</ele>
        <time>2023-04-25T11:51:18Z</time>
      </trkpt>
      <trkpt lat="49.18175" lon="-0.72659">
        <ele>93.8</ele>
        <time>2023-04-25T11:51:19Z</time>
      </trkpt>
      <trkpt lat="49.18174" lon="-0.72668">
        <ele>94</ele>
        <time>2023-04-25T11:51:20Z</time>
      </trkpt>
      <trkpt lat="49.18172" lon="-0.72676">
        <ele>94</ele>
        <time>2023-04-25T11:51:21Z</time>
      </trkpt>
      <trkpt lat="49.18171" lon="-0.72684">
        <ele>94.2</ele>
        <time>2023-04-25T11:51:22Z</time>
      </trkpt>
      <trkpt lat="49.18169" lon="-0.72693">
        <ele>94.4</ele>
        <time>2023-04-25T11:51:23Z</time>
      </trkpt>
      <trkpt lat="49.18167" lon="-0.72701">
        <ele>94.4</ele>
        <time>2023-04-25T11:51:24Z</time>
      </trkpt>
      <trkpt lat="49.18166" lon="-0.7271">
        <ele>94.6</ele>
        <time>2023-04-25T11:51:25Z</time>
      </trkpt>
      <trkpt lat="49.18164" lon="-0.72718">
        <ele>94.6</ele>
        <time>2023-04-25T11:51:26Z</time>
      </trkpt>
      <trkpt lat="49.18162" lon="-0.72727">
        <ele>94.6</ele>
        <time>2023-04-25T11:51:27Z</time>
      </trkpt>
      <trkpt lat="49.18161" lon="-0.72735">
        <ele>94.8</ele>
        <time>2023-04-25T11:51:28Z</time>
      </trkpt>
      <trkpt lat="49.18159" lon="-0.72744">
        <ele>94.8</ele>
        <time>2023-04-25T11:51:29Z</time>
      </trkpt>
      <trkpt lat="49.18157" lon="-0.72752">
        <ele>94.8</ele>
        <time>2023-04-25T11:51:30Z</time>
      </trkpt>
      <trkpt lat="49.18156" lon="-0.72761">
        <ele>94.6</ele>
        <time>2023-04-25T11:51:31Z</time>
      </trkpt>
      <trkpt lat="49.18154" lon="-0.72769">
        <ele>94.6</ele>
        <time>2023-04-25T11:51:32Z</time>
      </trkpt>
      <trkpt lat="49.18152" lon="-0.72778">
        <ele>94.4</ele>
        <time>2023-04-25T11:51:33Z</time>
      </trkpt>
      <trkpt lat="49.18151" lon="-0.72787">
        <ele>94</ele>
        <time>2023-04-25T11:51:34Z</time>
      </trkpt>
      <trkpt lat="49.18149" lon="-0.72795">
        <ele>94</ele>
        <time>2023-04-25T11:51:35Z</time>
      </trkpt>
      <trkpt lat="49.18147" lon="-0.72804">
        <ele>93.8</ele>
        <time>2023-04-25T11:51:36Z</time>
      </trkpt>
      <trkpt lat="49.18145" lon="-0.72813">
        <ele>93.6</ele>
        <time>2023-04-25T11:51:37Z</time>
      </trkpt>
      <trkpt lat="49.18144" lon="-0.72821">
        <ele>93.6</ele>
        <time>2023-04-25T11:51:38Z</time>
      </trkpt>
      <trkpt lat="49.18142" lon="-0.7283">
        <ele>93.4</ele>
        <time>2023-04-25T11:51:39Z</time>
      </trkpt>
      <trkpt lat="49.1814" lon="-0.72839">
        <ele>93.4</ele>
        <time>2023-04-25T11:51:40Z</time>
      </trkpt>
      <trkpt lat="49.18138" lon="-0.72848">
        <ele>93.6</ele>
        <time>2023-04-25T11:51:41Z</time>
      </trkpt>
      <trkpt lat="49.18137" lon="-0.72856">
        <ele>93.6</ele>
        <time>2023-04-25T11:51:42Z</time>
      </trkpt>
      <trkpt lat="49.18135" lon="-0.72866">
        <ele>93.6</ele>
        <time>2023-04-25T11:51:43Z</time>
      </trkpt>
      <trkpt lat="49.18133" lon="-0.72874">
        <ele>93.6</ele>
        <time>2023-04-25T11:51:44Z</time>
      </trkpt>
      <trkpt lat="49.18131" lon="-0.72883">
        <ele>93.8</ele>
        <time>2023-04-25T11:51:45Z</time>
      </trkpt>
      <trkpt lat="49.18129" lon="-0.72893">
        <ele>93.8</ele>
        <time>2023-04-25T11:51:46Z</time>
      </trkpt>
      <trkpt lat="49.18127" lon="-0.72902">
        <ele>94</ele>
        <time>2023-04-25T11:51:47Z</time>
      </trkpt>
      <trkpt lat="49.18125" lon="-0.72911">
        <ele>94</ele>
        <time>2023-04-25T11:51:48Z</time>
      </trkpt>
      <trkpt lat="49.18124" lon="-0.7292">
        <ele>94</ele>
        <time>2023-04-25T11:51:49Z</time>
      </trkpt>
      <trkpt lat="49.18122" lon="-0.72929">
        <ele>94.4</ele>
        <time>2023-04-25T11:51:50Z</time>
      </trkpt>
      <trkpt lat="49.1812" lon="-0.72938">
        <ele>94.6</ele>
        <time>2023-04-25T11:51:51Z</time>
      </trkpt>
      <trkpt lat="49.18118" lon="-0.72948">
        <ele>95</ele>
        <time>2023-04-25T11:51:52Z</time>
      </trkpt>
      <trkpt lat="49.18116" lon="-0.72957">
        <ele>95.4</ele>
        <time>2023-04-25T11:51:53Z</time>
      </trkpt>
      <trkpt lat="49.18114" lon="-0.72967">
        <ele>95.6</ele>
        <time>2023-04-25T11:51:54Z</time>
      </trkpt>
      <trkpt lat="49.18112" lon="-0.72976">
        <ele>95.6</ele>
        <time>2023-04-25T11:51:55Z</time>
      </trkpt>
      <trkpt lat="49.18111" lon="-0.72985">
        <ele>96</ele>
        <time>2023-04-25T11:51:56Z</time>
      </trkpt>
      <trkpt lat="49.18109" lon="-0.72995">
        <ele>96</ele>
        <time>2023-04-25T11:51:57Z</time>
      </trkpt>
      <trkpt lat="49.18107" lon="-0.73005">
        <ele>96.2</ele>
        <time>2023-04-25T11:51:58Z</time>
      </trkpt>
      <trkpt lat="49.18105" lon="-0.73014">
        <ele>96.2</ele>
        <time>2023-04-25T11:51:59Z</time>
      </trkpt>
      <trkpt lat="49.18103" lon="-0.73024">
        <ele>96.4</ele>
        <time>2023-04-25T11:52:00Z</time>
      </trkpt>
      <trkpt lat="49.18101" lon="-0.73034">
        <ele>96.4</ele>
        <time>2023-04-25T11:52:01Z</time>
      </trkpt>
      <trkpt lat="49.18099" lon="-0.73044">
        <ele>96.4</ele>
        <time>2023-04-25T11:52:02Z</time>
      </trkpt>
      <trkpt lat="49.18097" lon="-0.73054">
        <ele>96.4</ele>
        <time>2023-04-25T11:52:03Z</time>
      </trkpt>
      <trkpt lat="49.18095" lon="-0.73064">
        <ele>96.4</ele>
        <time>2023-04-25T11:52:04Z</time>
      </trkpt>
      <trkpt lat="49.18093" lon="-0.73075">
        <ele>96.6</ele>
        <time>2023-04-25T11:52:05Z</time>
      </trkpt>
      <trkpt lat="49.18091" lon="-0.73086">
        <ele>96.4</ele>
        <time>2023-04-25T11:52:06Z</time>
      </trkpt>
      <trkpt lat="49.18089" lon="-0.73096">
        <ele>96</ele>
        <time>2023-04-25T11:52:07Z</time>
      </trkpt>
      <trkpt lat="49.18086" lon="-0.73107">
        <ele>95.6</ele>
        <time>2023-04-25T11:52:08Z</time>
      </trkpt>
      <trkpt lat="49.18084" lon="-0.73118">
        <ele>95.2</ele>
        <time>2023-04-25T11:52:09Z</time>
      </trkpt>
      <trkpt lat="49.18082" lon="-0.7313">
        <ele>95</ele>
        <time>2023-04-25T11:52:10Z</time>
      </trkpt>
      <trkpt lat="49.1808" lon="-0.73141">
        <ele>94.6</ele>
        <time>2023-04-25T11:52:11Z</time>
      </trkpt>
      <trkpt lat="49.18077" lon="-0.73153">
        <ele>94.2</ele>
        <time>2023-04-25T11:52:12Z</time>
      </trkpt>
      <trkpt lat="49.18075" lon="-0.73165">
        <ele>93.8</ele>
        <time>2023-04-25T11:52:13Z</time>
      </trkpt>
      <trkpt lat="49.18073" lon="-0.73177">
        <ele>93.6</ele>
        <time>2023-04-25T11:52:14Z</time>
      </trkpt>
      <trkpt lat="49.1807" lon="-0.73189">
        <ele>93.2</ele>
        <time>2023-04-25T11:52:15Z</time>
      </trkpt>
      <trkpt lat="49.18068" lon="-0.73201">
        <ele>92.8</ele>
        <time>2023-04-25T11:52:16Z</time>
      </trkpt>
      <trkpt lat="49.18065" lon="-0.73214">
        <ele>92.4</ele>
        <time>2023-04-25T11:52:17Z</time>
      </trkpt>
      <trkpt lat="49.18063" lon="-0.73227">
        <ele>92</ele>
        <time>2023-04-25T11:52:18Z</time>
      </trkpt>
      <trkpt lat="49.1806" lon="-0.7324">
        <ele>91.6</ele>
        <time>2023-04-25T11:52:19Z</time>
      </trkpt>
      <trkpt lat="49.18058" lon="-0.73253">
        <ele>91.4</ele>
        <time>2023-04-25T11:52:20Z</time>
      </trkpt>
      <trkpt lat="49.18055" lon="-0.73266">
        <ele>90.6</ele>
        <time>2023-04-25T11:52:21Z</time>
      </trkpt>
      <trkpt lat="49.18052" lon="-0.73279">
        <ele>89.8</ele>
        <time>2023-04-25T11:52:22Z</time>
      </trkpt>
      <trkpt lat="49.1805" lon="-0.73292">
        <ele>89</ele>
        <time>2023-04-25T11:52:23Z</time>
      </trkpt>
      <trkpt lat="49.18047" lon="-0.73306">
        <ele>88.4</ele>
        <time>2023-04-25T11:52:24Z</time>
      </trkpt>
      <trkpt lat="49.18044" lon="-0.73319">
        <ele>87.6</ele>
        <time>2023-04-25T11:52:25Z</time>
      </trkpt>
      <trkpt lat="49.18042" lon="-0.73333">
        <ele>87</ele>
        <time>2023-04-25T11:52:26Z</time>
      </trkpt>
      <trkpt lat="49.18039" lon="-0.73347">
        <ele>86.4</ele>
        <time>2023-04-25T11:52:27Z</time>
      </trkpt>
      <trkpt lat="49.18036" lon="-0.7336">
        <ele>85.6</ele>
        <time>2023-04-25T11:52:28Z</time>
      </trkpt>
      <trkpt lat="49.18034" lon="-0.73374">
        <ele>85</ele>
        <time>2023-04-25T11:52:29Z</time>
      </trkpt>
      <trkpt lat="49.18031" lon="-0.73388">
        <ele>84.4</ele>
        <time>2023-04-25T11:52:30Z</time>
      </trkpt>
      <trkpt lat="49.18028" lon="-0.73401">
        <ele>83.6</ele>
        <time>2023-04-25T11:52:31Z</time>
      </trkpt>
      <trkpt lat="49.18025" lon="-0.73415">
        <ele>83</ele>
        <time>2023-04-25T11:52:32Z</time>
      </trkpt>
      <trkpt lat="49.18022" lon="-0.73429">
        <ele>82.6</ele>
        <time>2023-04-25T11:52:33Z</time>
      </trkpt>
      <trkpt lat="49.18019" lon="-0.73443">
        <ele>82</ele>
        <time>2023-04-25T11:52:34Z</time>
      </trkpt>
      <trkpt lat="49.18016" lon="-0.73457">
        <ele>81.6</ele>
        <time>2023-04-25T11:52:35Z</time>
      </trkpt>
      <trkpt lat="49.18014" lon="-0.73472">
        <ele>81</ele>
        <time>2023-04-25T11:52:36Z</time>
      </trkpt>
      <trkpt lat="49.18013" lon="-0.73487">
        <ele>80.6</ele>
        <time>2023-04-25T11:52:37Z</time>
      </trkpt>
      <trkpt lat="49.18012" lon="-0.73502">
        <ele>80</ele>
        <time>2023-04-25T11:52:38Z</time>
      </trkpt>
      <trkpt lat="49.18012" lon="-0.73518">
        <ele>79.4</ele>
        <time>2023-04-25T11:52:39Z</time>
      </trkpt>
      <trkpt lat="49.18013" lon="-0.73534">
        <ele>78.6</ele>
        <time>2023-04-25T11:52:40Z</time>
      </trkpt>
      <trkpt lat="49.18016" lon="-0.73551">
        <ele>78</ele>
        <time>2023-04-25T11:52:41Z</time>
      </trkpt>
      <trkpt lat="49.18019" lon="-0.73567">
        <ele>77.4</ele>
        <time>2023-04-25T11:52:42Z</time>
      </trkpt>
      <trkpt lat="49.18023" lon="-0.73582">
        <ele>76.8</ele>
        <time>2023-04-25T11:52:43Z</time>
      </trkpt>
      <trkpt lat="49.18028" lon="-0.73597">
        <ele>76.2</ele>
        <time>2023-04-25T11:52:44Z</time>
      </trkpt>
      <trkpt lat="49.18034" lon="-0.73612">
        <ele>75.6</ele>
        <time>2023-04-25T11:52:45Z</time>
      </trkpt>
      <trkpt lat="49.1804" lon="-0.73627">
        <ele>75</ele>
        <time>2023-04-25T11:52:46Z</time>
      </trkpt>
      <trkpt lat="49.18046" lon="-0.73641">
        <ele>74.4</ele>
        <time>2023-04-25T11:52:47Z</time>
      </trkpt>
      <trkpt lat="49.18052" lon="-0.73656">
        <ele>73.6</ele>
        <time>2023-04-25T11:52:48Z</time>
      </trkpt>
      <trkpt lat="49.18057" lon="-0.7367">
        <ele>72.8</ele>
        <time>2023-04-25T11:52:49Z</time>
      </trkpt>
      <trkpt lat="49.18063" lon="-0.73685">
        <ele>72.4</ele>
        <time>2023-04-25T11:52:50Z</time>
      </trkpt>
      <trkpt lat="49.18069" lon="-0.737">
        <ele>71.6</ele>
        <time>2023-04-25T11:52:51Z</time>
      </trkpt>
      <trkpt lat="49.18075" lon="-0.73714">
        <ele>71.2</ele>
        <time>2023-04-25T11:52:52Z</time>
      </trkpt>
      <trkpt lat="49.18081" lon="-0.73728">
        <ele>70.6</ele>
        <time>2023-04-25T11:52:53Z</time>
      </trkpt>
      <trkpt lat="49.18087" lon="-0.73743">
        <ele>70.2</ele>
        <time>2023-04-25T11:52:54Z</time>
      </trkpt>
      <trkpt lat="49.18092" lon="-0.73757">
        <ele>70</ele>
        <time>2023-04-25T11:52:55Z</time>
      </trkpt>
      <trkpt lat="49.18098" lon="-0.73771">
        <ele>70.4</ele>
        <time>2023-04-25T11:52:56Z</time>
      </trkpt>
      <trkpt lat="49.18104" lon="-0.73785">
        <ele>70.6</ele>
        <time>2023-04-25T11:52:57Z</time>
      </trkpt>
      <trkpt lat="49.1811" lon="-0.73799">
        <ele>71</ele>
        <time>2023-04-25T11:52:58Z</time>
      </trkpt>
      <trkpt lat="49.18115" lon="-0.73812">
        <ele>71.6</ele>
        <time>2023-04-25T11:52:59Z</time>
      </trkpt>
      <trkpt lat="49.18121" lon="-0.73825">
        <ele>72</ele>
        <time>2023-04-25T11:53:00Z</time>
      </trkpt>
      <trkpt lat="49.18126" lon="-0.73838">
        <ele>72.6</ele>
        <time>2023-04-25T11:53:01Z</time>
      </trkpt>
      <trkpt lat="49.18131" lon="-0.7385">
        <ele>72.8</ele>
        <time>2023-04-25T11:53:02Z</time>
      </trkpt>
      <trkpt lat="49.18136" lon="-0.73862">
        <ele>73</ele>
        <time>2023-04-25T11:53:03Z</time>
      </trkpt>
      <trkpt lat="49.1814" lon="-0.73873">
        <ele>73.2</ele>
        <time>2023-04-25T11:53:04Z</time>
      </trkpt>
      <trkpt lat="49.18145" lon="-0.73884">
        <ele>73.4</ele>
        <time>2023-04-25T11:53:05Z</time>
      </trkpt>
      <trkpt lat="49.18149" lon="-0.73894">
        <ele>73.6</ele>
        <time>2023-04-25T11:53:06Z</time>
      </trkpt>
      <trkpt lat="49.18153" lon="-0.73903">
        <ele>73.6</ele>
        <time>2023-04-25T11:53:07Z</time>
      </trkpt>
      <trkpt lat="49.18157" lon="-0.73913">
        <ele>73.6</ele>
        <time>2023-04-25T11:53:08Z</time>
      </trkpt>
      <trkpt lat="49.1816" lon="-0.73921">
        <ele>74</ele>
        <time>2023-04-25T11:53:09Z</time>
      </trkpt>
      <trkpt lat="49.18164" lon="-0.7393">
        <ele>74.2</ele>
        <time>2023-04-25T11:53:10Z</time>
      </trkpt>
      <trkpt lat="49.18167" lon="-0.73938">
        <ele>74.6</ele>
        <time>2023-04-25T11:53:11Z</time>
      </trkpt>
      <trkpt lat="49.1817" lon="-0.73946">
        <ele>74.8</ele>
        <time>2023-04-25T11:53:12Z</time>
      </trkpt>
      <trkpt lat="49.18174" lon="-0.73953">
        <ele>75</ele>
        <time>2023-04-25T11:53:13Z</time>
      </trkpt>
      <trkpt lat="49.18177" lon="-0.73961">
        <ele>75.4</ele>
        <time>2023-04-25T11:53:14Z</time>
      </trkpt>
      <trkpt lat="49.1818" lon="-0.73968">
        <ele>75.6</ele>
        <time>2023-04-25T11:53:15Z</time>
      </trkpt>
      <trkpt lat="49.18182" lon="-0.73975">
        <ele>76</ele>
        <time>2023-04-25T11:53:16Z</time>
      </trkpt>
      <trkpt lat="49.18185" lon="-0.73982">
        <ele>76.2</ele>
        <time>2023-04-25T11:53:17Z</time>
      </trkpt>
      <trkpt lat="49.18188" lon="-0.73989">
        <ele>76.6</ele>
        <time>2023-04-25T11:53:18Z</time>
      </trkpt>
      <trkpt lat="49.18191" lon="-0.73995">
        <ele>76.6</ele>
        <time>2023-04-25T11:53:19Z</time>
      </trkpt>
      <trkpt lat="49.18193" lon="-0.74002">
        <ele>77</ele>
        <time>2023-04-25T11:53:20Z</time>
      </trkpt>
      <trkpt lat="49.18196" lon="-0.74008">
        <ele>77.2</ele>
        <time>2023-04-25T11:53:21Z</time>
      </trkpt>
      <trkpt lat="49.18198" lon="-0.74014">
        <ele>77.6</ele>
        <time>2023-04-25T11:53:22Z</time>
      </trkpt>
      <trkpt lat="49.18201" lon="-0.74021">
        <ele>77.6</ele>
        <time>2023-04-25T11:53:23Z</time>
      </trkpt>
      <trkpt lat="49.18204" lon="-0.74027">
        <ele>78</ele>
        <time>2023-04-25T11:53:24Z</time>
      </trkpt>
      <trkpt lat="49.18206" lon="-0.74033">
        <ele>78.2</ele>
        <time>2023-04-25T11:53:25Z</time>
      </trkpt>
      <trkpt lat="49.18209" lon="-0.7404">
        <ele>78.6</ele>
        <time>2023-04-25T11:53:26Z</time>
      </trkpt>
      <trkpt lat="49.18211" lon="-0.74046">
        <ele>78.6</ele>
        <time>2023-04-25T11:53:27Z</time>
      </trkpt>
      <trkpt lat="49.18214" lon="-0.74052">
        <ele>79</ele>
        <time>2023-04-25T11:53:28Z</time>
      </trkpt>
      <trkpt lat="49.18217" lon="-0.74058">
        <ele>79.2</ele>
        <time>2023-04-25T11:53:29Z</time>
      </trkpt>
      <trkpt lat="49.18219" lon="-0.74065">
        <ele>79.4</ele>
        <time>2023-04-25T11:53:30Z</time>
      </trkpt>
      <trkpt lat="49.18222" lon="-0.74071">
        <ele>79.6</ele>
        <time>2023-04-25T11:53:31Z</time>
      </trkpt>
      <trkpt lat="49.18224" lon="-0.74077">
        <ele>80</ele>
        <time>2023-04-25T11:53:32Z</time>
      </trkpt>
      <trkpt lat="49.18227" lon="-0.74083">
        <ele>80.2</ele>
        <time>2023-04-25T11:53:33Z</time>
      </trkpt>
      <trkpt lat="49.18229" lon="-0.74089">
        <ele>80.4</ele>
        <time>2023-04-25T11:53:34Z</time>
      </trkpt>
      <trkpt lat="49.18231" lon="-0.74095">
        <ele>80.6</ele>
        <time>2023-04-25T11:53:35Z</time>
      </trkpt>
      <trkpt lat="49.18234" lon="-0.74101">
        <ele>81</ele>
        <time>2023-04-25T11:53:36Z</time>
      </trkpt>
      <trkpt lat="49.18236" lon="-0.74107">
        <ele>81.4</ele>
        <time>2023-04-25T11:53:37Z</time>
      </trkpt>
      <trkpt lat="49.18238" lon="-0.74112">
        <ele>81.6</ele>
        <time>2023-04-25T11:53:38Z</time>
      </trkpt>
      <trkpt lat="49.1824" lon="-0.74118">
        <ele>82</ele>
        <time>2023-04-25T11:53:39Z</time>
      </trkpt>
      <trkpt lat="49.18243" lon="-0.74123">
        <ele>82.2</ele>
        <time>2023-04-25T11:53:40Z</time>
      </trkpt>
      <trkpt lat="49.18245" lon="-0.74129">
        <ele>82.6</ele>
        <time>2023-04-25T11:53:41Z</time>
      </trkpt>
      <trkpt lat="49.18247" lon="-0.74134">
        <ele>82.6</ele>
        <time>2023-04-25T11:53:42Z</time>
      </trkpt>
      <trkpt lat="49.1825" lon="-0.74139">
        <ele>83</ele>
        <time>2023-04-25T11:53:43Z</time>
      </trkpt>
      <trkpt lat="49.18252" lon="-0.74145">
        <ele>83.2</ele>
        <time>2023-04-25T11:53:44Z</time>
      </trkpt>
      <trkpt lat="49.18254" lon="-0.7415">
        <ele>83.4</ele>
        <time>2023-04-25T11:53:45Z</time>
      </trkpt>
      <trkpt lat="49.18256" lon="-0.74155">
        <ele>83.6</ele>
        <time>2023-04-25T11:53:46Z</time>
      </trkpt>
      <trkpt lat="49.18258" lon="-0.74161">
        <ele>83.8</ele>
        <time>2023-04-25T11:53:47Z</time>
      </trkpt>
      <trkpt lat="49.1826" lon="-0.74166">
        <ele>84</ele>
        <time>2023-04-25T11:53:48Z</time>
      </trkpt>
      <trkpt lat="49.18263" lon="-0.74171">
        <ele>84</ele>
        <time>2023-04-25T11:53:49Z</time>
      </trkpt>
      <trkpt lat="49.18265" lon="-0.74176">
        <ele>84.4</ele>
        <time>2023-04-25T11:53:50Z</time>
      </trkpt>
      <trkpt lat="49.18267" lon="-0.74182">
        <ele>84.4</ele>
        <time>2023-04-25T11:53:51Z</time>
      </trkpt>
      <trkpt lat="49.18269" lon="-0.74187">
        <ele>84.6</ele>
        <time>2023-04-25T11:53:52Z</time>
      </trkpt>
      <trkpt lat="49.18272" lon="-0.74192">
        <ele>84.6</ele>
        <time>2023-04-25T11:53:53Z</time>
      </trkpt>
      <trkpt lat="49.18274" lon="-0.74198">
        <ele>85</ele>
        <time>2023-04-25T11:53:54Z</time>
      </trkpt>
      <trkpt lat="49.18276" lon="-0.74203">
        <ele>85</ele>
        <time>2023-04-25T11:53:55Z</time>
      </trkpt>
      <trkpt lat="49.18279" lon="-0.74209">
        <ele>85.2</ele>
        <time>2023-04-25T11:53:56Z</time>
      </trkpt>
      <trkpt lat="49.18281" lon="-0.74214">
        <ele>85.4</ele>
        <time>2023-04-25T11:53:57Z</time>
      </trkpt>
      <trkpt lat="49.18283" lon="-0.7422">
        <ele>85.6</ele>
        <time>2023-04-25T11:53:58Z</time>
      </trkpt>
      <trkpt lat="49.18285" lon="-0.74225">
        <ele>85.6</ele>
        <time>2023-04-25T11:53:59Z</time>
      </trkpt>
      <trkpt lat="49.18287" lon="-0.7423">
        <ele>86</ele>
        <time>2023-04-25T11:54:00Z</time>
      </trkpt>
      <trkpt lat="49.18289" lon="-0.74235">
        <ele>86</ele>
        <time>2023-04-25T11:54:01Z</time>
      </trkpt>
      <trkpt lat="49.18291" lon="-0.7424">
        <ele>86.2</ele>
        <time>2023-04-25T11:54:02Z</time>
      </trkpt>
      <trkpt lat="49.18292" lon="-0.74245">
        <ele>86.4</ele>
        <time>2023-04-25T11:54:03Z</time>
      </trkpt>
      <trkpt lat="49.18294" lon="-0.7425">
        <ele>86.6</ele>
        <time>2023-04-25T11:54:04Z</time>
      </trkpt>
      <trkpt lat="49.18296" lon="-0.74255">
        <ele>86.6</ele>
        <time>2023-04-25T11:54:05Z</time>
      </trkpt>
      <trkpt lat="49.18298" lon="-0.74259">
        <ele>86.6</ele>
        <time>2023-04-25T11:54:06Z</time>
      </trkpt>
      <trkpt lat="49.183" lon="-0.74264">
        <ele>86.6</ele>
        <time>2023-04-25T11:54:07Z</time>
      </trkpt>
      <trkpt lat="49.18302" lon="-0.74268">
        <ele>86.8</ele>
        <time>2023-04-25T11:54:08Z</time>
      </trkpt>
      <trkpt lat="49.18304" lon="-0.74273">
        <ele>86.8</ele>
        <time>2023-04-25T11:54:09Z</time>
      </trkpt>
      <trkpt lat="49.18306" lon="-0.74278">
        <ele>87</ele>
        <time>2023-04-25T11:54:10Z</time>
      </trkpt>
      <trkpt lat="49.18308" lon="-0.74282">
        <ele>87</ele>
        <time>2023-04-25T11:54:11Z</time>
      </trkpt>
      <trkpt lat="49.18309" lon="-0.74287">
        <ele>87</ele>
        <time>2023-04-25T11:54:12Z</time>
      </trkpt>
      <trkpt lat="49.18311" lon="-0.74291">
        <ele>87</ele>
        <time>2023-04-25T11:54:13Z</time>
      </trkpt>
      <trkpt lat="49.18313" lon="-0.74296">
        <ele>87.2</ele>
        <time>2023-04-25T11:54:14Z</time>
      </trkpt>
      <trkpt lat="49.18315" lon="-0.74301">
        <ele>87.4</ele>
        <time>2023-04-25T11:54:15Z</time>
      </trkpt>
      <trkpt lat="49.18317" lon="-0.74305">
        <ele>87.4</ele>
        <time>2023-04-25T11:54:16Z</time>
      </trkpt>
      <trkpt lat="49.18319" lon="-0.7431">
        <ele>87.4</ele>
        <time>2023-04-25T11:54:17Z</time>
      </trkpt>
      <trkpt lat="49.18321" lon="-0.74314">
        <ele>87.6</ele>
        <time>2023-04-25T11:54:18Z</time>
      </trkpt>
      <trkpt lat="49.18322" lon="-0.74319">
        <ele>87.6</ele>
        <time>2023-04-25T11:54:19Z</time>
      </trkpt>
      <trkpt lat="49.18324" lon="-0.74324">
        <ele>87.6</ele>
        <time>2023-04-25T11:54:20Z</time>
      </trkpt>
      <trkpt lat="49.18326" lon="-0.74328">
        <ele>87.8</ele>
        <time>2023-04-25T11:54:21Z</time>
      </trkpt>
      <trkpt lat="49.18328" lon="-0.74333">
        <ele>88</ele>
        <time>2023-04-25T11:54:22Z</time>
      </trkpt>
      <trkpt lat="49.1833" lon="-0.74337">
        <ele>88</ele>
        <time>2023-04-25T11:54:23Z</time>
      </trkpt>
      <trkpt lat="49.18332" lon="-0.74342">
        <ele>88</ele>
        <time>2023-04-25T11:54:24Z</time>
      </trkpt>
      <trkpt lat="49.18334" lon="-0.74347">
        <ele>88.2</ele>
        <time>2023-04-25T11:54:25Z</time>
      </trkpt>
      <trkpt lat="49.18336" lon="-0.74351">
        <ele>88.2</ele>
        <time>2023-04-25T11:54:26Z</time>
      </trkpt>
      <trkpt lat="49.18338" lon="-0.74356">
        <ele>88.4</ele>
        <time>2023-04-25T11:54:27Z</time>
      </trkpt>
      <trkpt lat="49.18339" lon="-0.74361">
        <ele>88.4</ele>
        <time>2023-04-25T11:54:28Z</time>
      </trkpt>
      <trkpt lat="49.18341" lon="-0.74365">
        <ele>88.4</ele>
        <time>2023-04-25T11:54:29Z</time>
      </trkpt>
      <trkpt lat="49.18343" lon="-0.7437">
        <ele>88.4</ele>
        <time>2023-04-25T11:54:30Z</time>
      </trkpt>
      <trkpt lat="49.18345" lon="-0.74374">
        <ele>88.6</ele>
        <time>2023-04-25T11:54:31Z</time>
      </trkpt>
      <trkpt lat="49.18347" lon="-0.74379">
        <ele>88.6</ele>
        <time>2023-04-25T11:54:32Z</time>
      </trkpt>
      <trkpt lat="49.18349" lon="-0.74383">
        <ele>88.6</ele>
        <time>2023-04-25T11:54:33Z</time>
      </trkpt>
      <trkpt lat="49.18351" lon="-0.74388">
        <ele>88.6</ele>
        <time>2023-04-25T11:54:34Z</time>
      </trkpt>
      <trkpt lat="49.18353" lon="-0.74393">
        <ele>88.6</ele>
        <time>2023-04-25T11:54:35Z</time>
      </trkpt>
      <trkpt lat="49.18355" lon="-0.74398">
        <ele>88.8</ele>
        <time>2023-04-25T11:54:36Z</time>
      </trkpt>
      <trkpt lat="49.18357" lon="-0.74403">
        <ele>88.8</ele>
        <time>2023-04-25T11:54:37Z</time>
      </trkpt>
      <trkpt lat="49.18359" lon="-0.74409">
        <ele>89</ele>
        <time>2023-04-25T11:54:38Z</time>
      </trkpt>
      <trkpt lat="49.18361" lon="-0.74414">
        <ele>89</ele>
        <time>2023-04-25T11:54:39Z</time>
      </trkpt>
      <trkpt lat="49.18363" lon="-0.7442">
        <ele>89</ele>
        <time>2023-04-25T11:54:40Z</time>
      </trkpt>
      <trkpt lat="49.18365" lon="-0.74425">
        <ele>89.2</ele>
        <time>2023-04-25T11:54:41Z</time>
      </trkpt>
      <trkpt lat="49.18368" lon="-0.74431">
        <ele>89.4</ele>
        <time>2023-04-25T11:54:42Z</time>
      </trkpt>
      <trkpt lat="49.1837" lon="-0.74437">
        <ele>89.4</ele>
        <time>2023-04-25T11:54:43Z</time>
      </trkpt>
      <trkpt lat="49.18372" lon="-0.74442">
        <ele>89.6</ele>
        <time>2023-04-25T11:54:44Z</time>
      </trkpt>
      <trkpt lat="49.18375" lon="-0.74448">
        <ele>89.6</ele>
        <time>2023-04-25T11:54:45Z</time>
      </trkpt>
      <trkpt lat="49.18377" lon="-0.74454">
        <ele>90</ele>
        <time>2023-04-25T11:54:46Z</time>
      </trkpt>
      <trkpt lat="49.18379" lon="-0.74459">
        <ele>90</ele>
        <time>2023-04-25T11:54:47Z</time>
      </trkpt>
      <trkpt lat="49.18381" lon="-0.74465">
        <ele>90.4</ele>
        <time>2023-04-25T11:54:48Z</time>
      </trkpt>
      <trkpt lat="49.18384" lon="-0.74471">
        <ele>90.4</ele>
        <time>2023-04-25T11:54:49Z</time>
      </trkpt>
      <trkpt lat="49.18386" lon="-0.74477">
        <ele>90.6</ele>
        <time>2023-04-25T11:54:50Z</time>
      </trkpt>
      <trkpt lat="49.18388" lon="-0.74482">
        <ele>90.8</ele>
        <time>2023-04-25T11:54:51Z</time>
      </trkpt>
      <trkpt lat="49.18391" lon="-0.74488">
        <ele>91</ele>
        <time>2023-04-25T11:54:52Z</time>
      </trkpt>
      <trkpt lat="49.18393" lon="-0.74494">
        <ele>91.4</ele>
        <time>2023-04-25T11:54:53Z</time>
      </trkpt>
      <trkpt lat="49.18395" lon="-0.745">
        <ele>91.6</ele>
        <time>2023-04-25T11:54:54Z</time>
      </trkpt>
      <trkpt lat="49.18397" lon="-0.74506">
        <ele>91.6</ele>
        <time>2023-04-25T11:54:55Z</time>
      </trkpt>
      <trkpt lat="49.184" lon="-0.74512">
        <ele>91.6</ele>
        <time>2023-04-25T11:54:56Z</time>
      </trkpt>
      <trkpt lat="49.18402" lon="-0.74518">
        <ele>92</ele>
        <time>2023-04-25T11:54:57Z</time>
      </trkpt>
      <trkpt lat="49.18404" lon="-0.74524">
        <ele>92</ele>
        <time>2023-04-25T11:54:58Z</time>
      </trkpt>
      <trkpt lat="49.18407" lon="-0.7453">
        <ele>92</ele>
        <time>2023-04-25T11:54:59Z</time>
      </trkpt>
      <trkpt lat="49.18409" lon="-0.74535">
        <ele>92.2</ele>
        <time>2023-04-25T11:55:00Z</time>
      </trkpt>
      <trkpt lat="49.18412" lon="-0.74541">
        <ele>92.4</ele>
        <time>2023-04-25T11:55:01Z</time>
      </trkpt>
      <trkpt lat="49.18414" lon="-0.74547">
        <ele>92.6</ele>
        <time>2023-04-25T11:55:02Z</time>
      </trkpt>
      <trkpt lat="49.18416" lon="-0.74553">
        <ele>92.6</ele>
        <time>2023-04-25T11:55:03Z</time>
      </trkpt>
      <trkpt lat="49.18418" lon="-0.74559">
        <ele>92.6</ele>
        <time>2023-04-25T11:55:04Z</time>
      </trkpt>
      <trkpt lat="49.18421" lon="-0.74564">
        <ele>92.6</ele>
        <time>2023-04-25T11:55:05Z</time>
      </trkpt>
      <trkpt lat="49.18423" lon="-0.7457">
        <ele>92.6</ele>
        <time>2023-04-25T11:55:06Z</time>
      </trkpt>
      <trkpt lat="49.18426" lon="-0.74576">
        <ele>92.6</ele>
        <time>2023-04-25T11:55:07Z</time>
      </trkpt>
      <trkpt lat="49.18428" lon="-0.74582">
        <ele>92.6</ele>
        <time>2023-04-25T11:55:08Z</time>
      </trkpt>
      <trkpt lat="49.1843" lon="-0.74587">
        <ele>92.8</ele>
        <time>2023-04-25T11:55:09Z</time>
      </trkpt>
      <trkpt lat="49.18433" lon="-0.74593">
        <ele>93</ele>
        <time>2023-04-25T11:55:10Z</time>
      </trkpt>
      <trkpt lat="49.18435" lon="-0.74599">
        <ele>93</ele>
        <time>2023-04-25T11:55:11Z</time>
      </trkpt>
      <trkpt lat="49.18437" lon="-0.74605">
        <ele>93</ele>
        <time>2023-04-25T11:55:12Z</time>
      </trkpt>
      <trkpt lat="49.1844" lon="-0.7461">
        <ele>93</ele>
        <time>2023-04-25T11:55:13Z</time>
      </trkpt>
      <trkpt lat="49.18442" lon="-0.74616">
        <ele>93.2</ele>
        <time>2023-04-25T11:55:14Z</time>
      </trkpt>
      <trkpt lat="49.18444" lon="-0.74622">
        <ele>93.4</ele>
        <time>2023-04-25T11:55:15Z</time>
      </trkpt>
      <trkpt lat="49.18447" lon="-0.74628">
        <ele>93.4</ele>
        <time>2023-04-25T11:55:16Z</time>
      </trkpt>
      <trkpt lat="49.18449" lon="-0.74634">
        <ele>93.4</ele>
        <time>2023-04-25T11:55:17Z</time>
      </trkpt>
      <trkpt lat="49.18451" lon="-0.74639">
        <ele>93.6</ele>
        <time>2023-04-25T11:55:18Z</time>
      </trkpt>
      <trkpt lat="49.18453" lon="-0.74645">
        <ele>93.6</ele>
        <time>2023-04-25T11:55:19Z</time>
      </trkpt>
      <trkpt lat="49.18456" lon="-0.74651">
        <ele>93.6</ele>
        <time>2023-04-25T11:55:20Z</time>
      </trkpt>
      <trkpt lat="49.18458" lon="-0.74657">
        <ele>93.8</ele>
        <time>2023-04-25T11:55:21Z</time>
      </trkpt>
      <trkpt lat="49.1846" lon="-0.74663">
        <ele>94</ele>
        <time>2023-04-25T11:55:22Z</time>
      </trkpt>
      <trkpt lat="49.18463" lon="-0.74668">
        <ele>94</ele>
        <time>2023-04-25T11:55:23Z</time>
      </trkpt>
      <trkpt lat="49.18465" lon="-0.74674">
        <ele>94</ele>
        <time>2023-04-25T11:55:24Z</time>
      </trkpt>
      <trkpt lat="49.18467" lon="-0.7468">
        <ele>94</ele>
        <time>2023-04-25T11:55:25Z</time>
      </trkpt>
      <trkpt lat="49.1847" lon="-0.74685">
        <ele>94</ele>
        <time>2023-04-25T11:55:26Z</time>
      </trkpt>
      <trkpt lat="49.18472" lon="-0.74691">
        <ele>94</ele>
        <time>2023-04-25T11:55:27Z</time>
      </trkpt>
      <trkpt lat="49.18475" lon="-0.74697">
        <ele>94</ele>
        <time>2023-04-25T11:55:28Z</time>
      </trkpt>
      <trkpt lat="49.18477" lon="-0.74702">
        <ele>94</ele>
        <time>2023-04-25T11:55:29Z</time>
      </trkpt>
      <trkpt lat="49.18479" lon="-0.74708">
        <ele>94</ele>
        <time>2023-04-25T11:55:30Z</time>
      </trkpt>
      <trkpt lat="49.18482" lon="-0.74714">
        <ele>94</ele>
        <time>2023-04-25T11:55:31Z</time>
      </trkpt>
      <trkpt lat="49.18484" lon="-0.7472">
        <ele>94</ele>
        <time>2023-04-25T11:55:32Z</time>
      </trkpt>
      <trkpt lat="49.18487" lon="-0.74725">
        <ele>94</ele>
        <time>2023-04-25T11:55:33Z</time>
      </trkpt>
      <trkpt lat="49.18489" lon="-0.74731">
        <ele>94</ele>
        <time>2023-04-25T11:55:34Z</time>
      </trkpt>
      <trkpt lat="49.18491" lon="-0.74737">
        <ele>94</ele>
        <time>2023-04-25T11:55:35Z</time>
      </trkpt>
      <trkpt lat="49.18493" lon="-0.74743">
        <ele>94</ele>
        <time>2023-04-25T11:55:36Z</time>
      </trkpt>
      <trkpt lat="49.18496" lon="-0.74749">
        <ele>94</ele>
        <time>2023-04-25T11:55:37Z</time>
      </trkpt>
      <trkpt lat="49.18498" lon="-0.74756">
        <ele>94</ele>
        <time>2023-04-25T11:55:38Z</time>
      </trkpt>
      <trkpt lat="49.18499" lon="-0.74762">
        <ele>94</ele>
        <time>2023-04-25T11:55:39Z</time>
      </trkpt>
      <trkpt lat="49.18501" lon="-0.74768">
        <ele>94.2</ele>
        <time>2023-04-25T11:55:40Z</time>
      </trkpt>
      <trkpt lat="49.18502" lon="-0.74774">
        <ele>94.4</ele>
        <time>2023-04-25T11:55:41Z</time>
      </trkpt>
      <trkpt lat="49.18504" lon="-0.74781">
        <ele>94.4</ele>
        <time>2023-04-25T11:55:42Z</time>
      </trkpt>
      <trkpt lat="49.18505" lon="-0.74788">
        <ele>94.6</ele>
        <time>2023-04-25T11:55:43Z</time>
      </trkpt>
      <trkpt lat="49.18506" lon="-0.74794">
        <ele>94.6</ele>
        <time>2023-04-25T11:55:44Z</time>
      </trkpt>
      <trkpt lat="49.18507" lon="-0.74801">
        <ele>94.6</ele>
        <time>2023-04-25T11:55:45Z</time>
      </trkpt>
      <trkpt lat="49.18508" lon="-0.74808">
        <ele>94.8</ele>
        <time>2023-04-25T11:55:46Z</time>
      </trkpt>
      <trkpt lat="49.18508" lon="-0.74815">
        <ele>95</ele>
        <time>2023-04-25T11:55:47Z</time>
      </trkpt>
      <trkpt lat="49.18508" lon="-0.74822">
        <ele>95</ele>
        <time>2023-04-25T11:55:48Z</time>
      </trkpt>
      <trkpt lat="49.18509" lon="-0.74829">
        <ele>95</ele>
        <time>2023-04-25T11:55:49Z</time>
      </trkpt>
      <trkpt lat="49.18509" lon="-0.74836">
        <ele>95.2</ele>
        <time>2023-04-25T11:55:50Z</time>
      </trkpt>
      <trkpt lat="49.18508" lon="-0.74843">
        <ele>95.4</ele>
        <time>2023-04-25T11:55:51Z</time>
      </trkpt>
      <trkpt lat="49.18508" lon="-0.7485">
        <ele>95.6</ele>
        <time>2023-04-25T11:55:52Z</time>
      </trkpt>
      <trkpt lat="49.18507" lon="-0.74857">
        <ele>95.6</ele>
        <time>2023-04-25T11:55:53Z</time>
      </trkpt>
      <trkpt lat="49.18507" lon="-0.74864">
        <ele>95.8</ele>
        <time>2023-04-25T11:55:54Z</time>
      </trkpt>
      <trkpt lat="49.18506" lon="-0.74871">
        <ele>96</ele>
        <time>2023-04-25T11:55:55Z</time>
      </trkpt>
      <trkpt lat="49.18505" lon="-0.74878">
        <ele>96</ele>
        <time>2023-04-25T11:55:56Z</time>
      </trkpt>
      <trkpt lat="49.18504" lon="-0.74885">
        <ele>96.4</ele>
        <time>2023-04-25T11:55:57Z</time>
      </trkpt>
      <trkpt lat="49.18502" lon="-0.74892">
        <ele>96.4</ele>
        <time>2023-04-25T11:55:58Z</time>
      </trkpt>
      <trkpt lat="49.18501" lon="-0.74898">
        <ele>96.6</ele>
        <time>2023-04-25T11:55:59Z</time>
      </trkpt>
      <trkpt lat="49.185" lon="-0.74905">
        <ele>96.6</ele>
        <time>2023-04-25T11:56:00Z</time>
      </trkpt>
      <trkpt lat="49.18499" lon="-0.74912">
        <ele>97</ele>
        <time>2023-04-25T11:56:01Z</time>
      </trkpt>
      <trkpt lat="49.18497" lon="-0.74918">
        <ele>97</ele>
        <time>2023-04-25T11:56:02Z</time>
      </trkpt>
      <trkpt lat="49.18496" lon="-0.74925">
        <ele>97.4</ele>
        <time>2023-04-25T11:56:03Z</time>
      </trkpt>
      <trkpt lat="49.18495" lon="-0.74931">
        <ele>97.6</ele>
        <time>2023-04-25T11:56:04Z</time>
      </trkpt>
      <trkpt lat="49.18493" lon="-0.74938">
        <ele>97.8</ele>
        <time>2023-04-25T11:56:05Z</time>
      </trkpt>
      <trkpt lat="49.18492" lon="-0.74944">
        <ele>98</ele>
        <time>2023-04-25T11:56:06Z</time>
      </trkpt>
      <trkpt lat="49.18491" lon="-0.7495">
        <ele>98.2</ele>
        <time>2023-04-25T11:56:07Z</time>
      </trkpt>
      <trkpt lat="49.1849" lon="-0.74957">
        <ele>98.4</ele>
        <time>2023-04-25T11:56:08Z</time>
      </trkpt>
      <trkpt lat="49.18488" lon="-0.74963">
        <ele>98.6</ele>
        <time>2023-04-25T11:56:09Z</time>
      </trkpt>
      <trkpt lat="49.18487" lon="-0.74969">
        <ele>98.8</ele>
        <time>2023-04-25T11:56:10Z</time>
      </trkpt>
      <trkpt lat="49.18486" lon="-0.74976">
        <ele>99</ele>
        <time>2023-04-25T11:56:11Z</time>
      </trkpt>
      <trkpt lat="49.18485" lon="-0.74982">
        <ele>99</ele>
        <time>2023-04-25T11:56:12Z</time>
      </trkpt>
      <trkpt lat="49.18483" lon="-0.74988">
        <ele>99.4</ele>
        <time>2023-04-25T11:56:13Z</time>
      </trkpt>
      <trkpt lat="49.18482" lon="-0.74994">
        <ele>99.4</ele>
        <time>2023-04-25T11:56:14Z</time>
      </trkpt>
      <trkpt lat="49.18481" lon="-0.75001">
        <ele>99.6</ele>
        <time>2023-04-25T11:56:15Z</time>
      </trkpt>
      <trkpt lat="49.1848" lon="-0.75007">
        <ele>99.6</ele>
        <time>2023-04-25T11:56:16Z</time>
      </trkpt>
      <trkpt lat="49.18479" lon="-0.75014">
        <ele>99.6</ele>
        <time>2023-04-25T11:56:17Z</time>
      </trkpt>
      <trkpt lat="49.18477" lon="-0.7502">
        <ele>99.6</ele>
        <time>2023-04-25T11:56:18Z</time>
      </trkpt>
      <trkpt lat="49.18476" lon="-0.75027">
        <ele>99.8</ele>
        <time>2023-04-25T11:56:19Z</time>
      </trkpt>
      <trkpt lat="49.18475" lon="-0.75033">
        <ele>99.8</ele>
        <time>2023-04-25T11:56:20Z</time>
      </trkpt>
      <trkpt lat="49.18474" lon="-0.7504">
        <ele>100</ele>
        <time>2023-04-25T11:56:21Z</time>
      </trkpt>
      <trkpt lat="49.18473" lon="-0.75047">
        <ele>100</ele>
        <time>2023-04-25T11:56:22Z</time>
      </trkpt>
      <trkpt lat="49.18472" lon="-0.75054">
        <ele>100</ele>
        <time>2023-04-25T11:56:23Z</time>
      </trkpt>
      <trkpt lat="49.1847" lon="-0.7506">
        <ele>100</ele>
        <time>2023-04-25T11:56:24Z</time>
      </trkpt>
      <trkpt lat="49.18469" lon="-0.75067">
        <ele>100</ele>
        <time>2023-04-25T11:56:25Z</time>
      </trkpt>
      <trkpt lat="49.18468" lon="-0.75074">
        <ele>100</ele>
        <time>2023-04-25T11:56:26Z</time>
      </trkpt>
      <trkpt lat="49.18467" lon="-0.75081">
        <ele>100.2</ele>
        <time>2023-04-25T11:56:27Z</time>
      </trkpt>
      <trkpt lat="49.18466" lon="-0.75087">
        <ele>100.2</ele>
        <time>2023-04-25T11:56:28Z</time>
      </trkpt>
      <trkpt lat="49.18464" lon="-0.75094">
        <ele>100.4</ele>
        <time>2023-04-25T11:56:29Z</time>
      </trkpt>
      <trkpt lat="49.18463" lon="-0.75101">
        <ele>100.4</ele>
        <time>2023-04-25T11:56:30Z</time>
      </trkpt>
      <trkpt lat="49.18462" lon="-0.75108">
        <ele>100.4</ele>
        <time>2023-04-25T11:56:31Z</time>
      </trkpt>
      <trkpt lat="49.1846" lon="-0.75114">
        <ele>100.4</ele>
        <time>2023-04-25T11:56:32Z</time>
      </trkpt>
      <trkpt lat="49.18459" lon="-0.75121">
        <ele>100.6</ele>
        <time>2023-04-25T11:56:33Z</time>
      </trkpt>
      <trkpt lat="49.18458" lon="-0.75128">
        <ele>100.6</ele>
        <time>2023-04-25T11:56:34Z</time>
      </trkpt>
      <trkpt lat="49.18457" lon="-0.75134">
        <ele>100.6</ele>
        <time>2023-04-25T11:56:35Z</time>
      </trkpt>
      <trkpt lat="49.18456" lon="-0.75141">
        <ele>100.6</ele>
        <time>2023-04-25T11:56:36Z</time>
      </trkpt>
      <trkpt lat="49.18454" lon="-0.75148">
        <ele>100.8</ele>
        <time>2023-04-25T11:56:37Z</time>
      </trkpt>
      <trkpt lat="49.18453" lon="-0.75155">
        <ele>100.8</ele>
        <time>2023-04-25T11:56:38Z</time>
      </trkpt>
      <trkpt lat="49.18452" lon="-0.75161">
        <ele>101</ele>
        <time>2023-04-25T11:56:39Z</time>
      </trkpt>
      <trkpt lat="49.1845" lon="-0.75168">
        <ele>101</ele>
        <time>2023-04-25T11:56:40Z</time>
      </trkpt>
      <trkpt lat="49.18449" lon="-0.75175">
        <ele>101.4</ele>
        <time>2023-04-25T11:56:41Z</time>
      </trkpt>
      <trkpt lat="49.18448" lon="-0.75181">
        <ele>101.6</ele>
        <time>2023-04-25T11:56:42Z</time>
      </trkpt>
      <trkpt lat="49.18447" lon="-0.75188">
        <ele>101.8</ele>
        <time>2023-04-25T11:56:43Z</time>
      </trkpt>
      <trkpt lat="49.18445" lon="-0.75195">
        <ele>102</ele>
        <time>2023-04-25T11:56:44Z</time>
      </trkpt>
      <trkpt lat="49.18444" lon="-0.75201">
        <ele>102.4</ele>
        <time>2023-04-25T11:56:45Z</time>
      </trkpt>
      <trkpt lat="49.18443" lon="-0.75208">
        <ele>102.6</ele>
        <time>2023-04-25T11:56:46Z</time>
      </trkpt>
      <trkpt lat="49.18442" lon="-0.75214">
        <ele>102.6</ele>
        <time>2023-04-25T11:56:47Z</time>
      </trkpt>
      <trkpt lat="49.1844" lon="-0.75221">
        <ele>103</ele>
        <time>2023-04-25T11:56:48Z</time>
      </trkpt>
      <trkpt lat="49.18439" lon="-0.75228">
        <ele>103.2</ele>
        <time>2023-04-25T11:56:49Z</time>
      </trkpt>
      <trkpt lat="49.18438" lon="-0.75234">
        <ele>103.4</ele>
        <time>2023-04-25T11:56:50Z</time>
      </trkpt>
      <trkpt lat="49.18437" lon="-0.75241">
        <ele>103.6</ele>
        <time>2023-04-25T11:56:51Z</time>
      </trkpt>
      <trkpt lat="49.18436" lon="-0.75247">
        <ele>104</ele>
        <time>2023-04-25T11:56:52Z</time>
      </trkpt>
      <trkpt lat="49.18434" lon="-0.75253">
        <ele>104</ele>
        <time>2023-04-25T11:56:53Z</time>
      </trkpt>
      <trkpt lat="49.18433" lon="-0.7526">
        <ele>104.2</ele>
        <time>2023-04-25T11:56:54Z</time>
      </trkpt>
      <trkpt lat="49.18432" lon="-0.75266">
        <ele>104.4</ele>
        <time>2023-04-25T11:56:55Z</time>
      </trkpt>
      <trkpt lat="49.18431" lon="-0.75273">
        <ele>104.6</ele>
        <time>2023-04-25T11:56:56Z</time>
      </trkpt>
      <trkpt lat="49.1843" lon="-0.75279">
        <ele>104.6</ele>
        <time>2023-04-25T11:56:57Z</time>
      </trkpt>
      <trkpt lat="49.18429" lon="-0.75286">
        <ele>105</ele>
        <time>2023-04-25T11:56:58Z</time>
      </trkpt>
      <trkpt lat="49.18427" lon="-0.75292">
        <ele>105</ele>
        <time>2023-04-25T11:56:59Z</time>
      </trkpt>
      <trkpt lat="49.18426" lon="-0.75299">
        <ele>105.2</ele>
        <time>2023-04-25T11:57:00Z</time>
      </trkpt>
      <trkpt lat="49.18425" lon="-0.75305">
        <ele>105.4</ele>
        <time>2023-04-25T11:57:01Z</time>
      </trkpt>
      <trkpt lat="49.18424" lon="-0.75312">
        <ele>105.6</ele>
        <time>2023-04-25T11:57:02Z</time>
      </trkpt>
      <trkpt lat="49.18423" lon="-0.75318">
        <ele>105.6</ele>
        <time>2023-04-25T11:57:03Z</time>
      </trkpt>
      <trkpt lat="49.18421" lon="-0.75325">
        <ele>105.8</ele>
        <time>2023-04-25T11:57:04Z</time>
      </trkpt>
      <trkpt lat="49.1842" lon="-0.75331">
        <ele>106</ele>
        <time>2023-04-25T11:57:05Z</time>
      </trkpt>
      <trkpt lat="49.18419" lon="-0.75337">
        <ele>106</ele>
        <time>2023-04-25T11:57:06Z</time>
      </trkpt>
      <trkpt lat="49.18418" lon="-0.75344">
        <ele>106.4</ele>
        <time>2023-04-25T11:57:07Z</time>
      </trkpt>
      <trkpt lat="49.18417" lon="-0.7535">
        <ele>106.4</ele>
        <time>2023-04-25T11:57:08Z</time>
      </trkpt>
      <trkpt lat="49.18415" lon="-0.75357">
        <ele>106.6</ele>
        <time>2023-04-25T11:57:09Z</time>
      </trkpt>
      <trkpt lat="49.18414" lon="-0.75363">
        <ele>106.6</ele>
        <time>2023-04-25T11:57:10Z</time>
      </trkpt>
      <trkpt lat="49.18413" lon="-0.75369">
        <ele>106.6</ele>
        <time>2023-04-25T11:57:11Z</time>
      </trkpt>
      <trkpt lat="49.18411" lon="-0.75375">
        <ele>107</ele>
        <time>2023-04-25T11:57:12Z</time>
      </trkpt>
      <trkpt lat="49.1841" lon="-0.75382">
        <ele>107</ele>
        <time>2023-04-25T11:57:13Z</time>
      </trkpt>
      <trkpt lat="49.18409" lon="-0.75388">
        <ele>107</ele>
        <time>2023-04-25T11:57:14Z</time>
      </trkpt>
      <trkpt lat="49.18408" lon="-0.75394">
        <ele>107.2</ele>
        <time>2023-04-25T11:57:15Z</time>
      </trkpt>
      <trkpt lat="49.18407" lon="-0.754">
        <ele>107.4</ele>
        <time>2023-04-25T11:57:16Z</time>
      </trkpt>
      <trkpt lat="49.18406" lon="-0.75406">
        <ele>107.6</ele>
        <time>2023-04-25T11:57:17Z</time>
      </trkpt>
      <trkpt lat="49.18404" lon="-0.75412">
        <ele>107.6</ele>
        <time>2023-04-25T11:57:18Z</time>
      </trkpt>
      <trkpt lat="49.18403" lon="-0.75418">
        <ele>107.6</ele>
        <time>2023-04-25T11:57:19Z</time>
      </trkpt>
      <trkpt lat="49.18402" lon="-0.75424">
        <ele>108</ele>
        <time>2023-04-25T11:57:20Z</time>
      </trkpt>
      <trkpt lat="49.18401" lon="-0.7543">
        <ele>108</ele>
        <time>2023-04-25T11:57:21Z</time>
      </trkpt>
      <trkpt lat="49.184" lon="-0.75437">
        <ele>108.4</ele>
        <time>2023-04-25T11:57:22Z</time>
      </trkpt>
      <trkpt lat="49.18399" lon="-0.75443">
        <ele>108.6</ele>
        <time>2023-04-25T11:57:23Z</time>
      </trkpt>
      <trkpt lat="49.18398" lon="-0.75449">
        <ele>108.6</ele>
        <time>2023-04-25T11:57:24Z</time>
      </trkpt>
      <trkpt lat="49.18397" lon="-0.75455">
        <ele>109</ele>
        <time>2023-04-25T11:57:25Z</time>
      </trkpt>
      <trkpt lat="49.18396" lon="-0.75461">
        <ele>109</ele>
        <time>2023-04-25T11:57:26Z</time>
      </trkpt>
      <trkpt lat="49.18394" lon="-0.75467">
        <ele>109.4</ele>
        <time>2023-04-25T11:57:27Z</time>
      </trkpt>
      <trkpt lat="49.18393" lon="-0.75473">
        <ele>109.6</ele>
        <time>2023-04-25T11:57:28Z</time>
      </trkpt>
      <trkpt lat="49.18392" lon="-0.75479">
        <ele>109.6</ele>
        <time>2023-04-25T11:57:29Z</time>
      </trkpt>
      <trkpt lat="49.18391" lon="-0.75485">
        <ele>109.8</ele>
        <time>2023-04-25T11:57:30Z</time>
      </trkpt>
      <trkpt lat="49.1839" lon="-0.75491">
        <ele>110</ele>
        <time>2023-04-25T11:57:31Z</time>
      </trkpt>
      <trkpt lat="49.18388" lon="-0.75497">
        <ele>110.2</ele>
        <time>2023-04-25T11:57:32Z</time>
      </trkpt>
      <trkpt lat="49.18387" lon="-0.75503">
        <ele>110.4</ele>
        <time>2023-04-25T11:57:33Z</time>
      </trkpt>
      <trkpt lat="49.18386" lon="-0.75509">
        <ele>110.6</ele>
        <time>2023-04-25T11:57:34Z</time>
      </trkpt>
      <trkpt lat="49.18385" lon="-0.75515">
        <ele>110.8</ele>
        <time>2023-04-25T11:57:35Z</time>
      </trkpt>
      <trkpt lat="49.18384" lon="-0.75521">
        <ele>111</ele>
        <time>2023-04-25T11:57:36Z</time>
      </trkpt>
      <trkpt lat="49.18383" lon="-0.75527">
        <ele>111.2</ele>
        <time>2023-04-25T11:57:37Z</time>
      </trkpt>
      <trkpt lat="49.18381" lon="-0.75533">
        <ele>111.4</ele>
        <time>2023-04-25T11:57:38Z</time>
      </trkpt>
      <trkpt lat="49.1838" lon="-0.75539">
        <ele>111.6</ele>
        <time>2023-04-25T11:57:39Z</time>
      </trkpt>
      <trkpt lat="49.18379" lon="-0.75545">
        <ele>111.6</ele>
        <time>2023-04-25T11:57:40Z</time>
      </trkpt>
      <trkpt lat="49.18378" lon="-0.75551">
        <ele>112</ele>
        <time>2023-04-25T11:57:41Z</time>
      </trkpt>
      <trkpt lat="49.18377" lon="-0.75557">
        <ele>112</ele>
        <time>2023-04-25T11:57:42Z</time>
      </trkpt>
      <trkpt lat="49.18376" lon="-0.75563">
        <ele>112.4</ele>
        <time>2023-04-25T11:57:43Z</time>
      </trkpt>
      <trkpt lat="49.18374" lon="-0.75569">
        <ele>112.6</ele>
        <time>2023-04-25T11:57:44Z</time>
      </trkpt>
      <trkpt lat="49.18373" lon="-0.75575">
        <ele>112.6</ele>
        <time>2023-04-25T11:57:45Z</time>
      </trkpt>
      <trkpt lat="49.18372" lon="-0.75581">
        <ele>112.8</ele>
        <time>2023-04-25T11:57:46Z</time>
      </trkpt>
      <trkpt lat="49.18371" lon="-0.75587">
        <ele>113</ele>
        <time>2023-04-25T11:57:47Z</time>
      </trkpt>
      <trkpt lat="49.1837" lon="-0.75593">
        <ele>113.2</ele>
        <time>2023-04-25T11:57:48Z</time>
      </trkpt>
      <trkpt lat="49.18369" lon="-0.75599">
        <ele>113.4</ele>
        <time>2023-04-25T11:57:49Z</time>
      </trkpt>
      <trkpt lat="49.18367" lon="-0.75605">
        <ele>113.4</ele>
        <time>2023-04-25T11:57:50Z</time>
      </trkpt>
      <trkpt lat="49.18366" lon="-0.75611">
        <ele>113.6</ele>
        <time>2023-04-25T11:57:51Z</time>
      </trkpt>
      <trkpt lat="49.18365" lon="-0.75617">
        <ele>113.6</ele>
        <time>2023-04-25T11:57:52Z</time>
      </trkpt>
      <trkpt lat="49.18364" lon="-0.75623">
        <ele>113.8</ele>
        <time>2023-04-25T11:57:53Z</time>
      </trkpt>
      <trkpt lat="49.18363" lon="-0.75628">
        <ele>114</ele>
        <time>2023-04-25T11:57:54Z</time>
      </trkpt>
      <trkpt lat="49.18362" lon="-0.75634">
        <ele>114</ele>
        <time>2023-04-25T11:57:55Z</time>
      </trkpt>
      <trkpt lat="49.18361" lon="-0.7564">
        <ele>114.2</ele>
        <time>2023-04-25T11:57:56Z</time>
      </trkpt>
      <trkpt lat="49.1836" lon="-0.75645">
        <ele>114.4</ele>
        <time>2023-04-25T11:57:57Z</time>
      </trkpt>
      <trkpt lat="49.18358" lon="-0.75651">
        <ele>114.6</ele>
        <time>2023-04-25T11:57:58Z</time>
      </trkpt>
      <trkpt lat="49.18358" lon="-0.75657">
        <ele>114.6</ele>
        <time>2023-04-25T11:57:59Z</time>
      </trkpt>
      <trkpt lat="49.18356" lon="-0.75662">
        <ele>114.6</ele>
        <time>2023-04-25T11:58:00Z</time>
      </trkpt>
      <trkpt lat="49.18355" lon="-0.75668">
        <ele>114.8</ele>
        <time>2023-04-25T11:58:01Z</time>
      </trkpt>
      <trkpt lat="49.18354" lon="-0.75674">
        <ele>115</ele>
        <time>2023-04-25T11:58:02Z</time>
      </trkpt>
      <trkpt lat="49.18353" lon="-0.75679">
        <ele>115.4</ele>
        <time>2023-04-25T11:58:03Z</time>
      </trkpt>
      <trkpt lat="49.18352" lon="-0.75685">
        <ele>115.6</ele>
        <time>2023-04-25T11:58:04Z</time>
      </trkpt>
      <trkpt lat="49.18351" lon="-0.75691">
        <ele>115.6</ele>
        <time>2023-04-25T11:58:05Z</time>
      </trkpt>
      <trkpt lat="49.1835" lon="-0.75696">
        <ele>116</ele>
        <time>2023-04-25T11:58:06Z</time>
      </trkpt>
      <trkpt lat="49.18349" lon="-0.75702">
        <ele>116.2</ele>
        <time>2023-04-25T11:58:07Z</time>
      </trkpt>
      <trkpt lat="49.18348" lon="-0.75708">
        <ele>116.4</ele>
        <time>2023-04-25T11:58:08Z</time>
      </trkpt>
      <trkpt lat="49.18347" lon="-0.75714">
        <ele>116.6</ele>
        <time>2023-04-25T11:58:09Z</time>
      </trkpt>
      <trkpt lat="49.18345" lon="-0.7572">
        <ele>117</ele>
        <time>2023-04-25T11:58:10Z</time>
      </trkpt>
      <trkpt lat="49.18345" lon="-0.75725">
        <ele>117</ele>
        <time>2023-04-25T11:58:11Z</time>
      </trkpt>
      <trkpt lat="49.18343" lon="-0.75731">
        <ele>117.4</ele>
        <time>2023-04-25T11:58:12Z</time>
      </trkpt>
      <trkpt lat="49.18342" lon="-0.75737">
        <ele>117.6</ele>
        <time>2023-04-25T11:58:13Z</time>
      </trkpt>
      <trkpt lat="49.18341" lon="-0.75743">
        <ele>118</ele>
        <time>2023-04-25T11:58:14Z</time>
      </trkpt>
      <trkpt lat="49.1834" lon="-0.75749">
        <ele>118</ele>
        <time>2023-04-25T11:58:15Z</time>
      </trkpt>
      <trkpt lat="49.18339" lon="-0.75754">
        <ele>118.2</ele>
        <time>2023-04-25T11:58:16Z</time>
      </trkpt>
      <trkpt lat="49.18338" lon="-0.7576">
        <ele>118.2</ele>
        <time>2023-04-25T11:58:17Z</time>
      </trkpt>
      <trkpt lat="49.18337" lon="-0.75766">
        <ele>118.4</ele>
        <time>2023-04-25T11:58:18Z</time>
      </trkpt>
      <trkpt lat="49.18336" lon="-0.75772">
        <ele>118.4</ele>
        <time>2023-04-25T11:58:19Z</time>
      </trkpt>
      <trkpt lat="49.18335" lon="-0.75777">
        <ele>118.4</ele>
        <time>2023-04-25T11:58:20Z</time>
      </trkpt>
      <trkpt lat="49.18334" lon="-0.75783">
        <ele>118.4</ele>
        <time>2023-04-25T11:58:21Z</time>
      </trkpt>
      <trkpt lat="49.18332" lon="-0.75789">
        <ele>118.4</ele>
        <time>2023-04-25T11:58:22Z</time>
      </trkpt>
      <trkpt lat="49.18331" lon="-0.75795">
        <ele>118.6</ele>
        <time>2023-04-25T11:58:23Z</time>
      </trkpt>
      <trkpt lat="49.1833" lon="-0.75801">
        <ele>118.6</ele>
        <time>2023-04-25T11:58:24Z</time>
      </trkpt>
      <trkpt lat="49.18329" lon="-0.75806">
        <ele>118.6</ele>
        <time>2023-04-25T11:58:25Z</time>
      </trkpt>
      <trkpt lat="49.18328" lon="-0.75812">
        <ele>118.6</ele>
        <time>2023-04-25T11:58:26Z</time>
      </trkpt>
      <trkpt lat="49.18327" lon="-0.75818">
        <ele>118.6</ele>
        <time>2023-04-25T11:58:27Z</time>
      </trkpt>
      <trkpt lat="49.18326" lon="-0.75824">
        <ele>118.6</ele>
        <time>2023-04-25T11:58:28Z</time>
      </trkpt>
      <trkpt lat="49.18325" lon="-0.7583">
        <ele>118.6</ele>
        <time>2023-04-25T11:58:29Z</time>
      </trkpt>
      <trkpt lat="49.18323" lon="-0.75835">
        <ele>118.8</ele>
        <time>2023-04-25T11:58:30Z</time>
      </trkpt>
      <trkpt lat="49.18322" lon="-0.75841">
        <ele>118.8</ele>
        <time>2023-04-25T11:58:31Z</time>
      </trkpt>
      <trkpt lat="49.18321" lon="-0.75847">
        <ele>119</ele>
        <time>2023-04-25T11:58:32Z</time>
      </trkpt>
      <trkpt lat="49.1832" lon="-0.75853">
        <ele>119</ele>
        <time>2023-04-25T11:58:33Z</time>
      </trkpt>
      <trkpt lat="49.18319" lon="-0.75859">
        <ele>119</ele>
        <time>2023-04-25T11:58:34Z</time>
      </trkpt>
      <trkpt lat="49.18318" lon="-0.75865">
        <ele>119</ele>
        <time>2023-04-25T11:58:35Z</time>
      </trkpt>
      <trkpt lat="49.18317" lon="-0.75871">
        <ele>119</ele>
        <time>2023-04-25T11:58:36Z</time>
      </trkpt>
      <trkpt lat="49.18315" lon="-0.75876">
        <ele>119.2</ele>
        <time>2023-04-25T11:58:37Z</time>
      </trkpt>
      <trkpt lat="49.18314" lon="-0.75882">
        <ele>119.4</ele>
        <time>2023-04-25T11:58:38Z</time>
      </trkpt>
      <trkpt lat="49.18313" lon="-0.75888">
        <ele>119.4</ele>
        <time>2023-04-25T11:58:39Z</time>
      </trkpt>
      <trkpt lat="49.18312" lon="-0.75894">
        <ele>119.4</ele>
        <time>2023-04-25T11:58:40Z</time>
      </trkpt>
      <trkpt lat="49.18311" lon="-0.759">
        <ele>119.6</ele>
        <time>2023-04-25T11:58:41Z</time>
      </trkpt>
      <trkpt lat="49.18309" lon="-0.75906">
        <ele>119.6</ele>
        <time>2023-04-25T11:58:42Z</time>
      </trkpt>
      <trkpt lat="49.18308" lon="-0.75912">
        <ele>119.6</ele>
        <time>2023-04-25T11:58:43Z</time>
      </trkpt>
      <trkpt lat="49.18307" lon="-0.75918">
        <ele>119.6</ele>
        <time>2023-04-25T11:58:44Z</time>
      </trkpt>
      <trkpt lat="49.18306" lon="-0.75924">
        <ele>119.8</ele>
        <time>2023-04-25T11:58:45Z</time>
      </trkpt>
      <trkpt lat="49.18305" lon="-0.75931">
        <ele>120</ele>
        <time>2023-04-25T11:58:46Z</time>
      </trkpt>
      <trkpt lat="49.18303" lon="-0.75937">
        <ele>120</ele>
        <time>2023-04-25T11:58:47Z</time>
      </trkpt>
      <trkpt lat="49.18302" lon="-0.75943">
        <ele>120</ele>
        <time>2023-04-25T11:58:48Z</time>
      </trkpt>
      <trkpt lat="49.18301" lon="-0.75949">
        <ele>120.2</ele>
        <time>2023-04-25T11:58:49Z</time>
      </trkpt>
      <trkpt lat="49.183" lon="-0.75955">
        <ele>120.2</ele>
        <time>2023-04-25T11:58:50Z</time>
      </trkpt>
      <trkpt lat="49.18299" lon="-0.75962">
        <ele>120.4</ele>
        <time>2023-04-25T11:58:51Z</time>
      </trkpt>
      <trkpt lat="49.18298" lon="-0.75968">
        <ele>120.4</ele>
        <time>2023-04-25T11:58:52Z</time>
      </trkpt>
      <trkpt lat="49.18296" lon="-0.75974">
        <ele>120.6</ele>
        <time>2023-04-25T11:58:53Z</time>
      </trkpt>
      <trkpt lat="49.18295" lon="-0.7598">
        <ele>120.6</ele>
        <time>2023-04-25T11:58:54Z</time>
      </trkpt>
      <trkpt lat="49.18294" lon="-0.75986">
        <ele>120.8</ele>
        <time>2023-04-25T11:58:55Z</time>
      </trkpt>
      <trkpt lat="49.18293" lon="-0.75992">
        <ele>121</ele>
        <time>2023-04-25T11:58:56Z</time>
      </trkpt>
      <trkpt lat="49.18292" lon="-0.75998">
        <ele>121</ele>
        <time>2023-04-25T11:58:57Z</time>
      </trkpt>
      <trkpt lat="49.1829" lon="-0.76005">
        <ele>121</ele>
        <time>2023-04-25T11:58:58Z</time>
      </trkpt>
      <trkpt lat="49.18289" lon="-0.76011">
        <ele>121.2</ele>
        <time>2023-04-25T11:58:59Z</time>
      </trkpt>
      <trkpt lat="49.18288" lon="-0.76017">
        <ele>121.4</ele>
        <time>2023-04-25T11:59:00Z</time>
      </trkpt>
      <trkpt lat="49.18287" lon="-0.76023">
        <ele>121.4</ele>
        <time>2023-04-25T11:59:01Z</time>
      </trkpt>
      <trkpt lat="49.18286" lon="-0.76029">
        <ele>121.6</ele>
        <time>2023-04-25T11:59:02Z</time>
      </trkpt>
      <trkpt lat="49.18285" lon="-0.76035">
        <ele>121.6</ele>
        <time>2023-04-25T11:59:03Z</time>
      </trkpt>
      <trkpt lat="49.18283" lon="-0.76041">
        <ele>121.6</ele>
        <time>2023-04-25T11:59:04Z</time>
      </trkpt>
      <trkpt lat="49.18282" lon="-0.76048">
        <ele>121.8</ele>
        <time>2023-04-25T11:59:05Z</time>
      </trkpt>
      <trkpt lat="49.18281" lon="-0.76054">
        <ele>122</ele>
        <time>2023-04-25T11:59:06Z</time>
      </trkpt>
      <trkpt lat="49.1828" lon="-0.7606">
        <ele>122</ele>
        <time>2023-04-25T11:59:07Z</time>
      </trkpt>
      <trkpt lat="49.18279" lon="-0.76066">
        <ele>122</ele>
        <time>2023-04-25T11:59:08Z</time>
      </trkpt>
      <trkpt lat="49.18278" lon="-0.76073">
        <ele>122.2</ele>
        <time>2023-04-25T11:59:09Z</time>
      </trkpt>
      <trkpt lat="49.18276" lon="-0.76079">
        <ele>122.2</ele>
        <time>2023-04-25T11:59:10Z</time>
      </trkpt>
      <trkpt lat="49.18275" lon="-0.76085">
        <ele>122.4</ele>
        <time>2023-04-25T11:59:11Z</time>
      </trkpt>
      <trkpt lat="49.18274" lon="-0.76092">
        <ele>122.4</ele>
        <time>2023-04-25T11:59:12Z</time>
      </trkpt>
      <trkpt lat="49.18273" lon="-0.76098">
        <ele>122.4</ele>
        <time>2023-04-25T11:59:13Z</time>
      </trkpt>
      <trkpt lat="49.18272" lon="-0.76105">
        <ele>122.6</ele>
        <time>2023-04-25T11:59:14Z</time>
      </trkpt>
      <trkpt lat="49.18271" lon="-0.76112">
        <ele>122.6</ele>
        <time>2023-04-25T11:59:15Z</time>
      </trkpt>
      <trkpt lat="49.18269" lon="-0.76119">
        <ele>122.6</ele>
        <time>2023-04-25T11:59:16Z</time>
      </trkpt>
      <trkpt lat="49.18268" lon="-0.76126">
        <ele>122.6</ele>
        <time>2023-04-25T11:59:17Z</time>
      </trkpt>
      <trkpt lat="49.18267" lon="-0.76133">
        <ele>122.6</ele>
        <time>2023-04-25T11:59:18Z</time>
      </trkpt>
      <trkpt lat="49.18265" lon="-0.76141">
        <ele>122.6</ele>
        <time>2023-04-25T11:59:19Z</time>
      </trkpt>
      <trkpt lat="49.18264" lon="-0.76149">
        <ele>122.8</ele>
        <time>2023-04-25T11:59:20Z</time>
      </trkpt>
      <trkpt lat="49.18262" lon="-0.76157">
        <ele>123</ele>
        <time>2023-04-25T11:59:21Z</time>
      </trkpt>
      <trkpt lat="49.18261" lon="-0.76165">
        <ele>123</ele>
        <time>2023-04-25T11:59:22Z</time>
      </trkpt>
      <trkpt lat="49.18259" lon="-0.76173">
        <ele>123</ele>
        <time>2023-04-25T11:59:23Z</time>
      </trkpt>
      <trkpt lat="49.18258" lon="-0.76182">
        <ele>123</ele>
        <time>2023-04-25T11:59:24Z</time>
      </trkpt>
      <trkpt lat="49.18256" lon="-0.76191">
        <ele>123</ele>
        <time>2023-04-25T11:59:25Z</time>
      </trkpt>
      <trkpt lat="49.18254" lon="-0.762">
        <ele>123</ele>
        <time>2023-04-25T11:59:26Z</time>
      </trkpt>
      <trkpt lat="49.18253" lon="-0.76209">
        <ele>123</ele>
        <time>2023-04-25T11:59:27Z</time>
      </trkpt>
      <trkpt lat="49.18251" lon="-0.76218">
        <ele>123</ele>
        <time>2023-04-25T11:59:28Z</time>
      </trkpt>
      <trkpt lat="49.18249" lon="-0.76227">
        <ele>123</ele>
        <time>2023-04-25T11:59:29Z</time>
      </trkpt>
      <trkpt lat="49.18247" lon="-0.76237">
        <ele>123</ele>
        <time>2023-04-25T11:59:30Z</time>
      </trkpt>
      <trkpt lat="49.18245" lon="-0.76246">
        <ele>123</ele>
        <time>2023-04-25T11:59:31Z</time>
      </trkpt>
      <trkpt lat="49.18244" lon="-0.76256">
        <ele>122.6</ele>
        <time>2023-04-25T11:59:32Z</time>
      </trkpt>
      <trkpt lat="49.18242" lon="-0.76265">
        <ele>122.4</ele>
        <time>2023-04-25T11:59:33Z</time>
      </trkpt>
      <trkpt lat="49.1824" lon="-0.76275">
        <ele>122.2</ele>
        <time>2023-04-25T11:59:34Z</time>
      </trkpt>
      <trkpt lat="49.18238" lon="-0.76285">
        <ele>122</ele>
        <time>2023-04-25T11:59:35Z</time>
      </trkpt>
      <trkpt lat="49.18236" lon="-0.76295">
        <ele>121.6</ele>
        <time>2023-04-25T11:59:36Z</time>
      </trkpt>
      <trkpt lat="49.18234" lon="-0.76305">
        <ele>121.4</ele>
        <time>2023-04-25T11:59:37Z</time>
      </trkpt>
      <trkpt lat="49.18232" lon="-0.76315">
        <ele>121.2</ele>
        <time>2023-04-25T11:59:38Z</time>
      </trkpt>
      <trkpt lat="49.1823" lon="-0.76325">
        <ele>121</ele>
        <time>2023-04-25T11:59:39Z</time>
      </trkpt>
      <trkpt lat="49.18228" lon="-0.76335">
        <ele>120.6</ele>
        <time>2023-04-25T11:59:40Z</time>
      </trkpt>
      <trkpt lat="49.18227" lon="-0.76346">
        <ele>120.6</ele>
        <time>2023-04-25T11:59:41Z</time>
      </trkpt>
      <trkpt lat="49.18224" lon="-0.76356">
        <ele>120.6</ele>
        <time>2023-04-25T11:59:42Z</time>
      </trkpt>
      <trkpt lat="49.18223" lon="-0.76366">
        <ele>120.6</ele>
        <time>2023-04-25T11:59:43Z</time>
      </trkpt>
      <trkpt lat="49.18221" lon="-0.76376">
        <ele>120.6</ele>
        <time>2023-04-25T11:59:44Z</time>
      </trkpt>
      <trkpt lat="49.18219" lon="-0.76387">
        <ele>120.4</ele>
        <time>2023-04-25T11:59:45Z</time>
      </trkpt>
      <trkpt lat="49.18217" lon="-0.76398">
        <ele>120.4</ele>
        <time>2023-04-25T11:59:46Z</time>
      </trkpt>
      <trkpt lat="49.18214" lon="-0.76408">
        <ele>120.2</ele>
        <time>2023-04-25T11:59:47Z</time>
      </trkpt>
      <trkpt lat="49.18212" lon="-0.76419">
        <ele>120</ele>
        <time>2023-04-25T11:59:48Z</time>
      </trkpt>
      <trkpt lat="49.1821" lon="-0.7643">
        <ele>120</ele>
        <time>2023-04-25T11:59:49Z</time>
      </trkpt>
      <trkpt lat="49.18208" lon="-0.76441">
        <ele>120</ele>
        <time>2023-04-25T11:59:50Z</time>
      </trkpt>
      <trkpt lat="49.18206" lon="-0.76452">
        <ele>120</ele>
        <time>2023-04-25T11:59:51Z</time>
      </trkpt>
      <trkpt lat="49.18204" lon="-0.76463">
        <ele>120</ele>
        <time>2023-04-25T11:59:52Z</time>
      </trkpt>
      <trkpt lat="49.18202" lon="-0.76474">
        <ele>119.8</ele>
        <time>2023-04-25T11:59:53Z</time>
      </trkpt>
      <trkpt lat="49.182" lon="-0.76485">
        <ele>119.8</ele>
        <time>2023-04-25T11:59:54Z</time>
      </trkpt>
      <trkpt lat="49.18197" lon="-0.76496">
        <ele>119.6</ele>
        <time>2023-04-25T11:59:55Z</time>
      </trkpt>
      <trkpt lat="49.18195" lon="-0.76507">
        <ele>119.6</ele>
        <time>2023-04-25T11:59:56Z</time>
      </trkpt>
      <trkpt lat="49.18193" lon="-0.76518">
        <ele>119.4</ele>
        <time>2023-04-25T11:59:57Z</time>
      </trkpt>
      <trkpt lat="49.18191" lon="-0.7653">
        <ele>119.2</ele>
        <time>2023-04-25T11:59:58Z</time>
      </trkpt>
      <trkpt lat="49.18189" lon="-0.76541">
        <ele>119</ele>
        <time>2023-04-25T11:59:59Z</time>
      </trkpt>
      <trkpt lat="49.18187" lon="-0.76552">
        <ele>119</ele>
        <time>2023-04-25T12:00:00Z</time>
      </trkpt>
      <trkpt lat="49.18185" lon="-0.76563">
        <ele>118.6</ele>
        <time>2023-04-25T12:00:01Z</time>
      </trkpt>
      <trkpt lat="49.18182" lon="-0.76575">
        <ele>118.6</ele>
        <time>2023-04-25T12:00:02Z</time>
      </trkpt>
      <trkpt lat="49.1818" lon="-0.76586">
        <ele>118.4</ele>
        <time>2023-04-25T12:00:03Z</time>
      </trkpt>
      <trkpt lat="49.18178" lon="-0.76597">
        <ele>118.4</ele>
        <time>2023-04-25T12:00:04Z</time>
      </trkpt>
      <trkpt lat="49.18176" lon="-0.76608">
        <ele>118.6</ele>
        <time>2023-04-25T12:00:05Z</time>
      </trkpt>
      <trkpt lat="49.18174" lon="-0.76619">
        <ele>118.6</ele>
        <time>2023-04-25T12:00:06Z</time>
      </trkpt>
      <trkpt lat="49.18171" lon="-0.7663">
        <ele>118.6</ele>
        <time>2023-04-25T12:00:07Z</time>
      </trkpt>
      <trkpt lat="49.1817" lon="-0.76641">
        <ele>118.6</ele>
        <time>2023-04-25T12:00:08Z</time>
      </trkpt>
      <trkpt lat="49.18167" lon="-0.76651">
        <ele>118.8</ele>
        <time>2023-04-25T12:00:09Z</time>
      </trkpt>
      <trkpt lat="49.18166" lon="-0.76661">
        <ele>119</ele>
        <time>2023-04-25T12:00:10Z</time>
      </trkpt>
      <trkpt lat="49.18164" lon="-0.76671">
        <ele>119</ele>
        <time>2023-04-25T12:00:11Z</time>
      </trkpt>
      <trkpt lat="49.18162" lon="-0.7668">
        <ele>119</ele>
        <time>2023-04-25T12:00:12Z</time>
      </trkpt>
      <trkpt lat="49.1816" lon="-0.7669">
        <ele>119</ele>
        <time>2023-04-25T12:00:13Z</time>
      </trkpt>
      <trkpt lat="49.18158" lon="-0.76699">
        <ele>119</ele>
        <time>2023-04-25T12:00:14Z</time>
      </trkpt>
      <trkpt lat="49.18156" lon="-0.76709">
        <ele>119</ele>
        <time>2023-04-25T12:00:15Z</time>
      </trkpt>
      <trkpt lat="49.18154" lon="-0.76718">
        <ele>119</ele>
        <time>2023-04-25T12:00:16Z</time>
      </trkpt>
      <trkpt lat="49.18153" lon="-0.76727">
        <ele>119</ele>
        <time>2023-04-25T12:00:17Z</time>
      </trkpt>
      <trkpt lat="49.18151" lon="-0.76737">
        <ele>119</ele>
        <time>2023-04-25T12:00:18Z</time>
      </trkpt>
      <trkpt lat="49.18149" lon="-0.76746">
        <ele>119</ele>
        <time>2023-04-25T12:00:19Z</time>
      </trkpt>
      <trkpt lat="49.18147" lon="-0.76755">
        <ele>119</ele>
        <time>2023-04-25T12:00:20Z</time>
      </trkpt>
      <trkpt lat="49.18145" lon="-0.76764">
        <ele>119.2</ele>
        <time>2023-04-25T12:00:21Z</time>
      </trkpt>
      <trkpt lat="49.18144" lon="-0.76773">
        <ele>119.4</ele>
        <time>2023-04-25T12:00:22Z</time>
      </trkpt>
      <trkpt lat="49.18142" lon="-0.76782">
        <ele>119.4</ele>
        <time>2023-04-25T12:00:23Z</time>
      </trkpt>
      <trkpt lat="49.1814" lon="-0.76791">
        <ele>119.6</ele>
        <time>2023-04-25T12:00:24Z</time>
      </trkpt>
      <trkpt lat="49.18138" lon="-0.76801">
        <ele>119.6</ele>
        <time>2023-04-25T12:00:25Z</time>
      </trkpt>
      <trkpt lat="49.18137" lon="-0.7681">
        <ele>119.6</ele>
        <time>2023-04-25T12:00:26Z</time>
      </trkpt>
      <trkpt lat="49.18135" lon="-0.7682">
        <ele>119.8</ele>
        <time>2023-04-25T12:00:27Z</time>
      </trkpt>
      <trkpt lat="49.18133" lon="-0.76829">
        <ele>120</ele>
        <time>2023-04-25T12:00:28Z</time>
      </trkpt>
      <trkpt lat="49.18131" lon="-0.76839">
        <ele>120</ele>
        <time>2023-04-25T12:00:29Z</time>
      </trkpt>
      <trkpt lat="49.1813" lon="-0.76848">
        <ele>120.4</ele>
        <time>2023-04-25T12:00:30Z</time>
      </trkpt>
      <trkpt lat="49.18128" lon="-0.76858">
        <ele>120.6</ele>
        <time>2023-04-25T12:00:31Z</time>
      </trkpt>
      <trkpt lat="49.18126" lon="-0.76868">
        <ele>120.6</ele>
        <time>2023-04-25T12:00:32Z</time>
      </trkpt>
      <trkpt lat="49.18124" lon="-0.76877">
        <ele>120.8</ele>
        <time>2023-04-25T12:00:33Z</time>
      </trkpt>
      <trkpt lat="49.18122" lon="-0.76887">
        <ele>121</ele>
        <time>2023-04-25T12:00:34Z</time>
      </trkpt>
      <trkpt lat="49.1812" lon="-0.76896">
        <ele>121</ele>
        <time>2023-04-25T12:00:35Z</time>
      </trkpt>
      <trkpt lat="49.18118" lon="-0.76906">
        <ele>121.2</ele>
        <time>2023-04-25T12:00:36Z</time>
      </trkpt>
      <trkpt lat="49.18117" lon="-0.76915">
        <ele>121.4</ele>
        <time>2023-04-25T12:00:37Z</time>
      </trkpt>
      <trkpt lat="49.18115" lon="-0.76924">
        <ele>121.4</ele>
        <time>2023-04-25T12:00:38Z</time>
      </trkpt>
      <trkpt lat="49.18113" lon="-0.76934">
        <ele>121.4</ele>
        <time>2023-04-25T12:00:39Z</time>
      </trkpt>
      <trkpt lat="49.18111" lon="-0.76943">
        <ele>121.2</ele>
        <time>2023-04-25T12:00:40Z</time>
      </trkpt>
      <trkpt lat="49.18109" lon="-0.76953">
        <ele>121.2</ele>
        <time>2023-04-25T12:00:41Z</time>
      </trkpt>
      <trkpt lat="49.18108" lon="-0.76962">
        <ele>121</ele>
        <time>2023-04-25T12:00:42Z</time>
      </trkpt>
      <trkpt lat="49.18106" lon="-0.76972">
        <ele>121</ele>
        <time>2023-04-25T12:00:43Z</time>
      </trkpt>
      <trkpt lat="49.18104" lon="-0.76981">
        <ele>121</ele>
        <time>2023-04-25T12:00:44Z</time>
      </trkpt>
      <trkpt lat="49.18102" lon="-0.7699">
        <ele>121</ele>
        <time>2023-04-25T12:00:45Z</time>
      </trkpt>
      <trkpt lat="49.181" lon="-0.77">
        <ele>121</ele>
        <time>2023-04-25T12:00:46Z</time>
      </trkpt>
      <trkpt lat="49.18099" lon="-0.77009">
        <ele>121</ele>
        <time>2023-04-25T12:00:47Z</time>
      </trkpt>
      <trkpt lat="49.18097" lon="-0.77019">
        <ele>121</ele>
        <time>2023-04-25T12:00:48Z</time>
      </trkpt>
      <trkpt lat="49.18095" lon="-0.77028">
        <ele>121.2</ele>
        <time>2023-04-25T12:00:49Z</time>
      </trkpt>
      <trkpt lat="49.18093" lon="-0.77037">
        <ele>121.4</ele>
        <time>2023-04-25T12:00:50Z</time>
      </trkpt>
      <trkpt lat="49.18092" lon="-0.77046">
        <ele>121.4</ele>
        <time>2023-04-25T12:00:51Z</time>
      </trkpt>
      <trkpt lat="49.1809" lon="-0.77055">
        <ele>121.6</ele>
        <time>2023-04-25T12:00:52Z</time>
      </trkpt>
      <trkpt lat="49.18088" lon="-0.77064">
        <ele>121.6</ele>
        <time>2023-04-25T12:00:53Z</time>
      </trkpt>
      <trkpt lat="49.18086" lon="-0.77073">
        <ele>121.8</ele>
        <time>2023-04-25T12:00:54Z</time>
      </trkpt>
      <trkpt lat="49.18085" lon="-0.77082">
        <ele>122</ele>
        <time>2023-04-25T12:00:55Z</time>
      </trkpt>
      <trkpt lat="49.18083" lon="-0.77091">
        <ele>122</ele>
        <time>2023-04-25T12:00:56Z</time>
      </trkpt>
      <trkpt lat="49.18081" lon="-0.771">
        <ele>122</ele>
        <time>2023-04-25T12:00:57Z</time>
      </trkpt>
      <trkpt lat="49.1808" lon="-0.77108">
        <ele>122</ele>
        <time>2023-04-25T12:00:58Z</time>
      </trkpt>
      <trkpt lat="49.18078" lon="-0.77117">
        <ele>122</ele>
        <time>2023-04-25T12:00:59Z</time>
      </trkpt>
      <trkpt lat="49.18076" lon="-0.77125">
        <ele>122</ele>
        <time>2023-04-25T12:01:00Z</time>
      </trkpt>
      <trkpt lat="49.18075" lon="-0.77133">
        <ele>122</ele>
        <time>2023-04-25T12:01:01Z</time>
      </trkpt>
      <trkpt lat="49.18073" lon="-0.77142">
        <ele>122.2</ele>
        <time>2023-04-25T12:01:02Z</time>
      </trkpt>
      <trkpt lat="49.18072" lon="-0.7715">
        <ele>122.2</ele>
        <time>2023-04-25T12:01:03Z</time>
      </trkpt>
      <trkpt lat="49.1807" lon="-0.77159">
        <ele>122.4</ele>
        <time>2023-04-25T12:01:04Z</time>
      </trkpt>
      <trkpt lat="49.18068" lon="-0.77167">
        <ele>122.4</ele>
        <time>2023-04-25T12:01:05Z</time>
      </trkpt>
      <trkpt lat="49.18067" lon="-0.77176">
        <ele>122.6</ele>
        <time>2023-04-25T12:01:06Z</time>
      </trkpt>
      <trkpt lat="49.18065" lon="-0.77184">
        <ele>122.6</ele>
        <time>2023-04-25T12:01:07Z</time>
      </trkpt>
      <trkpt lat="49.18064" lon="-0.77192">
        <ele>122.8</ele>
        <time>2023-04-25T12:01:08Z</time>
      </trkpt>
      <trkpt lat="49.18062" lon="-0.772">
        <ele>123</ele>
        <time>2023-04-25T12:01:09Z</time>
      </trkpt>
      <trkpt lat="49.18061" lon="-0.77208">
        <ele>123</ele>
        <time>2023-04-25T12:01:10Z</time>
      </trkpt>
      <trkpt lat="49.18059" lon="-0.77216">
        <ele>123.2</ele>
        <time>2023-04-25T12:01:11Z</time>
      </trkpt>
      <trkpt lat="49.18058" lon="-0.77224">
        <ele>123.4</ele>
        <time>2023-04-25T12:01:12Z</time>
      </trkpt>
      <trkpt lat="49.18056" lon="-0.77232">
        <ele>123.4</ele>
        <time>2023-04-25T12:01:13Z</time>
      </trkpt>
      <trkpt lat="49.18055" lon="-0.7724">
        <ele>123.6</ele>
        <time>2023-04-25T12:01:14Z</time>
      </trkpt>
      <trkpt lat="49.18053" lon="-0.77248">
        <ele>123.6</ele>
        <time>2023-04-25T12:01:15Z</time>
      </trkpt>
      <trkpt lat="49.18052" lon="-0.77255">
        <ele>123.8</ele>
        <time>2023-04-25T12:01:16Z</time>
      </trkpt>
      <trkpt lat="49.1805" lon="-0.77263">
        <ele>123.8</ele>
        <time>2023-04-25T12:01:17Z</time>
      </trkpt>
      <trkpt lat="49.18049" lon="-0.77271">
        <ele>123.8</ele>
        <time>2023-04-25T12:01:18Z</time>
      </trkpt>
      <trkpt lat="49.18047" lon="-0.77279">
        <ele>124</ele>
        <time>2023-04-25T12:01:19Z</time>
      </trkpt>
      <trkpt lat="49.18046" lon="-0.77287">
        <ele>124</ele>
        <time>2023-04-25T12:01:20Z</time>
      </trkpt>
      <trkpt lat="49.18045" lon="-0.77295">
        <ele>124</ele>
        <time>2023-04-25T12:01:21Z</time>
      </trkpt>
      <trkpt lat="49.18043" lon="-0.77304">
        <ele>124</ele>
        <time>2023-04-25T12:01:22Z</time>
      </trkpt>
      <trkpt lat="49.18041" lon="-0.77312">
        <ele>124</ele>
        <time>2023-04-25T12:01:23Z</time>
      </trkpt>
      <trkpt lat="49.1804" lon="-0.7732">
        <ele>124</ele>
        <time>2023-04-25T12:01:24Z</time>
      </trkpt>
      <trkpt lat="49.18038" lon="-0.77328">
        <ele>124</ele>
        <time>2023-04-25T12:01:25Z</time>
      </trkpt>
      <trkpt lat="49.18037" lon="-0.77337">
        <ele>124</ele>
        <time>2023-04-25T12:01:26Z</time>
      </trkpt>
      <trkpt lat="49.18035" lon="-0.77345">
        <ele>124.2</ele>
        <time>2023-04-25T12:01:27Z</time>
      </trkpt>
      <trkpt lat="49.18033" lon="-0.77353">
        <ele>124.2</ele>
        <time>2023-04-25T12:01:28Z</time>
      </trkpt>
      <trkpt lat="49.18032" lon="-0.77362">
        <ele>124.2</ele>
        <time>2023-04-25T12:01:29Z</time>
      </trkpt>
      <trkpt lat="49.1803" lon="-0.7737">
        <ele>124.4</ele>
        <time>2023-04-25T12:01:30Z</time>
      </trkpt>
      <trkpt lat="49.18029" lon="-0.77379">
        <ele>124.4</ele>
        <time>2023-04-25T12:01:31Z</time>
      </trkpt>
      <trkpt lat="49.18027" lon="-0.77387">
        <ele>124.4</ele>
        <time>2023-04-25T12:01:32Z</time>
      </trkpt>
      <trkpt lat="49.18026" lon="-0.77396">
        <ele>124.4</ele>
        <time>2023-04-25T12:01:33Z</time>
      </trkpt>
      <trkpt lat="49.18024" lon="-0.77404">
        <ele>124.4</ele>
        <time>2023-04-25T12:01:34Z</time>
      </trkpt>
      <trkpt lat="49.18022" lon="-0.77412">
        <ele>124.6</ele>
        <time>2023-04-25T12:01:35Z</time>
      </trkpt>
      <trkpt lat="49.18021" lon="-0.7742">
        <ele>124.6</ele>
        <time>2023-04-25T12:01:36Z</time>
      </trkpt>
      <trkpt lat="49.18019" lon="-0.77429">
        <ele>124.6</ele>
        <time>2023-04-25T12:01:37Z</time>
      </trkpt>
      <trkpt lat="49.18018" lon="-0.77437">
        <ele>124.6</ele>
        <time>2023-04-25T12:01:38Z</time>
      </trkpt>
      <trkpt lat="49.18016" lon="-0.77445">
        <ele>124.6</ele>
        <time>2023-04-25T12:01:39Z</time>
      </trkpt>
      <trkpt lat="49.18015" lon="-0.77453">
        <ele>124.6</ele>
        <time>2023-04-25T12:01:40Z</time>
      </trkpt>
      <trkpt lat="49.18013" lon="-0.77462">
        <ele>124.6</ele>
        <time>2023-04-25T12:01:41Z</time>
      </trkpt>
      <trkpt lat="49.18011" lon="-0.7747">
        <ele>124.6</ele>
        <time>2023-04-25T12:01:42Z</time>
      </trkpt>
      <trkpt lat="49.1801" lon="-0.77478">
        <ele>124.8</ele>
        <time>2023-04-25T12:01:43Z</time>
      </trkpt>
      <trkpt lat="49.18008" lon="-0.77487">
        <ele>124.8</ele>
        <time>2023-04-25T12:01:44Z</time>
      </trkpt>
      <trkpt lat="49.18007" lon="-0.77495">
        <ele>124.8</ele>
        <time>2023-04-25T12:01:45Z</time>
      </trkpt>
      <trkpt lat="49.18005" lon="-0.77504">
        <ele>125</ele>
        <time>2023-04-25T12:01:46Z</time>
      </trkpt>
      <trkpt lat="49.18003" lon="-0.77512">
        <ele>125</ele>
        <time>2023-04-25T12:01:47Z</time>
      </trkpt>
      <trkpt lat="49.18002" lon="-0.77521">
        <ele>125.2</ele>
        <time>2023-04-25T12:01:48Z</time>
      </trkpt>
      <trkpt lat="49.18" lon="-0.77529">
        <ele>125.4</ele>
        <time>2023-04-25T12:01:49Z</time>
      </trkpt>
      <trkpt lat="49.17999" lon="-0.77537">
        <ele>125.6</ele>
        <time>2023-04-25T12:01:50Z</time>
      </trkpt>
      <trkpt lat="49.17997" lon="-0.77546">
        <ele>125.6</ele>
        <time>2023-04-25T12:01:51Z</time>
      </trkpt>
      <trkpt lat="49.17995" lon="-0.77554">
        <ele>125.8</ele>
        <time>2023-04-25T12:01:52Z</time>
      </trkpt>
      <trkpt lat="49.17994" lon="-0.77563">
        <ele>126</ele>
        <time>2023-04-25T12:01:53Z</time>
      </trkpt>
      <trkpt lat="49.17992" lon="-0.77571">
        <ele>126</ele>
        <time>2023-04-25T12:01:54Z</time>
      </trkpt>
      <trkpt lat="49.1799" lon="-0.7758">
        <ele>126.2</ele>
        <time>2023-04-25T12:01:55Z</time>
      </trkpt>
      <trkpt lat="49.17989" lon="-0.77588">
        <ele>126.4</ele>
        <time>2023-04-25T12:01:56Z</time>
      </trkpt>
      <trkpt lat="49.17987" lon="-0.77596">
        <ele>126.4</ele>
        <time>2023-04-25T12:01:57Z</time>
      </trkpt>
      <trkpt lat="49.17986" lon="-0.77604">
        <ele>126.4</ele>
        <time>2023-04-25T12:01:58Z</time>
      </trkpt>
      <trkpt lat="49.17984" lon="-0.77612">
        <ele>126.6</ele>
        <time>2023-04-25T12:01:59Z</time>
      </trkpt>
      <trkpt lat="49.17982" lon="-0.7762">
        <ele>126.6</ele>
        <time>2023-04-25T12:02:00Z</time>
      </trkpt>
      <trkpt lat="49.17981" lon="-0.77629">
        <ele>126.6</ele>
        <time>2023-04-25T12:02:01Z</time>
      </trkpt>
      <trkpt lat="49.17979" lon="-0.77636">
        <ele>126.6</ele>
        <time>2023-04-25T12:02:02Z</time>
      </trkpt>
      <trkpt lat="49.17978" lon="-0.77645">
        <ele>126.6</ele>
        <time>2023-04-25T12:02:03Z</time>
      </trkpt>
      <trkpt lat="49.17976" lon="-0.77652">
        <ele>126.8</ele>
        <time>2023-04-25T12:02:04Z</time>
      </trkpt>
      <trkpt lat="49.17974" lon="-0.77661">
        <ele>127</ele>
        <time>2023-04-25T12:02:05Z</time>
      </trkpt>
      <trkpt lat="49.17973" lon="-0.77669">
        <ele>127</ele>
        <time>2023-04-25T12:02:06Z</time>
      </trkpt>
      <trkpt lat="49.17971" lon="-0.77677">
        <ele>127</ele>
        <time>2023-04-25T12:02:07Z</time>
      </trkpt>
      <trkpt lat="49.1797" lon="-0.77685">
        <ele>127.2</ele>
        <time>2023-04-25T12:02:08Z</time>
      </trkpt>
      <trkpt lat="49.17968" lon="-0.77693">
        <ele>127.4</ele>
        <time>2023-04-25T12:02:09Z</time>
      </trkpt>
      <trkpt lat="49.17966" lon="-0.77702">
        <ele>127.6</ele>
        <time>2023-04-25T12:02:10Z</time>
      </trkpt>
      <trkpt lat="49.17965" lon="-0.7771">
        <ele>127.6</ele>
        <time>2023-04-25T12:02:11Z</time>
      </trkpt>
      <trkpt lat="49.17963" lon="-0.77718">
        <ele>127.6</ele>
        <time>2023-04-25T12:02:12Z</time>
      </trkpt>
      <trkpt lat="49.17962" lon="-0.77727">
        <ele>127.8</ele>
        <time>2023-04-25T12:02:13Z</time>
      </trkpt>
      <trkpt lat="49.1796" lon="-0.77735">
        <ele>128</ele>
        <time>2023-04-25T12:02:14Z</time>
      </trkpt>
      <trkpt lat="49.17958" lon="-0.77744">
        <ele>128</ele>
        <time>2023-04-25T12:02:15Z</time>
      </trkpt>
      <trkpt lat="49.17957" lon="-0.77752">
        <ele>128</ele>
        <time>2023-04-25T12:02:16Z</time>
      </trkpt>
      <trkpt lat="49.17955" lon="-0.7776">
        <ele>128</ele>
        <time>2023-04-25T12:02:17Z</time>
      </trkpt>
      <trkpt lat="49.17954" lon="-0.77769">
        <ele>128</ele>
        <time>2023-04-25T12:02:18Z</time>
      </trkpt>
      <trkpt lat="49.17952" lon="-0.77778">
        <ele>127.8</ele>
        <time>2023-04-25T12:02:19Z</time>
      </trkpt>
      <trkpt lat="49.1795" lon="-0.77786">
        <ele>127.8</ele>
        <time>2023-04-25T12:02:20Z</time>
      </trkpt>
      <trkpt lat="49.17949" lon="-0.77795">
        <ele>127.6</ele>
        <time>2023-04-25T12:02:21Z</time>
      </trkpt>
      <trkpt lat="49.17947" lon="-0.77804">
        <ele>127.6</ele>
        <time>2023-04-25T12:02:22Z</time>
      </trkpt>
      <trkpt lat="49.17945" lon="-0.77813">
        <ele>127.6</ele>
        <time>2023-04-25T12:02:23Z</time>
      </trkpt>
      <trkpt lat="49.17944" lon="-0.77822">
        <ele>127.6</ele>
        <time>2023-04-25T12:02:24Z</time>
      </trkpt>
      <trkpt lat="49.17942" lon="-0.77831">
        <ele>127.4</ele>
        <time>2023-04-25T12:02:25Z</time>
      </trkpt>
      <trkpt lat="49.17941" lon="-0.77839">
        <ele>127.4</ele>
        <time>2023-04-25T12:02:26Z</time>
      </trkpt>
      <trkpt lat="49.17939" lon="-0.77848">
        <ele>127.2</ele>
        <time>2023-04-25T12:02:27Z</time>
      </trkpt>
      <trkpt lat="49.17937" lon="-0.77857">
        <ele>127</ele>
        <time>2023-04-25T12:02:28Z</time>
      </trkpt>
      <trkpt lat="49.17935" lon="-0.77866">
        <ele>127</ele>
        <time>2023-04-25T12:02:29Z</time>
      </trkpt>
      <trkpt lat="49.17934" lon="-0.77875">
        <ele>126.6</ele>
        <time>2023-04-25T12:02:30Z</time>
      </trkpt>
      <trkpt lat="49.17932" lon="-0.77883">
        <ele>126.6</ele>
        <time>2023-04-25T12:02:31Z</time>
      </trkpt>
      <trkpt lat="49.1793" lon="-0.77892">
        <ele>126.4</ele>
        <time>2023-04-25T12:02:32Z</time>
      </trkpt>
      <trkpt lat="49.17929" lon="-0.77901">
        <ele>126.2</ele>
        <time>2023-04-25T12:02:33Z</time>
      </trkpt>
      <trkpt lat="49.17927" lon="-0.7791">
        <ele>126</ele>
        <time>2023-04-25T12:02:34Z</time>
      </trkpt>
      <trkpt lat="49.17925" lon="-0.77919">
        <ele>126</ele>
        <time>2023-04-25T12:02:35Z</time>
      </trkpt>
      <trkpt lat="49.17924" lon="-0.77927">
        <ele>126</ele>
        <time>2023-04-25T12:02:36Z</time>
      </trkpt>
      <trkpt lat="49.17922" lon="-0.77936">
        <ele>126</ele>
        <time>2023-04-25T12:02:37Z</time>
      </trkpt>
      <trkpt lat="49.1792" lon="-0.77945">
        <ele>126</ele>
        <time>2023-04-25T12:02:38Z</time>
      </trkpt>
      <trkpt lat="49.17918" lon="-0.77954">
        <ele>126</ele>
        <time>2023-04-25T12:02:39Z</time>
      </trkpt>
      <trkpt lat="49.17917" lon="-0.77963">
        <ele>126</ele>
        <time>2023-04-25T12:02:40Z</time>
      </trkpt>
      <trkpt lat="49.17915" lon="-0.77971">
        <ele>126</ele>
        <time>2023-04-25T12:02:41Z</time>
      </trkpt>
      <trkpt lat="49.17913" lon="-0.7798">
        <ele>126</ele>
        <time>2023-04-25T12:02:42Z</time>
      </trkpt>
      <trkpt lat="49.17911" lon="-0.77989">
        <ele>126</ele>
        <time>2023-04-25T12:02:43Z</time>
      </trkpt>
      <trkpt lat="49.1791" lon="-0.77998">
        <ele>126.2</ele>
        <time>2023-04-25T12:02:44Z</time>
      </trkpt>
      <trkpt lat="49.17908" lon="-0.78007">
        <ele>126.4</ele>
        <time>2023-04-25T12:02:45Z</time>
      </trkpt>
      <trkpt lat="49.17907" lon="-0.78016">
        <ele>126.6</ele>
        <time>2023-04-25T12:02:46Z</time>
      </trkpt>
      <trkpt lat="49.17905" lon="-0.78024">
        <ele>127</ele>
        <time>2023-04-25T12:02:47Z</time>
      </trkpt>
      <trkpt lat="49.17903" lon="-0.78033">
        <ele>127</ele>
        <time>2023-04-25T12:02:48Z</time>
      </trkpt>
      <trkpt lat="49.17902" lon="-0.78042">
        <ele>127.4</ele>
        <time>2023-04-25T12:02:49Z</time>
      </trkpt>
      <trkpt lat="49.179" lon="-0.78051">
        <ele>127.6</ele>
        <time>2023-04-25T12:02:50Z</time>
      </trkpt>
      <trkpt lat="49.17899" lon="-0.7806">
        <ele>128</ele>
        <time>2023-04-25T12:02:51Z</time>
      </trkpt>
      <trkpt lat="49.17898" lon="-0.78069">
        <ele>128.2</ele>
        <time>2023-04-25T12:02:52Z</time>
      </trkpt>
      <trkpt lat="49.17896" lon="-0.78079">
        <ele>128.4</ele>
        <time>2023-04-25T12:02:53Z</time>
      </trkpt>
      <trkpt lat="49.17895" lon="-0.78088">
        <ele>128.6</ele>
        <time>2023-04-25T12:02:54Z</time>
      </trkpt>
      <trkpt lat="49.17894" lon="-0.78097">
        <ele>128.4</ele>
        <time>2023-04-25T12:02:55Z</time>
      </trkpt>
      <trkpt lat="49.17893" lon="-0.78106">
        <ele>128.4</ele>
        <time>2023-04-25T12:02:56Z</time>
      </trkpt>
      <trkpt lat="49.17892" lon="-0.78115">
        <ele>128.2</ele>
        <time>2023-04-25T12:02:57Z</time>
      </trkpt>
      <trkpt lat="49.17891" lon="-0.78124">
        <ele>128.2</ele>
        <time>2023-04-25T12:02:58Z</time>
      </trkpt>
      <trkpt lat="49.1789" lon="-0.78134">
        <ele>128</ele>
        <time>2023-04-25T12:02:59Z</time>
      </trkpt>
      <trkpt lat="49.17889" lon="-0.78143">
        <ele>128</ele>
        <time>2023-04-25T12:03:00Z</time>
      </trkpt>
      <trkpt lat="49.17889" lon="-0.78152">
        <ele>127.8</ele>
        <time>2023-04-25T12:03:01Z</time>
      </trkpt>
      <trkpt lat="49.17888" lon="-0.78161">
        <ele>127.6</ele>
        <time>2023-04-25T12:03:02Z</time>
      </trkpt>
      <trkpt lat="49.17888" lon="-0.78171">
        <ele>127.6</ele>
        <time>2023-04-25T12:03:03Z</time>
      </trkpt>
      <trkpt lat="49.17887" lon="-0.7818">
        <ele>127.8</ele>
        <time>2023-04-25T12:03:04Z</time>
      </trkpt>
      <trkpt lat="49.17887" lon="-0.7819">
        <ele>127.8</ele>
        <time>2023-04-25T12:03:05Z</time>
      </trkpt>
      <trkpt lat="49.17886" lon="-0.78199">
        <ele>128</ele>
        <time>2023-04-25T12:03:06Z</time>
      </trkpt>
      <trkpt lat="49.17886" lon="-0.78209">
        <ele>128</ele>
        <time>2023-04-25T12:03:07Z</time>
      </trkpt>
      <trkpt lat="49.17885" lon="-0.78218">
        <ele>128</ele>
        <time>2023-04-25T12:03:08Z</time>
      </trkpt>
      <trkpt lat="49.17885" lon="-0.78228">
        <ele>128</ele>
        <time>2023-04-25T12:03:09Z</time>
      </trkpt>
      <trkpt lat="49.17885" lon="-0.78237">
        <ele>128.2</ele>
        <time>2023-04-25T12:03:10Z</time>
      </trkpt>
      <trkpt lat="49.17885" lon="-0.78247">
        <ele>128.2</ele>
        <time>2023-04-25T12:03:11Z</time>
      </trkpt>
      <trkpt lat="49.17884" lon="-0.78257">
        <ele>128.2</ele>
        <time>2023-04-25T12:03:12Z</time>
      </trkpt>
      <trkpt lat="49.17884" lon="-0.78266">
        <ele>128.2</ele>
        <time>2023-04-25T12:03:13Z</time>
      </trkpt>
      <trkpt lat="49.17884" lon="-0.78275">
        <ele>128.2</ele>
        <time>2023-04-25T12:03:14Z</time>
      </trkpt>
      <trkpt lat="49.17883" lon="-0.78285">
        <ele>128</ele>
        <time>2023-04-25T12:03:15Z</time>
      </trkpt>
      <trkpt lat="49.17883" lon="-0.78294">
        <ele>128</ele>
        <time>2023-04-25T12:03:16Z</time>
      </trkpt>
      <trkpt lat="49.17883" lon="-0.78303">
        <ele>128</ele>
        <time>2023-04-25T12:03:17Z</time>
      </trkpt>
      <trkpt lat="49.17883" lon="-0.78311">
        <ele>128</ele>
        <time>2023-04-25T12:03:18Z</time>
      </trkpt>
      <trkpt lat="49.17882" lon="-0.7832">
        <ele>128</ele>
        <time>2023-04-25T12:03:19Z</time>
      </trkpt>
      <trkpt lat="49.17882" lon="-0.78329">
        <ele>128</ele>
        <time>2023-04-25T12:03:20Z</time>
      </trkpt>
      <trkpt lat="49.17882" lon="-0.78338">
        <ele>128</ele>
        <time>2023-04-25T12:03:21Z</time>
      </trkpt>
      <trkpt lat="49.17881" lon="-0.78347">
        <ele>128</ele>
        <time>2023-04-25T12:03:22Z</time>
      </trkpt>
      <trkpt lat="49.17881" lon="-0.78355">
        <ele>128</ele>
        <time>2023-04-25T12:03:23Z</time>
      </trkpt>
      <trkpt lat="49.17881" lon="-0.78364">
        <ele>128.2</ele>
        <time>2023-04-25T12:03:24Z</time>
      </trkpt>
      <trkpt lat="49.17881" lon="-0.78372">
        <ele>128.2</ele>
        <time>2023-04-25T12:03:25Z</time>
      </trkpt>
      <trkpt lat="49.17881" lon="-0.7838">
        <ele>128.2</ele>
        <time>2023-04-25T12:03:26Z</time>
      </trkpt>
      <trkpt lat="49.1788" lon="-0.78388">
        <ele>128.2</ele>
        <time>2023-04-25T12:03:27Z</time>
      </trkpt>
      <trkpt lat="49.1788" lon="-0.78396">
        <ele>128.4</ele>
        <time>2023-04-25T12:03:28Z</time>
      </trkpt>
      <trkpt lat="49.1788" lon="-0.78403">
        <ele>128.4</ele>
        <time>2023-04-25T12:03:29Z</time>
      </trkpt>
      <trkpt lat="49.1788" lon="-0.78411">
        <ele>128.4</ele>
        <time>2023-04-25T12:03:30Z</time>
      </trkpt>
      <trkpt lat="49.17879" lon="-0.78418">
        <ele>128.4</ele>
        <time>2023-04-25T12:03:31Z</time>
      </trkpt>
      <trkpt lat="49.17879" lon="-0.78426">
        <ele>128.6</ele>
        <time>2023-04-25T12:03:32Z</time>
      </trkpt>
      <trkpt lat="49.17879" lon="-0.78434">
        <ele>128.6</ele>
        <time>2023-04-25T12:03:33Z</time>
      </trkpt>
      <trkpt lat="49.17879" lon="-0.78441">
        <ele>128.6</ele>
        <time>2023-04-25T12:03:34Z</time>
      </trkpt>
      <trkpt lat="49.17878" lon="-0.78449">
        <ele>128.6</ele>
        <time>2023-04-25T12:03:35Z</time>
      </trkpt>
      <trkpt lat="49.17878" lon="-0.78457">
        <ele>128.6</ele>
        <time>2023-04-25T12:03:36Z</time>
      </trkpt>
      <trkpt lat="49.17878" lon="-0.78465">
        <ele>128.6</ele>
        <time>2023-04-25T12:03:37Z</time>
      </trkpt>
      <trkpt lat="49.17878" lon="-0.78473">
        <ele>128.6</ele>
        <time>2023-04-25T12:03:38Z</time>
      </trkpt>
      <trkpt lat="49.17878" lon="-0.78481">
        <ele>128.6</ele>
        <time>2023-04-25T12:03:39Z</time>
      </trkpt>
      <trkpt lat="49.17877" lon="-0.78489">
        <ele>128.6</ele>
        <time>2023-04-25T12:03:40Z</time>
      </trkpt>
      <trkpt lat="49.17877" lon="-0.78497">
        <ele>128.6</ele>
        <time>2023-04-25T12:03:41Z</time>
      </trkpt>
      <trkpt lat="49.17877" lon="-0.78505">
        <ele>128.6</ele>
        <time>2023-04-25T12:03:42Z</time>
      </trkpt>
      <trkpt lat="49.17876" lon="-0.78513">
        <ele>128.6</ele>
        <time>2023-04-25T12:03:43Z</time>
      </trkpt>
      <trkpt lat="49.17876" lon="-0.78521">
        <ele>128.6</ele>
        <time>2023-04-25T12:03:44Z</time>
      </trkpt>
      <trkpt lat="49.17876" lon="-0.7853">
        <ele>128.6</ele>
        <time>2023-04-25T12:03:45Z</time>
      </trkpt>
      <trkpt lat="49.17876" lon="-0.78538">
        <ele>128.6</ele>
        <time>2023-04-25T12:03:46Z</time>
      </trkpt>
      <trkpt lat="49.17875" lon="-0.78547">
        <ele>128.8</ele>
        <time>2023-04-25T12:03:47Z</time>
      </trkpt>
      <trkpt lat="49.17875" lon="-0.78555">
        <ele>128.8</ele>
        <time>2023-04-25T12:03:48Z</time>
      </trkpt>
      <trkpt lat="49.17875" lon="-0.78564">
        <ele>128.8</ele>
        <time>2023-04-25T12:03:49Z</time>
      </trkpt>
      <trkpt lat="49.17875" lon="-0.78573">
        <ele>128.8</ele>
        <time>2023-04-25T12:03:50Z</time>
      </trkpt>
      <trkpt lat="49.17874" lon="-0.78582">
        <ele>129</ele>
        <time>2023-04-25T12:03:51Z</time>
      </trkpt>
      <trkpt lat="49.17874" lon="-0.78591">
        <ele>129</ele>
        <time>2023-04-25T12:03:52Z</time>
      </trkpt>
      <trkpt lat="49.17874" lon="-0.786">
        <ele>129</ele>
        <time>2023-04-25T12:03:53Z</time>
      </trkpt>
      <trkpt lat="49.17873" lon="-0.78609">
        <ele>129</ele>
        <time>2023-04-25T12:03:54Z</time>
      </trkpt>
      <trkpt lat="49.17873" lon="-0.78618">
        <ele>129</ele>
        <time>2023-04-25T12:03:55Z</time>
      </trkpt>
      <trkpt lat="49.17873" lon="-0.78627">
        <ele>129.2</ele>
        <time>2023-04-25T12:03:56Z</time>
      </trkpt>
      <trkpt lat="49.17873" lon="-0.78637">
        <ele>129.2</ele>
        <time>2023-04-25T12:03:57Z</time>
      </trkpt>
      <trkpt lat="49.17872" lon="-0.78647">
        <ele>129.2</ele>
        <time>2023-04-25T12:03:58Z</time>
      </trkpt>
      <trkpt lat="49.17872" lon="-0.78657">
        <ele>129.2</ele>
        <time>2023-04-25T12:03:59Z</time>
      </trkpt>
      <trkpt lat="49.17872" lon="-0.78666">
        <ele>129.2</ele>
        <time>2023-04-25T12:04:00Z</time>
      </trkpt>
      <trkpt lat="49.17871" lon="-0.78677">
        <ele>129.2</ele>
        <time>2023-04-25T12:04:01Z</time>
      </trkpt>
      <trkpt lat="49.17871" lon="-0.78687">
        <ele>129.2</ele>
        <time>2023-04-25T12:04:02Z</time>
      </trkpt>
      <trkpt lat="49.17871" lon="-0.78697">
        <ele>129.4</ele>
        <time>2023-04-25T12:04:03Z</time>
      </trkpt>
      <trkpt lat="49.1787" lon="-0.78708">
        <ele>129.4</ele>
        <time>2023-04-25T12:04:04Z</time>
      </trkpt>
      <trkpt lat="49.1787" lon="-0.78718">
        <ele>129.4</ele>
        <time>2023-04-25T12:04:05Z</time>
      </trkpt>
      <trkpt lat="49.1787" lon="-0.78729">
        <ele>129.6</ele>
        <time>2023-04-25T12:04:06Z</time>
      </trkpt>
      <trkpt lat="49.17869" lon="-0.78739">
        <ele>129.6</ele>
        <time>2023-04-25T12:04:07Z</time>
      </trkpt>
      <trkpt lat="49.17869" lon="-0.7875">
        <ele>129.6</ele>
        <time>2023-04-25T12:04:08Z</time>
      </trkpt>
      <trkpt lat="49.17869" lon="-0.7876">
        <ele>129.6</ele>
        <time>2023-04-25T12:04:09Z</time>
      </trkpt>
      <trkpt lat="49.17868" lon="-0.78771">
        <ele>129.6</ele>
        <time>2023-04-25T12:04:10Z</time>
      </trkpt>
      <trkpt lat="49.17868" lon="-0.78781">
        <ele>129.8</ele>
        <time>2023-04-25T12:04:11Z</time>
      </trkpt>
      <trkpt lat="49.17868" lon="-0.78792">
        <ele>129.8</ele>
        <time>2023-04-25T12:04:12Z</time>
      </trkpt>
      <trkpt lat="49.17867" lon="-0.78802">
        <ele>130</ele>
        <time>2023-04-25T12:04:13Z</time>
      </trkpt>
      <trkpt lat="49.17867" lon="-0.78813">
        <ele>130.2</ele>
        <time>2023-04-25T12:04:14Z</time>
      </trkpt>
      <trkpt lat="49.17866" lon="-0.78824">
        <ele>130.2</ele>
        <time>2023-04-25T12:04:15Z</time>
      </trkpt>
      <trkpt lat="49.17866" lon="-0.78834">
        <ele>130.2</ele>
        <time>2023-04-25T12:04:16Z</time>
      </trkpt>
      <trkpt lat="49.17866" lon="-0.78845">
        <ele>130.2</ele>
        <time>2023-04-25T12:04:17Z</time>
      </trkpt>
      <trkpt lat="49.17865" lon="-0.78856">
        <ele>130.2</ele>
        <time>2023-04-25T12:04:18Z</time>
      </trkpt>
      <trkpt lat="49.17865" lon="-0.78866">
        <ele>130.2</ele>
        <time>2023-04-25T12:04:19Z</time>
      </trkpt>
      <trkpt lat="49.17865" lon="-0.78877">
        <ele>130.2</ele>
        <time>2023-04-25T12:04:20Z</time>
      </trkpt>
      <trkpt lat="49.17864" lon="-0.78888">
        <ele>130</ele>
        <time>2023-04-25T12:04:21Z</time>
      </trkpt>
      <trkpt lat="49.17864" lon="-0.78899">
        <ele>130</ele>
        <time>2023-04-25T12:04:22Z</time>
      </trkpt>
      <trkpt lat="49.17863" lon="-0.7891">
        <ele>129.8</ele>
        <time>2023-04-25T12:04:23Z</time>
      </trkpt>
      <trkpt lat="49.17863" lon="-0.7892">
        <ele>129.8</ele>
        <time>2023-04-25T12:04:24Z</time>
      </trkpt>
      <trkpt lat="49.17863" lon="-0.78931">
        <ele>129.6</ele>
        <time>2023-04-25T12:04:25Z</time>
      </trkpt>
      <trkpt lat="49.17862" lon="-0.78942">
        <ele>129.6</ele>
        <time>2023-04-25T12:04:26Z</time>
      </trkpt>
      <trkpt lat="49.17862" lon="-0.78953">
        <ele>129.4</ele>
        <time>2023-04-25T12:04:27Z</time>
      </trkpt>
      <trkpt lat="49.17862" lon="-0.78964">
        <ele>129.2</ele>
        <time>2023-04-25T12:04:28Z</time>
      </trkpt>
      <trkpt lat="49.17861" lon="-0.78975">
        <ele>129.2</ele>
        <time>2023-04-25T12:04:29Z</time>
      </trkpt>
      <trkpt lat="49.17861" lon="-0.78987">
        <ele>128.8</ele>
        <time>2023-04-25T12:04:30Z</time>
      </trkpt>
      <trkpt lat="49.1786" lon="-0.78998">
        <ele>128.6</ele>
        <time>2023-04-25T12:04:31Z</time>
      </trkpt>
      <trkpt lat="49.1786" lon="-0.79009">
        <ele>128.6</ele>
        <time>2023-04-25T12:04:32Z</time>
      </trkpt>
      <trkpt lat="49.1786" lon="-0.7902">
        <ele>128.6</ele>
        <time>2023-04-25T12:04:33Z</time>
      </trkpt>
      <trkpt lat="49.17859" lon="-0.79031">
        <ele>128.6</ele>
        <time>2023-04-25T12:04:34Z</time>
      </trkpt>
      <trkpt lat="49.17859" lon="-0.79042">
        <ele>128.6</ele>
        <time>2023-04-25T12:04:35Z</time>
      </trkpt>
      <trkpt lat="49.17859" lon="-0.79054">
        <ele>128.6</ele>
        <time>2023-04-25T12:04:36Z</time>
      </trkpt>
      <trkpt lat="49.17858" lon="-0.79065">
        <ele>128.6</ele>
        <time>2023-04-25T12:04:37Z</time>
      </trkpt>
      <trkpt lat="49.17858" lon="-0.79076">
        <ele>128.4</ele>
        <time>2023-04-25T12:04:38Z</time>
      </trkpt>
      <trkpt lat="49.17857" lon="-0.79088">
        <ele>128.4</ele>
        <time>2023-04-25T12:04:39Z</time>
      </trkpt>
      <trkpt lat="49.17857" lon="-0.79099">
        <ele>128.4</ele>
        <time>2023-04-25T12:04:40Z</time>
      </trkpt>
      <trkpt lat="49.17857" lon="-0.79111">
        <ele>128.4</ele>
        <time>2023-04-25T12:04:41Z</time>
      </trkpt>
      <trkpt lat="49.17856" lon="-0.79122">
        <ele>128.4</ele>
        <time>2023-04-25T12:04:42Z</time>
      </trkpt>
      <trkpt lat="49.17856" lon="-0.79134">
        <ele>128.4</ele>
        <time>2023-04-25T12:04:43Z</time>
      </trkpt>
      <trkpt lat="49.17855" lon="-0.79146">
        <ele>128.4</ele>
        <time>2023-04-25T12:04:44Z</time>
      </trkpt>
      <trkpt lat="49.17855" lon="-0.79157">
        <ele>128.2</ele>
        <time>2023-04-25T12:04:45Z</time>
      </trkpt>
      <trkpt lat="49.17855" lon="-0.79169">
        <ele>128.2</ele>
        <time>2023-04-25T12:04:46Z</time>
      </trkpt>
      <trkpt lat="49.17854" lon="-0.79181">
        <ele>128.2</ele>
        <time>2023-04-25T12:04:47Z</time>
      </trkpt>
      <trkpt lat="49.17854" lon="-0.79193">
        <ele>128</ele>
        <time>2023-04-25T12:04:48Z</time>
      </trkpt>
      <trkpt lat="49.17853" lon="-0.79205">
        <ele>128</ele>
        <time>2023-04-25T12:04:49Z</time>
      </trkpt>
      <trkpt lat="49.17853" lon="-0.79217">
        <ele>127.8</ele>
        <time>2023-04-25T12:04:50Z</time>
      </trkpt>
      <trkpt lat="49.17853" lon="-0.79229">
        <ele>127.6</ele>
        <time>2023-04-25T12:04:51Z</time>
      </trkpt>
      <trkpt lat="49.17852" lon="-0.79241">
        <ele>127.6</ele>
        <time>2023-04-25T12:04:52Z</time>
      </trkpt>
      <trkpt lat="49.17852" lon="-0.79254">
        <ele>127.6</ele>
        <time>2023-04-25T12:04:53Z</time>
      </trkpt>
      <trkpt lat="49.17851" lon="-0.79266">
        <ele>127.6</ele>
        <time>2023-04-25T12:04:54Z</time>
      </trkpt>
      <trkpt lat="49.17851" lon="-0.79278">
        <ele>127.6</ele>
        <time>2023-04-25T12:04:55Z</time>
      </trkpt>
      <trkpt lat="49.17851" lon="-0.7929">
        <ele>127.6</ele>
        <time>2023-04-25T12:04:56Z</time>
      </trkpt>
      <trkpt lat="49.1785" lon="-0.79302">
        <ele>127.6</ele>
        <time>2023-04-25T12:04:57Z</time>
      </trkpt>
      <trkpt lat="49.1785" lon="-0.79314">
        <ele>127.8</ele>
        <time>2023-04-25T12:04:58Z</time>
      </trkpt>
      <trkpt lat="49.17849" lon="-0.79326">
        <ele>127.8</ele>
        <time>2023-04-25T12:04:59Z</time>
      </trkpt>
      <trkpt lat="49.17849" lon="-0.79339">
        <ele>127.8</ele>
        <time>2023-04-25T12:05:00Z</time>
      </trkpt>
      <trkpt lat="49.17849" lon="-0.79351">
        <ele>128</ele>
        <time>2023-04-25T12:05:01Z</time>
      </trkpt>
      <trkpt lat="49.17848" lon="-0.79363">
        <ele>128</ele>
        <time>2023-04-25T12:05:02Z</time>
      </trkpt>
      <trkpt lat="49.17848" lon="-0.79375">
        <ele>128</ele>
        <time>2023-04-25T12:05:03Z</time>
      </trkpt>
      <trkpt lat="49.17847" lon="-0.79387">
        <ele>128</ele>
        <time>2023-04-25T12:05:04Z</time>
      </trkpt>
      <trkpt lat="49.17847" lon="-0.79399">
        <ele>128</ele>
        <time>2023-04-25T12:05:05Z</time>
      </trkpt>
      <trkpt lat="49.17846" lon="-0.79411">
        <ele>128</ele>
        <time>2023-04-25T12:05:06Z</time>
      </trkpt>
      <trkpt lat="49.17846" lon="-0.79423">
        <ele>128</ele>
        <time>2023-04-25T12:05:07Z</time>
      </trkpt>
      <trkpt lat="49.17846" lon="-0.79435">
        <ele>128</ele>
        <time>2023-04-25T12:05:08Z</time>
      </trkpt>
      <trkpt lat="49.17845" lon="-0.79448">
        <ele>128</ele>
        <time>2023-04-25T12:05:09Z</time>
      </trkpt>
      <trkpt lat="49.17845" lon="-0.7946">
        <ele>128</ele>
        <time>2023-04-25T12:05:10Z</time>
      </trkpt>
      <trkpt lat="49.17844" lon="-0.79472">
        <ele>128</ele>
        <time>2023-04-25T12:05:11Z</time>
      </trkpt>
      <trkpt lat="49.17844" lon="-0.79484">
        <ele>128</ele>
        <time>2023-04-25T12:05:12Z</time>
      </trkpt>
      <trkpt lat="49.17843" lon="-0.79495">
        <ele>128</ele>
        <time>2023-04-25T12:05:13Z</time>
      </trkpt>
      <trkpt lat="49.17843" lon="-0.79507">
        <ele>128.2</ele>
        <time>2023-04-25T12:05:14Z</time>
      </trkpt>
      <trkpt lat="49.17843" lon="-0.79519">
        <ele>128.4</ele>
        <time>2023-04-25T12:05:15Z</time>
      </trkpt>
      <trkpt lat="49.17842" lon="-0.7953">
        <ele>128.6</ele>
        <time>2023-04-25T12:05:16Z</time>
      </trkpt>
      <trkpt lat="49.17842" lon="-0.79541">
        <ele>128.8</ele>
        <time>2023-04-25T12:05:17Z</time>
      </trkpt>
      <trkpt lat="49.17842" lon="-0.79553">
        <ele>129.2</ele>
        <time>2023-04-25T12:05:18Z</time>
      </trkpt>
      <trkpt lat="49.17841" lon="-0.79563">
        <ele>129.6</ele>
        <time>2023-04-25T12:05:19Z</time>
      </trkpt>
      <trkpt lat="49.17841" lon="-0.79574">
        <ele>129.6</ele>
        <time>2023-04-25T12:05:20Z</time>
      </trkpt>
      <trkpt lat="49.1784" lon="-0.79585">
        <ele>129.8</ele>
        <time>2023-04-25T12:05:21Z</time>
      </trkpt>
      <trkpt lat="49.1784" lon="-0.79596">
        <ele>129.8</ele>
        <time>2023-04-25T12:05:22Z</time>
      </trkpt>
      <trkpt lat="49.1784" lon="-0.79607">
        <ele>129.8</ele>
        <time>2023-04-25T12:05:23Z</time>
      </trkpt>
      <trkpt lat="49.17839" lon="-0.79618">
        <ele>130</ele>
        <time>2023-04-25T12:05:24Z</time>
      </trkpt>
      <trkpt lat="49.17839" lon="-0.79628">
        <ele>130</ele>
        <time>2023-04-25T12:05:25Z</time>
      </trkpt>
      <trkpt lat="49.17839" lon="-0.79639">
        <ele>130</ele>
        <time>2023-04-25T12:05:26Z</time>
      </trkpt>
      <trkpt lat="49.17838" lon="-0.7965">
        <ele>130</ele>
        <time>2023-04-25T12:05:27Z</time>
      </trkpt>
      <trkpt lat="49.17838" lon="-0.7966">
        <ele>130</ele>
        <time>2023-04-25T12:05:28Z</time>
      </trkpt>
      <trkpt lat="49.17837" lon="-0.79671">
        <ele>130</ele>
        <time>2023-04-25T12:05:29Z</time>
      </trkpt>
      <trkpt lat="49.17837" lon="-0.79681">
        <ele>130.2</ele>
        <time>2023-04-25T12:05:30Z</time>
      </trkpt>
      <trkpt lat="49.17837" lon="-0.79692">
        <ele>130.4</ele>
        <time>2023-04-25T12:05:31Z</time>
      </trkpt>
      <trkpt lat="49.17836" lon="-0.79703">
        <ele>130.4</ele>
        <time>2023-04-25T12:05:32Z</time>
      </trkpt>
      <trkpt lat="49.17836" lon="-0.79713">
        <ele>130.6</ele>
        <time>2023-04-25T12:05:33Z</time>
      </trkpt>
      <trkpt lat="49.17836" lon="-0.79724">
        <ele>130.6</ele>
        <time>2023-04-25T12:05:34Z</time>
      </trkpt>
      <trkpt lat="49.17835" lon="-0.79735">
        <ele>130.8</ele>
        <time>2023-04-25T12:05:35Z</time>
      </trkpt>
      <trkpt lat="49.17835" lon="-0.79745">
        <ele>130.8</ele>
        <time>2023-04-25T12:05:36Z</time>
      </trkpt>
      <trkpt lat="49.17835" lon="-0.79756">
        <ele>131</ele>
        <time>2023-04-25T12:05:37Z</time>
      </trkpt>
      <trkpt lat="49.17834" lon="-0.79767">
        <ele>131</ele>
        <time>2023-04-25T12:05:38Z</time>
      </trkpt>
      <trkpt lat="49.17834" lon="-0.79777">
        <ele>131</ele>
        <time>2023-04-25T12:05:39Z</time>
      </trkpt>
      <trkpt lat="49.17833" lon="-0.79788">
        <ele>131</ele>
        <time>2023-04-25T12:05:40Z</time>
      </trkpt>
      <trkpt lat="49.17833" lon="-0.79798">
        <ele>131</ele>
        <time>2023-04-25T12:05:41Z</time>
      </trkpt>
      <trkpt lat="49.17833" lon="-0.79809">
        <ele>131</ele>
        <time>2023-04-25T12:05:42Z</time>
      </trkpt>
      <trkpt lat="49.17832" lon="-0.79819">
        <ele>131</ele>
        <time>2023-04-25T12:05:43Z</time>
      </trkpt>
      <trkpt lat="49.17832" lon="-0.7983">
        <ele>131</ele>
        <time>2023-04-25T12:05:44Z</time>
      </trkpt>
      <trkpt lat="49.17832" lon="-0.79841">
        <ele>130.8</ele>
        <time>2023-04-25T12:05:45Z</time>
      </trkpt>
      <trkpt lat="49.17831" lon="-0.79851">
        <ele>130.8</ele>
        <time>2023-04-25T12:05:46Z</time>
      </trkpt>
      <trkpt lat="49.17831" lon="-0.79862">
        <ele>130.6</ele>
        <time>2023-04-25T12:05:47Z</time>
      </trkpt>
      <trkpt lat="49.17831" lon="-0.79873">
        <ele>130.6</ele>
        <time>2023-04-25T12:05:48Z</time>
      </trkpt>
      <trkpt lat="49.1783" lon="-0.79884">
        <ele>130.4</ele>
        <time>2023-04-25T12:05:49Z</time>
      </trkpt>
      <trkpt lat="49.1783" lon="-0.79895">
        <ele>130.4</ele>
        <time>2023-04-25T12:05:50Z</time>
      </trkpt>
      <trkpt lat="49.1783" lon="-0.79906">
        <ele>130.2</ele>
        <time>2023-04-25T12:05:51Z</time>
      </trkpt>
      <trkpt lat="49.17829" lon="-0.79917">
        <ele>130.2</ele>
        <time>2023-04-25T12:05:52Z</time>
      </trkpt>
      <trkpt lat="49.17829" lon="-0.79927">
        <ele>130.2</ele>
        <time>2023-04-25T12:05:53Z</time>
      </trkpt>
      <trkpt lat="49.17828" lon="-0.79938">
        <ele>130.4</ele>
        <time>2023-04-25T12:05:54Z</time>
      </trkpt>
      <trkpt lat="49.17828" lon="-0.79949">
        <ele>130.4</ele>
        <time>2023-04-25T12:05:55Z</time>
      </trkpt>
      <trkpt lat="49.17828" lon="-0.7996">
        <ele>130.6</ele>
        <time>2023-04-25T12:05:56Z</time>
      </trkpt>
      <trkpt lat="49.17827" lon="-0.79971">
        <ele>130.6</ele>
        <time>2023-04-25T12:05:57Z</time>
      </trkpt>
      <trkpt lat="49.17827" lon="-0.79983">
        <ele>130.8</ele>
        <time>2023-04-25T12:05:58Z</time>
      </trkpt>
      <trkpt lat="49.17827" lon="-0.79994">
        <ele>130.8</ele>
        <time>2023-04-25T12:05:59Z</time>
      </trkpt>
      <trkpt lat="49.17828" lon="-0.80005">
        <ele>130.8</ele>
        <time>2023-04-25T12:06:00Z</time>
      </trkpt>
      <trkpt lat="49.17828" lon="-0.80016">
        <ele>130.8</ele>
        <time>2023-04-25T12:06:01Z</time>
      </trkpt>
      <trkpt lat="49.17829" lon="-0.80028">
        <ele>130.6</ele>
        <time>2023-04-25T12:06:02Z</time>
      </trkpt>
      <trkpt lat="49.17829" lon="-0.80039">
        <ele>130.6</ele>
        <time>2023-04-25T12:06:03Z</time>
      </trkpt>
      <trkpt lat="49.1783" lon="-0.80051">
        <ele>130.4</ele>
        <time>2023-04-25T12:06:04Z</time>
      </trkpt>
      <trkpt lat="49.17831" lon="-0.80062">
        <ele>130.2</ele>
        <time>2023-04-25T12:06:05Z</time>
      </trkpt>
      <trkpt lat="49.17832" lon="-0.80074">
        <ele>130.2</ele>
        <time>2023-04-25T12:06:06Z</time>
      </trkpt>
      <trkpt lat="49.17832" lon="-0.80085">
        <ele>129.8</ele>
        <time>2023-04-25T12:06:07Z</time>
      </trkpt>
      <trkpt lat="49.17833" lon="-0.80097">
        <ele>129.6</ele>
        <time>2023-04-25T12:06:08Z</time>
      </trkpt>
      <trkpt lat="49.17834" lon="-0.80109">
        <ele>129.4</ele>
        <time>2023-04-25T12:06:09Z</time>
      </trkpt>
      <trkpt lat="49.17835" lon="-0.80121">
        <ele>129.2</ele>
        <time>2023-04-25T12:06:10Z</time>
      </trkpt>
      <trkpt lat="49.17836" lon="-0.80132">
        <ele>128.8</ele>
        <time>2023-04-25T12:06:11Z</time>
      </trkpt>
      <trkpt lat="49.17837" lon="-0.80144">
        <ele>128.6</ele>
        <time>2023-04-25T12:06:12Z</time>
      </trkpt>
      <trkpt lat="49.17838" lon="-0.80156">
        <ele>128.4</ele>
        <time>2023-04-25T12:06:13Z</time>
      </trkpt>
      <trkpt lat="49.17839" lon="-0.80168">
        <ele>128.2</ele>
        <time>2023-04-25T12:06:14Z</time>
      </trkpt>
      <trkpt lat="49.1784" lon="-0.8018">
        <ele>128.2</ele>
        <time>2023-04-25T12:06:15Z</time>
      </trkpt>
      <trkpt lat="49.17841" lon="-0.80192">
        <ele>128.2</ele>
        <time>2023-04-25T12:06:16Z</time>
      </trkpt>
      <trkpt lat="49.17842" lon="-0.80203">
        <ele>128.2</ele>
        <time>2023-04-25T12:06:17Z</time>
      </trkpt>
      <trkpt lat="49.17843" lon="-0.80215">
        <ele>128</ele>
        <time>2023-04-25T12:06:18Z</time>
      </trkpt>
      <trkpt lat="49.17844" lon="-0.80227">
        <ele>128</ele>
        <time>2023-04-25T12:06:19Z</time>
      </trkpt>
      <trkpt lat="49.17845" lon="-0.80239">
        <ele>128</ele>
        <time>2023-04-25T12:06:20Z</time>
      </trkpt>
      <trkpt lat="49.17846" lon="-0.80251">
        <ele>128</ele>
        <time>2023-04-25T12:06:21Z</time>
      </trkpt>
      <trkpt lat="49.17847" lon="-0.80262">
        <ele>128.2</ele>
        <time>2023-04-25T12:06:22Z</time>
      </trkpt>
      <trkpt lat="49.17848" lon="-0.80274">
        <ele>128.2</ele>
        <time>2023-04-25T12:06:23Z</time>
      </trkpt>
      <trkpt lat="49.17849" lon="-0.80286">
        <ele>128.4</ele>
        <time>2023-04-25T12:06:24Z</time>
      </trkpt>
      <trkpt lat="49.1785" lon="-0.80297">
        <ele>128.6</ele>
        <time>2023-04-25T12:06:25Z</time>
      </trkpt>
      <trkpt lat="49.17851" lon="-0.80309">
        <ele>128.6</ele>
        <time>2023-04-25T12:06:26Z</time>
      </trkpt>
      <trkpt lat="49.17852" lon="-0.8032">
        <ele>128.6</ele>
        <time>2023-04-25T12:06:27Z</time>
      </trkpt>
      <trkpt lat="49.17852" lon="-0.80331">
        <ele>128.8</ele>
        <time>2023-04-25T12:06:28Z</time>
      </trkpt>
      <trkpt lat="49.17853" lon="-0.80342">
        <ele>128.8</ele>
        <time>2023-04-25T12:06:29Z</time>
      </trkpt>
      <trkpt lat="49.17854" lon="-0.80353">
        <ele>128.8</ele>
        <time>2023-04-25T12:06:30Z</time>
      </trkpt>
      <trkpt lat="49.17855" lon="-0.80364">
        <ele>128.8</ele>
        <time>2023-04-25T12:06:31Z</time>
      </trkpt>
      <trkpt lat="49.17856" lon="-0.80376">
        <ele>129</ele>
        <time>2023-04-25T12:06:32Z</time>
      </trkpt>
      <trkpt lat="49.17857" lon="-0.80386">
        <ele>129.2</ele>
        <time>2023-04-25T12:06:33Z</time>
      </trkpt>
      <trkpt lat="49.17858" lon="-0.80398">
        <ele>129.2</ele>
        <time>2023-04-25T12:06:34Z</time>
      </trkpt>
      <trkpt lat="49.17859" lon="-0.80409">
        <ele>129.2</ele>
        <time>2023-04-25T12:06:35Z</time>
      </trkpt>
      <trkpt lat="49.17859" lon="-0.8042">
        <ele>129.4</ele>
        <time>2023-04-25T12:06:36Z</time>
      </trkpt>
      <trkpt lat="49.1786" lon="-0.8043">
        <ele>129.6</ele>
        <time>2023-04-25T12:06:37Z</time>
      </trkpt>
      <trkpt lat="49.17861" lon="-0.80441">
        <ele>129.6</ele>
        <time>2023-04-25T12:06:38Z</time>
      </trkpt>
      <trkpt lat="49.17862" lon="-0.80452">
        <ele>129.8</ele>
        <time>2023-04-25T12:06:39Z</time>
      </trkpt>
      <trkpt lat="49.17863" lon="-0.80463">
        <ele>129.8</ele>
        <time>2023-04-25T12:06:40Z</time>
      </trkpt>
      <trkpt lat="49.17864" lon="-0.80473">
        <ele>130</ele>
        <time>2023-04-25T12:06:41Z</time>
      </trkpt>
      <trkpt lat="49.17864" lon="-0.80484">
        <ele>130.2</ele>
        <time>2023-04-25T12:06:42Z</time>
      </trkpt>
      <trkpt lat="49.17865" lon="-0.80494">
        <ele>130.4</ele>
        <time>2023-04-25T12:06:43Z</time>
      </trkpt>
      <trkpt lat="49.17866" lon="-0.80505">
        <ele>130.4</ele>
        <time>2023-04-25T12:06:44Z</time>
      </trkpt>
      <trkpt lat="49.17867" lon="-0.80515">
        <ele>130.4</ele>
        <time>2023-04-25T12:06:45Z</time>
      </trkpt>
      <trkpt lat="49.17868" lon="-0.80526">
        <ele>130.2</ele>
        <time>2023-04-25T12:06:46Z</time>
      </trkpt>
      <trkpt lat="49.17869" lon="-0.80536">
        <ele>130.2</ele>
        <time>2023-04-25T12:06:47Z</time>
      </trkpt>
      <trkpt lat="49.17869" lon="-0.80546">
        <ele>130.2</ele>
        <time>2023-04-25T12:06:48Z</time>
      </trkpt>
      <trkpt lat="49.1787" lon="-0.80557">
        <ele>130.2</ele>
        <time>2023-04-25T12:06:49Z</time>
      </trkpt>
      <trkpt lat="49.17871" lon="-0.80567">
        <ele>130</ele>
        <time>2023-04-25T12:06:50Z</time>
      </trkpt>
      <trkpt lat="49.17872" lon="-0.80577">
        <ele>130</ele>
        <time>2023-04-25T12:06:51Z</time>
      </trkpt>
      <trkpt lat="49.17873" lon="-0.80588">
        <ele>129.8</ele>
        <time>2023-04-25T12:06:52Z</time>
      </trkpt>
      <trkpt lat="49.17874" lon="-0.80598">
        <ele>129.8</ele>
        <time>2023-04-25T12:06:53Z</time>
      </trkpt>
      <trkpt lat="49.17875" lon="-0.80608">
        <ele>129.6</ele>
        <time>2023-04-25T12:06:54Z</time>
      </trkpt>
      <trkpt lat="49.17875" lon="-0.80619">
        <ele>129.6</ele>
        <time>2023-04-25T12:06:55Z</time>
      </trkpt>
      <trkpt lat="49.17876" lon="-0.80629">
        <ele>129.6</ele>
        <time>2023-04-25T12:06:56Z</time>
      </trkpt>
      <trkpt lat="49.17877" lon="-0.80639">
        <ele>129.4</ele>
        <time>2023-04-25T12:06:57Z</time>
      </trkpt>
      <trkpt lat="49.17878" lon="-0.80649">
        <ele>129.4</ele>
        <time>2023-04-25T12:06:58Z</time>
      </trkpt>
      <trkpt lat="49.17879" lon="-0.80659">
        <ele>129.2</ele>
        <time>2023-04-25T12:06:59Z</time>
      </trkpt>
      <trkpt lat="49.1788" lon="-0.80669">
        <ele>129.2</ele>
        <time>2023-04-25T12:07:00Z</time>
      </trkpt>
      <trkpt lat="49.1788" lon="-0.80679">
        <ele>129.2</ele>
        <time>2023-04-25T12:07:01Z</time>
      </trkpt>
      <trkpt lat="49.17881" lon="-0.80689">
        <ele>129.2</ele>
        <time>2023-04-25T12:07:02Z</time>
      </trkpt>
      <trkpt lat="49.17882" lon="-0.80699">
        <ele>129.2</ele>
        <time>2023-04-25T12:07:03Z</time>
      </trkpt>
      <trkpt lat="49.17883" lon="-0.80709">
        <ele>129.2</ele>
        <time>2023-04-25T12:07:04Z</time>
      </trkpt>
      <trkpt lat="49.17884" lon="-0.80719">
        <ele>129.2</ele>
        <time>2023-04-25T12:07:05Z</time>
      </trkpt>
      <trkpt lat="49.17884" lon="-0.80729">
        <ele>129.2</ele>
        <time>2023-04-25T12:07:06Z</time>
      </trkpt>
      <trkpt lat="49.17885" lon="-0.80739">
        <ele>129</ele>
        <time>2023-04-25T12:07:07Z</time>
      </trkpt>
      <trkpt lat="49.17886" lon="-0.80749">
        <ele>129</ele>
        <time>2023-04-25T12:07:08Z</time>
      </trkpt>
      <trkpt lat="49.17887" lon="-0.80759">
        <ele>129</ele>
        <time>2023-04-25T12:07:09Z</time>
      </trkpt>
      <trkpt lat="49.17888" lon="-0.80769">
        <ele>129</ele>
        <time>2023-04-25T12:07:10Z</time>
      </trkpt>
      <trkpt lat="49.17888" lon="-0.80779">
        <ele>129</ele>
        <time>2023-04-25T12:07:11Z</time>
      </trkpt>
      <trkpt lat="49.17889" lon="-0.80789">
        <ele>129</ele>
        <time>2023-04-25T12:07:12Z</time>
      </trkpt>
      <trkpt lat="49.1789" lon="-0.80799">
        <ele>129</ele>
        <time>2023-04-25T12:07:13Z</time>
      </trkpt>
      <trkpt lat="49.17891" lon="-0.80809">
        <ele>129</ele>
        <time>2023-04-25T12:07:14Z</time>
      </trkpt>
      <trkpt lat="49.17891" lon="-0.80819">
        <ele>129</ele>
        <time>2023-04-25T12:07:15Z</time>
      </trkpt>
      <trkpt lat="49.17892" lon="-0.80829">
        <ele>129</ele>
        <time>2023-04-25T12:07:16Z</time>
      </trkpt>
      <trkpt lat="49.17893" lon="-0.80839">
        <ele>129</ele>
        <time>2023-04-25T12:07:17Z</time>
      </trkpt>
      <trkpt lat="49.17894" lon="-0.80849">
        <ele>128.8</ele>
        <time>2023-04-25T12:07:18Z</time>
      </trkpt>
      <trkpt lat="49.17895" lon="-0.80859">
        <ele>128.8</ele>
        <time>2023-04-25T12:07:19Z</time>
      </trkpt>
      <trkpt lat="49.17895" lon="-0.80869">
        <ele>128.6</ele>
        <time>2023-04-25T12:07:20Z</time>
      </trkpt>
      <trkpt lat="49.17896" lon="-0.80879">
        <ele>128.6</ele>
        <time>2023-04-25T12:07:21Z</time>
      </trkpt>
      <trkpt lat="49.17897" lon="-0.80889">
        <ele>128.6</ele>
        <time>2023-04-25T12:07:22Z</time>
      </trkpt>
      <trkpt lat="49.17898" lon="-0.80899">
        <ele>128.4</ele>
        <time>2023-04-25T12:07:23Z</time>
      </trkpt>
      <trkpt lat="49.17899" lon="-0.80909">
        <ele>128.4</ele>
        <time>2023-04-25T12:07:24Z</time>
      </trkpt>
      <trkpt lat="49.179" lon="-0.80919">
        <ele>128.2</ele>
        <time>2023-04-25T12:07:25Z</time>
      </trkpt>
      <trkpt lat="49.17901" lon="-0.80929">
        <ele>128.2</ele>
        <time>2023-04-25T12:07:26Z</time>
      </trkpt>
      <trkpt lat="49.17901" lon="-0.80939">
        <ele>128.2</ele>
        <time>2023-04-25T12:07:27Z</time>
      </trkpt>
      <trkpt lat="49.17902" lon="-0.8095">
        <ele>128.2</ele>
        <time>2023-04-25T12:07:28Z</time>
      </trkpt>
      <trkpt lat="49.17903" lon="-0.8096">
        <ele>128.2</ele>
        <time>2023-04-25T12:07:29Z</time>
      </trkpt>
      <trkpt lat="49.17904" lon="-0.8097">
        <ele>128.2</ele>
        <time>2023-04-25T12:07:30Z</time>
      </trkpt>
      <trkpt lat="49.17905" lon="-0.8098">
        <ele>128.2</ele>
        <time>2023-04-25T12:07:31Z</time>
      </trkpt>
      <trkpt lat="49.17906" lon="-0.80991">
        <ele>128.2</ele>
        <time>2023-04-25T12:07:32Z</time>
      </trkpt>
      <trkpt lat="49.17906" lon="-0.81001">
        <ele>128.2</ele>
        <time>2023-04-25T12:07:33Z</time>
      </trkpt>
      <trkpt lat="49.17907" lon="-0.81011">
        <ele>128.2</ele>
        <time>2023-04-25T12:07:34Z</time>
      </trkpt>
      <trkpt lat="49.17908" lon="-0.81022">
        <ele>128.4</ele>
        <time>2023-04-25T12:07:35Z</time>
      </trkpt>
      <trkpt lat="49.17909" lon="-0.81032">
        <ele>128.4</ele>
        <time>2023-04-25T12:07:36Z</time>
      </trkpt>
      <trkpt lat="49.1791" lon="-0.81043">
        <ele>128.6</ele>
        <time>2023-04-25T12:07:37Z</time>
      </trkpt>
      <trkpt lat="49.17911" lon="-0.81053">
        <ele>128.6</ele>
        <time>2023-04-25T12:07:38Z</time>
      </trkpt>
      <trkpt lat="49.17911" lon="-0.81064">
        <ele>128.6</ele>
        <time>2023-04-25T12:07:39Z</time>
      </trkpt>
      <trkpt lat="49.17912" lon="-0.81074">
        <ele>128.8</ele>
        <time>2023-04-25T12:07:40Z</time>
      </trkpt>
      <trkpt lat="49.17913" lon="-0.81085">
        <ele>128.8</ele>
        <time>2023-04-25T12:07:41Z</time>
      </trkpt>
      <trkpt lat="49.17914" lon="-0.81095">
        <ele>128.8</ele>
        <time>2023-04-25T12:07:42Z</time>
      </trkpt>
      <trkpt lat="49.17915" lon="-0.81106">
        <ele>128.6</ele>
        <time>2023-04-25T12:07:43Z</time>
      </trkpt>
      <trkpt lat="49.17916" lon="-0.81116">
        <ele>128.6</ele>
        <time>2023-04-25T12:07:44Z</time>
      </trkpt>
      <trkpt lat="49.17917" lon="-0.81127">
        <ele>128.6</ele>
        <time>2023-04-25T12:07:45Z</time>
      </trkpt>
      <trkpt lat="49.17917" lon="-0.81138">
        <ele>128.4</ele>
        <time>2023-04-25T12:07:46Z</time>
      </trkpt>
      <trkpt lat="49.17918" lon="-0.81148">
        <ele>128.2</ele>
        <time>2023-04-25T12:07:47Z</time>
      </trkpt>
      <trkpt lat="49.17919" lon="-0.81159">
        <ele>128.2</ele>
        <time>2023-04-25T12:07:48Z</time>
      </trkpt>
      <trkpt lat="49.1792" lon="-0.81169">
        <ele>128.2</ele>
        <time>2023-04-25T12:07:49Z</time>
      </trkpt>
      <trkpt lat="49.17921" lon="-0.8118">
        <ele>128.2</ele>
        <time>2023-04-25T12:07:50Z</time>
      </trkpt>
      <trkpt lat="49.17922" lon="-0.81191">
        <ele>128.4</ele>
        <time>2023-04-25T12:07:51Z</time>
      </trkpt>
      <trkpt lat="49.17923" lon="-0.81201">
        <ele>128.6</ele>
        <time>2023-04-25T12:07:52Z</time>
      </trkpt>
      <trkpt lat="49.17924" lon="-0.81212">
        <ele>128.6</ele>
        <time>2023-04-25T12:07:53Z</time>
      </trkpt>
      <trkpt lat="49.17924" lon="-0.81222">
        <ele>128.6</ele>
        <time>2023-04-25T12:07:54Z</time>
      </trkpt>
      <trkpt lat="49.17925" lon="-0.81233">
        <ele>128.8</ele>
        <time>2023-04-25T12:07:55Z</time>
      </trkpt>
      <trkpt lat="49.17926" lon="-0.81244">
        <ele>128.8</ele>
        <time>2023-04-25T12:07:56Z</time>
      </trkpt>
      <trkpt lat="49.17927" lon="-0.81254">
        <ele>129</ele>
        <time>2023-04-25T12:07:57Z</time>
      </trkpt>
      <trkpt lat="49.17928" lon="-0.81265">
        <ele>129</ele>
        <time>2023-04-25T12:07:58Z</time>
      </trkpt>
      <trkpt lat="49.17929" lon="-0.81275">
        <ele>129</ele>
        <time>2023-04-25T12:07:59Z</time>
      </trkpt>
      <trkpt lat="49.1793" lon="-0.81286">
        <ele>129.2</ele>
        <time>2023-04-25T12:08:00Z</time>
      </trkpt>
      <trkpt lat="49.1793" lon="-0.81296">
        <ele>129.2</ele>
        <time>2023-04-25T12:08:01Z</time>
      </trkpt>
      <trkpt lat="49.17931" lon="-0.81307">
        <ele>129.2</ele>
        <time>2023-04-25T12:08:02Z</time>
      </trkpt>
      <trkpt lat="49.17932" lon="-0.81317">
        <ele>129.2</ele>
        <time>2023-04-25T12:08:03Z</time>
      </trkpt>
      <trkpt lat="49.17933" lon="-0.81327">
        <ele>129.2</ele>
        <time>2023-04-25T12:08:04Z</time>
      </trkpt>
      <trkpt lat="49.17934" lon="-0.81338">
        <ele>129.2</ele>
        <time>2023-04-25T12:08:05Z</time>
      </trkpt>
      <trkpt lat="49.17934" lon="-0.81348">
        <ele>129.4</ele>
        <time>2023-04-25T12:08:06Z</time>
      </trkpt>
      <trkpt lat="49.17935" lon="-0.81358">
        <ele>129.6</ele>
        <time>2023-04-25T12:08:07Z</time>
      </trkpt>
      <trkpt lat="49.17936" lon="-0.81368">
        <ele>129.6</ele>
        <time>2023-04-25T12:08:08Z</time>
      </trkpt>
      <trkpt lat="49.17937" lon="-0.81378">
        <ele>129.6</ele>
        <time>2023-04-25T12:08:09Z</time>
      </trkpt>
      <trkpt lat="49.17938" lon="-0.81388">
        <ele>129.6</ele>
        <time>2023-04-25T12:08:10Z</time>
      </trkpt>
      <trkpt lat="49.17938" lon="-0.81398">
        <ele>129.8</ele>
        <time>2023-04-25T12:08:11Z</time>
      </trkpt>
      <trkpt lat="49.17939" lon="-0.81408">
        <ele>129.8</ele>
        <time>2023-04-25T12:08:12Z</time>
      </trkpt>
      <trkpt lat="49.1794" lon="-0.81419">
        <ele>130</ele>
        <time>2023-04-25T12:08:13Z</time>
      </trkpt>
      <trkpt lat="49.17941" lon="-0.81429">
        <ele>130</ele>
        <time>2023-04-25T12:08:14Z</time>
      </trkpt>
      <trkpt lat="49.17942" lon="-0.81439">
        <ele>130</ele>
        <time>2023-04-25T12:08:15Z</time>
      </trkpt>
      <trkpt lat="49.17942" lon="-0.81449">
        <ele>130</ele>
        <time>2023-04-25T12:08:16Z</time>
      </trkpt>
      <trkpt lat="49.17943" lon="-0.81459">
        <ele>130</ele>
        <time>2023-04-25T12:08:17Z</time>
      </trkpt>
      <trkpt lat="49.17944" lon="-0.81469">
        <ele>130</ele>
        <time>2023-04-25T12:08:18Z</time>
      </trkpt>
      <trkpt lat="49.17945" lon="-0.8148">
        <ele>130</ele>
        <time>2023-04-25T12:08:19Z</time>
      </trkpt>
      <trkpt lat="49.17946" lon="-0.8149">
        <ele>130</ele>
        <time>2023-04-25T12:08:20Z</time>
      </trkpt>
      <trkpt lat="49.17947" lon="-0.815">
        <ele>130</ele>
        <time>2023-04-25T12:08:21Z</time>
      </trkpt>
      <trkpt lat="49.17947" lon="-0.8151">
        <ele>129.8</ele>
        <time>2023-04-25T12:08:22Z</time>
      </trkpt>
      <trkpt lat="49.17948" lon="-0.81521">
        <ele>129.8</ele>
        <time>2023-04-25T12:08:23Z</time>
      </trkpt>
      <trkpt lat="49.17949" lon="-0.81531">
        <ele>129.6</ele>
        <time>2023-04-25T12:08:24Z</time>
      </trkpt>
      <trkpt lat="49.1795" lon="-0.81541">
        <ele>129.6</ele>
        <time>2023-04-25T12:08:25Z</time>
      </trkpt>
      <trkpt lat="49.17951" lon="-0.81551">
        <ele>129.4</ele>
        <time>2023-04-25T12:08:26Z</time>
      </trkpt>
      <trkpt lat="49.17951" lon="-0.81562">
        <ele>129.4</ele>
        <time>2023-04-25T12:08:27Z</time>
      </trkpt>
      <trkpt lat="49.17952" lon="-0.81572">
        <ele>129.2</ele>
        <time>2023-04-25T12:08:28Z</time>
      </trkpt>
      <trkpt lat="49.17953" lon="-0.81582">
        <ele>129</ele>
        <time>2023-04-25T12:08:29Z</time>
      </trkpt>
      <trkpt lat="49.17954" lon="-0.81592">
        <ele>129</ele>
        <time>2023-04-25T12:08:30Z</time>
      </trkpt>
      <trkpt lat="49.17955" lon="-0.81601">
        <ele>128.8</ele>
        <time>2023-04-25T12:08:31Z</time>
      </trkpt>
      <trkpt lat="49.17956" lon="-0.81611">
        <ele>128.8</ele>
        <time>2023-04-25T12:08:32Z</time>
      </trkpt>
      <trkpt lat="49.17956" lon="-0.81621">
        <ele>128.8</ele>
        <time>2023-04-25T12:08:33Z</time>
      </trkpt>
      <trkpt lat="49.17957" lon="-0.81631">
        <ele>128.6</ele>
        <time>2023-04-25T12:08:34Z</time>
      </trkpt>
      <trkpt lat="49.17958" lon="-0.81641">
        <ele>128.6</ele>
        <time>2023-04-25T12:08:35Z</time>
      </trkpt>
      <trkpt lat="49.17959" lon="-0.81651">
        <ele>128.6</ele>
        <time>2023-04-25T12:08:36Z</time>
      </trkpt>
      <trkpt lat="49.17959" lon="-0.81661">
        <ele>128.6</ele>
        <time>2023-04-25T12:08:37Z</time>
      </trkpt>
      <trkpt lat="49.1796" lon="-0.81671">
        <ele>128.6</ele>
        <time>2023-04-25T12:08:38Z</time>
      </trkpt>
      <trkpt lat="49.17961" lon="-0.81681">
        <ele>128.6</ele>
        <time>2023-04-25T12:08:39Z</time>
      </trkpt>
      <trkpt lat="49.17961" lon="-0.8169">
        <ele>128.6</ele>
        <time>2023-04-25T12:08:40Z</time>
      </trkpt>
      <trkpt lat="49.17962" lon="-0.817">
        <ele>128.6</ele>
        <time>2023-04-25T12:08:41Z</time>
      </trkpt>
      <trkpt lat="49.17963" lon="-0.8171">
        <ele>128.6</ele>
        <time>2023-04-25T12:08:42Z</time>
      </trkpt>
      <trkpt lat="49.17964" lon="-0.8172">
        <ele>128.8</ele>
        <time>2023-04-25T12:08:43Z</time>
      </trkpt>
      <trkpt lat="49.17965" lon="-0.8173">
        <ele>128.8</ele>
        <time>2023-04-25T12:08:44Z</time>
      </trkpt>
      <trkpt lat="49.17966" lon="-0.81739">
        <ele>128.8</ele>
        <time>2023-04-25T12:08:45Z</time>
      </trkpt>
      <trkpt lat="49.17967" lon="-0.81749">
        <ele>129</ele>
        <time>2023-04-25T12:08:46Z</time>
      </trkpt>
      <trkpt lat="49.17967" lon="-0.81759">
        <ele>129</ele>
        <time>2023-04-25T12:08:47Z</time>
      </trkpt>
      <trkpt lat="49.17968" lon="-0.81768">
        <ele>129</ele>
        <time>2023-04-25T12:08:48Z</time>
      </trkpt>
      <trkpt lat="49.17969" lon="-0.81778">
        <ele>129</ele>
        <time>2023-04-25T12:08:49Z</time>
      </trkpt>
      <trkpt lat="49.1797" lon="-0.81788">
        <ele>129</ele>
        <time>2023-04-25T12:08:50Z</time>
      </trkpt>
      <trkpt lat="49.17971" lon="-0.81797">
        <ele>129</ele>
        <time>2023-04-25T12:08:51Z</time>
      </trkpt>
      <trkpt lat="49.17971" lon="-0.81807">
        <ele>129</ele>
        <time>2023-04-25T12:08:52Z</time>
      </trkpt>
      <trkpt lat="49.17972" lon="-0.81817">
        <ele>129</ele>
        <time>2023-04-25T12:08:53Z</time>
      </trkpt>
      <trkpt lat="49.17973" lon="-0.81827">
        <ele>129</ele>
        <time>2023-04-25T12:08:54Z</time>
      </trkpt>
      <trkpt lat="49.17974" lon="-0.81836">
        <ele>129</ele>
        <time>2023-04-25T12:08:55Z</time>
      </trkpt>
      <trkpt lat="49.17974" lon="-0.81846">
        <ele>129</ele>
        <time>2023-04-25T12:08:56Z</time>
      </trkpt>
      <trkpt lat="49.17975" lon="-0.81856">
        <ele>129</ele>
        <time>2023-04-25T12:08:57Z</time>
      </trkpt>
      <trkpt lat="49.17976" lon="-0.81866">
        <ele>129</ele>
        <time>2023-04-25T12:08:58Z</time>
      </trkpt>
      <trkpt lat="49.17977" lon="-0.81876">
        <ele>129</ele>
        <time>2023-04-25T12:08:59Z</time>
      </trkpt>
      <trkpt lat="49.17977" lon="-0.81885">
        <ele>129</ele>
        <time>2023-04-25T12:09:00Z</time>
      </trkpt>
      <trkpt lat="49.17978" lon="-0.81895">
        <ele>129</ele>
        <time>2023-04-25T12:09:01Z</time>
      </trkpt>
      <trkpt lat="49.17979" lon="-0.81905">
        <ele>129</ele>
        <time>2023-04-25T12:09:02Z</time>
      </trkpt>
      <trkpt lat="49.1798" lon="-0.81915">
        <ele>129</ele>
        <time>2023-04-25T12:09:03Z</time>
      </trkpt>
      <trkpt lat="49.17981" lon="-0.81925">
        <ele>129.2</ele>
        <time>2023-04-25T12:09:04Z</time>
      </trkpt>
      <trkpt lat="49.17981" lon="-0.81935">
        <ele>129.2</ele>
        <time>2023-04-25T12:09:05Z</time>
      </trkpt>
      <trkpt lat="49.17982" lon="-0.81944">
        <ele>129.4</ele>
        <time>2023-04-25T12:09:06Z</time>
      </trkpt>
      <trkpt lat="49.17983" lon="-0.81954">
        <ele>129.4</ele>
        <time>2023-04-25T12:09:07Z</time>
      </trkpt>
      <trkpt lat="49.17983" lon="-0.81964">
        <ele>129.6</ele>
        <time>2023-04-25T12:09:08Z</time>
      </trkpt>
      <trkpt lat="49.17984" lon="-0.81974">
        <ele>129.6</ele>
        <time>2023-04-25T12:09:09Z</time>
      </trkpt>
      <trkpt lat="49.17985" lon="-0.81983">
        <ele>129.6</ele>
        <time>2023-04-25T12:09:10Z</time>
      </trkpt>
      <trkpt lat="49.17986" lon="-0.81993">
        <ele>129.8</ele>
        <time>2023-04-25T12:09:11Z</time>
      </trkpt>
      <trkpt lat="49.17986" lon="-0.82003">
        <ele>129.8</ele>
        <time>2023-04-25T12:09:12Z</time>
      </trkpt>
      <trkpt lat="49.17987" lon="-0.82013">
        <ele>129.8</ele>
        <time>2023-04-25T12:09:13Z</time>
      </trkpt>
      <trkpt lat="49.17988" lon="-0.82023">
        <ele>129.8</ele>
        <time>2023-04-25T12:09:14Z</time>
      </trkpt>
      <trkpt lat="49.17989" lon="-0.82033">
        <ele>129.8</ele>
        <time>2023-04-25T12:09:15Z</time>
      </trkpt>
      <trkpt lat="49.1799" lon="-0.82043">
        <ele>129.8</ele>
        <time>2023-04-25T12:09:16Z</time>
      </trkpt>
      <trkpt lat="49.17991" lon="-0.82054">
        <ele>129.8</ele>
        <time>2023-04-25T12:09:17Z</time>
      </trkpt>
      <trkpt lat="49.17992" lon="-0.82064">
        <ele>129.8</ele>
        <time>2023-04-25T12:09:18Z</time>
      </trkpt>
      <trkpt lat="49.17993" lon="-0.82073">
        <ele>129.8</ele>
        <time>2023-04-25T12:09:19Z</time>
      </trkpt>
      <trkpt lat="49.17993" lon="-0.82083">
        <ele>129.8</ele>
        <time>2023-04-25T12:09:20Z</time>
      </trkpt>
      <trkpt lat="49.17994" lon="-0.82093">
        <ele>129.8</ele>
        <time>2023-04-25T12:09:21Z</time>
      </trkpt>
      <trkpt lat="49.17995" lon="-0.82103">
        <ele>129.6</ele>
        <time>2023-04-25T12:09:22Z</time>
      </trkpt>
      <trkpt lat="49.17995" lon="-0.82114">
        <ele>129.6</ele>
        <time>2023-04-25T12:09:23Z</time>
      </trkpt>
      <trkpt lat="49.17996" lon="-0.82124">
        <ele>129.6</ele>
        <time>2023-04-25T12:09:24Z</time>
      </trkpt>
      <trkpt lat="49.17997" lon="-0.82134">
        <ele>129.4</ele>
        <time>2023-04-25T12:09:25Z</time>
      </trkpt>
      <trkpt lat="49.17998" lon="-0.82145">
        <ele>129.2</ele>
        <time>2023-04-25T12:09:26Z</time>
      </trkpt>
      <trkpt lat="49.17999" lon="-0.82155">
        <ele>129.2</ele>
        <time>2023-04-25T12:09:27Z</time>
      </trkpt>
      <trkpt lat="49.18" lon="-0.82165">
        <ele>129</ele>
        <time>2023-04-25T12:09:28Z</time>
      </trkpt>
      <trkpt lat="49.18001" lon="-0.82176">
        <ele>128.8</ele>
        <time>2023-04-25T12:09:29Z</time>
      </trkpt>
      <trkpt lat="49.18001" lon="-0.82186">
        <ele>128.6</ele>
        <time>2023-04-25T12:09:30Z</time>
      </trkpt>
      <trkpt lat="49.18003" lon="-0.82197">
        <ele>128.6</ele>
        <time>2023-04-25T12:09:31Z</time>
      </trkpt>
      <trkpt lat="49.18004" lon="-0.82208">
        <ele>128.6</ele>
        <time>2023-04-25T12:09:32Z</time>
      </trkpt>
      <trkpt lat="49.18005" lon="-0.82219">
        <ele>128.4</ele>
        <time>2023-04-25T12:09:33Z</time>
      </trkpt>
      <trkpt lat="49.18006" lon="-0.8223">
        <ele>128.2</ele>
        <time>2023-04-25T12:09:34Z</time>
      </trkpt>
      <trkpt lat="49.18007" lon="-0.82242">
        <ele>128.2</ele>
        <time>2023-04-25T12:09:35Z</time>
      </trkpt>
      <trkpt lat="49.18008" lon="-0.82253">
        <ele>128</ele>
        <time>2023-04-25T12:09:36Z</time>
      </trkpt>
      <trkpt lat="49.18009" lon="-0.82265">
        <ele>127.6</ele>
        <time>2023-04-25T12:09:37Z</time>
      </trkpt>
      <trkpt lat="49.1801" lon="-0.82276">
        <ele>127.4</ele>
        <time>2023-04-25T12:09:38Z</time>
      </trkpt>
      <trkpt lat="49.18011" lon="-0.82288">
        <ele>127</ele>
        <time>2023-04-25T12:09:39Z</time>
      </trkpt>
      <trkpt lat="49.18012" lon="-0.82299">
        <ele>126.8</ele>
        <time>2023-04-25T12:09:40Z</time>
      </trkpt>
      <trkpt lat="49.18013" lon="-0.8231">
        <ele>126.6</ele>
        <time>2023-04-25T12:09:41Z</time>
      </trkpt>
      <trkpt lat="49.18014" lon="-0.82322">
        <ele>126.4</ele>
        <time>2023-04-25T12:09:42Z</time>
      </trkpt>
      <trkpt lat="49.18015" lon="-0.82333">
        <ele>126</ele>
        <time>2023-04-25T12:09:43Z</time>
      </trkpt>
      <trkpt lat="49.18016" lon="-0.82344">
        <ele>126</ele>
        <time>2023-04-25T12:09:44Z</time>
      </trkpt>
      <trkpt lat="49.18018" lon="-0.82355">
        <ele>125.6</ele>
        <time>2023-04-25T12:09:45Z</time>
      </trkpt>
      <trkpt lat="49.1802" lon="-0.82367">
        <ele>125.6</ele>
        <time>2023-04-25T12:09:46Z</time>
      </trkpt>
      <trkpt lat="49.18023" lon="-0.82378">
        <ele>125.6</ele>
        <time>2023-04-25T12:09:47Z</time>
      </trkpt>
      <trkpt lat="49.18027" lon="-0.82388">
        <ele>125.4</ele>
        <time>2023-04-25T12:09:48Z</time>
      </trkpt>
      <trkpt lat="49.18031" lon="-0.82398">
        <ele>125.2</ele>
        <time>2023-04-25T12:09:49Z</time>
      </trkpt>
      <trkpt lat="49.18037" lon="-0.82407">
        <ele>125</ele>
        <time>2023-04-25T12:09:50Z</time>
      </trkpt>
      <trkpt lat="49.18043" lon="-0.82414">
        <ele>125</ele>
        <time>2023-04-25T12:09:51Z</time>
      </trkpt>
      <trkpt lat="49.18049" lon="-0.82421">
        <ele>125</ele>
        <time>2023-04-25T12:09:52Z</time>
      </trkpt>
      <trkpt lat="49.18056" lon="-0.82427">
        <ele>125</ele>
        <time>2023-04-25T12:09:53Z</time>
      </trkpt>
      <trkpt lat="49.18063" lon="-0.82433">
        <ele>125</ele>
        <time>2023-04-25T12:09:54Z</time>
      </trkpt>
      <trkpt lat="49.1807" lon="-0.82438">
        <ele>125.2</ele>
        <time>2023-04-25T12:09:55Z</time>
      </trkpt>
      <trkpt lat="49.18077" lon="-0.82443">
        <ele>125.4</ele>
        <time>2023-04-25T12:09:56Z</time>
      </trkpt>
      <trkpt lat="49.18084" lon="-0.82448">
        <ele>125.4</ele>
        <time>2023-04-25T12:09:57Z</time>
      </trkpt>
      <trkpt lat="49.18091" lon="-0.82453">
        <ele>125.4</ele>
        <time>2023-04-25T12:09:58Z</time>
      </trkpt>
      <trkpt lat="49.18098" lon="-0.82457">
        <ele>125.6</ele>
        <time>2023-04-25T12:09:59Z</time>
      </trkpt>
      <trkpt lat="49.18105" lon="-0.82462">
        <ele>125.6</ele>
        <time>2023-04-25T12:10:00Z</time>
      </trkpt>
      <trkpt lat="49.18112" lon="-0.82467">
        <ele>125.6</ele>
        <time>2023-04-25T12:10:01Z</time>
      </trkpt>
      <trkpt lat="49.18118" lon="-0.82471">
        <ele>125.6</ele>
        <time>2023-04-25T12:10:02Z</time>
      </trkpt>
      <trkpt lat="49.18125" lon="-0.82476">
        <ele>125.6</ele>
        <time>2023-04-25T12:10:03Z</time>
      </trkpt>
      <trkpt lat="49.18132" lon="-0.82481">
        <ele>125.6</ele>
        <time>2023-04-25T12:10:04Z</time>
      </trkpt>
      <trkpt lat="49.18139" lon="-0.82485">
        <ele>125.4</ele>
        <time>2023-04-25T12:10:05Z</time>
      </trkpt>
      <trkpt lat="49.18146" lon="-0.8249">
        <ele>125.4</ele>
        <time>2023-04-25T12:10:06Z</time>
      </trkpt>
      <trkpt lat="49.18152" lon="-0.82494">
        <ele>125.2</ele>
        <time>2023-04-25T12:10:07Z</time>
      </trkpt>
      <trkpt lat="49.18159" lon="-0.82499">
        <ele>125</ele>
        <time>2023-04-25T12:10:08Z</time>
      </trkpt>
      <trkpt lat="49.18166" lon="-0.82504">
        <ele>125</ele>
        <time>2023-04-25T12:10:09Z</time>
      </trkpt>
      <trkpt lat="49.18173" lon="-0.82508">
        <ele>124.8</ele>
        <time>2023-04-25T12:10:10Z</time>
      </trkpt>
      <trkpt lat="49.1818" lon="-0.82513">
        <ele>124.6</ele>
        <time>2023-04-25T12:10:11Z</time>
      </trkpt>
      <trkpt lat="49.18186" lon="-0.82517">
        <ele>124.6</ele>
        <time>2023-04-25T12:10:12Z</time>
      </trkpt>
      <trkpt lat="49.18193" lon="-0.82522">
        <ele>124.6</ele>
        <time>2023-04-25T12:10:13Z</time>
      </trkpt>
      <trkpt lat="49.182" lon="-0.82527">
        <ele>124.4</ele>
        <time>2023-04-25T12:10:14Z</time>
      </trkpt>
      <trkpt lat="49.18207" lon="-0.82531">
        <ele>124.4</ele>
        <time>2023-04-25T12:10:15Z</time>
      </trkpt>
      <trkpt lat="49.18214" lon="-0.82536">
        <ele>124.2</ele>
        <time>2023-04-25T12:10:16Z</time>
      </trkpt>
      <trkpt lat="49.18221" lon="-0.82541">
        <ele>124.2</ele>
        <time>2023-04-25T12:10:17Z</time>
      </trkpt>
      <trkpt lat="49.18228" lon="-0.82546">
        <ele>124</ele>
        <time>2023-04-25T12:10:18Z</time>
      </trkpt>
      <trkpt lat="49.18235" lon="-0.8255">
        <ele>124</ele>
        <time>2023-04-25T12:10:19Z</time>
      </trkpt>
      <trkpt lat="49.18242" lon="-0.82555">
        <ele>124</ele>
        <time>2023-04-25T12:10:20Z</time>
      </trkpt>
      <trkpt lat="49.18249" lon="-0.82559">
        <ele>124</ele>
        <time>2023-04-25T12:10:21Z</time>
      </trkpt>
      <trkpt lat="49.18255" lon="-0.82564">
        <ele>124</ele>
        <time>2023-04-25T12:10:22Z</time>
      </trkpt>
      <trkpt lat="49.18262" lon="-0.82569">
        <ele>124</ele>
        <time>2023-04-25T12:10:23Z</time>
      </trkpt>
      <trkpt lat="49.18269" lon="-0.82573">
        <ele>124</ele>
        <time>2023-04-25T12:10:24Z</time>
      </trkpt>
      <trkpt lat="49.18275" lon="-0.82577">
        <ele>124</ele>
        <time>2023-04-25T12:10:25Z</time>
      </trkpt>
      <trkpt lat="49.18281" lon="-0.82582">
        <ele>124</ele>
        <time>2023-04-25T12:10:26Z</time>
      </trkpt>
      <trkpt lat="49.18288" lon="-0.82586">
        <ele>124</ele>
        <time>2023-04-25T12:10:27Z</time>
      </trkpt>
      <trkpt lat="49.18294" lon="-0.8259">
        <ele>124</ele>
        <time>2023-04-25T12:10:28Z</time>
      </trkpt>
      <trkpt lat="49.183" lon="-0.82594">
        <ele>124</ele>
        <time>2023-04-25T12:10:29Z</time>
      </trkpt>
      <trkpt lat="49.18306" lon="-0.82598">
        <ele>123.8</ele>
        <time>2023-04-25T12:10:30Z</time>
      </trkpt>
      <trkpt lat="49.18312" lon="-0.82602">
        <ele>123.8</ele>
        <time>2023-04-25T12:10:31Z</time>
      </trkpt>
      <trkpt lat="49.18318" lon="-0.82607">
        <ele>123.6</ele>
        <time>2023-04-25T12:10:32Z</time>
      </trkpt>
      <trkpt lat="49.18324" lon="-0.82611">
        <ele>123.6</ele>
        <time>2023-04-25T12:10:33Z</time>
      </trkpt>
      <trkpt lat="49.1833" lon="-0.82615">
        <ele>123.6</ele>
        <time>2023-04-25T12:10:34Z</time>
      </trkpt>
      <trkpt lat="49.18336" lon="-0.82619">
        <ele>123.6</ele>
        <time>2023-04-25T12:10:35Z</time>
      </trkpt>
      <trkpt lat="49.18342" lon="-0.82624">
        <ele>123.6</ele>
        <time>2023-04-25T12:10:36Z</time>
      </trkpt>
      <trkpt lat="49.18348" lon="-0.82628">
        <ele>123.4</ele>
        <time>2023-04-25T12:10:37Z</time>
      </trkpt>
      <trkpt lat="49.18354" lon="-0.82632">
        <ele>123.4</ele>
        <time>2023-04-25T12:10:38Z</time>
      </trkpt>
      <trkpt lat="49.1836" lon="-0.82637">
        <ele>123.2</ele>
        <time>2023-04-25T12:10:39Z</time>
      </trkpt>
      <trkpt lat="49.18366" lon="-0.82641">
        <ele>123.2</ele>
        <time>2023-04-25T12:10:40Z</time>
      </trkpt>
      <trkpt lat="49.18372" lon="-0.82646">
        <ele>123</ele>
        <time>2023-04-25T12:10:41Z</time>
      </trkpt>
      <trkpt lat="49.18378" lon="-0.8265">
        <ele>123</ele>
        <time>2023-04-25T12:10:42Z</time>
      </trkpt>
      <trkpt lat="49.18384" lon="-0.82655">
        <ele>123</ele>
        <time>2023-04-25T12:10:43Z</time>
      </trkpt>
      <trkpt lat="49.1839" lon="-0.82659">
        <ele>123</ele>
        <time>2023-04-25T12:10:44Z</time>
      </trkpt>
      <trkpt lat="49.18396" lon="-0.82663">
        <ele>123</ele>
        <time>2023-04-25T12:10:45Z</time>
      </trkpt>
      <trkpt lat="49.18402" lon="-0.82668">
        <ele>123</ele>
        <time>2023-04-25T12:10:46Z</time>
      </trkpt>
      <trkpt lat="49.18408" lon="-0.82672">
        <ele>123</ele>
        <time>2023-04-25T12:10:47Z</time>
      </trkpt>
      <trkpt lat="49.18414" lon="-0.82676">
        <ele>122.8</ele>
        <time>2023-04-25T12:10:48Z</time>
      </trkpt>
      <trkpt lat="49.1842" lon="-0.82681">
        <ele>122.6</ele>
        <time>2023-04-25T12:10:49Z</time>
      </trkpt>
      <trkpt lat="49.18427" lon="-0.82685">
        <ele>122.4</ele>
        <time>2023-04-25T12:10:50Z</time>
      </trkpt>
      <trkpt lat="49.18433" lon="-0.8269">
        <ele>122</ele>
        <time>2023-04-25T12:10:51Z</time>
      </trkpt>
      <trkpt lat="49.18439" lon="-0.82694">
        <ele>121.6</ele>
        <time>2023-04-25T12:10:52Z</time>
      </trkpt>
      <trkpt lat="49.18446" lon="-0.82698">
        <ele>121.6</ele>
        <time>2023-04-25T12:10:53Z</time>
      </trkpt>
      <trkpt lat="49.18452" lon="-0.82703">
        <ele>121.2</ele>
        <time>2023-04-25T12:10:54Z</time>
      </trkpt>
      <trkpt lat="49.18458" lon="-0.82707">
        <ele>121</ele>
        <time>2023-04-25T12:10:55Z</time>
      </trkpt>
      <trkpt lat="49.18465" lon="-0.82711">
        <ele>120.8</ele>
        <time>2023-04-25T12:10:56Z</time>
      </trkpt>
      <trkpt lat="49.18471" lon="-0.82716">
        <ele>120.6</ele>
        <time>2023-04-25T12:10:57Z</time>
      </trkpt>
      <trkpt lat="49.18477" lon="-0.8272">
        <ele>120.6</ele>
        <time>2023-04-25T12:10:58Z</time>
      </trkpt>
      <trkpt lat="49.18483" lon="-0.82724">
        <ele>120.4</ele>
        <time>2023-04-25T12:10:59Z</time>
      </trkpt>
      <trkpt lat="49.18489" lon="-0.82728">
        <ele>120.2</ele>
        <time>2023-04-25T12:11:00Z</time>
      </trkpt>
      <trkpt lat="49.18495" lon="-0.82732">
        <ele>120</ele>
        <time>2023-04-25T12:11:01Z</time>
      </trkpt>
      <trkpt lat="49.18502" lon="-0.82735">
        <ele>120</ele>
        <time>2023-04-25T12:11:02Z</time>
      </trkpt>
      <trkpt lat="49.18508" lon="-0.82738">
        <ele>120</ele>
        <time>2023-04-25T12:11:03Z</time>
      </trkpt>
      <trkpt lat="49.18514" lon="-0.82741">
        <ele>120.2</ele>
        <time>2023-04-25T12:11:04Z</time>
      </trkpt>
      <trkpt lat="49.1852" lon="-0.82742">
        <ele>120.2</ele>
        <time>2023-04-25T12:11:05Z</time>
      </trkpt>
      <trkpt lat="49.18526" lon="-0.82744">
        <ele>120.4</ele>
        <time>2023-04-25T12:11:06Z</time>
      </trkpt>
      <trkpt lat="49.18531" lon="-0.82746">
        <ele>120.4</ele>
        <time>2023-04-25T12:11:07Z</time>
      </trkpt>
      <trkpt lat="49.18536" lon="-0.82748">
        <ele>120.4</ele>
        <time>2023-04-25T12:11:08Z</time>
      </trkpt>
      <trkpt lat="49.1854" lon="-0.82753">
        <ele>120.4</ele>
        <time>2023-04-25T12:11:09Z</time>
      </trkpt>
      <trkpt lat="49.18542" lon="-0.82758">
        <ele>120.4</ele>
        <time>2023-04-25T12:11:10Z</time>
      </trkpt>
      <trkpt lat="49.18542" lon="-0.82764">
        <ele>120.2</ele>
        <time>2023-04-25T12:11:11Z</time>
      </trkpt>
      <trkpt lat="49.18539" lon="-0.8277">
        <ele>120</ele>
        <time>2023-04-25T12:11:12Z</time>
      </trkpt>
      <trkpt lat="49.18536" lon="-0.82775">
        <ele>120</ele>
        <time>2023-04-25T12:11:13Z</time>
      </trkpt>
      <trkpt lat="49.18532" lon="-0.82781">
        <ele>120</ele>
        <time>2023-04-25T12:11:14Z</time>
      </trkpt>
      <trkpt lat="49.18529" lon="-0.82787">
        <ele>119.6</ele>
        <time>2023-04-25T12:11:15Z</time>
      </trkpt>
      <trkpt lat="49.18525" lon="-0.82795">
        <ele>119.6</ele>
        <time>2023-04-25T12:11:16Z</time>
      </trkpt>
      <trkpt lat="49.18521" lon="-0.82803">
        <ele>119.6</ele>
        <time>2023-04-25T12:11:17Z</time>
      </trkpt>
      <trkpt lat="49.18518" lon="-0.82811">
        <ele>119.4</ele>
        <time>2023-04-25T12:11:18Z</time>
      </trkpt>
      <trkpt lat="49.18514" lon="-0.8282">
        <ele>119.2</ele>
        <time>2023-04-25T12:11:19Z</time>
      </trkpt>
      <trkpt lat="49.1851" lon="-0.82829">
        <ele>119</ele>
        <time>2023-04-25T12:11:20Z</time>
      </trkpt>
      <trkpt lat="49.18506" lon="-0.82838">
        <ele>119</ele>
        <time>2023-04-25T12:11:21Z</time>
      </trkpt>
      <trkpt lat="49.18502" lon="-0.82848">
        <ele>118.8</ele>
        <time>2023-04-25T12:11:22Z</time>
      </trkpt>
      <trkpt lat="49.18498" lon="-0.82858">
        <ele>118.6</ele>
        <time>2023-04-25T12:11:23Z</time>
      </trkpt>
      <trkpt lat="49.18494" lon="-0.82867">
        <ele>118.6</ele>
        <time>2023-04-25T12:11:24Z</time>
      </trkpt>
      <trkpt lat="49.1849" lon="-0.82877">
        <ele>118.6</ele>
        <time>2023-04-25T12:11:25Z</time>
      </trkpt>
      <trkpt lat="49.18486" lon="-0.82887">
        <ele>118.4</ele>
        <time>2023-04-25T12:11:26Z</time>
      </trkpt>
      <trkpt lat="49.18481" lon="-0.82897">
        <ele>118.2</ele>
        <time>2023-04-25T12:11:27Z</time>
      </trkpt>
      <trkpt lat="49.18477" lon="-0.82908">
        <ele>118</ele>
        <time>2023-04-25T12:11:28Z</time>
      </trkpt>
      <trkpt lat="49.18473" lon="-0.82918">
        <ele>118</ele>
        <time>2023-04-25T12:11:29Z</time>
      </trkpt>
      <trkpt lat="49.18468" lon="-0.82928">
        <ele>117.6</ele>
        <time>2023-04-25T12:11:30Z</time>
      </trkpt>
      <trkpt lat="49.18464" lon="-0.82939">
        <ele>117.6</ele>
        <time>2023-04-25T12:11:31Z</time>
      </trkpt>
      <trkpt lat="49.18459" lon="-0.82949">
        <ele>117.2</ele>
        <time>2023-04-25T12:11:32Z</time>
      </trkpt>
      <trkpt lat="49.18455" lon="-0.8296">
        <ele>117</ele>
        <time>2023-04-25T12:11:33Z</time>
      </trkpt>
      <trkpt lat="49.1845" lon="-0.8297">
        <ele>116.6</ele>
        <time>2023-04-25T12:11:34Z</time>
      </trkpt>
      <trkpt lat="49.18446" lon="-0.82981">
        <ele>116.6</ele>
        <time>2023-04-25T12:11:35Z</time>
      </trkpt>
      <trkpt lat="49.18441" lon="-0.82992">
        <ele>116.2</ele>
        <time>2023-04-25T12:11:36Z</time>
      </trkpt>
      <trkpt lat="49.18437" lon="-0.83002">
        <ele>116</ele>
        <time>2023-04-25T12:11:37Z</time>
      </trkpt>
      <trkpt lat="49.18433" lon="-0.83013">
        <ele>115.6</ele>
        <time>2023-04-25T12:11:38Z</time>
      </trkpt>
      <trkpt lat="49.18428" lon="-0.83024">
        <ele>115.6</ele>
        <time>2023-04-25T12:11:39Z</time>
      </trkpt>
      <trkpt lat="49.18423" lon="-0.83035">
        <ele>115.2</ele>
        <time>2023-04-25T12:11:40Z</time>
      </trkpt>
      <trkpt lat="49.18419" lon="-0.83045">
        <ele>115</ele>
        <time>2023-04-25T12:11:41Z</time>
      </trkpt>
      <trkpt lat="49.18415" lon="-0.83056">
        <ele>114.6</ele>
        <time>2023-04-25T12:11:42Z</time>
      </trkpt>
      <trkpt lat="49.1841" lon="-0.83067">
        <ele>114.6</ele>
        <time>2023-04-25T12:11:43Z</time>
      </trkpt>
      <trkpt lat="49.18406" lon="-0.83077">
        <ele>114.4</ele>
        <time>2023-04-25T12:11:44Z</time>
      </trkpt>
      <trkpt lat="49.18401" lon="-0.83088">
        <ele>114.4</ele>
        <time>2023-04-25T12:11:45Z</time>
      </trkpt>
      <trkpt lat="49.18397" lon="-0.83099">
        <ele>114</ele>
        <time>2023-04-25T12:11:46Z</time>
      </trkpt>
      <trkpt lat="49.18392" lon="-0.83109">
        <ele>114</ele>
        <time>2023-04-25T12:11:47Z</time>
      </trkpt>
      <trkpt lat="49.18388" lon="-0.8312">
        <ele>113.8</ele>
        <time>2023-04-25T12:11:48Z</time>
      </trkpt>
      <trkpt lat="49.18383" lon="-0.83131">
        <ele>113.6</ele>
        <time>2023-04-25T12:11:49Z</time>
      </trkpt>
      <trkpt lat="49.18379" lon="-0.83141">
        <ele>113.6</ele>
        <time>2023-04-25T12:11:50Z</time>
      </trkpt>
      <trkpt lat="49.18375" lon="-0.83152">
        <ele>113.4</ele>
        <time>2023-04-25T12:11:51Z</time>
      </trkpt>
      <trkpt lat="49.1837" lon="-0.83163">
        <ele>113.2</ele>
        <time>2023-04-25T12:11:52Z</time>
      </trkpt>
      <trkpt lat="49.18366" lon="-0.83173">
        <ele>113</ele>
        <time>2023-04-25T12:11:53Z</time>
      </trkpt>
      <trkpt lat="49.18361" lon="-0.83184">
        <ele>113</ele>
        <time>2023-04-25T12:11:54Z</time>
      </trkpt>
      <trkpt lat="49.18357" lon="-0.83194">
        <ele>113</ele>
        <time>2023-04-25T12:11:55Z</time>
      </trkpt>
      <trkpt lat="49.18353" lon="-0.83205">
        <ele>112.8</ele>
        <time>2023-04-25T12:11:56Z</time>
      </trkpt>
      <trkpt lat="49.18348" lon="-0.83216">
        <ele>112.6</ele>
        <time>2023-04-25T12:11:57Z</time>
      </trkpt>
      <trkpt lat="49.18344" lon="-0.83226">
        <ele>112.6</ele>
        <time>2023-04-25T12:11:58Z</time>
      </trkpt>
      <trkpt lat="49.18339" lon="-0.83237">
        <ele>112.4</ele>
        <time>2023-04-25T12:11:59Z</time>
      </trkpt>
      <trkpt lat="49.18335" lon="-0.83248">
        <ele>112</ele>
        <time>2023-04-25T12:12:00Z</time>
      </trkpt>
      <trkpt lat="49.1833" lon="-0.83259">
        <ele>112</ele>
        <time>2023-04-25T12:12:01Z</time>
      </trkpt>
      <trkpt lat="49.18325" lon="-0.83269">
        <ele>112</ele>
        <time>2023-04-25T12:12:02Z</time>
      </trkpt>
      <trkpt lat="49.18321" lon="-0.8328">
        <ele>112</ele>
        <time>2023-04-25T12:12:03Z</time>
      </trkpt>
      <trkpt lat="49.18316" lon="-0.83291">
        <ele>111.8</ele>
        <time>2023-04-25T12:12:04Z</time>
      </trkpt>
      <trkpt lat="49.18312" lon="-0.83301">
        <ele>111.6</ele>
        <time>2023-04-25T12:12:05Z</time>
      </trkpt>
      <trkpt lat="49.18308" lon="-0.83312">
        <ele>111.6</ele>
        <time>2023-04-25T12:12:06Z</time>
      </trkpt>
      <trkpt lat="49.18303" lon="-0.83323">
        <ele>111.6</ele>
        <time>2023-04-25T12:12:07Z</time>
      </trkpt>
      <trkpt lat="49.18299" lon="-0.83333">
        <ele>111.4</ele>
        <time>2023-04-25T12:12:08Z</time>
      </trkpt>
      <trkpt lat="49.18295" lon="-0.83344">
        <ele>111.2</ele>
        <time>2023-04-25T12:12:09Z</time>
      </trkpt>
      <trkpt lat="49.1829" lon="-0.83354">
        <ele>111</ele>
        <time>2023-04-25T12:12:10Z</time>
      </trkpt>
      <trkpt lat="49.18286" lon="-0.83365">
        <ele>111</ele>
        <time>2023-04-25T12:12:11Z</time>
      </trkpt>
      <trkpt lat="49.18282" lon="-0.83376">
        <ele>110.6</ele>
        <time>2023-04-25T12:12:12Z</time>
      </trkpt>
      <trkpt lat="49.18277" lon="-0.83386">
        <ele>110.6</ele>
        <time>2023-04-25T12:12:13Z</time>
      </trkpt>
      <trkpt lat="49.18273" lon="-0.83397">
        <ele>110.6</ele>
        <time>2023-04-25T12:12:14Z</time>
      </trkpt>
      <trkpt lat="49.18269" lon="-0.83407">
        <ele>110.6</ele>
        <time>2023-04-25T12:12:15Z</time>
      </trkpt>
      <trkpt lat="49.18264" lon="-0.83418">
        <ele>110.6</ele>
        <time>2023-04-25T12:12:16Z</time>
      </trkpt>
      <trkpt lat="49.1826" lon="-0.83429">
        <ele>110.4</ele>
        <time>2023-04-25T12:12:17Z</time>
      </trkpt>
      <trkpt lat="49.18255" lon="-0.83439">
        <ele>110.4</ele>
        <time>2023-04-25T12:12:18Z</time>
      </trkpt>
      <trkpt lat="49.18251" lon="-0.8345">
        <ele>110.2</ele>
        <time>2023-04-25T12:12:19Z</time>
      </trkpt>
      <trkpt lat="49.18247" lon="-0.8346">
        <ele>110</ele>
        <time>2023-04-25T12:12:20Z</time>
      </trkpt>
      <trkpt lat="49.18242" lon="-0.83471">
        <ele>109.6</ele>
        <time>2023-04-25T12:12:21Z</time>
      </trkpt>
      <trkpt lat="49.18238" lon="-0.83481">
        <ele>109.4</ele>
        <time>2023-04-25T12:12:22Z</time>
      </trkpt>
      <trkpt lat="49.18234" lon="-0.83492">
        <ele>109.2</ele>
        <time>2023-04-25T12:12:23Z</time>
      </trkpt>
      <trkpt lat="49.18229" lon="-0.83502">
        <ele>109</ele>
        <time>2023-04-25T12:12:24Z</time>
      </trkpt>
      <trkpt lat="49.18225" lon="-0.83512">
        <ele>108.6</ele>
        <time>2023-04-25T12:12:25Z</time>
      </trkpt>
      <trkpt lat="49.18221" lon="-0.83521">
        <ele>108.4</ele>
        <time>2023-04-25T12:12:26Z</time>
      </trkpt>
      <trkpt lat="49.18217" lon="-0.8353">
        <ele>108</ele>
        <time>2023-04-25T12:12:27Z</time>
      </trkpt>
      <trkpt lat="49.18214" lon="-0.8354">
        <ele>107.8</ele>
        <time>2023-04-25T12:12:28Z</time>
      </trkpt>
      <trkpt lat="49.1821" lon="-0.83549">
        <ele>107.6</ele>
        <time>2023-04-25T12:12:29Z</time>
      </trkpt>
      <trkpt lat="49.18206" lon="-0.83559">
        <ele>107.4</ele>
        <time>2023-04-25T12:12:30Z</time>
      </trkpt>
      <trkpt lat="49.18201" lon="-0.83569">
        <ele>107</ele>
        <time>2023-04-25T12:12:31Z</time>
      </trkpt>
      <trkpt lat="49.18197" lon="-0.8358">
        <ele>106.6</ele>
        <time>2023-04-25T12:12:32Z</time>
      </trkpt>
      <trkpt lat="49.18192" lon="-0.83591">
        <ele>106.4</ele>
        <time>2023-04-25T12:12:33Z</time>
      </trkpt>
      <trkpt lat="49.18187" lon="-0.83602">
        <ele>106</ele>
        <time>2023-04-25T12:12:34Z</time>
      </trkpt>
      <trkpt lat="49.18182" lon="-0.83614">
        <ele>105.6</ele>
        <time>2023-04-25T12:12:35Z</time>
      </trkpt>
      <trkpt lat="49.18177" lon="-0.83626">
        <ele>105.2</ele>
        <time>2023-04-25T12:12:36Z</time>
      </trkpt>
      <trkpt lat="49.18171" lon="-0.83639">
        <ele>105</ele>
        <time>2023-04-25T12:12:37Z</time>
      </trkpt>
      <trkpt lat="49.18166" lon="-0.83651">
        <ele>104.6</ele>
        <time>2023-04-25T12:12:38Z</time>
      </trkpt>
      <trkpt lat="49.18161" lon="-0.83664">
        <ele>104</ele>
        <time>2023-04-25T12:12:39Z</time>
      </trkpt>
      <trkpt lat="49.18156" lon="-0.83676">
        <ele>103.2</ele>
        <time>2023-04-25T12:12:40Z</time>
      </trkpt>
      <trkpt lat="49.18151" lon="-0.83689">
        <ele>102.4</ele>
        <time>2023-04-25T12:12:41Z</time>
      </trkpt>
      <trkpt lat="49.18145" lon="-0.83701">
        <ele>101.6</ele>
        <time>2023-04-25T12:12:42Z</time>
      </trkpt>
      <trkpt lat="49.1814" lon="-0.83714">
        <ele>101</ele>
        <time>2023-04-25T12:12:43Z</time>
      </trkpt>
      <trkpt lat="49.18135" lon="-0.83726">
        <ele>100.4</ele>
        <time>2023-04-25T12:12:44Z</time>
      </trkpt>
      <trkpt lat="49.1813" lon="-0.83738">
        <ele>99.6</ele>
        <time>2023-04-25T12:12:45Z</time>
      </trkpt>
      <trkpt lat="49.18125" lon="-0.8375">
        <ele>99</ele>
        <time>2023-04-25T12:12:46Z</time>
      </trkpt>
      <trkpt lat="49.1812" lon="-0.83761">
        <ele>98</ele>
        <time>2023-04-25T12:12:47Z</time>
      </trkpt>
      <trkpt lat="49.18115" lon="-0.83772">
        <ele>97.2</ele>
        <time>2023-04-25T12:12:48Z</time>
      </trkpt>
      <trkpt lat="49.18111" lon="-0.83782">
        <ele>96.4</ele>
        <time>2023-04-25T12:12:49Z</time>
      </trkpt>
      <trkpt lat="49.18107" lon="-0.83791">
        <ele>95.6</ele>
        <time>2023-04-25T12:12:50Z</time>
      </trkpt>
      <trkpt lat="49.18103" lon="-0.838">
        <ele>95</ele>
        <time>2023-04-25T12:12:51Z</time>
      </trkpt>
      <trkpt lat="49.181" lon="-0.83808">
        <ele>94.2</ele>
        <time>2023-04-25T12:12:52Z</time>
      </trkpt>
      <trkpt lat="49.18097" lon="-0.83817">
        <ele>93.6</ele>
        <time>2023-04-25T12:12:53Z</time>
      </trkpt>
      <trkpt lat="49.18094" lon="-0.83825">
        <ele>92.8</ele>
        <time>2023-04-25T12:12:54Z</time>
      </trkpt>
      <trkpt lat="49.18092" lon="-0.83834">
        <ele>92.2</ele>
        <time>2023-04-25T12:12:55Z</time>
      </trkpt>
      <trkpt lat="49.18091" lon="-0.83842">
        <ele>91.8</ele>
        <time>2023-04-25T12:12:56Z</time>
      </trkpt>
      <trkpt lat="49.18091" lon="-0.83851">
        <ele>91.6</ele>
        <time>2023-04-25T12:12:57Z</time>
      </trkpt>
      <trkpt lat="49.18092" lon="-0.83859">
        <ele>91.2</ele>
        <time>2023-04-25T12:12:58Z</time>
      </trkpt>
      <trkpt lat="49.18093" lon="-0.83866">
        <ele>91</ele>
        <time>2023-04-25T12:12:59Z</time>
      </trkpt>
      <trkpt lat="49.18095" lon="-0.83874">
        <ele>90.6</ele>
        <time>2023-04-25T12:13:00Z</time>
      </trkpt>
      <trkpt lat="49.18097" lon="-0.8388">
        <ele>90.4</ele>
        <time>2023-04-25T12:13:01Z</time>
      </trkpt>
      <trkpt lat="49.18099" lon="-0.83887">
        <ele>90.2</ele>
        <time>2023-04-25T12:13:02Z</time>
      </trkpt>
      <trkpt lat="49.18102" lon="-0.83893">
        <ele>90</ele>
        <time>2023-04-25T12:13:03Z</time>
      </trkpt>
      <trkpt lat="49.18105" lon="-0.83899">
        <ele>89.8</ele>
        <time>2023-04-25T12:13:04Z</time>
      </trkpt>
      <trkpt lat="49.18108" lon="-0.83904">
        <ele>89.6</ele>
        <time>2023-04-25T12:13:05Z</time>
      </trkpt>
      <trkpt lat="49.18111" lon="-0.8391">
        <ele>89.4</ele>
        <time>2023-04-25T12:13:06Z</time>
      </trkpt>
      <trkpt lat="49.18114" lon="-0.83916">
        <ele>89</ele>
        <time>2023-04-25T12:13:07Z</time>
      </trkpt>
      <trkpt lat="49.18117" lon="-0.83922">
        <ele>88.6</ele>
        <time>2023-04-25T12:13:08Z</time>
      </trkpt>
      <trkpt lat="49.1812" lon="-0.83928">
        <ele>88.4</ele>
        <time>2023-04-25T12:13:09Z</time>
      </trkpt>
      <trkpt lat="49.18123" lon="-0.83935">
        <ele>88</ele>
        <time>2023-04-25T12:13:10Z</time>
      </trkpt>
      <trkpt lat="49.18126" lon="-0.83941">
        <ele>87.8</ele>
        <time>2023-04-25T12:13:11Z</time>
      </trkpt>
      <trkpt lat="49.18129" lon="-0.83948">
        <ele>87.6</ele>
        <time>2023-04-25T12:13:12Z</time>
      </trkpt>
      <trkpt lat="49.18133" lon="-0.83956">
        <ele>87.2</ele>
        <time>2023-04-25T12:13:13Z</time>
      </trkpt>
      <trkpt lat="49.18137" lon="-0.83963">
        <ele>87</ele>
        <time>2023-04-25T12:13:14Z</time>
      </trkpt>
      <trkpt lat="49.1814" lon="-0.8397">
        <ele>86.6</ele>
        <time>2023-04-25T12:13:15Z</time>
      </trkpt>
      <trkpt lat="49.18143" lon="-0.83975">
        <ele>86.6</ele>
        <time>2023-04-25T12:13:16Z</time>
      </trkpt>
      <trkpt lat="49.18145" lon="-0.83978">
        <ele>86.4</ele>
        <time>2023-04-25T12:13:17Z</time>
      </trkpt>
      <trkpt lat="49.18145" lon="-0.83979">
        <ele>86.4</ele>
        <time>2023-04-25T12:13:18Z</time>
      </trkpt>
      <trkpt lat="49.18146" lon="-0.83979">
        <ele>86.4</ele>
        <time>2023-04-25T12:13:19Z</time>
      </trkpt>
      <trkpt lat="49.18146" lon="-0.83979">
        <ele>86.4</ele>
        <time>2023-04-25T12:13:20Z</time>
      </trkpt>
      <trkpt lat="49.18146" lon="-0.83979">
        <ele>86.4</ele>
        <time>2023-04-25T12:13:21Z</time>
      </trkpt>
      <trkpt lat="49.18146" lon="-0.83979">
        <ele>86.4</ele>
        <time>2023-04-25T12:13:22Z</time>
      </trkpt>
      <trkpt lat="49.18146" lon="-0.83979">
        <ele>86.4</ele>
        <time>2023-04-25T12:13:23Z</time>
      </trkpt>
      <trkpt lat="49.18146" lon="-0.83979">
        <ele>86.4</ele>
        <time>2023-04-25T12:13:24Z</time>
      </trkpt>
      <trkpt lat="49.18146" lon="-0.83979">
        <ele>86.4</ele>
        <time>2023-04-25T12:13:25Z</time>
      </trkpt>
      <trkpt lat="49.18146" lon="-0.83979">
        <ele>86.4</ele>
        <time>2023-04-25T12:13:26Z</time>
      </trkpt>
      <trkpt lat="49.18146" lon="-0.83979">
        <ele>86.4</ele>
        <time>2023-04-25T12:13:27Z</time>
      </trkpt>
      <trkpt lat="49.18146" lon="-0.83979">
        <ele>86.4</ele>
        <time>2023-04-25T12:13:28Z</time>
      </trkpt>
      <trkpt lat="49.18146" lon="-0.83979">
        <ele>86.4</ele>
        <time>2023-04-25T12:13:29Z</time>
      </trkpt>
      <trkpt lat="49.18146" lon="-0.83979">
        <ele>86.4</ele>
        <time>2023-04-25T12:13:30Z</time>
      </trkpt>
      <trkpt lat="49.18146" lon="-0.83979">
        <ele>86.4</ele>
        <time>2023-04-25T12:13:31Z</time>
      </trkpt>
      <trkpt lat="49.18146" lon="-0.83979">
        <ele>86.4</ele>
        <time>2023-04-25T12:13:32Z</time>
      </trkpt>
      <trkpt lat="49.18146" lon="-0.83979">
        <ele>86.4</ele>
        <time>2023-04-25T12:13:33Z</time>
      </trkpt>
      <trkpt lat="49.18146" lon="-0.83979">
        <ele>86.4</ele>
        <time>2023-04-25T12:13:34Z</time>
      </trkpt>
      <trkpt lat="49.18146" lon="-0.83979">
        <ele>86.4</ele>
        <time>2023-04-25T12:13:35Z</time>
      </trkpt>
      <trkpt lat="49.18146" lon="-0.83979">
        <ele>86.4</ele>
        <time>2023-04-25T12:13:36Z</time>
      </trkpt>
      <trkpt lat="49.18146" lon="-0.83979">
        <ele>86.4</ele>
        <time>2023-04-25T12:13:37Z</time>
      </trkpt>
      <trkpt lat="49.18146" lon="-0.83979">
        <ele>86.4</ele>
        <time>2023-04-25T12:13:38Z</time>
      </trkpt>
      <trkpt lat="49.18146" lon="-0.83979">
        <ele>86.4</ele>
        <time>2023-04-25T12:13:39Z</time>
      </trkpt>
      <trkpt lat="49.18146" lon="-0.83979">
        <ele>86.4</ele>
        <time>2023-04-25T12:13:40Z</time>
      </trkpt>
      <trkpt lat="49.18146" lon="-0.83979">
        <ele>86.4</ele>
        <time>2023-04-25T12:13:41Z</time>
      </trkpt>
      <trkpt lat="49.18146" lon="-0.83979">
        <ele>86.4</ele>
        <time>2023-04-25T12:13:42Z</time>
      </trkpt>
      <trkpt lat="49.18146" lon="-0.83979">
        <ele>86.4</ele>
        <time>2023-04-25T12:13:43Z</time>
      </trkpt>
      <trkpt lat="49.18146" lon="-0.83979">
        <ele>86.4</ele>
        <time>2023-04-25T12:13:44Z</time>
      </trkpt>
      <trkpt lat="49.18146" lon="-0.83979">
        <ele>86.4</ele>
        <time>2023-04-25T12:13:45Z</time>
      </trkpt>
      <trkpt lat="49.18146" lon="-0.83979">
        <ele>86.4</ele>
        <time>2023-04-25T12:13:46Z</time>
      </trkpt>
      <trkpt lat="49.18146" lon="-0.83979">
        <ele>86.4</ele>
        <time>2023-04-25T12:13:47Z</time>
      </trkpt>
      <trkpt lat="49.18146" lon="-0.83979">
        <ele>86.4</ele>
        <time>2023-04-25T12:13:48Z</time>
      </trkpt>
      <trkpt lat="49.18146" lon="-0.83979">
        <ele>86.4</ele>
        <time>2023-04-25T12:13:49Z</time>
      </trkpt>
      <trkpt lat="49.18146" lon="-0.83979">
        <ele>86.4</ele>
        <time>2023-04-25T12:13:50Z</time>
      </trkpt>
      <trkpt lat="49.18146" lon="-0.83979">
        <ele>86.4</ele>
        <time>2023-04-25T12:13:51Z</time>
      </trkpt>
      <trkpt lat="49.18146" lon="-0.83979">
        <ele>86.4</ele>
        <time>2023-04-25T12:13:52Z</time>
      </trkpt>
      <trkpt lat="49.18146" lon="-0.83979">
        <ele>86.4</ele>
        <time>2023-04-25T12:13:53Z</time>
      </trkpt>
      <trkpt lat="49.18146" lon="-0.83979">
        <ele>86.4</ele>
        <time>2023-04-25T12:13:54Z</time>
      </trkpt>
      <trkpt lat="49.18146" lon="-0.83979">
        <ele>86.4</ele>
        <time>2023-04-25T12:13:55Z</time>
      </trkpt>
      <trkpt lat="49.18146" lon="-0.83979">
        <ele>86.4</ele>
        <time>2023-04-25T12:13:56Z</time>
      </trkpt>
      <trkpt lat="49.18146" lon="-0.83979">
        <ele>86.4</ele>
        <time>2023-04-25T12:13:57Z</time>
      </trkpt>
      <trkpt lat="49.18146" lon="-0.83979">
        <ele>86.4</ele>
        <time>2023-04-25T12:13:58Z</time>
      </trkpt>
      <trkpt lat="49.18146" lon="-0.83979">
        <ele>86.4</ele>
        <time>2023-04-25T12:13:59Z</time>
      </trkpt>
      <trkpt lat="49.18146" lon="-0.83979">
        <ele>86.4</ele>
        <time>2023-04-25T12:14:00Z</time>
      </trkpt>
      <trkpt lat="49.18146" lon="-0.83979">
        <ele>86.4</ele>
        <time>2023-04-25T12:14:01Z</time>
      </trkpt>
      <trkpt lat="49.18146" lon="-0.83979">
        <ele>86.4</ele>
        <time>2023-04-25T12:14:02Z</time>
      </trkpt>
      <trkpt lat="49.18146" lon="-0.83979">
        <ele>86.4</ele>
        <time>2023-04-25T12:14:03Z</time>
      </trkpt>
      <trkpt lat="49.18146" lon="-0.83979">
        <ele>86.4</ele>
        <time>2023-04-25T12:14:04Z</time>
      </trkpt>
      <trkpt lat="49.18146" lon="-0.83979">
        <ele>86.4</ele>
        <time>2023-04-25T12:14:05Z</time>
      </trkpt>
      <trkpt lat="49.18146" lon="-0.83979">
        <ele>86.4</ele>
        <time>2023-04-25T12:14:06Z</time>
      </trkpt>
      <trkpt lat="49.18146" lon="-0.83979">
        <ele>86.4</ele>
        <time>2023-04-25T12:14:07Z</time>
      </trkpt>
      <trkpt lat="49.18146" lon="-0.83979">
        <ele>86.4</ele>
        <time>2023-04-25T12:14:08Z</time>
      </trkpt>
      <trkpt lat="49.18146" lon="-0.83979">
        <ele>86.4</ele>
        <time>2023-04-25T12:14:09Z</time>
      </trkpt>
      <trkpt lat="49.18146" lon="-0.83979">
        <ele>86.4</ele>
        <time>2023-04-25T12:14:10Z</time>
      </trkpt>
      <trkpt lat="49.18146" lon="-0.83979">
        <ele>86.4</ele>
        <time>2023-04-25T12:14:11Z</time>
      </trkpt>
      <trkpt lat="49.18146" lon="-0.83979">
        <ele>86.4</ele>
        <time>2023-04-25T12:14:12Z</time>
      </trkpt>
      <trkpt lat="49.18146" lon="-0.83979">
        <ele>86.4</ele>
        <time>2023-04-25T12:14:13Z</time>
      </trkpt>
      <trkpt lat="49.18146" lon="-0.83979">
        <ele>86.4</ele>
        <time>2023-04-25T12:14:14Z</time>
      </trkpt>
      <trkpt lat="49.18146" lon="-0.83979">
        <ele>86.4</ele>
        <time>2023-04-25T12:14:15Z</time>
      </trkpt>
      <trkpt lat="49.18146" lon="-0.83979">
        <ele>86.4</ele>
        <time>2023-04-25T12:14:16Z</time>
      </trkpt>
      <trkpt lat="49.18146" lon="-0.83979">
        <ele>86.4</ele>
        <time>2023-04-25T12:14:17Z</time>
      </trkpt>
      <trkpt lat="49.18146" lon="-0.83979">
        <ele>86.4</ele>
        <time>2023-04-25T12:14:18Z</time>
      </trkpt>
      <trkpt lat="49.18146" lon="-0.83979">
        <ele>86.4</ele>
        <time>2023-04-25T12:14:19Z</time>
      </trkpt>
      <trkpt lat="49.18146" lon="-0.83979">
        <ele>86.4</ele>
        <time>2023-04-25T12:14:20Z</time>
      </trkpt>
      <trkpt lat="49.18146" lon="-0.83979">
        <ele>86.4</ele>
        <time>2023-04-25T12:14:21Z</time>
      </trkpt>
      <trkpt lat="49.18146" lon="-0.83979">
        <ele>86.4</ele>
        <time>2023-04-25T12:14:22Z</time>
      </trkpt>
      <trkpt lat="49.18146" lon="-0.83979">
        <ele>86.4</ele>
        <time>2023-04-25T12:14:23Z</time>
      </trkpt>
      <trkpt lat="49.18146" lon="-0.83979">
        <ele>86.4</ele>
        <time>2023-04-25T12:14:24Z</time>
      </trkpt>
      <trkpt lat="49.18146" lon="-0.83979">
        <ele>86.4</ele>
        <time>2023-04-25T12:14:25Z</time>
      </trkpt>
      <trkpt lat="49.18146" lon="-0.83979">
        <ele>86.4</ele>
        <time>2023-04-25T12:14:26Z</time>
      </trkpt>
      <trkpt lat="49.18146" lon="-0.83979">
        <ele>86.4</ele>
        <time>2023-04-25T12:14:27Z</time>
      </trkpt>
      <trkpt lat="49.18146" lon="-0.83979">
        <ele>86.4</ele>
        <time>2023-04-25T12:14:28Z</time>
      </trkpt>
      <trkpt lat="49.18146" lon="-0.83979">
        <ele>86.4</ele>
        <time>2023-04-25T12:14:29Z</time>
      </trkpt>
      <trkpt lat="49.18146" lon="-0.83979">
        <ele>86.4</ele>
        <time>2023-04-25T12:14:30Z</time>
      </trkpt>
      <trkpt lat="49.18146" lon="-0.83979">
        <ele>86.4</ele>
        <time>2023-04-25T12:14:31Z</time>
      </trkpt>
      <trkpt lat="49.18146" lon="-0.83979">
        <ele>86.4</ele>
        <time>2023-04-25T12:14:32Z</time>
      </trkpt>
      <trkpt lat="49.18146" lon="-0.83979">
        <ele>86.4</ele>
        <time>2023-04-25T12:14:33Z</time>
      </trkpt>
      <trkpt lat="49.18146" lon="-0.83979">
        <ele>86.4</ele>
        <time>2023-04-25T12:14:34Z</time>
      </trkpt>
      <trkpt lat="49.18146" lon="-0.83979">
        <ele>86.4</ele>
        <time>2023-04-25T12:14:35Z</time>
      </trkpt>
      <trkpt lat="49.18146" lon="-0.83979">
        <ele>86.4</ele>
        <time>2023-04-25T12:14:36Z</time>
      </trkpt>
      <trkpt lat="49.18146" lon="-0.83979">
        <ele>86.4</ele>
        <time>2023-04-25T12:14:37Z</time>
      </trkpt>
      <trkpt lat="49.18146" lon="-0.83979">
        <ele>86.4</ele>
        <time>2023-04-25T12:14:38Z</time>
      </trkpt>
      <trkpt lat="49.18146" lon="-0.83979">
        <ele>86.4</ele>
        <time>2023-04-25T12:14:39Z</time>
      </trkpt>
      <trkpt lat="49.18146" lon="-0.83979">
        <ele>86.4</ele>
        <time>2023-04-25T12:14:40Z</time>
      </trkpt>
      <trkpt lat="49.18146" lon="-0.83979">
        <ele>86.4</ele>
        <time>2023-04-25T12:14:41Z</time>
      </trkpt>
      <trkpt lat="49.18146" lon="-0.83979">
        <ele>86.4</ele>
        <time>2023-04-25T12:14:42Z</time>
      </trkpt>
      <trkpt lat="49.18146" lon="-0.83979">
        <ele>86.4</ele>
        <time>2023-04-25T12:14:43Z</time>
      </trkpt>
      <trkpt lat="49.18146" lon="-0.83979">
        <ele>86.4</ele>
        <time>2023-04-25T12:14:44Z</time>
      </trkpt>
      <trkpt lat="49.18146" lon="-0.83979">
        <ele>86.4</ele>
        <time>2023-04-25T12:14:45Z</time>
      </trkpt>
      <trkpt lat="49.18146" lon="-0.83979">
        <ele>86.4</ele>
        <time>2023-04-25T12:14:46Z</time>
      </trkpt>
      <trkpt lat="49.18146" lon="-0.83979">
        <ele>86.4</ele>
        <time>2023-04-25T12:14:47Z</time>
      </trkpt>
      <trkpt lat="49.18146" lon="-0.83979">
        <ele>86.4</ele>
        <time>2023-04-25T12:14:48Z</time>
      </trkpt>
      <trkpt lat="49.18146" lon="-0.83979">
        <ele>86.4</ele>
        <time>2023-04-25T12:14:49Z</time>
      </trkpt>
      <trkpt lat="49.18146" lon="-0.83979">
        <ele>86.4</ele>
        <time>2023-04-25T12:14:50Z</time>
      </trkpt>
      <trkpt lat="49.18146" lon="-0.83979">
        <ele>86.4</ele>
        <time>2023-04-25T12:14:51Z</time>
      </trkpt>
      <trkpt lat="49.18146" lon="-0.83979">
        <ele>86.4</ele>
        <time>2023-04-25T12:14:52Z</time>
      </trkpt>
      <trkpt lat="49.18146" lon="-0.83979">
        <ele>86.4</ele>
        <time>2023-04-25T12:14:53Z</time>
      </trkpt>
      <trkpt lat="49.18146" lon="-0.83979">
        <ele>86.4</ele>
        <time>2023-04-25T12:14:54Z</time>
      </trkpt>
      <trkpt lat="49.18146" lon="-0.83979">
        <ele>86.4</ele>
        <time>2023-04-25T12:14:55Z</time>
      </trkpt>
      <trkpt lat="49.18146" lon="-0.83979">
        <ele>86.4</ele>
        <time>2023-04-25T12:14:56Z</time>
      </trkpt>
      <trkpt lat="49.18146" lon="-0.83979">
        <ele>86.4</ele>
        <time>2023-04-25T12:14:57Z</time>
      </trkpt>
      <trkpt lat="49.18146" lon="-0.83979">
        <ele>86.4</ele>
        <time>2023-04-25T12:14:58Z</time>
      </trkpt>
      <trkpt lat="49.18146" lon="-0.83979">
        <ele>86.4</ele>
        <time>2023-04-25T12:14:59Z</time>
      </trkpt>
      <trkpt lat="49.18146" lon="-0.83979">
        <ele>86.4</ele>
        <time>2023-04-25T12:15:00Z</time>
      </trkpt>
      <trkpt lat="49.18146" lon="-0.83979">
        <ele>86.4</ele>
        <time>2023-04-25T12:15:01Z</time>
      </trkpt>
      <trkpt lat="49.18146" lon="-0.83979">
        <ele>86.4</ele>
        <time>2023-04-25T12:15:02Z</time>
      </trkpt>
      <trkpt lat="49.18146" lon="-0.83979">
        <ele>86.4</ele>
        <time>2023-04-25T12:15:03Z</time>
      </trkpt>
      <trkpt lat="49.18146" lon="-0.83979">
        <ele>86.4</ele>
        <time>2023-04-25T12:15:04Z</time>
      </trkpt>
      <trkpt lat="49.18146" lon="-0.83979">
        <ele>86.4</ele>
        <time>2023-04-25T12:15:05Z</time>
      </trkpt>
      <trkpt lat="49.18146" lon="-0.83979">
        <ele>86.4</ele>
        <time>2023-04-25T12:15:06Z</time>
      </trkpt>
      <trkpt lat="49.18146" lon="-0.83979">
        <ele>86.4</ele>
        <time>2023-04-25T12:15:07Z</time>
      </trkpt>
      <trkpt lat="49.18146" lon="-0.83979">
        <ele>86.4</ele>
        <time>2023-04-25T12:15:08Z</time>
      </trkpt>
      <trkpt lat="49.18146" lon="-0.83979">
        <ele>86.4</ele>
        <time>2023-04-25T12:15:09Z</time>
      </trkpt>
      <trkpt lat="49.18146" lon="-0.83979">
        <ele>86.4</ele>
        <time>2023-04-25T12:15:10Z</time>
      </trkpt>
      <trkpt lat="49.18146" lon="-0.83979">
        <ele>86.4</ele>
        <time>2023-04-25T12:15:11Z</time>
      </trkpt>
      <trkpt lat="49.18146" lon="-0.83979">
        <ele>86.4</ele>
        <time>2023-04-25T12:15:12Z</time>
      </trkpt>
      <trkpt lat="49.18146" lon="-0.83979">
        <ele>86.4</ele>
        <time>2023-04-25T12:15:13Z</time>
      </trkpt>
      <trkpt lat="49.18146" lon="-0.83979">
        <ele>86.4</ele>
        <time>2023-04-25T12:15:14Z</time>
      </trkpt>
      <trkpt lat="49.18146" lon="-0.83979">
        <ele>86.4</ele>
        <time>2023-04-25T12:15:15Z</time>
      </trkpt>
      <trkpt lat="49.18146" lon="-0.83979">
        <ele>86.4</ele>
        <time>2023-04-25T12:15:16Z</time>
      </trkpt>
      <trkpt lat="49.18146" lon="-0.83979">
        <ele>86.4</ele>
        <time>2023-04-25T12:15:17Z</time>
      </trkpt>
      <trkpt lat="49.18146" lon="-0.83979">
        <ele>86.4</ele>
        <time>2023-04-25T12:15:18Z</time>
      </trkpt>
      <trkpt lat="49.18146" lon="-0.83979">
        <ele>86.4</ele>
        <time>2023-04-25T12:15:19Z</time>
      </trkpt>
      <trkpt lat="49.18146" lon="-0.83979">
        <ele>86.4</ele>
        <time>2023-04-25T12:15:20Z</time>
      </trkpt>
      <trkpt lat="49.18146" lon="-0.83979">
        <ele>86.4</ele>
        <time>2023-04-25T12:15:21Z</time>
      </trkpt>
      <trkpt lat="49.18146" lon="-0.83979">
        <ele>86.4</ele>
        <time>2023-04-25T12:15:22Z</time>
      </trkpt>
      <trkpt lat="49.18146" lon="-0.83979">
        <ele>86.4</ele>
        <time>2023-04-25T12:15:23Z</time>
      </trkpt>
      <trkpt lat="49.18146" lon="-0.8398">
        <ele>86.4</ele>
        <time>2023-04-25T12:15:24Z</time>
      </trkpt>
      <trkpt lat="49.18147" lon="-0.83981">
        <ele>86.4</ele>
        <time>2023-04-25T12:15:25Z</time>
      </trkpt>
      <trkpt lat="49.18148" lon="-0.83983">
        <ele>86.4</ele>
        <time>2023-04-25T12:15:26Z</time>
      </trkpt>
      <trkpt lat="49.18149" lon="-0.83986">
        <ele>86.2</ele>
        <time>2023-04-25T12:15:27Z</time>
      </trkpt>
      <trkpt lat="49.18151" lon="-0.8399">
        <ele>86</ele>
        <time>2023-04-25T12:15:28Z</time>
      </trkpt>
      <trkpt lat="49.18153" lon="-0.83994">
        <ele>86</ele>
        <time>2023-04-25T12:15:29Z</time>
      </trkpt>
      <trkpt lat="49.18155" lon="-0.83999">
        <ele>85.8</ele>
        <time>2023-04-25T12:15:30Z</time>
      </trkpt>
      <trkpt lat="49.18157" lon="-0.84004">
        <ele>85.6</ele>
        <time>2023-04-25T12:15:31Z</time>
      </trkpt>
      <trkpt lat="49.1816" lon="-0.8401">
        <ele>85.2</ele>
        <time>2023-04-25T12:15:32Z</time>
      </trkpt>
      <trkpt lat="49.18163" lon="-0.84017">
        <ele>84.8</ele>
        <time>2023-04-25T12:15:33Z</time>
      </trkpt>
      <trkpt lat="49.18167" lon="-0.84024">
        <ele>84.4</ele>
        <time>2023-04-25T12:15:34Z</time>
      </trkpt>
      <trkpt lat="49.1817" lon="-0.84031">
        <ele>83.6</ele>
        <time>2023-04-25T12:15:35Z</time>
      </trkpt>
      <trkpt lat="49.18174" lon="-0.84039">
        <ele>83</ele>
        <time>2023-04-25T12:15:36Z</time>
      </trkpt>
      <trkpt lat="49.18178" lon="-0.84048">
        <ele>82.6</ele>
        <time>2023-04-25T12:15:37Z</time>
      </trkpt>
      <trkpt lat="49.18182" lon="-0.84056">
        <ele>81.8</ele>
        <time>2023-04-25T12:15:38Z</time>
      </trkpt>
      <trkpt lat="49.18187" lon="-0.84066">
        <ele>81</ele>
        <time>2023-04-25T12:15:39Z</time>
      </trkpt>
      <trkpt lat="49.18191" lon="-0.84075">
        <ele>80.4</ele>
        <time>2023-04-25T12:15:40Z</time>
      </trkpt>
      <trkpt lat="49.18196" lon="-0.84085">
        <ele>79.6</ele>
        <time>2023-04-25T12:15:41Z</time>
      </trkpt>
      <trkpt lat="49.182" lon="-0.84095">
        <ele>79</ele>
        <time>2023-04-25T12:15:42Z</time>
      </trkpt>
      <trkpt lat="49.18205" lon="-0.84105">
        <ele>78.6</ele>
        <time>2023-04-25T12:15:43Z</time>
      </trkpt>
      <trkpt lat="49.1821" lon="-0.84115">
        <ele>78</ele>
        <time>2023-04-25T12:15:44Z</time>
      </trkpt>
      <trkpt lat="49.18215" lon="-0.84125">
        <ele>77.4</ele>
        <time>2023-04-25T12:15:45Z</time>
      </trkpt>
      <trkpt lat="49.1822" lon="-0.84135">
        <ele>76.6</ele>
        <time>2023-04-25T12:15:46Z</time>
      </trkpt>
      <trkpt lat="49.18225" lon="-0.84146">
        <ele>76</ele>
        <time>2023-04-25T12:15:47Z</time>
      </trkpt>
      <trkpt lat="49.1823" lon="-0.84157">
        <ele>75.2</ele>
        <time>2023-04-25T12:15:48Z</time>
      </trkpt>
      <trkpt lat="49.18235" lon="-0.84168">
        <ele>74.6</ele>
        <time>2023-04-25T12:15:49Z</time>
      </trkpt>
      <trkpt lat="49.18241" lon="-0.84179">
        <ele>73.6</ele>
        <time>2023-04-25T12:15:50Z</time>
      </trkpt>
      <trkpt lat="49.18246" lon="-0.84191">
        <ele>73</ele>
        <time>2023-04-25T12:15:51Z</time>
      </trkpt>
      <trkpt lat="49.18252" lon="-0.84203">
        <ele>72.2</ele>
        <time>2023-04-25T12:15:52Z</time>
      </trkpt>
      <trkpt lat="49.18258" lon="-0.84216">
        <ele>71.6</ele>
        <time>2023-04-25T12:15:53Z</time>
      </trkpt>
      <trkpt lat="49.18264" lon="-0.84228">
        <ele>71</ele>
        <time>2023-04-25T12:15:54Z</time>
      </trkpt>
      <trkpt lat="49.1827" lon="-0.84241">
        <ele>70.4</ele>
        <time>2023-04-25T12:15:55Z</time>
      </trkpt>
      <trkpt lat="49.18277" lon="-0.84254">
        <ele>69.8</ele>
        <time>2023-04-25T12:15:56Z</time>
      </trkpt>
      <trkpt lat="49.18283" lon="-0.84267">
        <ele>69.2</ele>
        <time>2023-04-25T12:15:57Z</time>
      </trkpt>
      <trkpt lat="49.18289" lon="-0.84281">
        <ele>68.6</ele>
        <time>2023-04-25T12:15:58Z</time>
      </trkpt>
      <trkpt lat="49.18296" lon="-0.84294">
        <ele>67.8</ele>
        <time>2023-04-25T12:15:59Z</time>
      </trkpt>
      <trkpt lat="49.18302" lon="-0.84308">
        <ele>67</ele>
        <time>2023-04-25T12:16:00Z</time>
      </trkpt>
      <trkpt lat="49.18309" lon="-0.84322">
        <ele>66.2</ele>
        <time>2023-04-25T12:16:01Z</time>
      </trkpt>
      <trkpt lat="49.18316" lon="-0.84335">
        <ele>65.4</ele>
        <time>2023-04-25T12:16:02Z</time>
      </trkpt>
      <trkpt lat="49.18323" lon="-0.84349">
        <ele>64.6</ele>
        <time>2023-04-25T12:16:03Z</time>
      </trkpt>
      <trkpt lat="49.1833" lon="-0.84363">
        <ele>64</ele>
        <time>2023-04-25T12:16:04Z</time>
      </trkpt>
      <trkpt lat="49.18337" lon="-0.84377">
        <ele>63.4</ele>
        <time>2023-04-25T12:16:05Z</time>
      </trkpt>
      <trkpt lat="49.18344" lon="-0.84391">
        <ele>62.8</ele>
        <time>2023-04-25T12:16:06Z</time>
      </trkpt>
      <trkpt lat="49.18351" lon="-0.84404">
        <ele>62.2</ele>
        <time>2023-04-25T12:16:07Z</time>
      </trkpt>
      <trkpt lat="49.18357" lon="-0.84418">
        <ele>61.8</ele>
        <time>2023-04-25T12:16:08Z</time>
      </trkpt>
      <trkpt lat="49.18364" lon="-0.84431">
        <ele>61</ele>
        <time>2023-04-25T12:16:09Z</time>
      </trkpt>
      <trkpt lat="49.1837" lon="-0.84444">
        <ele>60.4</ele>
        <time>2023-04-25T12:16:10Z</time>
      </trkpt>
      <trkpt lat="49.18376" lon="-0.84457">
        <ele>59.8</ele>
        <time>2023-04-25T12:16:11Z</time>
      </trkpt>
      <trkpt lat="49.18382" lon="-0.84471">
        <ele>59</ele>
        <time>2023-04-25T12:16:12Z</time>
      </trkpt>
      <trkpt lat="49.18387" lon="-0.84484">
        <ele>58.4</ele>
        <time>2023-04-25T12:16:13Z</time>
      </trkpt>
      <trkpt lat="49.18392" lon="-0.84498">
        <ele>57.8</ele>
        <time>2023-04-25T12:16:14Z</time>
      </trkpt>
      <trkpt lat="49.18396" lon="-0.84513">
        <ele>57.2</ele>
        <time>2023-04-25T12:16:15Z</time>
      </trkpt>
      <trkpt lat="49.18399" lon="-0.84527">
        <ele>56.8</ele>
        <time>2023-04-25T12:16:16Z</time>
      </trkpt>
      <trkpt lat="49.18401" lon="-0.84542">
        <ele>56.2</ele>
        <time>2023-04-25T12:16:17Z</time>
      </trkpt>
      <trkpt lat="49.18404" lon="-0.84557">
        <ele>55.8</ele>
        <time>2023-04-25T12:16:18Z</time>
      </trkpt>
      <trkpt lat="49.18406" lon="-0.84571">
        <ele>55.4</ele>
        <time>2023-04-25T12:16:19Z</time>
      </trkpt>
      <trkpt lat="49.18407" lon="-0.84585">
        <ele>55</ele>
        <time>2023-04-25T12:16:20Z</time>
      </trkpt>
      <trkpt lat="49.18409" lon="-0.84598">
        <ele>55</ele>
        <time>2023-04-25T12:16:21Z</time>
      </trkpt>
      <trkpt lat="49.18411" lon="-0.84611">
        <ele>54.8</ele>
        <time>2023-04-25T12:16:22Z</time>
      </trkpt>
      <trkpt lat="49.18413" lon="-0.84624">
        <ele>54.6</ele>
        <time>2023-04-25T12:16:23Z</time>
      </trkpt>
      <trkpt lat="49.18414" lon="-0.84636">
        <ele>54.4</ele>
        <time>2023-04-25T12:16:24Z</time>
      </trkpt>
      <trkpt lat="49.18416" lon="-0.84649">
        <ele>54.2</ele>
        <time>2023-04-25T12:16:25Z</time>
      </trkpt>
      <trkpt lat="49.18417" lon="-0.84661">
        <ele>54</ele>
        <time>2023-04-25T12:16:26Z</time>
      </trkpt>
      <trkpt lat="49.18419" lon="-0.84673">
        <ele>54.2</ele>
        <time>2023-04-25T12:16:27Z</time>
      </trkpt>
      <trkpt lat="49.18421" lon="-0.84685">
        <ele>54.6</ele>
        <time>2023-04-25T12:16:28Z</time>
      </trkpt>
      <trkpt lat="49.18422" lon="-0.84697">
        <ele>54.8</ele>
        <time>2023-04-25T12:16:29Z</time>
      </trkpt>
      <trkpt lat="49.18424" lon="-0.84708">
        <ele>55</ele>
        <time>2023-04-25T12:16:30Z</time>
      </trkpt>
      <trkpt lat="49.18425" lon="-0.84719">
        <ele>55.4</ele>
        <time>2023-04-25T12:16:31Z</time>
      </trkpt>
      <trkpt lat="49.18427" lon="-0.8473">
        <ele>55.8</ele>
        <time>2023-04-25T12:16:32Z</time>
      </trkpt>
      <trkpt lat="49.18428" lon="-0.8474">
        <ele>56</ele>
        <time>2023-04-25T12:16:33Z</time>
      </trkpt>
      <trkpt lat="49.18429" lon="-0.84749">
        <ele>56.2</ele>
        <time>2023-04-25T12:16:34Z</time>
      </trkpt>
      <trkpt lat="49.1843" lon="-0.84757">
        <ele>56.8</ele>
        <time>2023-04-25T12:16:35Z</time>
      </trkpt>
      <trkpt lat="49.18431" lon="-0.84764">
        <ele>57</ele>
        <time>2023-04-25T12:16:36Z</time>
      </trkpt>
      <trkpt lat="49.18431" lon="-0.8477">
        <ele>57.4</ele>
        <time>2023-04-25T12:16:37Z</time>
      </trkpt>
      <trkpt lat="49.1843" lon="-0.84775">
        <ele>57.6</ele>
        <time>2023-04-25T12:16:38Z</time>
      </trkpt>
      <trkpt lat="49.18428" lon="-0.84779">
        <ele>57.8</ele>
        <time>2023-04-25T12:16:39Z</time>
      </trkpt>
      <trkpt lat="49.18425" lon="-0.84782">
        <ele>57.8</ele>
        <time>2023-04-25T12:16:40Z</time>
      </trkpt>
      <trkpt lat="49.18422" lon="-0.84785">
        <ele>57.8</ele>
        <time>2023-04-25T12:16:41Z</time>
      </trkpt>
      <trkpt lat="49.18418" lon="-0.84788">
        <ele>58</ele>
        <time>2023-04-25T12:16:42Z</time>
      </trkpt>
      <trkpt lat="49.18415" lon="-0.84792">
        <ele>58</ele>
        <time>2023-04-25T12:16:43Z</time>
      </trkpt>
      <trkpt lat="49.18411" lon="-0.84797">
        <ele>58</ele>
        <time>2023-04-25T12:16:44Z</time>
      </trkpt>
      <trkpt lat="49.18408" lon="-0.84802">
        <ele>58</ele>
        <time>2023-04-25T12:16:45Z</time>
      </trkpt>
      <trkpt lat="49.18404" lon="-0.84808">
        <ele>58</ele>
        <time>2023-04-25T12:16:46Z</time>
      </trkpt>
      <trkpt lat="49.18401" lon="-0.84814">
        <ele>58.2</ele>
        <time>2023-04-25T12:16:47Z</time>
      </trkpt>
      <trkpt lat="49.18397" lon="-0.84821">
        <ele>58.2</ele>
        <time>2023-04-25T12:16:48Z</time>
      </trkpt>
      <trkpt lat="49.18394" lon="-0.84828">
        <ele>58.2</ele>
        <time>2023-04-25T12:16:49Z</time>
      </trkpt>
      <trkpt lat="49.18391" lon="-0.84835">
        <ele>58.2</ele>
        <time>2023-04-25T12:16:50Z</time>
      </trkpt>
      <trkpt lat="49.18389" lon="-0.84843">
        <ele>58.6</ele>
        <time>2023-04-25T12:16:51Z</time>
      </trkpt>
      <trkpt lat="49.18386" lon="-0.84851">
        <ele>59</ele>
        <time>2023-04-25T12:16:52Z</time>
      </trkpt>
      <trkpt lat="49.18384" lon="-0.84859">
        <ele>59.2</ele>
        <time>2023-04-25T12:16:53Z</time>
      </trkpt>
      <trkpt lat="49.18382" lon="-0.84868">
        <ele>59.6</ele>
        <time>2023-04-25T12:16:54Z</time>
      </trkpt>
      <trkpt lat="49.1838" lon="-0.84876">
        <ele>60</ele>
        <time>2023-04-25T12:16:55Z</time>
      </trkpt>
      <trkpt lat="49.18377" lon="-0.84884">
        <ele>60.2</ele>
        <time>2023-04-25T12:16:56Z</time>
      </trkpt>
      <trkpt lat="49.18374" lon="-0.84892">
        <ele>60.4</ele>
        <time>2023-04-25T12:16:57Z</time>
      </trkpt>
      <trkpt lat="49.18369" lon="-0.84898">
        <ele>60.4</ele>
        <time>2023-04-25T12:16:58Z</time>
      </trkpt>
      <trkpt lat="49.18364" lon="-0.84903">
        <ele>60.4</ele>
        <time>2023-04-25T12:16:59Z</time>
      </trkpt>
      <trkpt lat="49.18358" lon="-0.84908">
        <ele>60.2</ele>
        <time>2023-04-25T12:17:00Z</time>
      </trkpt>
      <trkpt lat="49.18353" lon="-0.84914">
        <ele>60.2</ele>
        <time>2023-04-25T12:17:01Z</time>
      </trkpt>
      <trkpt lat="49.18347" lon="-0.84919">
        <ele>60</ele>
        <time>2023-04-25T12:17:02Z</time>
      </trkpt>
      <trkpt lat="49.18342" lon="-0.84925">
        <ele>60</ele>
        <time>2023-04-25T12:17:03Z</time>
      </trkpt>
      <trkpt lat="49.18336" lon="-0.8493">
        <ele>59.8</ele>
        <time>2023-04-25T12:17:04Z</time>
      </trkpt>
      <trkpt lat="49.1833" lon="-0.84936">
        <ele>59.8</ele>
        <time>2023-04-25T12:17:05Z</time>
      </trkpt>
      <trkpt lat="49.18325" lon="-0.84942">
        <ele>60</ele>
        <time>2023-04-25T12:17:06Z</time>
      </trkpt>
      <trkpt lat="49.1832" lon="-0.84949">
        <ele>60</ele>
        <time>2023-04-25T12:17:07Z</time>
      </trkpt>
      <trkpt lat="49.18315" lon="-0.84958">
        <ele>60.2</ele>
        <time>2023-04-25T12:17:08Z</time>
      </trkpt>
      <trkpt lat="49.18311" lon="-0.84966">
        <ele>60.6</ele>
        <time>2023-04-25T12:17:09Z</time>
      </trkpt>
      <trkpt lat="49.18308" lon="-0.84975">
        <ele>60.8</ele>
        <time>2023-04-25T12:17:10Z</time>
      </trkpt>
      <trkpt lat="49.18304" lon="-0.84983">
        <ele>61</ele>
        <time>2023-04-25T12:17:11Z</time>
      </trkpt>
      <trkpt lat="49.18301" lon="-0.84991">
        <ele>61</ele>
        <time>2023-04-25T12:17:12Z</time>
      </trkpt>
      <trkpt lat="49.18297" lon="-0.84998">
        <ele>61.2</ele>
        <time>2023-04-25T12:17:13Z</time>
      </trkpt>
      <trkpt lat="49.18294" lon="-0.85005">
        <ele>61.6</ele>
        <time>2023-04-25T12:17:14Z</time>
      </trkpt>
      <trkpt lat="49.1829" lon="-0.8501">
        <ele>62</ele>
        <time>2023-04-25T12:17:15Z</time>
      </trkpt>
      <trkpt lat="49.18287" lon="-0.85014">
        <ele>62.2</ele>
        <time>2023-04-25T12:17:16Z</time>
      </trkpt>
      <trkpt lat="49.18284" lon="-0.85018">
        <ele>62.6</ele>
        <time>2023-04-25T12:17:17Z</time>
      </trkpt>
      <trkpt lat="49.18281" lon="-0.85021">
        <ele>62.8</ele>
        <time>2023-04-25T12:17:18Z</time>
      </trkpt>
      <trkpt lat="49.18278" lon="-0.85024">
        <ele>63</ele>
        <time>2023-04-25T12:17:19Z</time>
      </trkpt>
      <trkpt lat="49.18275" lon="-0.85027">
        <ele>63</ele>
        <time>2023-04-25T12:17:20Z</time>
      </trkpt>
      <trkpt lat="49.18272" lon="-0.8503">
        <ele>63.2</ele>
        <time>2023-04-25T12:17:21Z</time>
      </trkpt>
      <trkpt lat="49.18269" lon="-0.85033">
        <ele>63.2</ele>
        <time>2023-04-25T12:17:22Z</time>
      </trkpt>
      <trkpt lat="49.18266" lon="-0.85035">
        <ele>63.6</ele>
        <time>2023-04-25T12:17:23Z</time>
      </trkpt>
      <trkpt lat="49.18263" lon="-0.85038">
        <ele>63.8</ele>
        <time>2023-04-25T12:17:24Z</time>
      </trkpt>
      <trkpt lat="49.1826" lon="-0.85041">
        <ele>63.8</ele>
        <time>2023-04-25T12:17:25Z</time>
      </trkpt>
      <trkpt lat="49.18257" lon="-0.85044">
        <ele>64</ele>
        <time>2023-04-25T12:17:26Z</time>
      </trkpt>
      <trkpt lat="49.18255" lon="-0.85047">
        <ele>64.4</ele>
        <time>2023-04-25T12:17:27Z</time>
      </trkpt>
      <trkpt lat="49.18252" lon="-0.85051">
        <ele>64.6</ele>
        <time>2023-04-25T12:17:28Z</time>
      </trkpt>
      <trkpt lat="49.18249" lon="-0.85054">
        <ele>64.8</ele>
        <time>2023-04-25T12:17:29Z</time>
      </trkpt>
      <trkpt lat="49.18246" lon="-0.85057">
        <ele>65</ele>
        <time>2023-04-25T12:17:30Z</time>
      </trkpt>
      <trkpt lat="49.18244" lon="-0.8506">
        <ele>65.4</ele>
        <time>2023-04-25T12:17:31Z</time>
      </trkpt>
      <trkpt lat="49.18241" lon="-0.85064">
        <ele>65.6</ele>
        <time>2023-04-25T12:17:32Z</time>
      </trkpt>
      <trkpt lat="49.18238" lon="-0.85067">
        <ele>66</ele>
        <time>2023-04-25T12:17:33Z</time>
      </trkpt>
      <trkpt lat="49.18236" lon="-0.8507">
        <ele>66.2</ele>
        <time>2023-04-25T12:17:34Z</time>
      </trkpt>
      <trkpt lat="49.18233" lon="-0.85073">
        <ele>66.6</ele>
        <time>2023-04-25T12:17:35Z</time>
      </trkpt>
      <trkpt lat="49.1823" lon="-0.85076">
        <ele>66.6</ele>
        <time>2023-04-25T12:17:36Z</time>
      </trkpt>
      <trkpt lat="49.18228" lon="-0.85079">
        <ele>67</ele>
        <time>2023-04-25T12:17:37Z</time>
      </trkpt>
      <trkpt lat="49.18226" lon="-0.85082">
        <ele>67.4</ele>
        <time>2023-04-25T12:17:38Z</time>
      </trkpt>
      <trkpt lat="49.18224" lon="-0.85085">
        <ele>67.6</ele>
        <time>2023-04-25T12:17:39Z</time>
      </trkpt>
      <trkpt lat="49.18222" lon="-0.85088">
        <ele>67.6</ele>
        <time>2023-04-25T12:17:40Z</time>
      </trkpt>
      <trkpt lat="49.1822" lon="-0.85091">
        <ele>68</ele>
        <time>2023-04-25T12:17:41Z</time>
      </trkpt>
      <trkpt lat="49.18218" lon="-0.85094">
        <ele>68</ele>
        <time>2023-04-25T12:17:42Z</time>
      </trkpt>
      <trkpt lat="49.18216" lon="-0.85097">
        <ele>68.4</ele>
        <time>2023-04-25T12:17:43Z</time>
      </trkpt>
      <trkpt lat="49.18214" lon="-0.85101">
        <ele>68.6</ele>
        <time>2023-04-25T12:17:44Z</time>
      </trkpt>
      <trkpt lat="49.18211" lon="-0.85104">
        <ele>68.8</ele>
        <time>2023-04-25T12:17:45Z</time>
      </trkpt>
      <trkpt lat="49.18209" lon="-0.85108">
        <ele>69</ele>
        <time>2023-04-25T12:17:46Z</time>
      </trkpt>
      <trkpt lat="49.18207" lon="-0.85111">
        <ele>69.4</ele>
        <time>2023-04-25T12:17:47Z</time>
      </trkpt>
      <trkpt lat="49.18205" lon="-0.85115">
        <ele>69.6</ele>
        <time>2023-04-25T12:17:48Z</time>
      </trkpt>
      <trkpt lat="49.18202" lon="-0.85119">
        <ele>70</ele>
        <time>2023-04-25T12:17:49Z</time>
      </trkpt>
      <trkpt lat="49.182" lon="-0.85123">
        <ele>70.2</ele>
        <time>2023-04-25T12:17:50Z</time>
      </trkpt>
      <trkpt lat="49.18197" lon="-0.85127">
        <ele>70.6</ele>
        <time>2023-04-25T12:17:51Z</time>
      </trkpt>
      <trkpt lat="49.18195" lon="-0.8513">
        <ele>70.8</ele>
        <time>2023-04-25T12:17:52Z</time>
      </trkpt>
      <trkpt lat="49.18192" lon="-0.85134">
        <ele>71</ele>
        <time>2023-04-25T12:17:53Z</time>
      </trkpt>
      <trkpt lat="49.1819" lon="-0.85138">
        <ele>71.6</ele>
        <time>2023-04-25T12:17:54Z</time>
      </trkpt>
      <trkpt lat="49.18188" lon="-0.85142">
        <ele>71.8</ele>
        <time>2023-04-25T12:17:55Z</time>
      </trkpt>
      <trkpt lat="49.18185" lon="-0.85146">
        <ele>72</ele>
        <time>2023-04-25T12:17:56Z</time>
      </trkpt>
      <trkpt lat="49.18183" lon="-0.8515">
        <ele>72.6</ele>
        <time>2023-04-25T12:17:57Z</time>
      </trkpt>
      <trkpt lat="49.18181" lon="-0.85154">
        <ele>72.8</ele>
        <time>2023-04-25T12:17:58Z</time>
      </trkpt>
      <trkpt lat="49.18179" lon="-0.85158">
        <ele>73.2</ele>
        <time>2023-04-25T12:17:59Z</time>
      </trkpt>
      <trkpt lat="49.18177" lon="-0.85162">
        <ele>73.6</ele>
        <time>2023-04-25T12:18:00Z</time>
      </trkpt>
      <trkpt lat="49.18176" lon="-0.85166">
        <ele>74</ele>
        <time>2023-04-25T12:18:01Z</time>
      </trkpt>
      <trkpt lat="49.18174" lon="-0.85171">
        <ele>74.2</ele>
        <time>2023-04-25T12:18:02Z</time>
      </trkpt>
      <trkpt lat="49.18173" lon="-0.85175">
        <ele>74.4</ele>
        <time>2023-04-25T12:18:03Z</time>
      </trkpt>
      <trkpt lat="49.18171" lon="-0.8518">
        <ele>74.6</ele>
        <time>2023-04-25T12:18:04Z</time>
      </trkpt>
      <trkpt lat="49.18169" lon="-0.85184">
        <ele>74.8</ele>
        <time>2023-04-25T12:18:05Z</time>
      </trkpt>
      <trkpt lat="49.18167" lon="-0.85188">
        <ele>75</ele>
        <time>2023-04-25T12:18:06Z</time>
      </trkpt>
      <trkpt lat="49.18165" lon="-0.85192">
        <ele>75</ele>
        <time>2023-04-25T12:18:07Z</time>
      </trkpt>
      <trkpt lat="49.18163" lon="-0.85196">
        <ele>75.2</ele>
        <time>2023-04-25T12:18:08Z</time>
      </trkpt>
      <trkpt lat="49.18161" lon="-0.852">
        <ele>75.2</ele>
        <time>2023-04-25T12:18:09Z</time>
      </trkpt>
      <trkpt lat="49.18159" lon="-0.85205">
        <ele>75.4</ele>
        <time>2023-04-25T12:18:10Z</time>
      </trkpt>
      <trkpt lat="49.18157" lon="-0.85209">
        <ele>75.6</ele>
        <time>2023-04-25T12:18:11Z</time>
      </trkpt>
      <trkpt lat="49.18155" lon="-0.85214">
        <ele>75.6</ele>
        <time>2023-04-25T12:18:12Z</time>
      </trkpt>
      <trkpt lat="49.18153" lon="-0.85219">
        <ele>75.8</ele>
        <time>2023-04-25T12:18:13Z</time>
      </trkpt>
      <trkpt lat="49.18151" lon="-0.85224">
        <ele>76</ele>
        <time>2023-04-25T12:18:14Z</time>
      </trkpt>
      <trkpt lat="49.18149" lon="-0.85228">
        <ele>76</ele>
        <time>2023-04-25T12:18:15Z</time>
      </trkpt>
      <trkpt lat="49.18146" lon="-0.85233">
        <ele>76.2</ele>
        <time>2023-04-25T12:18:16Z</time>
      </trkpt>
      <trkpt lat="49.18143" lon="-0.85237">
        <ele>76.4</ele>
        <time>2023-04-25T12:18:17Z</time>
      </trkpt>
      <trkpt lat="49.1814" lon="-0.85241">
        <ele>76.6</ele>
        <time>2023-04-25T12:18:18Z</time>
      </trkpt>
      <trkpt lat="49.18137" lon="-0.85246">
        <ele>76.6</ele>
        <time>2023-04-25T12:18:19Z</time>
      </trkpt>
      <trkpt lat="49.18135" lon="-0.8525">
        <ele>77</ele>
        <time>2023-04-25T12:18:20Z</time>
      </trkpt>
      <trkpt lat="49.18132" lon="-0.85255">
        <ele>77</ele>
        <time>2023-04-25T12:18:21Z</time>
      </trkpt>
      <trkpt lat="49.1813" lon="-0.8526">
        <ele>77</ele>
        <time>2023-04-25T12:18:22Z</time>
      </trkpt>
      <trkpt lat="49.18128" lon="-0.85265">
        <ele>77</ele>
        <time>2023-04-25T12:18:23Z</time>
      </trkpt>
      <trkpt lat="49.18126" lon="-0.8527">
        <ele>77</ele>
        <time>2023-04-25T12:18:24Z</time>
      </trkpt>
      <trkpt lat="49.18124" lon="-0.85275">
        <ele>77</ele>
        <time>2023-04-25T12:18:25Z</time>
      </trkpt>
      <trkpt lat="49.18122" lon="-0.85281">
        <ele>77.2</ele>
        <time>2023-04-25T12:18:26Z</time>
      </trkpt>
      <trkpt lat="49.1812" lon="-0.85286">
        <ele>77.4</ele>
        <time>2023-04-25T12:18:27Z</time>
      </trkpt>
      <trkpt lat="49.18118" lon="-0.85292">
        <ele>77.4</ele>
        <time>2023-04-25T12:18:28Z</time>
      </trkpt>
      <trkpt lat="49.18116" lon="-0.85297">
        <ele>77.4</ele>
        <time>2023-04-25T12:18:29Z</time>
      </trkpt>
      <trkpt lat="49.18114" lon="-0.85302">
        <ele>77.6</ele>
        <time>2023-04-25T12:18:30Z</time>
      </trkpt>
      <trkpt lat="49.18112" lon="-0.85307">
        <ele>77.6</ele>
        <time>2023-04-25T12:18:31Z</time>
      </trkpt>
      <trkpt lat="49.1811" lon="-0.85312">
        <ele>77.6</ele>
        <time>2023-04-25T12:18:32Z</time>
      </trkpt>
      <trkpt lat="49.18108" lon="-0.85317">
        <ele>77.8</ele>
        <time>2023-04-25T12:18:33Z</time>
      </trkpt>
      <trkpt lat="49.18106" lon="-0.85322">
        <ele>78</ele>
        <time>2023-04-25T12:18:34Z</time>
      </trkpt>
      <trkpt lat="49.18104" lon="-0.85327">
        <ele>78</ele>
        <time>2023-04-25T12:18:35Z</time>
      </trkpt>
      <trkpt lat="49.18102" lon="-0.85332">
        <ele>78.2</ele>
        <time>2023-04-25T12:18:36Z</time>
      </trkpt>
      <trkpt lat="49.181" lon="-0.85336">
        <ele>78.2</ele>
        <time>2023-04-25T12:18:37Z</time>
      </trkpt>
      <trkpt lat="49.18098" lon="-0.85341">
        <ele>78.2</ele>
        <time>2023-04-25T12:18:38Z</time>
      </trkpt>
      <trkpt lat="49.18097" lon="-0.85346">
        <ele>78.2</ele>
        <time>2023-04-25T12:18:39Z</time>
      </trkpt>
      <trkpt lat="49.18095" lon="-0.85351">
        <ele>78.2</ele>
        <time>2023-04-25T12:18:40Z</time>
      </trkpt>
      <trkpt lat="49.18093" lon="-0.85356">
        <ele>78.2</ele>
        <time>2023-04-25T12:18:41Z</time>
      </trkpt>
      <trkpt lat="49.18091" lon="-0.85361">
        <ele>78.2</ele>
        <time>2023-04-25T12:18:42Z</time>
      </trkpt>
      <trkpt lat="49.18089" lon="-0.85366">
        <ele>78</ele>
        <time>2023-04-25T12:18:43Z</time>
      </trkpt>
      <trkpt lat="49.18087" lon="-0.85371">
        <ele>78</ele>
        <time>2023-04-25T12:18:44Z</time>
      </trkpt>
      <trkpt lat="49.18085" lon="-0.85376">
        <ele>78</ele>
        <time>2023-04-25T12:18:45Z</time>
      </trkpt>
      <trkpt lat="49.18084" lon="-0.85382">
        <ele>78</ele>
        <time>2023-04-25T12:18:46Z</time>
      </trkpt>
      <trkpt lat="49.18082" lon="-0.85387">
        <ele>78</ele>
        <time>2023-04-25T12:18:47Z</time>
      </trkpt>
      <trkpt lat="49.1808" lon="-0.85392">
        <ele>78</ele>
        <time>2023-04-25T12:18:48Z</time>
      </trkpt>
      <trkpt lat="49.18078" lon="-0.85398">
        <ele>78</ele>
        <time>2023-04-25T12:18:49Z</time>
      </trkpt>
      <trkpt lat="49.18076" lon="-0.85403">
        <ele>78</ele>
        <time>2023-04-25T12:18:50Z</time>
      </trkpt>
      <trkpt lat="49.18074" lon="-0.85409">
        <ele>78</ele>
        <time>2023-04-25T12:18:51Z</time>
      </trkpt>
      <trkpt lat="49.18072" lon="-0.85414">
        <ele>78</ele>
        <time>2023-04-25T12:18:52Z</time>
      </trkpt>
      <trkpt lat="49.1807" lon="-0.85419">
        <ele>78</ele>
        <time>2023-04-25T12:18:53Z</time>
      </trkpt>
      <trkpt lat="49.18068" lon="-0.85425">
        <ele>78.2</ele>
        <time>2023-04-25T12:18:54Z</time>
      </trkpt>
      <trkpt lat="49.18067" lon="-0.8543">
        <ele>78.4</ele>
        <time>2023-04-25T12:18:55Z</time>
      </trkpt>
      <trkpt lat="49.18065" lon="-0.85436">
        <ele>78.6</ele>
        <time>2023-04-25T12:18:56Z</time>
      </trkpt>
      <trkpt lat="49.18063" lon="-0.85441">
        <ele>78.6</ele>
        <time>2023-04-25T12:18:57Z</time>
      </trkpt>
      <trkpt lat="49.18062" lon="-0.85447">
        <ele>78.6</ele>
        <time>2023-04-25T12:18:58Z</time>
      </trkpt>
      <trkpt lat="49.1806" lon="-0.85452">
        <ele>79</ele>
        <time>2023-04-25T12:18:59Z</time>
      </trkpt>
      <trkpt lat="49.18059" lon="-0.85458">
        <ele>79</ele>
        <time>2023-04-25T12:19:00Z</time>
      </trkpt>
      <trkpt lat="49.18057" lon="-0.85463">
        <ele>79</ele>
        <time>2023-04-25T12:19:01Z</time>
      </trkpt>
      <trkpt lat="49.18055" lon="-0.85469">
        <ele>79.4</ele>
        <time>2023-04-25T12:19:02Z</time>
      </trkpt>
      <trkpt lat="49.18054" lon="-0.85475">
        <ele>79.4</ele>
        <time>2023-04-25T12:19:03Z</time>
      </trkpt>
      <trkpt lat="49.18052" lon="-0.85481">
        <ele>79.6</ele>
        <time>2023-04-25T12:19:04Z</time>
      </trkpt>
      <trkpt lat="49.18051" lon="-0.85487">
        <ele>79.6</ele>
        <time>2023-04-25T12:19:05Z</time>
      </trkpt>
      <trkpt lat="49.18049" lon="-0.85494">
        <ele>79.8</ele>
        <time>2023-04-25T12:19:06Z</time>
      </trkpt>
      <trkpt lat="49.18048" lon="-0.855">
        <ele>80</ele>
        <time>2023-04-25T12:19:07Z</time>
      </trkpt>
      <trkpt lat="49.18046" lon="-0.85506">
        <ele>80</ele>
        <time>2023-04-25T12:19:08Z</time>
      </trkpt>
      <trkpt lat="49.18045" lon="-0.85513">
        <ele>80</ele>
        <time>2023-04-25T12:19:09Z</time>
      </trkpt>
      <trkpt lat="49.18043" lon="-0.85519">
        <ele>80</ele>
        <time>2023-04-25T12:19:10Z</time>
      </trkpt>
      <trkpt lat="49.18042" lon="-0.85526">
        <ele>80.2</ele>
        <time>2023-04-25T12:19:11Z</time>
      </trkpt>
      <trkpt lat="49.1804" lon="-0.85532">
        <ele>80.2</ele>
        <time>2023-04-25T12:19:12Z</time>
      </trkpt>
      <trkpt lat="49.18039" lon="-0.85539">
        <ele>80.2</ele>
        <time>2023-04-25T12:19:13Z</time>
      </trkpt>
      <trkpt lat="49.18037" lon="-0.85546">
        <ele>80.2</ele>
        <time>2023-04-25T12:19:14Z</time>
      </trkpt>
      <trkpt lat="49.18036" lon="-0.85552">
        <ele>80.4</ele>
        <time>2023-04-25T12:19:15Z</time>
      </trkpt>
      <trkpt lat="49.18034" lon="-0.85559">
        <ele>80.4</ele>
        <time>2023-04-25T12:19:16Z</time>
      </trkpt>
      <trkpt lat="49.18032" lon="-0.85566">
        <ele>80.4</ele>
        <time>2023-04-25T12:19:17Z</time>
      </trkpt>
      <trkpt lat="49.18031" lon="-0.85573">
        <ele>80.4</ele>
        <time>2023-04-25T12:19:18Z</time>
      </trkpt>
      <trkpt lat="49.18029" lon="-0.8558">
        <ele>80.4</ele>
        <time>2023-04-25T12:19:19Z</time>
      </trkpt>
      <trkpt lat="49.18027" lon="-0.85587">
        <ele>80.4</ele>
        <time>2023-04-25T12:19:20Z</time>
      </trkpt>
      <trkpt lat="49.18026" lon="-0.85594">
        <ele>80.6</ele>
        <time>2023-04-25T12:19:21Z</time>
      </trkpt>
      <trkpt lat="49.18024" lon="-0.85601">
        <ele>81</ele>
        <time>2023-04-25T12:19:22Z</time>
      </trkpt>
      <trkpt lat="49.18023" lon="-0.85609">
        <ele>81</ele>
        <time>2023-04-25T12:19:23Z</time>
      </trkpt>
      <trkpt lat="49.18021" lon="-0.85616">
        <ele>81.2</ele>
        <time>2023-04-25T12:19:24Z</time>
      </trkpt>
      <trkpt lat="49.18019" lon="-0.85624">
        <ele>81.4</ele>
        <time>2023-04-25T12:19:25Z</time>
      </trkpt>
      <trkpt lat="49.18018" lon="-0.85632">
        <ele>81.6</ele>
        <time>2023-04-25T12:19:26Z</time>
      </trkpt>
      <trkpt lat="49.18016" lon="-0.8564">
        <ele>81.8</ele>
        <time>2023-04-25T12:19:27Z</time>
      </trkpt>
      <trkpt lat="49.18014" lon="-0.85648">
        <ele>82</ele>
        <time>2023-04-25T12:19:28Z</time>
      </trkpt>
      <trkpt lat="49.18013" lon="-0.85656">
        <ele>82.2</ele>
        <time>2023-04-25T12:19:29Z</time>
      </trkpt>
      <trkpt lat="49.18011" lon="-0.85665">
        <ele>82.4</ele>
        <time>2023-04-25T12:19:30Z</time>
      </trkpt>
      <trkpt lat="49.18009" lon="-0.85673">
        <ele>82.6</ele>
        <time>2023-04-25T12:19:31Z</time>
      </trkpt>
      <trkpt lat="49.18007" lon="-0.85682">
        <ele>82.8</ele>
        <time>2023-04-25T12:19:32Z</time>
      </trkpt>
      <trkpt lat="49.18005" lon="-0.8569">
        <ele>83</ele>
        <time>2023-04-25T12:19:33Z</time>
      </trkpt>
      <trkpt lat="49.18004" lon="-0.85699">
        <ele>83.4</ele>
        <time>2023-04-25T12:19:34Z</time>
      </trkpt>
      <trkpt lat="49.18002" lon="-0.85708">
        <ele>83.6</ele>
        <time>2023-04-25T12:19:35Z</time>
      </trkpt>
      <trkpt lat="49.18" lon="-0.85717">
        <ele>83.8</ele>
        <time>2023-04-25T12:19:36Z</time>
      </trkpt>
      <trkpt lat="49.17998" lon="-0.85726">
        <ele>84</ele>
        <time>2023-04-25T12:19:37Z</time>
      </trkpt>
      <trkpt lat="49.17996" lon="-0.85735">
        <ele>84.2</ele>
        <time>2023-04-25T12:19:38Z</time>
      </trkpt>
      <trkpt lat="49.17995" lon="-0.85744">
        <ele>84.4</ele>
        <time>2023-04-25T12:19:39Z</time>
      </trkpt>
      <trkpt lat="49.17993" lon="-0.85753">
        <ele>84.6</ele>
        <time>2023-04-25T12:19:40Z</time>
      </trkpt>
      <trkpt lat="49.17991" lon="-0.85762">
        <ele>85</ele>
        <time>2023-04-25T12:19:41Z</time>
      </trkpt>
      <trkpt lat="49.17989" lon="-0.85771">
        <ele>85.2</ele>
        <time>2023-04-25T12:19:42Z</time>
      </trkpt>
      <trkpt lat="49.17987" lon="-0.8578">
        <ele>85.4</ele>
        <time>2023-04-25T12:19:43Z</time>
      </trkpt>
      <trkpt lat="49.17985" lon="-0.85789">
        <ele>85.6</ele>
        <time>2023-04-25T12:19:44Z</time>
      </trkpt>
      <trkpt lat="49.17983" lon="-0.85798">
        <ele>86</ele>
        <time>2023-04-25T12:19:45Z</time>
      </trkpt>
      <trkpt lat="49.17981" lon="-0.85807">
        <ele>86.2</ele>
        <time>2023-04-25T12:19:46Z</time>
      </trkpt>
      <trkpt lat="49.17979" lon="-0.85816">
        <ele>86.6</ele>
        <time>2023-04-25T12:19:47Z</time>
      </trkpt>
      <trkpt lat="49.17977" lon="-0.85825">
        <ele>86.6</ele>
        <time>2023-04-25T12:19:48Z</time>
      </trkpt>
      <trkpt lat="49.17976" lon="-0.85835">
        <ele>87</ele>
        <time>2023-04-25T12:19:49Z</time>
      </trkpt>
      <trkpt lat="49.17974" lon="-0.85844">
        <ele>87.4</ele>
        <time>2023-04-25T12:19:50Z</time>
      </trkpt>
      <trkpt lat="49.17973" lon="-0.85853">
        <ele>87.6</ele>
        <time>2023-04-25T12:19:51Z</time>
      </trkpt>
      <trkpt lat="49.17971" lon="-0.85863">
        <ele>88</ele>
        <time>2023-04-25T12:19:52Z</time>
      </trkpt>
      <trkpt lat="49.1797" lon="-0.85873">
        <ele>88.2</ele>
        <time>2023-04-25T12:19:53Z</time>
      </trkpt>
      <trkpt lat="49.17969" lon="-0.85882">
        <ele>88.6</ele>
        <time>2023-04-25T12:19:54Z</time>
      </trkpt>
      <trkpt lat="49.17968" lon="-0.85892">
        <ele>89</ele>
        <time>2023-04-25T12:19:55Z</time>
      </trkpt>
      <trkpt lat="49.17967" lon="-0.85901">
        <ele>89.4</ele>
        <time>2023-04-25T12:19:56Z</time>
      </trkpt>
      <trkpt lat="49.17966" lon="-0.8591">
        <ele>89.6</ele>
        <time>2023-04-25T12:19:57Z</time>
      </trkpt>
      <trkpt lat="49.17965" lon="-0.85919">
        <ele>90</ele>
        <time>2023-04-25T12:19:58Z</time>
      </trkpt>
      <trkpt lat="49.17965" lon="-0.85927">
        <ele>90</ele>
        <time>2023-04-25T12:19:59Z</time>
      </trkpt>
      <trkpt lat="49.17964" lon="-0.85936">
        <ele>90.2</ele>
        <time>2023-04-25T12:20:00Z</time>
      </trkpt>
      <trkpt lat="49.17964" lon="-0.85944">
        <ele>90.4</ele>
        <time>2023-04-25T12:20:01Z</time>
      </trkpt>
      <trkpt lat="49.17963" lon="-0.85952">
        <ele>90.4</ele>
        <time>2023-04-25T12:20:02Z</time>
      </trkpt>
      <trkpt lat="49.17963" lon="-0.8596">
        <ele>90.6</ele>
        <time>2023-04-25T12:20:03Z</time>
      </trkpt>
      <trkpt lat="49.17963" lon="-0.85969">
        <ele>90.6</ele>
        <time>2023-04-25T12:20:04Z</time>
      </trkpt>
      <trkpt lat="49.17962" lon="-0.85977">
        <ele>90.8</ele>
        <time>2023-04-25T12:20:05Z</time>
      </trkpt>
      <trkpt lat="49.17962" lon="-0.85984">
        <ele>91</ele>
        <time>2023-04-25T12:20:06Z</time>
      </trkpt>
      <trkpt lat="49.17962" lon="-0.85993">
        <ele>91</ele>
        <time>2023-04-25T12:20:07Z</time>
      </trkpt>
      <trkpt lat="49.17962" lon="-0.86">
        <ele>91.2</ele>
        <time>2023-04-25T12:20:08Z</time>
      </trkpt>
      <trkpt lat="49.17962" lon="-0.86009">
        <ele>91.2</ele>
        <time>2023-04-25T12:20:09Z</time>
      </trkpt>
      <trkpt lat="49.17962" lon="-0.86017">
        <ele>91.4</ele>
        <time>2023-04-25T12:20:10Z</time>
      </trkpt>
      <trkpt lat="49.17963" lon="-0.86025">
        <ele>91.4</ele>
        <time>2023-04-25T12:20:11Z</time>
      </trkpt>
      <trkpt lat="49.17963" lon="-0.86033">
        <ele>91.4</ele>
        <time>2023-04-25T12:20:12Z</time>
      </trkpt>
      <trkpt lat="49.17963" lon="-0.86041">
        <ele>91.6</ele>
        <time>2023-04-25T12:20:13Z</time>
      </trkpt>
      <trkpt lat="49.17964" lon="-0.86049">
        <ele>91.6</ele>
        <time>2023-04-25T12:20:14Z</time>
      </trkpt>
      <trkpt lat="49.17964" lon="-0.86057">
        <ele>91.6</ele>
        <time>2023-04-25T12:20:15Z</time>
      </trkpt>
      <trkpt lat="49.17965" lon="-0.86065">
        <ele>91.8</ele>
        <time>2023-04-25T12:20:16Z</time>
      </trkpt>
      <trkpt lat="49.17966" lon="-0.86073">
        <ele>92</ele>
        <time>2023-04-25T12:20:17Z</time>
      </trkpt>
      <trkpt lat="49.17967" lon="-0.86081">
        <ele>92</ele>
        <time>2023-04-25T12:20:18Z</time>
      </trkpt>
      <trkpt lat="49.17968" lon="-0.86089">
        <ele>92</ele>
        <time>2023-04-25T12:20:19Z</time>
      </trkpt>
      <trkpt lat="49.17969" lon="-0.86097">
        <ele>91.8</ele>
        <time>2023-04-25T12:20:20Z</time>
      </trkpt>
      <trkpt lat="49.1797" lon="-0.86106">
        <ele>91.6</ele>
        <time>2023-04-25T12:20:21Z</time>
      </trkpt>
      <trkpt lat="49.17971" lon="-0.86114">
        <ele>91.6</ele>
        <time>2023-04-25T12:20:22Z</time>
      </trkpt>
      <trkpt lat="49.17972" lon="-0.86122">
        <ele>91.4</ele>
        <time>2023-04-25T12:20:23Z</time>
      </trkpt>
      <trkpt lat="49.17973" lon="-0.86131">
        <ele>91.4</ele>
        <time>2023-04-25T12:20:24Z</time>
      </trkpt>
      <trkpt lat="49.17975" lon="-0.86139">
        <ele>91.2</ele>
        <time>2023-04-25T12:20:25Z</time>
      </trkpt>
      <trkpt lat="49.17976" lon="-0.86148">
        <ele>91</ele>
        <time>2023-04-25T12:20:26Z</time>
      </trkpt>
      <trkpt lat="49.17978" lon="-0.86157">
        <ele>91</ele>
        <time>2023-04-25T12:20:27Z</time>
      </trkpt>
      <trkpt lat="49.1798" lon="-0.86166">
        <ele>91</ele>
        <time>2023-04-25T12:20:28Z</time>
      </trkpt>
      <trkpt lat="49.17983" lon="-0.86176">
        <ele>90.8</ele>
        <time>2023-04-25T12:20:29Z</time>
      </trkpt>
      <trkpt lat="49.17986" lon="-0.86186">
        <ele>90.6</ele>
        <time>2023-04-25T12:20:30Z</time>
      </trkpt>
      <trkpt lat="49.17989" lon="-0.86196">
        <ele>90.4</ele>
        <time>2023-04-25T12:20:31Z</time>
      </trkpt>
      <trkpt lat="49.17992" lon="-0.86206">
        <ele>90</ele>
        <time>2023-04-25T12:20:32Z</time>
      </trkpt>
      <trkpt lat="49.17996" lon="-0.86216">
        <ele>89.6</ele>
        <time>2023-04-25T12:20:33Z</time>
      </trkpt>
      <trkpt lat="49.17999" lon="-0.86227">
        <ele>89.4</ele>
        <time>2023-04-25T12:20:34Z</time>
      </trkpt>
      <trkpt lat="49.18003" lon="-0.86239">
        <ele>89</ele>
        <time>2023-04-25T12:20:35Z</time>
      </trkpt>
      <trkpt lat="49.18007" lon="-0.8625">
        <ele>88.6</ele>
        <time>2023-04-25T12:20:36Z</time>
      </trkpt>
      <trkpt lat="49.18011" lon="-0.86262">
        <ele>89</ele>
        <time>2023-04-25T12:20:37Z</time>
      </trkpt>
      <trkpt lat="49.18016" lon="-0.86275">
        <ele>89.4</ele>
        <time>2023-04-25T12:20:38Z</time>
      </trkpt>
      <trkpt lat="49.1802" lon="-0.86287">
        <ele>89.6</ele>
        <time>2023-04-25T12:20:39Z</time>
      </trkpt>
      <trkpt lat="49.18024" lon="-0.86299">
        <ele>90</ele>
        <time>2023-04-25T12:20:40Z</time>
      </trkpt>
      <trkpt lat="49.18028" lon="-0.86311">
        <ele>90.4</ele>
        <time>2023-04-25T12:20:41Z</time>
      </trkpt>
      <trkpt lat="49.18031" lon="-0.86322">
        <ele>90.6</ele>
        <time>2023-04-25T12:20:42Z</time>
      </trkpt>
      <trkpt lat="49.18032" lon="-0.86333">
        <ele>91</ele>
        <time>2023-04-25T12:20:43Z</time>
      </trkpt>
      <trkpt lat="49.18033" lon="-0.86344">
        <ele>91.4</ele>
        <time>2023-04-25T12:20:44Z</time>
      </trkpt>
      <trkpt lat="49.18032" lon="-0.86354">
        <ele>91.6</ele>
        <time>2023-04-25T12:20:45Z</time>
      </trkpt>
      <trkpt lat="49.18029" lon="-0.86364">
        <ele>91.6</ele>
        <time>2023-04-25T12:20:46Z</time>
      </trkpt>
      <trkpt lat="49.18026" lon="-0.86374">
        <ele>91.6</ele>
        <time>2023-04-25T12:20:47Z</time>
      </trkpt>
      <trkpt lat="49.18023" lon="-0.86382">
        <ele>91.4</ele>
        <time>2023-04-25T12:20:48Z</time>
      </trkpt>
      <trkpt lat="49.1802" lon="-0.86391">
        <ele>91.4</ele>
        <time>2023-04-25T12:20:49Z</time>
      </trkpt>
      <trkpt lat="49.18017" lon="-0.86398">
        <ele>91.2</ele>
        <time>2023-04-25T12:20:50Z</time>
      </trkpt>
      <trkpt lat="49.18014" lon="-0.86406">
        <ele>91</ele>
        <time>2023-04-25T12:20:51Z</time>
      </trkpt>
      <trkpt lat="49.1801" lon="-0.86413">
        <ele>91</ele>
        <time>2023-04-25T12:20:52Z</time>
      </trkpt>
      <trkpt lat="49.18007" lon="-0.86419">
        <ele>90.8</ele>
        <time>2023-04-25T12:20:53Z</time>
      </trkpt>
      <trkpt lat="49.18003" lon="-0.86426">
        <ele>90.6</ele>
        <time>2023-04-25T12:20:54Z</time>
      </trkpt>
      <trkpt lat="49.17999" lon="-0.86432">
        <ele>90.4</ele>
        <time>2023-04-25T12:20:55Z</time>
      </trkpt>
      <trkpt lat="49.17995" lon="-0.86438">
        <ele>90</ele>
        <time>2023-04-25T12:20:56Z</time>
      </trkpt>
      <trkpt lat="49.17991" lon="-0.86444">
        <ele>89.8</ele>
        <time>2023-04-25T12:20:57Z</time>
      </trkpt>
      <trkpt lat="49.17987" lon="-0.8645">
        <ele>89.6</ele>
        <time>2023-04-25T12:20:58Z</time>
      </trkpt>
      <trkpt lat="49.17983" lon="-0.86456">
        <ele>89.4</ele>
        <time>2023-04-25T12:20:59Z</time>
      </trkpt>
      <trkpt lat="49.17979" lon="-0.86463">
        <ele>89</ele>
        <time>2023-04-25T12:21:00Z</time>
      </trkpt>
      <trkpt lat="49.17975" lon="-0.86469">
        <ele>88.6</ele>
        <time>2023-04-25T12:21:01Z</time>
      </trkpt>
      <trkpt lat="49.17972" lon="-0.86476">
        <ele>88.6</ele>
        <time>2023-04-25T12:21:02Z</time>
      </trkpt>
      <trkpt lat="49.17968" lon="-0.86483">
        <ele>88.4</ele>
        <time>2023-04-25T12:21:03Z</time>
      </trkpt>
      <trkpt lat="49.17965" lon="-0.8649">
        <ele>88</ele>
        <time>2023-04-25T12:21:04Z</time>
      </trkpt>
      <trkpt lat="49.17962" lon="-0.86498">
        <ele>88</ele>
        <time>2023-04-25T12:21:05Z</time>
      </trkpt>
      <trkpt lat="49.17958" lon="-0.86505">
        <ele>87.6</ele>
        <time>2023-04-25T12:21:06Z</time>
      </trkpt>
      <trkpt lat="49.17955" lon="-0.86512">
        <ele>87.4</ele>
        <time>2023-04-25T12:21:07Z</time>
      </trkpt>
      <trkpt lat="49.17952" lon="-0.86519">
        <ele>87</ele>
        <time>2023-04-25T12:21:08Z</time>
      </trkpt>
      <trkpt lat="49.17948" lon="-0.86527">
        <ele>86.6</ele>
        <time>2023-04-25T12:21:09Z</time>
      </trkpt>
      <trkpt lat="49.17945" lon="-0.86536">
        <ele>86.4</ele>
        <time>2023-04-25T12:21:10Z</time>
      </trkpt>
      <trkpt lat="49.17941" lon="-0.86545">
        <ele>86</ele>
        <time>2023-04-25T12:21:11Z</time>
      </trkpt>
      <trkpt lat="49.17938" lon="-0.86554">
        <ele>85.6</ele>
        <time>2023-04-25T12:21:12Z</time>
      </trkpt>
      <trkpt lat="49.17935" lon="-0.86565">
        <ele>85.4</ele>
        <time>2023-04-25T12:21:13Z</time>
      </trkpt>
      <trkpt lat="49.17931" lon="-0.86576">
        <ele>85</ele>
        <time>2023-04-25T12:21:14Z</time>
      </trkpt>
      <trkpt lat="49.17928" lon="-0.86588">
        <ele>84.4</ele>
        <time>2023-04-25T12:21:15Z</time>
      </trkpt>
      <trkpt lat="49.17925" lon="-0.866">
        <ele>83.4</ele>
        <time>2023-04-25T12:21:16Z</time>
      </trkpt>
      <trkpt lat="49.17922" lon="-0.86612">
        <ele>82.4</ele>
        <time>2023-04-25T12:21:17Z</time>
      </trkpt>
      <trkpt lat="49.17919" lon="-0.86625">
        <ele>81.4</ele>
        <time>2023-04-25T12:21:18Z</time>
      </trkpt>
      <trkpt lat="49.17917" lon="-0.86639">
        <ele>80.4</ele>
        <time>2023-04-25T12:21:19Z</time>
      </trkpt>
      <trkpt lat="49.17915" lon="-0.86654">
        <ele>79.6</ele>
        <time>2023-04-25T12:21:20Z</time>
      </trkpt>
      <trkpt lat="49.17914" lon="-0.8667">
        <ele>78.6</ele>
        <time>2023-04-25T12:21:21Z</time>
      </trkpt>
      <trkpt lat="49.17914" lon="-0.86686">
        <ele>77.6</ele>
        <time>2023-04-25T12:21:22Z</time>
      </trkpt>
      <trkpt lat="49.17915" lon="-0.86703">
        <ele>76.6</ele>
        <time>2023-04-25T12:21:23Z</time>
      </trkpt>
      <trkpt lat="49.17916" lon="-0.8672">
        <ele>75.6</ele>
        <time>2023-04-25T12:21:24Z</time>
      </trkpt>
      <trkpt lat="49.17917" lon="-0.86738">
        <ele>74.8</ele>
        <time>2023-04-25T12:21:25Z</time>
      </trkpt>
      <trkpt lat="49.17918" lon="-0.86755">
        <ele>74.4</ele>
        <time>2023-04-25T12:21:26Z</time>
      </trkpt>
      <trkpt lat="49.17919" lon="-0.86773">
        <ele>74.4</ele>
        <time>2023-04-25T12:21:27Z</time>
      </trkpt>
      <trkpt lat="49.17919" lon="-0.8679">
        <ele>74.4</ele>
        <time>2023-04-25T12:21:28Z</time>
      </trkpt>
      <trkpt lat="49.17917" lon="-0.86806">
        <ele>74</ele>
        <time>2023-04-25T12:21:29Z</time>
      </trkpt>
      <trkpt lat="49.17914" lon="-0.86822">
        <ele>74</ele>
        <time>2023-04-25T12:21:30Z</time>
      </trkpt>
      <trkpt lat="49.1791" lon="-0.86837">
        <ele>74</ele>
        <time>2023-04-25T12:21:31Z</time>
      </trkpt>
      <trkpt lat="49.17907" lon="-0.86852">
        <ele>74.2</ele>
        <time>2023-04-25T12:21:32Z</time>
      </trkpt>
      <trkpt lat="49.17904" lon="-0.86867">
        <ele>74.4</ele>
        <time>2023-04-25T12:21:33Z</time>
      </trkpt>
      <trkpt lat="49.17901" lon="-0.86882">
        <ele>74.6</ele>
        <time>2023-04-25T12:21:34Z</time>
      </trkpt>
      <trkpt lat="49.17898" lon="-0.86896">
        <ele>74.6</ele>
        <time>2023-04-25T12:21:35Z</time>
      </trkpt>
      <trkpt lat="49.17895" lon="-0.8691">
        <ele>74.8</ele>
        <time>2023-04-25T12:21:36Z</time>
      </trkpt>
      <trkpt lat="49.17892" lon="-0.86923">
        <ele>75</ele>
        <time>2023-04-25T12:21:37Z</time>
      </trkpt>
      <trkpt lat="49.1789" lon="-0.86936">
        <ele>75</ele>
        <time>2023-04-25T12:21:38Z</time>
      </trkpt>
      <trkpt lat="49.17887" lon="-0.86949">
        <ele>75.4</ele>
        <time>2023-04-25T12:21:39Z</time>
      </trkpt>
      <trkpt lat="49.17884" lon="-0.86961">
        <ele>75.4</ele>
        <time>2023-04-25T12:21:40Z</time>
      </trkpt>
      <trkpt lat="49.1788" lon="-0.86973">
        <ele>75.4</ele>
        <time>2023-04-25T12:21:41Z</time>
      </trkpt>
      <trkpt lat="49.17876" lon="-0.86985">
        <ele>75.2</ele>
        <time>2023-04-25T12:21:42Z</time>
      </trkpt>
      <trkpt lat="49.17872" lon="-0.86995">
        <ele>75</ele>
        <time>2023-04-25T12:21:43Z</time>
      </trkpt>
      <trkpt lat="49.17867" lon="-0.87006">
        <ele>74.8</ele>
        <time>2023-04-25T12:21:44Z</time>
      </trkpt>
      <trkpt lat="49.17862" lon="-0.87015">
        <ele>74.6</ele>
        <time>2023-04-25T12:21:45Z</time>
      </trkpt>
      <trkpt lat="49.17856" lon="-0.87024">
        <ele>74.6</ele>
        <time>2023-04-25T12:21:46Z</time>
      </trkpt>
      <trkpt lat="49.1785" lon="-0.87032">
        <ele>74</ele>
        <time>2023-04-25T12:21:47Z</time>
      </trkpt>
      <trkpt lat="49.17843" lon="-0.8704">
        <ele>73.6</ele>
        <time>2023-04-25T12:21:48Z</time>
      </trkpt>
      <trkpt lat="49.17836" lon="-0.87047">
        <ele>73.2</ele>
        <time>2023-04-25T12:21:49Z</time>
      </trkpt>
      <trkpt lat="49.17829" lon="-0.87054">
        <ele>73.4</ele>
        <time>2023-04-25T12:21:50Z</time>
      </trkpt>
      <trkpt lat="49.17821" lon="-0.8706">
        <ele>74</ele>
        <time>2023-04-25T12:21:51Z</time>
      </trkpt>
      <trkpt lat="49.17814" lon="-0.87065">
        <ele>74.6</ele>
        <time>2023-04-25T12:21:52Z</time>
      </trkpt>
      <trkpt lat="49.17806" lon="-0.8707">
        <ele>75</ele>
        <time>2023-04-25T12:21:53Z</time>
      </trkpt>
      <trkpt lat="49.17798" lon="-0.87075">
        <ele>75.4</ele>
        <time>2023-04-25T12:21:54Z</time>
      </trkpt>
      <trkpt lat="49.17791" lon="-0.8708">
        <ele>75.6</ele>
        <time>2023-04-25T12:21:55Z</time>
      </trkpt>
      <trkpt lat="49.17784" lon="-0.87085">
        <ele>75.6</ele>
        <time>2023-04-25T12:21:56Z</time>
      </trkpt>
      <trkpt lat="49.17777" lon="-0.87091">
        <ele>75.6</ele>
        <time>2023-04-25T12:21:57Z</time>
      </trkpt>
      <trkpt lat="49.1777" lon="-0.87097">
        <ele>75.6</ele>
        <time>2023-04-25T12:21:58Z</time>
      </trkpt>
      <trkpt lat="49.17764" lon="-0.87104">
        <ele>75.4</ele>
        <time>2023-04-25T12:21:59Z</time>
      </trkpt>
      <trkpt lat="49.17759" lon="-0.87112">
        <ele>75</ele>
        <time>2023-04-25T12:22:00Z</time>
      </trkpt>
      <trkpt lat="49.17754" lon="-0.87119">
        <ele>74.8</ele>
        <time>2023-04-25T12:22:01Z</time>
      </trkpt>
      <trkpt lat="49.17749" lon="-0.87127">
        <ele>74.6</ele>
        <time>2023-04-25T12:22:02Z</time>
      </trkpt>
      <trkpt lat="49.17745" lon="-0.87135">
        <ele>74.8</ele>
        <time>2023-04-25T12:22:03Z</time>
      </trkpt>
      <trkpt lat="49.17741" lon="-0.87143">
        <ele>75</ele>
        <time>2023-04-25T12:22:04Z</time>
      </trkpt>
      <trkpt lat="49.17737" lon="-0.87151">
        <ele>75</ele>
        <time>2023-04-25T12:22:05Z</time>
      </trkpt>
      <trkpt lat="49.17733" lon="-0.87159">
        <ele>75.4</ele>
        <time>2023-04-25T12:22:06Z</time>
      </trkpt>
      <trkpt lat="49.1773" lon="-0.87166">
        <ele>75.4</ele>
        <time>2023-04-25T12:22:07Z</time>
      </trkpt>
      <trkpt lat="49.17727" lon="-0.87174">
        <ele>75.6</ele>
        <time>2023-04-25T12:22:08Z</time>
      </trkpt>
      <trkpt lat="49.17724" lon="-0.87181">
        <ele>76</ele>
        <time>2023-04-25T12:22:09Z</time>
      </trkpt>
      <trkpt lat="49.17721" lon="-0.87189">
        <ele>76.2</ele>
        <time>2023-04-25T12:22:10Z</time>
      </trkpt>
      <trkpt lat="49.17718" lon="-0.87196">
        <ele>76.4</ele>
        <time>2023-04-25T12:22:11Z</time>
      </trkpt>
      <trkpt lat="49.17716" lon="-0.87203">
        <ele>76.6</ele>
        <time>2023-04-25T12:22:12Z</time>
      </trkpt>
      <trkpt lat="49.17713" lon="-0.8721">
        <ele>76.8</ele>
        <time>2023-04-25T12:22:13Z</time>
      </trkpt>
      <trkpt lat="49.1771" lon="-0.87217">
        <ele>77</ele>
        <time>2023-04-25T12:22:14Z</time>
      </trkpt>
      <trkpt lat="49.17708" lon="-0.87224">
        <ele>77</ele>
        <time>2023-04-25T12:22:15Z</time>
      </trkpt>
      <trkpt lat="49.17705" lon="-0.87231">
        <ele>77</ele>
        <time>2023-04-25T12:22:16Z</time>
      </trkpt>
      <trkpt lat="49.17703" lon="-0.87238">
        <ele>77.2</ele>
        <time>2023-04-25T12:22:17Z</time>
      </trkpt>
      <trkpt lat="49.177" lon="-0.87244">
        <ele>77.4</ele>
        <time>2023-04-25T12:22:18Z</time>
      </trkpt>
      <trkpt lat="49.17698" lon="-0.87251">
        <ele>77.4</ele>
        <time>2023-04-25T12:22:19Z</time>
      </trkpt>
      <trkpt lat="49.17696" lon="-0.87257">
        <ele>77.4</ele>
        <time>2023-04-25T12:22:20Z</time>
      </trkpt>
      <trkpt lat="49.17693" lon="-0.87263">
        <ele>77.4</ele>
        <time>2023-04-25T12:22:21Z</time>
      </trkpt>
      <trkpt lat="49.17691" lon="-0.87269">
        <ele>77.4</ele>
        <time>2023-04-25T12:22:22Z</time>
      </trkpt>
      <trkpt lat="49.17689" lon="-0.87275">
        <ele>77.4</ele>
        <time>2023-04-25T12:22:23Z</time>
      </trkpt>
      <trkpt lat="49.17686" lon="-0.87281">
        <ele>77.4</ele>
        <time>2023-04-25T12:22:24Z</time>
      </trkpt>
      <trkpt lat="49.17684" lon="-0.87287">
        <ele>77.4</ele>
        <time>2023-04-25T12:22:25Z</time>
      </trkpt>
      <trkpt lat="49.17682" lon="-0.87293">
        <ele>77.2</ele>
        <time>2023-04-25T12:22:26Z</time>
      </trkpt>
      <trkpt lat="49.1768" lon="-0.87298">
        <ele>77</ele>
        <time>2023-04-25T12:22:27Z</time>
      </trkpt>
      <trkpt lat="49.17678" lon="-0.87303">
        <ele>77</ele>
        <time>2023-04-25T12:22:28Z</time>
      </trkpt>
      <trkpt lat="49.17675" lon="-0.87309">
        <ele>77</ele>
        <time>2023-04-25T12:22:29Z</time>
      </trkpt>
      <trkpt lat="49.17673" lon="-0.87314">
        <ele>76.6</ele>
        <time>2023-04-25T12:22:30Z</time>
      </trkpt>
      <trkpt lat="49.17671" lon="-0.87319">
        <ele>76.6</ele>
        <time>2023-04-25T12:22:31Z</time>
      </trkpt>
      <trkpt lat="49.17669" lon="-0.87324">
        <ele>76.4</ele>
        <time>2023-04-25T12:22:32Z</time>
      </trkpt>
      <trkpt lat="49.17667" lon="-0.87329">
        <ele>76.2</ele>
        <time>2023-04-25T12:22:33Z</time>
      </trkpt>
      <trkpt lat="49.17665" lon="-0.87334">
        <ele>76.2</ele>
        <time>2023-04-25T12:22:34Z</time>
      </trkpt>
      <trkpt lat="49.17663" lon="-0.87339">
        <ele>76.4</ele>
        <time>2023-04-25T12:22:35Z</time>
      </trkpt>
      <trkpt lat="49.17662" lon="-0.87344">
        <ele>76.6</ele>
        <time>2023-04-25T12:22:36Z</time>
      </trkpt>
      <trkpt lat="49.1766" lon="-0.87349">
        <ele>76.6</ele>
        <time>2023-04-25T12:22:37Z</time>
      </trkpt>
      <trkpt lat="49.17658" lon="-0.87354">
        <ele>76.8</ele>
        <time>2023-04-25T12:22:38Z</time>
      </trkpt>
      <trkpt lat="49.17656" lon="-0.87359">
        <ele>77</ele>
        <time>2023-04-25T12:22:39Z</time>
      </trkpt>
      <trkpt lat="49.17655" lon="-0.87364">
        <ele>77</ele>
        <time>2023-04-25T12:22:40Z</time>
      </trkpt>
      <trkpt lat="49.17653" lon="-0.87369">
        <ele>77.4</ele>
        <time>2023-04-25T12:22:41Z</time>
      </trkpt>
      <trkpt lat="49.17651" lon="-0.87373">
        <ele>77.6</ele>
        <time>2023-04-25T12:22:42Z</time>
      </trkpt>
      <trkpt lat="49.17649" lon="-0.87378">
        <ele>77.6</ele>
        <time>2023-04-25T12:22:43Z</time>
      </trkpt>
      <trkpt lat="49.17647" lon="-0.87382">
        <ele>78</ele>
        <time>2023-04-25T12:22:44Z</time>
      </trkpt>
      <trkpt lat="49.17645" lon="-0.87386">
        <ele>78.2</ele>
        <time>2023-04-25T12:22:45Z</time>
      </trkpt>
      <trkpt lat="49.17642" lon="-0.8739">
        <ele>78.6</ele>
        <time>2023-04-25T12:22:46Z</time>
      </trkpt>
      <trkpt lat="49.17639" lon="-0.87394">
        <ele>78.8</ele>
        <time>2023-04-25T12:22:47Z</time>
      </trkpt>
      <trkpt lat="49.17636" lon="-0.87397">
        <ele>79</ele>
        <time>2023-04-25T12:22:48Z</time>
      </trkpt>
      <trkpt lat="49.17633" lon="-0.87399">
        <ele>79.6</ele>
        <time>2023-04-25T12:22:49Z</time>
      </trkpt>
      <trkpt lat="49.1763" lon="-0.87401">
        <ele>80</ele>
        <time>2023-04-25T12:22:50Z</time>
      </trkpt>
      <trkpt lat="49.17627" lon="-0.87402">
        <ele>80.4</ele>
        <time>2023-04-25T12:22:51Z</time>
      </trkpt>
      <trkpt lat="49.17624" lon="-0.87403">
        <ele>80.6</ele>
        <time>2023-04-25T12:22:52Z</time>
      </trkpt>
      <trkpt lat="49.17621" lon="-0.87403">
        <ele>81</ele>
        <time>2023-04-25T12:22:53Z</time>
      </trkpt>
      <trkpt lat="49.17618" lon="-0.87403">
        <ele>81.6</ele>
        <time>2023-04-25T12:22:54Z</time>
      </trkpt>
      <trkpt lat="49.17615" lon="-0.87402">
        <ele>82</ele>
        <time>2023-04-25T12:22:55Z</time>
      </trkpt>
      <trkpt lat="49.17612" lon="-0.87402">
        <ele>82.4</ele>
        <time>2023-04-25T12:22:56Z</time>
      </trkpt>
      <trkpt lat="49.17609" lon="-0.87401">
        <ele>82.6</ele>
        <time>2023-04-25T12:22:57Z</time>
      </trkpt>
      <trkpt lat="49.17606" lon="-0.874">
        <ele>83</ele>
        <time>2023-04-25T12:22:58Z</time>
      </trkpt>
      <trkpt lat="49.17603" lon="-0.87399">
        <ele>83.6</ele>
        <time>2023-04-25T12:22:59Z</time>
      </trkpt>
      <trkpt lat="49.176" lon="-0.87398">
        <ele>83.8</ele>
        <time>2023-04-25T12:23:00Z</time>
      </trkpt>
      <trkpt lat="49.17597" lon="-0.87398">
        <ele>84.2</ele>
        <time>2023-04-25T12:23:01Z</time>
      </trkpt>
      <trkpt lat="49.17595" lon="-0.87397">
        <ele>84.6</ele>
        <time>2023-04-25T12:23:02Z</time>
      </trkpt>
      <trkpt lat="49.17592" lon="-0.87396">
        <ele>85</ele>
        <time>2023-04-25T12:23:03Z</time>
      </trkpt>
      <trkpt lat="49.17589" lon="-0.87395">
        <ele>85.2</ele>
        <time>2023-04-25T12:23:04Z</time>
      </trkpt>
      <trkpt lat="49.17587" lon="-0.87394">
        <ele>85.6</ele>
        <time>2023-04-25T12:23:05Z</time>
      </trkpt>
      <trkpt lat="49.17584" lon="-0.87393">
        <ele>86</ele>
        <time>2023-04-25T12:23:06Z</time>
      </trkpt>
      <trkpt lat="49.17581" lon="-0.87392">
        <ele>86.2</ele>
        <time>2023-04-25T12:23:07Z</time>
      </trkpt>
      <trkpt lat="49.17579" lon="-0.87392">
        <ele>86.4</ele>
        <time>2023-04-25T12:23:08Z</time>
      </trkpt>
      <trkpt lat="49.17576" lon="-0.87391">
        <ele>86.6</ele>
        <time>2023-04-25T12:23:09Z</time>
      </trkpt>
      <trkpt lat="49.17573" lon="-0.8739">
        <ele>87</ele>
        <time>2023-04-25T12:23:10Z</time>
      </trkpt>
      <trkpt lat="49.17571" lon="-0.87389">
        <ele>87</ele>
        <time>2023-04-25T12:23:11Z</time>
      </trkpt>
      <trkpt lat="49.17568" lon="-0.87389">
        <ele>87.4</ele>
        <time>2023-04-25T12:23:12Z</time>
      </trkpt>
      <trkpt lat="49.17565" lon="-0.87388">
        <ele>87.6</ele>
        <time>2023-04-25T12:23:13Z</time>
      </trkpt>
      <trkpt lat="49.17563" lon="-0.87388">
        <ele>87.8</ele>
        <time>2023-04-25T12:23:14Z</time>
      </trkpt>
      <trkpt lat="49.1756" lon="-0.87387">
        <ele>88</ele>
        <time>2023-04-25T12:23:15Z</time>
      </trkpt>
      <trkpt lat="49.17557" lon="-0.87387">
        <ele>88.4</ele>
        <time>2023-04-25T12:23:16Z</time>
      </trkpt>
      <trkpt lat="49.17554" lon="-0.87387">
        <ele>88.6</ele>
        <time>2023-04-25T12:23:17Z</time>
      </trkpt>
      <trkpt lat="49.17552" lon="-0.87387">
        <ele>88.8</ele>
        <time>2023-04-25T12:23:18Z</time>
      </trkpt>
      <trkpt lat="49.17549" lon="-0.87387">
        <ele>89</ele>
        <time>2023-04-25T12:23:19Z</time>
      </trkpt>
      <trkpt lat="49.17546" lon="-0.87388">
        <ele>89.4</ele>
        <time>2023-04-25T12:23:20Z</time>
      </trkpt>
      <trkpt lat="49.17543" lon="-0.87389">
        <ele>89.6</ele>
        <time>2023-04-25T12:23:21Z</time>
      </trkpt>
      <trkpt lat="49.17541" lon="-0.8739">
        <ele>89.8</ele>
        <time>2023-04-25T12:23:22Z</time>
      </trkpt>
      <trkpt lat="49.17538" lon="-0.87392">
        <ele>90</ele>
        <time>2023-04-25T12:23:23Z</time>
      </trkpt>
      <trkpt lat="49.17535" lon="-0.87393">
        <ele>90.2</ele>
        <time>2023-04-25T12:23:24Z</time>
      </trkpt>
      <trkpt lat="49.17532" lon="-0.87395">
        <ele>90.4</ele>
        <time>2023-04-25T12:23:25Z</time>
      </trkpt>
      <trkpt lat="49.1753" lon="-0.87397">
        <ele>90.6</ele>
        <time>2023-04-25T12:23:26Z</time>
      </trkpt>
      <trkpt lat="49.17527" lon="-0.87398">
        <ele>91</ele>
        <time>2023-04-25T12:23:27Z</time>
      </trkpt>
      <trkpt lat="49.17524" lon="-0.874">
        <ele>91</ele>
        <time>2023-04-25T12:23:28Z</time>
      </trkpt>
      <trkpt lat="49.17522" lon="-0.87401">
        <ele>91.4</ele>
        <time>2023-04-25T12:23:29Z</time>
      </trkpt>
      <trkpt lat="49.17519" lon="-0.87403">
        <ele>91.6</ele>
        <time>2023-04-25T12:23:30Z</time>
      </trkpt>
      <trkpt lat="49.17516" lon="-0.87404">
        <ele>91.6</ele>
        <time>2023-04-25T12:23:31Z</time>
      </trkpt>
      <trkpt lat="49.17514" lon="-0.87406">
        <ele>92</ele>
        <time>2023-04-25T12:23:32Z</time>
      </trkpt>
      <trkpt lat="49.17511" lon="-0.87408">
        <ele>92.2</ele>
        <time>2023-04-25T12:23:33Z</time>
      </trkpt>
      <trkpt lat="49.17508" lon="-0.87409">
        <ele>92.4</ele>
        <time>2023-04-25T12:23:34Z</time>
      </trkpt>
      <trkpt lat="49.17506" lon="-0.87411">
        <ele>92.6</ele>
        <time>2023-04-25T12:23:35Z</time>
      </trkpt>
      <trkpt lat="49.17503" lon="-0.87412">
        <ele>92.8</ele>
        <time>2023-04-25T12:23:36Z</time>
      </trkpt>
      <trkpt lat="49.17501" lon="-0.87414">
        <ele>93</ele>
        <time>2023-04-25T12:23:37Z</time>
      </trkpt>
      <trkpt lat="49.17498" lon="-0.87415">
        <ele>93</ele>
        <time>2023-04-25T12:23:38Z</time>
      </trkpt>
      <trkpt lat="49.17495" lon="-0.87417">
        <ele>93.4</ele>
        <time>2023-04-25T12:23:39Z</time>
      </trkpt>
      <trkpt lat="49.17492" lon="-0.87419">
        <ele>93.4</ele>
        <time>2023-04-25T12:23:40Z</time>
      </trkpt>
      <trkpt lat="49.1749" lon="-0.8742">
        <ele>93.6</ele>
        <time>2023-04-25T12:23:41Z</time>
      </trkpt>
      <trkpt lat="49.17487" lon="-0.87422">
        <ele>93.6</ele>
        <time>2023-04-25T12:23:42Z</time>
      </trkpt>
      <trkpt lat="49.17485" lon="-0.87424">
        <ele>93.8</ele>
        <time>2023-04-25T12:23:43Z</time>
      </trkpt>
      <trkpt lat="49.17482" lon="-0.87425">
        <ele>94</ele>
        <time>2023-04-25T12:23:44Z</time>
      </trkpt>
      <trkpt lat="49.1748" lon="-0.87427">
        <ele>94</ele>
        <time>2023-04-25T12:23:45Z</time>
      </trkpt>
      <trkpt lat="49.17477" lon="-0.87428">
        <ele>94</ele>
        <time>2023-04-25T12:23:46Z</time>
      </trkpt>
      <trkpt lat="49.17475" lon="-0.87429">
        <ele>94.4</ele>
        <time>2023-04-25T12:23:47Z</time>
      </trkpt>
      <trkpt lat="49.17472" lon="-0.87431">
        <ele>94.4</ele>
        <time>2023-04-25T12:23:48Z</time>
      </trkpt>
      <trkpt lat="49.1747" lon="-0.87432">
        <ele>94.6</ele>
        <time>2023-04-25T12:23:49Z</time>
      </trkpt>
      <trkpt lat="49.17467" lon="-0.87434">
        <ele>94.6</ele>
        <time>2023-04-25T12:23:50Z</time>
      </trkpt>
      <trkpt lat="49.17465" lon="-0.87435">
        <ele>94.8</ele>
        <time>2023-04-25T12:23:51Z</time>
      </trkpt>
      <trkpt lat="49.17462" lon="-0.87437">
        <ele>95</ele>
        <time>2023-04-25T12:23:52Z</time>
      </trkpt>
      <trkpt lat="49.17459" lon="-0.87439">
        <ele>95</ele>
        <time>2023-04-25T12:23:53Z</time>
      </trkpt>
      <trkpt lat="49.17457" lon="-0.87441">
        <ele>95.2</ele>
        <time>2023-04-25T12:23:54Z</time>
      </trkpt>
      <trkpt lat="49.17454" lon="-0.87442">
        <ele>95.4</ele>
        <time>2023-04-25T12:23:55Z</time>
      </trkpt>
      <trkpt lat="49.17451" lon="-0.87444">
        <ele>95.6</ele>
        <time>2023-04-25T12:23:56Z</time>
      </trkpt>
      <trkpt lat="49.17449" lon="-0.87445">
        <ele>95.6</ele>
        <time>2023-04-25T12:23:57Z</time>
      </trkpt>
      <trkpt lat="49.17446" lon="-0.87447">
        <ele>95.8</ele>
        <time>2023-04-25T12:23:58Z</time>
      </trkpt>
      <trkpt lat="49.17443" lon="-0.87448">
        <ele>96</ele>
        <time>2023-04-25T12:23:59Z</time>
      </trkpt>
      <trkpt lat="49.17441" lon="-0.87449">
        <ele>96</ele>
        <time>2023-04-25T12:24:00Z</time>
      </trkpt>
      <trkpt lat="49.17438" lon="-0.87451">
        <ele>96.2</ele>
        <time>2023-04-25T12:24:01Z</time>
      </trkpt>
      <trkpt lat="49.17436" lon="-0.87452">
        <ele>96.4</ele>
        <time>2023-04-25T12:24:02Z</time>
      </trkpt>
      <trkpt lat="49.17433" lon="-0.87453">
        <ele>96.6</ele>
        <time>2023-04-25T12:24:03Z</time>
      </trkpt>
      <trkpt lat="49.1743" lon="-0.87454">
        <ele>96.6</ele>
        <time>2023-04-25T12:24:04Z</time>
      </trkpt>
      <trkpt lat="49.17427" lon="-0.87455">
        <ele>97</ele>
        <time>2023-04-25T12:24:05Z</time>
      </trkpt>
      <trkpt lat="49.17424" lon="-0.87456">
        <ele>97</ele>
        <time>2023-04-25T12:24:06Z</time>
      </trkpt>
      <trkpt lat="49.17421" lon="-0.87457">
        <ele>97.2</ele>
        <time>2023-04-25T12:24:07Z</time>
      </trkpt>
      <trkpt lat="49.17418" lon="-0.87457">
        <ele>97.4</ele>
        <time>2023-04-25T12:24:08Z</time>
      </trkpt>
      <trkpt lat="49.17415" lon="-0.87458">
        <ele>97.6</ele>
        <time>2023-04-25T12:24:09Z</time>
      </trkpt>
      <trkpt lat="49.17412" lon="-0.87459">
        <ele>97.6</ele>
        <time>2023-04-25T12:24:10Z</time>
      </trkpt>
      <trkpt lat="49.17409" lon="-0.8746">
        <ele>97.6</ele>
        <time>2023-04-25T12:24:11Z</time>
      </trkpt>
      <trkpt lat="49.17406" lon="-0.87461">
        <ele>97.6</ele>
        <time>2023-04-25T12:24:12Z</time>
      </trkpt>
      <trkpt lat="49.17402" lon="-0.87463">
        <ele>97.8</ele>
        <time>2023-04-25T12:24:13Z</time>
      </trkpt>
      <trkpt lat="49.17399" lon="-0.87464">
        <ele>98</ele>
        <time>2023-04-25T12:24:14Z</time>
      </trkpt>
      <trkpt lat="49.17396" lon="-0.87465">
        <ele>98</ele>
        <time>2023-04-25T12:24:15Z</time>
      </trkpt>
      <trkpt lat="49.17393" lon="-0.87467">
        <ele>98</ele>
        <time>2023-04-25T12:24:16Z</time>
      </trkpt>
      <trkpt lat="49.1739" lon="-0.87468">
        <ele>98</ele>
        <time>2023-04-25T12:24:17Z</time>
      </trkpt>
      <trkpt lat="49.17387" lon="-0.8747">
        <ele>98</ele>
        <time>2023-04-25T12:24:18Z</time>
      </trkpt>
      <trkpt lat="49.17384" lon="-0.87471">
        <ele>98</ele>
        <time>2023-04-25T12:24:19Z</time>
      </trkpt>
      <trkpt lat="49.1738" lon="-0.87473">
        <ele>98.2</ele>
        <time>2023-04-25T12:24:20Z</time>
      </trkpt>
      <trkpt lat="49.17377" lon="-0.87475">
        <ele>98.2</ele>
        <time>2023-04-25T12:24:21Z</time>
      </trkpt>
      <trkpt lat="49.17374" lon="-0.87477">
        <ele>98.4</ele>
        <time>2023-04-25T12:24:22Z</time>
      </trkpt>
      <trkpt lat="49.17371" lon="-0.87479">
        <ele>98.4</ele>
        <time>2023-04-25T12:24:23Z</time>
      </trkpt>
      <trkpt lat="49.17368" lon="-0.87481">
        <ele>98.4</ele>
        <time>2023-04-25T12:24:24Z</time>
      </trkpt>
      <trkpt lat="49.17365" lon="-0.87483">
        <ele>98.4</ele>
        <time>2023-04-25T12:24:25Z</time>
      </trkpt>
      <trkpt lat="49.17362" lon="-0.87486">
        <ele>98.6</ele>
        <time>2023-04-25T12:24:26Z</time>
      </trkpt>
      <trkpt lat="49.17359" lon="-0.87488">
        <ele>98.6</ele>
        <time>2023-04-25T12:24:27Z</time>
      </trkpt>
      <trkpt lat="49.17356" lon="-0.8749">
        <ele>98.6</ele>
        <time>2023-04-25T12:24:28Z</time>
      </trkpt>
      <trkpt lat="49.17352" lon="-0.87492">
        <ele>98.6</ele>
        <time>2023-04-25T12:24:29Z</time>
      </trkpt>
      <trkpt lat="49.17349" lon="-0.87494">
        <ele>98.6</ele>
        <time>2023-04-25T12:24:30Z</time>
      </trkpt>
      <trkpt lat="49.17345" lon="-0.87496">
        <ele>98.8</ele>
        <time>2023-04-25T12:24:31Z</time>
      </trkpt>
      <trkpt lat="49.17342" lon="-0.87498">
        <ele>98.8</ele>
        <time>2023-04-25T12:24:32Z</time>
      </trkpt>
      <trkpt lat="49.17338" lon="-0.87501">
        <ele>99</ele>
        <time>2023-04-25T12:24:33Z</time>
      </trkpt>
      <trkpt lat="49.17335" lon="-0.87503">
        <ele>99</ele>
        <time>2023-04-25T12:24:34Z</time>
      </trkpt>
      <trkpt lat="49.17331" lon="-0.87505">
        <ele>99</ele>
        <time>2023-04-25T12:24:35Z</time>
      </trkpt>
      <trkpt lat="49.17328" lon="-0.87507">
        <ele>99</ele>
        <time>2023-04-25T12:24:36Z</time>
      </trkpt>
      <trkpt lat="49.17324" lon="-0.8751">
        <ele>99</ele>
        <time>2023-04-25T12:24:37Z</time>
      </trkpt>
      <trkpt lat="49.1732" lon="-0.87512">
        <ele>99</ele>
        <time>2023-04-25T12:24:38Z</time>
      </trkpt>
      <trkpt lat="49.17317" lon="-0.87515">
        <ele>99</ele>
        <time>2023-04-25T12:24:39Z</time>
      </trkpt>
      <trkpt lat="49.17313" lon="-0.87517">
        <ele>99</ele>
        <time>2023-04-25T12:24:40Z</time>
      </trkpt>
      <trkpt lat="49.17309" lon="-0.8752">
        <ele>99</ele>
        <time>2023-04-25T12:24:41Z</time>
      </trkpt>
      <trkpt lat="49.17305" lon="-0.87522">
        <ele>99.2</ele>
        <time>2023-04-25T12:24:42Z</time>
      </trkpt>
      <trkpt lat="49.17301" lon="-0.87525">
        <ele>99.2</ele>
        <time>2023-04-25T12:24:43Z</time>
      </trkpt>
      <trkpt lat="49.17297" lon="-0.87528">
        <ele>99.2</ele>
        <time>2023-04-25T12:24:44Z</time>
      </trkpt>
      <trkpt lat="49.17294" lon="-0.87531">
        <ele>99.4</ele>
        <time>2023-04-25T12:24:45Z</time>
      </trkpt>
      <trkpt lat="49.1729" lon="-0.87534">
        <ele>99.4</ele>
        <time>2023-04-25T12:24:46Z</time>
      </trkpt>
      <trkpt lat="49.17286" lon="-0.87537">
        <ele>99.4</ele>
        <time>2023-04-25T12:24:47Z</time>
      </trkpt>
      <trkpt lat="49.17282" lon="-0.87541">
        <ele>99.4</ele>
        <time>2023-04-25T12:24:48Z</time>
      </trkpt>
      <trkpt lat="49.17279" lon="-0.87544">
        <ele>99.6</ele>
        <time>2023-04-25T12:24:49Z</time>
      </trkpt>
      <trkpt lat="49.17275" lon="-0.87548">
        <ele>99.6</ele>
        <time>2023-04-25T12:24:50Z</time>
      </trkpt>
      <trkpt lat="49.17272" lon="-0.87551">
        <ele>99.6</ele>
        <time>2023-04-25T12:24:51Z</time>
      </trkpt>
      <trkpt lat="49.17269" lon="-0.87555">
        <ele>99.6</ele>
        <time>2023-04-25T12:24:52Z</time>
      </trkpt>
      <trkpt lat="49.17265" lon="-0.87559">
        <ele>99.6</ele>
        <time>2023-04-25T12:24:53Z</time>
      </trkpt>
      <trkpt lat="49.17261" lon="-0.87563">
        <ele>99.8</ele>
        <time>2023-04-25T12:24:54Z</time>
      </trkpt>
      <trkpt lat="49.17258" lon="-0.87567">
        <ele>99.8</ele>
        <time>2023-04-25T12:24:55Z</time>
      </trkpt>
      <trkpt lat="49.17254" lon="-0.87572">
        <ele>100</ele>
        <time>2023-04-25T12:24:56Z</time>
      </trkpt>
      <trkpt lat="49.1725" lon="-0.87576">
        <ele>100</ele>
        <time>2023-04-25T12:24:57Z</time>
      </trkpt>
      <trkpt lat="49.17246" lon="-0.8758">
        <ele>100</ele>
        <time>2023-04-25T12:24:58Z</time>
      </trkpt>
      <trkpt lat="49.17242" lon="-0.87585">
        <ele>100</ele>
        <time>2023-04-25T12:24:59Z</time>
      </trkpt>
      <trkpt lat="49.17238" lon="-0.87589">
        <ele>100</ele>
        <time>2023-04-25T12:25:00Z</time>
      </trkpt>
      <trkpt lat="49.17234" lon="-0.87594">
        <ele>99.8</ele>
        <time>2023-04-25T12:25:01Z</time>
      </trkpt>
      <trkpt lat="49.17229" lon="-0.87598">
        <ele>99.6</ele>
        <time>2023-04-25T12:25:02Z</time>
      </trkpt>
      <trkpt lat="49.17225" lon="-0.87603">
        <ele>99.6</ele>
        <time>2023-04-25T12:25:03Z</time>
      </trkpt>
      <trkpt lat="49.17221" lon="-0.87608">
        <ele>99.6</ele>
        <time>2023-04-25T12:25:04Z</time>
      </trkpt>
      <trkpt lat="49.17217" lon="-0.87612">
        <ele>99.6</ele>
        <time>2023-04-25T12:25:05Z</time>
      </trkpt>
      <trkpt lat="49.17212" lon="-0.87617">
        <ele>99.4</ele>
        <time>2023-04-25T12:25:06Z</time>
      </trkpt>
      <trkpt lat="49.17208" lon="-0.87622">
        <ele>99.4</ele>
        <time>2023-04-25T12:25:07Z</time>
      </trkpt>
      <trkpt lat="49.17204" lon="-0.87627">
        <ele>99.4</ele>
        <time>2023-04-25T12:25:08Z</time>
      </trkpt>
      <trkpt lat="49.17199" lon="-0.87631">
        <ele>99.2</ele>
        <time>2023-04-25T12:25:09Z</time>
      </trkpt>
      <trkpt lat="49.17195" lon="-0.87636">
        <ele>99.2</ele>
        <time>2023-04-25T12:25:10Z</time>
      </trkpt>
      <trkpt lat="49.1719" lon="-0.87641">
        <ele>99</ele>
        <time>2023-04-25T12:25:11Z</time>
      </trkpt>
      <trkpt lat="49.17186" lon="-0.87646">
        <ele>99</ele>
        <time>2023-04-25T12:25:12Z</time>
      </trkpt>
      <trkpt lat="49.17181" lon="-0.87651">
        <ele>99</ele>
        <time>2023-04-25T12:25:13Z</time>
      </trkpt>
      <trkpt lat="49.17177" lon="-0.87656">
        <ele>99</ele>
        <time>2023-04-25T12:25:14Z</time>
      </trkpt>
      <trkpt lat="49.17172" lon="-0.8766">
        <ele>99</ele>
        <time>2023-04-25T12:25:15Z</time>
      </trkpt>
      <trkpt lat="49.17167" lon="-0.87666">
        <ele>99</ele>
        <time>2023-04-25T12:25:16Z</time>
      </trkpt>
      <trkpt lat="49.17163" lon="-0.8767">
        <ele>99</ele>
        <time>2023-04-25T12:25:17Z</time>
      </trkpt>
      <trkpt lat="49.17158" lon="-0.87676">
        <ele>99</ele>
        <time>2023-04-25T12:25:18Z</time>
      </trkpt>
      <trkpt lat="49.17153" lon="-0.8768">
        <ele>99</ele>
        <time>2023-04-25T12:25:19Z</time>
      </trkpt>
      <trkpt lat="49.17148" lon="-0.87686">
        <ele>99</ele>
        <time>2023-04-25T12:25:20Z</time>
      </trkpt>
      <trkpt lat="49.17143" lon="-0.87691">
        <ele>99</ele>
        <time>2023-04-25T12:25:21Z</time>
      </trkpt>
      <trkpt lat="49.17139" lon="-0.87696">
        <ele>99</ele>
        <time>2023-04-25T12:25:22Z</time>
      </trkpt>
      <trkpt lat="49.17133" lon="-0.87701">
        <ele>99</ele>
        <time>2023-04-25T12:25:23Z</time>
      </trkpt>
      <trkpt lat="49.17128" lon="-0.87706">
        <ele>99</ele>
        <time>2023-04-25T12:25:24Z</time>
      </trkpt>
      <trkpt lat="49.17124" lon="-0.87711">
        <ele>99</ele>
        <time>2023-04-25T12:25:25Z</time>
      </trkpt>
      <trkpt lat="49.17119" lon="-0.87716">
        <ele>99</ele>
        <time>2023-04-25T12:25:26Z</time>
      </trkpt>
      <trkpt lat="49.17114" lon="-0.87721">
        <ele>99</ele>
        <time>2023-04-25T12:25:27Z</time>
      </trkpt>
      <trkpt lat="49.17109" lon="-0.87726">
        <ele>99</ele>
        <time>2023-04-25T12:25:28Z</time>
      </trkpt>
      <trkpt lat="49.17104" lon="-0.87732">
        <ele>99</ele>
        <time>2023-04-25T12:25:29Z</time>
      </trkpt>
      <trkpt lat="49.17099" lon="-0.87737">
        <ele>99</ele>
        <time>2023-04-25T12:25:30Z</time>
      </trkpt>
      <trkpt lat="49.17094" lon="-0.87743">
        <ele>99</ele>
        <time>2023-04-25T12:25:31Z</time>
      </trkpt>
      <trkpt lat="49.17089" lon="-0.87749">
        <ele>98.8</ele>
        <time>2023-04-25T12:25:32Z</time>
      </trkpt>
      <trkpt lat="49.17084" lon="-0.87754">
        <ele>98.8</ele>
        <time>2023-04-25T12:25:33Z</time>
      </trkpt>
      <trkpt lat="49.1708" lon="-0.8776">
        <ele>98.6</ele>
        <time>2023-04-25T12:25:34Z</time>
      </trkpt>
      <trkpt lat="49.17075" lon="-0.87766">
        <ele>98.6</ele>
        <time>2023-04-25T12:25:35Z</time>
      </trkpt>
      <trkpt lat="49.17071" lon="-0.87772">
        <ele>98.6</ele>
        <time>2023-04-25T12:25:36Z</time>
      </trkpt>
      <trkpt lat="49.17066" lon="-0.87778">
        <ele>98.6</ele>
        <time>2023-04-25T12:25:37Z</time>
      </trkpt>
      <trkpt lat="49.17062" lon="-0.87784">
        <ele>98.6</ele>
        <time>2023-04-25T12:25:38Z</time>
      </trkpt>
      <trkpt lat="49.17057" lon="-0.8779">
        <ele>98.6</ele>
        <time>2023-04-25T12:25:39Z</time>
      </trkpt>
      <trkpt lat="49.17053" lon="-0.87796">
        <ele>98.6</ele>
        <time>2023-04-25T12:25:40Z</time>
      </trkpt>
      <trkpt lat="49.17049" lon="-0.87802">
        <ele>98.6</ele>
        <time>2023-04-25T12:25:41Z</time>
      </trkpt>
      <trkpt lat="49.17044" lon="-0.87808">
        <ele>98.6</ele>
        <time>2023-04-25T12:25:42Z</time>
      </trkpt>
      <trkpt lat="49.1704" lon="-0.87814">
        <ele>98.6</ele>
        <time>2023-04-25T12:25:43Z</time>
      </trkpt>
      <trkpt lat="49.17036" lon="-0.8782">
        <ele>98.6</ele>
        <time>2023-04-25T12:25:44Z</time>
      </trkpt>
      <trkpt lat="49.17032" lon="-0.87825">
        <ele>98.6</ele>
        <time>2023-04-25T12:25:45Z</time>
      </trkpt>
      <trkpt lat="49.17028" lon="-0.87831">
        <ele>98.6</ele>
        <time>2023-04-25T12:25:46Z</time>
      </trkpt>
      <trkpt lat="49.17024" lon="-0.87837">
        <ele>98.8</ele>
        <time>2023-04-25T12:25:47Z</time>
      </trkpt>
      <trkpt lat="49.17021" lon="-0.87843">
        <ele>99</ele>
        <time>2023-04-25T12:25:48Z</time>
      </trkpt>
      <trkpt lat="49.17017" lon="-0.87848">
        <ele>99.2</ele>
        <time>2023-04-25T12:25:49Z</time>
      </trkpt>
      <trkpt lat="49.17013" lon="-0.87854">
        <ele>99.4</ele>
        <time>2023-04-25T12:25:50Z</time>
      </trkpt>
      <trkpt lat="49.17009" lon="-0.8786">
        <ele>99.6</ele>
        <time>2023-04-25T12:25:51Z</time>
      </trkpt>
      <trkpt lat="49.17005" lon="-0.87865">
        <ele>99.8</ele>
        <time>2023-04-25T12:25:52Z</time>
      </trkpt>
      <trkpt lat="49.17001" lon="-0.87871">
        <ele>100</ele>
        <time>2023-04-25T12:25:53Z</time>
      </trkpt>
      <trkpt lat="49.16998" lon="-0.87876">
        <ele>100</ele>
        <time>2023-04-25T12:25:54Z</time>
      </trkpt>
      <trkpt lat="49.16994" lon="-0.87882">
        <ele>100.4</ele>
        <time>2023-04-25T12:25:55Z</time>
      </trkpt>
      <trkpt lat="49.1699" lon="-0.87887">
        <ele>100.6</ele>
        <time>2023-04-25T12:25:56Z</time>
      </trkpt>
      <trkpt lat="49.16986" lon="-0.87893">
        <ele>100.6</ele>
        <time>2023-04-25T12:25:57Z</time>
      </trkpt>
      <trkpt lat="49.16982" lon="-0.87898">
        <ele>101</ele>
        <time>2023-04-25T12:25:58Z</time>
      </trkpt>
      <trkpt lat="49.16978" lon="-0.87903">
        <ele>101</ele>
        <time>2023-04-25T12:25:59Z</time>
      </trkpt>
      <trkpt lat="49.16974" lon="-0.87909">
        <ele>101.4</ele>
        <time>2023-04-25T12:26:00Z</time>
      </trkpt>
      <trkpt lat="49.1697" lon="-0.87914">
        <ele>101.6</ele>
        <time>2023-04-25T12:26:01Z</time>
      </trkpt>
      <trkpt lat="49.16966" lon="-0.87919">
        <ele>101.6</ele>
        <time>2023-04-25T12:26:02Z</time>
      </trkpt>
      <trkpt lat="49.16962" lon="-0.87925">
        <ele>101.6</ele>
        <time>2023-04-25T12:26:03Z</time>
      </trkpt>
      <trkpt lat="49.16958" lon="-0.8793">
        <ele>102</ele>
        <time>2023-04-25T12:26:04Z</time>
      </trkpt>
      <trkpt lat="49.16954" lon="-0.87935">
        <ele>102</ele>
        <time>2023-04-25T12:26:05Z</time>
      </trkpt>
      <trkpt lat="49.1695" lon="-0.87941">
        <ele>102</ele>
        <time>2023-04-25T12:26:06Z</time>
      </trkpt>
      <trkpt lat="49.16946" lon="-0.87946">
        <ele>102</ele>
        <time>2023-04-25T12:26:07Z</time>
      </trkpt>
      <trkpt lat="49.16942" lon="-0.87952">
        <ele>102.2</ele>
        <time>2023-04-25T12:26:08Z</time>
      </trkpt>
      <trkpt lat="49.16938" lon="-0.87957">
        <ele>102.2</ele>
        <time>2023-04-25T12:26:09Z</time>
      </trkpt>
      <trkpt lat="49.16935" lon="-0.87963">
        <ele>102.4</ele>
        <time>2023-04-25T12:26:10Z</time>
      </trkpt>
      <trkpt lat="49.16931" lon="-0.87968">
        <ele>102.4</ele>
        <time>2023-04-25T12:26:11Z</time>
      </trkpt>
      <trkpt lat="49.16927" lon="-0.87974">
        <ele>102.4</ele>
        <time>2023-04-25T12:26:12Z</time>
      </trkpt>
      <trkpt lat="49.16923" lon="-0.87979">
        <ele>102.4</ele>
        <time>2023-04-25T12:26:13Z</time>
      </trkpt>
      <trkpt lat="49.16919" lon="-0.87985">
        <ele>102.4</ele>
        <time>2023-04-25T12:26:14Z</time>
      </trkpt>
      <trkpt lat="49.16915" lon="-0.87991">
        <ele>102.4</ele>
        <time>2023-04-25T12:26:15Z</time>
      </trkpt>
      <trkpt lat="49.16911" lon="-0.87996">
        <ele>102.4</ele>
        <time>2023-04-25T12:26:16Z</time>
      </trkpt>
      <trkpt lat="49.16907" lon="-0.88002">
        <ele>102.4</ele>
        <time>2023-04-25T12:26:17Z</time>
      </trkpt>
      <trkpt lat="49.16903" lon="-0.88008">
        <ele>102.6</ele>
        <time>2023-04-25T12:26:18Z</time>
      </trkpt>
      <trkpt lat="49.16899" lon="-0.88014">
        <ele>102.8</ele>
        <time>2023-04-25T12:26:19Z</time>
      </trkpt>
      <trkpt lat="49.16896" lon="-0.88019">
        <ele>103</ele>
        <time>2023-04-25T12:26:20Z</time>
      </trkpt>
      <trkpt lat="49.16892" lon="-0.88025">
        <ele>103.2</ele>
        <time>2023-04-25T12:26:21Z</time>
      </trkpt>
      <trkpt lat="49.16888" lon="-0.8803">
        <ele>103.4</ele>
        <time>2023-04-25T12:26:22Z</time>
      </trkpt>
      <trkpt lat="49.16884" lon="-0.88035">
        <ele>103.6</ele>
        <time>2023-04-25T12:26:23Z</time>
      </trkpt>
      <trkpt lat="49.1688" lon="-0.88041">
        <ele>103.8</ele>
        <time>2023-04-25T12:26:24Z</time>
      </trkpt>
      <trkpt lat="49.16877" lon="-0.88046">
        <ele>104</ele>
        <time>2023-04-25T12:26:25Z</time>
      </trkpt>
      <trkpt lat="49.16873" lon="-0.88051">
        <ele>104.2</ele>
        <time>2023-04-25T12:26:26Z</time>
      </trkpt>
      <trkpt lat="49.16869" lon="-0.88056">
        <ele>104.4</ele>
        <time>2023-04-25T12:26:27Z</time>
      </trkpt>
      <trkpt lat="49.16866" lon="-0.88061">
        <ele>104.6</ele>
        <time>2023-04-25T12:26:28Z</time>
      </trkpt>
      <trkpt lat="49.16862" lon="-0.88065">
        <ele>104.6</ele>
        <time>2023-04-25T12:26:29Z</time>
      </trkpt>
      <trkpt lat="49.16859" lon="-0.8807">
        <ele>105</ele>
        <time>2023-04-25T12:26:30Z</time>
      </trkpt>
      <trkpt lat="49.16855" lon="-0.88075">
        <ele>105</ele>
        <time>2023-04-25T12:26:31Z</time>
      </trkpt>
      <trkpt lat="49.16852" lon="-0.88079">
        <ele>105.4</ele>
        <time>2023-04-25T12:26:32Z</time>
      </trkpt>
      <trkpt lat="49.16849" lon="-0.88083">
        <ele>105.4</ele>
        <time>2023-04-25T12:26:33Z</time>
      </trkpt>
      <trkpt lat="49.16845" lon="-0.88087">
        <ele>105.8</ele>
        <time>2023-04-25T12:26:34Z</time>
      </trkpt>
      <trkpt lat="49.16842" lon="-0.88091">
        <ele>106</ele>
        <time>2023-04-25T12:26:35Z</time>
      </trkpt>
      <trkpt lat="49.16839" lon="-0.88095">
        <ele>106.4</ele>
        <time>2023-04-25T12:26:36Z</time>
      </trkpt>
      <trkpt lat="49.16836" lon="-0.88099">
        <ele>106.6</ele>
        <time>2023-04-25T12:26:37Z</time>
      </trkpt>
      <trkpt lat="49.16832" lon="-0.88103">
        <ele>107</ele>
        <time>2023-04-25T12:26:38Z</time>
      </trkpt>
      <trkpt lat="49.16829" lon="-0.88106">
        <ele>107.4</ele>
        <time>2023-04-25T12:26:39Z</time>
      </trkpt>
      <trkpt lat="49.16826" lon="-0.8811">
        <ele>107.6</ele>
        <time>2023-04-25T12:26:40Z</time>
      </trkpt>
      <trkpt lat="49.16823" lon="-0.88113">
        <ele>107.8</ele>
        <time>2023-04-25T12:26:41Z</time>
      </trkpt>
      <trkpt lat="49.1682" lon="-0.88117">
        <ele>108</ele>
        <time>2023-04-25T12:26:42Z</time>
      </trkpt>
      <trkpt lat="49.16817" lon="-0.8812">
        <ele>108.4</ele>
        <time>2023-04-25T12:26:43Z</time>
      </trkpt>
      <trkpt lat="49.16814" lon="-0.88124">
        <ele>108.6</ele>
        <time>2023-04-25T12:26:44Z</time>
      </trkpt>
      <trkpt lat="49.16811" lon="-0.88127">
        <ele>108.8</ele>
        <time>2023-04-25T12:26:45Z</time>
      </trkpt>
      <trkpt lat="49.16808" lon="-0.8813">
        <ele>109</ele>
        <time>2023-04-25T12:26:46Z</time>
      </trkpt>
      <trkpt lat="49.16805" lon="-0.88134">
        <ele>109.2</ele>
        <time>2023-04-25T12:26:47Z</time>
      </trkpt>
      <trkpt lat="49.16802" lon="-0.88137">
        <ele>109.4</ele>
        <time>2023-04-25T12:26:48Z</time>
      </trkpt>
      <trkpt lat="49.16799" lon="-0.88141">
        <ele>109.6</ele>
        <time>2023-04-25T12:26:49Z</time>
      </trkpt>
      <trkpt lat="49.16796" lon="-0.88144">
        <ele>109.6</ele>
        <time>2023-04-25T12:26:50Z</time>
      </trkpt>
      <trkpt lat="49.16793" lon="-0.88148">
        <ele>110</ele>
        <time>2023-04-25T12:26:51Z</time>
      </trkpt>
      <trkpt lat="49.1679" lon="-0.88151">
        <ele>110</ele>
        <time>2023-04-25T12:26:52Z</time>
      </trkpt>
      <trkpt lat="49.16787" lon="-0.88155">
        <ele>110.2</ele>
        <time>2023-04-25T12:26:53Z</time>
      </trkpt>
      <trkpt lat="49.16784" lon="-0.88158">
        <ele>110.4</ele>
        <time>2023-04-25T12:26:54Z</time>
      </trkpt>
      <trkpt lat="49.16781" lon="-0.88161">
        <ele>110.6</ele>
        <time>2023-04-25T12:26:55Z</time>
      </trkpt>
      <trkpt lat="49.16778" lon="-0.88165">
        <ele>110.6</ele>
        <time>2023-04-25T12:26:56Z</time>
      </trkpt>
      <trkpt lat="49.16775" lon="-0.88168">
        <ele>110.6</ele>
        <time>2023-04-25T12:26:57Z</time>
      </trkpt>
      <trkpt lat="49.16772" lon="-0.88171">
        <ele>110.8</ele>
        <time>2023-04-25T12:26:58Z</time>
      </trkpt>
      <trkpt lat="49.16769" lon="-0.88175">
        <ele>111</ele>
        <time>2023-04-25T12:26:59Z</time>
      </trkpt>
      <trkpt lat="49.16766" lon="-0.88178">
        <ele>111</ele>
        <time>2023-04-25T12:27:00Z</time>
      </trkpt>
      <trkpt lat="49.16763" lon="-0.88181">
        <ele>111</ele>
        <time>2023-04-25T12:27:01Z</time>
      </trkpt>
      <trkpt lat="49.16759" lon="-0.88185">
        <ele>111</ele>
        <time>2023-04-25T12:27:02Z</time>
      </trkpt>
      <trkpt lat="49.16756" lon="-0.88188">
        <ele>111.2</ele>
        <time>2023-04-25T12:27:03Z</time>
      </trkpt>
      <trkpt lat="49.16753" lon="-0.88192">
        <ele>111.4</ele>
        <time>2023-04-25T12:27:04Z</time>
      </trkpt>
      <trkpt lat="49.1675" lon="-0.88195">
        <ele>111.4</ele>
        <time>2023-04-25T12:27:05Z</time>
      </trkpt>
      <trkpt lat="49.16747" lon="-0.88199">
        <ele>111.6</ele>
        <time>2023-04-25T12:27:06Z</time>
      </trkpt>
      <trkpt lat="49.16745" lon="-0.88203">
        <ele>111.6</ele>
        <time>2023-04-25T12:27:07Z</time>
      </trkpt>
      <trkpt lat="49.16742" lon="-0.88207">
        <ele>111.8</ele>
        <time>2023-04-25T12:27:08Z</time>
      </trkpt>
      <trkpt lat="49.16739" lon="-0.88211">
        <ele>112</ele>
        <time>2023-04-25T12:27:09Z</time>
      </trkpt>
      <trkpt lat="49.16736" lon="-0.88215">
        <ele>112</ele>
        <time>2023-04-25T12:27:10Z</time>
      </trkpt>
      <trkpt lat="49.16734" lon="-0.88219">
        <ele>112.4</ele>
        <time>2023-04-25T12:27:11Z</time>
      </trkpt>
      <trkpt lat="49.16731" lon="-0.88224">
        <ele>112.4</ele>
        <time>2023-04-25T12:27:12Z</time>
      </trkpt>
      <trkpt lat="49.16728" lon="-0.88228">
        <ele>112.6</ele>
        <time>2023-04-25T12:27:13Z</time>
      </trkpt>
      <trkpt lat="49.16726" lon="-0.88233">
        <ele>112.6</ele>
        <time>2023-04-25T12:27:14Z</time>
      </trkpt>
      <trkpt lat="49.16723" lon="-0.88238">
        <ele>113</ele>
        <time>2023-04-25T12:27:15Z</time>
      </trkpt>
      <trkpt lat="49.1672" lon="-0.88242">
        <ele>113</ele>
        <time>2023-04-25T12:27:16Z</time>
      </trkpt>
      <trkpt lat="49.16717" lon="-0.88247">
        <ele>113.2</ele>
        <time>2023-04-25T12:27:17Z</time>
      </trkpt>
      <trkpt lat="49.16714" lon="-0.88251">
        <ele>113.4</ele>
        <time>2023-04-25T12:27:18Z</time>
      </trkpt>
      <trkpt lat="49.16711" lon="-0.88255">
        <ele>113.6</ele>
        <time>2023-04-25T12:27:19Z</time>
      </trkpt>
      <trkpt lat="49.16708" lon="-0.88259">
        <ele>113.6</ele>
        <time>2023-04-25T12:27:20Z</time>
      </trkpt>
      <trkpt lat="49.16705" lon="-0.88263">
        <ele>114</ele>
        <time>2023-04-25T12:27:21Z</time>
      </trkpt>
      <trkpt lat="49.16702" lon="-0.88267">
        <ele>114</ele>
        <time>2023-04-25T12:27:22Z</time>
      </trkpt>
      <trkpt lat="49.16698" lon="-0.8827">
        <ele>114.4</ele>
        <time>2023-04-25T12:27:23Z</time>
      </trkpt>
      <trkpt lat="49.16695" lon="-0.88274">
        <ele>114.6</ele>
        <time>2023-04-25T12:27:24Z</time>
      </trkpt>
      <trkpt lat="49.16692" lon="-0.88278">
        <ele>114.6</ele>
        <time>2023-04-25T12:27:25Z</time>
      </trkpt>
      <trkpt lat="49.16688" lon="-0.88281">
        <ele>114.8</ele>
        <time>2023-04-25T12:27:26Z</time>
      </trkpt>
      <trkpt lat="49.16685" lon="-0.88284">
        <ele>115</ele>
        <time>2023-04-25T12:27:27Z</time>
      </trkpt>
      <trkpt lat="49.16682" lon="-0.88288">
        <ele>115</ele>
        <time>2023-04-25T12:27:28Z</time>
      </trkpt>
      <trkpt lat="49.16678" lon="-0.88291">
        <ele>115.2</ele>
        <time>2023-04-25T12:27:29Z</time>
      </trkpt>
      <trkpt lat="49.16675" lon="-0.88295">
        <ele>115.4</ele>
        <time>2023-04-25T12:27:30Z</time>
      </trkpt>
      <trkpt lat="49.16672" lon="-0.88298">
        <ele>115.6</ele>
        <time>2023-04-25T12:27:31Z</time>
      </trkpt>
      <trkpt lat="49.16668" lon="-0.88302">
        <ele>115.6</ele>
        <time>2023-04-25T12:27:32Z</time>
      </trkpt>
      <trkpt lat="49.16665" lon="-0.88305">
        <ele>115.6</ele>
        <time>2023-04-25T12:27:33Z</time>
      </trkpt>
      <trkpt lat="49.16662" lon="-0.88309">
        <ele>115.8</ele>
        <time>2023-04-25T12:27:34Z</time>
      </trkpt>
      <trkpt lat="49.16659" lon="-0.88312">
        <ele>115.8</ele>
        <time>2023-04-25T12:27:35Z</time>
      </trkpt>
      <trkpt lat="49.16655" lon="-0.88316">
        <ele>116</ele>
        <time>2023-04-25T12:27:36Z</time>
      </trkpt>
      <trkpt lat="49.16652" lon="-0.8832">
        <ele>116</ele>
        <time>2023-04-25T12:27:37Z</time>
      </trkpt>
      <trkpt lat="49.16649" lon="-0.88323">
        <ele>116</ele>
        <time>2023-04-25T12:27:38Z</time>
      </trkpt>
      <trkpt lat="49.16645" lon="-0.88327">
        <ele>116.2</ele>
        <time>2023-04-25T12:27:39Z</time>
      </trkpt>
      <trkpt lat="49.16642" lon="-0.88331">
        <ele>116.4</ele>
        <time>2023-04-25T12:27:40Z</time>
      </trkpt>
      <trkpt lat="49.16638" lon="-0.88335">
        <ele>116.4</ele>
        <time>2023-04-25T12:27:41Z</time>
      </trkpt>
      <trkpt lat="49.16635" lon="-0.88339">
        <ele>116.6</ele>
        <time>2023-04-25T12:27:42Z</time>
      </trkpt>
      <trkpt lat="49.16631" lon="-0.88343">
        <ele>116.6</ele>
        <time>2023-04-25T12:27:43Z</time>
      </trkpt>
      <trkpt lat="49.16628" lon="-0.88346">
        <ele>116.6</ele>
        <time>2023-04-25T12:27:44Z</time>
      </trkpt>
      <trkpt lat="49.16624" lon="-0.8835">
        <ele>116.8</ele>
        <time>2023-04-25T12:27:45Z</time>
      </trkpt>
      <trkpt lat="49.1662" lon="-0.88354">
        <ele>117</ele>
        <time>2023-04-25T12:27:46Z</time>
      </trkpt>
      <trkpt lat="49.16617" lon="-0.88358">
        <ele>117</ele>
        <time>2023-04-25T12:27:47Z</time>
      </trkpt>
      <trkpt lat="49.16613" lon="-0.88362">
        <ele>117</ele>
        <time>2023-04-25T12:27:48Z</time>
      </trkpt>
      <trkpt lat="49.16609" lon="-0.88366">
        <ele>117.2</ele>
        <time>2023-04-25T12:27:49Z</time>
      </trkpt>
      <trkpt lat="49.16605" lon="-0.8837">
        <ele>117.4</ele>
        <time>2023-04-25T12:27:50Z</time>
      </trkpt>
      <trkpt lat="49.16602" lon="-0.88374">
        <ele>117.4</ele>
        <time>2023-04-25T12:27:51Z</time>
      </trkpt>
      <trkpt lat="49.16598" lon="-0.88379">
        <ele>117.6</ele>
        <time>2023-04-25T12:27:52Z</time>
      </trkpt>
      <trkpt lat="49.16594" lon="-0.88383">
        <ele>117.6</ele>
        <time>2023-04-25T12:27:53Z</time>
      </trkpt>
      <trkpt lat="49.1659" lon="-0.88387">
        <ele>117.6</ele>
        <time>2023-04-25T12:27:54Z</time>
      </trkpt>
      <trkpt lat="49.16587" lon="-0.88391">
        <ele>117.6</ele>
        <time>2023-04-25T12:27:55Z</time>
      </trkpt>
      <trkpt lat="49.16583" lon="-0.88395">
        <ele>117.6</ele>
        <time>2023-04-25T12:27:56Z</time>
      </trkpt>
      <trkpt lat="49.16579" lon="-0.88399">
        <ele>118</ele>
        <time>2023-04-25T12:27:57Z</time>
      </trkpt>
      <trkpt lat="49.16575" lon="-0.88403">
        <ele>118</ele>
        <time>2023-04-25T12:27:58Z</time>
      </trkpt>
      <trkpt lat="49.16572" lon="-0.88408">
        <ele>118</ele>
        <time>2023-04-25T12:27:59Z</time>
      </trkpt>
      <trkpt lat="49.16568" lon="-0.88412">
        <ele>118</ele>
        <time>2023-04-25T12:28:00Z</time>
      </trkpt>
      <trkpt lat="49.16565" lon="-0.88417">
        <ele>118.2</ele>
        <time>2023-04-25T12:28:01Z</time>
      </trkpt>
      <trkpt lat="49.16561" lon="-0.88421">
        <ele>118.4</ele>
        <time>2023-04-25T12:28:02Z</time>
      </trkpt>
      <trkpt lat="49.16557" lon="-0.88426">
        <ele>118.4</ele>
        <time>2023-04-25T12:28:03Z</time>
      </trkpt>
      <trkpt lat="49.16553" lon="-0.88431">
        <ele>118.4</ele>
        <time>2023-04-25T12:28:04Z</time>
      </trkpt>
      <trkpt lat="49.1655" lon="-0.88436">
        <ele>118.4</ele>
        <time>2023-04-25T12:28:05Z</time>
      </trkpt>
      <trkpt lat="49.16546" lon="-0.8844">
        <ele>118.4</ele>
        <time>2023-04-25T12:28:06Z</time>
      </trkpt>
      <trkpt lat="49.16543" lon="-0.88445">
        <ele>118.4</ele>
        <time>2023-04-25T12:28:07Z</time>
      </trkpt>
      <trkpt lat="49.16539" lon="-0.8845">
        <ele>118.4</ele>
        <time>2023-04-25T12:28:08Z</time>
      </trkpt>
      <trkpt lat="49.16535" lon="-0.88455">
        <ele>118.4</ele>
        <time>2023-04-25T12:28:09Z</time>
      </trkpt>
      <trkpt lat="49.16532" lon="-0.8846">
        <ele>118.4</ele>
        <time>2023-04-25T12:28:10Z</time>
      </trkpt>
      <trkpt lat="49.16528" lon="-0.88465">
        <ele>118.4</ele>
        <time>2023-04-25T12:28:11Z</time>
      </trkpt>
      <trkpt lat="49.16525" lon="-0.8847">
        <ele>118.4</ele>
        <time>2023-04-25T12:28:12Z</time>
      </trkpt>
      <trkpt lat="49.16521" lon="-0.88475">
        <ele>118.2</ele>
        <time>2023-04-25T12:28:13Z</time>
      </trkpt>
      <trkpt lat="49.16517" lon="-0.8848">
        <ele>118.2</ele>
        <time>2023-04-25T12:28:14Z</time>
      </trkpt>
      <trkpt lat="49.16514" lon="-0.88484">
        <ele>118.2</ele>
        <time>2023-04-25T12:28:15Z</time>
      </trkpt>
      <trkpt lat="49.1651" lon="-0.88489">
        <ele>118</ele>
        <time>2023-04-25T12:28:16Z</time>
      </trkpt>
      <trkpt lat="49.16507" lon="-0.88494">
        <ele>118</ele>
        <time>2023-04-25T12:28:17Z</time>
      </trkpt>
      <trkpt lat="49.16503" lon="-0.88498">
        <ele>118</ele>
        <time>2023-04-25T12:28:18Z</time>
      </trkpt>
      <trkpt lat="49.165" lon="-0.88503">
        <ele>118</ele>
        <time>2023-04-25T12:28:19Z</time>
      </trkpt>
      <trkpt lat="49.16496" lon="-0.88507">
        <ele>118.4</ele>
        <time>2023-04-25T12:28:20Z</time>
      </trkpt>
      <trkpt lat="49.16493" lon="-0.88512">
        <ele>118.6</ele>
        <time>2023-04-25T12:28:21Z</time>
      </trkpt>
      <trkpt lat="49.16489" lon="-0.88516">
        <ele>118.8</ele>
        <time>2023-04-25T12:28:22Z</time>
      </trkpt>
      <trkpt lat="49.16486" lon="-0.8852">
        <ele>119</ele>
        <time>2023-04-25T12:28:23Z</time>
      </trkpt>
      <trkpt lat="49.16482" lon="-0.88525">
        <ele>119.2</ele>
        <time>2023-04-25T12:28:24Z</time>
      </trkpt>
      <trkpt lat="49.16479" lon="-0.88529">
        <ele>119.4</ele>
        <time>2023-04-25T12:28:25Z</time>
      </trkpt>
      <trkpt lat="49.16475" lon="-0.88534">
        <ele>119.6</ele>
        <time>2023-04-25T12:28:26Z</time>
      </trkpt>
      <trkpt lat="49.16472" lon="-0.88538">
        <ele>119.8</ele>
        <time>2023-04-25T12:28:27Z</time>
      </trkpt>
      <trkpt lat="49.16468" lon="-0.88542">
        <ele>120</ele>
        <time>2023-04-25T12:28:28Z</time>
      </trkpt>
      <trkpt lat="49.16465" lon="-0.88547">
        <ele>120.2</ele>
        <time>2023-04-25T12:28:29Z</time>
      </trkpt>
      <trkpt lat="49.16461" lon="-0.88551">
        <ele>120.4</ele>
        <time>2023-04-25T12:28:30Z</time>
      </trkpt>
      <trkpt lat="49.16457" lon="-0.88555">
        <ele>120.6</ele>
        <time>2023-04-25T12:28:31Z</time>
      </trkpt>
      <trkpt lat="49.16454" lon="-0.88559">
        <ele>120.6</ele>
        <time>2023-04-25T12:28:32Z</time>
      </trkpt>
      <trkpt lat="49.1645" lon="-0.88563">
        <ele>121</ele>
        <time>2023-04-25T12:28:33Z</time>
      </trkpt>
      <trkpt lat="49.16447" lon="-0.88568">
        <ele>121</ele>
        <time>2023-04-25T12:28:34Z</time>
      </trkpt>
      <trkpt lat="49.16443" lon="-0.88572">
        <ele>121.2</ele>
        <time>2023-04-25T12:28:35Z</time>
      </trkpt>
      <trkpt lat="49.1644" lon="-0.88576">
        <ele>121.4</ele>
        <time>2023-04-25T12:28:36Z</time>
      </trkpt>
      <trkpt lat="49.16436" lon="-0.8858">
        <ele>121.6</ele>
        <time>2023-04-25T12:28:37Z</time>
      </trkpt>
      <trkpt lat="49.16432" lon="-0.88584">
        <ele>121.6</ele>
        <time>2023-04-25T12:28:38Z</time>
      </trkpt>
      <trkpt lat="49.16429" lon="-0.88588">
        <ele>121.6</ele>
        <time>2023-04-25T12:28:39Z</time>
      </trkpt>
      <trkpt lat="49.16425" lon="-0.88592">
        <ele>121.8</ele>
        <time>2023-04-25T12:28:40Z</time>
      </trkpt>
      <trkpt lat="49.16421" lon="-0.88596">
        <ele>122</ele>
        <time>2023-04-25T12:28:41Z</time>
      </trkpt>
      <trkpt lat="49.16417" lon="-0.88599">
        <ele>122</ele>
        <time>2023-04-25T12:28:42Z</time>
      </trkpt>
      <trkpt lat="49.16413" lon="-0.88603">
        <ele>122</ele>
        <time>2023-04-25T12:28:43Z</time>
      </trkpt>
      <trkpt lat="49.16409" lon="-0.88607">
        <ele>122.2</ele>
        <time>2023-04-25T12:28:44Z</time>
      </trkpt>
      <trkpt lat="49.16405" lon="-0.8861">
        <ele>122.4</ele>
        <time>2023-04-25T12:28:45Z</time>
      </trkpt>
      <trkpt lat="49.16402" lon="-0.88614">
        <ele>122.4</ele>
        <time>2023-04-25T12:28:46Z</time>
      </trkpt>
      <trkpt lat="49.16398" lon="-0.88618">
        <ele>122.6</ele>
        <time>2023-04-25T12:28:47Z</time>
      </trkpt>
      <trkpt lat="49.16394" lon="-0.88621">
        <ele>122.6</ele>
        <time>2023-04-25T12:28:48Z</time>
      </trkpt>
      <trkpt lat="49.1639" lon="-0.88625">
        <ele>122.8</ele>
        <time>2023-04-25T12:28:49Z</time>
      </trkpt>
      <trkpt lat="49.16386" lon="-0.88628">
        <ele>123</ele>
        <time>2023-04-25T12:28:50Z</time>
      </trkpt>
      <trkpt lat="49.16382" lon="-0.88632">
        <ele>123</ele>
        <time>2023-04-25T12:28:51Z</time>
      </trkpt>
      <trkpt lat="49.16378" lon="-0.88635">
        <ele>123.2</ele>
        <time>2023-04-25T12:28:52Z</time>
      </trkpt>
      <trkpt lat="49.16374" lon="-0.88639">
        <ele>123.4</ele>
        <time>2023-04-25T12:28:53Z</time>
      </trkpt>
      <trkpt lat="49.1637" lon="-0.88642">
        <ele>123.6</ele>
        <time>2023-04-25T12:28:54Z</time>
      </trkpt>
      <trkpt lat="49.16367" lon="-0.88645">
        <ele>123.6</ele>
        <time>2023-04-25T12:28:55Z</time>
      </trkpt>
      <trkpt lat="49.16363" lon="-0.88649">
        <ele>123.8</ele>
        <time>2023-04-25T12:28:56Z</time>
      </trkpt>
      <trkpt lat="49.16359" lon="-0.88652">
        <ele>124</ele>
        <time>2023-04-25T12:28:57Z</time>
      </trkpt>
      <trkpt lat="49.16355" lon="-0.88656">
        <ele>124</ele>
        <time>2023-04-25T12:28:58Z</time>
      </trkpt>
      <trkpt lat="49.16351" lon="-0.88659">
        <ele>124.4</ele>
        <time>2023-04-25T12:28:59Z</time>
      </trkpt>
      <trkpt lat="49.16347" lon="-0.88663">
        <ele>124.6</ele>
        <time>2023-04-25T12:29:00Z</time>
      </trkpt>
      <trkpt lat="49.16343" lon="-0.88666">
        <ele>124.6</ele>
        <time>2023-04-25T12:29:01Z</time>
      </trkpt>
      <trkpt lat="49.16339" lon="-0.8867">
        <ele>124.6</ele>
        <time>2023-04-25T12:29:02Z</time>
      </trkpt>
      <trkpt lat="49.16336" lon="-0.88673">
        <ele>124.8</ele>
        <time>2023-04-25T12:29:03Z</time>
      </trkpt>
      <trkpt lat="49.16332" lon="-0.88677">
        <ele>124.6</ele>
        <time>2023-04-25T12:29:04Z</time>
      </trkpt>
      <trkpt lat="49.16328" lon="-0.8868">
        <ele>124.6</ele>
        <time>2023-04-25T12:29:05Z</time>
      </trkpt>
      <trkpt lat="49.16324" lon="-0.88684">
        <ele>124.6</ele>
        <time>2023-04-25T12:29:06Z</time>
      </trkpt>
      <trkpt lat="49.1632" lon="-0.88687">
        <ele>124.4</ele>
        <time>2023-04-25T12:29:07Z</time>
      </trkpt>
      <trkpt lat="49.16316" lon="-0.8869">
        <ele>124.4</ele>
        <time>2023-04-25T12:29:08Z</time>
      </trkpt>
      <trkpt lat="49.16313" lon="-0.88694">
        <ele>124.4</ele>
        <time>2023-04-25T12:29:09Z</time>
      </trkpt>
      <trkpt lat="49.16309" lon="-0.88697">
        <ele>124.2</ele>
        <time>2023-04-25T12:29:10Z</time>
      </trkpt>
      <trkpt lat="49.16305" lon="-0.88701">
        <ele>124</ele>
        <time>2023-04-25T12:29:11Z</time>
      </trkpt>
      <trkpt lat="49.16301" lon="-0.88704">
        <ele>124</ele>
        <time>2023-04-25T12:29:12Z</time>
      </trkpt>
      <trkpt lat="49.16297" lon="-0.88707">
        <ele>124</ele>
        <time>2023-04-25T12:29:13Z</time>
      </trkpt>
      <trkpt lat="49.16294" lon="-0.88711">
        <ele>124</ele>
        <time>2023-04-25T12:29:14Z</time>
      </trkpt>
      <trkpt lat="49.1629" lon="-0.88714">
        <ele>124</ele>
        <time>2023-04-25T12:29:15Z</time>
      </trkpt>
      <trkpt lat="49.16286" lon="-0.88718">
        <ele>124</ele>
        <time>2023-04-25T12:29:16Z</time>
      </trkpt>
      <trkpt lat="49.16282" lon="-0.88722">
        <ele>124</ele>
        <time>2023-04-25T12:29:17Z</time>
      </trkpt>
      <trkpt lat="49.16278" lon="-0.88726">
        <ele>124</ele>
        <time>2023-04-25T12:29:18Z</time>
      </trkpt>
      <trkpt lat="49.16274" lon="-0.8873">
        <ele>123.8</ele>
        <time>2023-04-25T12:29:19Z</time>
      </trkpt>
      <trkpt lat="49.1627" lon="-0.88735">
        <ele>123.8</ele>
        <time>2023-04-25T12:29:20Z</time>
      </trkpt>
      <trkpt lat="49.16266" lon="-0.88739">
        <ele>124</ele>
        <time>2023-04-25T12:29:21Z</time>
      </trkpt>
      <trkpt lat="49.16262" lon="-0.88744">
        <ele>124</ele>
        <time>2023-04-25T12:29:22Z</time>
      </trkpt>
      <trkpt lat="49.16258" lon="-0.88749">
        <ele>124</ele>
        <time>2023-04-25T12:29:23Z</time>
      </trkpt>
      <trkpt lat="49.16254" lon="-0.88754">
        <ele>124</ele>
        <time>2023-04-25T12:29:24Z</time>
      </trkpt>
      <trkpt lat="49.1625" lon="-0.88759">
        <ele>124</ele>
        <time>2023-04-25T12:29:25Z</time>
      </trkpt>
      <trkpt lat="49.16246" lon="-0.88764">
        <ele>124</ele>
        <time>2023-04-25T12:29:26Z</time>
      </trkpt>
      <trkpt lat="49.16242" lon="-0.88769">
        <ele>124</ele>
        <time>2023-04-25T12:29:27Z</time>
      </trkpt>
      <trkpt lat="49.16238" lon="-0.88774">
        <ele>124</ele>
        <time>2023-04-25T12:29:28Z</time>
      </trkpt>
      <trkpt lat="49.16234" lon="-0.8878">
        <ele>124</ele>
        <time>2023-04-25T12:29:29Z</time>
      </trkpt>
      <trkpt lat="49.1623" lon="-0.88785">
        <ele>124</ele>
        <time>2023-04-25T12:29:30Z</time>
      </trkpt>
      <trkpt lat="49.16226" lon="-0.8879">
        <ele>124</ele>
        <time>2023-04-25T12:29:31Z</time>
      </trkpt>
      <trkpt lat="49.16222" lon="-0.88796">
        <ele>124.2</ele>
        <time>2023-04-25T12:29:32Z</time>
      </trkpt>
      <trkpt lat="49.16218" lon="-0.88801">
        <ele>124.2</ele>
        <time>2023-04-25T12:29:33Z</time>
      </trkpt>
      <trkpt lat="49.16214" lon="-0.88806">
        <ele>124.4</ele>
        <time>2023-04-25T12:29:34Z</time>
      </trkpt>
      <trkpt lat="49.1621" lon="-0.88811">
        <ele>124.4</ele>
        <time>2023-04-25T12:29:35Z</time>
      </trkpt>
      <trkpt lat="49.16206" lon="-0.88816">
        <ele>124.4</ele>
        <time>2023-04-25T12:29:36Z</time>
      </trkpt>
      <trkpt lat="49.16201" lon="-0.8882">
        <ele>124.6</ele>
        <time>2023-04-25T12:29:37Z</time>
      </trkpt>
      <trkpt lat="49.16197" lon="-0.88824">
        <ele>124.6</ele>
        <time>2023-04-25T12:29:38Z</time>
      </trkpt>
      <trkpt lat="49.16192" lon="-0.88827">
        <ele>124.6</ele>
        <time>2023-04-25T12:29:39Z</time>
      </trkpt>
      <trkpt lat="49.16187" lon="-0.88831">
        <ele>124.6</ele>
        <time>2023-04-25T12:29:40Z</time>
      </trkpt>
      <trkpt lat="49.16183" lon="-0.88834">
        <ele>124.8</ele>
        <time>2023-04-25T12:29:41Z</time>
      </trkpt>
      <trkpt lat="49.16178" lon="-0.88838">
        <ele>125</ele>
        <time>2023-04-25T12:29:42Z</time>
      </trkpt>
      <trkpt lat="49.16173" lon="-0.88841">
        <ele>125.2</ele>
        <time>2023-04-25T12:29:43Z</time>
      </trkpt>
      <trkpt lat="49.16168" lon="-0.88845">
        <ele>125.4</ele>
        <time>2023-04-25T12:29:44Z</time>
      </trkpt>
      <trkpt lat="49.16164" lon="-0.88849">
        <ele>125.6</ele>
        <time>2023-04-25T12:29:45Z</time>
      </trkpt>
      <trkpt lat="49.16159" lon="-0.88852">
        <ele>125.6</ele>
        <time>2023-04-25T12:29:46Z</time>
      </trkpt>
      <trkpt lat="49.16154" lon="-0.88856">
        <ele>125.6</ele>
        <time>2023-04-25T12:29:47Z</time>
      </trkpt>
      <trkpt lat="49.16149" lon="-0.8886">
        <ele>125.8</ele>
        <time>2023-04-25T12:29:48Z</time>
      </trkpt>
      <trkpt lat="49.16145" lon="-0.88863">
        <ele>125.8</ele>
        <time>2023-04-25T12:29:49Z</time>
      </trkpt>
      <trkpt lat="49.16139" lon="-0.88867">
        <ele>125.8</ele>
        <time>2023-04-25T12:29:50Z</time>
      </trkpt>
      <trkpt lat="49.16134" lon="-0.8887">
        <ele>125.8</ele>
        <time>2023-04-25T12:29:51Z</time>
      </trkpt>
      <trkpt lat="49.16129" lon="-0.88872">
        <ele>125.8</ele>
        <time>2023-04-25T12:29:52Z</time>
      </trkpt>
      <trkpt lat="49.16123" lon="-0.88875">
        <ele>125.6</ele>
        <time>2023-04-25T12:29:53Z</time>
      </trkpt>
      <trkpt lat="49.16118" lon="-0.88877">
        <ele>125.6</ele>
        <time>2023-04-25T12:29:54Z</time>
      </trkpt>
      <trkpt lat="49.16112" lon="-0.88879">
        <ele>125.6</ele>
        <time>2023-04-25T12:29:55Z</time>
      </trkpt>
      <trkpt lat="49.16107" lon="-0.88881">
        <ele>125.6</ele>
        <time>2023-04-25T12:29:56Z</time>
      </trkpt>
      <trkpt lat="49.16101" lon="-0.88883">
        <ele>125.4</ele>
        <time>2023-04-25T12:29:57Z</time>
      </trkpt>
      <trkpt lat="49.16095" lon="-0.88884">
        <ele>125.4</ele>
        <time>2023-04-25T12:29:58Z</time>
      </trkpt>
      <trkpt lat="49.16089" lon="-0.88885">
        <ele>125</ele>
        <time>2023-04-25T12:29:59Z</time>
      </trkpt>
      <trkpt lat="49.16083" lon="-0.88887">
        <ele>125</ele>
        <time>2023-04-25T12:30:00Z</time>
      </trkpt>
      <trkpt lat="49.16077" lon="-0.88888">
        <ele>125</ele>
        <time>2023-04-25T12:30:01Z</time>
      </trkpt>
      <trkpt lat="49.16071" lon="-0.88889">
        <ele>125</ele>
        <time>2023-04-25T12:30:02Z</time>
      </trkpt>
      <trkpt lat="49.16066" lon="-0.88891">
        <ele>125</ele>
        <time>2023-04-25T12:30:03Z</time>
      </trkpt>
      <trkpt lat="49.1606" lon="-0.88892">
        <ele>125</ele>
        <time>2023-04-25T12:30:04Z</time>
      </trkpt>
      <trkpt lat="49.16054" lon="-0.88893">
        <ele>125.2</ele>
        <time>2023-04-25T12:30:05Z</time>
      </trkpt>
      <trkpt lat="49.16048" lon="-0.88894">
        <ele>125.2</ele>
        <time>2023-04-25T12:30:06Z</time>
      </trkpt>
      <trkpt lat="49.16042" lon="-0.88895">
        <ele>125.2</ele>
        <time>2023-04-25T12:30:07Z</time>
      </trkpt>
      <trkpt lat="49.16036" lon="-0.88895">
        <ele>125.4</ele>
        <time>2023-04-25T12:30:08Z</time>
      </trkpt>
      <trkpt lat="49.1603" lon="-0.88896">
        <ele>125.4</ele>
        <time>2023-04-25T12:30:09Z</time>
      </trkpt>
      <trkpt lat="49.16024" lon="-0.88896">
        <ele>125.4</ele>
        <time>2023-04-25T12:30:10Z</time>
      </trkpt>
      <trkpt lat="49.16018" lon="-0.88896">
        <ele>125.4</ele>
        <time>2023-04-25T12:30:11Z</time>
      </trkpt>
      <trkpt lat="49.16012" lon="-0.88896">
        <ele>125.4</ele>
        <time>2023-04-25T12:30:12Z</time>
      </trkpt>
      <trkpt lat="49.16006" lon="-0.88896">
        <ele>125.6</ele>
        <time>2023-04-25T12:30:13Z</time>
      </trkpt>
      <trkpt lat="49.16" lon="-0.88896">
        <ele>125.6</ele>
        <time>2023-04-25T12:30:14Z</time>
      </trkpt>
      <trkpt lat="49.15994" lon="-0.88897">
        <ele>125.4</ele>
        <time>2023-04-25T12:30:15Z</time>
      </trkpt>
      <trkpt lat="49.15988" lon="-0.88897">
        <ele>125.4</ele>
        <time>2023-04-25T12:30:16Z</time>
      </trkpt>
      <trkpt lat="49.15982" lon="-0.88897">
        <ele>125.2</ele>
        <time>2023-04-25T12:30:17Z</time>
      </trkpt>
      <trkpt lat="49.15976" lon="-0.88898">
        <ele>125</ele>
        <time>2023-04-25T12:30:18Z</time>
      </trkpt>
      <trkpt lat="49.1597" lon="-0.88898">
        <ele>125</ele>
        <time>2023-04-25T12:30:19Z</time>
      </trkpt>
      <trkpt lat="49.15964" lon="-0.88899">
        <ele>124.8</ele>
        <time>2023-04-25T12:30:20Z</time>
      </trkpt>
      <trkpt lat="49.15958" lon="-0.889">
        <ele>124.6</ele>
        <time>2023-04-25T12:30:21Z</time>
      </trkpt>
      <trkpt lat="49.15952" lon="-0.88901">
        <ele>124.6</ele>
        <time>2023-04-25T12:30:22Z</time>
      </trkpt>
      <trkpt lat="49.15946" lon="-0.88902">
        <ele>124.6</ele>
        <time>2023-04-25T12:30:23Z</time>
      </trkpt>
      <trkpt lat="49.1594" lon="-0.88904">
        <ele>124.4</ele>
        <time>2023-04-25T12:30:24Z</time>
      </trkpt>
      <trkpt lat="49.15934" lon="-0.88905">
        <ele>124.2</ele>
        <time>2023-04-25T12:30:25Z</time>
      </trkpt>
      <trkpt lat="49.15928" lon="-0.88906">
        <ele>124</ele>
        <time>2023-04-25T12:30:26Z</time>
      </trkpt>
      <trkpt lat="49.15922" lon="-0.88908">
        <ele>124</ele>
        <time>2023-04-25T12:30:27Z</time>
      </trkpt>
      <trkpt lat="49.15916" lon="-0.8891">
        <ele>124</ele>
        <time>2023-04-25T12:30:28Z</time>
      </trkpt>
      <trkpt lat="49.1591" lon="-0.88911">
        <ele>124</ele>
        <time>2023-04-25T12:30:29Z</time>
      </trkpt>
      <trkpt lat="49.15904" lon="-0.88913">
        <ele>123.8</ele>
        <time>2023-04-25T12:30:30Z</time>
      </trkpt>
      <trkpt lat="49.15898" lon="-0.88915">
        <ele>123.8</ele>
        <time>2023-04-25T12:30:31Z</time>
      </trkpt>
      <trkpt lat="49.15893" lon="-0.88917">
        <ele>123.6</ele>
        <time>2023-04-25T12:30:32Z</time>
      </trkpt>
      <trkpt lat="49.15887" lon="-0.88919">
        <ele>123.6</ele>
        <time>2023-04-25T12:30:33Z</time>
      </trkpt>
      <trkpt lat="49.15881" lon="-0.88921">
        <ele>123.6</ele>
        <time>2023-04-25T12:30:34Z</time>
      </trkpt>
      <trkpt lat="49.15875" lon="-0.88923">
        <ele>123.6</ele>
        <time>2023-04-25T12:30:35Z</time>
      </trkpt>
      <trkpt lat="49.15869" lon="-0.88926">
        <ele>123.4</ele>
        <time>2023-04-25T12:30:36Z</time>
      </trkpt>
      <trkpt lat="49.15863" lon="-0.88928">
        <ele>123.4</ele>
        <time>2023-04-25T12:30:37Z</time>
      </trkpt>
      <trkpt lat="49.15858" lon="-0.88931">
        <ele>123.2</ele>
        <time>2023-04-25T12:30:38Z</time>
      </trkpt>
      <trkpt lat="49.15852" lon="-0.88934">
        <ele>123</ele>
        <time>2023-04-25T12:30:39Z</time>
      </trkpt>
      <trkpt lat="49.15846" lon="-0.88937">
        <ele>123</ele>
        <time>2023-04-25T12:30:40Z</time>
      </trkpt>
      <trkpt lat="49.1584" lon="-0.88941">
        <ele>122.8</ele>
        <time>2023-04-25T12:30:41Z</time>
      </trkpt>
      <trkpt lat="49.15835" lon="-0.88944">
        <ele>122.6</ele>
        <time>2023-04-25T12:30:42Z</time>
      </trkpt>
      <trkpt lat="49.15829" lon="-0.88948">
        <ele>122.6</ele>
        <time>2023-04-25T12:30:43Z</time>
      </trkpt>
      <trkpt lat="49.15823" lon="-0.88953">
        <ele>122.4</ele>
        <time>2023-04-25T12:30:44Z</time>
      </trkpt>
      <trkpt lat="49.15818" lon="-0.88957">
        <ele>122.4</ele>
        <time>2023-04-25T12:30:45Z</time>
      </trkpt>
      <trkpt lat="49.15812" lon="-0.88962">
        <ele>122.2</ele>
        <time>2023-04-25T12:30:46Z</time>
      </trkpt>
      <trkpt lat="49.15806" lon="-0.88966">
        <ele>122</ele>
        <time>2023-04-25T12:30:47Z</time>
      </trkpt>
      <trkpt lat="49.158" lon="-0.88971">
        <ele>122</ele>
        <time>2023-04-25T12:30:48Z</time>
      </trkpt>
      <trkpt lat="49.15794" lon="-0.88976">
        <ele>121.8</ele>
        <time>2023-04-25T12:30:49Z</time>
      </trkpt>
      <trkpt lat="49.15788" lon="-0.88981">
        <ele>121.6</ele>
        <time>2023-04-25T12:30:50Z</time>
      </trkpt>
      <trkpt lat="49.15782" lon="-0.88986">
        <ele>121.6</ele>
        <time>2023-04-25T12:30:51Z</time>
      </trkpt>
      <trkpt lat="49.15776" lon="-0.88991">
        <ele>121.4</ele>
        <time>2023-04-25T12:30:52Z</time>
      </trkpt>
      <trkpt lat="49.1577" lon="-0.88996">
        <ele>121.4</ele>
        <time>2023-04-25T12:30:53Z</time>
      </trkpt>
      <trkpt lat="49.15763" lon="-0.89002">
        <ele>121.2</ele>
        <time>2023-04-25T12:30:54Z</time>
      </trkpt>
      <trkpt lat="49.15757" lon="-0.89007">
        <ele>121</ele>
        <time>2023-04-25T12:30:55Z</time>
      </trkpt>
      <trkpt lat="49.1575" lon="-0.89012">
        <ele>121</ele>
        <time>2023-04-25T12:30:56Z</time>
      </trkpt>
      <trkpt lat="49.15744" lon="-0.89018">
        <ele>121</ele>
        <time>2023-04-25T12:30:57Z</time>
      </trkpt>
      <trkpt lat="49.15737" lon="-0.89023">
        <ele>120.6</ele>
        <time>2023-04-25T12:30:58Z</time>
      </trkpt>
      <trkpt lat="49.15731" lon="-0.89029">
        <ele>120.6</ele>
        <time>2023-04-25T12:30:59Z</time>
      </trkpt>
      <trkpt lat="49.15724" lon="-0.89035">
        <ele>120.4</ele>
        <time>2023-04-25T12:31:00Z</time>
      </trkpt>
      <trkpt lat="49.15717" lon="-0.8904">
        <ele>120.2</ele>
        <time>2023-04-25T12:31:01Z</time>
      </trkpt>
      <trkpt lat="49.15711" lon="-0.89046">
        <ele>120</ele>
        <time>2023-04-25T12:31:02Z</time>
      </trkpt>
      <trkpt lat="49.15704" lon="-0.89052">
        <ele>120</ele>
        <time>2023-04-25T12:31:03Z</time>
      </trkpt>
      <trkpt lat="49.15697" lon="-0.89058">
        <ele>119.6</ele>
        <time>2023-04-25T12:31:04Z</time>
      </trkpt>
      <trkpt lat="49.15689" lon="-0.89064">
        <ele>119.6</ele>
        <time>2023-04-25T12:31:05Z</time>
      </trkpt>
      <trkpt lat="49.15682" lon="-0.89071">
        <ele>119.4</ele>
        <time>2023-04-25T12:31:06Z</time>
      </trkpt>
      <trkpt lat="49.15674" lon="-0.89077">
        <ele>119.2</ele>
        <time>2023-04-25T12:31:07Z</time>
      </trkpt>
      <trkpt lat="49.15667" lon="-0.89084">
        <ele>119</ele>
        <time>2023-04-25T12:31:08Z</time>
      </trkpt>
      <trkpt lat="49.15659" lon="-0.8909">
        <ele>118.6</ele>
        <time>2023-04-25T12:31:09Z</time>
      </trkpt>
      <trkpt lat="49.15651" lon="-0.89097">
        <ele>118.4</ele>
        <time>2023-04-25T12:31:10Z</time>
      </trkpt>
      <trkpt lat="49.15644" lon="-0.89103">
        <ele>118</ele>
        <time>2023-04-25T12:31:11Z</time>
      </trkpt>
      <trkpt lat="49.15636" lon="-0.8911">
        <ele>117.6</ele>
        <time>2023-04-25T12:31:12Z</time>
      </trkpt>
      <trkpt lat="49.15629" lon="-0.89116">
        <ele>117.4</ele>
        <time>2023-04-25T12:31:13Z</time>
      </trkpt>
      <trkpt lat="49.15622" lon="-0.89122">
        <ele>117</ele>
        <time>2023-04-25T12:31:14Z</time>
      </trkpt>
      <trkpt lat="49.15616" lon="-0.89127">
        <ele>116.6</ele>
        <time>2023-04-25T12:31:15Z</time>
      </trkpt>
      <trkpt lat="49.15609" lon="-0.89133">
        <ele>116.4</ele>
        <time>2023-04-25T12:31:16Z</time>
      </trkpt>
      <trkpt lat="49.15604" lon="-0.89137">
        <ele>116</ele>
        <time>2023-04-25T12:31:17Z</time>
      </trkpt>
      <trkpt lat="49.15598" lon="-0.89142">
        <ele>115.8</ele>
        <time>2023-04-25T12:31:18Z</time>
      </trkpt>
      <trkpt lat="49.15593" lon="-0.89145">
        <ele>115.6</ele>
        <time>2023-04-25T12:31:19Z</time>
      </trkpt>
      <trkpt lat="49.15589" lon="-0.89149">
        <ele>115.4</ele>
        <time>2023-04-25T12:31:20Z</time>
      </trkpt>
      <trkpt lat="49.15585" lon="-0.89152">
        <ele>115</ele>
        <time>2023-04-25T12:31:21Z</time>
      </trkpt>
      <trkpt lat="49.15583" lon="-0.89154">
        <ele>115</ele>
        <time>2023-04-25T12:31:22Z</time>
      </trkpt>
      <trkpt lat="49.1558" lon="-0.89156">
        <ele>115</ele>
        <time>2023-04-25T12:31:23Z</time>
      </trkpt>
      <trkpt lat="49.15578" lon="-0.89158">
        <ele>115</ele>
        <time>2023-04-25T12:31:24Z</time>
      </trkpt>
      <trkpt lat="49.15577" lon="-0.89159">
        <ele>114.8</ele>
        <time>2023-04-25T12:31:25Z</time>
      </trkpt>
      <trkpt lat="49.15575" lon="-0.8916">
        <ele>114.8</ele>
        <time>2023-04-25T12:31:26Z</time>
      </trkpt>
      <trkpt lat="49.15574" lon="-0.89161">
        <ele>114.8</ele>
        <time>2023-04-25T12:31:27Z</time>
      </trkpt>
      <trkpt lat="49.15573" lon="-0.89161">
        <ele>114.6</ele>
        <time>2023-04-25T12:31:28Z</time>
      </trkpt>
      <trkpt lat="49.15572" lon="-0.89161">
        <ele>114.6</ele>
        <time>2023-04-25T12:31:29Z</time>
      </trkpt>
      <trkpt lat="49.15571" lon="-0.89159">
        <ele>114.6</ele>
        <time>2023-04-25T12:31:30Z</time>
      </trkpt>
      <trkpt lat="49.1557" lon="-0.89157">
        <ele>114.6</ele>
        <time>2023-04-25T12:31:31Z</time>
      </trkpt>
      <trkpt lat="49.1557" lon="-0.89154">
        <ele>114.6</ele>
        <time>2023-04-25T12:31:32Z</time>
      </trkpt>
      <trkpt lat="49.1557" lon="-0.89151">
        <ele>114.6</ele>
        <time>2023-04-25T12:31:33Z</time>
      </trkpt>
      <trkpt lat="49.15571" lon="-0.89147">
        <ele>114.6</ele>
        <time>2023-04-25T12:31:34Z</time>
      </trkpt>
      <trkpt lat="49.15572" lon="-0.89144">
        <ele>114.6</ele>
        <time>2023-04-25T12:31:35Z</time>
      </trkpt>
      <trkpt lat="49.15573" lon="-0.89141">
        <ele>114.8</ele>
        <time>2023-04-25T12:31:36Z</time>
      </trkpt>
      <trkpt lat="49.15574" lon="-0.89138">
        <ele>114.8</ele>
        <time>2023-04-25T12:31:37Z</time>
      </trkpt>
      <trkpt lat="49.15575" lon="-0.89135">
        <ele>114.8</ele>
        <time>2023-04-25T12:31:38Z</time>
      </trkpt>
      <trkpt lat="49.15575" lon="-0.89133">
        <ele>114.8</ele>
        <time>2023-04-25T12:31:39Z</time>
      </trkpt>
      <trkpt lat="49.15575" lon="-0.89132">
        <ele>114.8</ele>
        <time>2023-04-25T12:31:40Z</time>
      </trkpt>
      <trkpt lat="49.15575" lon="-0.89131">
        <ele>114.8</ele>
        <time>2023-04-25T12:31:41Z</time>
      </trkpt>
      <trkpt lat="49.15575" lon="-0.89131">
        <ele>114.8</ele>
        <time>2023-04-25T12:31:42Z</time>
      </trkpt>
      <trkpt lat="49.15575" lon="-0.89131">
        <ele>114.8</ele>
        <time>2023-04-25T12:31:43Z</time>
      </trkpt>
      <trkpt lat="49.15575" lon="-0.89131">
        <ele>114.8</ele>
        <time>2023-04-25T12:31:44Z</time>
      </trkpt>
      <trkpt lat="49.15575" lon="-0.89131">
        <ele>114.8</ele>
        <time>2023-04-25T12:31:45Z</time>
      </trkpt>
      <trkpt lat="49.15575" lon="-0.89131">
        <ele>114.8</ele>
        <time>2023-04-25T12:31:46Z</time>
      </trkpt>
      <trkpt lat="49.15575" lon="-0.89131">
        <ele>114.8</ele>
        <time>2023-04-25T12:31:47Z</time>
      </trkpt>
      <trkpt lat="49.15575" lon="-0.89131">
        <ele>114.8</ele>
        <time>2023-04-25T12:31:48Z</time>
      </trkpt>
      <trkpt lat="49.15575" lon="-0.89131">
        <ele>114.8</ele>
        <time>2023-04-25T12:31:49Z</time>
      </trkpt>
      <trkpt lat="49.15575" lon="-0.89131">
        <ele>114.8</ele>
        <time>2023-04-25T12:31:50Z</time>
      </trkpt>
      <trkpt lat="49.15575" lon="-0.89131">
        <ele>114.8</ele>
        <time>2023-04-25T12:31:51Z</time>
      </trkpt>
      <trkpt lat="49.15575" lon="-0.89131">
        <ele>114.8</ele>
        <time>2023-04-25T12:31:52Z</time>
      </trkpt>
      <trkpt lat="49.15575" lon="-0.89131">
        <ele>114.8</ele>
        <time>2023-04-25T12:31:53Z</time>
      </trkpt>
      <trkpt lat="49.15575" lon="-0.89131">
        <ele>114.8</ele>
        <time>2023-04-25T12:31:54Z</time>
      </trkpt>
      <trkpt lat="49.15575" lon="-0.89131">
        <ele>114.8</ele>
        <time>2023-04-25T12:31:55Z</time>
      </trkpt>
      <trkpt lat="49.15575" lon="-0.89131">
        <ele>114.8</ele>
        <time>2023-04-25T12:31:56Z</time>
      </trkpt>
      <trkpt lat="49.15575" lon="-0.89131">
        <ele>114.8</ele>
        <time>2023-04-25T12:31:57Z</time>
      </trkpt>
      <trkpt lat="49.15575" lon="-0.89131">
        <ele>114.8</ele>
        <time>2023-04-25T12:31:58Z</time>
      </trkpt>
      <trkpt lat="49.15575" lon="-0.89131">
        <ele>114.8</ele>
        <time>2023-04-25T12:31:59Z</time>
      </trkpt>
      <trkpt lat="49.15575" lon="-0.89131">
        <ele>114.8</ele>
        <time>2023-04-25T12:32:00Z</time>
      </trkpt>
      <trkpt lat="49.15575" lon="-0.89131">
        <ele>114.8</ele>
        <time>2023-04-25T12:32:01Z</time>
      </trkpt>
      <trkpt lat="49.15575" lon="-0.89131">
        <ele>114.8</ele>
        <time>2023-04-25T12:32:02Z</time>
      </trkpt>
      <trkpt lat="49.15575" lon="-0.89131">
        <ele>114.8</ele>
        <time>2023-04-25T12:32:03Z</time>
      </trkpt>
      <trkpt lat="49.15575" lon="-0.89131">
        <ele>114.8</ele>
        <time>2023-04-25T12:32:04Z</time>
      </trkpt>
      <trkpt lat="49.15575" lon="-0.89131">
        <ele>114.8</ele>
        <time>2023-04-25T12:32:05Z</time>
      </trkpt>
      <trkpt lat="49.15575" lon="-0.89131">
        <ele>114.8</ele>
        <time>2023-04-25T12:32:06Z</time>
      </trkpt>
      <trkpt lat="49.15575" lon="-0.89131">
        <ele>114.8</ele>
        <time>2023-04-25T12:32:07Z</time>
      </trkpt>
      <trkpt lat="49.15575" lon="-0.89131">
        <ele>114.8</ele>
        <time>2023-04-25T12:32:08Z</time>
      </trkpt>
      <trkpt lat="49.15575" lon="-0.89131">
        <ele>114.8</ele>
        <time>2023-04-25T12:32:09Z</time>
      </trkpt>
      <trkpt lat="49.15575" lon="-0.89131">
        <ele>114.8</ele>
        <time>2023-04-25T12:32:10Z</time>
      </trkpt>
      <trkpt lat="49.15575" lon="-0.89131">
        <ele>114.8</ele>
        <time>2023-04-25T12:32:11Z</time>
      </trkpt>
      <trkpt lat="49.15575" lon="-0.89131">
        <ele>114.8</ele>
        <time>2023-04-25T12:32:12Z</time>
      </trkpt>
      <trkpt lat="49.15575" lon="-0.89131">
        <ele>114.8</ele>
        <time>2023-04-25T12:32:13Z</time>
      </trkpt>
      <trkpt lat="49.15575" lon="-0.89131">
        <ele>114.8</ele>
        <time>2023-04-25T12:32:14Z</time>
      </trkpt>
      <trkpt lat="49.15575" lon="-0.89131">
        <ele>114.8</ele>
        <time>2023-04-25T12:32:15Z</time>
      </trkpt>
      <trkpt lat="49.15575" lon="-0.89131">
        <ele>114.8</ele>
        <time>2023-04-25T12:32:16Z</time>
      </trkpt>
      <trkpt lat="49.15575" lon="-0.89131">
        <ele>114.8</ele>
        <time>2023-04-25T12:32:17Z</time>
      </trkpt>
      <trkpt lat="49.15575" lon="-0.89131">
        <ele>114.8</ele>
        <time>2023-04-25T12:32:18Z</time>
      </trkpt>
      <trkpt lat="49.15575" lon="-0.89131">
        <ele>114.8</ele>
        <time>2023-04-25T12:32:19Z</time>
      </trkpt>
      <trkpt lat="49.15575" lon="-0.89131">
        <ele>114.8</ele>
        <time>2023-04-25T12:32:20Z</time>
      </trkpt>
      <trkpt lat="49.15575" lon="-0.89131">
        <ele>114.8</ele>
        <time>2023-04-25T12:32:21Z</time>
      </trkpt>
      <trkpt lat="49.15575" lon="-0.89131">
        <ele>114.8</ele>
        <time>2023-04-25T12:32:22Z</time>
      </trkpt>
      <trkpt lat="49.15575" lon="-0.89131">
        <ele>114.8</ele>
        <time>2023-04-25T12:32:23Z</time>
      </trkpt>
      <trkpt lat="49.15575" lon="-0.89131">
        <ele>114.8</ele>
        <time>2023-04-25T12:32:24Z</time>
      </trkpt>
      <trkpt lat="49.15575" lon="-0.89131">
        <ele>114.8</ele>
        <time>2023-04-25T12:32:25Z</time>
      </trkpt>
      <trkpt lat="49.15575" lon="-0.89131">
        <ele>114.8</ele>
        <time>2023-04-25T12:32:26Z</time>
      </trkpt>
      <trkpt lat="49.15575" lon="-0.89131">
        <ele>114.8</ele>
        <time>2023-04-25T12:32:27Z</time>
      </trkpt>
      <trkpt lat="49.15575" lon="-0.89131">
        <ele>114.8</ele>
        <time>2023-04-25T12:32:28Z</time>
      </trkpt>
      <trkpt lat="49.15575" lon="-0.89131">
        <ele>114.8</ele>
        <time>2023-04-25T12:32:29Z</time>
      </trkpt>
      <trkpt lat="49.15575" lon="-0.89131">
        <ele>114.8</ele>
        <time>2023-04-25T12:32:30Z</time>
      </trkpt>
      <trkpt lat="49.15575" lon="-0.89131">
        <ele>114.8</ele>
        <time>2023-04-25T12:32:31Z</time>
      </trkpt>
      <trkpt lat="49.15575" lon="-0.89131">
        <ele>114.8</ele>
        <time>2023-04-25T12:32:32Z</time>
      </trkpt>
      <trkpt lat="49.15575" lon="-0.89131">
        <ele>114.8</ele>
        <time>2023-04-25T12:32:33Z</time>
      </trkpt>
      <trkpt lat="49.15575" lon="-0.89131">
        <ele>114.8</ele>
        <time>2023-04-25T12:32:34Z</time>
      </trkpt>
      <trkpt lat="49.15575" lon="-0.89131">
        <ele>114.8</ele>
        <time>2023-04-25T12:32:35Z</time>
      </trkpt>
      <trkpt lat="49.15575" lon="-0.89131">
        <ele>114.8</ele>
        <time>2023-04-25T12:32:36Z</time>
      </trkpt>
      <trkpt lat="49.15575" lon="-0.89131">
        <ele>114.8</ele>
        <time>2023-04-25T12:32:37Z</time>
      </trkpt>
      <trkpt lat="49.15575" lon="-0.89131">
        <ele>114.8</ele>
        <time>2023-04-25T12:32:38Z</time>
      </trkpt>
      <trkpt lat="49.15575" lon="-0.89131">
        <ele>114.8</ele>
        <time>2023-04-25T12:32:39Z</time>
      </trkpt>
      <trkpt lat="49.15575" lon="-0.89131">
        <ele>114.8</ele>
        <time>2023-04-25T12:32:40Z</time>
      </trkpt>
      <trkpt lat="49.15575" lon="-0.89131">
        <ele>114.8</ele>
        <time>2023-04-25T12:32:41Z</time>
      </trkpt>
      <trkpt lat="49.15575" lon="-0.89131">
        <ele>114.8</ele>
        <time>2023-04-25T12:32:42Z</time>
      </trkpt>
      <trkpt lat="49.15575" lon="-0.89131">
        <ele>114.8</ele>
        <time>2023-04-25T12:32:43Z</time>
      </trkpt>
      <trkpt lat="49.15575" lon="-0.89131">
        <ele>114.8</ele>
        <time>2023-04-25T12:32:44Z</time>
      </trkpt>
      <trkpt lat="49.15575" lon="-0.89131">
        <ele>114.8</ele>
        <time>2023-04-25T12:32:45Z</time>
      </trkpt>
      <trkpt lat="49.15575" lon="-0.89131">
        <ele>114.8</ele>
        <time>2023-04-25T12:32:46Z</time>
      </trkpt>
      <trkpt lat="49.15575" lon="-0.89131">
        <ele>114.8</ele>
        <time>2023-04-25T12:32:47Z</time>
      </trkpt>
      <trkpt lat="49.15575" lon="-0.89131">
        <ele>114.8</ele>
        <time>2023-04-25T12:32:48Z</time>
      </trkpt>
      <trkpt lat="49.15575" lon="-0.89131">
        <ele>114.8</ele>
        <time>2023-04-25T12:32:49Z</time>
      </trkpt>
      <trkpt lat="49.15575" lon="-0.89131">
        <ele>114.8</ele>
        <time>2023-04-25T12:32:50Z</time>
      </trkpt>
      <trkpt lat="49.15575" lon="-0.89131">
        <ele>114.8</ele>
        <time>2023-04-25T12:32:51Z</time>
      </trkpt>
      <trkpt lat="49.15575" lon="-0.89131">
        <ele>114.8</ele>
        <time>2023-04-25T12:32:52Z</time>
      </trkpt>
      <trkpt lat="49.15575" lon="-0.89131">
        <ele>114.8</ele>
        <time>2023-04-25T12:32:53Z</time>
      </trkpt>
      <trkpt lat="49.15575" lon="-0.89131">
        <ele>114.8</ele>
        <time>2023-04-25T12:32:54Z</time>
      </trkpt>
      <trkpt lat="49.15575" lon="-0.89131">
        <ele>114.8</ele>
        <time>2023-04-25T12:32:55Z</time>
      </trkpt>
      <trkpt lat="49.15575" lon="-0.89131">
        <ele>114.8</ele>
        <time>2023-04-25T12:32:56Z</time>
      </trkpt>
      <trkpt lat="49.15575" lon="-0.89131">
        <ele>114.8</ele>
        <time>2023-04-25T12:32:57Z</time>
      </trkpt>
      <trkpt lat="49.15575" lon="-0.89131">
        <ele>114.8</ele>
        <time>2023-04-25T12:32:58Z</time>
      </trkpt>
      <trkpt lat="49.15575" lon="-0.89131">
        <ele>114.8</ele>
        <time>2023-04-25T12:32:59Z</time>
      </trkpt>
      <trkpt lat="49.15575" lon="-0.89131">
        <ele>114.8</ele>
        <time>2023-04-25T12:33:00Z</time>
      </trkpt>
      <trkpt lat="49.15575" lon="-0.89131">
        <ele>114.8</ele>
        <time>2023-04-25T12:33:01Z</time>
      </trkpt>
      <trkpt lat="49.15575" lon="-0.89131">
        <ele>114.8</ele>
        <time>2023-04-25T12:33:02Z</time>
      </trkpt>
      <trkpt lat="49.15575" lon="-0.89131">
        <ele>114.8</ele>
        <time>2023-04-25T12:33:03Z</time>
      </trkpt>
      <trkpt lat="49.15575" lon="-0.89131">
        <ele>114.8</ele>
        <time>2023-04-25T12:33:04Z</time>
      </trkpt>
      <trkpt lat="49.15575" lon="-0.89131">
        <ele>114.8</ele>
        <time>2023-04-25T12:33:05Z</time>
      </trkpt>
      <trkpt lat="49.15575" lon="-0.89131">
        <ele>114.8</ele>
        <time>2023-04-25T12:33:06Z</time>
      </trkpt>
      <trkpt lat="49.15575" lon="-0.89131">
        <ele>114.8</ele>
        <time>2023-04-25T12:33:07Z</time>
      </trkpt>
      <trkpt lat="49.15575" lon="-0.89131">
        <ele>114.8</ele>
        <time>2023-04-25T12:33:08Z</time>
      </trkpt>
      <trkpt lat="49.15575" lon="-0.89131">
        <ele>114.8</ele>
        <time>2023-04-25T12:33:09Z</time>
      </trkpt>
      <trkpt lat="49.15575" lon="-0.89131">
        <ele>114.8</ele>
        <time>2023-04-25T12:33:10Z</time>
      </trkpt>
      <trkpt lat="49.15575" lon="-0.89131">
        <ele>114.8</ele>
        <time>2023-04-25T12:33:11Z</time>
      </trkpt>
      <trkpt lat="49.15575" lon="-0.89131">
        <ele>114.8</ele>
        <time>2023-04-25T12:33:12Z</time>
      </trkpt>
      <trkpt lat="49.15575" lon="-0.89131">
        <ele>114.8</ele>
        <time>2023-04-25T12:33:13Z</time>
      </trkpt>
      <trkpt lat="49.15575" lon="-0.89131">
        <ele>114.8</ele>
        <time>2023-04-25T12:33:14Z</time>
      </trkpt>
      <trkpt lat="49.15575" lon="-0.89131">
        <ele>114.8</ele>
        <time>2023-04-25T12:33:15Z</time>
      </trkpt>
      <trkpt lat="49.15575" lon="-0.89131">
        <ele>114.8</ele>
        <time>2023-04-25T12:33:16Z</time>
      </trkpt>
      <trkpt lat="49.15575" lon="-0.89131">
        <ele>114.8</ele>
        <time>2023-04-25T12:33:17Z</time>
      </trkpt>
      <trkpt lat="49.15575" lon="-0.89131">
        <ele>114.8</ele>
        <time>2023-04-25T12:33:18Z</time>
      </trkpt>
      <trkpt lat="49.15575" lon="-0.89131">
        <ele>114.8</ele>
        <time>2023-04-25T12:33:19Z</time>
      </trkpt>
      <trkpt lat="49.15575" lon="-0.89131">
        <ele>114.8</ele>
        <time>2023-04-25T12:33:20Z</time>
      </trkpt>
      <trkpt lat="49.15575" lon="-0.89131">
        <ele>114.8</ele>
        <time>2023-04-25T12:33:21Z</time>
      </trkpt>
      <trkpt lat="49.15575" lon="-0.89131">
        <ele>114.8</ele>
        <time>2023-04-25T12:33:22Z</time>
      </trkpt>
      <trkpt lat="49.15575" lon="-0.89131">
        <ele>114.8</ele>
        <time>2023-04-25T12:33:23Z</time>
      </trkpt>
      <trkpt lat="49.15575" lon="-0.89131">
        <ele>114.8</ele>
        <time>2023-04-25T12:33:24Z</time>
      </trkpt>
      <trkpt lat="49.15575" lon="-0.89131">
        <ele>114.8</ele>
        <time>2023-04-25T12:33:25Z</time>
      </trkpt>
      <trkpt lat="49.15575" lon="-0.89131">
        <ele>114.8</ele>
        <time>2023-04-25T12:33:26Z</time>
      </trkpt>
      <trkpt lat="49.15575" lon="-0.89131">
        <ele>114.8</ele>
        <time>2023-04-25T12:33:27Z</time>
      </trkpt>
      <trkpt lat="49.15575" lon="-0.89131">
        <ele>114.8</ele>
        <time>2023-04-25T12:33:28Z</time>
      </trkpt>
      <trkpt lat="49.15575" lon="-0.89131">
        <ele>114.8</ele>
        <time>2023-04-25T12:33:29Z</time>
      </trkpt>
      <trkpt lat="49.15575" lon="-0.89131">
        <ele>114.8</ele>
        <time>2023-04-25T12:33:30Z</time>
      </trkpt>
      <trkpt lat="49.15575" lon="-0.89131">
        <ele>114.8</ele>
        <time>2023-04-25T12:33:31Z</time>
      </trkpt>
      <trkpt lat="49.15575" lon="-0.89131">
        <ele>114.8</ele>
        <time>2023-04-25T12:33:32Z</time>
      </trkpt>
      <trkpt lat="49.15575" lon="-0.89131">
        <ele>114.8</ele>
        <time>2023-04-25T12:33:33Z</time>
      </trkpt>
      <trkpt lat="49.15575" lon="-0.89131">
        <ele>114.8</ele>
        <time>2023-04-25T12:33:34Z</time>
      </trkpt>
      <trkpt lat="49.15575" lon="-0.89131">
        <ele>114.8</ele>
        <time>2023-04-25T12:33:35Z</time>
      </trkpt>
      <trkpt lat="49.15575" lon="-0.89131">
        <ele>114.8</ele>
        <time>2023-04-25T12:33:36Z</time>
      </trkpt>
      <trkpt lat="49.15575" lon="-0.89131">
        <ele>114.8</ele>
        <time>2023-04-25T12:33:37Z</time>
      </trkpt>
      <trkpt lat="49.15575" lon="-0.89131">
        <ele>114.8</ele>
        <time>2023-04-25T12:33:38Z</time>
      </trkpt>
      <trkpt lat="49.15575" lon="-0.89131">
        <ele>114.8</ele>
        <time>2023-04-25T12:33:39Z</time>
      </trkpt>
      <trkpt lat="49.15575" lon="-0.89131">
        <ele>114.8</ele>
        <time>2023-04-25T12:33:40Z</time>
      </trkpt>
      <trkpt lat="49.15575" lon="-0.89131">
        <ele>114.8</ele>
        <time>2023-04-25T12:33:41Z</time>
      </trkpt>
      <trkpt lat="49.15575" lon="-0.89131">
        <ele>114.8</ele>
        <time>2023-04-25T12:33:42Z</time>
      </trkpt>
      <trkpt lat="49.15575" lon="-0.89131">
        <ele>114.8</ele>
        <time>2023-04-25T12:33:43Z</time>
      </trkpt>
      <trkpt lat="49.15575" lon="-0.89131">
        <ele>114.8</ele>
        <time>2023-04-25T12:33:44Z</time>
      </trkpt>
      <trkpt lat="49.15575" lon="-0.89131">
        <ele>114.8</ele>
        <time>2023-04-25T12:33:45Z</time>
      </trkpt>
      <trkpt lat="49.15575" lon="-0.89131">
        <ele>114.8</ele>
        <time>2023-04-25T12:33:46Z</time>
      </trkpt>
      <trkpt lat="49.15575" lon="-0.89131">
        <ele>114.8</ele>
        <time>2023-04-25T12:33:47Z</time>
      </trkpt>
      <trkpt lat="49.15575" lon="-0.89131">
        <ele>114.8</ele>
        <time>2023-04-25T12:33:48Z</time>
      </trkpt>
      <trkpt lat="49.15575" lon="-0.89131">
        <ele>114.8</ele>
        <time>2023-04-25T12:33:49Z</time>
      </trkpt>
      <trkpt lat="49.15575" lon="-0.89131">
        <ele>114.8</ele>
        <time>2023-04-25T12:33:50Z</time>
      </trkpt>
      <trkpt lat="49.15575" lon="-0.89131">
        <ele>114.8</ele>
        <time>2023-04-25T12:33:51Z</time>
      </trkpt>
      <trkpt lat="49.15575" lon="-0.89131">
        <ele>114.8</ele>
        <time>2023-04-25T12:33:52Z</time>
      </trkpt>
      <trkpt lat="49.15575" lon="-0.89131">
        <ele>114.8</ele>
        <time>2023-04-25T12:33:53Z</time>
      </trkpt>
      <trkpt lat="49.15575" lon="-0.89131">
        <ele>114.8</ele>
        <time>2023-04-25T12:33:54Z</time>
      </trkpt>
      <trkpt lat="49.15575" lon="-0.89131">
        <ele>114.8</ele>
        <time>2023-04-25T12:33:55Z</time>
      </trkpt>
      <trkpt lat="49.15575" lon="-0.89131">
        <ele>114.8</ele>
        <time>2023-04-25T12:33:56Z</time>
      </trkpt>
      <trkpt lat="49.15575" lon="-0.89131">
        <ele>114.8</ele>
        <time>2023-04-25T12:33:57Z</time>
      </trkpt>
      <trkpt lat="49.15575" lon="-0.89131">
        <ele>114.8</ele>
        <time>2023-04-25T12:33:58Z</time>
      </trkpt>
      <trkpt lat="49.15575" lon="-0.89131">
        <ele>114.8</ele>
        <time>2023-04-25T12:33:59Z</time>
      </trkpt>
      <trkpt lat="49.15575" lon="-0.89131">
        <ele>114.8</ele>
        <time>2023-04-25T12:34:00Z</time>
      </trkpt>
      <trkpt lat="49.15575" lon="-0.89131">
        <ele>114.8</ele>
        <time>2023-04-25T12:34:01Z</time>
      </trkpt>
      <trkpt lat="49.15575" lon="-0.89131">
        <ele>114.8</ele>
        <time>2023-04-25T12:34:02Z</time>
      </trkpt>
      <trkpt lat="49.15575" lon="-0.89131">
        <ele>114.8</ele>
        <time>2023-04-25T12:34:03Z</time>
      </trkpt>
      <trkpt lat="49.15575" lon="-0.89131">
        <ele>114.8</ele>
        <time>2023-04-25T12:34:04Z</time>
      </trkpt>
      <trkpt lat="49.15575" lon="-0.89131">
        <ele>114.8</ele>
        <time>2023-04-25T12:34:05Z</time>
      </trkpt>
      <trkpt lat="49.15575" lon="-0.89131">
        <ele>114.8</ele>
        <time>2023-04-25T12:34:06Z</time>
      </trkpt>
      <trkpt lat="49.15575" lon="-0.89131">
        <ele>114.8</ele>
        <time>2023-04-25T12:34:07Z</time>
      </trkpt>
      <trkpt lat="49.15575" lon="-0.89131">
        <ele>114.8</ele>
        <time>2023-04-25T12:34:08Z</time>
      </trkpt>
      <trkpt lat="49.15575" lon="-0.89131">
        <ele>114.8</ele>
        <time>2023-04-25T12:34:09Z</time>
      </trkpt>
      <trkpt lat="49.15575" lon="-0.89131">
        <ele>114.8</ele>
        <time>2023-04-25T12:34:10Z</time>
      </trkpt>
      <trkpt lat="49.15575" lon="-0.89131">
        <ele>114.8</ele>
        <time>2023-04-25T12:34:11Z</time>
      </trkpt>
      <trkpt lat="49.15575" lon="-0.89131">
        <ele>114.8</ele>
        <time>2023-04-25T12:34:12Z</time>
      </trkpt>
      <trkpt lat="49.15575" lon="-0.89131">
        <ele>114.8</ele>
        <time>2023-04-25T12:34:13Z</time>
      </trkpt>
      <trkpt lat="49.15575" lon="-0.89131">
        <ele>114.8</ele>
        <time>2023-04-25T12:34:14Z</time>
      </trkpt>
      <trkpt lat="49.15575" lon="-0.89131">
        <ele>114.8</ele>
        <time>2023-04-25T12:34:15Z</time>
      </trkpt>
      <trkpt lat="49.15575" lon="-0.89131">
        <ele>114.8</ele>
        <time>2023-04-25T12:34:16Z</time>
      </trkpt>
      <trkpt lat="49.15575" lon="-0.89131">
        <ele>114.8</ele>
        <time>2023-04-25T12:34:17Z</time>
      </trkpt>
      <trkpt lat="49.15575" lon="-0.89131">
        <ele>114.8</ele>
        <time>2023-04-25T12:34:18Z</time>
      </trkpt>
      <trkpt lat="49.15575" lon="-0.89131">
        <ele>114.8</ele>
        <time>2023-04-25T12:34:19Z</time>
      </trkpt>
      <trkpt lat="49.15575" lon="-0.89131">
        <ele>114.8</ele>
        <time>2023-04-25T12:34:20Z</time>
      </trkpt>
      <trkpt lat="49.15575" lon="-0.89131">
        <ele>114.8</ele>
        <time>2023-04-25T12:34:21Z</time>
      </trkpt>
      <trkpt lat="49.15575" lon="-0.89131">
        <ele>114.8</ele>
        <time>2023-04-25T12:34:22Z</time>
      </trkpt>
      <trkpt lat="49.15575" lon="-0.89131">
        <ele>114.8</ele>
        <time>2023-04-25T12:34:23Z</time>
      </trkpt>
      <trkpt lat="49.15575" lon="-0.89131">
        <ele>114.8</ele>
        <time>2023-04-25T12:34:24Z</time>
      </trkpt>
      <trkpt lat="49.15575" lon="-0.89131">
        <ele>114.8</ele>
        <time>2023-04-25T12:34:25Z</time>
      </trkpt>
      <trkpt lat="49.15575" lon="-0.89131">
        <ele>114.8</ele>
        <time>2023-04-25T12:34:26Z</time>
      </trkpt>
      <trkpt lat="49.15575" lon="-0.89131">
        <ele>114.8</ele>
        <time>2023-04-25T12:34:27Z</time>
      </trkpt>
      <trkpt lat="49.15575" lon="-0.89131">
        <ele>114.8</ele>
        <time>2023-04-25T12:34:28Z</time>
      </trkpt>
      <trkpt lat="49.15575" lon="-0.89131">
        <ele>114.8</ele>
        <time>2023-04-25T12:34:29Z</time>
      </trkpt>
      <trkpt lat="49.15575" lon="-0.89131">
        <ele>114.8</ele>
        <time>2023-04-25T12:34:30Z</time>
      </trkpt>
      <trkpt lat="49.15575" lon="-0.89131">
        <ele>114.8</ele>
        <time>2023-04-25T12:34:31Z</time>
      </trkpt>
      <trkpt lat="49.15575" lon="-0.89131">
        <ele>114.8</ele>
        <time>2023-04-25T12:34:32Z</time>
      </trkpt>
      <trkpt lat="49.15575" lon="-0.89131">
        <ele>114.8</ele>
        <time>2023-04-25T12:34:33Z</time>
      </trkpt>
      <trkpt lat="49.15575" lon="-0.89131">
        <ele>114.8</ele>
        <time>2023-04-25T12:34:34Z</time>
      </trkpt>
      <trkpt lat="49.15575" lon="-0.89131">
        <ele>114.8</ele>
        <time>2023-04-25T12:34:35Z</time>
      </trkpt>
      <trkpt lat="49.15575" lon="-0.89131">
        <ele>114.8</ele>
        <time>2023-04-25T12:34:36Z</time>
      </trkpt>
      <trkpt lat="49.15575" lon="-0.89131">
        <ele>114.8</ele>
        <time>2023-04-25T12:34:37Z</time>
      </trkpt>
      <trkpt lat="49.15575" lon="-0.89131">
        <ele>114.8</ele>
        <time>2023-04-25T12:34:38Z</time>
      </trkpt>
      <trkpt lat="49.15575" lon="-0.89131">
        <ele>114.8</ele>
        <time>2023-04-25T12:34:39Z</time>
      </trkpt>
      <trkpt lat="49.15575" lon="-0.89131">
        <ele>114.8</ele>
        <time>2023-04-25T12:34:40Z</time>
      </trkpt>
      <trkpt lat="49.15575" lon="-0.89131">
        <ele>114.8</ele>
        <time>2023-04-25T12:34:41Z</time>
      </trkpt>
      <trkpt lat="49.15575" lon="-0.89131">
        <ele>114.8</ele>
        <time>2023-04-25T12:34:42Z</time>
      </trkpt>
      <trkpt lat="49.15575" lon="-0.89131">
        <ele>114.8</ele>
        <time>2023-04-25T12:34:43Z</time>
      </trkpt>
      <trkpt lat="49.15575" lon="-0.89131">
        <ele>114.8</ele>
        <time>2023-04-25T12:34:44Z</time>
      </trkpt>
      <trkpt lat="49.15575" lon="-0.89131">
        <ele>114.8</ele>
        <time>2023-04-25T12:34:45Z</time>
      </trkpt>
      <trkpt lat="49.15575" lon="-0.89131">
        <ele>114.8</ele>
        <time>2023-04-25T12:34:46Z</time>
      </trkpt>
      <trkpt lat="49.15575" lon="-0.89131">
        <ele>114.8</ele>
        <time>2023-04-25T12:34:47Z</time>
      </trkpt>
      <trkpt lat="49.15575" lon="-0.89131">
        <ele>114.8</ele>
        <time>2023-04-25T12:34:48Z</time>
      </trkpt>
      <trkpt lat="49.15575" lon="-0.89131">
        <ele>114.8</ele>
        <time>2023-04-25T12:34:49Z</time>
      </trkpt>
      <trkpt lat="49.15575" lon="-0.89131">
        <ele>114.8</ele>
        <time>2023-04-25T12:34:50Z</time>
      </trkpt>
      <trkpt lat="49.15575" lon="-0.89131">
        <ele>114.8</ele>
        <time>2023-04-25T12:34:51Z</time>
      </trkpt>
      <trkpt lat="49.15575" lon="-0.89131">
        <ele>114.8</ele>
        <time>2023-04-25T12:34:52Z</time>
      </trkpt>
      <trkpt lat="49.15575" lon="-0.89131">
        <ele>114.8</ele>
        <time>2023-04-25T12:34:53Z</time>
      </trkpt>
      <trkpt lat="49.15575" lon="-0.89131">
        <ele>114.8</ele>
        <time>2023-04-25T12:34:54Z</time>
      </trkpt>
      <trkpt lat="49.15575" lon="-0.89131">
        <ele>114.8</ele>
        <time>2023-04-25T12:34:55Z</time>
      </trkpt>
      <trkpt lat="49.15575" lon="-0.89131">
        <ele>114.8</ele>
        <time>2023-04-25T12:34:56Z</time>
      </trkpt>
      <trkpt lat="49.15575" lon="-0.89131">
        <ele>114.8</ele>
        <time>2023-04-25T12:34:57Z</time>
      </trkpt>
      <trkpt lat="49.15575" lon="-0.89131">
        <ele>114.8</ele>
        <time>2023-04-25T12:34:58Z</time>
      </trkpt>
      <trkpt lat="49.15575" lon="-0.89131">
        <ele>114.8</ele>
        <time>2023-04-25T12:34:59Z</time>
      </trkpt>
      <trkpt lat="49.15575" lon="-0.89131">
        <ele>114.8</ele>
        <time>2023-04-25T12:35:00Z</time>
      </trkpt>
      <trkpt lat="49.15575" lon="-0.89131">
        <ele>114.8</ele>
        <time>2023-04-25T12:35:01Z</time>
      </trkpt>
      <trkpt lat="49.15575" lon="-0.89131">
        <ele>114.8</ele>
        <time>2023-04-25T12:35:02Z</time>
      </trkpt>
      <trkpt lat="49.15575" lon="-0.89131">
        <ele>114.8</ele>
        <time>2023-04-25T12:35:03Z</time>
      </trkpt>
      <trkpt lat="49.15575" lon="-0.89131">
        <ele>114.8</ele>
        <time>2023-04-25T12:35:04Z</time>
      </trkpt>
      <trkpt lat="49.15575" lon="-0.89131">
        <ele>114.8</ele>
        <time>2023-04-25T12:35:05Z</time>
      </trkpt>
      <trkpt lat="49.15575" lon="-0.89131">
        <ele>114.8</ele>
        <time>2023-04-25T12:35:06Z</time>
      </trkpt>
      <trkpt lat="49.15575" lon="-0.89131">
        <ele>114.8</ele>
        <time>2023-04-25T12:35:07Z</time>
      </trkpt>
      <trkpt lat="49.15575" lon="-0.89131">
        <ele>114.8</ele>
        <time>2023-04-25T12:35:08Z</time>
      </trkpt>
      <trkpt lat="49.15575" lon="-0.89131">
        <ele>114.8</ele>
        <time>2023-04-25T12:35:09Z</time>
      </trkpt>
      <trkpt lat="49.15575" lon="-0.89131">
        <ele>114.8</ele>
        <time>2023-04-25T12:35:10Z</time>
      </trkpt>
      <trkpt lat="49.15575" lon="-0.89131">
        <ele>114.8</ele>
        <time>2023-04-25T12:35:11Z</time>
      </trkpt>
      <trkpt lat="49.15575" lon="-0.89131">
        <ele>114.8</ele>
        <time>2023-04-25T12:35:12Z</time>
      </trkpt>
      <trkpt lat="49.15575" lon="-0.89131">
        <ele>114.8</ele>
        <time>2023-04-25T12:35:13Z</time>
      </trkpt>
      <trkpt lat="49.15575" lon="-0.89131">
        <ele>114.8</ele>
        <time>2023-04-25T12:35:14Z</time>
      </trkpt>
      <trkpt lat="49.15575" lon="-0.89131">
        <ele>114.8</ele>
        <time>2023-04-25T12:35:15Z</time>
      </trkpt>
      <trkpt lat="49.15575" lon="-0.89131">
        <ele>114.8</ele>
        <time>2023-04-25T12:35:16Z</time>
      </trkpt>
      <trkpt lat="49.15575" lon="-0.89131">
        <ele>114.8</ele>
        <time>2023-04-25T12:35:17Z</time>
      </trkpt>
      <trkpt lat="49.15575" lon="-0.89131">
        <ele>114.8</ele>
        <time>2023-04-25T12:35:18Z</time>
      </trkpt>
      <trkpt lat="49.15575" lon="-0.89131">
        <ele>114.8</ele>
        <time>2023-04-25T12:35:19Z</time>
      </trkpt>
      <trkpt lat="49.15575" lon="-0.89131">
        <ele>114.8</ele>
        <time>2023-04-25T12:35:20Z</time>
      </trkpt>
      <trkpt lat="49.15575" lon="-0.89131">
        <ele>114.8</ele>
        <time>2023-04-25T12:35:21Z</time>
      </trkpt>
      <trkpt lat="49.15575" lon="-0.89131">
        <ele>114.8</ele>
        <time>2023-04-25T12:35:22Z</time>
      </trkpt>
      <trkpt lat="49.15575" lon="-0.89131">
        <ele>114.8</ele>
        <time>2023-04-25T12:35:23Z</time>
      </trkpt>
      <trkpt lat="49.15575" lon="-0.89131">
        <ele>114.8</ele>
        <time>2023-04-25T12:35:24Z</time>
      </trkpt>
      <trkpt lat="49.15575" lon="-0.89131">
        <ele>114.8</ele>
        <time>2023-04-25T12:35:25Z</time>
      </trkpt>
      <trkpt lat="49.15575" lon="-0.89131">
        <ele>114.8</ele>
        <time>2023-04-25T12:35:26Z</time>
      </trkpt>
      <trkpt lat="49.15575" lon="-0.89131">
        <ele>114.8</ele>
        <time>2023-04-25T12:35:27Z</time>
      </trkpt>
      <trkpt lat="49.15575" lon="-0.89131">
        <ele>114.8</ele>
        <time>2023-04-25T12:35:28Z</time>
      </trkpt>
      <trkpt lat="49.15575" lon="-0.89131">
        <ele>114.8</ele>
        <time>2023-04-25T12:35:29Z</time>
      </trkpt>
      <trkpt lat="49.15575" lon="-0.89131">
        <ele>114.8</ele>
        <time>2023-04-25T12:35:30Z</time>
      </trkpt>
      <trkpt lat="49.15575" lon="-0.89131">
        <ele>114.8</ele>
        <time>2023-04-25T12:35:31Z</time>
      </trkpt>
      <trkpt lat="49.15575" lon="-0.89131">
        <ele>114.8</ele>
        <time>2023-04-25T12:35:32Z</time>
      </trkpt>
      <trkpt lat="49.15576" lon="-0.8913">
        <ele>114.8</ele>
        <time>2023-04-25T12:35:33Z</time>
      </trkpt>
      <trkpt lat="49.15576" lon="-0.89128">
        <ele>114.8</ele>
        <time>2023-04-25T12:35:34Z</time>
      </trkpt>
      <trkpt lat="49.15577" lon="-0.89126">
        <ele>115</ele>
        <time>2023-04-25T12:35:35Z</time>
      </trkpt>
      <trkpt lat="49.15578" lon="-0.89123">
        <ele>115</ele>
        <time>2023-04-25T12:35:36Z</time>
      </trkpt>
      <trkpt lat="49.15579" lon="-0.8912">
        <ele>115</ele>
        <time>2023-04-25T12:35:37Z</time>
      </trkpt>
      <trkpt lat="49.1558" lon="-0.89117">
        <ele>115</ele>
        <time>2023-04-25T12:35:38Z</time>
      </trkpt>
      <trkpt lat="49.15581" lon="-0.89112">
        <ele>115</ele>
        <time>2023-04-25T12:35:39Z</time>
      </trkpt>
      <trkpt lat="49.15583" lon="-0.89108">
        <ele>115</ele>
        <time>2023-04-25T12:35:40Z</time>
      </trkpt>
      <trkpt lat="49.15584" lon="-0.89103">
        <ele>115</ele>
        <time>2023-04-25T12:35:41Z</time>
      </trkpt>
      <trkpt lat="49.15586" lon="-0.89098">
        <ele>115</ele>
        <time>2023-04-25T12:35:42Z</time>
      </trkpt>
      <trkpt lat="49.15587" lon="-0.89093">
        <ele>115.2</ele>
        <time>2023-04-25T12:35:43Z</time>
      </trkpt>
      <trkpt lat="49.15589" lon="-0.89087">
        <ele>115.4</ele>
        <time>2023-04-25T12:35:44Z</time>
      </trkpt>
      <trkpt lat="49.15591" lon="-0.89081">
        <ele>115.4</ele>
        <time>2023-04-25T12:35:45Z</time>
      </trkpt>
      <trkpt lat="49.15593" lon="-0.89075">
        <ele>115.4</ele>
        <time>2023-04-25T12:35:46Z</time>
      </trkpt>
      <trkpt lat="49.15594" lon="-0.89069">
        <ele>115.6</ele>
        <time>2023-04-25T12:35:47Z</time>
      </trkpt>
      <trkpt lat="49.15596" lon="-0.89063">
        <ele>115.6</ele>
        <time>2023-04-25T12:35:48Z</time>
      </trkpt>
      <trkpt lat="49.15598" lon="-0.89057">
        <ele>115.6</ele>
        <time>2023-04-25T12:35:49Z</time>
      </trkpt>
      <trkpt lat="49.156" lon="-0.89051">
        <ele>115.8</ele>
        <time>2023-04-25T12:35:50Z</time>
      </trkpt>
      <trkpt lat="49.15602" lon="-0.89045">
        <ele>116</ele>
        <time>2023-04-25T12:35:51Z</time>
      </trkpt>
      <trkpt lat="49.15604" lon="-0.89039">
        <ele>116</ele>
        <time>2023-04-25T12:35:52Z</time>
      </trkpt>
      <trkpt lat="49.15606" lon="-0.89032">
        <ele>116</ele>
        <time>2023-04-25T12:35:53Z</time>
      </trkpt>
      <trkpt lat="49.15608" lon="-0.89026">
        <ele>116.2</ele>
        <time>2023-04-25T12:35:54Z</time>
      </trkpt>
      <trkpt lat="49.1561" lon="-0.8902">
        <ele>116.4</ele>
        <time>2023-04-25T12:35:55Z</time>
      </trkpt>
      <trkpt lat="49.15611" lon="-0.89014">
        <ele>116.4</ele>
        <time>2023-04-25T12:35:56Z</time>
      </trkpt>
      <trkpt lat="49.15613" lon="-0.89008">
        <ele>116.4</ele>
        <time>2023-04-25T12:35:57Z</time>
      </trkpt>
      <trkpt lat="49.15615" lon="-0.89002">
        <ele>116.6</ele>
        <time>2023-04-25T12:35:58Z</time>
      </trkpt>
      <trkpt lat="49.15617" lon="-0.88996">
        <ele>116.6</ele>
        <time>2023-04-25T12:35:59Z</time>
      </trkpt>
      <trkpt lat="49.15618" lon="-0.8899">
        <ele>117</ele>
        <time>2023-04-25T12:36:00Z</time>
      </trkpt>
      <trkpt lat="49.1562" lon="-0.88984">
        <ele>117</ele>
        <time>2023-04-25T12:36:01Z</time>
      </trkpt>
      <trkpt lat="49.15621" lon="-0.88979">
        <ele>117.2</ele>
        <time>2023-04-25T12:36:02Z</time>
      </trkpt>
      <trkpt lat="49.15623" lon="-0.88973">
        <ele>117.4</ele>
        <time>2023-04-25T12:36:03Z</time>
      </trkpt>
      <trkpt lat="49.15624" lon="-0.88968">
        <ele>117.6</ele>
        <time>2023-04-25T12:36:04Z</time>
      </trkpt>
      <trkpt lat="49.15625" lon="-0.88963">
        <ele>117.6</ele>
        <time>2023-04-25T12:36:05Z</time>
      </trkpt>
      <trkpt lat="49.15626" lon="-0.88958">
        <ele>117.8</ele>
        <time>2023-04-25T12:36:06Z</time>
      </trkpt>
      <trkpt lat="49.15627" lon="-0.88954">
        <ele>118</ele>
        <time>2023-04-25T12:36:07Z</time>
      </trkpt>
      <trkpt lat="49.15627" lon="-0.8895">
        <ele>118</ele>
        <time>2023-04-25T12:36:08Z</time>
      </trkpt>
      <trkpt lat="49.15628" lon="-0.88945">
        <ele>118</ele>
        <time>2023-04-25T12:36:09Z</time>
      </trkpt>
      <trkpt lat="49.15629" lon="-0.88941">
        <ele>118.2</ele>
        <time>2023-04-25T12:36:10Z</time>
      </trkpt>
      <trkpt lat="49.1563" lon="-0.88937">
        <ele>118.4</ele>
        <time>2023-04-25T12:36:11Z</time>
      </trkpt>
      <trkpt lat="49.15631" lon="-0.88932">
        <ele>118.4</ele>
        <time>2023-04-25T12:36:12Z</time>
      </trkpt>
      <trkpt lat="49.15632" lon="-0.88927">
        <ele>118.6</ele>
        <time>2023-04-25T12:36:13Z</time>
      </trkpt>
      <trkpt lat="49.15633" lon="-0.88921">
        <ele>118.6</ele>
        <time>2023-04-25T12:36:14Z</time>
      </trkpt>
      <trkpt lat="49.15634" lon="-0.88916">
        <ele>118.8</ele>
        <time>2023-04-25T12:36:15Z</time>
      </trkpt>
      <trkpt lat="49.15635" lon="-0.8891">
        <ele>118.8</ele>
        <time>2023-04-25T12:36:16Z</time>
      </trkpt>
      <trkpt lat="49.15636" lon="-0.88904">
        <ele>119</ele>
        <time>2023-04-25T12:36:17Z</time>
      </trkpt>
      <trkpt lat="49.15637" lon="-0.88898">
        <ele>119</ele>
        <time>2023-04-25T12:36:18Z</time>
      </trkpt>
      <trkpt lat="49.15639" lon="-0.88892">
        <ele>119</ele>
        <time>2023-04-25T12:36:19Z</time>
      </trkpt>
      <trkpt lat="49.1564" lon="-0.88886">
        <ele>119</ele>
        <time>2023-04-25T12:36:20Z</time>
      </trkpt>
      <trkpt lat="49.15641" lon="-0.8888">
        <ele>119</ele>
        <time>2023-04-25T12:36:21Z</time>
      </trkpt>
      <trkpt lat="49.15642" lon="-0.88874">
        <ele>119</ele>
        <time>2023-04-25T12:36:22Z</time>
      </trkpt>
      <trkpt lat="49.15643" lon="-0.88867">
        <ele>119</ele>
        <time>2023-04-25T12:36:23Z</time>
      </trkpt>
      <trkpt lat="49.15645" lon="-0.88861">
        <ele>119</ele>
        <time>2023-04-25T12:36:24Z</time>
      </trkpt>
      <trkpt lat="49.15646" lon="-0.88854">
        <ele>119</ele>
        <time>2023-04-25T12:36:25Z</time>
      </trkpt>
      <trkpt lat="49.15647" lon="-0.88847">
        <ele>119</ele>
        <time>2023-04-25T12:36:26Z</time>
      </trkpt>
      <trkpt lat="49.15649" lon="-0.88841">
        <ele>118.8</ele>
        <time>2023-04-25T12:36:27Z</time>
      </trkpt>
      <trkpt lat="49.1565" lon="-0.88834">
        <ele>118.8</ele>
        <time>2023-04-25T12:36:28Z</time>
      </trkpt>
      <trkpt lat="49.15652" lon="-0.88827">
        <ele>118.8</ele>
        <time>2023-04-25T12:36:29Z</time>
      </trkpt>
      <trkpt lat="49.15653" lon="-0.88821">
        <ele>118.8</ele>
        <time>2023-04-25T12:36:30Z</time>
      </trkpt>
      <trkpt lat="49.15655" lon="-0.88814">
        <ele>119</ele>
        <time>2023-04-25T12:36:31Z</time>
      </trkpt>
      <trkpt lat="49.15656" lon="-0.88807">
        <ele>119</ele>
        <time>2023-04-25T12:36:32Z</time>
      </trkpt>
      <trkpt lat="49.15658" lon="-0.888">
        <ele>119</ele>
        <time>2023-04-25T12:36:33Z</time>
      </trkpt>
      <trkpt lat="49.15659" lon="-0.88793">
        <ele>119</ele>
        <time>2023-04-25T12:36:34Z</time>
      </trkpt>
      <trkpt lat="49.15661" lon="-0.88786">
        <ele>119</ele>
        <time>2023-04-25T12:36:35Z</time>
      </trkpt>
      <trkpt lat="49.15662" lon="-0.88779">
        <ele>119</ele>
        <time>2023-04-25T12:36:36Z</time>
      </trkpt>
      <trkpt lat="49.15664" lon="-0.88772">
        <ele>119</ele>
        <time>2023-04-25T12:36:37Z</time>
      </trkpt>
      <trkpt lat="49.15665" lon="-0.88765">
        <ele>119</ele>
        <time>2023-04-25T12:36:38Z</time>
      </trkpt>
      <trkpt lat="49.15667" lon="-0.88758">
        <ele>119</ele>
        <time>2023-04-25T12:36:39Z</time>
      </trkpt>
      <trkpt lat="49.15669" lon="-0.88751">
        <ele>119</ele>
        <time>2023-04-25T12:36:40Z</time>
      </trkpt>
      <trkpt lat="49.1567" lon="-0.88744">
        <ele>119.2</ele>
        <time>2023-04-25T12:36:41Z</time>
      </trkpt>
      <trkpt lat="49.15672" lon="-0.88736">
        <ele>119.4</ele>
        <time>2023-04-25T12:36:42Z</time>
      </trkpt>
      <trkpt lat="49.15674" lon="-0.88729">
        <ele>119.6</ele>
        <time>2023-04-25T12:36:43Z</time>
      </trkpt>
      <trkpt lat="49.15676" lon="-0.88722">
        <ele>119.6</ele>
        <time>2023-04-25T12:36:44Z</time>
      </trkpt>
      <trkpt lat="49.15678" lon="-0.88714">
        <ele>119.8</ele>
        <time>2023-04-25T12:36:45Z</time>
      </trkpt>
      <trkpt lat="49.1568" lon="-0.88707">
        <ele>120</ele>
        <time>2023-04-25T12:36:46Z</time>
      </trkpt>
      <trkpt lat="49.15682" lon="-0.88699">
        <ele>120</ele>
        <time>2023-04-25T12:36:47Z</time>
      </trkpt>
      <trkpt lat="49.15684" lon="-0.88692">
        <ele>120.2</ele>
        <time>2023-04-25T12:36:48Z</time>
      </trkpt>
      <trkpt lat="49.15686" lon="-0.88685">
        <ele>120.4</ele>
        <time>2023-04-25T12:36:49Z</time>
      </trkpt>
      <trkpt lat="49.15689" lon="-0.88677">
        <ele>120.4</ele>
        <time>2023-04-25T12:36:50Z</time>
      </trkpt>
      <trkpt lat="49.15691" lon="-0.8867">
        <ele>120.6</ele>
        <time>2023-04-25T12:36:51Z</time>
      </trkpt>
      <trkpt lat="49.15693" lon="-0.88663">
        <ele>120.6</ele>
        <time>2023-04-25T12:36:52Z</time>
      </trkpt>
      <trkpt lat="49.15695" lon="-0.88655">
        <ele>120.6</ele>
        <time>2023-04-25T12:36:53Z</time>
      </trkpt>
      <trkpt lat="49.15698" lon="-0.88648">
        <ele>120.6</ele>
        <time>2023-04-25T12:36:54Z</time>
      </trkpt>
      <trkpt lat="49.157" lon="-0.88641">
        <ele>120.6</ele>
        <time>2023-04-25T12:36:55Z</time>
      </trkpt>
      <trkpt lat="49.15702" lon="-0.88634">
        <ele>120.6</ele>
        <time>2023-04-25T12:36:56Z</time>
      </trkpt>
      <trkpt lat="49.15705" lon="-0.88627">
        <ele>120.4</ele>
        <time>2023-04-25T12:36:57Z</time>
      </trkpt>
      <trkpt lat="49.15707" lon="-0.88619">
        <ele>120.4</ele>
        <time>2023-04-25T12:36:58Z</time>
      </trkpt>
      <trkpt lat="49.15709" lon="-0.88612">
        <ele>120.4</ele>
        <time>2023-04-25T12:36:59Z</time>
      </trkpt>
      <trkpt lat="49.15712" lon="-0.88605">
        <ele>120.4</ele>
        <time>2023-04-25T12:37:00Z</time>
      </trkpt>
      <trkpt lat="49.15714" lon="-0.88598">
        <ele>120.4</ele>
        <time>2023-04-25T12:37:01Z</time>
      </trkpt>
      <trkpt lat="49.15716" lon="-0.88591">
        <ele>120.4</ele>
        <time>2023-04-25T12:37:02Z</time>
      </trkpt>
      <trkpt lat="49.15719" lon="-0.88583">
        <ele>120.2</ele>
        <time>2023-04-25T12:37:03Z</time>
      </trkpt>
      <trkpt lat="49.15721" lon="-0.88576">
        <ele>120.2</ele>
        <time>2023-04-25T12:37:04Z</time>
      </trkpt>
      <trkpt lat="49.15723" lon="-0.88569">
        <ele>120.2</ele>
        <time>2023-04-25T12:37:05Z</time>
      </trkpt>
      <trkpt lat="49.15725" lon="-0.88562">
        <ele>120.2</ele>
        <time>2023-04-25T12:37:06Z</time>
      </trkpt>
      <trkpt lat="49.15728" lon="-0.88554">
        <ele>120.2</ele>
        <time>2023-04-25T12:37:07Z</time>
      </trkpt>
      <trkpt lat="49.1573" lon="-0.88547">
        <ele>120.2</ele>
        <time>2023-04-25T12:37:08Z</time>
      </trkpt>
      <trkpt lat="49.15733" lon="-0.88539">
        <ele>120.2</ele>
        <time>2023-04-25T12:37:09Z</time>
      </trkpt>
      <trkpt lat="49.15735" lon="-0.88532">
        <ele>120</ele>
        <time>2023-04-25T12:37:10Z</time>
      </trkpt>
      <trkpt lat="49.15738" lon="-0.88524">
        <ele>120</ele>
        <time>2023-04-25T12:37:11Z</time>
      </trkpt>
      <trkpt lat="49.15741" lon="-0.88517">
        <ele>120</ele>
        <time>2023-04-25T12:37:12Z</time>
      </trkpt>
      <trkpt lat="49.15744" lon="-0.8851">
        <ele>120</ele>
        <time>2023-04-25T12:37:13Z</time>
      </trkpt>
      <trkpt lat="49.15746" lon="-0.88504">
        <ele>120</ele>
        <time>2023-04-25T12:37:14Z</time>
      </trkpt>
      <trkpt lat="49.15748" lon="-0.88498">
        <ele>120</ele>
        <time>2023-04-25T12:37:15Z</time>
      </trkpt>
      <trkpt lat="49.1575" lon="-0.88492">
        <ele>120</ele>
        <time>2023-04-25T12:37:16Z</time>
      </trkpt>
      <trkpt lat="49.15752" lon="-0.88488">
        <ele>120</ele>
        <time>2023-04-25T12:37:17Z</time>
      </trkpt>
      <trkpt lat="49.15753" lon="-0.88485">
        <ele>120</ele>
        <time>2023-04-25T12:37:18Z</time>
      </trkpt>
      <trkpt lat="49.15754" lon="-0.88482">
        <ele>120.2</ele>
        <time>2023-04-25T12:37:19Z</time>
      </trkpt>
      <trkpt lat="49.15755" lon="-0.88481">
        <ele>120.2</ele>
        <time>2023-04-25T12:37:20Z</time>
      </trkpt>
      <trkpt lat="49.15755" lon="-0.8848">
        <ele>120.2</ele>
        <time>2023-04-25T12:37:21Z</time>
      </trkpt>
      <trkpt lat="49.15755" lon="-0.8848">
        <ele>120.2</ele>
        <time>2023-04-25T12:37:22Z</time>
      </trkpt>
      <trkpt lat="49.15755" lon="-0.8848">
        <ele>120.2</ele>
        <time>2023-04-25T12:37:23Z</time>
      </trkpt>
      <trkpt lat="49.15755" lon="-0.8848">
        <ele>120.2</ele>
        <time>2023-04-25T12:37:24Z</time>
      </trkpt>
      <trkpt lat="49.15755" lon="-0.88481">
        <ele>120.2</ele>
        <time>2023-04-25T12:37:25Z</time>
      </trkpt>
      <trkpt lat="49.15755" lon="-0.88481">
        <ele>120.2</ele>
        <time>2023-04-25T12:37:26Z</time>
      </trkpt>
      <trkpt lat="49.15755" lon="-0.88481">
        <ele>120.2</ele>
        <time>2023-04-25T12:37:27Z</time>
      </trkpt>
      <trkpt lat="49.15755" lon="-0.88481">
        <ele>120.2</ele>
        <time>2023-04-25T12:37:28Z</time>
      </trkpt>
      <trkpt lat="49.15755" lon="-0.88481">
        <ele>120.2</ele>
        <time>2023-04-25T12:37:29Z</time>
      </trkpt>
      <trkpt lat="49.15755" lon="-0.88481">
        <ele>120.2</ele>
        <time>2023-04-25T12:37:30Z</time>
      </trkpt>
      <trkpt lat="49.15755" lon="-0.88481">
        <ele>120.2</ele>
        <time>2023-04-25T12:37:31Z</time>
      </trkpt>
      <trkpt lat="49.15755" lon="-0.88481">
        <ele>120.2</ele>
        <time>2023-04-25T12:37:32Z</time>
      </trkpt>
      <trkpt lat="49.15755" lon="-0.88481">
        <ele>120.2</ele>
        <time>2023-04-25T12:37:33Z</time>
      </trkpt>
      <trkpt lat="49.15755" lon="-0.88481">
        <ele>120.2</ele>
        <time>2023-04-25T12:37:34Z</time>
      </trkpt>
      <trkpt lat="49.15755" lon="-0.88481">
        <ele>120.2</ele>
        <time>2023-04-25T12:37:35Z</time>
      </trkpt>
      <trkpt lat="49.15755" lon="-0.88481">
        <ele>120.2</ele>
        <time>2023-04-25T12:37:36Z</time>
      </trkpt>
      <trkpt lat="49.15755" lon="-0.88481">
        <ele>120.2</ele>
        <time>2023-04-25T12:37:37Z</time>
      </trkpt>
      <trkpt lat="49.15755" lon="-0.88481">
        <ele>120.2</ele>
        <time>2023-04-25T12:37:38Z</time>
      </trkpt>
      <trkpt lat="49.15755" lon="-0.88481">
        <ele>120.2</ele>
        <time>2023-04-25T12:37:39Z</time>
      </trkpt>
      <trkpt lat="49.15755" lon="-0.88481">
        <ele>120.2</ele>
        <time>2023-04-25T12:37:40Z</time>
      </trkpt>
      <trkpt lat="49.15755" lon="-0.88481">
        <ele>120.2</ele>
        <time>2023-04-25T12:37:41Z</time>
      </trkpt>
      <trkpt lat="49.15755" lon="-0.88481">
        <ele>120.2</ele>
        <time>2023-04-25T12:37:42Z</time>
      </trkpt>
      <trkpt lat="49.15755" lon="-0.88481">
        <ele>120.2</ele>
        <time>2023-04-25T12:37:43Z</time>
      </trkpt>
      <trkpt lat="49.15755" lon="-0.88481">
        <ele>120.2</ele>
        <time>2023-04-25T12:37:44Z</time>
      </trkpt>
      <trkpt lat="49.15755" lon="-0.88481">
        <ele>120.2</ele>
        <time>2023-04-25T12:37:45Z</time>
      </trkpt>
      <trkpt lat="49.15755" lon="-0.88481">
        <ele>120.2</ele>
        <time>2023-04-25T12:37:46Z</time>
      </trkpt>
      <trkpt lat="49.15755" lon="-0.88481">
        <ele>120.2</ele>
        <time>2023-04-25T12:37:47Z</time>
      </trkpt>
      <trkpt lat="49.15755" lon="-0.88481">
        <ele>120.2</ele>
        <time>2023-04-25T12:37:48Z</time>
      </trkpt>
      <trkpt lat="49.15755" lon="-0.88481">
        <ele>120.2</ele>
        <time>2023-04-25T12:37:49Z</time>
      </trkpt>
      <trkpt lat="49.15755" lon="-0.88481">
        <ele>120.2</ele>
        <time>2023-04-25T12:37:50Z</time>
      </trkpt>
      <trkpt lat="49.15755" lon="-0.88481">
        <ele>120.2</ele>
        <time>2023-04-25T12:37:51Z</time>
      </trkpt>
      <trkpt lat="49.15755" lon="-0.88481">
        <ele>120.2</ele>
        <time>2023-04-25T12:37:52Z</time>
      </trkpt>
      <trkpt lat="49.15755" lon="-0.88481">
        <ele>120.2</ele>
        <time>2023-04-25T12:37:53Z</time>
      </trkpt>
      <trkpt lat="49.15755" lon="-0.88481">
        <ele>120.2</ele>
        <time>2023-04-25T12:37:54Z</time>
      </trkpt>
      <trkpt lat="49.15755" lon="-0.88481">
        <ele>120.2</ele>
        <time>2023-04-25T12:37:55Z</time>
      </trkpt>
      <trkpt lat="49.15755" lon="-0.88481">
        <ele>120.2</ele>
        <time>2023-04-25T12:37:56Z</time>
      </trkpt>
      <trkpt lat="49.15755" lon="-0.88481">
        <ele>120.2</ele>
        <time>2023-04-25T12:37:57Z</time>
      </trkpt>
      <trkpt lat="49.15755" lon="-0.88481">
        <ele>120.2</ele>
        <time>2023-04-25T12:37:58Z</time>
      </trkpt>
      <trkpt lat="49.15755" lon="-0.88481">
        <ele>120.2</ele>
        <time>2023-04-25T12:37:59Z</time>
      </trkpt>
      <trkpt lat="49.15755" lon="-0.88481">
        <ele>120.2</ele>
        <time>2023-04-25T12:38:00Z</time>
      </trkpt>
      <trkpt lat="49.15755" lon="-0.88481">
        <ele>120.2</ele>
        <time>2023-04-25T12:38:01Z</time>
      </trkpt>
      <trkpt lat="49.15755" lon="-0.88481">
        <ele>120.2</ele>
        <time>2023-04-25T12:38:02Z</time>
      </trkpt>
      <trkpt lat="49.15755" lon="-0.88481">
        <ele>120.2</ele>
        <time>2023-04-25T12:38:03Z</time>
      </trkpt>
      <trkpt lat="49.15755" lon="-0.88481">
        <ele>120.2</ele>
        <time>2023-04-25T12:38:04Z</time>
      </trkpt>
      <trkpt lat="49.15755" lon="-0.88481">
        <ele>120.2</ele>
        <time>2023-04-25T12:38:05Z</time>
      </trkpt>
      <trkpt lat="49.15755" lon="-0.88481">
        <ele>120.2</ele>
        <time>2023-04-25T12:38:06Z</time>
      </trkpt>
      <trkpt lat="49.15755" lon="-0.88481">
        <ele>120.2</ele>
        <time>2023-04-25T12:38:07Z</time>
      </trkpt>
      <trkpt lat="49.15755" lon="-0.88481">
        <ele>120.2</ele>
        <time>2023-04-25T12:38:08Z</time>
      </trkpt>
      <trkpt lat="49.15755" lon="-0.88481">
        <ele>120.2</ele>
        <time>2023-04-25T12:38:09Z</time>
      </trkpt>
      <trkpt lat="49.15755" lon="-0.88481">
        <ele>120.2</ele>
        <time>2023-04-25T12:38:10Z</time>
      </trkpt>
      <trkpt lat="49.15755" lon="-0.88481">
        <ele>120.2</ele>
        <time>2023-04-25T12:38:11Z</time>
      </trkpt>
      <trkpt lat="49.15755" lon="-0.88481">
        <ele>120.2</ele>
        <time>2023-04-25T12:38:12Z</time>
      </trkpt>
      <trkpt lat="49.15755" lon="-0.88481">
        <ele>120.2</ele>
        <time>2023-04-25T12:38:13Z</time>
      </trkpt>
      <trkpt lat="49.15755" lon="-0.88481">
        <ele>120.2</ele>
        <time>2023-04-25T12:38:14Z</time>
      </trkpt>
      <trkpt lat="49.15755" lon="-0.88481">
        <ele>120.2</ele>
        <time>2023-04-25T12:38:15Z</time>
      </trkpt>
      <trkpt lat="49.15755" lon="-0.88481">
        <ele>120.2</ele>
        <time>2023-04-25T12:38:16Z</time>
      </trkpt>
      <trkpt lat="49.15755" lon="-0.8848">
        <ele>120.2</ele>
        <time>2023-04-25T12:38:17Z</time>
      </trkpt>
      <trkpt lat="49.15755" lon="-0.8848">
        <ele>120.2</ele>
        <time>2023-04-25T12:38:18Z</time>
      </trkpt>
      <trkpt lat="49.15755" lon="-0.8848">
        <ele>120.2</ele>
        <time>2023-04-25T12:38:19Z</time>
      </trkpt>
      <trkpt lat="49.15755" lon="-0.8848">
        <ele>120.2</ele>
        <time>2023-04-25T12:38:20Z</time>
      </trkpt>
      <trkpt lat="49.15755" lon="-0.8848">
        <ele>120.2</ele>
        <time>2023-04-25T12:38:21Z</time>
      </trkpt>
      <trkpt lat="49.15755" lon="-0.8848">
        <ele>120.2</ele>
        <time>2023-04-25T12:38:22Z</time>
      </trkpt>
      <trkpt lat="49.15755" lon="-0.88481">
        <ele>120.2</ele>
        <time>2023-04-25T12:38:23Z</time>
      </trkpt>
      <trkpt lat="49.15755" lon="-0.88481">
        <ele>120.2</ele>
        <time>2023-04-25T12:38:24Z</time>
      </trkpt>
      <trkpt lat="49.15755" lon="-0.8848">
        <ele>120.2</ele>
        <time>2023-04-25T12:38:25Z</time>
      </trkpt>
      <trkpt lat="49.15756" lon="-0.88479">
        <ele>120.2</ele>
        <time>2023-04-25T12:38:26Z</time>
      </trkpt>
      <trkpt lat="49.15757" lon="-0.88478">
        <ele>120.2</ele>
        <time>2023-04-25T12:38:27Z</time>
      </trkpt>
      <trkpt lat="49.15758" lon="-0.88476">
        <ele>120.2</ele>
        <time>2023-04-25T12:38:28Z</time>
      </trkpt>
      <trkpt lat="49.15759" lon="-0.88473">
        <ele>120.2</ele>
        <time>2023-04-25T12:38:29Z</time>
      </trkpt>
      <trkpt lat="49.15761" lon="-0.8847">
        <ele>120.2</ele>
        <time>2023-04-25T12:38:30Z</time>
      </trkpt>
      <trkpt lat="49.15763" lon="-0.88466">
        <ele>120.4</ele>
        <time>2023-04-25T12:38:31Z</time>
      </trkpt>
      <trkpt lat="49.15765" lon="-0.88462">
        <ele>120.4</ele>
        <time>2023-04-25T12:38:32Z</time>
      </trkpt>
      <trkpt lat="49.15767" lon="-0.88457">
        <ele>120.4</ele>
        <time>2023-04-25T12:38:33Z</time>
      </trkpt>
      <trkpt lat="49.1577" lon="-0.88451">
        <ele>120.4</ele>
        <time>2023-04-25T12:38:34Z</time>
      </trkpt>
      <trkpt lat="49.15773" lon="-0.88445">
        <ele>120.4</ele>
        <time>2023-04-25T12:38:35Z</time>
      </trkpt>
      <trkpt lat="49.15776" lon="-0.88439">
        <ele>120.4</ele>
        <time>2023-04-25T12:38:36Z</time>
      </trkpt>
      <trkpt lat="49.15779" lon="-0.88433">
        <ele>120.6</ele>
        <time>2023-04-25T12:38:37Z</time>
      </trkpt>
      <trkpt lat="49.15782" lon="-0.88426">
        <ele>120.6</ele>
        <time>2023-04-25T12:38:38Z</time>
      </trkpt>
      <trkpt lat="49.15785" lon="-0.8842">
        <ele>120.6</ele>
        <time>2023-04-25T12:38:39Z</time>
      </trkpt>
      <trkpt lat="49.15788" lon="-0.88413">
        <ele>120.6</ele>
        <time>2023-04-25T12:38:40Z</time>
      </trkpt>
      <trkpt lat="49.15792" lon="-0.88406">
        <ele>120.4</ele>
        <time>2023-04-25T12:38:41Z</time>
      </trkpt>
      <trkpt lat="49.15795" lon="-0.88399">
        <ele>120.4</ele>
        <time>2023-04-25T12:38:42Z</time>
      </trkpt>
      <trkpt lat="49.15798" lon="-0.88392">
        <ele>120.2</ele>
        <time>2023-04-25T12:38:43Z</time>
      </trkpt>
      <trkpt lat="49.15802" lon="-0.88384">
        <ele>120</ele>
        <time>2023-04-25T12:38:44Z</time>
      </trkpt>
      <trkpt lat="49.15805" lon="-0.88376">
        <ele>120</ele>
        <time>2023-04-25T12:38:45Z</time>
      </trkpt>
      <trkpt lat="49.15809" lon="-0.88368">
        <ele>120</ele>
        <time>2023-04-25T12:38:46Z</time>
      </trkpt>
      <trkpt lat="49.15812" lon="-0.88359">
        <ele>119.6</ele>
        <time>2023-04-25T12:38:47Z</time>
      </trkpt>
      <trkpt lat="49.15816" lon="-0.8835">
        <ele>119.6</ele>
        <time>2023-04-25T12:38:48Z</time>
      </trkpt>
      <trkpt lat="49.1582" lon="-0.88341">
        <ele>119.4</ele>
        <time>2023-04-25T12:38:49Z</time>
      </trkpt>
      <trkpt lat="49.15823" lon="-0.88332">
        <ele>119.2</ele>
        <time>2023-04-25T12:38:50Z</time>
      </trkpt>
      <trkpt lat="49.15827" lon="-0.88323">
        <ele>119</ele>
        <time>2023-04-25T12:38:51Z</time>
      </trkpt>
      <trkpt lat="49.1583" lon="-0.88314">
        <ele>118.8</ele>
        <time>2023-04-25T12:38:52Z</time>
      </trkpt>
      <trkpt lat="49.15834" lon="-0.88304">
        <ele>118.6</ele>
        <time>2023-04-25T12:38:53Z</time>
      </trkpt>
      <trkpt lat="49.15837" lon="-0.88294">
        <ele>118.6</ele>
        <time>2023-04-25T12:38:54Z</time>
      </trkpt>
      <trkpt lat="49.15841" lon="-0.88285">
        <ele>118.4</ele>
        <time>2023-04-25T12:38:55Z</time>
      </trkpt>
      <trkpt lat="49.15844" lon="-0.88275">
        <ele>118.2</ele>
        <time>2023-04-25T12:38:56Z</time>
      </trkpt>
      <trkpt lat="49.15848" lon="-0.88265">
        <ele>118</ele>
        <time>2023-04-25T12:38:57Z</time>
      </trkpt>
      <trkpt lat="49.15851" lon="-0.88255">
        <ele>118</ele>
        <time>2023-04-25T12:38:58Z</time>
      </trkpt>
      <trkpt lat="49.15855" lon="-0.88245">
        <ele>117.6</ele>
        <time>2023-04-25T12:38:59Z</time>
      </trkpt>
      <trkpt lat="49.15859" lon="-0.88235">
        <ele>117.4</ele>
        <time>2023-04-25T12:39:00Z</time>
      </trkpt>
      <trkpt lat="49.15862" lon="-0.88225">
        <ele>117</ele>
        <time>2023-04-25T12:39:01Z</time>
      </trkpt>
      <trkpt lat="49.15866" lon="-0.88215">
        <ele>116.8</ele>
        <time>2023-04-25T12:39:02Z</time>
      </trkpt>
      <trkpt lat="49.1587" lon="-0.88205">
        <ele>116.6</ele>
        <time>2023-04-25T12:39:03Z</time>
      </trkpt>
      <trkpt lat="49.15874" lon="-0.88195">
        <ele>116.2</ele>
        <time>2023-04-25T12:39:04Z</time>
      </trkpt>
      <trkpt lat="49.15878" lon="-0.88184">
        <ele>116</ele>
        <time>2023-04-25T12:39:05Z</time>
      </trkpt>
      <trkpt lat="49.15882" lon="-0.88173">
        <ele>115.6</ele>
        <time>2023-04-25T12:39:06Z</time>
      </trkpt>
      <trkpt lat="49.15886" lon="-0.88163">
        <ele>115.4</ele>
        <time>2023-04-25T12:39:07Z</time>
      </trkpt>
      <trkpt lat="49.15889" lon="-0.88152">
        <ele>115.4</ele>
        <time>2023-04-25T12:39:08Z</time>
      </trkpt>
      <trkpt lat="49.15893" lon="-0.88141">
        <ele>115.2</ele>
        <time>2023-04-25T12:39:09Z</time>
      </trkpt>
      <trkpt lat="49.15896" lon="-0.8813">
        <ele>115</ele>
        <time>2023-04-25T12:39:10Z</time>
      </trkpt>
      <trkpt lat="49.15899" lon="-0.88119">
        <ele>115</ele>
        <time>2023-04-25T12:39:11Z</time>
      </trkpt>
      <trkpt lat="49.15902" lon="-0.88107">
        <ele>115</ele>
        <time>2023-04-25T12:39:12Z</time>
      </trkpt>
      <trkpt lat="49.15905" lon="-0.88097">
        <ele>115</ele>
        <time>2023-04-25T12:39:13Z</time>
      </trkpt>
      <trkpt lat="49.15908" lon="-0.88086">
        <ele>115</ele>
        <time>2023-04-25T12:39:14Z</time>
      </trkpt>
      <trkpt lat="49.1591" lon="-0.88075">
        <ele>115</ele>
        <time>2023-04-25T12:39:15Z</time>
      </trkpt>
      <trkpt lat="49.15913" lon="-0.88065">
        <ele>115</ele>
        <time>2023-04-25T12:39:16Z</time>
      </trkpt>
      <trkpt lat="49.15916" lon="-0.88056">
        <ele>115</ele>
        <time>2023-04-25T12:39:17Z</time>
      </trkpt>
      <trkpt lat="49.15919" lon="-0.88047">
        <ele>115</ele>
        <time>2023-04-25T12:39:18Z</time>
      </trkpt>
      <trkpt lat="49.15921" lon="-0.88038">
        <ele>115.2</ele>
        <time>2023-04-25T12:39:19Z</time>
      </trkpt>
      <trkpt lat="49.15924" lon="-0.8803">
        <ele>115.4</ele>
        <time>2023-04-25T12:39:20Z</time>
      </trkpt>
      <trkpt lat="49.15927" lon="-0.88022">
        <ele>115.4</ele>
        <time>2023-04-25T12:39:21Z</time>
      </trkpt>
      <trkpt lat="49.15929" lon="-0.88015">
        <ele>115.6</ele>
        <time>2023-04-25T12:39:22Z</time>
      </trkpt>
      <trkpt lat="49.15932" lon="-0.88008">
        <ele>115.6</ele>
        <time>2023-04-25T12:39:23Z</time>
      </trkpt>
      <trkpt lat="49.15934" lon="-0.88001">
        <ele>115.6</ele>
        <time>2023-04-25T12:39:24Z</time>
      </trkpt>
      <trkpt lat="49.15937" lon="-0.87995">
        <ele>115.6</ele>
        <time>2023-04-25T12:39:25Z</time>
      </trkpt>
      <trkpt lat="49.15939" lon="-0.87988">
        <ele>115.6</ele>
        <time>2023-04-25T12:39:26Z</time>
      </trkpt>
      <trkpt lat="49.15942" lon="-0.87981">
        <ele>115.6</ele>
        <time>2023-04-25T12:39:27Z</time>
      </trkpt>
      <trkpt lat="49.15944" lon="-0.87974">
        <ele>115.6</ele>
        <time>2023-04-25T12:39:28Z</time>
      </trkpt>
      <trkpt lat="49.15947" lon="-0.87967">
        <ele>115.4</ele>
        <time>2023-04-25T12:39:29Z</time>
      </trkpt>
      <trkpt lat="49.15949" lon="-0.8796">
        <ele>115.4</ele>
        <time>2023-04-25T12:39:30Z</time>
      </trkpt>
      <trkpt lat="49.15952" lon="-0.87953">
        <ele>115.4</ele>
        <time>2023-04-25T12:39:31Z</time>
      </trkpt>
      <trkpt lat="49.15955" lon="-0.87945">
        <ele>115.4</ele>
        <time>2023-04-25T12:39:32Z</time>
      </trkpt>
      <trkpt lat="49.15958" lon="-0.87937">
        <ele>115.4</ele>
        <time>2023-04-25T12:39:33Z</time>
      </trkpt>
      <trkpt lat="49.15961" lon="-0.8793">
        <ele>115.4</ele>
        <time>2023-04-25T12:39:34Z</time>
      </trkpt>
      <trkpt lat="49.15964" lon="-0.87922">
        <ele>115.4</ele>
        <time>2023-04-25T12:39:35Z</time>
      </trkpt>
      <trkpt lat="49.15967" lon="-0.87914">
        <ele>115.4</ele>
        <time>2023-04-25T12:39:36Z</time>
      </trkpt>
      <trkpt lat="49.1597" lon="-0.87906">
        <ele>115.4</ele>
        <time>2023-04-25T12:39:37Z</time>
      </trkpt>
      <trkpt lat="49.15973" lon="-0.87898">
        <ele>115.4</ele>
        <time>2023-04-25T12:39:38Z</time>
      </trkpt>
      <trkpt lat="49.15976" lon="-0.8789">
        <ele>115.4</ele>
        <time>2023-04-25T12:39:39Z</time>
      </trkpt>
      <trkpt lat="49.15979" lon="-0.87882">
        <ele>115.6</ele>
        <time>2023-04-25T12:39:40Z</time>
      </trkpt>
      <trkpt lat="49.15982" lon="-0.87874">
        <ele>115.6</ele>
        <time>2023-04-25T12:39:41Z</time>
      </trkpt>
      <trkpt lat="49.15985" lon="-0.87867">
        <ele>115.6</ele>
        <time>2023-04-25T12:39:42Z</time>
      </trkpt>
      <trkpt lat="49.15988" lon="-0.87859">
        <ele>115.6</ele>
        <time>2023-04-25T12:39:43Z</time>
      </trkpt>
      <trkpt lat="49.15991" lon="-0.87851">
        <ele>115.6</ele>
        <time>2023-04-25T12:39:44Z</time>
      </trkpt>
      <trkpt lat="49.15993" lon="-0.87844">
        <ele>115.6</ele>
        <time>2023-04-25T12:39:45Z</time>
      </trkpt>
      <trkpt lat="49.15996" lon="-0.87836">
        <ele>115.8</ele>
        <time>2023-04-25T12:39:46Z</time>
      </trkpt>
      <trkpt lat="49.15999" lon="-0.87828">
        <ele>116</ele>
        <time>2023-04-25T12:39:47Z</time>
      </trkpt>
      <trkpt lat="49.16002" lon="-0.87821">
        <ele>116</ele>
        <time>2023-04-25T12:39:48Z</time>
      </trkpt>
      <trkpt lat="49.16005" lon="-0.87813">
        <ele>116</ele>
        <time>2023-04-25T12:39:49Z</time>
      </trkpt>
      <trkpt lat="49.16008" lon="-0.87805">
        <ele>116</ele>
        <time>2023-04-25T12:39:50Z</time>
      </trkpt>
      <trkpt lat="49.16011" lon="-0.87797">
        <ele>116</ele>
        <time>2023-04-25T12:39:51Z</time>
      </trkpt>
      <trkpt lat="49.16014" lon="-0.87789">
        <ele>116</ele>
        <time>2023-04-25T12:39:52Z</time>
      </trkpt>
      <trkpt lat="49.16018" lon="-0.87781">
        <ele>116</ele>
        <time>2023-04-25T12:39:53Z</time>
      </trkpt>
      <trkpt lat="49.16021" lon="-0.87773">
        <ele>116</ele>
        <time>2023-04-25T12:39:54Z</time>
      </trkpt>
      <trkpt lat="49.16024" lon="-0.87766">
        <ele>116</ele>
        <time>2023-04-25T12:39:55Z</time>
      </trkpt>
      <trkpt lat="49.16027" lon="-0.87758">
        <ele>116</ele>
        <time>2023-04-25T12:39:56Z</time>
      </trkpt>
      <trkpt lat="49.1603" lon="-0.8775">
        <ele>116</ele>
        <time>2023-04-25T12:39:57Z</time>
      </trkpt>
      <trkpt lat="49.16033" lon="-0.87742">
        <ele>116.2</ele>
        <time>2023-04-25T12:39:58Z</time>
      </trkpt>
      <trkpt lat="49.16036" lon="-0.87734">
        <ele>116.4</ele>
        <time>2023-04-25T12:39:59Z</time>
      </trkpt>
      <trkpt lat="49.16039" lon="-0.87727">
        <ele>116.4</ele>
        <time>2023-04-25T12:40:00Z</time>
      </trkpt>
      <trkpt lat="49.16042" lon="-0.87719">
        <ele>116.6</ele>
        <time>2023-04-25T12:40:01Z</time>
      </trkpt>
      <trkpt lat="49.16044" lon="-0.87711">
        <ele>116.6</ele>
        <time>2023-04-25T12:40:02Z</time>
      </trkpt>
      <trkpt lat="49.16047" lon="-0.87704">
        <ele>116.6</ele>
        <time>2023-04-25T12:40:03Z</time>
      </trkpt>
      <trkpt lat="49.1605" lon="-0.87697">
        <ele>116.8</ele>
        <time>2023-04-25T12:40:04Z</time>
      </trkpt>
      <trkpt lat="49.16052" lon="-0.87689">
        <ele>117</ele>
        <time>2023-04-25T12:40:05Z</time>
      </trkpt>
      <trkpt lat="49.16055" lon="-0.87682">
        <ele>117</ele>
        <time>2023-04-25T12:40:06Z</time>
      </trkpt>
      <trkpt lat="49.16057" lon="-0.87675">
        <ele>117</ele>
        <time>2023-04-25T12:40:07Z</time>
      </trkpt>
      <trkpt lat="49.16059" lon="-0.87668">
        <ele>117</ele>
        <time>2023-04-25T12:40:08Z</time>
      </trkpt>
      <trkpt lat="49.16062" lon="-0.87662">
        <ele>117.2</ele>
        <time>2023-04-25T12:40:09Z</time>
      </trkpt>
      <trkpt lat="49.16064" lon="-0.87655">
        <ele>117.2</ele>
        <time>2023-04-25T12:40:10Z</time>
      </trkpt>
      <trkpt lat="49.16066" lon="-0.87648">
        <ele>117.2</ele>
        <time>2023-04-25T12:40:11Z</time>
      </trkpt>
      <trkpt lat="49.16068" lon="-0.87641">
        <ele>117.4</ele>
        <time>2023-04-25T12:40:12Z</time>
      </trkpt>
      <trkpt lat="49.1607" lon="-0.87635">
        <ele>117.4</ele>
        <time>2023-04-25T12:40:13Z</time>
      </trkpt>
      <trkpt lat="49.16072" lon="-0.87628">
        <ele>117.4</ele>
        <time>2023-04-25T12:40:14Z</time>
      </trkpt>
      <trkpt lat="49.16073" lon="-0.87621">
        <ele>117.4</ele>
        <time>2023-04-25T12:40:15Z</time>
      </trkpt>
      <trkpt lat="49.16075" lon="-0.87614">
        <ele>117.6</ele>
        <time>2023-04-25T12:40:16Z</time>
      </trkpt>
      <trkpt lat="49.16077" lon="-0.87607">
        <ele>117.6</ele>
        <time>2023-04-25T12:40:17Z</time>
      </trkpt>
      <trkpt lat="49.16079" lon="-0.876">
        <ele>117.6</ele>
        <time>2023-04-25T12:40:18Z</time>
      </trkpt>
      <trkpt lat="49.1608" lon="-0.87594">
        <ele>117.8</ele>
        <time>2023-04-25T12:40:19Z</time>
      </trkpt>
      <trkpt lat="49.16082" lon="-0.87587">
        <ele>118</ele>
        <time>2023-04-25T12:40:20Z</time>
      </trkpt>
      <trkpt lat="49.16083" lon="-0.8758">
        <ele>118</ele>
        <time>2023-04-25T12:40:21Z</time>
      </trkpt>
      <trkpt lat="49.16084" lon="-0.87573">
        <ele>117.8</ele>
        <time>2023-04-25T12:40:22Z</time>
      </trkpt>
      <trkpt lat="49.16086" lon="-0.87566">
        <ele>117.6</ele>
        <time>2023-04-25T12:40:23Z</time>
      </trkpt>
      <trkpt lat="49.16087" lon="-0.8756">
        <ele>117.6</ele>
        <time>2023-04-25T12:40:24Z</time>
      </trkpt>
      <trkpt lat="49.16089" lon="-0.87553">
        <ele>117.4</ele>
        <time>2023-04-25T12:40:25Z</time>
      </trkpt>
      <trkpt lat="49.1609" lon="-0.87546">
        <ele>117.4</ele>
        <time>2023-04-25T12:40:26Z</time>
      </trkpt>
      <trkpt lat="49.16092" lon="-0.87539">
        <ele>117.2</ele>
        <time>2023-04-25T12:40:27Z</time>
      </trkpt>
      <trkpt lat="49.16094" lon="-0.87531">
        <ele>117</ele>
        <time>2023-04-25T12:40:28Z</time>
      </trkpt>
      <trkpt lat="49.16096" lon="-0.87524">
        <ele>117</ele>
        <time>2023-04-25T12:40:29Z</time>
      </trkpt>
      <trkpt lat="49.16097" lon="-0.87517">
        <ele>117</ele>
        <time>2023-04-25T12:40:30Z</time>
      </trkpt>
      <trkpt lat="49.16099" lon="-0.87509">
        <ele>116.8</ele>
        <time>2023-04-25T12:40:31Z</time>
      </trkpt>
      <trkpt lat="49.16101" lon="-0.87502">
        <ele>116.6</ele>
        <time>2023-04-25T12:40:32Z</time>
      </trkpt>
      <trkpt lat="49.16103" lon="-0.87494">
        <ele>116.6</ele>
        <time>2023-04-25T12:40:33Z</time>
      </trkpt>
      <trkpt lat="49.16105" lon="-0.87486">
        <ele>116.6</ele>
        <time>2023-04-25T12:40:34Z</time>
      </trkpt>
      <trkpt lat="49.16107" lon="-0.87478">
        <ele>116.8</ele>
        <time>2023-04-25T12:40:35Z</time>
      </trkpt>
      <trkpt lat="49.16109" lon="-0.8747">
        <ele>116.8</ele>
        <time>2023-04-25T12:40:36Z</time>
      </trkpt>
      <trkpt lat="49.1611" lon="-0.87462">
        <ele>116.8</ele>
        <time>2023-04-25T12:40:37Z</time>
      </trkpt>
      <trkpt lat="49.16112" lon="-0.87454">
        <ele>117</ele>
        <time>2023-04-25T12:40:38Z</time>
      </trkpt>
      <trkpt lat="49.16114" lon="-0.87446">
        <ele>117</ele>
        <time>2023-04-25T12:40:39Z</time>
      </trkpt>
      <trkpt lat="49.16116" lon="-0.87438">
        <ele>117</ele>
        <time>2023-04-25T12:40:40Z</time>
      </trkpt>
      <trkpt lat="49.16118" lon="-0.87429">
        <ele>117</ele>
        <time>2023-04-25T12:40:41Z</time>
      </trkpt>
      <trkpt lat="49.16119" lon="-0.87421">
        <ele>117</ele>
        <time>2023-04-25T12:40:42Z</time>
      </trkpt>
      <trkpt lat="49.16121" lon="-0.87412">
        <ele>117</ele>
        <time>2023-04-25T12:40:43Z</time>
      </trkpt>
      <trkpt lat="49.16122" lon="-0.87404">
        <ele>117</ele>
        <time>2023-04-25T12:40:44Z</time>
      </trkpt>
      <trkpt lat="49.16123" lon="-0.87395">
        <ele>117</ele>
        <time>2023-04-25T12:40:45Z</time>
      </trkpt>
      <trkpt lat="49.16124" lon="-0.87386">
        <ele>117.2</ele>
        <time>2023-04-25T12:40:46Z</time>
      </trkpt>
      <trkpt lat="49.16124" lon="-0.87377">
        <ele>117.2</ele>
        <time>2023-04-25T12:40:47Z</time>
      </trkpt>
      <trkpt lat="49.16125" lon="-0.87368">
        <ele>117.4</ele>
        <time>2023-04-25T12:40:48Z</time>
      </trkpt>
      <trkpt lat="49.16126" lon="-0.8736">
        <ele>117.4</ele>
        <time>2023-04-25T12:40:49Z</time>
      </trkpt>
      <trkpt lat="49.16126" lon="-0.87351">
        <ele>117.4</ele>
        <time>2023-04-25T12:40:50Z</time>
      </trkpt>
      <trkpt lat="49.16127" lon="-0.87342">
        <ele>117.6</ele>
        <time>2023-04-25T12:40:51Z</time>
      </trkpt>
      <trkpt lat="49.16128" lon="-0.87334">
        <ele>117.6</ele>
        <time>2023-04-25T12:40:52Z</time>
      </trkpt>
      <trkpt lat="49.16129" lon="-0.87326">
        <ele>117.6</ele>
        <time>2023-04-25T12:40:53Z</time>
      </trkpt>
      <trkpt lat="49.1613" lon="-0.87318">
        <ele>118</ele>
        <time>2023-04-25T12:40:54Z</time>
      </trkpt>
      <trkpt lat="49.16132" lon="-0.87309">
        <ele>118</ele>
        <time>2023-04-25T12:40:55Z</time>
      </trkpt>
      <trkpt lat="49.16133" lon="-0.87301">
        <ele>118.2</ele>
        <time>2023-04-25T12:40:56Z</time>
      </trkpt>
      <trkpt lat="49.16135" lon="-0.87293">
        <ele>118.4</ele>
        <time>2023-04-25T12:40:57Z</time>
      </trkpt>
      <trkpt lat="49.16136" lon="-0.87285">
        <ele>118.6</ele>
        <time>2023-04-25T12:40:58Z</time>
      </trkpt>
      <trkpt lat="49.16138" lon="-0.87277">
        <ele>118.8</ele>
        <time>2023-04-25T12:40:59Z</time>
      </trkpt>
      <trkpt lat="49.1614" lon="-0.8727">
        <ele>119</ele>
        <time>2023-04-25T12:41:00Z</time>
      </trkpt>
      <trkpt lat="49.16142" lon="-0.87262">
        <ele>119.2</ele>
        <time>2023-04-25T12:41:01Z</time>
      </trkpt>
      <trkpt lat="49.16145" lon="-0.87254">
        <ele>119.4</ele>
        <time>2023-04-25T12:41:02Z</time>
      </trkpt>
      <trkpt lat="49.16147" lon="-0.87246">
        <ele>119.6</ele>
        <time>2023-04-25T12:41:03Z</time>
      </trkpt>
      <trkpt lat="49.16149" lon="-0.87238">
        <ele>119.6</ele>
        <time>2023-04-25T12:41:04Z</time>
      </trkpt>
      <trkpt lat="49.16151" lon="-0.8723">
        <ele>120</ele>
        <time>2023-04-25T12:41:05Z</time>
      </trkpt>
      <trkpt lat="49.16154" lon="-0.87222">
        <ele>120</ele>
        <time>2023-04-25T12:41:06Z</time>
      </trkpt>
      <trkpt lat="49.16156" lon="-0.87214">
        <ele>120.2</ele>
        <time>2023-04-25T12:41:07Z</time>
      </trkpt>
      <trkpt lat="49.16158" lon="-0.87205">
        <ele>120.4</ele>
        <time>2023-04-25T12:41:08Z</time>
      </trkpt>
      <trkpt lat="49.16161" lon="-0.87197">
        <ele>120.6</ele>
        <time>2023-04-25T12:41:09Z</time>
      </trkpt>
      <trkpt lat="49.16163" lon="-0.87188">
        <ele>120.6</ele>
        <time>2023-04-25T12:41:10Z</time>
      </trkpt>
      <trkpt lat="49.16166" lon="-0.87179">
        <ele>120.8</ele>
        <time>2023-04-25T12:41:11Z</time>
      </trkpt>
      <trkpt lat="49.16168" lon="-0.87171">
        <ele>121</ele>
        <time>2023-04-25T12:41:12Z</time>
      </trkpt>
      <trkpt lat="49.16171" lon="-0.87162">
        <ele>120.6</ele>
        <time>2023-04-25T12:41:13Z</time>
      </trkpt>
      <trkpt lat="49.16173" lon="-0.87154">
        <ele>120.4</ele>
        <time>2023-04-25T12:41:14Z</time>
      </trkpt>
      <trkpt lat="49.16175" lon="-0.87147">
        <ele>120</ele>
        <time>2023-04-25T12:41:15Z</time>
      </trkpt>
      <trkpt lat="49.16177" lon="-0.87141">
        <ele>120</ele>
        <time>2023-04-25T12:41:16Z</time>
      </trkpt>
      <trkpt lat="49.16178" lon="-0.87134">
        <ele>119.6</ele>
        <time>2023-04-25T12:41:17Z</time>
      </trkpt>
      <trkpt lat="49.1618" lon="-0.87128">
        <ele>119.4</ele>
        <time>2023-04-25T12:41:18Z</time>
      </trkpt>
      <trkpt lat="49.16182" lon="-0.87121">
        <ele>119</ele>
        <time>2023-04-25T12:41:19Z</time>
      </trkpt>
      <trkpt lat="49.16184" lon="-0.87114">
        <ele>118.8</ele>
        <time>2023-04-25T12:41:20Z</time>
      </trkpt>
      <trkpt lat="49.16185" lon="-0.87106">
        <ele>118.6</ele>
        <time>2023-04-25T12:41:21Z</time>
      </trkpt>
      <trkpt lat="49.16188" lon="-0.87098">
        <ele>118.2</ele>
        <time>2023-04-25T12:41:22Z</time>
      </trkpt>
      <trkpt lat="49.16189" lon="-0.87089">
        <ele>118</ele>
        <time>2023-04-25T12:41:23Z</time>
      </trkpt>
      <trkpt lat="49.16191" lon="-0.8708">
        <ele>117.6</ele>
        <time>2023-04-25T12:41:24Z</time>
      </trkpt>
      <trkpt lat="49.16193" lon="-0.87071">
        <ele>117.6</ele>
        <time>2023-04-25T12:41:25Z</time>
      </trkpt>
      <trkpt lat="49.16195" lon="-0.87062">
        <ele>117.4</ele>
        <time>2023-04-25T12:41:26Z</time>
      </trkpt>
      <trkpt lat="49.16197" lon="-0.87053">
        <ele>117.2</ele>
        <time>2023-04-25T12:41:27Z</time>
      </trkpt>
      <trkpt lat="49.16198" lon="-0.87044">
        <ele>117</ele>
        <time>2023-04-25T12:41:28Z</time>
      </trkpt>
      <trkpt lat="49.162" lon="-0.87035">
        <ele>117</ele>
        <time>2023-04-25T12:41:29Z</time>
      </trkpt>
      <trkpt lat="49.16201" lon="-0.87026">
        <ele>116.8</ele>
        <time>2023-04-25T12:41:30Z</time>
      </trkpt>
      <trkpt lat="49.16202" lon="-0.87017">
        <ele>116.6</ele>
        <time>2023-04-25T12:41:31Z</time>
      </trkpt>
      <trkpt lat="49.16203" lon="-0.87007">
        <ele>116.6</ele>
        <time>2023-04-25T12:41:32Z</time>
      </trkpt>
      <trkpt lat="49.16204" lon="-0.86998">
        <ele>116.4</ele>
        <time>2023-04-25T12:41:33Z</time>
      </trkpt>
      <trkpt lat="49.16205" lon="-0.86989">
        <ele>116.4</ele>
        <time>2023-04-25T12:41:34Z</time>
      </trkpt>
      <trkpt lat="49.16206" lon="-0.86979">
        <ele>116.4</ele>
        <time>2023-04-25T12:41:35Z</time>
      </trkpt>
      <trkpt lat="49.16207" lon="-0.8697">
        <ele>116.4</ele>
        <time>2023-04-25T12:41:36Z</time>
      </trkpt>
      <trkpt lat="49.16208" lon="-0.8696">
        <ele>116.4</ele>
        <time>2023-04-25T12:41:37Z</time>
      </trkpt>
      <trkpt lat="49.1621" lon="-0.86951">
        <ele>116.4</ele>
        <time>2023-04-25T12:41:38Z</time>
      </trkpt>
      <trkpt lat="49.16212" lon="-0.86942">
        <ele>116.4</ele>
        <time>2023-04-25T12:41:39Z</time>
      </trkpt>
      <trkpt lat="49.16215" lon="-0.86934">
        <ele>116.4</ele>
        <time>2023-04-25T12:41:40Z</time>
      </trkpt>
      <trkpt lat="49.16218" lon="-0.86926">
        <ele>116.6</ele>
        <time>2023-04-25T12:41:41Z</time>
      </trkpt>
      <trkpt lat="49.16222" lon="-0.86918">
        <ele>116.6</ele>
        <time>2023-04-25T12:41:42Z</time>
      </trkpt>
      <trkpt lat="49.16225" lon="-0.8691">
        <ele>117</ele>
        <time>2023-04-25T12:41:43Z</time>
      </trkpt>
      <trkpt lat="49.16228" lon="-0.86902">
        <ele>117</ele>
        <time>2023-04-25T12:41:44Z</time>
      </trkpt>
      <trkpt lat="49.16231" lon="-0.86894">
        <ele>117.4</ele>
        <time>2023-04-25T12:41:45Z</time>
      </trkpt>
      <trkpt lat="49.16233" lon="-0.86886">
        <ele>117.4</ele>
        <time>2023-04-25T12:41:46Z</time>
      </trkpt>
      <trkpt lat="49.16235" lon="-0.86878">
        <ele>117.6</ele>
        <time>2023-04-25T12:41:47Z</time>
      </trkpt>
      <trkpt lat="49.16235" lon="-0.86869">
        <ele>117.6</ele>
        <time>2023-04-25T12:41:48Z</time>
      </trkpt>
      <trkpt lat="49.16236" lon="-0.86861">
        <ele>117.6</ele>
        <time>2023-04-25T12:41:49Z</time>
      </trkpt>
      <trkpt lat="49.16236" lon="-0.86853">
        <ele>117.6</ele>
        <time>2023-04-25T12:41:50Z</time>
      </trkpt>
      <trkpt lat="49.16236" lon="-0.86845">
        <ele>117.8</ele>
        <time>2023-04-25T12:41:51Z</time>
      </trkpt>
      <trkpt lat="49.16236" lon="-0.86837">
        <ele>117.8</ele>
        <time>2023-04-25T12:41:52Z</time>
      </trkpt>
      <trkpt lat="49.16236" lon="-0.86828">
        <ele>117.8</ele>
        <time>2023-04-25T12:41:53Z</time>
      </trkpt>
      <trkpt lat="49.16236" lon="-0.86819">
        <ele>117.6</ele>
        <time>2023-04-25T12:41:54Z</time>
      </trkpt>
      <trkpt lat="49.16236" lon="-0.8681">
        <ele>117.6</ele>
        <time>2023-04-25T12:41:55Z</time>
      </trkpt>
      <trkpt lat="49.16236" lon="-0.86801">
        <ele>117.6</ele>
        <time>2023-04-25T12:41:56Z</time>
      </trkpt>
      <trkpt lat="49.16235" lon="-0.86792">
        <ele>117.6</ele>
        <time>2023-04-25T12:41:57Z</time>
      </trkpt>
      <trkpt lat="49.16235" lon="-0.86783">
        <ele>117.4</ele>
        <time>2023-04-25T12:41:58Z</time>
      </trkpt>
      <trkpt lat="49.16235" lon="-0.86773">
        <ele>117.4</ele>
        <time>2023-04-25T12:41:59Z</time>
      </trkpt>
      <trkpt lat="49.16235" lon="-0.86764">
        <ele>117.4</ele>
        <time>2023-04-25T12:42:00Z</time>
      </trkpt>
      <trkpt lat="49.16234" lon="-0.86755">
        <ele>117.2</ele>
        <time>2023-04-25T12:42:01Z</time>
      </trkpt>
      <trkpt lat="49.16234" lon="-0.86745">
        <ele>117</ele>
        <time>2023-04-25T12:42:02Z</time>
      </trkpt>
      <trkpt lat="49.16233" lon="-0.86736">
        <ele>117</ele>
        <time>2023-04-25T12:42:03Z</time>
      </trkpt>
      <trkpt lat="49.16232" lon="-0.86726">
        <ele>116.8</ele>
        <time>2023-04-25T12:42:04Z</time>
      </trkpt>
      <trkpt lat="49.16231" lon="-0.86717">
        <ele>116.6</ele>
        <time>2023-04-25T12:42:05Z</time>
      </trkpt>
      <trkpt lat="49.1623" lon="-0.86708">
        <ele>116.6</ele>
        <time>2023-04-25T12:42:06Z</time>
      </trkpt>
      <trkpt lat="49.16228" lon="-0.86699">
        <ele>116.4</ele>
        <time>2023-04-25T12:42:07Z</time>
      </trkpt>
      <trkpt lat="49.16227" lon="-0.86689">
        <ele>116</ele>
        <time>2023-04-25T12:42:08Z</time>
      </trkpt>
      <trkpt lat="49.16225" lon="-0.8668">
        <ele>116</ele>
        <time>2023-04-25T12:42:09Z</time>
      </trkpt>
      <trkpt lat="49.16224" lon="-0.86671">
        <ele>115.8</ele>
        <time>2023-04-25T12:42:10Z</time>
      </trkpt>
      <trkpt lat="49.16223" lon="-0.86662">
        <ele>115.6</ele>
        <time>2023-04-25T12:42:11Z</time>
      </trkpt>
      <trkpt lat="49.16221" lon="-0.86653">
        <ele>115.4</ele>
        <time>2023-04-25T12:42:12Z</time>
      </trkpt>
      <trkpt lat="49.1622" lon="-0.86644">
        <ele>115.2</ele>
        <time>2023-04-25T12:42:13Z</time>
      </trkpt>
      <trkpt lat="49.16218" lon="-0.86636">
        <ele>115</ele>
        <time>2023-04-25T12:42:14Z</time>
      </trkpt>
      <trkpt lat="49.16217" lon="-0.86627">
        <ele>114.6</ele>
        <time>2023-04-25T12:42:15Z</time>
      </trkpt>
      <trkpt lat="49.16216" lon="-0.86618">
        <ele>114.6</ele>
        <time>2023-04-25T12:42:16Z</time>
      </trkpt>
      <trkpt lat="49.16214" lon="-0.86609">
        <ele>114.4</ele>
        <time>2023-04-25T12:42:17Z</time>
      </trkpt>
      <trkpt lat="49.16213" lon="-0.86599">
        <ele>114</ele>
        <time>2023-04-25T12:42:18Z</time>
      </trkpt>
      <trkpt lat="49.16212" lon="-0.8659">
        <ele>113.8</ele>
        <time>2023-04-25T12:42:19Z</time>
      </trkpt>
      <trkpt lat="49.16211" lon="-0.86581">
        <ele>113.6</ele>
        <time>2023-04-25T12:42:20Z</time>
      </trkpt>
      <trkpt lat="49.16211" lon="-0.86571">
        <ele>113.4</ele>
        <time>2023-04-25T12:42:21Z</time>
      </trkpt>
      <trkpt lat="49.1621" lon="-0.86562">
        <ele>113.4</ele>
        <time>2023-04-25T12:42:22Z</time>
      </trkpt>
      <trkpt lat="49.16209" lon="-0.86552">
        <ele>113.2</ele>
        <time>2023-04-25T12:42:23Z</time>
      </trkpt>
      <trkpt lat="49.16209" lon="-0.86543">
        <ele>113</ele>
        <time>2023-04-25T12:42:24Z</time>
      </trkpt>
      <trkpt lat="49.16208" lon="-0.86533">
        <ele>113</ele>
        <time>2023-04-25T12:42:25Z</time>
      </trkpt>
      <trkpt lat="49.16208" lon="-0.86523">
        <ele>112.8</ele>
        <time>2023-04-25T12:42:26Z</time>
      </trkpt>
      <trkpt lat="49.16208" lon="-0.86514">
        <ele>112.6</ele>
        <time>2023-04-25T12:42:27Z</time>
      </trkpt>
      <trkpt lat="49.16208" lon="-0.86504">
        <ele>112.6</ele>
        <time>2023-04-25T12:42:28Z</time>
      </trkpt>
      <trkpt lat="49.16207" lon="-0.86493">
        <ele>112.4</ele>
        <time>2023-04-25T12:42:29Z</time>
      </trkpt>
      <trkpt lat="49.16207" lon="-0.86483">
        <ele>112.4</ele>
        <time>2023-04-25T12:42:30Z</time>
      </trkpt>
      <trkpt lat="49.16207" lon="-0.86473">
        <ele>112</ele>
        <time>2023-04-25T12:42:31Z</time>
      </trkpt>
      <trkpt lat="49.16208" lon="-0.86463">
        <ele>112</ele>
        <time>2023-04-25T12:42:32Z</time>
      </trkpt>
      <trkpt lat="49.16208" lon="-0.86452">
        <ele>112</ele>
        <time>2023-04-25T12:42:33Z</time>
      </trkpt>
      <trkpt lat="49.16208" lon="-0.86442">
        <ele>111.8</ele>
        <time>2023-04-25T12:42:34Z</time>
      </trkpt>
      <trkpt lat="49.16208" lon="-0.86431">
        <ele>111.6</ele>
        <time>2023-04-25T12:42:35Z</time>
      </trkpt>
      <trkpt lat="49.16209" lon="-0.86421">
        <ele>111.6</ele>
        <time>2023-04-25T12:42:36Z</time>
      </trkpt>
      <trkpt lat="49.16209" lon="-0.8641">
        <ele>111.6</ele>
        <time>2023-04-25T12:42:37Z</time>
      </trkpt>
      <trkpt lat="49.1621" lon="-0.86399">
        <ele>111.4</ele>
        <time>2023-04-25T12:42:38Z</time>
      </trkpt>
      <trkpt lat="49.1621" lon="-0.86389">
        <ele>111.4</ele>
        <time>2023-04-25T12:42:39Z</time>
      </trkpt>
      <trkpt lat="49.16211" lon="-0.86378">
        <ele>111.4</ele>
        <time>2023-04-25T12:42:40Z</time>
      </trkpt>
      <trkpt lat="49.16211" lon="-0.86368">
        <ele>111.4</ele>
        <time>2023-04-25T12:42:41Z</time>
      </trkpt>
      <trkpt lat="49.16212" lon="-0.86357">
        <ele>111.4</ele>
        <time>2023-04-25T12:42:42Z</time>
      </trkpt>
      <trkpt lat="49.16212" lon="-0.86347">
        <ele>111.4</ele>
        <time>2023-04-25T12:42:43Z</time>
      </trkpt>
      <trkpt lat="49.16213" lon="-0.86336">
        <ele>111.2</ele>
        <time>2023-04-25T12:42:44Z</time>
      </trkpt>
      <trkpt lat="49.16214" lon="-0.86326">
        <ele>111</ele>
        <time>2023-04-25T12:42:45Z</time>
      </trkpt>
      <trkpt lat="49.16214" lon="-0.86316">
        <ele>111</ele>
        <time>2023-04-25T12:42:46Z</time>
      </trkpt>
      <trkpt lat="49.16215" lon="-0.86305">
        <ele>110.6</ele>
        <time>2023-04-25T12:42:47Z</time>
      </trkpt>
      <trkpt lat="49.16216" lon="-0.86295">
        <ele>110.4</ele>
        <time>2023-04-25T12:42:48Z</time>
      </trkpt>
      <trkpt lat="49.16216" lon="-0.86285">
        <ele>110.2</ele>
        <time>2023-04-25T12:42:49Z</time>
      </trkpt>
      <trkpt lat="49.16217" lon="-0.86275">
        <ele>110</ele>
        <time>2023-04-25T12:42:50Z</time>
      </trkpt>
      <trkpt lat="49.16217" lon="-0.86265">
        <ele>109.8</ele>
        <time>2023-04-25T12:42:51Z</time>
      </trkpt>
      <trkpt lat="49.16218" lon="-0.86254">
        <ele>109.6</ele>
        <time>2023-04-25T12:42:52Z</time>
      </trkpt>
      <trkpt lat="49.16218" lon="-0.86244">
        <ele>109.4</ele>
        <time>2023-04-25T12:42:53Z</time>
      </trkpt>
      <trkpt lat="49.16218" lon="-0.86234">
        <ele>109</ele>
        <time>2023-04-25T12:42:54Z</time>
      </trkpt>
      <trkpt lat="49.16219" lon="-0.86223">
        <ele>108.6</ele>
        <time>2023-04-25T12:42:55Z</time>
      </trkpt>
      <trkpt lat="49.16219" lon="-0.86213">
        <ele>108.4</ele>
        <time>2023-04-25T12:42:56Z</time>
      </trkpt>
      <trkpt lat="49.16219" lon="-0.86202">
        <ele>108</ele>
        <time>2023-04-25T12:42:57Z</time>
      </trkpt>
      <trkpt lat="49.1622" lon="-0.86191">
        <ele>107.6</ele>
        <time>2023-04-25T12:42:58Z</time>
      </trkpt>
      <trkpt lat="49.16221" lon="-0.8618">
        <ele>107.4</ele>
        <time>2023-04-25T12:42:59Z</time>
      </trkpt>
      <trkpt lat="49.16222" lon="-0.86169">
        <ele>107</ele>
        <time>2023-04-25T12:43:00Z</time>
      </trkpt>
      <trkpt lat="49.16223" lon="-0.86158">
        <ele>106.6</ele>
        <time>2023-04-25T12:43:01Z</time>
      </trkpt>
      <trkpt lat="49.16225" lon="-0.86147">
        <ele>106.4</ele>
        <time>2023-04-25T12:43:02Z</time>
      </trkpt>
      <trkpt lat="49.16227" lon="-0.86135">
        <ele>106</ele>
        <time>2023-04-25T12:43:03Z</time>
      </trkpt>
      <trkpt lat="49.16228" lon="-0.86124">
        <ele>105.6</ele>
        <time>2023-04-25T12:43:04Z</time>
      </trkpt>
      <trkpt lat="49.1623" lon="-0.86112">
        <ele>105.2</ele>
        <time>2023-04-25T12:43:05Z</time>
      </trkpt>
      <trkpt lat="49.16232" lon="-0.861">
        <ele>104.8</ele>
        <time>2023-04-25T12:43:06Z</time>
      </trkpt>
      <trkpt lat="49.16234" lon="-0.86089">
        <ele>104.4</ele>
        <time>2023-04-25T12:43:07Z</time>
      </trkpt>
      <trkpt lat="49.16236" lon="-0.86077">
        <ele>104</ele>
        <time>2023-04-25T12:43:08Z</time>
      </trkpt>
      <trkpt lat="49.16239" lon="-0.86065">
        <ele>103.8</ele>
        <time>2023-04-25T12:43:09Z</time>
      </trkpt>
      <trkpt lat="49.16242" lon="-0.86054">
        <ele>103.6</ele>
        <time>2023-04-25T12:43:10Z</time>
      </trkpt>
      <trkpt lat="49.16246" lon="-0.86042">
        <ele>103.4</ele>
        <time>2023-04-25T12:43:11Z</time>
      </trkpt>
      <trkpt lat="49.1625" lon="-0.8603">
        <ele>103</ele>
        <time>2023-04-25T12:43:12Z</time>
      </trkpt>
      <trkpt lat="49.16253" lon="-0.86018">
        <ele>102.6</ele>
        <time>2023-04-25T12:43:13Z</time>
      </trkpt>
      <trkpt lat="49.16257" lon="-0.86006">
        <ele>102.4</ele>
        <time>2023-04-25T12:43:14Z</time>
      </trkpt>
      <trkpt lat="49.1626" lon="-0.85993">
        <ele>101.8</ele>
        <time>2023-04-25T12:43:15Z</time>
      </trkpt>
      <trkpt lat="49.16262" lon="-0.85979">
        <ele>101.2</ele>
        <time>2023-04-25T12:43:16Z</time>
      </trkpt>
      <trkpt lat="49.16265" lon="-0.85966">
        <ele>100.6</ele>
        <time>2023-04-25T12:43:17Z</time>
      </trkpt>
      <trkpt lat="49.16267" lon="-0.85951">
        <ele>100</ele>
        <time>2023-04-25T12:43:18Z</time>
      </trkpt>
      <trkpt lat="49.16269" lon="-0.85937">
        <ele>99.2</ele>
        <time>2023-04-25T12:43:19Z</time>
      </trkpt>
      <trkpt lat="49.16271" lon="-0.85922">
        <ele>98.6</ele>
        <time>2023-04-25T12:43:20Z</time>
      </trkpt>
      <trkpt lat="49.16273" lon="-0.85907">
        <ele>97.6</ele>
        <time>2023-04-25T12:43:21Z</time>
      </trkpt>
      <trkpt lat="49.16275" lon="-0.85891">
        <ele>96.8</ele>
        <time>2023-04-25T12:43:22Z</time>
      </trkpt>
      <trkpt lat="49.16277" lon="-0.85875">
        <ele>96</ele>
        <time>2023-04-25T12:43:23Z</time>
      </trkpt>
      <trkpt lat="49.16278" lon="-0.85859">
        <ele>95</ele>
        <time>2023-04-25T12:43:24Z</time>
      </trkpt>
      <trkpt lat="49.16279" lon="-0.85843">
        <ele>94.2</ele>
        <time>2023-04-25T12:43:25Z</time>
      </trkpt>
      <trkpt lat="49.1628" lon="-0.85827">
        <ele>93.4</ele>
        <time>2023-04-25T12:43:26Z</time>
      </trkpt>
      <trkpt lat="49.16281" lon="-0.85811">
        <ele>92.6</ele>
        <time>2023-04-25T12:43:27Z</time>
      </trkpt>
      <trkpt lat="49.16283" lon="-0.85797">
        <ele>91.6</ele>
        <time>2023-04-25T12:43:28Z</time>
      </trkpt>
      <trkpt lat="49.16287" lon="-0.85783">
        <ele>91</ele>
        <time>2023-04-25T12:43:29Z</time>
      </trkpt>
      <trkpt lat="49.16292" lon="-0.85772">
        <ele>90.4</ele>
        <time>2023-04-25T12:43:30Z</time>
      </trkpt>
      <trkpt lat="49.16299" lon="-0.85761">
        <ele>89.6</ele>
        <time>2023-04-25T12:43:31Z</time>
      </trkpt>
      <trkpt lat="49.16307" lon="-0.85753">
        <ele>89.2</ele>
        <time>2023-04-25T12:43:32Z</time>
      </trkpt>
      <trkpt lat="49.16315" lon="-0.85746">
        <ele>88.6</ele>
        <time>2023-04-25T12:43:33Z</time>
      </trkpt>
      <trkpt lat="49.16324" lon="-0.8574">
        <ele>88.2</ele>
        <time>2023-04-25T12:43:34Z</time>
      </trkpt>
      <trkpt lat="49.16334" lon="-0.85736">
        <ele>88</ele>
        <time>2023-04-25T12:43:35Z</time>
      </trkpt>
      <trkpt lat="49.16343" lon="-0.85733">
        <ele>87.6</ele>
        <time>2023-04-25T12:43:36Z</time>
      </trkpt>
      <trkpt lat="49.16353" lon="-0.8573">
        <ele>87.6</ele>
        <time>2023-04-25T12:43:37Z</time>
      </trkpt>
      <trkpt lat="49.16363" lon="-0.85727">
        <ele>87.4</ele>
        <time>2023-04-25T12:43:38Z</time>
      </trkpt>
      <trkpt lat="49.16372" lon="-0.85724">
        <ele>87.2</ele>
        <time>2023-04-25T12:43:39Z</time>
      </trkpt>
      <trkpt lat="49.16382" lon="-0.85722">
        <ele>87</ele>
        <time>2023-04-25T12:43:40Z</time>
      </trkpt>
      <trkpt lat="49.16392" lon="-0.85721">
        <ele>87</ele>
        <time>2023-04-25T12:43:41Z</time>
      </trkpt>
      <trkpt lat="49.16402" lon="-0.85719">
        <ele>87</ele>
        <time>2023-04-25T12:43:42Z</time>
      </trkpt>
      <trkpt lat="49.16411" lon="-0.85716">
        <ele>86.6</ele>
        <time>2023-04-25T12:43:43Z</time>
      </trkpt>
      <trkpt lat="49.16419" lon="-0.8571">
        <ele>86</ele>
        <time>2023-04-25T12:43:44Z</time>
      </trkpt>
      <trkpt lat="49.16425" lon="-0.857">
        <ele>85</ele>
        <time>2023-04-25T12:43:45Z</time>
      </trkpt>
      <trkpt lat="49.1643" lon="-0.85689">
        <ele>83.8</ele>
        <time>2023-04-25T12:43:46Z</time>
      </trkpt>
      <trkpt lat="49.16431" lon="-0.85677">
        <ele>82.6</ele>
        <time>2023-04-25T12:43:47Z</time>
      </trkpt>
      <trkpt lat="49.16428" lon="-0.85665">
        <ele>81.6</ele>
        <time>2023-04-25T12:43:48Z</time>
      </trkpt>
      <trkpt lat="49.16423" lon="-0.85655">
        <ele>81</ele>
        <time>2023-04-25T12:43:49Z</time>
      </trkpt>
      <trkpt lat="49.16416" lon="-0.85645">
        <ele>80.2</ele>
        <time>2023-04-25T12:43:50Z</time>
      </trkpt>
      <trkpt lat="49.16408" lon="-0.85636">
        <ele>79.6</ele>
        <time>2023-04-25T12:43:51Z</time>
      </trkpt>
      <trkpt lat="49.164" lon="-0.85628">
        <ele>78.8</ele>
        <time>2023-04-25T12:43:52Z</time>
      </trkpt>
      <trkpt lat="49.16392" lon="-0.85619">
        <ele>78.2</ele>
        <time>2023-04-25T12:43:53Z</time>
      </trkpt>
      <trkpt lat="49.16383" lon="-0.85611">
        <ele>77.6</ele>
        <time>2023-04-25T12:43:54Z</time>
      </trkpt>
      <trkpt lat="49.16374" lon="-0.85602">
        <ele>77</ele>
        <time>2023-04-25T12:43:55Z</time>
      </trkpt>
      <trkpt lat="49.16365" lon="-0.85592">
        <ele>76.4</ele>
        <time>2023-04-25T12:43:56Z</time>
      </trkpt>
      <trkpt lat="49.16356" lon="-0.85583">
        <ele>75.6</ele>
        <time>2023-04-25T12:43:57Z</time>
      </trkpt>
      <trkpt lat="49.16347" lon="-0.85573">
        <ele>75</ele>
        <time>2023-04-25T12:43:58Z</time>
      </trkpt>
      <trkpt lat="49.16337" lon="-0.85562">
        <ele>74.2</ele>
        <time>2023-04-25T12:43:59Z</time>
      </trkpt>
      <trkpt lat="49.16328" lon="-0.85552">
        <ele>73.6</ele>
        <time>2023-04-25T12:44:00Z</time>
      </trkpt>
      <trkpt lat="49.16319" lon="-0.85541">
        <ele>73</ele>
        <time>2023-04-25T12:44:01Z</time>
      </trkpt>
      <trkpt lat="49.1631" lon="-0.8553">
        <ele>72.4</ele>
        <time>2023-04-25T12:44:02Z</time>
      </trkpt>
      <trkpt lat="49.163" lon="-0.85519">
        <ele>71.8</ele>
        <time>2023-04-25T12:44:03Z</time>
      </trkpt>
      <trkpt lat="49.16291" lon="-0.85509">
        <ele>71.4</ele>
        <time>2023-04-25T12:44:04Z</time>
      </trkpt>
      <trkpt lat="49.16283" lon="-0.85498">
        <ele>70.6</ele>
        <time>2023-04-25T12:44:05Z</time>
      </trkpt>
      <trkpt lat="49.16275" lon="-0.85488">
        <ele>70.4</ele>
        <time>2023-04-25T12:44:06Z</time>
      </trkpt>
      <trkpt lat="49.16268" lon="-0.85478">
        <ele>69.8</ele>
        <time>2023-04-25T12:44:07Z</time>
      </trkpt>
      <trkpt lat="49.16263" lon="-0.85467">
        <ele>69.2</ele>
        <time>2023-04-25T12:44:08Z</time>
      </trkpt>
      <trkpt lat="49.1626" lon="-0.85455">
        <ele>68.6</ele>
        <time>2023-04-25T12:44:09Z</time>
      </trkpt>
      <trkpt lat="49.16259" lon="-0.85443">
        <ele>67.6</ele>
        <time>2023-04-25T12:44:10Z</time>
      </trkpt>
      <trkpt lat="49.16259" lon="-0.85429">
        <ele>66.6</ele>
        <time>2023-04-25T12:44:11Z</time>
      </trkpt>
      <trkpt lat="49.16261" lon="-0.85416">
        <ele>65.6</ele>
        <time>2023-04-25T12:44:12Z</time>
      </trkpt>
      <trkpt lat="49.16263" lon="-0.85403">
        <ele>65.6</ele>
        <time>2023-04-25T12:44:13Z</time>
      </trkpt>
      <trkpt lat="49.16265" lon="-0.8539">
        <ele>65.8</ele>
        <time>2023-04-25T12:44:14Z</time>
      </trkpt>
      <trkpt lat="49.16267" lon="-0.85377">
        <ele>65.8</ele>
        <time>2023-04-25T12:44:15Z</time>
      </trkpt>
      <trkpt lat="49.16269" lon="-0.85365">
        <ele>65.8</ele>
        <time>2023-04-25T12:44:16Z</time>
      </trkpt>
      <trkpt lat="49.1627" lon="-0.85353">
        <ele>66</ele>
        <time>2023-04-25T12:44:17Z</time>
      </trkpt>
      <trkpt lat="49.16272" lon="-0.85343">
        <ele>66</ele>
        <time>2023-04-25T12:44:18Z</time>
      </trkpt>
      <trkpt lat="49.16274" lon="-0.85333">
        <ele>66</ele>
        <time>2023-04-25T12:44:19Z</time>
      </trkpt>
      <trkpt lat="49.16277" lon="-0.85324">
        <ele>66.2</ele>
        <time>2023-04-25T12:44:20Z</time>
      </trkpt>
      <trkpt lat="49.1628" lon="-0.85316">
        <ele>66.4</ele>
        <time>2023-04-25T12:44:21Z</time>
      </trkpt>
      <trkpt lat="49.16284" lon="-0.85309">
        <ele>66.6</ele>
        <time>2023-04-25T12:44:22Z</time>
      </trkpt>
      <trkpt lat="49.16289" lon="-0.85303">
        <ele>67</ele>
        <time>2023-04-25T12:44:23Z</time>
      </trkpt>
      <trkpt lat="49.16293" lon="-0.85298">
        <ele>67</ele>
        <time>2023-04-25T12:44:24Z</time>
      </trkpt>
      <trkpt lat="49.16299" lon="-0.85294">
        <ele>67.4</ele>
        <time>2023-04-25T12:44:25Z</time>
      </trkpt>
      <trkpt lat="49.16304" lon="-0.85289">
        <ele>67.6</ele>
        <time>2023-04-25T12:44:26Z</time>
      </trkpt>
      <trkpt lat="49.16309" lon="-0.85284">
        <ele>67.8</ele>
        <time>2023-04-25T12:44:27Z</time>
      </trkpt>
      <trkpt lat="49.16313" lon="-0.85279">
        <ele>68</ele>
        <time>2023-04-25T12:44:28Z</time>
      </trkpt>
      <trkpt lat="49.16318" lon="-0.85273">
        <ele>68.6</ele>
        <time>2023-04-25T12:44:29Z</time>
      </trkpt>
      <trkpt lat="49.16322" lon="-0.85265">
        <ele>69</ele>
        <time>2023-04-25T12:44:30Z</time>
      </trkpt>
      <trkpt lat="49.16325" lon="-0.85258">
        <ele>69.4</ele>
        <time>2023-04-25T12:44:31Z</time>
      </trkpt>
      <trkpt lat="49.16327" lon="-0.8525">
        <ele>69.8</ele>
        <time>2023-04-25T12:44:32Z</time>
      </trkpt>
      <trkpt lat="49.16328" lon="-0.85241">
        <ele>70</ele>
        <time>2023-04-25T12:44:33Z</time>
      </trkpt>
      <trkpt lat="49.16329" lon="-0.85233">
        <ele>70.4</ele>
        <time>2023-04-25T12:44:34Z</time>
      </trkpt>
      <trkpt lat="49.1633" lon="-0.85225">
        <ele>70.6</ele>
        <time>2023-04-25T12:44:35Z</time>
      </trkpt>
      <trkpt lat="49.16331" lon="-0.85218">
        <ele>71</ele>
        <time>2023-04-25T12:44:36Z</time>
      </trkpt>
      <trkpt lat="49.16331" lon="-0.8521">
        <ele>71.4</ele>
        <time>2023-04-25T12:44:37Z</time>
      </trkpt>
      <trkpt lat="49.16332" lon="-0.85203">
        <ele>71.6</ele>
        <time>2023-04-25T12:44:38Z</time>
      </trkpt>
      <trkpt lat="49.16332" lon="-0.85196">
        <ele>72</ele>
        <time>2023-04-25T12:44:39Z</time>
      </trkpt>
      <trkpt lat="49.16333" lon="-0.85189">
        <ele>72.2</ele>
        <time>2023-04-25T12:44:40Z</time>
      </trkpt>
      <trkpt lat="49.16333" lon="-0.85182">
        <ele>72.6</ele>
        <time>2023-04-25T12:44:41Z</time>
      </trkpt>
      <trkpt lat="49.16334" lon="-0.85175">
        <ele>72.8</ele>
        <time>2023-04-25T12:44:42Z</time>
      </trkpt>
      <trkpt lat="49.16335" lon="-0.85168">
        <ele>73</ele>
        <time>2023-04-25T12:44:43Z</time>
      </trkpt>
      <trkpt lat="49.16336" lon="-0.85161">
        <ele>73.4</ele>
        <time>2023-04-25T12:44:44Z</time>
      </trkpt>
      <trkpt lat="49.16337" lon="-0.85154">
        <ele>73.6</ele>
        <time>2023-04-25T12:44:45Z</time>
      </trkpt>
      <trkpt lat="49.16339" lon="-0.85147">
        <ele>73.8</ele>
        <time>2023-04-25T12:44:46Z</time>
      </trkpt>
      <trkpt lat="49.1634" lon="-0.85141">
        <ele>74</ele>
        <time>2023-04-25T12:44:47Z</time>
      </trkpt>
      <trkpt lat="49.16342" lon="-0.85135">
        <ele>74.2</ele>
        <time>2023-04-25T12:44:48Z</time>
      </trkpt>
      <trkpt lat="49.16343" lon="-0.85129">
        <ele>74.4</ele>
        <time>2023-04-25T12:44:49Z</time>
      </trkpt>
      <trkpt lat="49.16345" lon="-0.85123">
        <ele>74.6</ele>
        <time>2023-04-25T12:44:50Z</time>
      </trkpt>
      <trkpt lat="49.16347" lon="-0.85117">
        <ele>74.8</ele>
        <time>2023-04-25T12:44:51Z</time>
      </trkpt>
      <trkpt lat="49.16349" lon="-0.85112">
        <ele>75</ele>
        <time>2023-04-25T12:44:52Z</time>
      </trkpt>
      <trkpt lat="49.16351" lon="-0.85107">
        <ele>75</ele>
        <time>2023-04-25T12:44:53Z</time>
      </trkpt>
      <trkpt lat="49.16353" lon="-0.85102">
        <ele>75.2</ele>
        <time>2023-04-25T12:44:54Z</time>
      </trkpt>
      <trkpt lat="49.16355" lon="-0.85096">
        <ele>75.4</ele>
        <time>2023-04-25T12:44:55Z</time>
      </trkpt>
      <trkpt lat="49.16356" lon="-0.85091">
        <ele>75.6</ele>
        <time>2023-04-25T12:44:56Z</time>
      </trkpt>
      <trkpt lat="49.16358" lon="-0.85086">
        <ele>75.6</ele>
        <time>2023-04-25T12:44:57Z</time>
      </trkpt>
      <trkpt lat="49.1636" lon="-0.85081">
        <ele>75.6</ele>
        <time>2023-04-25T12:44:58Z</time>
      </trkpt>
      <trkpt lat="49.16361" lon="-0.85076">
        <ele>75.6</ele>
        <time>2023-04-25T12:44:59Z</time>
      </trkpt>
      <trkpt lat="49.16363" lon="-0.8507">
        <ele>75.8</ele>
        <time>2023-04-25T12:45:00Z</time>
      </trkpt>
      <trkpt lat="49.16364" lon="-0.85065">
        <ele>76</ele>
        <time>2023-04-25T12:45:01Z</time>
      </trkpt>
      <trkpt lat="49.16366" lon="-0.8506">
        <ele>76</ele>
        <time>2023-04-25T12:45:02Z</time>
      </trkpt>
      <trkpt lat="49.16368" lon="-0.85055">
        <ele>76</ele>
        <time>2023-04-25T12:45:03Z</time>
      </trkpt>
      <trkpt lat="49.16369" lon="-0.85049">
        <ele>76</ele>
        <time>2023-04-25T12:45:04Z</time>
      </trkpt>
      <trkpt lat="49.16371" lon="-0.85044">
        <ele>76.2</ele>
        <time>2023-04-25T12:45:05Z</time>
      </trkpt>
      <trkpt lat="49.16372" lon="-0.85039">
        <ele>76.2</ele>
        <time>2023-04-25T12:45:06Z</time>
      </trkpt>
      <trkpt lat="49.16374" lon="-0.85034">
        <ele>76.4</ele>
        <time>2023-04-25T12:45:07Z</time>
      </trkpt>
      <trkpt lat="49.16376" lon="-0.85028">
        <ele>76.4</ele>
        <time>2023-04-25T12:45:08Z</time>
      </trkpt>
      <trkpt lat="49.16378" lon="-0.85023">
        <ele>76.4</ele>
        <time>2023-04-25T12:45:09Z</time>
      </trkpt>
      <trkpt lat="49.16379" lon="-0.85018">
        <ele>76.6</ele>
        <time>2023-04-25T12:45:10Z</time>
      </trkpt>
      <trkpt lat="49.16381" lon="-0.85013">
        <ele>76.6</ele>
        <time>2023-04-25T12:45:11Z</time>
      </trkpt>
      <trkpt lat="49.16383" lon="-0.85008">
        <ele>76.6</ele>
        <time>2023-04-25T12:45:12Z</time>
      </trkpt>
      <trkpt lat="49.16385" lon="-0.85003">
        <ele>76.6</ele>
        <time>2023-04-25T12:45:13Z</time>
      </trkpt>
      <trkpt lat="49.16387" lon="-0.84998">
        <ele>76.6</ele>
        <time>2023-04-25T12:45:14Z</time>
      </trkpt>
      <trkpt lat="49.16389" lon="-0.84992">
        <ele>76.8</ele>
        <time>2023-04-25T12:45:15Z</time>
      </trkpt>
      <trkpt lat="49.16391" lon="-0.84987">
        <ele>77</ele>
        <time>2023-04-25T12:45:16Z</time>
      </trkpt>
      <trkpt lat="49.16393" lon="-0.84982">
        <ele>77</ele>
        <time>2023-04-25T12:45:17Z</time>
      </trkpt>
      <trkpt lat="49.16395" lon="-0.84977">
        <ele>77.2</ele>
        <time>2023-04-25T12:45:18Z</time>
      </trkpt>
      <trkpt lat="49.16397" lon="-0.84972">
        <ele>77.4</ele>
        <time>2023-04-25T12:45:19Z</time>
      </trkpt>
      <trkpt lat="49.16399" lon="-0.84967">
        <ele>77.6</ele>
        <time>2023-04-25T12:45:20Z</time>
      </trkpt>
      <trkpt lat="49.16401" lon="-0.84962">
        <ele>77.6</ele>
        <time>2023-04-25T12:45:21Z</time>
      </trkpt>
      <trkpt lat="49.16403" lon="-0.84957">
        <ele>77.8</ele>
        <time>2023-04-25T12:45:22Z</time>
      </trkpt>
      <trkpt lat="49.16405" lon="-0.84952">
        <ele>78</ele>
        <time>2023-04-25T12:45:23Z</time>
      </trkpt>
      <trkpt lat="49.16408" lon="-0.84948">
        <ele>78</ele>
        <time>2023-04-25T12:45:24Z</time>
      </trkpt>
      <trkpt lat="49.1641" lon="-0.84943">
        <ele>78.2</ele>
        <time>2023-04-25T12:45:25Z</time>
      </trkpt>
      <trkpt lat="49.16412" lon="-0.84938">
        <ele>78.4</ele>
        <time>2023-04-25T12:45:26Z</time>
      </trkpt>
      <trkpt lat="49.16414" lon="-0.84933">
        <ele>78.6</ele>
        <time>2023-04-25T12:45:27Z</time>
      </trkpt>
      <trkpt lat="49.16416" lon="-0.84928">
        <ele>78.6</ele>
        <time>2023-04-25T12:45:28Z</time>
      </trkpt>
      <trkpt lat="49.16418" lon="-0.84923">
        <ele>79</ele>
        <time>2023-04-25T12:45:29Z</time>
      </trkpt>
      <trkpt lat="49.1642" lon="-0.84918">
        <ele>79</ele>
        <time>2023-04-25T12:45:30Z</time>
      </trkpt>
      <trkpt lat="49.16422" lon="-0.84913">
        <ele>79.2</ele>
        <time>2023-04-25T12:45:31Z</time>
      </trkpt>
      <trkpt lat="49.16424" lon="-0.84908">
        <ele>79.2</ele>
        <time>2023-04-25T12:45:32Z</time>
      </trkpt>
      <trkpt lat="49.16426" lon="-0.84903">
        <ele>79.4</ele>
        <time>2023-04-25T12:45:33Z</time>
      </trkpt>
      <trkpt lat="49.16428" lon="-0.84897">
        <ele>79.4</ele>
        <time>2023-04-25T12:45:34Z</time>
      </trkpt>
      <trkpt lat="49.1643" lon="-0.84892">
        <ele>79.4</ele>
        <time>2023-04-25T12:45:35Z</time>
      </trkpt>
      <trkpt lat="49.16432" lon="-0.84887">
        <ele>79.6</ele>
        <time>2023-04-25T12:45:36Z</time>
      </trkpt>
      <trkpt lat="49.16435" lon="-0.84882">
        <ele>79.6</ele>
        <time>2023-04-25T12:45:37Z</time>
      </trkpt>
      <trkpt lat="49.16437" lon="-0.84877">
        <ele>79.6</ele>
        <time>2023-04-25T12:45:38Z</time>
      </trkpt>
      <trkpt lat="49.16439" lon="-0.84872">
        <ele>79.6</ele>
        <time>2023-04-25T12:45:39Z</time>
      </trkpt>
      <trkpt lat="49.16442" lon="-0.84867">
        <ele>79.6</ele>
        <time>2023-04-25T12:45:40Z</time>
      </trkpt>
      <trkpt lat="49.16444" lon="-0.84862">
        <ele>79.8</ele>
        <time>2023-04-25T12:45:41Z</time>
      </trkpt>
      <trkpt lat="49.16447" lon="-0.84857">
        <ele>79.8</ele>
        <time>2023-04-25T12:45:42Z</time>
      </trkpt>
      <trkpt lat="49.16449" lon="-0.84852">
        <ele>80</ele>
        <time>2023-04-25T12:45:43Z</time>
      </trkpt>
      <trkpt lat="49.16452" lon="-0.84847">
        <ele>80</ele>
        <time>2023-04-25T12:45:44Z</time>
      </trkpt>
      <trkpt lat="49.16454" lon="-0.84843">
        <ele>80</ele>
        <time>2023-04-25T12:45:45Z</time>
      </trkpt>
      <trkpt lat="49.16457" lon="-0.84838">
        <ele>80</ele>
        <time>2023-04-25T12:45:46Z</time>
      </trkpt>
      <trkpt lat="49.16459" lon="-0.84833">
        <ele>80</ele>
        <time>2023-04-25T12:45:47Z</time>
      </trkpt>
      <trkpt lat="49.16462" lon="-0.84829">
        <ele>80</ele>
        <time>2023-04-25T12:45:48Z</time>
      </trkpt>
      <trkpt lat="49.16464" lon="-0.84824">
        <ele>80.4</ele>
        <time>2023-04-25T12:45:49Z</time>
      </trkpt>
      <trkpt lat="49.16467" lon="-0.8482">
        <ele>80.4</ele>
        <time>2023-04-25T12:45:50Z</time>
      </trkpt>
      <trkpt lat="49.16469" lon="-0.84815">
        <ele>80.6</ele>
        <time>2023-04-25T12:45:51Z</time>
      </trkpt>
      <trkpt lat="49.16471" lon="-0.84811">
        <ele>80.6</ele>
        <time>2023-04-25T12:45:52Z</time>
      </trkpt>
      <trkpt lat="49.16474" lon="-0.84806">
        <ele>80.8</ele>
        <time>2023-04-25T12:45:53Z</time>
      </trkpt>
      <trkpt lat="49.16476" lon="-0.84802">
        <ele>81</ele>
        <time>2023-04-25T12:45:54Z</time>
      </trkpt>
      <trkpt lat="49.16478" lon="-0.84797">
        <ele>81</ele>
        <time>2023-04-25T12:45:55Z</time>
      </trkpt>
      <trkpt lat="49.16481" lon="-0.84792">
        <ele>81.4</ele>
        <time>2023-04-25T12:45:56Z</time>
      </trkpt>
      <trkpt lat="49.16483" lon="-0.84788">
        <ele>81.6</ele>
        <time>2023-04-25T12:45:57Z</time>
      </trkpt>
      <trkpt lat="49.16485" lon="-0.84783">
        <ele>81.6</ele>
        <time>2023-04-25T12:45:58Z</time>
      </trkpt>
      <trkpt lat="49.16487" lon="-0.84778">
        <ele>81.8</ele>
        <time>2023-04-25T12:45:59Z</time>
      </trkpt>
      <trkpt lat="49.1649" lon="-0.84774">
        <ele>82</ele>
        <time>2023-04-25T12:46:00Z</time>
      </trkpt>
      <trkpt lat="49.16492" lon="-0.84769">
        <ele>82.2</ele>
        <time>2023-04-25T12:46:01Z</time>
      </trkpt>
      <trkpt lat="49.16494" lon="-0.84764">
        <ele>82.4</ele>
        <time>2023-04-25T12:46:02Z</time>
      </trkpt>
      <trkpt lat="49.16496" lon="-0.8476">
        <ele>82.6</ele>
        <time>2023-04-25T12:46:03Z</time>
      </trkpt>
      <trkpt lat="49.16498" lon="-0.84755">
        <ele>82.8</ele>
        <time>2023-04-25T12:46:04Z</time>
      </trkpt>
      <trkpt lat="49.165" lon="-0.8475">
        <ele>83</ele>
        <time>2023-04-25T12:46:05Z</time>
      </trkpt>
      <trkpt lat="49.16502" lon="-0.84746">
        <ele>83</ele>
        <time>2023-04-25T12:46:06Z</time>
      </trkpt>
      <trkpt lat="49.16503" lon="-0.84741">
        <ele>83.2</ele>
        <time>2023-04-25T12:46:07Z</time>
      </trkpt>
      <trkpt lat="49.16505" lon="-0.84737">
        <ele>83.4</ele>
        <time>2023-04-25T12:46:08Z</time>
      </trkpt>
      <trkpt lat="49.16507" lon="-0.84732">
        <ele>83.6</ele>
        <time>2023-04-25T12:46:09Z</time>
      </trkpt>
      <trkpt lat="49.16509" lon="-0.84728">
        <ele>83.6</ele>
        <time>2023-04-25T12:46:10Z</time>
      </trkpt>
      <trkpt lat="49.1651" lon="-0.84724">
        <ele>83.6</ele>
        <time>2023-04-25T12:46:11Z</time>
      </trkpt>
      <trkpt lat="49.16512" lon="-0.84719">
        <ele>83.8</ele>
        <time>2023-04-25T12:46:12Z</time>
      </trkpt>
      <trkpt lat="49.16514" lon="-0.84715">
        <ele>84</ele>
        <time>2023-04-25T12:46:13Z</time>
      </trkpt>
      <trkpt lat="49.16515" lon="-0.84711">
        <ele>84</ele>
        <time>2023-04-25T12:46:14Z</time>
      </trkpt>
      <trkpt lat="49.16517" lon="-0.84706">
        <ele>84</ele>
        <time>2023-04-25T12:46:15Z</time>
      </trkpt>
      <trkpt lat="49.16519" lon="-0.84702">
        <ele>84.2</ele>
        <time>2023-04-25T12:46:16Z</time>
      </trkpt>
      <trkpt lat="49.1652" lon="-0.84698">
        <ele>84.4</ele>
        <time>2023-04-25T12:46:17Z</time>
      </trkpt>
      <trkpt lat="49.16522" lon="-0.84694">
        <ele>84.6</ele>
        <time>2023-04-25T12:46:18Z</time>
      </trkpt>
      <trkpt lat="49.16523" lon="-0.8469">
        <ele>84.6</ele>
        <time>2023-04-25T12:46:19Z</time>
      </trkpt>
      <trkpt lat="49.16525" lon="-0.84685">
        <ele>84.6</ele>
        <time>2023-04-25T12:46:20Z</time>
      </trkpt>
      <trkpt lat="49.16527" lon="-0.84681">
        <ele>84.8</ele>
        <time>2023-04-25T12:46:21Z</time>
      </trkpt>
      <trkpt lat="49.16529" lon="-0.84677">
        <ele>85</ele>
        <time>2023-04-25T12:46:22Z</time>
      </trkpt>
      <trkpt lat="49.1653" lon="-0.84673">
        <ele>85</ele>
        <time>2023-04-25T12:46:23Z</time>
      </trkpt>
      <trkpt lat="49.16532" lon="-0.84669">
        <ele>85</ele>
        <time>2023-04-25T12:46:24Z</time>
      </trkpt>
      <trkpt lat="49.16533" lon="-0.84665">
        <ele>85.2</ele>
        <time>2023-04-25T12:46:25Z</time>
      </trkpt>
      <trkpt lat="49.16535" lon="-0.84661">
        <ele>85.4</ele>
        <time>2023-04-25T12:46:26Z</time>
      </trkpt>
      <trkpt lat="49.16537" lon="-0.84657">
        <ele>85.6</ele>
        <time>2023-04-25T12:46:27Z</time>
      </trkpt>
      <trkpt lat="49.16539" lon="-0.84653">
        <ele>85.6</ele>
        <time>2023-04-25T12:46:28Z</time>
      </trkpt>
      <trkpt lat="49.1654" lon="-0.84649">
        <ele>85.8</ele>
        <time>2023-04-25T12:46:29Z</time>
      </trkpt>
      <trkpt lat="49.16542" lon="-0.84646">
        <ele>86</ele>
        <time>2023-04-25T12:46:30Z</time>
      </trkpt>
      <trkpt lat="49.16544" lon="-0.84642">
        <ele>86</ele>
        <time>2023-04-25T12:46:31Z</time>
      </trkpt>
      <trkpt lat="49.16546" lon="-0.84638">
        <ele>86.2</ele>
        <time>2023-04-25T12:46:32Z</time>
      </trkpt>
      <trkpt lat="49.16547" lon="-0.84634">
        <ele>86.4</ele>
        <time>2023-04-25T12:46:33Z</time>
      </trkpt>
      <trkpt lat="49.16549" lon="-0.8463">
        <ele>86.6</ele>
        <time>2023-04-25T12:46:34Z</time>
      </trkpt>
      <trkpt lat="49.16551" lon="-0.84627">
        <ele>86.6</ele>
        <time>2023-04-25T12:46:35Z</time>
      </trkpt>
      <trkpt lat="49.16553" lon="-0.84623">
        <ele>86.8</ele>
        <time>2023-04-25T12:46:36Z</time>
      </trkpt>
      <trkpt lat="49.16555" lon="-0.84619">
        <ele>87</ele>
        <time>2023-04-25T12:46:37Z</time>
      </trkpt>
      <trkpt lat="49.16557" lon="-0.84615">
        <ele>87</ele>
        <time>2023-04-25T12:46:38Z</time>
      </trkpt>
      <trkpt lat="49.16559" lon="-0.84612">
        <ele>87.4</ele>
        <time>2023-04-25T12:46:39Z</time>
      </trkpt>
      <trkpt lat="49.16561" lon="-0.84608">
        <ele>87.4</ele>
        <time>2023-04-25T12:46:40Z</time>
      </trkpt>
      <trkpt lat="49.16563" lon="-0.84604">
        <ele>87.6</ele>
        <time>2023-04-25T12:46:41Z</time>
      </trkpt>
      <trkpt lat="49.16566" lon="-0.84601">
        <ele>87.8</ele>
        <time>2023-04-25T12:46:42Z</time>
      </trkpt>
      <trkpt lat="49.16568" lon="-0.84597">
        <ele>88</ele>
        <time>2023-04-25T12:46:43Z</time>
      </trkpt>
      <trkpt lat="49.1657" lon="-0.84594">
        <ele>88</ele>
        <time>2023-04-25T12:46:44Z</time>
      </trkpt>
      <trkpt lat="49.16572" lon="-0.8459">
        <ele>88.4</ele>
        <time>2023-04-25T12:46:45Z</time>
      </trkpt>
      <trkpt lat="49.16575" lon="-0.84586">
        <ele>88.6</ele>
        <time>2023-04-25T12:46:46Z</time>
      </trkpt>
      <trkpt lat="49.16577" lon="-0.84582">
        <ele>88.6</ele>
        <time>2023-04-25T12:46:47Z</time>
      </trkpt>
      <trkpt lat="49.16579" lon="-0.84579">
        <ele>89</ele>
        <time>2023-04-25T12:46:48Z</time>
      </trkpt>
      <trkpt lat="49.16582" lon="-0.84575">
        <ele>89</ele>
        <time>2023-04-25T12:46:49Z</time>
      </trkpt>
      <trkpt lat="49.16584" lon="-0.84571">
        <ele>89.2</ele>
        <time>2023-04-25T12:46:50Z</time>
      </trkpt>
      <trkpt lat="49.16586" lon="-0.84568">
        <ele>89.4</ele>
        <time>2023-04-25T12:46:51Z</time>
      </trkpt>
      <trkpt lat="49.16589" lon="-0.84564">
        <ele>89.4</ele>
        <time>2023-04-25T12:46:52Z</time>
      </trkpt>
      <trkpt lat="49.16592" lon="-0.8456">
        <ele>89.6</ele>
        <time>2023-04-25T12:46:53Z</time>
      </trkpt>
      <trkpt lat="49.16594" lon="-0.84556">
        <ele>89.6</ele>
        <time>2023-04-25T12:46:54Z</time>
      </trkpt>
      <trkpt lat="49.16597" lon="-0.84552">
        <ele>89.8</ele>
        <time>2023-04-25T12:46:55Z</time>
      </trkpt>
      <trkpt lat="49.16599" lon="-0.84549">
        <ele>90</ele>
        <time>2023-04-25T12:46:56Z</time>
      </trkpt>
      <trkpt lat="49.16602" lon="-0.84545">
        <ele>90</ele>
        <time>2023-04-25T12:46:57Z</time>
      </trkpt>
      <trkpt lat="49.16604" lon="-0.84541">
        <ele>90.4</ele>
        <time>2023-04-25T12:46:58Z</time>
      </trkpt>
      <trkpt lat="49.16607" lon="-0.84537">
        <ele>90.4</ele>
        <time>2023-04-25T12:46:59Z</time>
      </trkpt>
      <trkpt lat="49.16609" lon="-0.84533">
        <ele>90.6</ele>
        <time>2023-04-25T12:47:00Z</time>
      </trkpt>
      <trkpt lat="49.16612" lon="-0.8453">
        <ele>90.6</ele>
        <time>2023-04-25T12:47:01Z</time>
      </trkpt>
      <trkpt lat="49.16614" lon="-0.84526">
        <ele>90.8</ele>
        <time>2023-04-25T12:47:02Z</time>
      </trkpt>
      <trkpt lat="49.16616" lon="-0.84522">
        <ele>91</ele>
        <time>2023-04-25T12:47:03Z</time>
      </trkpt>
      <trkpt lat="49.16619" lon="-0.84519">
        <ele>91</ele>
        <time>2023-04-25T12:47:04Z</time>
      </trkpt>
      <trkpt lat="49.16621" lon="-0.84515">
        <ele>91.2</ele>
        <time>2023-04-25T12:47:05Z</time>
      </trkpt>
      <trkpt lat="49.16624" lon="-0.84511">
        <ele>91.4</ele>
        <time>2023-04-25T12:47:06Z</time>
      </trkpt>
      <trkpt lat="49.16626" lon="-0.84508">
        <ele>91.4</ele>
        <time>2023-04-25T12:47:07Z</time>
      </trkpt>
      <trkpt lat="49.16628" lon="-0.84504">
        <ele>91.6</ele>
        <time>2023-04-25T12:47:08Z</time>
      </trkpt>
      <trkpt lat="49.16631" lon="-0.845">
        <ele>91.6</ele>
        <time>2023-04-25T12:47:09Z</time>
      </trkpt>
      <trkpt lat="49.16633" lon="-0.84497">
        <ele>91.8</ele>
        <time>2023-04-25T12:47:10Z</time>
      </trkpt>
      <trkpt lat="49.16636" lon="-0.84493">
        <ele>92</ele>
        <time>2023-04-25T12:47:11Z</time>
      </trkpt>
      <trkpt lat="49.16638" lon="-0.8449">
        <ele>92</ele>
        <time>2023-04-25T12:47:12Z</time>
      </trkpt>
      <trkpt lat="49.16641" lon="-0.84486">
        <ele>92</ele>
        <time>2023-04-25T12:47:13Z</time>
      </trkpt>
      <trkpt lat="49.16643" lon="-0.84482">
        <ele>92.2</ele>
        <time>2023-04-25T12:47:14Z</time>
      </trkpt>
      <trkpt lat="49.16645" lon="-0.84479">
        <ele>92.4</ele>
        <time>2023-04-25T12:47:15Z</time>
      </trkpt>
      <trkpt lat="49.16648" lon="-0.84475">
        <ele>92.4</ele>
        <time>2023-04-25T12:47:16Z</time>
      </trkpt>
      <trkpt lat="49.1665" lon="-0.84472">
        <ele>92.6</ele>
        <time>2023-04-25T12:47:17Z</time>
      </trkpt>
      <trkpt lat="49.16653" lon="-0.84468">
        <ele>92.6</ele>
        <time>2023-04-25T12:47:18Z</time>
      </trkpt>
      <trkpt lat="49.16655" lon="-0.84464">
        <ele>92.6</ele>
        <time>2023-04-25T12:47:19Z</time>
      </trkpt>
      <trkpt lat="49.16657" lon="-0.84461">
        <ele>92.6</ele>
        <time>2023-04-25T12:47:20Z</time>
      </trkpt>
      <trkpt lat="49.1666" lon="-0.84457">
        <ele>92.8</ele>
        <time>2023-04-25T12:47:21Z</time>
      </trkpt>
      <trkpt lat="49.16662" lon="-0.84454">
        <ele>93</ele>
        <time>2023-04-25T12:47:22Z</time>
      </trkpt>
      <trkpt lat="49.16665" lon="-0.8445">
        <ele>93</ele>
        <time>2023-04-25T12:47:23Z</time>
      </trkpt>
      <trkpt lat="49.16667" lon="-0.84447">
        <ele>93</ele>
        <time>2023-04-25T12:47:24Z</time>
      </trkpt>
      <trkpt lat="49.1667" lon="-0.84443">
        <ele>93</ele>
        <time>2023-04-25T12:47:25Z</time>
      </trkpt>
      <trkpt lat="49.16672" lon="-0.84439">
        <ele>93.4</ele>
        <time>2023-04-25T12:47:26Z</time>
      </trkpt>
      <trkpt lat="49.16675" lon="-0.84435">
        <ele>93.4</ele>
        <time>2023-04-25T12:47:27Z</time>
      </trkpt>
      <trkpt lat="49.16678" lon="-0.84431">
        <ele>93.6</ele>
        <time>2023-04-25T12:47:28Z</time>
      </trkpt>
      <trkpt lat="49.1668" lon="-0.84427">
        <ele>93.6</ele>
        <time>2023-04-25T12:47:29Z</time>
      </trkpt>
      <trkpt lat="49.16683" lon="-0.84424">
        <ele>93.8</ele>
        <time>2023-04-25T12:47:30Z</time>
      </trkpt>
      <trkpt lat="49.16686" lon="-0.8442">
        <ele>94</ele>
        <time>2023-04-25T12:47:31Z</time>
      </trkpt>
      <trkpt lat="49.16689" lon="-0.84415">
        <ele>94</ele>
        <time>2023-04-25T12:47:32Z</time>
      </trkpt>
      <trkpt lat="49.16691" lon="-0.84411">
        <ele>94.2</ele>
        <time>2023-04-25T12:47:33Z</time>
      </trkpt>
      <trkpt lat="49.16694" lon="-0.84407">
        <ele>94.4</ele>
        <time>2023-04-25T12:47:34Z</time>
      </trkpt>
      <trkpt lat="49.16697" lon="-0.84403">
        <ele>94.4</ele>
        <time>2023-04-25T12:47:35Z</time>
      </trkpt>
      <trkpt lat="49.16699" lon="-0.84398">
        <ele>94.6</ele>
        <time>2023-04-25T12:47:36Z</time>
      </trkpt>
      <trkpt lat="49.16702" lon="-0.84394">
        <ele>94.6</ele>
        <time>2023-04-25T12:47:37Z</time>
      </trkpt>
      <trkpt lat="49.16704" lon="-0.84389">
        <ele>94.8</ele>
        <time>2023-04-25T12:47:38Z</time>
      </trkpt>
      <trkpt lat="49.16707" lon="-0.84385">
        <ele>95</ele>
        <time>2023-04-25T12:47:39Z</time>
      </trkpt>
      <trkpt lat="49.16709" lon="-0.8438">
        <ele>95</ele>
        <time>2023-04-25T12:47:40Z</time>
      </trkpt>
      <trkpt lat="49.16711" lon="-0.84375">
        <ele>95</ele>
        <time>2023-04-25T12:47:41Z</time>
      </trkpt>
      <trkpt lat="49.16713" lon="-0.8437">
        <ele>95.2</ele>
        <time>2023-04-25T12:47:42Z</time>
      </trkpt>
      <trkpt lat="49.16715" lon="-0.84365">
        <ele>95.4</ele>
        <time>2023-04-25T12:47:43Z</time>
      </trkpt>
      <trkpt lat="49.16717" lon="-0.84359">
        <ele>95.4</ele>
        <time>2023-04-25T12:47:44Z</time>
      </trkpt>
      <trkpt lat="49.16719" lon="-0.84354">
        <ele>95.6</ele>
        <time>2023-04-25T12:47:45Z</time>
      </trkpt>
      <trkpt lat="49.16721" lon="-0.84349">
        <ele>95.6</ele>
        <time>2023-04-25T12:47:46Z</time>
      </trkpt>
      <trkpt lat="49.16723" lon="-0.84344">
        <ele>95.6</ele>
        <time>2023-04-25T12:47:47Z</time>
      </trkpt>
      <trkpt lat="49.16725" lon="-0.84339">
        <ele>95.8</ele>
        <time>2023-04-25T12:47:48Z</time>
      </trkpt>
      <trkpt lat="49.16727" lon="-0.84333">
        <ele>96</ele>
        <time>2023-04-25T12:47:49Z</time>
      </trkpt>
      <trkpt lat="49.16729" lon="-0.84328">
        <ele>96</ele>
        <time>2023-04-25T12:47:50Z</time>
      </trkpt>
      <trkpt lat="49.1673" lon="-0.84323">
        <ele>96</ele>
        <time>2023-04-25T12:47:51Z</time>
      </trkpt>
      <trkpt lat="49.16732" lon="-0.84317">
        <ele>96</ele>
        <time>2023-04-25T12:47:52Z</time>
      </trkpt>
      <trkpt lat="49.16734" lon="-0.84312">
        <ele>96</ele>
        <time>2023-04-25T12:47:53Z</time>
      </trkpt>
      <trkpt lat="49.16736" lon="-0.84307">
        <ele>96</ele>
        <time>2023-04-25T12:47:54Z</time>
      </trkpt>
      <trkpt lat="49.16738" lon="-0.84301">
        <ele>96.2</ele>
        <time>2023-04-25T12:47:55Z</time>
      </trkpt>
      <trkpt lat="49.1674" lon="-0.84296">
        <ele>96.2</ele>
        <time>2023-04-25T12:47:56Z</time>
      </trkpt>
      <trkpt lat="49.16742" lon="-0.8429">
        <ele>96.2</ele>
        <time>2023-04-25T12:47:57Z</time>
      </trkpt>
      <trkpt lat="49.16744" lon="-0.84284">
        <ele>96.2</ele>
        <time>2023-04-25T12:47:58Z</time>
      </trkpt>
      <trkpt lat="49.16746" lon="-0.84279">
        <ele>96.2</ele>
        <time>2023-04-25T12:47:59Z</time>
      </trkpt>
      <trkpt lat="49.16748" lon="-0.84273">
        <ele>96.2</ele>
        <time>2023-04-25T12:48:00Z</time>
      </trkpt>
      <trkpt lat="49.1675" lon="-0.84268">
        <ele>96.2</ele>
        <time>2023-04-25T12:48:01Z</time>
      </trkpt>
      <trkpt lat="49.16752" lon="-0.84262">
        <ele>96.2</ele>
        <time>2023-04-25T12:48:02Z</time>
      </trkpt>
      <trkpt lat="49.16755" lon="-0.84257">
        <ele>96.4</ele>
        <time>2023-04-25T12:48:03Z</time>
      </trkpt>
      <trkpt lat="49.16756" lon="-0.84251">
        <ele>96.4</ele>
        <time>2023-04-25T12:48:04Z</time>
      </trkpt>
      <trkpt lat="49.16759" lon="-0.84246">
        <ele>96.6</ele>
        <time>2023-04-25T12:48:05Z</time>
      </trkpt>
      <trkpt lat="49.16761" lon="-0.8424">
        <ele>96.6</ele>
        <time>2023-04-25T12:48:06Z</time>
      </trkpt>
      <trkpt lat="49.16763" lon="-0.84234">
        <ele>96.8</ele>
        <time>2023-04-25T12:48:07Z</time>
      </trkpt>
      <trkpt lat="49.16765" lon="-0.84229">
        <ele>97</ele>
        <time>2023-04-25T12:48:08Z</time>
      </trkpt>
      <trkpt lat="49.16766" lon="-0.84223">
        <ele>97.2</ele>
        <time>2023-04-25T12:48:09Z</time>
      </trkpt>
      <trkpt lat="49.16768" lon="-0.84218">
        <ele>97.4</ele>
        <time>2023-04-25T12:48:10Z</time>
      </trkpt>
      <trkpt lat="49.1677" lon="-0.84212">
        <ele>97.6</ele>
        <time>2023-04-25T12:48:11Z</time>
      </trkpt>
      <trkpt lat="49.16772" lon="-0.84207">
        <ele>97.6</ele>
        <time>2023-04-25T12:48:12Z</time>
      </trkpt>
      <trkpt lat="49.16774" lon="-0.84201">
        <ele>98</ele>
        <time>2023-04-25T12:48:13Z</time>
      </trkpt>
      <trkpt lat="49.16775" lon="-0.84196">
        <ele>98</ele>
        <time>2023-04-25T12:48:14Z</time>
      </trkpt>
      <trkpt lat="49.16777" lon="-0.8419">
        <ele>98.2</ele>
        <time>2023-04-25T12:48:15Z</time>
      </trkpt>
      <trkpt lat="49.16778" lon="-0.84185">
        <ele>98.4</ele>
        <time>2023-04-25T12:48:16Z</time>
      </trkpt>
      <trkpt lat="49.1678" lon="-0.84179">
        <ele>98.6</ele>
        <time>2023-04-25T12:48:17Z</time>
      </trkpt>
      <trkpt lat="49.16781" lon="-0.84174">
        <ele>98.8</ele>
        <time>2023-04-25T12:48:18Z</time>
      </trkpt>
      <trkpt lat="49.16783" lon="-0.84169">
        <ele>99</ele>
        <time>2023-04-25T12:48:19Z</time>
      </trkpt>
      <trkpt lat="49.16784" lon="-0.84164">
        <ele>99</ele>
        <time>2023-04-25T12:48:20Z</time>
      </trkpt>
      <trkpt lat="49.16786" lon="-0.84159">
        <ele>99.4</ele>
        <time>2023-04-25T12:48:21Z</time>
      </trkpt>
      <trkpt lat="49.16787" lon="-0.84154">
        <ele>99.6</ele>
        <time>2023-04-25T12:48:22Z</time>
      </trkpt>
      <trkpt lat="49.16788" lon="-0.84149">
        <ele>99.6</ele>
        <time>2023-04-25T12:48:23Z</time>
      </trkpt>
      <trkpt lat="49.1679" lon="-0.84144">
        <ele>99.8</ele>
        <time>2023-04-25T12:48:24Z</time>
      </trkpt>
      <trkpt lat="49.16791" lon="-0.84139">
        <ele>100</ele>
        <time>2023-04-25T12:48:25Z</time>
      </trkpt>
      <trkpt lat="49.16792" lon="-0.84135">
        <ele>100</ele>
        <time>2023-04-25T12:48:26Z</time>
      </trkpt>
      <trkpt lat="49.16793" lon="-0.8413">
        <ele>100.4</ele>
        <time>2023-04-25T12:48:27Z</time>
      </trkpt>
      <trkpt lat="49.16795" lon="-0.84125">
        <ele>100.4</ele>
        <time>2023-04-25T12:48:28Z</time>
      </trkpt>
      <trkpt lat="49.16796" lon="-0.8412">
        <ele>100.6</ele>
        <time>2023-04-25T12:48:29Z</time>
      </trkpt>
      <trkpt lat="49.16797" lon="-0.84115">
        <ele>100.6</ele>
        <time>2023-04-25T12:48:30Z</time>
      </trkpt>
      <trkpt lat="49.16798" lon="-0.84111">
        <ele>100.8</ele>
        <time>2023-04-25T12:48:31Z</time>
      </trkpt>
      <trkpt lat="49.16799" lon="-0.84106">
        <ele>101</ele>
        <time>2023-04-25T12:48:32Z</time>
      </trkpt>
      <trkpt lat="49.168" lon="-0.84101">
        <ele>101</ele>
        <time>2023-04-25T12:48:33Z</time>
      </trkpt>
      <trkpt lat="49.16801" lon="-0.84096">
        <ele>101.2</ele>
        <time>2023-04-25T12:48:34Z</time>
      </trkpt>
      <trkpt lat="49.16802" lon="-0.84091">
        <ele>101.4</ele>
        <time>2023-04-25T12:48:35Z</time>
      </trkpt>
      <trkpt lat="49.16803" lon="-0.84086">
        <ele>101.6</ele>
        <time>2023-04-25T12:48:36Z</time>
      </trkpt>
      <trkpt lat="49.16805" lon="-0.84081">
        <ele>101.6</ele>
        <time>2023-04-25T12:48:37Z</time>
      </trkpt>
      <trkpt lat="49.16806" lon="-0.84076">
        <ele>101.6</ele>
        <time>2023-04-25T12:48:38Z</time>
      </trkpt>
      <trkpt lat="49.16807" lon="-0.84071">
        <ele>101.6</ele>
        <time>2023-04-25T12:48:39Z</time>
      </trkpt>
      <trkpt lat="49.16808" lon="-0.84065">
        <ele>101.6</ele>
        <time>2023-04-25T12:48:40Z</time>
      </trkpt>
      <trkpt lat="49.16809" lon="-0.8406">
        <ele>101.6</ele>
        <time>2023-04-25T12:48:41Z</time>
      </trkpt>
      <trkpt lat="49.1681" lon="-0.84054">
        <ele>101.6</ele>
        <time>2023-04-25T12:48:42Z</time>
      </trkpt>
      <trkpt lat="49.16812" lon="-0.84049">
        <ele>101.8</ele>
        <time>2023-04-25T12:48:43Z</time>
      </trkpt>
      <trkpt lat="49.16813" lon="-0.84043">
        <ele>101.8</ele>
        <time>2023-04-25T12:48:44Z</time>
      </trkpt>
      <trkpt lat="49.16814" lon="-0.84037">
        <ele>101.8</ele>
        <time>2023-04-25T12:48:45Z</time>
      </trkpt>
      <trkpt lat="49.16815" lon="-0.84032">
        <ele>101.8</ele>
        <time>2023-04-25T12:48:46Z</time>
      </trkpt>
      <trkpt lat="49.16817" lon="-0.84026">
        <ele>101.8</ele>
        <time>2023-04-25T12:48:47Z</time>
      </trkpt>
      <trkpt lat="49.16818" lon="-0.8402">
        <ele>101.8</ele>
        <time>2023-04-25T12:48:48Z</time>
      </trkpt>
      <trkpt lat="49.16819" lon="-0.84015">
        <ele>101.8</ele>
        <time>2023-04-25T12:48:49Z</time>
      </trkpt>
      <trkpt lat="49.16821" lon="-0.84009">
        <ele>101.8</ele>
        <time>2023-04-25T12:48:50Z</time>
      </trkpt>
      <trkpt lat="49.16822" lon="-0.84004">
        <ele>101.8</ele>
        <time>2023-04-25T12:48:51Z</time>
      </trkpt>
      <trkpt lat="49.16824" lon="-0.83998">
        <ele>101.8</ele>
        <time>2023-04-25T12:48:52Z</time>
      </trkpt>
      <trkpt lat="49.16825" lon="-0.83993">
        <ele>102</ele>
        <time>2023-04-25T12:48:53Z</time>
      </trkpt>
      <trkpt lat="49.16827" lon="-0.83987">
        <ele>102</ele>
        <time>2023-04-25T12:48:54Z</time>
      </trkpt>
      <trkpt lat="49.16828" lon="-0.83982">
        <ele>102.4</ele>
        <time>2023-04-25T12:48:55Z</time>
      </trkpt>
      <trkpt lat="49.1683" lon="-0.83976">
        <ele>102.6</ele>
        <time>2023-04-25T12:48:56Z</time>
      </trkpt>
      <trkpt lat="49.16831" lon="-0.83971">
        <ele>102.6</ele>
        <time>2023-04-25T12:48:57Z</time>
      </trkpt>
      <trkpt lat="49.16833" lon="-0.83966">
        <ele>102.8</ele>
        <time>2023-04-25T12:48:58Z</time>
      </trkpt>
      <trkpt lat="49.16835" lon="-0.8396">
        <ele>103</ele>
        <time>2023-04-25T12:48:59Z</time>
      </trkpt>
      <trkpt lat="49.16837" lon="-0.83955">
        <ele>103</ele>
        <time>2023-04-25T12:49:00Z</time>
      </trkpt>
      <trkpt lat="49.16839" lon="-0.8395">
        <ele>103.2</ele>
        <time>2023-04-25T12:49:01Z</time>
      </trkpt>
      <trkpt lat="49.16841" lon="-0.83944">
        <ele>103.4</ele>
        <time>2023-04-25T12:49:02Z</time>
      </trkpt>
      <trkpt lat="49.16843" lon="-0.83939">
        <ele>103.6</ele>
        <time>2023-04-25T12:49:03Z</time>
      </trkpt>
      <trkpt lat="49.16845" lon="-0.83934">
        <ele>103.6</ele>
        <time>2023-04-25T12:49:04Z</time>
      </trkpt>
      <trkpt lat="49.16847" lon="-0.83928">
        <ele>103.6</ele>
        <time>2023-04-25T12:49:05Z</time>
      </trkpt>
      <trkpt lat="49.16849" lon="-0.83923">
        <ele>103.8</ele>
        <time>2023-04-25T12:49:06Z</time>
      </trkpt>
      <trkpt lat="49.16851" lon="-0.83918">
        <ele>104</ele>
        <time>2023-04-25T12:49:07Z</time>
      </trkpt>
      <trkpt lat="49.16854" lon="-0.83913">
        <ele>104</ele>
        <time>2023-04-25T12:49:08Z</time>
      </trkpt>
      <trkpt lat="49.16856" lon="-0.83907">
        <ele>104</ele>
        <time>2023-04-25T12:49:09Z</time>
      </trkpt>
      <trkpt lat="49.16858" lon="-0.83902">
        <ele>104.2</ele>
        <time>2023-04-25T12:49:10Z</time>
      </trkpt>
      <trkpt lat="49.16861" lon="-0.83897">
        <ele>104.2</ele>
        <time>2023-04-25T12:49:11Z</time>
      </trkpt>
      <trkpt lat="49.16863" lon="-0.83892">
        <ele>104.4</ele>
        <time>2023-04-25T12:49:12Z</time>
      </trkpt>
      <trkpt lat="49.16865" lon="-0.83886">
        <ele>104.4</ele>
        <time>2023-04-25T12:49:13Z</time>
      </trkpt>
      <trkpt lat="49.16868" lon="-0.83881">
        <ele>104.4</ele>
        <time>2023-04-25T12:49:14Z</time>
      </trkpt>
      <trkpt lat="49.1687" lon="-0.83876">
        <ele>104.6</ele>
        <time>2023-04-25T12:49:15Z</time>
      </trkpt>
      <trkpt lat="49.16873" lon="-0.8387">
        <ele>104.6</ele>
        <time>2023-04-25T12:49:16Z</time>
      </trkpt>
      <trkpt lat="49.16875" lon="-0.83865">
        <ele>104.6</ele>
        <time>2023-04-25T12:49:17Z</time>
      </trkpt>
      <trkpt lat="49.16878" lon="-0.8386">
        <ele>104.6</ele>
        <time>2023-04-25T12:49:18Z</time>
      </trkpt>
      <trkpt lat="49.1688" lon="-0.83854">
        <ele>104.6</ele>
        <time>2023-04-25T12:49:19Z</time>
      </trkpt>
      <trkpt lat="49.16883" lon="-0.83849">
        <ele>104.8</ele>
        <time>2023-04-25T12:49:20Z</time>
      </trkpt>
      <trkpt lat="49.16886" lon="-0.83844">
        <ele>105</ele>
        <time>2023-04-25T12:49:21Z</time>
      </trkpt>
      <trkpt lat="49.16888" lon="-0.83838">
        <ele>105</ele>
        <time>2023-04-25T12:49:22Z</time>
      </trkpt>
      <trkpt lat="49.16891" lon="-0.83833">
        <ele>105</ele>
        <time>2023-04-25T12:49:23Z</time>
      </trkpt>
      <trkpt lat="49.16894" lon="-0.83828">
        <ele>105</ele>
        <time>2023-04-25T12:49:24Z</time>
      </trkpt>
      <trkpt lat="49.16897" lon="-0.83822">
        <ele>105.2</ele>
        <time>2023-04-25T12:49:25Z</time>
      </trkpt>
      <trkpt lat="49.16899" lon="-0.83817">
        <ele>105.2</ele>
        <time>2023-04-25T12:49:26Z</time>
      </trkpt>
      <trkpt lat="49.16902" lon="-0.83812">
        <ele>105.4</ele>
        <time>2023-04-25T12:49:27Z</time>
      </trkpt>
      <trkpt lat="49.16905" lon="-0.83807">
        <ele>105.4</ele>
        <time>2023-04-25T12:49:28Z</time>
      </trkpt>
      <trkpt lat="49.16907" lon="-0.83802">
        <ele>105.4</ele>
        <time>2023-04-25T12:49:29Z</time>
      </trkpt>
      <trkpt lat="49.1691" lon="-0.83797">
        <ele>105.6</ele>
        <time>2023-04-25T12:49:30Z</time>
      </trkpt>
      <trkpt lat="49.16912" lon="-0.83792">
        <ele>105.6</ele>
        <time>2023-04-25T12:49:31Z</time>
      </trkpt>
      <trkpt lat="49.16915" lon="-0.83787">
        <ele>105.6</ele>
        <time>2023-04-25T12:49:32Z</time>
      </trkpt>
      <trkpt lat="49.16918" lon="-0.83782">
        <ele>105.6</ele>
        <time>2023-04-25T12:49:33Z</time>
      </trkpt>
      <trkpt lat="49.1692" lon="-0.83777">
        <ele>105.6</ele>
        <time>2023-04-25T12:49:34Z</time>
      </trkpt>
      <trkpt lat="49.16923" lon="-0.83772">
        <ele>105.6</ele>
        <time>2023-04-25T12:49:35Z</time>
      </trkpt>
      <trkpt lat="49.16926" lon="-0.83768">
        <ele>105.6</ele>
        <time>2023-04-25T12:49:36Z</time>
      </trkpt>
      <trkpt lat="49.16929" lon="-0.83763">
        <ele>105.6</ele>
        <time>2023-04-25T12:49:37Z</time>
      </trkpt>
      <trkpt lat="49.16931" lon="-0.83758">
        <ele>105.6</ele>
        <time>2023-04-25T12:49:38Z</time>
      </trkpt>
      <trkpt lat="49.16934" lon="-0.83754">
        <ele>105.8</ele>
        <time>2023-04-25T12:49:39Z</time>
      </trkpt>
      <trkpt lat="49.16937" lon="-0.83749">
        <ele>105.8</ele>
        <time>2023-04-25T12:49:40Z</time>
      </trkpt>
      <trkpt lat="49.16941" lon="-0.83745">
        <ele>105.8</ele>
        <time>2023-04-25T12:49:41Z</time>
      </trkpt>
      <trkpt lat="49.16944" lon="-0.83741">
        <ele>106</ele>
        <time>2023-04-25T12:49:42Z</time>
      </trkpt>
      <trkpt lat="49.16947" lon="-0.83736">
        <ele>106</ele>
        <time>2023-04-25T12:49:43Z</time>
      </trkpt>
      <trkpt lat="49.16951" lon="-0.83732">
        <ele>106</ele>
        <time>2023-04-25T12:49:44Z</time>
      </trkpt>
      <trkpt lat="49.16954" lon="-0.83728">
        <ele>106</ele>
        <time>2023-04-25T12:49:45Z</time>
      </trkpt>
      <trkpt lat="49.16957" lon="-0.83724">
        <ele>106</ele>
        <time>2023-04-25T12:49:46Z</time>
      </trkpt>
      <trkpt lat="49.1696" lon="-0.8372">
        <ele>106.2</ele>
        <time>2023-04-25T12:49:47Z</time>
      </trkpt>
      <trkpt lat="49.16964" lon="-0.83716">
        <ele>106.4</ele>
        <time>2023-04-25T12:49:48Z</time>
      </trkpt>
      <trkpt lat="49.16967" lon="-0.83711">
        <ele>106.4</ele>
        <time>2023-04-25T12:49:49Z</time>
      </trkpt>
      <trkpt lat="49.1697" lon="-0.83707">
        <ele>106.4</ele>
        <time>2023-04-25T12:49:50Z</time>
      </trkpt>
      <trkpt lat="49.16974" lon="-0.83702">
        <ele>106.6</ele>
        <time>2023-04-25T12:49:51Z</time>
      </trkpt>
      <trkpt lat="49.16977" lon="-0.83697">
        <ele>106.6</ele>
        <time>2023-04-25T12:49:52Z</time>
      </trkpt>
      <trkpt lat="49.1698" lon="-0.83693">
        <ele>106.6</ele>
        <time>2023-04-25T12:49:53Z</time>
      </trkpt>
      <trkpt lat="49.16984" lon="-0.83688">
        <ele>106.6</ele>
        <time>2023-04-25T12:49:54Z</time>
      </trkpt>
      <trkpt lat="49.16987" lon="-0.83683">
        <ele>106.8</ele>
        <time>2023-04-25T12:49:55Z</time>
      </trkpt>
      <trkpt lat="49.1699" lon="-0.83679">
        <ele>106.8</ele>
        <time>2023-04-25T12:49:56Z</time>
      </trkpt>
      <trkpt lat="49.16994" lon="-0.83675">
        <ele>107</ele>
        <time>2023-04-25T12:49:57Z</time>
      </trkpt>
      <trkpt lat="49.16997" lon="-0.8367">
        <ele>107</ele>
        <time>2023-04-25T12:49:58Z</time>
      </trkpt>
      <trkpt lat="49.17" lon="-0.83666">
        <ele>107</ele>
        <time>2023-04-25T12:49:59Z</time>
      </trkpt>
      <trkpt lat="49.17003" lon="-0.83662">
        <ele>107</ele>
        <time>2023-04-25T12:50:00Z</time>
      </trkpt>
      <trkpt lat="49.17007" lon="-0.83657">
        <ele>107</ele>
        <time>2023-04-25T12:50:01Z</time>
      </trkpt>
      <trkpt lat="49.1701" lon="-0.83653">
        <ele>107</ele>
        <time>2023-04-25T12:50:02Z</time>
      </trkpt>
      <trkpt lat="49.17013" lon="-0.83649">
        <ele>107</ele>
        <time>2023-04-25T12:50:03Z</time>
      </trkpt>
      <trkpt lat="49.17016" lon="-0.83644">
        <ele>107.2</ele>
        <time>2023-04-25T12:50:04Z</time>
      </trkpt>
      <trkpt lat="49.17019" lon="-0.8364">
        <ele>107.2</ele>
        <time>2023-04-25T12:50:05Z</time>
      </trkpt>
      <trkpt lat="49.17022" lon="-0.83635">
        <ele>107.2</ele>
        <time>2023-04-25T12:50:06Z</time>
      </trkpt>
      <trkpt lat="49.17025" lon="-0.83631">
        <ele>107.4</ele>
        <time>2023-04-25T12:50:07Z</time>
      </trkpt>
      <trkpt lat="49.17028" lon="-0.83626">
        <ele>107.4</ele>
        <time>2023-04-25T12:50:08Z</time>
      </trkpt>
      <trkpt lat="49.17031" lon="-0.83621">
        <ele>107.4</ele>
        <time>2023-04-25T12:50:09Z</time>
      </trkpt>
      <trkpt lat="49.17034" lon="-0.83616">
        <ele>107.4</ele>
        <time>2023-04-25T12:50:10Z</time>
      </trkpt>
      <trkpt lat="49.17036" lon="-0.83612">
        <ele>107.6</ele>
        <time>2023-04-25T12:50:11Z</time>
      </trkpt>
      <trkpt lat="49.17038" lon="-0.83607">
        <ele>107.6</ele>
        <time>2023-04-25T12:50:12Z</time>
      </trkpt>
      <trkpt lat="49.1704" lon="-0.83602">
        <ele>107.6</ele>
        <time>2023-04-25T12:50:13Z</time>
      </trkpt>
      <trkpt lat="49.17042" lon="-0.83598">
        <ele>107.6</ele>
        <time>2023-04-25T12:50:14Z</time>
      </trkpt>
      <trkpt lat="49.17044" lon="-0.83594">
        <ele>107.6</ele>
        <time>2023-04-25T12:50:15Z</time>
      </trkpt>
      <trkpt lat="49.17045" lon="-0.8359">
        <ele>107.8</ele>
        <time>2023-04-25T12:50:16Z</time>
      </trkpt>
      <trkpt lat="49.17046" lon="-0.83586">
        <ele>107.8</ele>
        <time>2023-04-25T12:50:17Z</time>
      </trkpt>
      <trkpt lat="49.17047" lon="-0.83584">
        <ele>108</ele>
        <time>2023-04-25T12:50:18Z</time>
      </trkpt>
      <trkpt lat="49.17048" lon="-0.83581">
        <ele>108</ele>
        <time>2023-04-25T12:50:19Z</time>
      </trkpt>
      <trkpt lat="49.17049" lon="-0.8358">
        <ele>108</ele>
        <time>2023-04-25T12:50:20Z</time>
      </trkpt>
      <trkpt lat="49.17052" lon="-0.83579">
        <ele>107.8</ele>
        <time>2023-04-25T12:50:21Z</time>
      </trkpt>
      <trkpt lat="49.17055" lon="-0.83578">
        <ele>107.8</ele>
        <time>2023-04-25T12:50:22Z</time>
      </trkpt>
      <trkpt lat="49.17057" lon="-0.8358">
        <ele>107.6</ele>
        <time>2023-04-25T12:50:23Z</time>
      </trkpt>
      <trkpt lat="49.17058" lon="-0.83582">
        <ele>107.6</ele>
        <time>2023-04-25T12:50:24Z</time>
      </trkpt>
      <trkpt lat="49.17058" lon="-0.83585">
        <ele>107.6</ele>
        <time>2023-04-25T12:50:25Z</time>
      </trkpt>
      <trkpt lat="49.17056" lon="-0.83585">
        <ele>107.6</ele>
        <time>2023-04-25T12:50:26Z</time>
      </trkpt>
      <trkpt lat="49.17054" lon="-0.83583">
        <ele>107.6</ele>
        <time>2023-04-25T12:50:27Z</time>
      </trkpt>
      <trkpt lat="49.17053" lon="-0.8358">
        <ele>107.8</ele>
        <time>2023-04-25T12:50:28Z</time>
      </trkpt>
      <trkpt lat="49.1705" lon="-0.83577">
        <ele>108</ele>
        <time>2023-04-25T12:50:29Z</time>
      </trkpt>
      <trkpt lat="49.17046" lon="-0.83576">
        <ele>108</ele>
        <time>2023-04-25T12:50:30Z</time>
      </trkpt>
      <trkpt lat="49.17042" lon="-0.83575">
        <ele>108.2</ele>
        <time>2023-04-25T12:50:31Z</time>
      </trkpt>
      <trkpt lat="49.17037" lon="-0.83573">
        <ele>108.4</ele>
        <time>2023-04-25T12:50:32Z</time>
      </trkpt>
      <trkpt lat="49.17033" lon="-0.83572">
        <ele>108.4</ele>
        <time>2023-04-25T12:50:33Z</time>
      </trkpt>
      <trkpt lat="49.17028" lon="-0.8357">
        <ele>108.6</ele>
        <time>2023-04-25T12:50:34Z</time>
      </trkpt>
      <trkpt lat="49.17024" lon="-0.83568">
        <ele>108.6</ele>
        <time>2023-04-25T12:50:35Z</time>
      </trkpt>
      <trkpt lat="49.1702" lon="-0.83567">
        <ele>108.8</ele>
        <time>2023-04-25T12:50:36Z</time>
      </trkpt>
      <trkpt lat="49.17015" lon="-0.83565">
        <ele>109</ele>
        <time>2023-04-25T12:50:37Z</time>
      </trkpt>
      <trkpt lat="49.17011" lon="-0.83563">
        <ele>109</ele>
        <time>2023-04-25T12:50:38Z</time>
      </trkpt>
      <trkpt lat="49.17006" lon="-0.83562">
        <ele>109</ele>
        <time>2023-04-25T12:50:39Z</time>
      </trkpt>
      <trkpt lat="49.17002" lon="-0.83561">
        <ele>109.2</ele>
        <time>2023-04-25T12:50:40Z</time>
      </trkpt>
      <trkpt lat="49.16997" lon="-0.8356">
        <ele>109.4</ele>
        <time>2023-04-25T12:50:41Z</time>
      </trkpt>
      <trkpt lat="49.16993" lon="-0.83558">
        <ele>109.4</ele>
        <time>2023-04-25T12:50:42Z</time>
      </trkpt>
      <trkpt lat="49.16988" lon="-0.83557">
        <ele>109.6</ele>
        <time>2023-04-25T12:50:43Z</time>
      </trkpt>
      <trkpt lat="49.16983" lon="-0.83557">
        <ele>109.6</ele>
        <time>2023-04-25T12:50:44Z</time>
      </trkpt>
      <trkpt lat="49.16979" lon="-0.83556">
        <ele>109.8</ele>
        <time>2023-04-25T12:50:45Z</time>
      </trkpt>
      <trkpt lat="49.16974" lon="-0.83555">
        <ele>110</ele>
        <time>2023-04-25T12:50:46Z</time>
      </trkpt>
      <trkpt lat="49.16969" lon="-0.83555">
        <ele>110</ele>
        <time>2023-04-25T12:50:47Z</time>
      </trkpt>
      <trkpt lat="49.16965" lon="-0.83554">
        <ele>110</ele>
        <time>2023-04-25T12:50:48Z</time>
      </trkpt>
      <trkpt lat="49.1696" lon="-0.83553">
        <ele>110.2</ele>
        <time>2023-04-25T12:50:49Z</time>
      </trkpt>
      <trkpt lat="49.16955" lon="-0.83553">
        <ele>110.2</ele>
        <time>2023-04-25T12:50:50Z</time>
      </trkpt>
      <trkpt lat="49.1695" lon="-0.83552">
        <ele>110.4</ele>
        <time>2023-04-25T12:50:51Z</time>
      </trkpt>
      <trkpt lat="49.16945" lon="-0.83552">
        <ele>110.4</ele>
        <time>2023-04-25T12:50:52Z</time>
      </trkpt>
      <trkpt lat="49.16941" lon="-0.83551">
        <ele>110.6</ele>
        <time>2023-04-25T12:50:53Z</time>
      </trkpt>
      <trkpt lat="49.16936" lon="-0.8355">
        <ele>110.6</ele>
        <time>2023-04-25T12:50:54Z</time>
      </trkpt>
      <trkpt lat="49.16931" lon="-0.8355">
        <ele>110.6</ele>
        <time>2023-04-25T12:50:55Z</time>
      </trkpt>
      <trkpt lat="49.16926" lon="-0.83549">
        <ele>110.8</ele>
        <time>2023-04-25T12:50:56Z</time>
      </trkpt>
      <trkpt lat="49.16922" lon="-0.83548">
        <ele>111</ele>
        <time>2023-04-25T12:50:57Z</time>
      </trkpt>
      <trkpt lat="49.16917" lon="-0.83547">
        <ele>111</ele>
        <time>2023-04-25T12:50:58Z</time>
      </trkpt>
      <trkpt lat="49.16912" lon="-0.83546">
        <ele>111</ele>
        <time>2023-04-25T12:50:59Z</time>
      </trkpt>
      <trkpt lat="49.16907" lon="-0.83545">
        <ele>110.8</ele>
        <time>2023-04-25T12:51:00Z</time>
      </trkpt>
      <trkpt lat="49.16902" lon="-0.83544">
        <ele>110.6</ele>
        <time>2023-04-25T12:51:01Z</time>
      </trkpt>
      <trkpt lat="49.16898" lon="-0.83543">
        <ele>110.6</ele>
        <time>2023-04-25T12:51:02Z</time>
      </trkpt>
      <trkpt lat="49.16893" lon="-0.83541">
        <ele>110.6</ele>
        <time>2023-04-25T12:51:03Z</time>
      </trkpt>
      <trkpt lat="49.16888" lon="-0.8354">
        <ele>110.6</ele>
        <time>2023-04-25T12:51:04Z</time>
      </trkpt>
      <trkpt lat="49.16882" lon="-0.83539">
        <ele>110.4</ele>
        <time>2023-04-25T12:51:05Z</time>
      </trkpt>
      <trkpt lat="49.16877" lon="-0.83537">
        <ele>110.4</ele>
        <time>2023-04-25T12:51:06Z</time>
      </trkpt>
      <trkpt lat="49.16872" lon="-0.83536">
        <ele>110.2</ele>
        <time>2023-04-25T12:51:07Z</time>
      </trkpt>
      <trkpt lat="49.16866" lon="-0.83534">
        <ele>110</ele>
        <time>2023-04-25T12:51:08Z</time>
      </trkpt>
      <trkpt lat="49.16861" lon="-0.83532">
        <ele>110</ele>
        <time>2023-04-25T12:51:09Z</time>
      </trkpt>
      <trkpt lat="49.16855" lon="-0.83531">
        <ele>110</ele>
        <time>2023-04-25T12:51:10Z</time>
      </trkpt>
      <trkpt lat="49.16849" lon="-0.83529">
        <ele>110</ele>
        <time>2023-04-25T12:51:11Z</time>
      </trkpt>
      <trkpt lat="49.16843" lon="-0.83527">
        <ele>109.8</ele>
        <time>2023-04-25T12:51:12Z</time>
      </trkpt>
      <trkpt lat="49.16836" lon="-0.83525">
        <ele>109.6</ele>
        <time>2023-04-25T12:51:13Z</time>
      </trkpt>
      <trkpt lat="49.1683" lon="-0.83523">
        <ele>109.6</ele>
        <time>2023-04-25T12:51:14Z</time>
      </trkpt>
      <trkpt lat="49.16823" lon="-0.8352">
        <ele>109.4</ele>
        <time>2023-04-25T12:51:15Z</time>
      </trkpt>
      <trkpt lat="49.16816" lon="-0.83518">
        <ele>109</ele>
        <time>2023-04-25T12:51:16Z</time>
      </trkpt>
      <trkpt lat="49.16809" lon="-0.83515">
        <ele>108.6</ele>
        <time>2023-04-25T12:51:17Z</time>
      </trkpt>
      <trkpt lat="49.16802" lon="-0.83513">
        <ele>108.4</ele>
        <time>2023-04-25T12:51:18Z</time>
      </trkpt>
      <trkpt lat="49.16794" lon="-0.83511">
        <ele>108</ele>
        <time>2023-04-25T12:51:19Z</time>
      </trkpt>
      <trkpt lat="49.16787" lon="-0.8351">
        <ele>107.6</ele>
        <time>2023-04-25T12:51:20Z</time>
      </trkpt>
      <trkpt lat="49.16779" lon="-0.83511">
        <ele>107.4</ele>
        <time>2023-04-25T12:51:21Z</time>
      </trkpt>
      <trkpt lat="49.16772" lon="-0.83512">
        <ele>107</ele>
        <time>2023-04-25T12:51:22Z</time>
      </trkpt>
      <trkpt lat="49.16764" lon="-0.83515">
        <ele>106.6</ele>
        <time>2023-04-25T12:51:23Z</time>
      </trkpt>
      <trkpt lat="49.16757" lon="-0.83519">
        <ele>106.4</ele>
        <time>2023-04-25T12:51:24Z</time>
      </trkpt>
      <trkpt lat="49.16751" lon="-0.83526">
        <ele>106</ele>
        <time>2023-04-25T12:51:25Z</time>
      </trkpt>
      <trkpt lat="49.16745" lon="-0.83534">
        <ele>106</ele>
        <time>2023-04-25T12:51:26Z</time>
      </trkpt>
      <trkpt lat="49.16739" lon="-0.83542">
        <ele>106</ele>
        <time>2023-04-25T12:51:27Z</time>
      </trkpt>
      <trkpt lat="49.16733" lon="-0.8355">
        <ele>105.8</ele>
        <time>2023-04-25T12:51:28Z</time>
      </trkpt>
      <trkpt lat="49.16728" lon="-0.83558">
        <ele>105.6</ele>
        <time>2023-04-25T12:51:29Z</time>
      </trkpt>
      <trkpt lat="49.16722" lon="-0.83567">
        <ele>105.6</ele>
        <time>2023-04-25T12:51:30Z</time>
      </trkpt>
      <trkpt lat="49.16716" lon="-0.83575">
        <ele>105.6</ele>
        <time>2023-04-25T12:51:31Z</time>
      </trkpt>
      <trkpt lat="49.1671" lon="-0.83583">
        <ele>105.6</ele>
        <time>2023-04-25T12:51:32Z</time>
      </trkpt>
      <trkpt lat="49.16703" lon="-0.83589">
        <ele>105.4</ele>
        <time>2023-04-25T12:51:33Z</time>
      </trkpt>
      <trkpt lat="49.16696" lon="-0.83593">
        <ele>105.4</ele>
        <time>2023-04-25T12:51:34Z</time>
      </trkpt>
      <trkpt lat="49.16688" lon="-0.83595">
        <ele>105.2</ele>
        <time>2023-04-25T12:51:35Z</time>
      </trkpt>
      <trkpt lat="49.1668" lon="-0.83595">
        <ele>105</ele>
        <time>2023-04-25T12:51:36Z</time>
      </trkpt>
      <trkpt lat="49.16673" lon="-0.83593">
        <ele>105</ele>
        <time>2023-04-25T12:51:37Z</time>
      </trkpt>
      <trkpt lat="49.16665" lon="-0.8359">
        <ele>105</ele>
        <time>2023-04-25T12:51:38Z</time>
      </trkpt>
      <trkpt lat="49.16658" lon="-0.83586">
        <ele>104.8</ele>
        <time>2023-04-25T12:51:39Z</time>
      </trkpt>
      <trkpt lat="49.16651" lon="-0.83582">
        <ele>104.6</ele>
        <time>2023-04-25T12:51:40Z</time>
      </trkpt>
      <trkpt lat="49.16644" lon="-0.83577">
        <ele>104.6</ele>
        <time>2023-04-25T12:51:41Z</time>
      </trkpt>
      <trkpt lat="49.16637" lon="-0.83571">
        <ele>104.4</ele>
        <time>2023-04-25T12:51:42Z</time>
      </trkpt>
      <trkpt lat="49.1663" lon="-0.83565">
        <ele>104.2</ele>
        <time>2023-04-25T12:51:43Z</time>
      </trkpt>
      <trkpt lat="49.16624" lon="-0.83558">
        <ele>104</ele>
        <time>2023-04-25T12:51:44Z</time>
      </trkpt>
      <trkpt lat="49.16618" lon="-0.83551">
        <ele>104</ele>
        <time>2023-04-25T12:51:45Z</time>
      </trkpt>
      <trkpt lat="49.16612" lon="-0.83543">
        <ele>104</ele>
        <time>2023-04-25T12:51:46Z</time>
      </trkpt>
      <trkpt lat="49.16606" lon="-0.83535">
        <ele>104</ele>
        <time>2023-04-25T12:51:47Z</time>
      </trkpt>
      <trkpt lat="49.166" lon="-0.83527">
        <ele>104</ele>
        <time>2023-04-25T12:51:48Z</time>
      </trkpt>
      <trkpt lat="49.16595" lon="-0.83519">
        <ele>104</ele>
        <time>2023-04-25T12:51:49Z</time>
      </trkpt>
      <trkpt lat="49.16588" lon="-0.83511">
        <ele>104</ele>
        <time>2023-04-25T12:51:50Z</time>
      </trkpt>
      <trkpt lat="49.16582" lon="-0.83505">
        <ele>104</ele>
        <time>2023-04-25T12:51:51Z</time>
      </trkpt>
      <trkpt lat="49.16575" lon="-0.83501">
        <ele>104.2</ele>
        <time>2023-04-25T12:51:52Z</time>
      </trkpt>
      <trkpt lat="49.16568" lon="-0.83498">
        <ele>104.4</ele>
        <time>2023-04-25T12:51:53Z</time>
      </trkpt>
      <trkpt lat="49.16561" lon="-0.83496">
        <ele>104.6</ele>
        <time>2023-04-25T12:51:54Z</time>
      </trkpt>
      <trkpt lat="49.16554" lon="-0.83496">
        <ele>104.8</ele>
        <time>2023-04-25T12:51:55Z</time>
      </trkpt>
      <trkpt lat="49.16547" lon="-0.83497">
        <ele>105</ele>
        <time>2023-04-25T12:51:56Z</time>
      </trkpt>
      <trkpt lat="49.1654" lon="-0.83499">
        <ele>105</ele>
        <time>2023-04-25T12:51:57Z</time>
      </trkpt>
      <trkpt lat="49.16533" lon="-0.835">
        <ele>105.2</ele>
        <time>2023-04-25T12:51:58Z</time>
      </trkpt>
      <trkpt lat="49.16526" lon="-0.83501">
        <ele>105.4</ele>
        <time>2023-04-25T12:51:59Z</time>
      </trkpt>
      <trkpt lat="49.16519" lon="-0.83502">
        <ele>105.6</ele>
        <time>2023-04-25T12:52:00Z</time>
      </trkpt>
      <trkpt lat="49.16513" lon="-0.83502">
        <ele>105.6</ele>
        <time>2023-04-25T12:52:01Z</time>
      </trkpt>
      <trkpt lat="49.16506" lon="-0.83501">
        <ele>105.8</ele>
        <time>2023-04-25T12:52:02Z</time>
      </trkpt>
      <trkpt lat="49.165" lon="-0.835">
        <ele>106</ele>
        <time>2023-04-25T12:52:03Z</time>
      </trkpt>
      <trkpt lat="49.16493" lon="-0.83499">
        <ele>106</ele>
        <time>2023-04-25T12:52:04Z</time>
      </trkpt>
      <trkpt lat="49.16487" lon="-0.83497">
        <ele>106</ele>
        <time>2023-04-25T12:52:05Z</time>
      </trkpt>
      <trkpt lat="49.1648" lon="-0.83495">
        <ele>106</ele>
        <time>2023-04-25T12:52:06Z</time>
      </trkpt>
      <trkpt lat="49.16474" lon="-0.83492">
        <ele>106.2</ele>
        <time>2023-04-25T12:52:07Z</time>
      </trkpt>
      <trkpt lat="49.16468" lon="-0.83489">
        <ele>106.4</ele>
        <time>2023-04-25T12:52:08Z</time>
      </trkpt>
      <trkpt lat="49.16461" lon="-0.83486">
        <ele>106.4</ele>
        <time>2023-04-25T12:52:09Z</time>
      </trkpt>
      <trkpt lat="49.16455" lon="-0.83483">
        <ele>106.6</ele>
        <time>2023-04-25T12:52:10Z</time>
      </trkpt>
      <trkpt lat="49.16449" lon="-0.8348">
        <ele>106.6</ele>
        <time>2023-04-25T12:52:11Z</time>
      </trkpt>
      <trkpt lat="49.16443" lon="-0.83477">
        <ele>106.8</ele>
        <time>2023-04-25T12:52:12Z</time>
      </trkpt>
      <trkpt lat="49.16437" lon="-0.83473">
        <ele>107</ele>
        <time>2023-04-25T12:52:13Z</time>
      </trkpt>
      <trkpt lat="49.16431" lon="-0.8347">
        <ele>107</ele>
        <time>2023-04-25T12:52:14Z</time>
      </trkpt>
      <trkpt lat="49.16425" lon="-0.83467">
        <ele>107</ele>
        <time>2023-04-25T12:52:15Z</time>
      </trkpt>
      <trkpt lat="49.16419" lon="-0.83464">
        <ele>107.4</ele>
        <time>2023-04-25T12:52:16Z</time>
      </trkpt>
      <trkpt lat="49.16414" lon="-0.83461">
        <ele>107.4</ele>
        <time>2023-04-25T12:52:17Z</time>
      </trkpt>
      <trkpt lat="49.16408" lon="-0.83458">
        <ele>107.4</ele>
        <time>2023-04-25T12:52:18Z</time>
      </trkpt>
      <trkpt lat="49.16402" lon="-0.83455">
        <ele>107.4</ele>
        <time>2023-04-25T12:52:19Z</time>
      </trkpt>
      <trkpt lat="49.16396" lon="-0.83452">
        <ele>107.2</ele>
        <time>2023-04-25T12:52:20Z</time>
      </trkpt>
      <trkpt lat="49.16391" lon="-0.83449">
        <ele>107.2</ele>
        <time>2023-04-25T12:52:21Z</time>
      </trkpt>
      <trkpt lat="49.16385" lon="-0.83447">
        <ele>107.2</ele>
        <time>2023-04-25T12:52:22Z</time>
      </trkpt>
      <trkpt lat="49.16379" lon="-0.83444">
        <ele>107</ele>
        <time>2023-04-25T12:52:23Z</time>
      </trkpt>
      <trkpt lat="49.16373" lon="-0.83441">
        <ele>107</ele>
        <time>2023-04-25T12:52:24Z</time>
      </trkpt>
      <trkpt lat="49.16368" lon="-0.83438">
        <ele>107</ele>
        <time>2023-04-25T12:52:25Z</time>
      </trkpt>
      <trkpt lat="49.16362" lon="-0.83435">
        <ele>107</ele>
        <time>2023-04-25T12:52:26Z</time>
      </trkpt>
      <trkpt lat="49.16356" lon="-0.83432">
        <ele>107</ele>
        <time>2023-04-25T12:52:27Z</time>
      </trkpt>
      <trkpt lat="49.1635" lon="-0.8343">
        <ele>107</ele>
        <time>2023-04-25T12:52:28Z</time>
      </trkpt>
      <trkpt lat="49.16345" lon="-0.83427">
        <ele>107</ele>
        <time>2023-04-25T12:52:29Z</time>
      </trkpt>
      <trkpt lat="49.16339" lon="-0.83424">
        <ele>107</ele>
        <time>2023-04-25T12:52:30Z</time>
      </trkpt>
      <trkpt lat="49.16333" lon="-0.83421">
        <ele>106.8</ele>
        <time>2023-04-25T12:52:31Z</time>
      </trkpt>
      <trkpt lat="49.16328" lon="-0.83418">
        <ele>107</ele>
        <time>2023-04-25T12:52:32Z</time>
      </trkpt>
      <trkpt lat="49.16322" lon="-0.83415">
        <ele>107</ele>
        <time>2023-04-25T12:52:33Z</time>
      </trkpt>
      <trkpt lat="49.16316" lon="-0.83412">
        <ele>107.2</ele>
        <time>2023-04-25T12:52:34Z</time>
      </trkpt>
      <trkpt lat="49.16311" lon="-0.83409">
        <ele>107.4</ele>
        <time>2023-04-25T12:52:35Z</time>
      </trkpt>
      <trkpt lat="49.16306" lon="-0.83406">
        <ele>107.4</ele>
        <time>2023-04-25T12:52:36Z</time>
      </trkpt>
      <trkpt lat="49.163" lon="-0.83403">
        <ele>107.6</ele>
        <time>2023-04-25T12:52:37Z</time>
      </trkpt>
      <trkpt lat="49.16295" lon="-0.834">
        <ele>107.6</ele>
        <time>2023-04-25T12:52:38Z</time>
      </trkpt>
      <trkpt lat="49.1629" lon="-0.83396">
        <ele>107.6</ele>
        <time>2023-04-25T12:52:39Z</time>
      </trkpt>
      <trkpt lat="49.16285" lon="-0.83393">
        <ele>107.6</ele>
        <time>2023-04-25T12:52:40Z</time>
      </trkpt>
      <trkpt lat="49.1628" lon="-0.8339">
        <ele>107.6</ele>
        <time>2023-04-25T12:52:41Z</time>
      </trkpt>
      <trkpt lat="49.16274" lon="-0.83386">
        <ele>107.6</ele>
        <time>2023-04-25T12:52:42Z</time>
      </trkpt>
      <trkpt lat="49.16269" lon="-0.83383">
        <ele>107.6</ele>
        <time>2023-04-25T12:52:43Z</time>
      </trkpt>
      <trkpt lat="49.16264" lon="-0.83379">
        <ele>107.6</ele>
        <time>2023-04-25T12:52:44Z</time>
      </trkpt>
      <trkpt lat="49.16259" lon="-0.83376">
        <ele>107.6</ele>
        <time>2023-04-25T12:52:45Z</time>
      </trkpt>
      <trkpt lat="49.16254" lon="-0.83372">
        <ele>107.6</ele>
        <time>2023-04-25T12:52:46Z</time>
      </trkpt>
      <trkpt lat="49.16249" lon="-0.83368">
        <ele>107.6</ele>
        <time>2023-04-25T12:52:47Z</time>
      </trkpt>
      <trkpt lat="49.16244" lon="-0.83364">
        <ele>107.4</ele>
        <time>2023-04-25T12:52:48Z</time>
      </trkpt>
      <trkpt lat="49.16239" lon="-0.83361">
        <ele>107.2</ele>
        <time>2023-04-25T12:52:49Z</time>
      </trkpt>
      <trkpt lat="49.16234" lon="-0.83357">
        <ele>107</ele>
        <time>2023-04-25T12:52:50Z</time>
      </trkpt>
      <trkpt lat="49.16228" lon="-0.83353">
        <ele>107</ele>
        <time>2023-04-25T12:52:51Z</time>
      </trkpt>
      <trkpt lat="49.16223" lon="-0.83349">
        <ele>106.6</ele>
        <time>2023-04-25T12:52:52Z</time>
      </trkpt>
      <trkpt lat="49.16218" lon="-0.83345">
        <ele>106.4</ele>
        <time>2023-04-25T12:52:53Z</time>
      </trkpt>
      <trkpt lat="49.16212" lon="-0.83341">
        <ele>106.2</ele>
        <time>2023-04-25T12:52:54Z</time>
      </trkpt>
      <trkpt lat="49.16207" lon="-0.83336">
        <ele>106</ele>
        <time>2023-04-25T12:52:55Z</time>
      </trkpt>
      <trkpt lat="49.16201" lon="-0.83332">
        <ele>105.6</ele>
        <time>2023-04-25T12:52:56Z</time>
      </trkpt>
      <trkpt lat="49.16195" lon="-0.83327">
        <ele>105.4</ele>
        <time>2023-04-25T12:52:57Z</time>
      </trkpt>
      <trkpt lat="49.16188" lon="-0.83322">
        <ele>105.2</ele>
        <time>2023-04-25T12:52:58Z</time>
      </trkpt>
      <trkpt lat="49.16182" lon="-0.83318">
        <ele>105</ele>
        <time>2023-04-25T12:52:59Z</time>
      </trkpt>
      <trkpt lat="49.16175" lon="-0.83312">
        <ele>104.6</ele>
        <time>2023-04-25T12:53:00Z</time>
      </trkpt>
      <trkpt lat="49.16169" lon="-0.83307">
        <ele>104.4</ele>
        <time>2023-04-25T12:53:01Z</time>
      </trkpt>
      <trkpt lat="49.16162" lon="-0.83302">
        <ele>104.4</ele>
        <time>2023-04-25T12:53:02Z</time>
      </trkpt>
      <trkpt lat="49.16155" lon="-0.83296">
        <ele>104.2</ele>
        <time>2023-04-25T12:53:03Z</time>
      </trkpt>
      <trkpt lat="49.16148" lon="-0.83291">
        <ele>104</ele>
        <time>2023-04-25T12:53:04Z</time>
      </trkpt>
      <trkpt lat="49.16142" lon="-0.83285">
        <ele>104</ele>
        <time>2023-04-25T12:53:05Z</time>
      </trkpt>
      <trkpt lat="49.16135" lon="-0.8328">
        <ele>104</ele>
        <time>2023-04-25T12:53:06Z</time>
      </trkpt>
      <trkpt lat="49.16128" lon="-0.83274">
        <ele>103.8</ele>
        <time>2023-04-25T12:53:07Z</time>
      </trkpt>
      <trkpt lat="49.16122" lon="-0.83269">
        <ele>103.6</ele>
        <time>2023-04-25T12:53:08Z</time>
      </trkpt>
      <trkpt lat="49.16116" lon="-0.83264">
        <ele>103.6</ele>
        <time>2023-04-25T12:53:09Z</time>
      </trkpt>
      <trkpt lat="49.1611" lon="-0.8326">
        <ele>103.6</ele>
        <time>2023-04-25T12:53:10Z</time>
      </trkpt>
      <trkpt lat="49.16104" lon="-0.83255">
        <ele>103.4</ele>
        <time>2023-04-25T12:53:11Z</time>
      </trkpt>
      <trkpt lat="49.16099" lon="-0.83252">
        <ele>103.4</ele>
        <time>2023-04-25T12:53:12Z</time>
      </trkpt>
      <trkpt lat="49.16095" lon="-0.83248">
        <ele>103.2</ele>
        <time>2023-04-25T12:53:13Z</time>
      </trkpt>
      <trkpt lat="49.16091" lon="-0.83245">
        <ele>103</ele>
        <time>2023-04-25T12:53:14Z</time>
      </trkpt>
      <trkpt lat="49.16087" lon="-0.83242">
        <ele>103</ele>
        <time>2023-04-25T12:53:15Z</time>
      </trkpt>
      <trkpt lat="49.16084" lon="-0.8324">
        <ele>102.8</ele>
        <time>2023-04-25T12:53:16Z</time>
      </trkpt>
      <trkpt lat="49.1608" lon="-0.83238">
        <ele>102.6</ele>
        <time>2023-04-25T12:53:17Z</time>
      </trkpt>
      <trkpt lat="49.16077" lon="-0.83236">
        <ele>102.6</ele>
        <time>2023-04-25T12:53:18Z</time>
      </trkpt>
      <trkpt lat="49.16073" lon="-0.83233">
        <ele>102.6</ele>
        <time>2023-04-25T12:53:19Z</time>
      </trkpt>
      <trkpt lat="49.1607" lon="-0.8323">
        <ele>102.4</ele>
        <time>2023-04-25T12:53:20Z</time>
      </trkpt>
      <trkpt lat="49.16067" lon="-0.83227">
        <ele>102.4</ele>
        <time>2023-04-25T12:53:21Z</time>
      </trkpt>
      <trkpt lat="49.16064" lon="-0.83223">
        <ele>102.2</ele>
        <time>2023-04-25T12:53:22Z</time>
      </trkpt>
      <trkpt lat="49.16063" lon="-0.83219">
        <ele>102</ele>
        <time>2023-04-25T12:53:23Z</time>
      </trkpt>
      <trkpt lat="49.16063" lon="-0.83214">
        <ele>102</ele>
        <time>2023-04-25T12:53:24Z</time>
      </trkpt>
      <trkpt lat="49.16065" lon="-0.8321">
        <ele>102</ele>
        <time>2023-04-25T12:53:25Z</time>
      </trkpt>
      <trkpt lat="49.16068" lon="-0.83208">
        <ele>102</ele>
        <time>2023-04-25T12:53:26Z</time>
      </trkpt>
      <trkpt lat="49.16071" lon="-0.83206">
        <ele>102</ele>
        <time>2023-04-25T12:53:27Z</time>
      </trkpt>
      <trkpt lat="49.16074" lon="-0.83204">
        <ele>102</ele>
        <time>2023-04-25T12:53:28Z</time>
      </trkpt>
      <trkpt lat="49.16078" lon="-0.83202">
        <ele>101.8</ele>
        <time>2023-04-25T12:53:29Z</time>
      </trkpt>
      <trkpt lat="49.16082" lon="-0.832">
        <ele>101.8</ele>
        <time>2023-04-25T12:53:30Z</time>
      </trkpt>
      <trkpt lat="49.16086" lon="-0.83198">
        <ele>102</ele>
        <time>2023-04-25T12:53:31Z</time>
      </trkpt>
      <trkpt lat="49.1609" lon="-0.83196">
        <ele>102</ele>
        <time>2023-04-25T12:53:32Z</time>
      </trkpt>
      <trkpt lat="49.16094" lon="-0.83193">
        <ele>102.2</ele>
        <time>2023-04-25T12:53:33Z</time>
      </trkpt>
      <trkpt lat="49.16098" lon="-0.83191">
        <ele>102.4</ele>
        <time>2023-04-25T12:53:34Z</time>
      </trkpt>
      <trkpt lat="49.16103" lon="-0.83188">
        <ele>102.6</ele>
        <time>2023-04-25T12:53:35Z</time>
      </trkpt>
      <trkpt lat="49.16107" lon="-0.83186">
        <ele>102.6</ele>
        <time>2023-04-25T12:53:36Z</time>
      </trkpt>
      <trkpt lat="49.16111" lon="-0.83183">
        <ele>103</ele>
        <time>2023-04-25T12:53:37Z</time>
      </trkpt>
      <trkpt lat="49.16116" lon="-0.8318">
        <ele>103</ele>
        <time>2023-04-25T12:53:38Z</time>
      </trkpt>
      <trkpt lat="49.1612" lon="-0.83178">
        <ele>103.4</ele>
        <time>2023-04-25T12:53:39Z</time>
      </trkpt>
      <trkpt lat="49.16124" lon="-0.83175">
        <ele>103.6</ele>
        <time>2023-04-25T12:53:40Z</time>
      </trkpt>
      <trkpt lat="49.16129" lon="-0.83172">
        <ele>103.6</ele>
        <time>2023-04-25T12:53:41Z</time>
      </trkpt>
      <trkpt lat="49.16133" lon="-0.83169">
        <ele>104</ele>
        <time>2023-04-25T12:53:42Z</time>
      </trkpt>
      <trkpt lat="49.16137" lon="-0.83167">
        <ele>104.2</ele>
        <time>2023-04-25T12:53:43Z</time>
      </trkpt>
      <trkpt lat="49.16141" lon="-0.83163">
        <ele>104.6</ele>
        <time>2023-04-25T12:53:44Z</time>
      </trkpt>
      <trkpt lat="49.16145" lon="-0.8316">
        <ele>104.6</ele>
        <time>2023-04-25T12:53:45Z</time>
      </trkpt>
      <trkpt lat="49.1615" lon="-0.83157">
        <ele>105</ele>
        <time>2023-04-25T12:53:46Z</time>
      </trkpt>
      <trkpt lat="49.16154" lon="-0.83154">
        <ele>105</ele>
        <time>2023-04-25T12:53:47Z</time>
      </trkpt>
      <trkpt lat="49.16158" lon="-0.83151">
        <ele>105.4</ele>
        <time>2023-04-25T12:53:48Z</time>
      </trkpt>
      <trkpt lat="49.16162" lon="-0.83148">
        <ele>105.6</ele>
        <time>2023-04-25T12:53:49Z</time>
      </trkpt>
      <trkpt lat="49.16166" lon="-0.83144">
        <ele>105.6</ele>
        <time>2023-04-25T12:53:50Z</time>
      </trkpt>
      <trkpt lat="49.1617" lon="-0.83141">
        <ele>105.8</ele>
        <time>2023-04-25T12:53:51Z</time>
      </trkpt>
      <trkpt lat="49.16173" lon="-0.83137">
        <ele>106</ele>
        <time>2023-04-25T12:53:52Z</time>
      </trkpt>
      <trkpt lat="49.16177" lon="-0.83133">
        <ele>106</ele>
        <time>2023-04-25T12:53:53Z</time>
      </trkpt>
      <trkpt lat="49.16181" lon="-0.8313">
        <ele>106.2</ele>
        <time>2023-04-25T12:53:54Z</time>
      </trkpt>
      <trkpt lat="49.16185" lon="-0.83126">
        <ele>106.4</ele>
        <time>2023-04-25T12:53:55Z</time>
      </trkpt>
      <trkpt lat="49.16188" lon="-0.83122">
        <ele>106.4</ele>
        <time>2023-04-25T12:53:56Z</time>
      </trkpt>
      <trkpt lat="49.16192" lon="-0.83118">
        <ele>106.6</ele>
        <time>2023-04-25T12:53:57Z</time>
      </trkpt>
      <trkpt lat="49.16196" lon="-0.83114">
        <ele>106.6</ele>
        <time>2023-04-25T12:53:58Z</time>
      </trkpt>
      <trkpt lat="49.162" lon="-0.8311">
        <ele>106.6</ele>
        <time>2023-04-25T12:53:59Z</time>
      </trkpt>
      <trkpt lat="49.16203" lon="-0.83107">
        <ele>106.6</ele>
        <time>2023-04-25T12:54:00Z</time>
      </trkpt>
      <trkpt lat="49.16207" lon="-0.83103">
        <ele>106.8</ele>
        <time>2023-04-25T12:54:01Z</time>
      </trkpt>
      <trkpt lat="49.16211" lon="-0.83099">
        <ele>107</ele>
        <time>2023-04-25T12:54:02Z</time>
      </trkpt>
      <trkpt lat="49.16214" lon="-0.83095">
        <ele>107</ele>
        <time>2023-04-25T12:54:03Z</time>
      </trkpt>
      <trkpt lat="49.16218" lon="-0.83091">
        <ele>107</ele>
        <time>2023-04-25T12:54:04Z</time>
      </trkpt>
      <trkpt lat="49.16221" lon="-0.83087">
        <ele>107</ele>
        <time>2023-04-25T12:54:05Z</time>
      </trkpt>
      <trkpt lat="49.16225" lon="-0.83083">
        <ele>107</ele>
        <time>2023-04-25T12:54:06Z</time>
      </trkpt>
      <trkpt lat="49.16228" lon="-0.83079">
        <ele>107</ele>
        <time>2023-04-25T12:54:07Z</time>
      </trkpt>
      <trkpt lat="49.16231" lon="-0.83075">
        <ele>107.2</ele>
        <time>2023-04-25T12:54:08Z</time>
      </trkpt>
      <trkpt lat="49.16235" lon="-0.83071">
        <ele>107.4</ele>
        <time>2023-04-25T12:54:09Z</time>
      </trkpt>
      <trkpt lat="49.16238" lon="-0.83066">
        <ele>107.4</ele>
        <time>2023-04-25T12:54:10Z</time>
      </trkpt>
      <trkpt lat="49.16241" lon="-0.83062">
        <ele>107.4</ele>
        <time>2023-04-25T12:54:11Z</time>
      </trkpt>
      <trkpt lat="49.16244" lon="-0.83058">
        <ele>107.6</ele>
        <time>2023-04-25T12:54:12Z</time>
      </trkpt>
      <trkpt lat="49.16247" lon="-0.83054">
        <ele>107.6</ele>
        <time>2023-04-25T12:54:13Z</time>
      </trkpt>
      <trkpt lat="49.1625" lon="-0.83049">
        <ele>107.6</ele>
        <time>2023-04-25T12:54:14Z</time>
      </trkpt>
      <trkpt lat="49.16252" lon="-0.83045">
        <ele>107.6</ele>
        <time>2023-04-25T12:54:15Z</time>
      </trkpt>
      <trkpt lat="49.16255" lon="-0.83041">
        <ele>107.6</ele>
        <time>2023-04-25T12:54:16Z</time>
      </trkpt>
      <trkpt lat="49.16258" lon="-0.83036">
        <ele>107.8</ele>
        <time>2023-04-25T12:54:17Z</time>
      </trkpt>
      <trkpt lat="49.1626" lon="-0.83032">
        <ele>108</ele>
        <time>2023-04-25T12:54:18Z</time>
      </trkpt>
      <trkpt lat="49.16263" lon="-0.83028">
        <ele>108</ele>
        <time>2023-04-25T12:54:19Z</time>
      </trkpt>
      <trkpt lat="49.16266" lon="-0.83023">
        <ele>108</ele>
        <time>2023-04-25T12:54:20Z</time>
      </trkpt>
      <trkpt lat="49.16269" lon="-0.83019">
        <ele>108</ele>
        <time>2023-04-25T12:54:21Z</time>
      </trkpt>
      <trkpt lat="49.16271" lon="-0.83014">
        <ele>108.2</ele>
        <time>2023-04-25T12:54:22Z</time>
      </trkpt>
      <trkpt lat="49.16274" lon="-0.8301">
        <ele>108.4</ele>
        <time>2023-04-25T12:54:23Z</time>
      </trkpt>
      <trkpt lat="49.16277" lon="-0.83005">
        <ele>108.4</ele>
        <time>2023-04-25T12:54:24Z</time>
      </trkpt>
      <trkpt lat="49.16279" lon="-0.83">
        <ele>108.4</ele>
        <time>2023-04-25T12:54:25Z</time>
      </trkpt>
      <trkpt lat="49.16282" lon="-0.82996">
        <ele>108.6</ele>
        <time>2023-04-25T12:54:26Z</time>
      </trkpt>
      <trkpt lat="49.16284" lon="-0.82992">
        <ele>108.6</ele>
        <time>2023-04-25T12:54:27Z</time>
      </trkpt>
      <trkpt lat="49.16287" lon="-0.82987">
        <ele>109</ele>
        <time>2023-04-25T12:54:28Z</time>
      </trkpt>
      <trkpt lat="49.16289" lon="-0.82983">
        <ele>109</ele>
        <time>2023-04-25T12:54:29Z</time>
      </trkpt>
      <trkpt lat="49.16292" lon="-0.82979">
        <ele>109.4</ele>
        <time>2023-04-25T12:54:30Z</time>
      </trkpt>
      <trkpt lat="49.16294" lon="-0.82974">
        <ele>109.4</ele>
        <time>2023-04-25T12:54:31Z</time>
      </trkpt>
      <trkpt lat="49.16296" lon="-0.8297">
        <ele>109.6</ele>
        <time>2023-04-25T12:54:32Z</time>
      </trkpt>
      <trkpt lat="49.16299" lon="-0.82966">
        <ele>109.6</ele>
        <time>2023-04-25T12:54:33Z</time>
      </trkpt>
      <trkpt lat="49.16301" lon="-0.82962">
        <ele>110</ele>
        <time>2023-04-25T12:54:34Z</time>
      </trkpt>
      <trkpt lat="49.16303" lon="-0.82958">
        <ele>110</ele>
        <time>2023-04-25T12:54:35Z</time>
      </trkpt>
      <trkpt lat="49.16306" lon="-0.82954">
        <ele>110.2</ele>
        <time>2023-04-25T12:54:36Z</time>
      </trkpt>
      <trkpt lat="49.16308" lon="-0.8295">
        <ele>110.4</ele>
        <time>2023-04-25T12:54:37Z</time>
      </trkpt>
      <trkpt lat="49.1631" lon="-0.82947">
        <ele>110.6</ele>
        <time>2023-04-25T12:54:38Z</time>
      </trkpt>
      <trkpt lat="49.16312" lon="-0.82943">
        <ele>110.6</ele>
        <time>2023-04-25T12:54:39Z</time>
      </trkpt>
      <trkpt lat="49.16314" lon="-0.82939">
        <ele>110.8</ele>
        <time>2023-04-25T12:54:40Z</time>
      </trkpt>
      <trkpt lat="49.16317" lon="-0.82935">
        <ele>111</ele>
        <time>2023-04-25T12:54:41Z</time>
      </trkpt>
      <trkpt lat="49.16319" lon="-0.82931">
        <ele>111</ele>
        <time>2023-04-25T12:54:42Z</time>
      </trkpt>
      <trkpt lat="49.16321" lon="-0.82927">
        <ele>111.4</ele>
        <time>2023-04-25T12:54:43Z</time>
      </trkpt>
      <trkpt lat="49.16323" lon="-0.82923">
        <ele>111.4</ele>
        <time>2023-04-25T12:54:44Z</time>
      </trkpt>
      <trkpt lat="49.16326" lon="-0.82919">
        <ele>111.6</ele>
        <time>2023-04-25T12:54:45Z</time>
      </trkpt>
      <trkpt lat="49.16328" lon="-0.82915">
        <ele>111.6</ele>
        <time>2023-04-25T12:54:46Z</time>
      </trkpt>
      <trkpt lat="49.1633" lon="-0.82912">
        <ele>111.8</ele>
        <time>2023-04-25T12:54:47Z</time>
      </trkpt>
      <trkpt lat="49.16333" lon="-0.82908">
        <ele>112</ele>
        <time>2023-04-25T12:54:48Z</time>
      </trkpt>
      <trkpt lat="49.16335" lon="-0.82904">
        <ele>112</ele>
        <time>2023-04-25T12:54:49Z</time>
      </trkpt>
      <trkpt lat="49.16337" lon="-0.829">
        <ele>112</ele>
        <time>2023-04-25T12:54:50Z</time>
      </trkpt>
      <trkpt lat="49.16339" lon="-0.82896">
        <ele>112.2</ele>
        <time>2023-04-25T12:54:51Z</time>
      </trkpt>
      <trkpt lat="49.16341" lon="-0.82892">
        <ele>112.4</ele>
        <time>2023-04-25T12:54:52Z</time>
      </trkpt>
      <trkpt lat="49.16343" lon="-0.82888">
        <ele>112.4</ele>
        <time>2023-04-25T12:54:53Z</time>
      </trkpt>
      <trkpt lat="49.16346" lon="-0.82885">
        <ele>112.6</ele>
        <time>2023-04-25T12:54:54Z</time>
      </trkpt>
      <trkpt lat="49.16348" lon="-0.82881">
        <ele>112.6</ele>
        <time>2023-04-25T12:54:55Z</time>
      </trkpt>
      <trkpt lat="49.1635" lon="-0.82878">
        <ele>112.8</ele>
        <time>2023-04-25T12:54:56Z</time>
      </trkpt>
      <trkpt lat="49.16352" lon="-0.82874">
        <ele>113</ele>
        <time>2023-04-25T12:54:57Z</time>
      </trkpt>
      <trkpt lat="49.16354" lon="-0.8287">
        <ele>113</ele>
        <time>2023-04-25T12:54:58Z</time>
      </trkpt>
      <trkpt lat="49.16356" lon="-0.82867">
        <ele>113</ele>
        <time>2023-04-25T12:54:59Z</time>
      </trkpt>
      <trkpt lat="49.16358" lon="-0.82864">
        <ele>113.4</ele>
        <time>2023-04-25T12:55:00Z</time>
      </trkpt>
      <trkpt lat="49.1636" lon="-0.8286">
        <ele>113.4</ele>
        <time>2023-04-25T12:55:01Z</time>
      </trkpt>
      <trkpt lat="49.16362" lon="-0.82857">
        <ele>113.6</ele>
        <time>2023-04-25T12:55:02Z</time>
      </trkpt>
      <trkpt lat="49.16364" lon="-0.82853">
        <ele>113.6</ele>
        <time>2023-04-25T12:55:03Z</time>
      </trkpt>
      <trkpt lat="49.16366" lon="-0.8285">
        <ele>113.8</ele>
        <time>2023-04-25T12:55:04Z</time>
      </trkpt>
      <trkpt lat="49.16368" lon="-0.82847">
        <ele>114</ele>
        <time>2023-04-25T12:55:05Z</time>
      </trkpt>
      <trkpt lat="49.1637" lon="-0.82843">
        <ele>114</ele>
        <time>2023-04-25T12:55:06Z</time>
      </trkpt>
      <trkpt lat="49.16372" lon="-0.8284">
        <ele>114.2</ele>
        <time>2023-04-25T12:55:07Z</time>
      </trkpt>
      <trkpt lat="49.16374" lon="-0.82837">
        <ele>114.4</ele>
        <time>2023-04-25T12:55:08Z</time>
      </trkpt>
      <trkpt lat="49.16376" lon="-0.82833">
        <ele>114.6</ele>
        <time>2023-04-25T12:55:09Z</time>
      </trkpt>
      <trkpt lat="49.16378" lon="-0.8283">
        <ele>114.6</ele>
        <time>2023-04-25T12:55:10Z</time>
      </trkpt>
      <trkpt lat="49.16379" lon="-0.82827">
        <ele>115</ele>
        <time>2023-04-25T12:55:11Z</time>
      </trkpt>
      <trkpt lat="49.16382" lon="-0.82824">
        <ele>115</ele>
        <time>2023-04-25T12:55:12Z</time>
      </trkpt>
      <trkpt lat="49.16384" lon="-0.8282">
        <ele>115.4</ele>
        <time>2023-04-25T12:55:13Z</time>
      </trkpt>
      <trkpt lat="49.16385" lon="-0.82817">
        <ele>115.6</ele>
        <time>2023-04-25T12:55:14Z</time>
      </trkpt>
      <trkpt lat="49.16387" lon="-0.82814">
        <ele>115.6</ele>
        <time>2023-04-25T12:55:15Z</time>
      </trkpt>
      <trkpt lat="49.16389" lon="-0.82811">
        <ele>116</ele>
        <time>2023-04-25T12:55:16Z</time>
      </trkpt>
      <trkpt lat="49.16391" lon="-0.82807">
        <ele>116</ele>
        <time>2023-04-25T12:55:17Z</time>
      </trkpt>
      <trkpt lat="49.16393" lon="-0.82804">
        <ele>116.4</ele>
        <time>2023-04-25T12:55:18Z</time>
      </trkpt>
      <trkpt lat="49.16395" lon="-0.82801">
        <ele>116.6</ele>
        <time>2023-04-25T12:55:19Z</time>
      </trkpt>
      <trkpt lat="49.16397" lon="-0.82798">
        <ele>116.6</ele>
        <time>2023-04-25T12:55:20Z</time>
      </trkpt>
      <trkpt lat="49.16399" lon="-0.82795">
        <ele>117</ele>
        <time>2023-04-25T12:55:21Z</time>
      </trkpt>
      <trkpt lat="49.16401" lon="-0.82791">
        <ele>117</ele>
        <time>2023-04-25T12:55:22Z</time>
      </trkpt>
      <trkpt lat="49.16403" lon="-0.82788">
        <ele>117.4</ele>
        <time>2023-04-25T12:55:23Z</time>
      </trkpt>
      <trkpt lat="49.16405" lon="-0.82785">
        <ele>117.6</ele>
        <time>2023-04-25T12:55:24Z</time>
      </trkpt>
      <trkpt lat="49.16407" lon="-0.82782">
        <ele>117.6</ele>
        <time>2023-04-25T12:55:25Z</time>
      </trkpt>
      <trkpt lat="49.16409" lon="-0.82779">
        <ele>118</ele>
        <time>2023-04-25T12:55:26Z</time>
      </trkpt>
      <trkpt lat="49.16411" lon="-0.82776">
        <ele>118</ele>
        <time>2023-04-25T12:55:27Z</time>
      </trkpt>
      <trkpt lat="49.16413" lon="-0.82773">
        <ele>118.4</ele>
        <time>2023-04-25T12:55:28Z</time>
      </trkpt>
      <trkpt lat="49.16415" lon="-0.8277">
        <ele>118.4</ele>
        <time>2023-04-25T12:55:29Z</time>
      </trkpt>
      <trkpt lat="49.16417" lon="-0.82766">
        <ele>118.6</ele>
        <time>2023-04-25T12:55:30Z</time>
      </trkpt>
      <trkpt lat="49.16419" lon="-0.82763">
        <ele>118.6</ele>
        <time>2023-04-25T12:55:31Z</time>
      </trkpt>
      <trkpt lat="49.16421" lon="-0.8276">
        <ele>119</ele>
        <time>2023-04-25T12:55:32Z</time>
      </trkpt>
      <trkpt lat="49.16424" lon="-0.82757">
        <ele>119</ele>
        <time>2023-04-25T12:55:33Z</time>
      </trkpt>
      <trkpt lat="49.16425" lon="-0.82754">
        <ele>119</ele>
        <time>2023-04-25T12:55:34Z</time>
      </trkpt>
      <trkpt lat="49.16428" lon="-0.82752">
        <ele>119.2</ele>
        <time>2023-04-25T12:55:35Z</time>
      </trkpt>
      <trkpt lat="49.1643" lon="-0.82749">
        <ele>119.4</ele>
        <time>2023-04-25T12:55:36Z</time>
      </trkpt>
      <trkpt lat="49.16432" lon="-0.82746">
        <ele>119.4</ele>
        <time>2023-04-25T12:55:37Z</time>
      </trkpt>
      <trkpt lat="49.16434" lon="-0.82743">
        <ele>119.4</ele>
        <time>2023-04-25T12:55:38Z</time>
      </trkpt>
      <trkpt lat="49.16436" lon="-0.8274">
        <ele>119.6</ele>
        <time>2023-04-25T12:55:39Z</time>
      </trkpt>
      <trkpt lat="49.16438" lon="-0.82737">
        <ele>119.6</ele>
        <time>2023-04-25T12:55:40Z</time>
      </trkpt>
      <trkpt lat="49.1644" lon="-0.82734">
        <ele>119.6</ele>
        <time>2023-04-25T12:55:41Z</time>
      </trkpt>
      <trkpt lat="49.16443" lon="-0.82731">
        <ele>119.6</ele>
        <time>2023-04-25T12:55:42Z</time>
      </trkpt>
      <trkpt lat="49.16445" lon="-0.82728">
        <ele>119.8</ele>
        <time>2023-04-25T12:55:43Z</time>
      </trkpt>
      <trkpt lat="49.16447" lon="-0.82725">
        <ele>119.8</ele>
        <time>2023-04-25T12:55:44Z</time>
      </trkpt>
      <trkpt lat="49.16449" lon="-0.82722">
        <ele>120</ele>
        <time>2023-04-25T12:55:45Z</time>
      </trkpt>
      <trkpt lat="49.16451" lon="-0.82718">
        <ele>120</ele>
        <time>2023-04-25T12:55:46Z</time>
      </trkpt>
      <trkpt lat="49.16454" lon="-0.82715">
        <ele>120</ele>
        <time>2023-04-25T12:55:47Z</time>
      </trkpt>
      <trkpt lat="49.16456" lon="-0.82712">
        <ele>120.2</ele>
        <time>2023-04-25T12:55:48Z</time>
      </trkpt>
      <trkpt lat="49.16459" lon="-0.82709">
        <ele>120.4</ele>
        <time>2023-04-25T12:55:49Z</time>
      </trkpt>
      <trkpt lat="49.16461" lon="-0.82706">
        <ele>120.4</ele>
        <time>2023-04-25T12:55:50Z</time>
      </trkpt>
      <trkpt lat="49.16464" lon="-0.82704">
        <ele>120.4</ele>
        <time>2023-04-25T12:55:51Z</time>
      </trkpt>
      <trkpt lat="49.16466" lon="-0.82701">
        <ele>120.6</ele>
        <time>2023-04-25T12:55:52Z</time>
      </trkpt>
      <trkpt lat="49.16469" lon="-0.82698">
        <ele>120.6</ele>
        <time>2023-04-25T12:55:53Z</time>
      </trkpt>
      <trkpt lat="49.16471" lon="-0.82695">
        <ele>120.6</ele>
        <time>2023-04-25T12:55:54Z</time>
      </trkpt>
      <trkpt lat="49.16474" lon="-0.82693">
        <ele>121</ele>
        <time>2023-04-25T12:55:55Z</time>
      </trkpt>
      <trkpt lat="49.16477" lon="-0.8269">
        <ele>121</ele>
        <time>2023-04-25T12:55:56Z</time>
      </trkpt>
      <trkpt lat="49.16479" lon="-0.82687">
        <ele>121</ele>
        <time>2023-04-25T12:55:57Z</time>
      </trkpt>
      <trkpt lat="49.16482" lon="-0.82685">
        <ele>121.2</ele>
        <time>2023-04-25T12:55:58Z</time>
      </trkpt>
      <trkpt lat="49.16485" lon="-0.82683">
        <ele>121.4</ele>
        <time>2023-04-25T12:55:59Z</time>
      </trkpt>
      <trkpt lat="49.16488" lon="-0.82681">
        <ele>121.4</ele>
        <time>2023-04-25T12:56:00Z</time>
      </trkpt>
      <trkpt lat="49.16491" lon="-0.82679">
        <ele>121.6</ele>
        <time>2023-04-25T12:56:01Z</time>
      </trkpt>
      <trkpt lat="49.16494" lon="-0.82677">
        <ele>121.6</ele>
        <time>2023-04-25T12:56:02Z</time>
      </trkpt>
      <trkpt lat="49.16497" lon="-0.82675">
        <ele>121.8</ele>
        <time>2023-04-25T12:56:03Z</time>
      </trkpt>
      <trkpt lat="49.165" lon="-0.82673">
        <ele>122</ele>
        <time>2023-04-25T12:56:04Z</time>
      </trkpt>
      <trkpt lat="49.16503" lon="-0.82671">
        <ele>122</ele>
        <time>2023-04-25T12:56:05Z</time>
      </trkpt>
      <trkpt lat="49.16506" lon="-0.8267">
        <ele>122</ele>
        <time>2023-04-25T12:56:06Z</time>
      </trkpt>
      <trkpt lat="49.16509" lon="-0.82668">
        <ele>122</ele>
        <time>2023-04-25T12:56:07Z</time>
      </trkpt>
      <trkpt lat="49.16512" lon="-0.82666">
        <ele>122</ele>
        <time>2023-04-25T12:56:08Z</time>
      </trkpt>
      <trkpt lat="49.16515" lon="-0.82665">
        <ele>122.2</ele>
        <time>2023-04-25T12:56:09Z</time>
      </trkpt>
      <trkpt lat="49.16518" lon="-0.82663">
        <ele>122.4</ele>
        <time>2023-04-25T12:56:10Z</time>
      </trkpt>
      <trkpt lat="49.16521" lon="-0.82661">
        <ele>122.4</ele>
        <time>2023-04-25T12:56:11Z</time>
      </trkpt>
      <trkpt lat="49.16524" lon="-0.8266">
        <ele>122.4</ele>
        <time>2023-04-25T12:56:12Z</time>
      </trkpt>
      <trkpt lat="49.16527" lon="-0.82658">
        <ele>122.6</ele>
        <time>2023-04-25T12:56:13Z</time>
      </trkpt>
      <trkpt lat="49.1653" lon="-0.82657">
        <ele>122.6</ele>
        <time>2023-04-25T12:56:14Z</time>
      </trkpt>
      <trkpt lat="49.16533" lon="-0.82655">
        <ele>122.6</ele>
        <time>2023-04-25T12:56:15Z</time>
      </trkpt>
      <trkpt lat="49.16536" lon="-0.82653">
        <ele>122.6</ele>
        <time>2023-04-25T12:56:16Z</time>
      </trkpt>
      <trkpt lat="49.16539" lon="-0.82652">
        <ele>122.8</ele>
        <time>2023-04-25T12:56:17Z</time>
      </trkpt>
      <trkpt lat="49.16542" lon="-0.8265">
        <ele>123</ele>
        <time>2023-04-25T12:56:18Z</time>
      </trkpt>
      <trkpt lat="49.16545" lon="-0.82648">
        <ele>123</ele>
        <time>2023-04-25T12:56:19Z</time>
      </trkpt>
      <trkpt lat="49.16548" lon="-0.82647">
        <ele>123</ele>
        <time>2023-04-25T12:56:20Z</time>
      </trkpt>
      <trkpt lat="49.16551" lon="-0.82645">
        <ele>123.2</ele>
        <time>2023-04-25T12:56:21Z</time>
      </trkpt>
      <trkpt lat="49.16554" lon="-0.82643">
        <ele>123.4</ele>
        <time>2023-04-25T12:56:22Z</time>
      </trkpt>
      <trkpt lat="49.16557" lon="-0.82641">
        <ele>123.4</ele>
        <time>2023-04-25T12:56:23Z</time>
      </trkpt>
      <trkpt lat="49.1656" lon="-0.82639">
        <ele>123.6</ele>
        <time>2023-04-25T12:56:24Z</time>
      </trkpt>
      <trkpt lat="49.16563" lon="-0.82636">
        <ele>123.6</ele>
        <time>2023-04-25T12:56:25Z</time>
      </trkpt>
      <trkpt lat="49.16566" lon="-0.82634">
        <ele>123.8</ele>
        <time>2023-04-25T12:56:26Z</time>
      </trkpt>
      <trkpt lat="49.16569" lon="-0.82631">
        <ele>124</ele>
        <time>2023-04-25T12:56:27Z</time>
      </trkpt>
      <trkpt lat="49.16572" lon="-0.82628">
        <ele>124</ele>
        <time>2023-04-25T12:56:28Z</time>
      </trkpt>
      <trkpt lat="49.16574" lon="-0.82625">
        <ele>124.4</ele>
        <time>2023-04-25T12:56:29Z</time>
      </trkpt>
      <trkpt lat="49.16577" lon="-0.82622">
        <ele>124.4</ele>
        <time>2023-04-25T12:56:30Z</time>
      </trkpt>
      <trkpt lat="49.16579" lon="-0.82618">
        <ele>124.6</ele>
        <time>2023-04-25T12:56:31Z</time>
      </trkpt>
      <trkpt lat="49.16582" lon="-0.82615">
        <ele>124.8</ele>
        <time>2023-04-25T12:56:32Z</time>
      </trkpt>
      <trkpt lat="49.16584" lon="-0.82611">
        <ele>125</ele>
        <time>2023-04-25T12:56:33Z</time>
      </trkpt>
      <trkpt lat="49.16586" lon="-0.82608">
        <ele>125</ele>
        <time>2023-04-25T12:56:34Z</time>
      </trkpt>
      <trkpt lat="49.16588" lon="-0.82604">
        <ele>125.2</ele>
        <time>2023-04-25T12:56:35Z</time>
      </trkpt>
      <trkpt lat="49.16591" lon="-0.826">
        <ele>125.4</ele>
        <time>2023-04-25T12:56:36Z</time>
      </trkpt>
      <trkpt lat="49.16593" lon="-0.82596">
        <ele>125.4</ele>
        <time>2023-04-25T12:56:37Z</time>
      </trkpt>
      <trkpt lat="49.16595" lon="-0.82592">
        <ele>125.6</ele>
        <time>2023-04-25T12:56:38Z</time>
      </trkpt>
      <trkpt lat="49.16597" lon="-0.82588">
        <ele>125.6</ele>
        <time>2023-04-25T12:56:39Z</time>
      </trkpt>
      <trkpt lat="49.16599" lon="-0.82584">
        <ele>125.8</ele>
        <time>2023-04-25T12:56:40Z</time>
      </trkpt>
      <trkpt lat="49.16601" lon="-0.8258">
        <ele>126</ele>
        <time>2023-04-25T12:56:41Z</time>
      </trkpt>
      <trkpt lat="49.16603" lon="-0.82576">
        <ele>126</ele>
        <time>2023-04-25T12:56:42Z</time>
      </trkpt>
      <trkpt lat="49.16605" lon="-0.82571">
        <ele>126</ele>
        <time>2023-04-25T12:56:43Z</time>
      </trkpt>
      <trkpt lat="49.16608" lon="-0.82567">
        <ele>126.2</ele>
        <time>2023-04-25T12:56:44Z</time>
      </trkpt>
      <trkpt lat="49.1661" lon="-0.82563">
        <ele>126.2</ele>
        <time>2023-04-25T12:56:45Z</time>
      </trkpt>
      <trkpt lat="49.16612" lon="-0.82559">
        <ele>126.4</ele>
        <time>2023-04-25T12:56:46Z</time>
      </trkpt>
      <trkpt lat="49.16614" lon="-0.82555">
        <ele>126.4</ele>
        <time>2023-04-25T12:56:47Z</time>
      </trkpt>
      <trkpt lat="49.16617" lon="-0.8255">
        <ele>126.6</ele>
        <time>2023-04-25T12:56:48Z</time>
      </trkpt>
      <trkpt lat="49.16619" lon="-0.82546">
        <ele>126.6</ele>
        <time>2023-04-25T12:56:49Z</time>
      </trkpt>
      <trkpt lat="49.16621" lon="-0.82542">
        <ele>126.8</ele>
        <time>2023-04-25T12:56:50Z</time>
      </trkpt>
      <trkpt lat="49.16623" lon="-0.82538">
        <ele>127</ele>
        <time>2023-04-25T12:56:51Z</time>
      </trkpt>
      <trkpt lat="49.16626" lon="-0.82533">
        <ele>127</ele>
        <time>2023-04-25T12:56:52Z</time>
      </trkpt>
      <trkpt lat="49.16628" lon="-0.82529">
        <ele>127</ele>
        <time>2023-04-25T12:56:53Z</time>
      </trkpt>
      <trkpt lat="49.16631" lon="-0.82524">
        <ele>127.4</ele>
        <time>2023-04-25T12:56:54Z</time>
      </trkpt>
      <trkpt lat="49.16633" lon="-0.82519">
        <ele>127.4</ele>
        <time>2023-04-25T12:56:55Z</time>
      </trkpt>
      <trkpt lat="49.16636" lon="-0.82514">
        <ele>127.6</ele>
        <time>2023-04-25T12:56:56Z</time>
      </trkpt>
      <trkpt lat="49.16638" lon="-0.82509">
        <ele>127.6</ele>
        <time>2023-04-25T12:56:57Z</time>
      </trkpt>
      <trkpt lat="49.16641" lon="-0.82504">
        <ele>128</ele>
        <time>2023-04-25T12:56:58Z</time>
      </trkpt>
      <trkpt lat="49.16644" lon="-0.82498">
        <ele>128</ele>
        <time>2023-04-25T12:56:59Z</time>
      </trkpt>
      <trkpt lat="49.16647" lon="-0.82493">
        <ele>128.2</ele>
        <time>2023-04-25T12:57:00Z</time>
      </trkpt>
      <trkpt lat="49.1665" lon="-0.82488">
        <ele>128.2</ele>
        <time>2023-04-25T12:57:01Z</time>
      </trkpt>
      <trkpt lat="49.16653" lon="-0.82482">
        <ele>128.2</ele>
        <time>2023-04-25T12:57:02Z</time>
      </trkpt>
      <trkpt lat="49.16655" lon="-0.82477">
        <ele>128.2</ele>
        <time>2023-04-25T12:57:03Z</time>
      </trkpt>
      <trkpt lat="49.16658" lon="-0.82471">
        <ele>128.4</ele>
        <time>2023-04-25T12:57:04Z</time>
      </trkpt>
      <trkpt lat="49.16661" lon="-0.82466">
        <ele>128.4</ele>
        <time>2023-04-25T12:57:05Z</time>
      </trkpt>
      <trkpt lat="49.16664" lon="-0.8246">
        <ele>128.6</ele>
        <time>2023-04-25T12:57:06Z</time>
      </trkpt>
      <trkpt lat="49.16667" lon="-0.82455">
        <ele>128.6</ele>
        <time>2023-04-25T12:57:07Z</time>
      </trkpt>
      <trkpt lat="49.1667" lon="-0.82449">
        <ele>128.6</ele>
        <time>2023-04-25T12:57:08Z</time>
      </trkpt>
      <trkpt lat="49.16673" lon="-0.82444">
        <ele>128.6</ele>
        <time>2023-04-25T12:57:09Z</time>
      </trkpt>
      <trkpt lat="49.16676" lon="-0.82438">
        <ele>128.4</ele>
        <time>2023-04-25T12:57:10Z</time>
      </trkpt>
      <trkpt lat="49.16679" lon="-0.82433">
        <ele>128.4</ele>
        <time>2023-04-25T12:57:11Z</time>
      </trkpt>
      <trkpt lat="49.16682" lon="-0.82427">
        <ele>128.4</ele>
        <time>2023-04-25T12:57:12Z</time>
      </trkpt>
      <trkpt lat="49.16685" lon="-0.82422">
        <ele>128.4</ele>
        <time>2023-04-25T12:57:13Z</time>
      </trkpt>
      <trkpt lat="49.16688" lon="-0.82416">
        <ele>128.2</ele>
        <time>2023-04-25T12:57:14Z</time>
      </trkpt>
      <trkpt lat="49.16691" lon="-0.8241">
        <ele>128.2</ele>
        <time>2023-04-25T12:57:15Z</time>
      </trkpt>
      <trkpt lat="49.16694" lon="-0.82405">
        <ele>128.2</ele>
        <time>2023-04-25T12:57:16Z</time>
      </trkpt>
      <trkpt lat="49.16697" lon="-0.82399">
        <ele>128.2</ele>
        <time>2023-04-25T12:57:17Z</time>
      </trkpt>
      <trkpt lat="49.167" lon="-0.82393">
        <ele>128</ele>
        <time>2023-04-25T12:57:18Z</time>
      </trkpt>
      <trkpt lat="49.16703" lon="-0.82388">
        <ele>128</ele>
        <time>2023-04-25T12:57:19Z</time>
      </trkpt>
      <trkpt lat="49.16706" lon="-0.82382">
        <ele>128</ele>
        <time>2023-04-25T12:57:20Z</time>
      </trkpt>
      <trkpt lat="49.16709" lon="-0.82377">
        <ele>128</ele>
        <time>2023-04-25T12:57:21Z</time>
      </trkpt>
      <trkpt lat="49.16712" lon="-0.82371">
        <ele>128</ele>
        <time>2023-04-25T12:57:22Z</time>
      </trkpt>
      <trkpt lat="49.16715" lon="-0.82365">
        <ele>128</ele>
        <time>2023-04-25T12:57:23Z</time>
      </trkpt>
      <trkpt lat="49.16718" lon="-0.82359">
        <ele>128</ele>
        <time>2023-04-25T12:57:24Z</time>
      </trkpt>
      <trkpt lat="49.16721" lon="-0.82354">
        <ele>128</ele>
        <time>2023-04-25T12:57:25Z</time>
      </trkpt>
      <trkpt lat="49.16724" lon="-0.82348">
        <ele>128.2</ele>
        <time>2023-04-25T12:57:26Z</time>
      </trkpt>
      <trkpt lat="49.16728" lon="-0.82342">
        <ele>128.2</ele>
        <time>2023-04-25T12:57:27Z</time>
      </trkpt>
      <trkpt lat="49.16731" lon="-0.82336">
        <ele>128.2</ele>
        <time>2023-04-25T12:57:28Z</time>
      </trkpt>
      <trkpt lat="49.16734" lon="-0.8233">
        <ele>128.4</ele>
        <time>2023-04-25T12:57:29Z</time>
      </trkpt>
      <trkpt lat="49.16737" lon="-0.82324">
        <ele>128.4</ele>
        <time>2023-04-25T12:57:30Z</time>
      </trkpt>
      <trkpt lat="49.1674" lon="-0.82319">
        <ele>128.4</ele>
        <time>2023-04-25T12:57:31Z</time>
      </trkpt>
      <trkpt lat="49.16743" lon="-0.82313">
        <ele>128.6</ele>
        <time>2023-04-25T12:57:32Z</time>
      </trkpt>
      <trkpt lat="49.16746" lon="-0.82307">
        <ele>128.6</ele>
        <time>2023-04-25T12:57:33Z</time>
      </trkpt>
      <trkpt lat="49.16749" lon="-0.82301">
        <ele>128.8</ele>
        <time>2023-04-25T12:57:34Z</time>
      </trkpt>
      <trkpt lat="49.16753" lon="-0.82295">
        <ele>128.8</ele>
        <time>2023-04-25T12:57:35Z</time>
      </trkpt>
      <trkpt lat="49.16756" lon="-0.82289">
        <ele>128.8</ele>
        <time>2023-04-25T12:57:36Z</time>
      </trkpt>
      <trkpt lat="49.16759" lon="-0.82283">
        <ele>128.8</ele>
        <time>2023-04-25T12:57:37Z</time>
      </trkpt>
      <trkpt lat="49.16762" lon="-0.82277">
        <ele>129</ele>
        <time>2023-04-25T12:57:38Z</time>
      </trkpt>
      <trkpt lat="49.16765" lon="-0.82271">
        <ele>129</ele>
        <time>2023-04-25T12:57:39Z</time>
      </trkpt>
      <trkpt lat="49.16769" lon="-0.82264">
        <ele>129</ele>
        <time>2023-04-25T12:57:40Z</time>
      </trkpt>
      <trkpt lat="49.16772" lon="-0.82258">
        <ele>129</ele>
        <time>2023-04-25T12:57:41Z</time>
      </trkpt>
      <trkpt lat="49.16775" lon="-0.82252">
        <ele>129</ele>
        <time>2023-04-25T12:57:42Z</time>
      </trkpt>
      <trkpt lat="49.16778" lon="-0.82246">
        <ele>129</ele>
        <time>2023-04-25T12:57:43Z</time>
      </trkpt>
      <trkpt lat="49.16782" lon="-0.8224">
        <ele>128.8</ele>
        <time>2023-04-25T12:57:44Z</time>
      </trkpt>
      <trkpt lat="49.16785" lon="-0.82234">
        <ele>128.8</ele>
        <time>2023-04-25T12:57:45Z</time>
      </trkpt>
      <trkpt lat="49.16788" lon="-0.82228">
        <ele>128.8</ele>
        <time>2023-04-25T12:57:46Z</time>
      </trkpt>
      <trkpt lat="49.16791" lon="-0.82222">
        <ele>128.8</ele>
        <time>2023-04-25T12:57:47Z</time>
      </trkpt>
      <trkpt lat="49.16795" lon="-0.82216">
        <ele>128.8</ele>
        <time>2023-04-25T12:57:48Z</time>
      </trkpt>
      <trkpt lat="49.16798" lon="-0.8221">
        <ele>128.8</ele>
        <time>2023-04-25T12:57:49Z</time>
      </trkpt>
      <trkpt lat="49.16801" lon="-0.82204">
        <ele>128.8</ele>
        <time>2023-04-25T12:57:50Z</time>
      </trkpt>
      <trkpt lat="49.16805" lon="-0.82198">
        <ele>128.8</ele>
        <time>2023-04-25T12:57:51Z</time>
      </trkpt>
      <trkpt lat="49.16808" lon="-0.82192">
        <ele>128.8</ele>
        <time>2023-04-25T12:57:52Z</time>
      </trkpt>
      <trkpt lat="49.16811" lon="-0.82185">
        <ele>128.8</ele>
        <time>2023-04-25T12:57:53Z</time>
      </trkpt>
      <trkpt lat="49.16815" lon="-0.82179">
        <ele>129</ele>
        <time>2023-04-25T12:57:54Z</time>
      </trkpt>
      <trkpt lat="49.16818" lon="-0.82173">
        <ele>129.2</ele>
        <time>2023-04-25T12:57:55Z</time>
      </trkpt>
      <trkpt lat="49.16821" lon="-0.82167">
        <ele>129.2</ele>
        <time>2023-04-25T12:57:56Z</time>
      </trkpt>
      <trkpt lat="49.16825" lon="-0.82161">
        <ele>129.2</ele>
        <time>2023-04-25T12:57:57Z</time>
      </trkpt>
      <trkpt lat="49.16828" lon="-0.82155">
        <ele>129</ele>
        <time>2023-04-25T12:57:58Z</time>
      </trkpt>
      <trkpt lat="49.16831" lon="-0.82148">
        <ele>129</ele>
        <time>2023-04-25T12:57:59Z</time>
      </trkpt>
      <trkpt lat="49.16835" lon="-0.82142">
        <ele>129</ele>
        <time>2023-04-25T12:58:00Z</time>
      </trkpt>
      <trkpt lat="49.16838" lon="-0.82136">
        <ele>128.8</ele>
        <time>2023-04-25T12:58:01Z</time>
      </trkpt>
      <trkpt lat="49.16842" lon="-0.82129">
        <ele>128.8</ele>
        <time>2023-04-25T12:58:02Z</time>
      </trkpt>
      <trkpt lat="49.16845" lon="-0.82123">
        <ele>128.6</ele>
        <time>2023-04-25T12:58:03Z</time>
      </trkpt>
      <trkpt lat="49.16848" lon="-0.82116">
        <ele>128.6</ele>
        <time>2023-04-25T12:58:04Z</time>
      </trkpt>
      <trkpt lat="49.16852" lon="-0.8211">
        <ele>128.6</ele>
        <time>2023-04-25T12:58:05Z</time>
      </trkpt>
      <trkpt lat="49.16855" lon="-0.82103">
        <ele>128.6</ele>
        <time>2023-04-25T12:58:06Z</time>
      </trkpt>
      <trkpt lat="49.16859" lon="-0.82097">
        <ele>128.4</ele>
        <time>2023-04-25T12:58:07Z</time>
      </trkpt>
      <trkpt lat="49.16862" lon="-0.8209">
        <ele>128.4</ele>
        <time>2023-04-25T12:58:08Z</time>
      </trkpt>
      <trkpt lat="49.16866" lon="-0.82083">
        <ele>128.2</ele>
        <time>2023-04-25T12:58:09Z</time>
      </trkpt>
      <trkpt lat="49.16869" lon="-0.82076">
        <ele>128.2</ele>
        <time>2023-04-25T12:58:10Z</time>
      </trkpt>
      <trkpt lat="49.16873" lon="-0.8207">
        <ele>128.2</ele>
        <time>2023-04-25T12:58:11Z</time>
      </trkpt>
      <trkpt lat="49.16876" lon="-0.82063">
        <ele>128.2</ele>
        <time>2023-04-25T12:58:12Z</time>
      </trkpt>
      <trkpt lat="49.1688" lon="-0.82056">
        <ele>128.2</ele>
        <time>2023-04-25T12:58:13Z</time>
      </trkpt>
      <trkpt lat="49.16883" lon="-0.82049">
        <ele>128</ele>
        <time>2023-04-25T12:58:14Z</time>
      </trkpt>
      <trkpt lat="49.16887" lon="-0.82042">
        <ele>128</ele>
        <time>2023-04-25T12:58:15Z</time>
      </trkpt>
      <trkpt lat="49.1689" lon="-0.82035">
        <ele>128</ele>
        <time>2023-04-25T12:58:16Z</time>
      </trkpt>
      <trkpt lat="49.16894" lon="-0.82028">
        <ele>128</ele>
        <time>2023-04-25T12:58:17Z</time>
      </trkpt>
      <trkpt lat="49.16898" lon="-0.82021">
        <ele>128</ele>
        <time>2023-04-25T12:58:18Z</time>
      </trkpt>
      <trkpt lat="49.16901" lon="-0.82014">
        <ele>128</ele>
        <time>2023-04-25T12:58:19Z</time>
      </trkpt>
      <trkpt lat="49.16905" lon="-0.82007">
        <ele>128.2</ele>
        <time>2023-04-25T12:58:20Z</time>
      </trkpt>
      <trkpt lat="49.16909" lon="-0.82">
        <ele>128.2</ele>
        <time>2023-04-25T12:58:21Z</time>
      </trkpt>
      <trkpt lat="49.16912" lon="-0.81993">
        <ele>128.2</ele>
        <time>2023-04-25T12:58:22Z</time>
      </trkpt>
      <trkpt lat="49.16916" lon="-0.81986">
        <ele>128.2</ele>
        <time>2023-04-25T12:58:23Z</time>
      </trkpt>
      <trkpt lat="49.1692" lon="-0.81979">
        <ele>128.2</ele>
        <time>2023-04-25T12:58:24Z</time>
      </trkpt>
      <trkpt lat="49.16924" lon="-0.81972">
        <ele>128</ele>
        <time>2023-04-25T12:58:25Z</time>
      </trkpt>
      <trkpt lat="49.16928" lon="-0.81965">
        <ele>128</ele>
        <time>2023-04-25T12:58:26Z</time>
      </trkpt>
      <trkpt lat="49.16932" lon="-0.81959">
        <ele>128</ele>
        <time>2023-04-25T12:58:27Z</time>
      </trkpt>
      <trkpt lat="49.16936" lon="-0.81952">
        <ele>128</ele>
        <time>2023-04-25T12:58:28Z</time>
      </trkpt>
      <trkpt lat="49.16939" lon="-0.81945">
        <ele>128</ele>
        <time>2023-04-25T12:58:29Z</time>
      </trkpt>
      <trkpt lat="49.16943" lon="-0.81938">
        <ele>128</ele>
        <time>2023-04-25T12:58:30Z</time>
      </trkpt>
      <trkpt lat="49.16947" lon="-0.81931">
        <ele>128</ele>
        <time>2023-04-25T12:58:31Z</time>
      </trkpt>
      <trkpt lat="49.1695" lon="-0.81924">
        <ele>128</ele>
        <time>2023-04-25T12:58:32Z</time>
      </trkpt>
      <trkpt lat="49.16954" lon="-0.81917">
        <ele>128.2</ele>
        <time>2023-04-25T12:58:33Z</time>
      </trkpt>
      <trkpt lat="49.16958" lon="-0.8191">
        <ele>128.2</ele>
        <time>2023-04-25T12:58:34Z</time>
      </trkpt>
      <trkpt lat="49.16961" lon="-0.81904">
        <ele>128.4</ele>
        <time>2023-04-25T12:58:35Z</time>
      </trkpt>
      <trkpt lat="49.16965" lon="-0.81897">
        <ele>128.4</ele>
        <time>2023-04-25T12:58:36Z</time>
      </trkpt>
      <trkpt lat="49.16968" lon="-0.81891">
        <ele>128.4</ele>
        <time>2023-04-25T12:58:37Z</time>
      </trkpt>
      <trkpt lat="49.16972" lon="-0.81885">
        <ele>128.6</ele>
        <time>2023-04-25T12:58:38Z</time>
      </trkpt>
      <trkpt lat="49.16976" lon="-0.81878">
        <ele>128.6</ele>
        <time>2023-04-25T12:58:39Z</time>
      </trkpt>
      <trkpt lat="49.1698" lon="-0.81871">
        <ele>128.8</ele>
        <time>2023-04-25T12:58:40Z</time>
      </trkpt>
      <trkpt lat="49.16983" lon="-0.81864">
        <ele>129.2</ele>
        <time>2023-04-25T12:58:41Z</time>
      </trkpt>
      <trkpt lat="49.16987" lon="-0.81856">
        <ele>129.4</ele>
        <time>2023-04-25T12:58:42Z</time>
      </trkpt>
      <trkpt lat="49.16991" lon="-0.81849">
        <ele>129.6</ele>
        <time>2023-04-25T12:58:43Z</time>
      </trkpt>
      <trkpt lat="49.16995" lon="-0.81842">
        <ele>129.6</ele>
        <time>2023-04-25T12:58:44Z</time>
      </trkpt>
      <trkpt lat="49.16999" lon="-0.81835">
        <ele>129.8</ele>
        <time>2023-04-25T12:58:45Z</time>
      </trkpt>
      <trkpt lat="49.17003" lon="-0.81828">
        <ele>129.8</ele>
        <time>2023-04-25T12:58:46Z</time>
      </trkpt>
      <trkpt lat="49.17007" lon="-0.81821">
        <ele>129.6</ele>
        <time>2023-04-25T12:58:47Z</time>
      </trkpt>
      <trkpt lat="49.17011" lon="-0.81814">
        <ele>129.6</ele>
        <time>2023-04-25T12:58:48Z</time>
      </trkpt>
      <trkpt lat="49.17015" lon="-0.81807">
        <ele>129.4</ele>
        <time>2023-04-25T12:58:49Z</time>
      </trkpt>
      <trkpt lat="49.17019" lon="-0.81799">
        <ele>129.2</ele>
        <time>2023-04-25T12:58:50Z</time>
      </trkpt>
      <trkpt lat="49.17023" lon="-0.81792">
        <ele>128.8</ele>
        <time>2023-04-25T12:58:51Z</time>
      </trkpt>
      <trkpt lat="49.17027" lon="-0.81785">
        <ele>128.6</ele>
        <time>2023-04-25T12:58:52Z</time>
      </trkpt>
      <trkpt lat="49.17031" lon="-0.81778">
        <ele>128.6</ele>
        <time>2023-04-25T12:58:53Z</time>
      </trkpt>
      <trkpt lat="49.17035" lon="-0.8177">
        <ele>128.4</ele>
        <time>2023-04-25T12:58:54Z</time>
      </trkpt>
      <trkpt lat="49.17039" lon="-0.81763">
        <ele>128</ele>
        <time>2023-04-25T12:58:55Z</time>
      </trkpt>
      <trkpt lat="49.17043" lon="-0.81755">
        <ele>127.8</ele>
        <time>2023-04-25T12:58:56Z</time>
      </trkpt>
      <trkpt lat="49.17047" lon="-0.81748">
        <ele>127.6</ele>
        <time>2023-04-25T12:58:57Z</time>
      </trkpt>
      <trkpt lat="49.17051" lon="-0.8174">
        <ele>127.6</ele>
        <time>2023-04-25T12:58:58Z</time>
      </trkpt>
      <trkpt lat="49.17055" lon="-0.81732">
        <ele>127.4</ele>
        <time>2023-04-25T12:58:59Z</time>
      </trkpt>
      <trkpt lat="49.17059" lon="-0.81724">
        <ele>127.4</ele>
        <time>2023-04-25T12:59:00Z</time>
      </trkpt>
      <trkpt lat="49.17063" lon="-0.81717">
        <ele>127.4</ele>
        <time>2023-04-25T12:59:01Z</time>
      </trkpt>
      <trkpt lat="49.17068" lon="-0.81709">
        <ele>127.4</ele>
        <time>2023-04-25T12:59:02Z</time>
      </trkpt>
      <trkpt lat="49.17072" lon="-0.81701">
        <ele>127.4</ele>
        <time>2023-04-25T12:59:03Z</time>
      </trkpt>
      <trkpt lat="49.17076" lon="-0.81693">
        <ele>127.4</ele>
        <time>2023-04-25T12:59:04Z</time>
      </trkpt>
      <trkpt lat="49.1708" lon="-0.81686">
        <ele>127.4</ele>
        <time>2023-04-25T12:59:05Z</time>
      </trkpt>
      <trkpt lat="49.17084" lon="-0.81679">
        <ele>127.4</ele>
        <time>2023-04-25T12:59:06Z</time>
      </trkpt>
      <trkpt lat="49.17088" lon="-0.81671">
        <ele>127.6</ele>
        <time>2023-04-25T12:59:07Z</time>
      </trkpt>
      <trkpt lat="49.17091" lon="-0.81664">
        <ele>127.6</ele>
        <time>2023-04-25T12:59:08Z</time>
      </trkpt>
      <trkpt lat="49.17095" lon="-0.81658">
        <ele>128</ele>
        <time>2023-04-25T12:59:09Z</time>
      </trkpt>
      <trkpt lat="49.17098" lon="-0.81651">
        <ele>128.2</ele>
        <time>2023-04-25T12:59:10Z</time>
      </trkpt>
      <trkpt lat="49.17101" lon="-0.81645">
        <ele>128.2</ele>
        <time>2023-04-25T12:59:11Z</time>
      </trkpt>
      <trkpt lat="49.17104" lon="-0.81639">
        <ele>128.4</ele>
        <time>2023-04-25T12:59:12Z</time>
      </trkpt>
      <trkpt lat="49.17108" lon="-0.81633">
        <ele>128.4</ele>
        <time>2023-04-25T12:59:13Z</time>
      </trkpt>
      <trkpt lat="49.17111" lon="-0.81627">
        <ele>128.4</ele>
        <time>2023-04-25T12:59:14Z</time>
      </trkpt>
      <trkpt lat="49.17114" lon="-0.81621">
        <ele>128.6</ele>
        <time>2023-04-25T12:59:15Z</time>
      </trkpt>
      <trkpt lat="49.17117" lon="-0.81614">
        <ele>128.4</ele>
        <time>2023-04-25T12:59:16Z</time>
      </trkpt>
      <trkpt lat="49.17121" lon="-0.81608">
        <ele>128.4</ele>
        <time>2023-04-25T12:59:17Z</time>
      </trkpt>
      <trkpt lat="49.17125" lon="-0.81601">
        <ele>128.4</ele>
        <time>2023-04-25T12:59:18Z</time>
      </trkpt>
      <trkpt lat="49.17128" lon="-0.81595">
        <ele>128.2</ele>
        <time>2023-04-25T12:59:19Z</time>
      </trkpt>
      <trkpt lat="49.17132" lon="-0.81588">
        <ele>128</ele>
        <time>2023-04-25T12:59:20Z</time>
      </trkpt>
      <trkpt lat="49.17135" lon="-0.81582">
        <ele>128</ele>
        <time>2023-04-25T12:59:21Z</time>
      </trkpt>
      <trkpt lat="49.17138" lon="-0.81575">
        <ele>128</ele>
        <time>2023-04-25T12:59:22Z</time>
      </trkpt>
      <trkpt lat="49.17142" lon="-0.81569">
        <ele>128.2</ele>
        <time>2023-04-25T12:59:23Z</time>
      </trkpt>
      <trkpt lat="49.17145" lon="-0.81563">
        <ele>128.4</ele>
        <time>2023-04-25T12:59:24Z</time>
      </trkpt>
      <trkpt lat="49.17148" lon="-0.81557">
        <ele>128.4</ele>
        <time>2023-04-25T12:59:25Z</time>
      </trkpt>
      <trkpt lat="49.17151" lon="-0.81551">
        <ele>128.6</ele>
        <time>2023-04-25T12:59:26Z</time>
      </trkpt>
      <trkpt lat="49.17154" lon="-0.81545">
        <ele>128.8</ele>
        <time>2023-04-25T12:59:27Z</time>
      </trkpt>
      <trkpt lat="49.17157" lon="-0.81539">
        <ele>129.2</ele>
        <time>2023-04-25T12:59:28Z</time>
      </trkpt>
      <trkpt lat="49.1716" lon="-0.81534">
        <ele>129.4</ele>
        <time>2023-04-25T12:59:29Z</time>
      </trkpt>
      <trkpt lat="49.17163" lon="-0.81528">
        <ele>129.6</ele>
        <time>2023-04-25T12:59:30Z</time>
      </trkpt>
      <trkpt lat="49.17166" lon="-0.81523">
        <ele>129.8</ele>
        <time>2023-04-25T12:59:31Z</time>
      </trkpt>
      <trkpt lat="49.17169" lon="-0.81517">
        <ele>130.2</ele>
        <time>2023-04-25T12:59:32Z</time>
      </trkpt>
      <trkpt lat="49.17172" lon="-0.81512">
        <ele>130.4</ele>
        <time>2023-04-25T12:59:33Z</time>
      </trkpt>
      <trkpt lat="49.17175" lon="-0.81506">
        <ele>130.6</ele>
        <time>2023-04-25T12:59:34Z</time>
      </trkpt>
      <trkpt lat="49.17178" lon="-0.815">
        <ele>130.6</ele>
        <time>2023-04-25T12:59:35Z</time>
      </trkpt>
      <trkpt lat="49.17181" lon="-0.81495">
        <ele>130.6</ele>
        <time>2023-04-25T12:59:36Z</time>
      </trkpt>
      <trkpt lat="49.17184" lon="-0.81489">
        <ele>130.4</ele>
        <time>2023-04-25T12:59:37Z</time>
      </trkpt>
      <trkpt lat="49.17187" lon="-0.81483">
        <ele>130.4</ele>
        <time>2023-04-25T12:59:38Z</time>
      </trkpt>
      <trkpt lat="49.17189" lon="-0.81478">
        <ele>130.2</ele>
        <time>2023-04-25T12:59:39Z</time>
      </trkpt>
      <trkpt lat="49.17192" lon="-0.81472">
        <ele>130</ele>
        <time>2023-04-25T12:59:40Z</time>
      </trkpt>
      <trkpt lat="49.17195" lon="-0.81467">
        <ele>129.8</ele>
        <time>2023-04-25T12:59:41Z</time>
      </trkpt>
      <trkpt lat="49.17198" lon="-0.81461">
        <ele>129.6</ele>
        <time>2023-04-25T12:59:42Z</time>
      </trkpt>
      <trkpt lat="49.17201" lon="-0.81456">
        <ele>129.6</ele>
        <time>2023-04-25T12:59:43Z</time>
      </trkpt>
      <trkpt lat="49.17204" lon="-0.8145">
        <ele>129.4</ele>
        <time>2023-04-25T12:59:44Z</time>
      </trkpt>
      <trkpt lat="49.17206" lon="-0.81445">
        <ele>129.2</ele>
        <time>2023-04-25T12:59:45Z</time>
      </trkpt>
      <trkpt lat="49.17209" lon="-0.8144">
        <ele>129</ele>
        <time>2023-04-25T12:59:46Z</time>
      </trkpt>
      <trkpt lat="49.17212" lon="-0.81435">
        <ele>128.8</ele>
        <time>2023-04-25T12:59:47Z</time>
      </trkpt>
      <trkpt lat="49.17215" lon="-0.8143">
        <ele>128.6</ele>
        <time>2023-04-25T12:59:48Z</time>
      </trkpt>
      <trkpt lat="49.17217" lon="-0.81425">
        <ele>128.4</ele>
        <time>2023-04-25T12:59:49Z</time>
      </trkpt>
      <trkpt lat="49.1722" lon="-0.81419">
        <ele>128.2</ele>
        <time>2023-04-25T12:59:50Z</time>
      </trkpt>
      <trkpt lat="49.17223" lon="-0.81414">
        <ele>128</ele>
        <time>2023-04-25T12:59:51Z</time>
      </trkpt>
      <trkpt lat="49.17225" lon="-0.81409">
        <ele>127.6</ele>
        <time>2023-04-25T12:59:52Z</time>
      </trkpt>
      <trkpt lat="49.17228" lon="-0.81404">
        <ele>127.4</ele>
        <time>2023-04-25T12:59:53Z</time>
      </trkpt>
      <trkpt lat="49.17231" lon="-0.81399">
        <ele>127.2</ele>
        <time>2023-04-25T12:59:54Z</time>
      </trkpt>
      <trkpt lat="49.17234" lon="-0.81393">
        <ele>127</ele>
        <time>2023-04-25T12:59:55Z</time>
      </trkpt>
      <trkpt lat="49.17237" lon="-0.81388">
        <ele>126.6</ele>
        <time>2023-04-25T12:59:56Z</time>
      </trkpt>
      <trkpt lat="49.1724" lon="-0.81382">
        <ele>126.6</ele>
        <time>2023-04-25T12:59:57Z</time>
      </trkpt>
      <trkpt lat="49.17243" lon="-0.81377">
        <ele>126.4</ele>
        <time>2023-04-25T12:59:58Z</time>
      </trkpt>
      <trkpt lat="49.17246" lon="-0.81371">
        <ele>126</ele>
        <time>2023-04-25T12:59:59Z</time>
      </trkpt>
      <trkpt lat="49.17249" lon="-0.81365">
        <ele>126</ele>
        <time>2023-04-25T13:00:00Z</time>
      </trkpt>
      <trkpt lat="49.17252" lon="-0.81359">
        <ele>126</ele>
        <time>2023-04-25T13:00:01Z</time>
      </trkpt>
      <trkpt lat="49.17255" lon="-0.81353">
        <ele>126</ele>
        <time>2023-04-25T13:00:02Z</time>
      </trkpt>
      <trkpt lat="49.17259" lon="-0.81347">
        <ele>126</ele>
        <time>2023-04-25T13:00:03Z</time>
      </trkpt>
      <trkpt lat="49.17262" lon="-0.81341">
        <ele>126.2</ele>
        <time>2023-04-25T13:00:04Z</time>
      </trkpt>
      <trkpt lat="49.17265" lon="-0.81335">
        <ele>126.2</ele>
        <time>2023-04-25T13:00:05Z</time>
      </trkpt>
      <trkpt lat="49.17269" lon="-0.81328">
        <ele>126.2</ele>
        <time>2023-04-25T13:00:06Z</time>
      </trkpt>
      <trkpt lat="49.17272" lon="-0.81322">
        <ele>126.4</ele>
        <time>2023-04-25T13:00:07Z</time>
      </trkpt>
      <trkpt lat="49.17276" lon="-0.81315">
        <ele>126.4</ele>
        <time>2023-04-25T13:00:08Z</time>
      </trkpt>
      <trkpt lat="49.17279" lon="-0.81308">
        <ele>126.4</ele>
        <time>2023-04-25T13:00:09Z</time>
      </trkpt>
      <trkpt lat="49.17283" lon="-0.81302">
        <ele>126.6</ele>
        <time>2023-04-25T13:00:10Z</time>
      </trkpt>
      <trkpt lat="49.17287" lon="-0.81295">
        <ele>126.6</ele>
        <time>2023-04-25T13:00:11Z</time>
      </trkpt>
      <trkpt lat="49.17291" lon="-0.81288">
        <ele>126.6</ele>
        <time>2023-04-25T13:00:12Z</time>
      </trkpt>
      <trkpt lat="49.17294" lon="-0.81281">
        <ele>126.8</ele>
        <time>2023-04-25T13:00:13Z</time>
      </trkpt>
      <trkpt lat="49.17298" lon="-0.81274">
        <ele>127</ele>
        <time>2023-04-25T13:00:14Z</time>
      </trkpt>
      <trkpt lat="49.17302" lon="-0.81267">
        <ele>127</ele>
        <time>2023-04-25T13:00:15Z</time>
      </trkpt>
      <trkpt lat="49.17306" lon="-0.8126">
        <ele>127.4</ele>
        <time>2023-04-25T13:00:16Z</time>
      </trkpt>
      <trkpt lat="49.17309" lon="-0.81253">
        <ele>127.6</ele>
        <time>2023-04-25T13:00:17Z</time>
      </trkpt>
      <trkpt lat="49.17313" lon="-0.81246">
        <ele>127.6</ele>
        <time>2023-04-25T13:00:18Z</time>
      </trkpt>
      <trkpt lat="49.17317" lon="-0.81239">
        <ele>128</ele>
        <time>2023-04-25T13:00:19Z</time>
      </trkpt>
      <trkpt lat="49.17321" lon="-0.81233">
        <ele>128.2</ele>
        <time>2023-04-25T13:00:20Z</time>
      </trkpt>
      <trkpt lat="49.17324" lon="-0.81226">
        <ele>128.4</ele>
        <time>2023-04-25T13:00:21Z</time>
      </trkpt>
      <trkpt lat="49.17327" lon="-0.8122">
        <ele>128.6</ele>
        <time>2023-04-25T13:00:22Z</time>
      </trkpt>
      <trkpt lat="49.1733" lon="-0.81214">
        <ele>128.8</ele>
        <time>2023-04-25T13:00:23Z</time>
      </trkpt>
      <trkpt lat="49.17333" lon="-0.81208">
        <ele>129</ele>
        <time>2023-04-25T13:00:24Z</time>
      </trkpt>
      <trkpt lat="49.17336" lon="-0.81203">
        <ele>129.2</ele>
        <time>2023-04-25T13:00:25Z</time>
      </trkpt>
      <trkpt lat="49.17338" lon="-0.81197">
        <ele>129.2</ele>
        <time>2023-04-25T13:00:26Z</time>
      </trkpt>
      <trkpt lat="49.17341" lon="-0.81191">
        <ele>129.2</ele>
        <time>2023-04-25T13:00:27Z</time>
      </trkpt>
      <trkpt lat="49.17344" lon="-0.81186">
        <ele>129.2</ele>
        <time>2023-04-25T13:00:28Z</time>
      </trkpt>
      <trkpt lat="49.17347" lon="-0.8118">
        <ele>129.2</ele>
        <time>2023-04-25T13:00:29Z</time>
      </trkpt>
      <trkpt lat="49.17351" lon="-0.81174">
        <ele>129</ele>
        <time>2023-04-25T13:00:30Z</time>
      </trkpt>
      <trkpt lat="49.17355" lon="-0.81168">
        <ele>128.8</ele>
        <time>2023-04-25T13:00:31Z</time>
      </trkpt>
      <trkpt lat="49.17358" lon="-0.81162">
        <ele>128.6</ele>
        <time>2023-04-25T13:00:32Z</time>
      </trkpt>
      <trkpt lat="49.17362" lon="-0.81156">
        <ele>128.6</ele>
        <time>2023-04-25T13:00:33Z</time>
      </trkpt>
      <trkpt lat="49.17365" lon="-0.8115">
        <ele>128.4</ele>
        <time>2023-04-25T13:00:34Z</time>
      </trkpt>
      <trkpt lat="49.17368" lon="-0.81145">
        <ele>128.2</ele>
        <time>2023-04-25T13:00:35Z</time>
      </trkpt>
      <trkpt lat="49.1737" lon="-0.81139">
        <ele>128.2</ele>
        <time>2023-04-25T13:00:36Z</time>
      </trkpt>
      <trkpt lat="49.17373" lon="-0.81134">
        <ele>128</ele>
        <time>2023-04-25T13:00:37Z</time>
      </trkpt>
      <trkpt lat="49.17376" lon="-0.81128">
        <ele>128</ele>
        <time>2023-04-25T13:00:38Z</time>
      </trkpt>
      <trkpt lat="49.17379" lon="-0.81122">
        <ele>127.6</ele>
        <time>2023-04-25T13:00:39Z</time>
      </trkpt>
      <trkpt lat="49.17382" lon="-0.81116">
        <ele>127.6</ele>
        <time>2023-04-25T13:00:40Z</time>
      </trkpt>
      <trkpt lat="49.17386" lon="-0.81109">
        <ele>127.4</ele>
        <time>2023-04-25T13:00:41Z</time>
      </trkpt>
      <trkpt lat="49.1739" lon="-0.81103">
        <ele>127</ele>
        <time>2023-04-25T13:00:42Z</time>
      </trkpt>
      <trkpt lat="49.17393" lon="-0.81097">
        <ele>127</ele>
        <time>2023-04-25T13:00:43Z</time>
      </trkpt>
      <trkpt lat="49.17397" lon="-0.81091">
        <ele>126.6</ele>
        <time>2023-04-25T13:00:44Z</time>
      </trkpt>
      <trkpt lat="49.174" lon="-0.81085">
        <ele>126.6</ele>
        <time>2023-04-25T13:00:45Z</time>
      </trkpt>
      <trkpt lat="49.17404" lon="-0.81079">
        <ele>126.6</ele>
        <time>2023-04-25T13:00:46Z</time>
      </trkpt>
      <trkpt lat="49.17407" lon="-0.81073">
        <ele>126.6</ele>
        <time>2023-04-25T13:00:47Z</time>
      </trkpt>
      <trkpt lat="49.1741" lon="-0.81067">
        <ele>126.6</ele>
        <time>2023-04-25T13:00:48Z</time>
      </trkpt>
      <trkpt lat="49.17414" lon="-0.81062">
        <ele>126.6</ele>
        <time>2023-04-25T13:00:49Z</time>
      </trkpt>
      <trkpt lat="49.17417" lon="-0.81056">
        <ele>126.6</ele>
        <time>2023-04-25T13:00:50Z</time>
      </trkpt>
      <trkpt lat="49.1742" lon="-0.8105">
        <ele>127</ele>
        <time>2023-04-25T13:00:51Z</time>
      </trkpt>
      <trkpt lat="49.17423" lon="-0.81044">
        <ele>127</ele>
        <time>2023-04-25T13:00:52Z</time>
      </trkpt>
      <trkpt lat="49.17426" lon="-0.81038">
        <ele>127.4</ele>
        <time>2023-04-25T13:00:53Z</time>
      </trkpt>
      <trkpt lat="49.17429" lon="-0.81032">
        <ele>127.4</ele>
        <time>2023-04-25T13:00:54Z</time>
      </trkpt>
      <trkpt lat="49.17433" lon="-0.81026">
        <ele>127.6</ele>
        <time>2023-04-25T13:00:55Z</time>
      </trkpt>
      <trkpt lat="49.17436" lon="-0.8102">
        <ele>127.6</ele>
        <time>2023-04-25T13:00:56Z</time>
      </trkpt>
      <trkpt lat="49.17439" lon="-0.81014">
        <ele>128</ele>
        <time>2023-04-25T13:00:57Z</time>
      </trkpt>
      <trkpt lat="49.17443" lon="-0.81008">
        <ele>128</ele>
        <time>2023-04-25T13:00:58Z</time>
      </trkpt>
      <trkpt lat="49.17446" lon="-0.81002">
        <ele>128.2</ele>
        <time>2023-04-25T13:00:59Z</time>
      </trkpt>
      <trkpt lat="49.1745" lon="-0.80996">
        <ele>128.2</ele>
        <time>2023-04-25T13:01:00Z</time>
      </trkpt>
      <trkpt lat="49.17453" lon="-0.8099">
        <ele>128.2</ele>
        <time>2023-04-25T13:01:01Z</time>
      </trkpt>
      <trkpt lat="49.17456" lon="-0.80984">
        <ele>128.2</ele>
        <time>2023-04-25T13:01:02Z</time>
      </trkpt>
      <trkpt lat="49.17459" lon="-0.80978">
        <ele>128.2</ele>
        <time>2023-04-25T13:01:03Z</time>
      </trkpt>
      <trkpt lat="49.17462" lon="-0.80972">
        <ele>128.4</ele>
        <time>2023-04-25T13:01:04Z</time>
      </trkpt>
      <trkpt lat="49.17465" lon="-0.80966">
        <ele>128.4</ele>
        <time>2023-04-25T13:01:05Z</time>
      </trkpt>
      <trkpt lat="49.17468" lon="-0.8096">
        <ele>128.4</ele>
        <time>2023-04-25T13:01:06Z</time>
      </trkpt>
      <trkpt lat="49.17472" lon="-0.80954">
        <ele>128.4</ele>
        <time>2023-04-25T13:01:07Z</time>
      </trkpt>
      <trkpt lat="49.17475" lon="-0.80948">
        <ele>128.4</ele>
        <time>2023-04-25T13:01:08Z</time>
      </trkpt>
      <trkpt lat="49.17478" lon="-0.80942">
        <ele>128.4</ele>
        <time>2023-04-25T13:01:09Z</time>
      </trkpt>
      <trkpt lat="49.17481" lon="-0.80937">
        <ele>128.4</ele>
        <time>2023-04-25T13:01:10Z</time>
      </trkpt>
      <trkpt lat="49.17484" lon="-0.80931">
        <ele>128.4</ele>
        <time>2023-04-25T13:01:11Z</time>
      </trkpt>
      <trkpt lat="49.17488" lon="-0.80925">
        <ele>128.6</ele>
        <time>2023-04-25T13:01:12Z</time>
      </trkpt>
      <trkpt lat="49.17491" lon="-0.80919">
        <ele>128.6</ele>
        <time>2023-04-25T13:01:13Z</time>
      </trkpt>
      <trkpt lat="49.17494" lon="-0.80913">
        <ele>128.6</ele>
        <time>2023-04-25T13:01:14Z</time>
      </trkpt>
      <trkpt lat="49.17497" lon="-0.80907">
        <ele>129</ele>
        <time>2023-04-25T13:01:15Z</time>
      </trkpt>
      <trkpt lat="49.175" lon="-0.80901">
        <ele>129.4</ele>
        <time>2023-04-25T13:01:16Z</time>
      </trkpt>
      <trkpt lat="49.17504" lon="-0.80895">
        <ele>129.6</ele>
        <time>2023-04-25T13:01:17Z</time>
      </trkpt>
      <trkpt lat="49.17507" lon="-0.8089">
        <ele>130</ele>
        <time>2023-04-25T13:01:18Z</time>
      </trkpt>
      <trkpt lat="49.1751" lon="-0.80884">
        <ele>130.4</ele>
        <time>2023-04-25T13:01:19Z</time>
      </trkpt>
      <trkpt lat="49.17514" lon="-0.80878">
        <ele>130.6</ele>
        <time>2023-04-25T13:01:20Z</time>
      </trkpt>
      <trkpt lat="49.17517" lon="-0.80872">
        <ele>131</ele>
        <time>2023-04-25T13:01:21Z</time>
      </trkpt>
      <trkpt lat="49.1752" lon="-0.80866">
        <ele>131.2</ele>
        <time>2023-04-25T13:01:22Z</time>
      </trkpt>
      <trkpt lat="49.17523" lon="-0.80861">
        <ele>131.6</ele>
        <time>2023-04-25T13:01:23Z</time>
      </trkpt>
      <trkpt lat="49.17527" lon="-0.80855">
        <ele>131.6</ele>
        <time>2023-04-25T13:01:24Z</time>
      </trkpt>
      <trkpt lat="49.1753" lon="-0.80849">
        <ele>131.8</ele>
        <time>2023-04-25T13:01:25Z</time>
      </trkpt>
      <trkpt lat="49.17533" lon="-0.80843">
        <ele>132</ele>
        <time>2023-04-25T13:01:26Z</time>
      </trkpt>
      <trkpt lat="49.17536" lon="-0.80837">
        <ele>132.2</ele>
        <time>2023-04-25T13:01:27Z</time>
      </trkpt>
      <trkpt lat="49.17539" lon="-0.80831">
        <ele>132.2</ele>
        <time>2023-04-25T13:01:28Z</time>
      </trkpt>
      <trkpt lat="49.17542" lon="-0.80825">
        <ele>132.2</ele>
        <time>2023-04-25T13:01:29Z</time>
      </trkpt>
      <trkpt lat="49.17546" lon="-0.80819">
        <ele>131.8</ele>
        <time>2023-04-25T13:01:30Z</time>
      </trkpt>
      <trkpt lat="49.17549" lon="-0.80813">
        <ele>131.6</ele>
        <time>2023-04-25T13:01:31Z</time>
      </trkpt>
      <trkpt lat="49.17553" lon="-0.80806">
        <ele>131.6</ele>
        <time>2023-04-25T13:01:32Z</time>
      </trkpt>
      <trkpt lat="49.17557" lon="-0.808">
        <ele>131.2</ele>
        <time>2023-04-25T13:01:33Z</time>
      </trkpt>
      <trkpt lat="49.1756" lon="-0.80793">
        <ele>130.8</ele>
        <time>2023-04-25T13:01:34Z</time>
      </trkpt>
      <trkpt lat="49.17564" lon="-0.80787">
        <ele>130.6</ele>
        <time>2023-04-25T13:01:35Z</time>
      </trkpt>
      <trkpt lat="49.17568" lon="-0.8078">
        <ele>130</ele>
        <time>2023-04-25T13:01:36Z</time>
      </trkpt>
      <trkpt lat="49.17572" lon="-0.80773">
        <ele>129.6</ele>
        <time>2023-04-25T13:01:37Z</time>
      </trkpt>
      <trkpt lat="49.17576" lon="-0.80767">
        <ele>129.2</ele>
        <time>2023-04-25T13:01:38Z</time>
      </trkpt>
      <trkpt lat="49.17579" lon="-0.8076">
        <ele>128.6</ele>
        <time>2023-04-25T13:01:39Z</time>
      </trkpt>
      <trkpt lat="49.17583" lon="-0.80754">
        <ele>128.2</ele>
        <time>2023-04-25T13:01:40Z</time>
      </trkpt>
      <trkpt lat="49.17586" lon="-0.80747">
        <ele>128</ele>
        <time>2023-04-25T13:01:41Z</time>
      </trkpt>
      <trkpt lat="49.1759" lon="-0.80741">
        <ele>127.8</ele>
        <time>2023-04-25T13:01:42Z</time>
      </trkpt>
      <trkpt lat="49.17593" lon="-0.80734">
        <ele>127.6</ele>
        <time>2023-04-25T13:01:43Z</time>
      </trkpt>
      <trkpt lat="49.17597" lon="-0.80728">
        <ele>127.6</ele>
        <time>2023-04-25T13:01:44Z</time>
      </trkpt>
      <trkpt lat="49.176" lon="-0.80721">
        <ele>127.6</ele>
        <time>2023-04-25T13:01:45Z</time>
      </trkpt>
      <trkpt lat="49.17603" lon="-0.80715">
        <ele>127.6</ele>
        <time>2023-04-25T13:01:46Z</time>
      </trkpt>
      <trkpt lat="49.17607" lon="-0.80708">
        <ele>127.4</ele>
        <time>2023-04-25T13:01:47Z</time>
      </trkpt>
      <trkpt lat="49.1761" lon="-0.80702">
        <ele>127.4</ele>
        <time>2023-04-25T13:01:48Z</time>
      </trkpt>
      <trkpt lat="49.17613" lon="-0.80695">
        <ele>127.4</ele>
        <time>2023-04-25T13:01:49Z</time>
      </trkpt>
      <trkpt lat="49.17617" lon="-0.80689">
        <ele>127.4</ele>
        <time>2023-04-25T13:01:50Z</time>
      </trkpt>
      <trkpt lat="49.1762" lon="-0.80682">
        <ele>127.4</ele>
        <time>2023-04-25T13:01:51Z</time>
      </trkpt>
      <trkpt lat="49.17624" lon="-0.80676">
        <ele>127.4</ele>
        <time>2023-04-25T13:01:52Z</time>
      </trkpt>
      <trkpt lat="49.17627" lon="-0.80669">
        <ele>127.4</ele>
        <time>2023-04-25T13:01:53Z</time>
      </trkpt>
      <trkpt lat="49.1763" lon="-0.80663">
        <ele>127.4</ele>
        <time>2023-04-25T13:01:54Z</time>
      </trkpt>
      <trkpt lat="49.17634" lon="-0.80657">
        <ele>127.4</ele>
        <time>2023-04-25T13:01:55Z</time>
      </trkpt>
      <trkpt lat="49.17637" lon="-0.80652">
        <ele>127.4</ele>
        <time>2023-04-25T13:01:56Z</time>
      </trkpt>
      <trkpt lat="49.17641" lon="-0.80647">
        <ele>127.4</ele>
        <time>2023-04-25T13:01:57Z</time>
      </trkpt>
      <trkpt lat="49.17646" lon="-0.80643">
        <ele>127.4</ele>
        <time>2023-04-25T13:01:58Z</time>
      </trkpt>
      <trkpt lat="49.17651" lon="-0.8064">
        <ele>127.4</ele>
        <time>2023-04-25T13:01:59Z</time>
      </trkpt>
      <trkpt lat="49.17655" lon="-0.80637">
        <ele>127.4</ele>
        <time>2023-04-25T13:02:00Z</time>
      </trkpt>
      <trkpt lat="49.1766" lon="-0.80635">
        <ele>127.4</ele>
        <time>2023-04-25T13:02:01Z</time>
      </trkpt>
      <trkpt lat="49.17665" lon="-0.80633">
        <ele>127.4</ele>
        <time>2023-04-25T13:02:02Z</time>
      </trkpt>
      <trkpt lat="49.1767" lon="-0.80631">
        <ele>127.4</ele>
        <time>2023-04-25T13:02:03Z</time>
      </trkpt>
      <trkpt lat="49.17675" lon="-0.80629">
        <ele>127.6</ele>
        <time>2023-04-25T13:02:04Z</time>
      </trkpt>
      <trkpt lat="49.1768" lon="-0.80627">
        <ele>127.6</ele>
        <time>2023-04-25T13:02:05Z</time>
      </trkpt>
      <trkpt lat="49.17685" lon="-0.80625">
        <ele>127.6</ele>
        <time>2023-04-25T13:02:06Z</time>
      </trkpt>
      <trkpt lat="49.17689" lon="-0.80624">
        <ele>127.6</ele>
        <time>2023-04-25T13:02:07Z</time>
      </trkpt>
      <trkpt lat="49.17694" lon="-0.80622">
        <ele>127.6</ele>
        <time>2023-04-25T13:02:08Z</time>
      </trkpt>
      <trkpt lat="49.17699" lon="-0.8062">
        <ele>127.6</ele>
        <time>2023-04-25T13:02:09Z</time>
      </trkpt>
      <trkpt lat="49.17703" lon="-0.80619">
        <ele>127.6</ele>
        <time>2023-04-25T13:02:10Z</time>
      </trkpt>
      <trkpt lat="49.17708" lon="-0.80617">
        <ele>127.6</ele>
        <time>2023-04-25T13:02:11Z</time>
      </trkpt>
      <trkpt lat="49.17713" lon="-0.80615">
        <ele>127.6</ele>
        <time>2023-04-25T13:02:12Z</time>
      </trkpt>
      <trkpt lat="49.17717" lon="-0.80614">
        <ele>127.6</ele>
        <time>2023-04-25T13:02:13Z</time>
      </trkpt>
      <trkpt lat="49.17722" lon="-0.80612">
        <ele>127.6</ele>
        <time>2023-04-25T13:02:14Z</time>
      </trkpt>
      <trkpt lat="49.17727" lon="-0.8061">
        <ele>127.6</ele>
        <time>2023-04-25T13:02:15Z</time>
      </trkpt>
      <trkpt lat="49.17731" lon="-0.80609">
        <ele>127.6</ele>
        <time>2023-04-25T13:02:16Z</time>
      </trkpt>
      <trkpt lat="49.17736" lon="-0.80607">
        <ele>127.6</ele>
        <time>2023-04-25T13:02:17Z</time>
      </trkpt>
      <trkpt lat="49.17741" lon="-0.80605">
        <ele>127.6</ele>
        <time>2023-04-25T13:02:18Z</time>
      </trkpt>
      <trkpt lat="49.17745" lon="-0.80603">
        <ele>127.8</ele>
        <time>2023-04-25T13:02:19Z</time>
      </trkpt>
      <trkpt lat="49.1775" lon="-0.80602">
        <ele>127.8</ele>
        <time>2023-04-25T13:02:20Z</time>
      </trkpt>
      <trkpt lat="49.17755" lon="-0.806">
        <ele>128</ele>
        <time>2023-04-25T13:02:21Z</time>
      </trkpt>
      <trkpt lat="49.17759" lon="-0.80599">
        <ele>128</ele>
        <time>2023-04-25T13:02:22Z</time>
      </trkpt>
      <trkpt lat="49.17764" lon="-0.80597">
        <ele>128</ele>
        <time>2023-04-25T13:02:23Z</time>
      </trkpt>
      <trkpt lat="49.17768" lon="-0.80595">
        <ele>128.2</ele>
        <time>2023-04-25T13:02:24Z</time>
      </trkpt>
      <trkpt lat="49.17773" lon="-0.80594">
        <ele>128.2</ele>
        <time>2023-04-25T13:02:25Z</time>
      </trkpt>
      <trkpt lat="49.17777" lon="-0.80592">
        <ele>128.2</ele>
        <time>2023-04-25T13:02:26Z</time>
      </trkpt>
      <trkpt lat="49.17782" lon="-0.80591">
        <ele>128.4</ele>
        <time>2023-04-25T13:02:27Z</time>
      </trkpt>
      <trkpt lat="49.17787" lon="-0.80589">
        <ele>128.4</ele>
        <time>2023-04-25T13:02:28Z</time>
      </trkpt>
      <trkpt lat="49.17791" lon="-0.80588">
        <ele>128.4</ele>
        <time>2023-04-25T13:02:29Z</time>
      </trkpt>
      <trkpt lat="49.17796" lon="-0.80586">
        <ele>128.6</ele>
        <time>2023-04-25T13:02:30Z</time>
      </trkpt>
      <trkpt lat="49.178" lon="-0.80585">
        <ele>128.6</ele>
        <time>2023-04-25T13:02:31Z</time>
      </trkpt>
      <trkpt lat="49.17804" lon="-0.80584">
        <ele>128.6</ele>
        <time>2023-04-25T13:02:32Z</time>
      </trkpt>
      <trkpt lat="49.17809" lon="-0.80582">
        <ele>128.6</ele>
        <time>2023-04-25T13:02:33Z</time>
      </trkpt>
      <trkpt lat="49.17813" lon="-0.80581">
        <ele>128.8</ele>
        <time>2023-04-25T13:02:34Z</time>
      </trkpt>
      <trkpt lat="49.17818" lon="-0.80579">
        <ele>128.8</ele>
        <time>2023-04-25T13:02:35Z</time>
      </trkpt>
      <trkpt lat="49.17823" lon="-0.80578">
        <ele>128.8</ele>
        <time>2023-04-25T13:02:36Z</time>
      </trkpt>
      <trkpt lat="49.17827" lon="-0.80576">
        <ele>129</ele>
        <time>2023-04-25T13:02:37Z</time>
      </trkpt>
      <trkpt lat="49.17831" lon="-0.80575">
        <ele>129.2</ele>
        <time>2023-04-25T13:02:38Z</time>
      </trkpt>
      <trkpt lat="49.17836" lon="-0.80573">
        <ele>129.2</ele>
        <time>2023-04-25T13:02:39Z</time>
      </trkpt>
      <trkpt lat="49.1784" lon="-0.80572">
        <ele>129.4</ele>
        <time>2023-04-25T13:02:40Z</time>
      </trkpt>
      <trkpt lat="49.17844" lon="-0.8057">
        <ele>129.4</ele>
        <time>2023-04-25T13:02:41Z</time>
      </trkpt>
      <trkpt lat="49.17848" lon="-0.80569">
        <ele>129.6</ele>
        <time>2023-04-25T13:02:42Z</time>
      </trkpt>
      <trkpt lat="49.17851" lon="-0.80568">
        <ele>129.6</ele>
        <time>2023-04-25T13:02:43Z</time>
      </trkpt>
      <trkpt lat="49.17854" lon="-0.80567">
        <ele>129.6</ele>
        <time>2023-04-25T13:02:44Z</time>
      </trkpt>
      <trkpt lat="49.17857" lon="-0.80565">
        <ele>129.6</ele>
        <time>2023-04-25T13:02:45Z</time>
      </trkpt>
      <trkpt lat="49.17859" lon="-0.80564">
        <ele>129.8</ele>
        <time>2023-04-25T13:02:46Z</time>
      </trkpt>
      <trkpt lat="49.1786" lon="-0.80563">
        <ele>129.8</ele>
        <time>2023-04-25T13:02:47Z</time>
      </trkpt>
      <trkpt lat="49.17861" lon="-0.80562">
        <ele>129.8</ele>
        <time>2023-04-25T13:02:48Z</time>
      </trkpt>
      <trkpt lat="49.17861" lon="-0.80561">
        <ele>129.8</ele>
        <time>2023-04-25T13:02:49Z</time>
      </trkpt>
      <trkpt lat="49.17861" lon="-0.8056">
        <ele>129.8</ele>
        <time>2023-04-25T13:02:50Z</time>
      </trkpt>
      <trkpt lat="49.17861" lon="-0.8056">
        <ele>129.8</ele>
        <time>2023-04-25T13:02:51Z</time>
      </trkpt>
      <trkpt lat="49.17861" lon="-0.8056">
        <ele>129.8</ele>
        <time>2023-04-25T13:02:52Z</time>
      </trkpt>
      <trkpt lat="49.17861" lon="-0.8056">
        <ele>129.8</ele>
        <time>2023-04-25T13:02:53Z</time>
      </trkpt>
      <trkpt lat="49.17861" lon="-0.8056">
        <ele>129.8</ele>
        <time>2023-04-25T13:02:54Z</time>
      </trkpt>
      <trkpt lat="49.17861" lon="-0.8056">
        <ele>129.8</ele>
        <time>2023-04-25T13:02:55Z</time>
      </trkpt>
      <trkpt lat="49.17861" lon="-0.8056">
        <ele>129.8</ele>
        <time>2023-04-25T13:02:56Z</time>
      </trkpt>
      <trkpt lat="49.17861" lon="-0.8056">
        <ele>129.8</ele>
        <time>2023-04-25T13:02:57Z</time>
      </trkpt>
      <trkpt lat="49.17861" lon="-0.8056">
        <ele>129.8</ele>
        <time>2023-04-25T13:02:58Z</time>
      </trkpt>
      <trkpt lat="49.17861" lon="-0.8056">
        <ele>129.8</ele>
        <time>2023-04-25T13:02:59Z</time>
      </trkpt>
      <trkpt lat="49.17861" lon="-0.8056">
        <ele>129.8</ele>
        <time>2023-04-25T13:03:00Z</time>
      </trkpt>
      <trkpt lat="49.17861" lon="-0.8056">
        <ele>129.8</ele>
        <time>2023-04-25T13:03:01Z</time>
      </trkpt>
      <trkpt lat="49.17861" lon="-0.8056">
        <ele>129.8</ele>
        <time>2023-04-25T13:03:02Z</time>
      </trkpt>
      <trkpt lat="49.17861" lon="-0.8056">
        <ele>129.8</ele>
        <time>2023-04-25T13:03:03Z</time>
      </trkpt>
      <trkpt lat="49.17861" lon="-0.8056">
        <ele>129.8</ele>
        <time>2023-04-25T13:03:04Z</time>
      </trkpt>
      <trkpt lat="49.17861" lon="-0.8056">
        <ele>129.8</ele>
        <time>2023-04-25T13:03:05Z</time>
      </trkpt>
      <trkpt lat="49.17861" lon="-0.8056">
        <ele>129.8</ele>
        <time>2023-04-25T13:03:06Z</time>
      </trkpt>
      <trkpt lat="49.17861" lon="-0.8056">
        <ele>129.8</ele>
        <time>2023-04-25T13:03:07Z</time>
      </trkpt>
      <trkpt lat="49.17861" lon="-0.8056">
        <ele>129.8</ele>
        <time>2023-04-25T13:03:08Z</time>
      </trkpt>
      <trkpt lat="49.17861" lon="-0.8056">
        <ele>129.8</ele>
        <time>2023-04-25T13:03:09Z</time>
      </trkpt>
      <trkpt lat="49.17861" lon="-0.8056">
        <ele>129.8</ele>
        <time>2023-04-25T13:03:10Z</time>
      </trkpt>
      <trkpt lat="49.17861" lon="-0.8056">
        <ele>129.8</ele>
        <time>2023-04-25T13:03:11Z</time>
      </trkpt>
      <trkpt lat="49.17861" lon="-0.8056">
        <ele>129.8</ele>
        <time>2023-04-25T13:03:12Z</time>
      </trkpt>
      <trkpt lat="49.17861" lon="-0.8056">
        <ele>129.8</ele>
        <time>2023-04-25T13:03:13Z</time>
      </trkpt>
      <trkpt lat="49.17861" lon="-0.8056">
        <ele>129.8</ele>
        <time>2023-04-25T13:03:14Z</time>
      </trkpt>
      <trkpt lat="49.17861" lon="-0.8056">
        <ele>129.8</ele>
        <time>2023-04-25T13:03:15Z</time>
      </trkpt>
      <trkpt lat="49.17861" lon="-0.8056">
        <ele>129.8</ele>
        <time>2023-04-25T13:03:16Z</time>
      </trkpt>
      <trkpt lat="49.17861" lon="-0.8056">
        <ele>129.8</ele>
        <time>2023-04-25T13:03:17Z</time>
      </trkpt>
      <trkpt lat="49.17861" lon="-0.8056">
        <ele>129.8</ele>
        <time>2023-04-25T13:03:18Z</time>
      </trkpt>
      <trkpt lat="49.17861" lon="-0.8056">
        <ele>129.8</ele>
        <time>2023-04-25T13:03:19Z</time>
      </trkpt>
      <trkpt lat="49.17861" lon="-0.8056">
        <ele>129.8</ele>
        <time>2023-04-25T13:03:20Z</time>
      </trkpt>
      <trkpt lat="49.17861" lon="-0.8056">
        <ele>129.8</ele>
        <time>2023-04-25T13:03:21Z</time>
      </trkpt>
      <trkpt lat="49.17861" lon="-0.8056">
        <ele>129.8</ele>
        <time>2023-04-25T13:03:22Z</time>
      </trkpt>
      <trkpt lat="49.17861" lon="-0.8056">
        <ele>129.8</ele>
        <time>2023-04-25T13:03:23Z</time>
      </trkpt>
      <trkpt lat="49.17861" lon="-0.8056">
        <ele>129.8</ele>
        <time>2023-04-25T13:03:24Z</time>
      </trkpt>
      <trkpt lat="49.17861" lon="-0.8056">
        <ele>129.8</ele>
        <time>2023-04-25T13:03:25Z</time>
      </trkpt>
      <trkpt lat="49.17861" lon="-0.8056">
        <ele>129.8</ele>
        <time>2023-04-25T13:03:26Z</time>
      </trkpt>
      <trkpt lat="49.17861" lon="-0.8056">
        <ele>129.8</ele>
        <time>2023-04-25T13:03:27Z</time>
      </trkpt>
      <trkpt lat="49.17861" lon="-0.8056">
        <ele>129.8</ele>
        <time>2023-04-25T13:03:28Z</time>
      </trkpt>
      <trkpt lat="49.17861" lon="-0.8056">
        <ele>129.8</ele>
        <time>2023-04-25T13:03:29Z</time>
      </trkpt>
      <trkpt lat="49.17861" lon="-0.8056">
        <ele>129.8</ele>
        <time>2023-04-25T13:03:30Z</time>
      </trkpt>
      <trkpt lat="49.17861" lon="-0.8056">
        <ele>129.8</ele>
        <time>2023-04-25T13:03:31Z</time>
      </trkpt>
      <trkpt lat="49.17861" lon="-0.8056">
        <ele>129.8</ele>
        <time>2023-04-25T13:03:32Z</time>
      </trkpt>
      <trkpt lat="49.17861" lon="-0.8056">
        <ele>129.8</ele>
        <time>2023-04-25T13:03:33Z</time>
      </trkpt>
      <trkpt lat="49.17861" lon="-0.8056">
        <ele>129.8</ele>
        <time>2023-04-25T13:03:34Z</time>
      </trkpt>
      <trkpt lat="49.17861" lon="-0.8056">
        <ele>129.8</ele>
        <time>2023-04-25T13:03:35Z</time>
      </trkpt>
      <trkpt lat="49.17861" lon="-0.8056">
        <ele>129.8</ele>
        <time>2023-04-25T13:03:36Z</time>
      </trkpt>
      <trkpt lat="49.17861" lon="-0.8056">
        <ele>129.8</ele>
        <time>2023-04-25T13:03:37Z</time>
      </trkpt>
      <trkpt lat="49.17861" lon="-0.8056">
        <ele>129.8</ele>
        <time>2023-04-25T13:03:38Z</time>
      </trkpt>
      <trkpt lat="49.17861" lon="-0.8056">
        <ele>129.8</ele>
        <time>2023-04-25T13:03:39Z</time>
      </trkpt>
      <trkpt lat="49.17861" lon="-0.8056">
        <ele>129.8</ele>
        <time>2023-04-25T13:03:40Z</time>
      </trkpt>
      <trkpt lat="49.17861" lon="-0.8056">
        <ele>129.8</ele>
        <time>2023-04-25T13:03:41Z</time>
      </trkpt>
      <trkpt lat="49.17861" lon="-0.8056">
        <ele>129.8</ele>
        <time>2023-04-25T13:03:42Z</time>
      </trkpt>
      <trkpt lat="49.17861" lon="-0.8056">
        <ele>129.8</ele>
        <time>2023-04-25T13:03:43Z</time>
      </trkpt>
      <trkpt lat="49.17861" lon="-0.8056">
        <ele>129.8</ele>
        <time>2023-04-25T13:03:44Z</time>
      </trkpt>
      <trkpt lat="49.17861" lon="-0.8056">
        <ele>129.8</ele>
        <time>2023-04-25T13:03:45Z</time>
      </trkpt>
      <trkpt lat="49.17861" lon="-0.8056">
        <ele>129.8</ele>
        <time>2023-04-25T13:03:46Z</time>
      </trkpt>
      <trkpt lat="49.17861" lon="-0.8056">
        <ele>129.8</ele>
        <time>2023-04-25T13:03:47Z</time>
      </trkpt>
      <trkpt lat="49.17861" lon="-0.8056">
        <ele>129.8</ele>
        <time>2023-04-25T13:03:48Z</time>
      </trkpt>
      <trkpt lat="49.17861" lon="-0.8056">
        <ele>129.8</ele>
        <time>2023-04-25T13:03:49Z</time>
      </trkpt>
      <trkpt lat="49.17861" lon="-0.8056">
        <ele>129.8</ele>
        <time>2023-04-25T13:03:50Z</time>
      </trkpt>
      <trkpt lat="49.17861" lon="-0.8056">
        <ele>129.8</ele>
        <time>2023-04-25T13:03:51Z</time>
      </trkpt>
      <trkpt lat="49.17861" lon="-0.8056">
        <ele>129.8</ele>
        <time>2023-04-25T13:03:52Z</time>
      </trkpt>
      <trkpt lat="49.17861" lon="-0.8056">
        <ele>129.8</ele>
        <time>2023-04-25T13:03:53Z</time>
      </trkpt>
      <trkpt lat="49.17861" lon="-0.8056">
        <ele>129.8</ele>
        <time>2023-04-25T13:03:54Z</time>
      </trkpt>
      <trkpt lat="49.17861" lon="-0.8056">
        <ele>129.8</ele>
        <time>2023-04-25T13:03:55Z</time>
      </trkpt>
      <trkpt lat="49.17861" lon="-0.8056">
        <ele>129.8</ele>
        <time>2023-04-25T13:03:56Z</time>
      </trkpt>
      <trkpt lat="49.17861" lon="-0.8056">
        <ele>129.8</ele>
        <time>2023-04-25T13:03:57Z</time>
      </trkpt>
      <trkpt lat="49.17861" lon="-0.8056">
        <ele>129.8</ele>
        <time>2023-04-25T13:03:58Z</time>
      </trkpt>
      <trkpt lat="49.17861" lon="-0.8056">
        <ele>129.8</ele>
        <time>2023-04-25T13:03:59Z</time>
      </trkpt>
      <trkpt lat="49.17861" lon="-0.8056">
        <ele>129.8</ele>
        <time>2023-04-25T13:04:00Z</time>
      </trkpt>
      <trkpt lat="49.17861" lon="-0.8056">
        <ele>129.8</ele>
        <time>2023-04-25T13:04:01Z</time>
      </trkpt>
      <trkpt lat="49.17861" lon="-0.8056">
        <ele>129.8</ele>
        <time>2023-04-25T13:04:02Z</time>
      </trkpt>
      <trkpt lat="49.17861" lon="-0.8056">
        <ele>129.8</ele>
        <time>2023-04-25T13:04:03Z</time>
      </trkpt>
      <trkpt lat="49.17861" lon="-0.8056">
        <ele>129.8</ele>
        <time>2023-04-25T13:04:04Z</time>
      </trkpt>
      <trkpt lat="49.17861" lon="-0.8056">
        <ele>129.8</ele>
        <time>2023-04-25T13:04:05Z</time>
      </trkpt>
      <trkpt lat="49.17861" lon="-0.8056">
        <ele>129.8</ele>
        <time>2023-04-25T13:04:06Z</time>
      </trkpt>
      <trkpt lat="49.17861" lon="-0.8056">
        <ele>129.8</ele>
        <time>2023-04-25T13:04:07Z</time>
      </trkpt>
      <trkpt lat="49.17861" lon="-0.8056">
        <ele>129.8</ele>
        <time>2023-04-25T13:04:08Z</time>
      </trkpt>
      <trkpt lat="49.17861" lon="-0.8056">
        <ele>129.8</ele>
        <time>2023-04-25T13:04:09Z</time>
      </trkpt>
      <trkpt lat="49.17861" lon="-0.8056">
        <ele>129.8</ele>
        <time>2023-04-25T13:04:10Z</time>
      </trkpt>
      <trkpt lat="49.17861" lon="-0.8056">
        <ele>129.8</ele>
        <time>2023-04-25T13:04:11Z</time>
      </trkpt>
      <trkpt lat="49.17861" lon="-0.8056">
        <ele>129.8</ele>
        <time>2023-04-25T13:04:12Z</time>
      </trkpt>
      <trkpt lat="49.17861" lon="-0.8056">
        <ele>129.8</ele>
        <time>2023-04-25T13:04:13Z</time>
      </trkpt>
      <trkpt lat="49.17861" lon="-0.8056">
        <ele>129.8</ele>
        <time>2023-04-25T13:04:14Z</time>
      </trkpt>
      <trkpt lat="49.17861" lon="-0.8056">
        <ele>129.8</ele>
        <time>2023-04-25T13:04:15Z</time>
      </trkpt>
      <trkpt lat="49.17861" lon="-0.8056">
        <ele>129.8</ele>
        <time>2023-04-25T13:04:16Z</time>
      </trkpt>
      <trkpt lat="49.17861" lon="-0.8056">
        <ele>129.8</ele>
        <time>2023-04-25T13:04:17Z</time>
      </trkpt>
      <trkpt lat="49.17861" lon="-0.8056">
        <ele>129.8</ele>
        <time>2023-04-25T13:04:18Z</time>
      </trkpt>
      <trkpt lat="49.17861" lon="-0.8056">
        <ele>129.8</ele>
        <time>2023-04-25T13:04:19Z</time>
      </trkpt>
      <trkpt lat="49.17861" lon="-0.8056">
        <ele>129.8</ele>
        <time>2023-04-25T13:04:20Z</time>
      </trkpt>
      <trkpt lat="49.17861" lon="-0.8056">
        <ele>129.8</ele>
        <time>2023-04-25T13:04:21Z</time>
      </trkpt>
      <trkpt lat="49.17861" lon="-0.8056">
        <ele>129.8</ele>
        <time>2023-04-25T13:04:22Z</time>
      </trkpt>
      <trkpt lat="49.17861" lon="-0.8056">
        <ele>129.8</ele>
        <time>2023-04-25T13:04:23Z</time>
      </trkpt>
      <trkpt lat="49.17861" lon="-0.8056">
        <ele>129.8</ele>
        <time>2023-04-25T13:04:24Z</time>
      </trkpt>
      <trkpt lat="49.17861" lon="-0.8056">
        <ele>129.8</ele>
        <time>2023-04-25T13:04:25Z</time>
      </trkpt>
      <trkpt lat="49.17861" lon="-0.8056">
        <ele>129.8</ele>
        <time>2023-04-25T13:04:26Z</time>
      </trkpt>
      <trkpt lat="49.17861" lon="-0.8056">
        <ele>129.8</ele>
        <time>2023-04-25T13:04:27Z</time>
      </trkpt>
      <trkpt lat="49.17861" lon="-0.8056">
        <ele>129.8</ele>
        <time>2023-04-25T13:04:28Z</time>
      </trkpt>
      <trkpt lat="49.17861" lon="-0.8056">
        <ele>129.8</ele>
        <time>2023-04-25T13:04:29Z</time>
      </trkpt>
      <trkpt lat="49.17861" lon="-0.8056">
        <ele>129.8</ele>
        <time>2023-04-25T13:04:30Z</time>
      </trkpt>
      <trkpt lat="49.17861" lon="-0.8056">
        <ele>129.8</ele>
        <time>2023-04-25T13:04:31Z</time>
      </trkpt>
      <trkpt lat="49.17861" lon="-0.8056">
        <ele>129.8</ele>
        <time>2023-04-25T13:04:32Z</time>
      </trkpt>
      <trkpt lat="49.17861" lon="-0.8056">
        <ele>129.8</ele>
        <time>2023-04-25T13:04:33Z</time>
      </trkpt>
      <trkpt lat="49.17861" lon="-0.8056">
        <ele>129.8</ele>
        <time>2023-04-25T13:04:34Z</time>
      </trkpt>
      <trkpt lat="49.17861" lon="-0.8056">
        <ele>129.8</ele>
        <time>2023-04-25T13:04:35Z</time>
      </trkpt>
      <trkpt lat="49.17861" lon="-0.8056">
        <ele>129.8</ele>
        <time>2023-04-25T13:04:36Z</time>
      </trkpt>
      <trkpt lat="49.17861" lon="-0.8056">
        <ele>129.8</ele>
        <time>2023-04-25T13:04:37Z</time>
      </trkpt>
      <trkpt lat="49.17861" lon="-0.8056">
        <ele>129.8</ele>
        <time>2023-04-25T13:04:38Z</time>
      </trkpt>
      <trkpt lat="49.17861" lon="-0.8056">
        <ele>129.8</ele>
        <time>2023-04-25T13:04:39Z</time>
      </trkpt>
      <trkpt lat="49.17861" lon="-0.8056">
        <ele>129.8</ele>
        <time>2023-04-25T13:04:40Z</time>
      </trkpt>
      <trkpt lat="49.17861" lon="-0.8056">
        <ele>129.8</ele>
        <time>2023-04-25T13:04:41Z</time>
      </trkpt>
      <trkpt lat="49.17861" lon="-0.8056">
        <ele>129.8</ele>
        <time>2023-04-25T13:04:42Z</time>
      </trkpt>
      <trkpt lat="49.17861" lon="-0.8056">
        <ele>129.8</ele>
        <time>2023-04-25T13:04:43Z</time>
      </trkpt>
      <trkpt lat="49.17861" lon="-0.8056">
        <ele>129.8</ele>
        <time>2023-04-25T13:04:44Z</time>
      </trkpt>
      <trkpt lat="49.17861" lon="-0.8056">
        <ele>129.8</ele>
        <time>2023-04-25T13:04:45Z</time>
      </trkpt>
      <trkpt lat="49.17861" lon="-0.8056">
        <ele>129.8</ele>
        <time>2023-04-25T13:04:46Z</time>
      </trkpt>
      <trkpt lat="49.17861" lon="-0.8056">
        <ele>129.8</ele>
        <time>2023-04-25T13:04:47Z</time>
      </trkpt>
      <trkpt lat="49.17861" lon="-0.8056">
        <ele>129.8</ele>
        <time>2023-04-25T13:04:48Z</time>
      </trkpt>
      <trkpt lat="49.17861" lon="-0.8056">
        <ele>129.8</ele>
        <time>2023-04-25T13:04:49Z</time>
      </trkpt>
      <trkpt lat="49.17861" lon="-0.8056">
        <ele>129.8</ele>
        <time>2023-04-25T13:04:50Z</time>
      </trkpt>
      <trkpt lat="49.17861" lon="-0.8056">
        <ele>129.8</ele>
        <time>2023-04-25T13:04:51Z</time>
      </trkpt>
      <trkpt lat="49.17861" lon="-0.8056">
        <ele>129.8</ele>
        <time>2023-04-25T13:04:52Z</time>
      </trkpt>
      <trkpt lat="49.17861" lon="-0.8056">
        <ele>129.8</ele>
        <time>2023-04-25T13:04:53Z</time>
      </trkpt>
      <trkpt lat="49.17861" lon="-0.8056">
        <ele>129.8</ele>
        <time>2023-04-25T13:04:54Z</time>
      </trkpt>
      <trkpt lat="49.17861" lon="-0.8056">
        <ele>129.8</ele>
        <time>2023-04-25T13:04:55Z</time>
      </trkpt>
      <trkpt lat="49.17861" lon="-0.8056">
        <ele>129.8</ele>
        <time>2023-04-25T13:04:56Z</time>
      </trkpt>
      <trkpt lat="49.17861" lon="-0.8056">
        <ele>129.8</ele>
        <time>2023-04-25T13:04:57Z</time>
      </trkpt>
      <trkpt lat="49.17861" lon="-0.8056">
        <ele>129.8</ele>
        <time>2023-04-25T13:04:58Z</time>
      </trkpt>
      <trkpt lat="49.17861" lon="-0.8056">
        <ele>129.8</ele>
        <time>2023-04-25T13:04:59Z</time>
      </trkpt>
      <trkpt lat="49.17861" lon="-0.8056">
        <ele>129.8</ele>
        <time>2023-04-25T13:05:00Z</time>
      </trkpt>
      <trkpt lat="49.17861" lon="-0.8056">
        <ele>129.8</ele>
        <time>2023-04-25T13:05:01Z</time>
      </trkpt>
      <trkpt lat="49.17861" lon="-0.8056">
        <ele>129.8</ele>
        <time>2023-04-25T13:05:02Z</time>
      </trkpt>
      <trkpt lat="49.17861" lon="-0.8056">
        <ele>129.8</ele>
        <time>2023-04-25T13:05:03Z</time>
      </trkpt>
      <trkpt lat="49.17861" lon="-0.8056">
        <ele>129.8</ele>
        <time>2023-04-25T13:05:04Z</time>
      </trkpt>
      <trkpt lat="49.17861" lon="-0.8056">
        <ele>129.8</ele>
        <time>2023-04-25T13:05:05Z</time>
      </trkpt>
      <trkpt lat="49.17861" lon="-0.8056">
        <ele>129.8</ele>
        <time>2023-04-25T13:05:06Z</time>
      </trkpt>
      <trkpt lat="49.17861" lon="-0.8056">
        <ele>129.8</ele>
        <time>2023-04-25T13:05:07Z</time>
      </trkpt>
      <trkpt lat="49.17861" lon="-0.8056">
        <ele>129.8</ele>
        <time>2023-04-25T13:05:08Z</time>
      </trkpt>
      <trkpt lat="49.17861" lon="-0.8056">
        <ele>129.8</ele>
        <time>2023-04-25T13:05:09Z</time>
      </trkpt>
      <trkpt lat="49.17861" lon="-0.8056">
        <ele>129.8</ele>
        <time>2023-04-25T13:05:10Z</time>
      </trkpt>
      <trkpt lat="49.17861" lon="-0.8056">
        <ele>129.8</ele>
        <time>2023-04-25T13:05:11Z</time>
      </trkpt>
      <trkpt lat="49.17861" lon="-0.8056">
        <ele>129.8</ele>
        <time>2023-04-25T13:05:12Z</time>
      </trkpt>
      <trkpt lat="49.17861" lon="-0.8056">
        <ele>129.8</ele>
        <time>2023-04-25T13:05:13Z</time>
      </trkpt>
      <trkpt lat="49.17861" lon="-0.8056">
        <ele>129.8</ele>
        <time>2023-04-25T13:05:14Z</time>
      </trkpt>
      <trkpt lat="49.17861" lon="-0.8056">
        <ele>129.8</ele>
        <time>2023-04-25T13:05:15Z</time>
      </trkpt>
      <trkpt lat="49.17861" lon="-0.8056">
        <ele>129.8</ele>
        <time>2023-04-25T13:05:16Z</time>
      </trkpt>
      <trkpt lat="49.17861" lon="-0.8056">
        <ele>129.8</ele>
        <time>2023-04-25T13:05:17Z</time>
      </trkpt>
      <trkpt lat="49.17861" lon="-0.8056">
        <ele>129.8</ele>
        <time>2023-04-25T13:05:18Z</time>
      </trkpt>
      <trkpt lat="49.17861" lon="-0.8056">
        <ele>129.8</ele>
        <time>2023-04-25T13:05:19Z</time>
      </trkpt>
      <trkpt lat="49.17861" lon="-0.8056">
        <ele>129.8</ele>
        <time>2023-04-25T13:05:20Z</time>
      </trkpt>
      <trkpt lat="49.17861" lon="-0.8056">
        <ele>129.8</ele>
        <time>2023-04-25T13:05:21Z</time>
      </trkpt>
      <trkpt lat="49.17861" lon="-0.8056">
        <ele>129.8</ele>
        <time>2023-04-25T13:05:22Z</time>
      </trkpt>
      <trkpt lat="49.17861" lon="-0.8056">
        <ele>129.8</ele>
        <time>2023-04-25T13:05:23Z</time>
      </trkpt>
      <trkpt lat="49.17861" lon="-0.8056">
        <ele>129.8</ele>
        <time>2023-04-25T13:05:24Z</time>
      </trkpt>
      <trkpt lat="49.17861" lon="-0.8056">
        <ele>129.8</ele>
        <time>2023-04-25T13:05:25Z</time>
      </trkpt>
      <trkpt lat="49.17861" lon="-0.8056">
        <ele>129.8</ele>
        <time>2023-04-25T13:05:26Z</time>
      </trkpt>
      <trkpt lat="49.17861" lon="-0.8056">
        <ele>129.8</ele>
        <time>2023-04-25T13:05:27Z</time>
      </trkpt>
      <trkpt lat="49.17861" lon="-0.8056">
        <ele>129.8</ele>
        <time>2023-04-25T13:05:28Z</time>
      </trkpt>
      <trkpt lat="49.17861" lon="-0.8056">
        <ele>129.8</ele>
        <time>2023-04-25T13:05:29Z</time>
      </trkpt>
      <trkpt lat="49.17861" lon="-0.8056">
        <ele>129.8</ele>
        <time>2023-04-25T13:05:30Z</time>
      </trkpt>
      <trkpt lat="49.17861" lon="-0.8056">
        <ele>129.8</ele>
        <time>2023-04-25T13:05:31Z</time>
      </trkpt>
      <trkpt lat="49.17861" lon="-0.8056">
        <ele>129.8</ele>
        <time>2023-04-25T13:05:32Z</time>
      </trkpt>
      <trkpt lat="49.17861" lon="-0.8056">
        <ele>129.8</ele>
        <time>2023-04-25T13:05:33Z</time>
      </trkpt>
      <trkpt lat="49.17861" lon="-0.8056">
        <ele>129.8</ele>
        <time>2023-04-25T13:05:34Z</time>
      </trkpt>
      <trkpt lat="49.17861" lon="-0.8056">
        <ele>129.8</ele>
        <time>2023-04-25T13:05:35Z</time>
      </trkpt>
      <trkpt lat="49.17861" lon="-0.8056">
        <ele>129.8</ele>
        <time>2023-04-25T13:05:36Z</time>
      </trkpt>
      <trkpt lat="49.17861" lon="-0.8056">
        <ele>129.8</ele>
        <time>2023-04-25T13:05:37Z</time>
      </trkpt>
      <trkpt lat="49.17861" lon="-0.8056">
        <ele>129.8</ele>
        <time>2023-04-25T13:05:38Z</time>
      </trkpt>
      <trkpt lat="49.17861" lon="-0.8056">
        <ele>129.8</ele>
        <time>2023-04-25T13:05:39Z</time>
      </trkpt>
      <trkpt lat="49.17861" lon="-0.8056">
        <ele>129.8</ele>
        <time>2023-04-25T13:05:40Z</time>
      </trkpt>
      <trkpt lat="49.17861" lon="-0.8056">
        <ele>129.8</ele>
        <time>2023-04-25T13:05:41Z</time>
      </trkpt>
      <trkpt lat="49.17861" lon="-0.8056">
        <ele>129.8</ele>
        <time>2023-04-25T13:05:42Z</time>
      </trkpt>
      <trkpt lat="49.17861" lon="-0.8056">
        <ele>129.8</ele>
        <time>2023-04-25T13:05:43Z</time>
      </trkpt>
      <trkpt lat="49.17861" lon="-0.8056">
        <ele>129.8</ele>
        <time>2023-04-25T13:05:44Z</time>
      </trkpt>
      <trkpt lat="49.17861" lon="-0.8056">
        <ele>129.8</ele>
        <time>2023-04-25T13:05:45Z</time>
      </trkpt>
      <trkpt lat="49.17861" lon="-0.8056">
        <ele>129.8</ele>
        <time>2023-04-25T13:05:46Z</time>
      </trkpt>
      <trkpt lat="49.17861" lon="-0.8056">
        <ele>129.8</ele>
        <time>2023-04-25T13:05:47Z</time>
      </trkpt>
      <trkpt lat="49.17862" lon="-0.80559">
        <ele>129.8</ele>
        <time>2023-04-25T13:05:48Z</time>
      </trkpt>
      <trkpt lat="49.17862" lon="-0.80558">
        <ele>129.8</ele>
        <time>2023-04-25T13:05:49Z</time>
      </trkpt>
      <trkpt lat="49.17864" lon="-0.80556">
        <ele>129.8</ele>
        <time>2023-04-25T13:05:50Z</time>
      </trkpt>
      <trkpt lat="49.17865" lon="-0.80552">
        <ele>130</ele>
        <time>2023-04-25T13:05:51Z</time>
      </trkpt>
      <trkpt lat="49.17865" lon="-0.80548">
        <ele>130</ele>
        <time>2023-04-25T13:05:52Z</time>
      </trkpt>
      <trkpt lat="49.17864" lon="-0.80544">
        <ele>130</ele>
        <time>2023-04-25T13:05:53Z</time>
      </trkpt>
      <trkpt lat="49.17864" lon="-0.80539">
        <ele>130.2</ele>
        <time>2023-04-25T13:05:54Z</time>
      </trkpt>
      <trkpt lat="49.17863" lon="-0.80533">
        <ele>130.2</ele>
        <time>2023-04-25T13:05:55Z</time>
      </trkpt>
      <trkpt lat="49.17863" lon="-0.80527">
        <ele>130.2</ele>
        <time>2023-04-25T13:05:56Z</time>
      </trkpt>
      <trkpt lat="49.17862" lon="-0.8052">
        <ele>130.2</ele>
        <time>2023-04-25T13:05:57Z</time>
      </trkpt>
      <trkpt lat="49.17862" lon="-0.80513">
        <ele>130.2</ele>
        <time>2023-04-25T13:05:58Z</time>
      </trkpt>
      <trkpt lat="49.17861" lon="-0.80506">
        <ele>130.4</ele>
        <time>2023-04-25T13:05:59Z</time>
      </trkpt>
      <trkpt lat="49.1786" lon="-0.80498">
        <ele>130.4</ele>
        <time>2023-04-25T13:06:00Z</time>
      </trkpt>
      <trkpt lat="49.1786" lon="-0.8049">
        <ele>130.2</ele>
        <time>2023-04-25T13:06:01Z</time>
      </trkpt>
      <trkpt lat="49.17859" lon="-0.80482">
        <ele>130.2</ele>
        <time>2023-04-25T13:06:02Z</time>
      </trkpt>
      <trkpt lat="49.17859" lon="-0.80473">
        <ele>130</ele>
        <time>2023-04-25T13:06:03Z</time>
      </trkpt>
      <trkpt lat="49.17858" lon="-0.80465">
        <ele>129.8</ele>
        <time>2023-04-25T13:06:04Z</time>
      </trkpt>
      <trkpt lat="49.17857" lon="-0.80456">
        <ele>129.8</ele>
        <time>2023-04-25T13:06:05Z</time>
      </trkpt>
      <trkpt lat="49.17857" lon="-0.80448">
        <ele>129.6</ele>
        <time>2023-04-25T13:06:06Z</time>
      </trkpt>
      <trkpt lat="49.17856" lon="-0.80439">
        <ele>129.6</ele>
        <time>2023-04-25T13:06:07Z</time>
      </trkpt>
      <trkpt lat="49.17855" lon="-0.8043">
        <ele>129.4</ele>
        <time>2023-04-25T13:06:08Z</time>
      </trkpt>
      <trkpt lat="49.17855" lon="-0.80421">
        <ele>129.4</ele>
        <time>2023-04-25T13:06:09Z</time>
      </trkpt>
      <trkpt lat="49.17854" lon="-0.80412">
        <ele>129.2</ele>
        <time>2023-04-25T13:06:10Z</time>
      </trkpt>
      <trkpt lat="49.17853" lon="-0.80403">
        <ele>129.2</ele>
        <time>2023-04-25T13:06:11Z</time>
      </trkpt>
      <trkpt lat="49.17853" lon="-0.80394">
        <ele>129.2</ele>
        <time>2023-04-25T13:06:12Z</time>
      </trkpt>
      <trkpt lat="49.17852" lon="-0.80386">
        <ele>129.2</ele>
        <time>2023-04-25T13:06:13Z</time>
      </trkpt>
      <trkpt lat="49.17851" lon="-0.80377">
        <ele>129</ele>
        <time>2023-04-25T13:06:14Z</time>
      </trkpt>
      <trkpt lat="49.1785" lon="-0.80368">
        <ele>129</ele>
        <time>2023-04-25T13:06:15Z</time>
      </trkpt>
      <trkpt lat="49.1785" lon="-0.80359">
        <ele>128.8</ele>
        <time>2023-04-25T13:06:16Z</time>
      </trkpt>
      <trkpt lat="49.17849" lon="-0.8035">
        <ele>128.8</ele>
        <time>2023-04-25T13:06:17Z</time>
      </trkpt>
      <trkpt lat="49.17848" lon="-0.80342">
        <ele>128.8</ele>
        <time>2023-04-25T13:06:18Z</time>
      </trkpt>
      <trkpt lat="49.17848" lon="-0.80333">
        <ele>128.8</ele>
        <time>2023-04-25T13:06:19Z</time>
      </trkpt>
      <trkpt lat="49.17847" lon="-0.80324">
        <ele>128.6</ele>
        <time>2023-04-25T13:06:20Z</time>
      </trkpt>
      <trkpt lat="49.17846" lon="-0.80316">
        <ele>128.6</ele>
        <time>2023-04-25T13:06:21Z</time>
      </trkpt>
      <trkpt lat="49.17846" lon="-0.80307">
        <ele>128.6</ele>
        <time>2023-04-25T13:06:22Z</time>
      </trkpt>
      <trkpt lat="49.17845" lon="-0.80298">
        <ele>128.6</ele>
        <time>2023-04-25T13:06:23Z</time>
      </trkpt>
      <trkpt lat="49.17844" lon="-0.8029">
        <ele>128.4</ele>
        <time>2023-04-25T13:06:24Z</time>
      </trkpt>
      <trkpt lat="49.17843" lon="-0.80281">
        <ele>128.4</ele>
        <time>2023-04-25T13:06:25Z</time>
      </trkpt>
      <trkpt lat="49.17843" lon="-0.80272">
        <ele>128.2</ele>
        <time>2023-04-25T13:06:26Z</time>
      </trkpt>
      <trkpt lat="49.17842" lon="-0.80264">
        <ele>128.2</ele>
        <time>2023-04-25T13:06:27Z</time>
      </trkpt>
      <trkpt lat="49.17841" lon="-0.80255">
        <ele>128.2</ele>
        <time>2023-04-25T13:06:28Z</time>
      </trkpt>
      <trkpt lat="49.17841" lon="-0.80246">
        <ele>128</ele>
        <time>2023-04-25T13:06:29Z</time>
      </trkpt>
      <trkpt lat="49.1784" lon="-0.80237">
        <ele>128</ele>
        <time>2023-04-25T13:06:30Z</time>
      </trkpt>
      <trkpt lat="49.17839" lon="-0.80229">
        <ele>128</ele>
        <time>2023-04-25T13:06:31Z</time>
      </trkpt>
      <trkpt lat="49.17839" lon="-0.8022">
        <ele>128</ele>
        <time>2023-04-25T13:06:32Z</time>
      </trkpt>
      <trkpt lat="49.17838" lon="-0.80211">
        <ele>128</ele>
        <time>2023-04-25T13:06:33Z</time>
      </trkpt>
      <trkpt lat="49.17837" lon="-0.80202">
        <ele>128</ele>
        <time>2023-04-25T13:06:34Z</time>
      </trkpt>
      <trkpt lat="49.17836" lon="-0.80193">
        <ele>128</ele>
        <time>2023-04-25T13:06:35Z</time>
      </trkpt>
      <trkpt lat="49.17836" lon="-0.80184">
        <ele>128</ele>
        <time>2023-04-25T13:06:36Z</time>
      </trkpt>
      <trkpt lat="49.17835" lon="-0.80176">
        <ele>128</ele>
        <time>2023-04-25T13:06:37Z</time>
      </trkpt>
      <trkpt lat="49.17834" lon="-0.80167">
        <ele>128</ele>
        <time>2023-04-25T13:06:38Z</time>
      </trkpt>
      <trkpt lat="49.17833" lon="-0.80158">
        <ele>128.2</ele>
        <time>2023-04-25T13:06:39Z</time>
      </trkpt>
      <trkpt lat="49.17833" lon="-0.80149">
        <ele>128.4</ele>
        <time>2023-04-25T13:06:40Z</time>
      </trkpt>
      <trkpt lat="49.17832" lon="-0.8014">
        <ele>128.6</ele>
        <time>2023-04-25T13:06:41Z</time>
      </trkpt>
      <trkpt lat="49.17831" lon="-0.80131">
        <ele>128.8</ele>
        <time>2023-04-25T13:06:42Z</time>
      </trkpt>
      <trkpt lat="49.1783" lon="-0.80122">
        <ele>129</ele>
        <time>2023-04-25T13:06:43Z</time>
      </trkpt>
      <trkpt lat="49.1783" lon="-0.80114">
        <ele>129.2</ele>
        <time>2023-04-25T13:06:44Z</time>
      </trkpt>
      <trkpt lat="49.17829" lon="-0.80105">
        <ele>129.4</ele>
        <time>2023-04-25T13:06:45Z</time>
      </trkpt>
      <trkpt lat="49.17828" lon="-0.80096">
        <ele>129.6</ele>
        <time>2023-04-25T13:06:46Z</time>
      </trkpt>
      <trkpt lat="49.17828" lon="-0.80087">
        <ele>129.8</ele>
        <time>2023-04-25T13:06:47Z</time>
      </trkpt>
      <trkpt lat="49.17827" lon="-0.80079">
        <ele>130</ele>
        <time>2023-04-25T13:06:48Z</time>
      </trkpt>
      <trkpt lat="49.17826" lon="-0.8007">
        <ele>130.2</ele>
        <time>2023-04-25T13:06:49Z</time>
      </trkpt>
      <trkpt lat="49.17826" lon="-0.80061">
        <ele>130.2</ele>
        <time>2023-04-25T13:06:50Z</time>
      </trkpt>
      <trkpt lat="49.17825" lon="-0.80053">
        <ele>130.4</ele>
        <time>2023-04-25T13:06:51Z</time>
      </trkpt>
      <trkpt lat="49.17825" lon="-0.80044">
        <ele>130.4</ele>
        <time>2023-04-25T13:06:52Z</time>
      </trkpt>
      <trkpt lat="49.17824" lon="-0.80035">
        <ele>130.6</ele>
        <time>2023-04-25T13:06:53Z</time>
      </trkpt>
      <trkpt lat="49.17824" lon="-0.80026">
        <ele>130.6</ele>
        <time>2023-04-25T13:06:54Z</time>
      </trkpt>
      <trkpt lat="49.17823" lon="-0.80017">
        <ele>130.8</ele>
        <time>2023-04-25T13:06:55Z</time>
      </trkpt>
      <trkpt lat="49.17823" lon="-0.80008">
        <ele>130.8</ele>
        <time>2023-04-25T13:06:56Z</time>
      </trkpt>
      <trkpt lat="49.17823" lon="-0.79999">
        <ele>131</ele>
        <time>2023-04-25T13:06:57Z</time>
      </trkpt>
      <trkpt lat="49.17823" lon="-0.7999">
        <ele>130.8</ele>
        <time>2023-04-25T13:06:58Z</time>
      </trkpt>
      <trkpt lat="49.17823" lon="-0.79982">
        <ele>130.8</ele>
        <time>2023-04-25T13:06:59Z</time>
      </trkpt>
      <trkpt lat="49.17823" lon="-0.79973">
        <ele>130.6</ele>
        <time>2023-04-25T13:07:00Z</time>
      </trkpt>
      <trkpt lat="49.17823" lon="-0.79964">
        <ele>130.6</ele>
        <time>2023-04-25T13:07:01Z</time>
      </trkpt>
      <trkpt lat="49.17823" lon="-0.79955">
        <ele>130.6</ele>
        <time>2023-04-25T13:07:02Z</time>
      </trkpt>
      <trkpt lat="49.17823" lon="-0.79947">
        <ele>130.4</ele>
        <time>2023-04-25T13:07:03Z</time>
      </trkpt>
      <trkpt lat="49.17823" lon="-0.79938">
        <ele>130.4</ele>
        <time>2023-04-25T13:07:04Z</time>
      </trkpt>
      <trkpt lat="49.17824" lon="-0.79929">
        <ele>130.2</ele>
        <time>2023-04-25T13:07:05Z</time>
      </trkpt>
      <trkpt lat="49.17824" lon="-0.79921">
        <ele>130.2</ele>
        <time>2023-04-25T13:07:06Z</time>
      </trkpt>
      <trkpt lat="49.17825" lon="-0.79912">
        <ele>130.2</ele>
        <time>2023-04-25T13:07:07Z</time>
      </trkpt>
      <trkpt lat="49.17825" lon="-0.79903">
        <ele>130.2</ele>
        <time>2023-04-25T13:07:08Z</time>
      </trkpt>
      <trkpt lat="49.17825" lon="-0.79895">
        <ele>130.4</ele>
        <time>2023-04-25T13:07:09Z</time>
      </trkpt>
      <trkpt lat="49.17825" lon="-0.79886">
        <ele>130.4</ele>
        <time>2023-04-25T13:07:10Z</time>
      </trkpt>
      <trkpt lat="49.17826" lon="-0.79878">
        <ele>130.6</ele>
        <time>2023-04-25T13:07:11Z</time>
      </trkpt>
      <trkpt lat="49.17826" lon="-0.79869">
        <ele>130.6</ele>
        <time>2023-04-25T13:07:12Z</time>
      </trkpt>
      <trkpt lat="49.17826" lon="-0.7986">
        <ele>130.6</ele>
        <time>2023-04-25T13:07:13Z</time>
      </trkpt>
      <trkpt lat="49.17827" lon="-0.79851">
        <ele>130.8</ele>
        <time>2023-04-25T13:07:14Z</time>
      </trkpt>
      <trkpt lat="49.17827" lon="-0.79843">
        <ele>130.8</ele>
        <time>2023-04-25T13:07:15Z</time>
      </trkpt>
      <trkpt lat="49.17827" lon="-0.79834">
        <ele>131</ele>
        <time>2023-04-25T13:07:16Z</time>
      </trkpt>
      <trkpt lat="49.17828" lon="-0.79825">
        <ele>131</ele>
        <time>2023-04-25T13:07:17Z</time>
      </trkpt>
      <trkpt lat="49.17828" lon="-0.79816">
        <ele>131</ele>
        <time>2023-04-25T13:07:18Z</time>
      </trkpt>
      <trkpt lat="49.17828" lon="-0.79807">
        <ele>131</ele>
        <time>2023-04-25T13:07:19Z</time>
      </trkpt>
      <trkpt lat="49.17829" lon="-0.79798">
        <ele>131</ele>
        <time>2023-04-25T13:07:20Z</time>
      </trkpt>
      <trkpt lat="49.17829" lon="-0.79789">
        <ele>131</ele>
        <time>2023-04-25T13:07:21Z</time>
      </trkpt>
      <trkpt lat="49.17829" lon="-0.7978">
        <ele>131</ele>
        <time>2023-04-25T13:07:22Z</time>
      </trkpt>
      <trkpt lat="49.1783" lon="-0.79771">
        <ele>131</ele>
        <time>2023-04-25T13:07:23Z</time>
      </trkpt>
      <trkpt lat="49.1783" lon="-0.79762">
        <ele>131</ele>
        <time>2023-04-25T13:07:24Z</time>
      </trkpt>
      <trkpt lat="49.1783" lon="-0.79753">
        <ele>131</ele>
        <time>2023-04-25T13:07:25Z</time>
      </trkpt>
      <trkpt lat="49.17831" lon="-0.79744">
        <ele>130.8</ele>
        <time>2023-04-25T13:07:26Z</time>
      </trkpt>
      <trkpt lat="49.17831" lon="-0.79735">
        <ele>130.8</ele>
        <time>2023-04-25T13:07:27Z</time>
      </trkpt>
      <trkpt lat="49.17831" lon="-0.79726">
        <ele>130.6</ele>
        <time>2023-04-25T13:07:28Z</time>
      </trkpt>
      <trkpt lat="49.17832" lon="-0.79717">
        <ele>130.6</ele>
        <time>2023-04-25T13:07:29Z</time>
      </trkpt>
      <trkpt lat="49.17832" lon="-0.79708">
        <ele>130.6</ele>
        <time>2023-04-25T13:07:30Z</time>
      </trkpt>
      <trkpt lat="49.17832" lon="-0.79699">
        <ele>130.4</ele>
        <time>2023-04-25T13:07:31Z</time>
      </trkpt>
      <trkpt lat="49.17833" lon="-0.7969">
        <ele>130.4</ele>
        <time>2023-04-25T13:07:32Z</time>
      </trkpt>
      <trkpt lat="49.17833" lon="-0.79681">
        <ele>130.2</ele>
        <time>2023-04-25T13:07:33Z</time>
      </trkpt>
      <trkpt lat="49.17833" lon="-0.79672">
        <ele>130.2</ele>
        <time>2023-04-25T13:07:34Z</time>
      </trkpt>
      <trkpt lat="49.17834" lon="-0.79663">
        <ele>130</ele>
        <time>2023-04-25T13:07:35Z</time>
      </trkpt>
      <trkpt lat="49.17834" lon="-0.79654">
        <ele>130</ele>
        <time>2023-04-25T13:07:36Z</time>
      </trkpt>
      <trkpt lat="49.17834" lon="-0.79645">
        <ele>130</ele>
        <time>2023-04-25T13:07:37Z</time>
      </trkpt>
      <trkpt lat="49.17835" lon="-0.79636">
        <ele>130</ele>
        <time>2023-04-25T13:07:38Z</time>
      </trkpt>
      <trkpt lat="49.17835" lon="-0.79627">
        <ele>130</ele>
        <time>2023-04-25T13:07:39Z</time>
      </trkpt>
      <trkpt lat="49.17835" lon="-0.79618">
        <ele>130</ele>
        <time>2023-04-25T13:07:40Z</time>
      </trkpt>
      <trkpt lat="49.17836" lon="-0.79609">
        <ele>130</ele>
        <time>2023-04-25T13:07:41Z</time>
      </trkpt>
      <trkpt lat="49.17836" lon="-0.796">
        <ele>130</ele>
        <time>2023-04-25T13:07:42Z</time>
      </trkpt>
      <trkpt lat="49.17836" lon="-0.79591">
        <ele>130</ele>
        <time>2023-04-25T13:07:43Z</time>
      </trkpt>
      <trkpt lat="49.17837" lon="-0.79582">
        <ele>129.8</ele>
        <time>2023-04-25T13:07:44Z</time>
      </trkpt>
      <trkpt lat="49.17837" lon="-0.79572">
        <ele>129.6</ele>
        <time>2023-04-25T13:07:45Z</time>
      </trkpt>
      <trkpt lat="49.17837" lon="-0.79563">
        <ele>129.6</ele>
        <time>2023-04-25T13:07:46Z</time>
      </trkpt>
      <trkpt lat="49.17838" lon="-0.79553">
        <ele>129.2</ele>
        <time>2023-04-25T13:07:47Z</time>
      </trkpt>
      <trkpt lat="49.17838" lon="-0.79544">
        <ele>129</ele>
        <time>2023-04-25T13:07:48Z</time>
      </trkpt>
      <trkpt lat="49.17838" lon="-0.79534">
        <ele>128.8</ele>
        <time>2023-04-25T13:07:49Z</time>
      </trkpt>
      <trkpt lat="49.17839" lon="-0.79525">
        <ele>128.6</ele>
        <time>2023-04-25T13:07:50Z</time>
      </trkpt>
      <trkpt lat="49.17839" lon="-0.79515">
        <ele>128.4</ele>
        <time>2023-04-25T13:07:51Z</time>
      </trkpt>
      <trkpt lat="49.17839" lon="-0.79506">
        <ele>128.2</ele>
        <time>2023-04-25T13:07:52Z</time>
      </trkpt>
      <trkpt lat="49.1784" lon="-0.79496">
        <ele>128</ele>
        <time>2023-04-25T13:07:53Z</time>
      </trkpt>
      <trkpt lat="49.1784" lon="-0.79487">
        <ele>128</ele>
        <time>2023-04-25T13:07:54Z</time>
      </trkpt>
      <trkpt lat="49.1784" lon="-0.79477">
        <ele>128</ele>
        <time>2023-04-25T13:07:55Z</time>
      </trkpt>
      <trkpt lat="49.17841" lon="-0.79467">
        <ele>128</ele>
        <time>2023-04-25T13:07:56Z</time>
      </trkpt>
      <trkpt lat="49.17841" lon="-0.79458">
        <ele>128</ele>
        <time>2023-04-25T13:07:57Z</time>
      </trkpt>
      <trkpt lat="49.17842" lon="-0.79448">
        <ele>128</ele>
        <time>2023-04-25T13:07:58Z</time>
      </trkpt>
      <trkpt lat="49.17842" lon="-0.79438">
        <ele>128</ele>
        <time>2023-04-25T13:07:59Z</time>
      </trkpt>
      <trkpt lat="49.17842" lon="-0.79428">
        <ele>128</ele>
        <time>2023-04-25T13:08:00Z</time>
      </trkpt>
      <trkpt lat="49.17843" lon="-0.79419">
        <ele>128</ele>
        <time>2023-04-25T13:08:01Z</time>
      </trkpt>
      <trkpt lat="49.17843" lon="-0.79409">
        <ele>128</ele>
        <time>2023-04-25T13:08:02Z</time>
      </trkpt>
      <trkpt lat="49.17843" lon="-0.794">
        <ele>128</ele>
        <time>2023-04-25T13:08:03Z</time>
      </trkpt>
      <trkpt lat="49.17843" lon="-0.7939">
        <ele>128</ele>
        <time>2023-04-25T13:08:04Z</time>
      </trkpt>
      <trkpt lat="49.17844" lon="-0.79381">
        <ele>128</ele>
        <time>2023-04-25T13:08:05Z</time>
      </trkpt>
      <trkpt lat="49.17844" lon="-0.79372">
        <ele>128</ele>
        <time>2023-04-25T13:08:06Z</time>
      </trkpt>
      <trkpt lat="49.17845" lon="-0.79362">
        <ele>128</ele>
        <time>2023-04-25T13:08:07Z</time>
      </trkpt>
      <trkpt lat="49.17845" lon="-0.79353">
        <ele>128</ele>
        <time>2023-04-25T13:08:08Z</time>
      </trkpt>
      <trkpt lat="49.17845" lon="-0.79344">
        <ele>128</ele>
        <time>2023-04-25T13:08:09Z</time>
      </trkpt>
      <trkpt lat="49.17845" lon="-0.79335">
        <ele>128</ele>
        <time>2023-04-25T13:08:10Z</time>
      </trkpt>
      <trkpt lat="49.17846" lon="-0.79326">
        <ele>127.8</ele>
        <time>2023-04-25T13:08:11Z</time>
      </trkpt>
      <trkpt lat="49.17846" lon="-0.79317">
        <ele>127.8</ele>
        <time>2023-04-25T13:08:12Z</time>
      </trkpt>
      <trkpt lat="49.17846" lon="-0.79309">
        <ele>127.8</ele>
        <time>2023-04-25T13:08:13Z</time>
      </trkpt>
      <trkpt lat="49.17846" lon="-0.793">
        <ele>127.8</ele>
        <time>2023-04-25T13:08:14Z</time>
      </trkpt>
      <trkpt lat="49.17847" lon="-0.79291">
        <ele>127.8</ele>
        <time>2023-04-25T13:08:15Z</time>
      </trkpt>
      <trkpt lat="49.17847" lon="-0.79282">
        <ele>127.6</ele>
        <time>2023-04-25T13:08:16Z</time>
      </trkpt>
      <trkpt lat="49.17847" lon="-0.79274">
        <ele>127.6</ele>
        <time>2023-04-25T13:08:17Z</time>
      </trkpt>
      <trkpt lat="49.17848" lon="-0.79265">
        <ele>127.6</ele>
        <time>2023-04-25T13:08:18Z</time>
      </trkpt>
      <trkpt lat="49.17848" lon="-0.79256">
        <ele>127.6</ele>
        <time>2023-04-25T13:08:19Z</time>
      </trkpt>
      <trkpt lat="49.17848" lon="-0.79247">
        <ele>127.6</ele>
        <time>2023-04-25T13:08:20Z</time>
      </trkpt>
      <trkpt lat="49.17848" lon="-0.79239">
        <ele>127.8</ele>
        <time>2023-04-25T13:08:21Z</time>
      </trkpt>
      <trkpt lat="49.17849" lon="-0.7923">
        <ele>127.8</ele>
        <time>2023-04-25T13:08:22Z</time>
      </trkpt>
      <trkpt lat="49.17849" lon="-0.79221">
        <ele>128</ele>
        <time>2023-04-25T13:08:23Z</time>
      </trkpt>
      <trkpt lat="49.17849" lon="-0.79212">
        <ele>128</ele>
        <time>2023-04-25T13:08:24Z</time>
      </trkpt>
      <trkpt lat="49.17849" lon="-0.79204">
        <ele>128.2</ele>
        <time>2023-04-25T13:08:25Z</time>
      </trkpt>
      <trkpt lat="49.1785" lon="-0.79195">
        <ele>128.2</ele>
        <time>2023-04-25T13:08:26Z</time>
      </trkpt>
      <trkpt lat="49.1785" lon="-0.79186">
        <ele>128.2</ele>
        <time>2023-04-25T13:08:27Z</time>
      </trkpt>
      <trkpt lat="49.1785" lon="-0.79177">
        <ele>128.4</ele>
        <time>2023-04-25T13:08:28Z</time>
      </trkpt>
      <trkpt lat="49.17851" lon="-0.79169">
        <ele>128.4</ele>
        <time>2023-04-25T13:08:29Z</time>
      </trkpt>
      <trkpt lat="49.17851" lon="-0.7916">
        <ele>128.4</ele>
        <time>2023-04-25T13:08:30Z</time>
      </trkpt>
      <trkpt lat="49.17851" lon="-0.79151">
        <ele>128.4</ele>
        <time>2023-04-25T13:08:31Z</time>
      </trkpt>
      <trkpt lat="49.17851" lon="-0.79143">
        <ele>128.4</ele>
        <time>2023-04-25T13:08:32Z</time>
      </trkpt>
      <trkpt lat="49.17852" lon="-0.79134">
        <ele>128.4</ele>
        <time>2023-04-25T13:08:33Z</time>
      </trkpt>
      <trkpt lat="49.17852" lon="-0.79126">
        <ele>128.4</ele>
        <time>2023-04-25T13:08:34Z</time>
      </trkpt>
      <trkpt lat="49.17852" lon="-0.79117">
        <ele>128.6</ele>
        <time>2023-04-25T13:08:35Z</time>
      </trkpt>
      <trkpt lat="49.17852" lon="-0.79109">
        <ele>128.6</ele>
        <time>2023-04-25T13:08:36Z</time>
      </trkpt>
      <trkpt lat="49.17853" lon="-0.791">
        <ele>128.6</ele>
        <time>2023-04-25T13:08:37Z</time>
      </trkpt>
      <trkpt lat="49.17853" lon="-0.79092">
        <ele>128.6</ele>
        <time>2023-04-25T13:08:38Z</time>
      </trkpt>
      <trkpt lat="49.17853" lon="-0.79084">
        <ele>128.6</ele>
        <time>2023-04-25T13:08:39Z</time>
      </trkpt>
      <trkpt lat="49.17854" lon="-0.79075">
        <ele>128.6</ele>
        <time>2023-04-25T13:08:40Z</time>
      </trkpt>
      <trkpt lat="49.17854" lon="-0.79067">
        <ele>128.6</ele>
        <time>2023-04-25T13:08:41Z</time>
      </trkpt>
      <trkpt lat="49.17854" lon="-0.79059">
        <ele>128.6</ele>
        <time>2023-04-25T13:08:42Z</time>
      </trkpt>
      <trkpt lat="49.17854" lon="-0.7905">
        <ele>128.6</ele>
        <time>2023-04-25T13:08:43Z</time>
      </trkpt>
      <trkpt lat="49.17855" lon="-0.79042">
        <ele>128.6</ele>
        <time>2023-04-25T13:08:44Z</time>
      </trkpt>
      <trkpt lat="49.17855" lon="-0.79034">
        <ele>128.6</ele>
        <time>2023-04-25T13:08:45Z</time>
      </trkpt>
      <trkpt lat="49.17855" lon="-0.79026">
        <ele>128.6</ele>
        <time>2023-04-25T13:08:46Z</time>
      </trkpt>
      <trkpt lat="49.17856" lon="-0.79018">
        <ele>128.6</ele>
        <time>2023-04-25T13:08:47Z</time>
      </trkpt>
      <trkpt lat="49.17856" lon="-0.79009">
        <ele>128.6</ele>
        <time>2023-04-25T13:08:48Z</time>
      </trkpt>
      <trkpt lat="49.17856" lon="-0.79001">
        <ele>128.6</ele>
        <time>2023-04-25T13:08:49Z</time>
      </trkpt>
      <trkpt lat="49.17856" lon="-0.78993">
        <ele>128.8</ele>
        <time>2023-04-25T13:08:50Z</time>
      </trkpt>
      <trkpt lat="49.17857" lon="-0.78985">
        <ele>129</ele>
        <time>2023-04-25T13:08:51Z</time>
      </trkpt>
      <trkpt lat="49.17857" lon="-0.78976">
        <ele>129.2</ele>
        <time>2023-04-25T13:08:52Z</time>
      </trkpt>
      <trkpt lat="49.17857" lon="-0.78968">
        <ele>129.4</ele>
        <time>2023-04-25T13:08:53Z</time>
      </trkpt>
      <trkpt lat="49.17857" lon="-0.7896">
        <ele>129.4</ele>
        <time>2023-04-25T13:08:54Z</time>
      </trkpt>
      <trkpt lat="49.17858" lon="-0.78952">
        <ele>129.6</ele>
        <time>2023-04-25T13:08:55Z</time>
      </trkpt>
      <trkpt lat="49.17858" lon="-0.78943">
        <ele>129.6</ele>
        <time>2023-04-25T13:08:56Z</time>
      </trkpt>
      <trkpt lat="49.17858" lon="-0.78935">
        <ele>129.8</ele>
        <time>2023-04-25T13:08:57Z</time>
      </trkpt>
      <trkpt lat="49.17858" lon="-0.78926">
        <ele>129.8</ele>
        <time>2023-04-25T13:08:58Z</time>
      </trkpt>
      <trkpt lat="49.17859" lon="-0.78918">
        <ele>130.2</ele>
        <time>2023-04-25T13:08:59Z</time>
      </trkpt>
      <trkpt lat="49.17859" lon="-0.7891">
        <ele>130.2</ele>
        <time>2023-04-25T13:09:00Z</time>
      </trkpt>
      <trkpt lat="49.17859" lon="-0.78901">
        <ele>130.2</ele>
        <time>2023-04-25T13:09:01Z</time>
      </trkpt>
      <trkpt lat="49.17859" lon="-0.78893">
        <ele>130.2</ele>
        <time>2023-04-25T13:09:02Z</time>
      </trkpt>
      <trkpt lat="49.1786" lon="-0.78884">
        <ele>130.2</ele>
        <time>2023-04-25T13:09:03Z</time>
      </trkpt>
      <trkpt lat="49.1786" lon="-0.78876">
        <ele>130.2</ele>
        <time>2023-04-25T13:09:04Z</time>
      </trkpt>
      <trkpt lat="49.1786" lon="-0.78867">
        <ele>130.2</ele>
        <time>2023-04-25T13:09:05Z</time>
      </trkpt>
      <trkpt lat="49.17861" lon="-0.78859">
        <ele>130.2</ele>
        <time>2023-04-25T13:09:06Z</time>
      </trkpt>
      <trkpt lat="49.17861" lon="-0.7885">
        <ele>130.4</ele>
        <time>2023-04-25T13:09:07Z</time>
      </trkpt>
      <trkpt lat="49.17861" lon="-0.78841">
        <ele>130.4</ele>
        <time>2023-04-25T13:09:08Z</time>
      </trkpt>
      <trkpt lat="49.17862" lon="-0.78833">
        <ele>130.4</ele>
        <time>2023-04-25T13:09:09Z</time>
      </trkpt>
      <trkpt lat="49.17862" lon="-0.78824">
        <ele>130.2</ele>
        <time>2023-04-25T13:09:10Z</time>
      </trkpt>
      <trkpt lat="49.17862" lon="-0.78815">
        <ele>130.2</ele>
        <time>2023-04-25T13:09:11Z</time>
      </trkpt>
      <trkpt lat="49.17862" lon="-0.78807">
        <ele>130.2</ele>
        <time>2023-04-25T13:09:12Z</time>
      </trkpt>
      <trkpt lat="49.17863" lon="-0.78798">
        <ele>130</ele>
        <time>2023-04-25T13:09:13Z</time>
      </trkpt>
      <trkpt lat="49.17863" lon="-0.78789">
        <ele>129.8</ele>
        <time>2023-04-25T13:09:14Z</time>
      </trkpt>
      <trkpt lat="49.17863" lon="-0.7878">
        <ele>129.8</ele>
        <time>2023-04-25T13:09:15Z</time>
      </trkpt>
      <trkpt lat="49.17864" lon="-0.78771">
        <ele>129.8</ele>
        <time>2023-04-25T13:09:16Z</time>
      </trkpt>
      <trkpt lat="49.17864" lon="-0.78762">
        <ele>129.6</ele>
        <time>2023-04-25T13:09:17Z</time>
      </trkpt>
      <trkpt lat="49.17864" lon="-0.78753">
        <ele>129.6</ele>
        <time>2023-04-25T13:09:18Z</time>
      </trkpt>
      <trkpt lat="49.17865" lon="-0.78744">
        <ele>129.6</ele>
        <time>2023-04-25T13:09:19Z</time>
      </trkpt>
      <trkpt lat="49.17865" lon="-0.78735">
        <ele>129.6</ele>
        <time>2023-04-25T13:09:20Z</time>
      </trkpt>
      <trkpt lat="49.17865" lon="-0.78726">
        <ele>129.6</ele>
        <time>2023-04-25T13:09:21Z</time>
      </trkpt>
      <trkpt lat="49.17865" lon="-0.78716">
        <ele>129.6</ele>
        <time>2023-04-25T13:09:22Z</time>
      </trkpt>
      <trkpt lat="49.17866" lon="-0.78707">
        <ele>129.4</ele>
        <time>2023-04-25T13:09:23Z</time>
      </trkpt>
      <trkpt lat="49.17866" lon="-0.78698">
        <ele>129.4</ele>
        <time>2023-04-25T13:09:24Z</time>
      </trkpt>
      <trkpt lat="49.17866" lon="-0.78689">
        <ele>129.4</ele>
        <time>2023-04-25T13:09:25Z</time>
      </trkpt>
      <trkpt lat="49.17867" lon="-0.7868">
        <ele>129.4</ele>
        <time>2023-04-25T13:09:26Z</time>
      </trkpt>
      <trkpt lat="49.17867" lon="-0.78671">
        <ele>129.2</ele>
        <time>2023-04-25T13:09:27Z</time>
      </trkpt>
      <trkpt lat="49.17867" lon="-0.78662">
        <ele>129.2</ele>
        <time>2023-04-25T13:09:28Z</time>
      </trkpt>
      <trkpt lat="49.17868" lon="-0.78653">
        <ele>129.2</ele>
        <time>2023-04-25T13:09:29Z</time>
      </trkpt>
      <trkpt lat="49.17868" lon="-0.78644">
        <ele>129.2</ele>
        <time>2023-04-25T13:09:30Z</time>
      </trkpt>
      <trkpt lat="49.17868" lon="-0.78635">
        <ele>129.2</ele>
        <time>2023-04-25T13:09:31Z</time>
      </trkpt>
      <trkpt lat="49.17868" lon="-0.78626">
        <ele>129.2</ele>
        <time>2023-04-25T13:09:32Z</time>
      </trkpt>
      <trkpt lat="49.17869" lon="-0.78616">
        <ele>129.2</ele>
        <time>2023-04-25T13:09:33Z</time>
      </trkpt>
      <trkpt lat="49.17869" lon="-0.78607">
        <ele>129.2</ele>
        <time>2023-04-25T13:09:34Z</time>
      </trkpt>
      <trkpt lat="49.17869" lon="-0.78598">
        <ele>129.2</ele>
        <time>2023-04-25T13:09:35Z</time>
      </trkpt>
      <trkpt lat="49.17869" lon="-0.78589">
        <ele>129.2</ele>
        <time>2023-04-25T13:09:36Z</time>
      </trkpt>
      <trkpt lat="49.17869" lon="-0.7858">
        <ele>129.2</ele>
        <time>2023-04-25T13:09:37Z</time>
      </trkpt>
      <trkpt lat="49.1787" lon="-0.78571">
        <ele>129</ele>
        <time>2023-04-25T13:09:38Z</time>
      </trkpt>
      <trkpt lat="49.1787" lon="-0.78561">
        <ele>129</ele>
        <time>2023-04-25T13:09:39Z</time>
      </trkpt>
      <trkpt lat="49.1787" lon="-0.78552">
        <ele>128.8</ele>
        <time>2023-04-25T13:09:40Z</time>
      </trkpt>
      <trkpt lat="49.17871" lon="-0.78543">
        <ele>128.8</ele>
        <time>2023-04-25T13:09:41Z</time>
      </trkpt>
      <trkpt lat="49.17871" lon="-0.78534">
        <ele>128.8</ele>
        <time>2023-04-25T13:09:42Z</time>
      </trkpt>
      <trkpt lat="49.17871" lon="-0.78524">
        <ele>128.6</ele>
        <time>2023-04-25T13:09:43Z</time>
      </trkpt>
      <trkpt lat="49.17871" lon="-0.78515">
        <ele>128.6</ele>
        <time>2023-04-25T13:09:44Z</time>
      </trkpt>
      <trkpt lat="49.17872" lon="-0.78506">
        <ele>128.6</ele>
        <time>2023-04-25T13:09:45Z</time>
      </trkpt>
      <trkpt lat="49.17872" lon="-0.78496">
        <ele>128.6</ele>
        <time>2023-04-25T13:09:46Z</time>
      </trkpt>
      <trkpt lat="49.17872" lon="-0.78487">
        <ele>128.6</ele>
        <time>2023-04-25T13:09:47Z</time>
      </trkpt>
      <trkpt lat="49.17872" lon="-0.78478">
        <ele>128.6</ele>
        <time>2023-04-25T13:09:48Z</time>
      </trkpt>
      <trkpt lat="49.17873" lon="-0.78469">
        <ele>128.6</ele>
        <time>2023-04-25T13:09:49Z</time>
      </trkpt>
      <trkpt lat="49.17873" lon="-0.78459">
        <ele>128.6</ele>
        <time>2023-04-25T13:09:50Z</time>
      </trkpt>
      <trkpt lat="49.17873" lon="-0.7845">
        <ele>128.6</ele>
        <time>2023-04-25T13:09:51Z</time>
      </trkpt>
      <trkpt lat="49.17873" lon="-0.7844">
        <ele>128.6</ele>
        <time>2023-04-25T13:09:52Z</time>
      </trkpt>
      <trkpt lat="49.17874" lon="-0.78431">
        <ele>128.6</ele>
        <time>2023-04-25T13:09:53Z</time>
      </trkpt>
      <trkpt lat="49.17874" lon="-0.78421">
        <ele>128.6</ele>
        <time>2023-04-25T13:09:54Z</time>
      </trkpt>
      <trkpt lat="49.17874" lon="-0.78412">
        <ele>128.6</ele>
        <time>2023-04-25T13:09:55Z</time>
      </trkpt>
      <trkpt lat="49.17875" lon="-0.78403">
        <ele>128.4</ele>
        <time>2023-04-25T13:09:56Z</time>
      </trkpt>
      <trkpt lat="49.17875" lon="-0.78393">
        <ele>128.4</ele>
        <time>2023-04-25T13:09:57Z</time>
      </trkpt>
      <trkpt lat="49.17875" lon="-0.78384">
        <ele>128.4</ele>
        <time>2023-04-25T13:09:58Z</time>
      </trkpt>
      <trkpt lat="49.17876" lon="-0.78374">
        <ele>128.2</ele>
        <time>2023-04-25T13:09:59Z</time>
      </trkpt>
      <trkpt lat="49.17876" lon="-0.78364">
        <ele>128.2</ele>
        <time>2023-04-25T13:10:00Z</time>
      </trkpt>
      <trkpt lat="49.17876" lon="-0.78355">
        <ele>128.2</ele>
        <time>2023-04-25T13:10:01Z</time>
      </trkpt>
      <trkpt lat="49.17876" lon="-0.78345">
        <ele>128</ele>
        <time>2023-04-25T13:10:02Z</time>
      </trkpt>
      <trkpt lat="49.17877" lon="-0.78336">
        <ele>128</ele>
        <time>2023-04-25T13:10:03Z</time>
      </trkpt>
      <trkpt lat="49.17877" lon="-0.78326">
        <ele>128</ele>
        <time>2023-04-25T13:10:04Z</time>
      </trkpt>
      <trkpt lat="49.17877" lon="-0.78316">
        <ele>128</ele>
        <time>2023-04-25T13:10:05Z</time>
      </trkpt>
      <trkpt lat="49.17878" lon="-0.78306">
        <ele>128.2</ele>
        <time>2023-04-25T13:10:06Z</time>
      </trkpt>
      <trkpt lat="49.17878" lon="-0.78297">
        <ele>128.2</ele>
        <time>2023-04-25T13:10:07Z</time>
      </trkpt>
      <trkpt lat="49.17878" lon="-0.78287">
        <ele>128.2</ele>
        <time>2023-04-25T13:10:08Z</time>
      </trkpt>
      <trkpt lat="49.17879" lon="-0.78277">
        <ele>128.2</ele>
        <time>2023-04-25T13:10:09Z</time>
      </trkpt>
      <trkpt lat="49.17879" lon="-0.78268">
        <ele>128.4</ele>
        <time>2023-04-25T13:10:10Z</time>
      </trkpt>
      <trkpt lat="49.17879" lon="-0.78258">
        <ele>128.4</ele>
        <time>2023-04-25T13:10:11Z</time>
      </trkpt>
      <trkpt lat="49.1788" lon="-0.78248">
        <ele>128.4</ele>
        <time>2023-04-25T13:10:12Z</time>
      </trkpt>
      <trkpt lat="49.1788" lon="-0.78239">
        <ele>128.4</ele>
        <time>2023-04-25T13:10:13Z</time>
      </trkpt>
      <trkpt lat="49.1788" lon="-0.78229">
        <ele>128.2</ele>
        <time>2023-04-25T13:10:14Z</time>
      </trkpt>
      <trkpt lat="49.17881" lon="-0.78219">
        <ele>128.2</ele>
        <time>2023-04-25T13:10:15Z</time>
      </trkpt>
      <trkpt lat="49.17881" lon="-0.7821">
        <ele>128.2</ele>
        <time>2023-04-25T13:10:16Z</time>
      </trkpt>
      <trkpt lat="49.17881" lon="-0.782">
        <ele>128</ele>
        <time>2023-04-25T13:10:17Z</time>
      </trkpt>
      <trkpt lat="49.17882" lon="-0.7819">
        <ele>128</ele>
        <time>2023-04-25T13:10:18Z</time>
      </trkpt>
      <trkpt lat="49.17882" lon="-0.78181">
        <ele>128</ele>
        <time>2023-04-25T13:10:19Z</time>
      </trkpt>
      <trkpt lat="49.17882" lon="-0.78171">
        <ele>127.8</ele>
        <time>2023-04-25T13:10:20Z</time>
      </trkpt>
      <trkpt lat="49.17883" lon="-0.78162">
        <ele>128</ele>
        <time>2023-04-25T13:10:21Z</time>
      </trkpt>
      <trkpt lat="49.17883" lon="-0.78152">
        <ele>128</ele>
        <time>2023-04-25T13:10:22Z</time>
      </trkpt>
      <trkpt lat="49.17884" lon="-0.78142">
        <ele>128.2</ele>
        <time>2023-04-25T13:10:23Z</time>
      </trkpt>
      <trkpt lat="49.17885" lon="-0.78133">
        <ele>128.2</ele>
        <time>2023-04-25T13:10:24Z</time>
      </trkpt>
      <trkpt lat="49.17885" lon="-0.78123">
        <ele>128.4</ele>
        <time>2023-04-25T13:10:25Z</time>
      </trkpt>
      <trkpt lat="49.17886" lon="-0.78114">
        <ele>128.4</ele>
        <time>2023-04-25T13:10:26Z</time>
      </trkpt>
      <trkpt lat="49.17887" lon="-0.78104">
        <ele>128.6</ele>
        <time>2023-04-25T13:10:27Z</time>
      </trkpt>
      <trkpt lat="49.17888" lon="-0.78095">
        <ele>128.6</ele>
        <time>2023-04-25T13:10:28Z</time>
      </trkpt>
      <trkpt lat="49.1789" lon="-0.78085">
        <ele>128.6</ele>
        <time>2023-04-25T13:10:29Z</time>
      </trkpt>
      <trkpt lat="49.17891" lon="-0.78076">
        <ele>128.4</ele>
        <time>2023-04-25T13:10:30Z</time>
      </trkpt>
      <trkpt lat="49.17892" lon="-0.78066">
        <ele>128.2</ele>
        <time>2023-04-25T13:10:31Z</time>
      </trkpt>
      <trkpt lat="49.17894" lon="-0.78056">
        <ele>128</ele>
        <time>2023-04-25T13:10:32Z</time>
      </trkpt>
      <trkpt lat="49.17896" lon="-0.78047">
        <ele>127.6</ele>
        <time>2023-04-25T13:10:33Z</time>
      </trkpt>
      <trkpt lat="49.17897" lon="-0.78037">
        <ele>127.4</ele>
        <time>2023-04-25T13:10:34Z</time>
      </trkpt>
      <trkpt lat="49.17899" lon="-0.78027">
        <ele>127</ele>
        <time>2023-04-25T13:10:35Z</time>
      </trkpt>
      <trkpt lat="49.17901" lon="-0.78018">
        <ele>126.8</ele>
        <time>2023-04-25T13:10:36Z</time>
      </trkpt>
      <trkpt lat="49.17903" lon="-0.78008">
        <ele>126.6</ele>
        <time>2023-04-25T13:10:37Z</time>
      </trkpt>
      <trkpt lat="49.17904" lon="-0.77998">
        <ele>126.4</ele>
        <time>2023-04-25T13:10:38Z</time>
      </trkpt>
      <trkpt lat="49.17906" lon="-0.77989">
        <ele>126.4</ele>
        <time>2023-04-25T13:10:39Z</time>
      </trkpt>
      <trkpt lat="49.17908" lon="-0.77979">
        <ele>126.2</ele>
        <time>2023-04-25T13:10:40Z</time>
      </trkpt>
      <trkpt lat="49.1791" lon="-0.77969">
        <ele>126.2</ele>
        <time>2023-04-25T13:10:41Z</time>
      </trkpt>
      <trkpt lat="49.17912" lon="-0.77959">
        <ele>126</ele>
        <time>2023-04-25T13:10:42Z</time>
      </trkpt>
      <trkpt lat="49.17914" lon="-0.77949">
        <ele>126</ele>
        <time>2023-04-25T13:10:43Z</time>
      </trkpt>
      <trkpt lat="49.17916" lon="-0.77939">
        <ele>126</ele>
        <time>2023-04-25T13:10:44Z</time>
      </trkpt>
      <trkpt lat="49.17918" lon="-0.77929">
        <ele>126</ele>
        <time>2023-04-25T13:10:45Z</time>
      </trkpt>
      <trkpt lat="49.17919" lon="-0.77919">
        <ele>126</ele>
        <time>2023-04-25T13:10:46Z</time>
      </trkpt>
      <trkpt lat="49.17921" lon="-0.77909">
        <ele>126</ele>
        <time>2023-04-25T13:10:47Z</time>
      </trkpt>
      <trkpt lat="49.17923" lon="-0.77899">
        <ele>126.4</ele>
        <time>2023-04-25T13:10:48Z</time>
      </trkpt>
      <trkpt lat="49.17925" lon="-0.77889">
        <ele>126.6</ele>
        <time>2023-04-25T13:10:49Z</time>
      </trkpt>
      <trkpt lat="49.17927" lon="-0.77879">
        <ele>126.6</ele>
        <time>2023-04-25T13:10:50Z</time>
      </trkpt>
      <trkpt lat="49.17929" lon="-0.77869">
        <ele>127</ele>
        <time>2023-04-25T13:10:51Z</time>
      </trkpt>
      <trkpt lat="49.17931" lon="-0.77859">
        <ele>127</ele>
        <time>2023-04-25T13:10:52Z</time>
      </trkpt>
      <trkpt lat="49.17933" lon="-0.77849">
        <ele>127.4</ele>
        <time>2023-04-25T13:10:53Z</time>
      </trkpt>
      <trkpt lat="49.17935" lon="-0.77839">
        <ele>127.4</ele>
        <time>2023-04-25T13:10:54Z</time>
      </trkpt>
      <trkpt lat="49.17937" lon="-0.77829">
        <ele>127.6</ele>
        <time>2023-04-25T13:10:55Z</time>
      </trkpt>
      <trkpt lat="49.17939" lon="-0.7782">
        <ele>127.6</ele>
        <time>2023-04-25T13:10:56Z</time>
      </trkpt>
      <trkpt lat="49.17941" lon="-0.7781">
        <ele>127.6</ele>
        <time>2023-04-25T13:10:57Z</time>
      </trkpt>
      <trkpt lat="49.17942" lon="-0.778">
        <ele>127.8</ele>
        <time>2023-04-25T13:10:58Z</time>
      </trkpt>
      <trkpt lat="49.17944" lon="-0.7779">
        <ele>128</ele>
        <time>2023-04-25T13:10:59Z</time>
      </trkpt>
      <trkpt lat="49.17946" lon="-0.7778">
        <ele>128</ele>
        <time>2023-04-25T13:11:00Z</time>
      </trkpt>
      <trkpt lat="49.17948" lon="-0.7777">
        <ele>128</ele>
        <time>2023-04-25T13:11:01Z</time>
      </trkpt>
      <trkpt lat="49.1795" lon="-0.77761">
        <ele>128.2</ele>
        <time>2023-04-25T13:11:02Z</time>
      </trkpt>
      <trkpt lat="49.17951" lon="-0.77751">
        <ele>128.2</ele>
        <time>2023-04-25T13:11:03Z</time>
      </trkpt>
      <trkpt lat="49.17953" lon="-0.77741">
        <ele>128.2</ele>
        <time>2023-04-25T13:11:04Z</time>
      </trkpt>
      <trkpt lat="49.17955" lon="-0.77732">
        <ele>128</ele>
        <time>2023-04-25T13:11:05Z</time>
      </trkpt>
      <trkpt lat="49.17957" lon="-0.77722">
        <ele>128</ele>
        <time>2023-04-25T13:11:06Z</time>
      </trkpt>
      <trkpt lat="49.17959" lon="-0.77712">
        <ele>127.8</ele>
        <time>2023-04-25T13:11:07Z</time>
      </trkpt>
      <trkpt lat="49.17961" lon="-0.77703">
        <ele>127.6</ele>
        <time>2023-04-25T13:11:08Z</time>
      </trkpt>
      <trkpt lat="49.17962" lon="-0.77693">
        <ele>127.6</ele>
        <time>2023-04-25T13:11:09Z</time>
      </trkpt>
      <trkpt lat="49.17964" lon="-0.77683">
        <ele>127.4</ele>
        <time>2023-04-25T13:11:10Z</time>
      </trkpt>
      <trkpt lat="49.17966" lon="-0.77673">
        <ele>127.4</ele>
        <time>2023-04-25T13:11:11Z</time>
      </trkpt>
      <trkpt lat="49.17968" lon="-0.77663">
        <ele>127</ele>
        <time>2023-04-25T13:11:12Z</time>
      </trkpt>
      <trkpt lat="49.1797" lon="-0.77653">
        <ele>127</ele>
        <time>2023-04-25T13:11:13Z</time>
      </trkpt>
      <trkpt lat="49.17972" lon="-0.77644">
        <ele>127</ele>
        <time>2023-04-25T13:11:14Z</time>
      </trkpt>
      <trkpt lat="49.17974" lon="-0.77634">
        <ele>126.8</ele>
        <time>2023-04-25T13:11:15Z</time>
      </trkpt>
      <trkpt lat="49.17976" lon="-0.77624">
        <ele>126.6</ele>
        <time>2023-04-25T13:11:16Z</time>
      </trkpt>
      <trkpt lat="49.17978" lon="-0.77614">
        <ele>126.6</ele>
        <time>2023-04-25T13:11:17Z</time>
      </trkpt>
      <trkpt lat="49.1798" lon="-0.77603">
        <ele>126.6</ele>
        <time>2023-04-25T13:11:18Z</time>
      </trkpt>
      <trkpt lat="49.17981" lon="-0.77593">
        <ele>126.6</ele>
        <time>2023-04-25T13:11:19Z</time>
      </trkpt>
      <trkpt lat="49.17983" lon="-0.77583">
        <ele>126.4</ele>
        <time>2023-04-25T13:11:20Z</time>
      </trkpt>
      <trkpt lat="49.17985" lon="-0.77573">
        <ele>126.4</ele>
        <time>2023-04-25T13:11:21Z</time>
      </trkpt>
      <trkpt lat="49.17987" lon="-0.77563">
        <ele>126</ele>
        <time>2023-04-25T13:11:22Z</time>
      </trkpt>
      <trkpt lat="49.17989" lon="-0.77553">
        <ele>126</ele>
        <time>2023-04-25T13:11:23Z</time>
      </trkpt>
      <trkpt lat="49.17991" lon="-0.77544">
        <ele>125.8</ele>
        <time>2023-04-25T13:11:24Z</time>
      </trkpt>
      <trkpt lat="49.17993" lon="-0.77534">
        <ele>125.6</ele>
        <time>2023-04-25T13:11:25Z</time>
      </trkpt>
      <trkpt lat="49.17995" lon="-0.77524">
        <ele>125.6</ele>
        <time>2023-04-25T13:11:26Z</time>
      </trkpt>
      <trkpt lat="49.17997" lon="-0.77515">
        <ele>125.4</ele>
        <time>2023-04-25T13:11:27Z</time>
      </trkpt>
      <trkpt lat="49.17998" lon="-0.77505">
        <ele>125</ele>
        <time>2023-04-25T13:11:28Z</time>
      </trkpt>
      <trkpt lat="49.18" lon="-0.77496">
        <ele>125</ele>
        <time>2023-04-25T13:11:29Z</time>
      </trkpt>
      <trkpt lat="49.18002" lon="-0.77487">
        <ele>125</ele>
        <time>2023-04-25T13:11:30Z</time>
      </trkpt>
      <trkpt lat="49.18004" lon="-0.77477">
        <ele>125</ele>
        <time>2023-04-25T13:11:31Z</time>
      </trkpt>
      <trkpt lat="49.18006" lon="-0.77468">
        <ele>125</ele>
        <time>2023-04-25T13:11:32Z</time>
      </trkpt>
      <trkpt lat="49.18007" lon="-0.77459">
        <ele>124.8</ele>
        <time>2023-04-25T13:11:33Z</time>
      </trkpt>
      <trkpt lat="49.18009" lon="-0.77449">
        <ele>124.8</ele>
        <time>2023-04-25T13:11:34Z</time>
      </trkpt>
      <trkpt lat="49.18011" lon="-0.7744">
        <ele>124.6</ele>
        <time>2023-04-25T13:11:35Z</time>
      </trkpt>
      <trkpt lat="49.18013" lon="-0.77431">
        <ele>124.6</ele>
        <time>2023-04-25T13:11:36Z</time>
      </trkpt>
      <trkpt lat="49.18014" lon="-0.77422">
        <ele>124.6</ele>
        <time>2023-04-25T13:11:37Z</time>
      </trkpt>
      <trkpt lat="49.18016" lon="-0.77412">
        <ele>124.6</ele>
        <time>2023-04-25T13:11:38Z</time>
      </trkpt>
      <trkpt lat="49.18018" lon="-0.77403">
        <ele>124.6</ele>
        <time>2023-04-25T13:11:39Z</time>
      </trkpt>
      <trkpt lat="49.1802" lon="-0.77393">
        <ele>124.6</ele>
        <time>2023-04-25T13:11:40Z</time>
      </trkpt>
      <trkpt lat="49.18021" lon="-0.77384">
        <ele>124.6</ele>
        <time>2023-04-25T13:11:41Z</time>
      </trkpt>
      <trkpt lat="49.18023" lon="-0.77375">
        <ele>124.4</ele>
        <time>2023-04-25T13:11:42Z</time>
      </trkpt>
      <trkpt lat="49.18025" lon="-0.77365">
        <ele>124.4</ele>
        <time>2023-04-25T13:11:43Z</time>
      </trkpt>
      <trkpt lat="49.18027" lon="-0.77356">
        <ele>124.4</ele>
        <time>2023-04-25T13:11:44Z</time>
      </trkpt>
      <trkpt lat="49.18029" lon="-0.77346">
        <ele>124.4</ele>
        <time>2023-04-25T13:11:45Z</time>
      </trkpt>
      <trkpt lat="49.1803" lon="-0.77336">
        <ele>124.4</ele>
        <time>2023-04-25T13:11:46Z</time>
      </trkpt>
      <trkpt lat="49.18032" lon="-0.77327">
        <ele>124.2</ele>
        <time>2023-04-25T13:11:47Z</time>
      </trkpt>
      <trkpt lat="49.18034" lon="-0.77317">
        <ele>124.2</ele>
        <time>2023-04-25T13:11:48Z</time>
      </trkpt>
      <trkpt lat="49.18036" lon="-0.77307">
        <ele>124</ele>
        <time>2023-04-25T13:11:49Z</time>
      </trkpt>
      <trkpt lat="49.18038" lon="-0.77297">
        <ele>124</ele>
        <time>2023-04-25T13:11:50Z</time>
      </trkpt>
      <trkpt lat="49.1804" lon="-0.77287">
        <ele>124</ele>
        <time>2023-04-25T13:11:51Z</time>
      </trkpt>
      <trkpt lat="49.18042" lon="-0.77277">
        <ele>124</ele>
        <time>2023-04-25T13:11:52Z</time>
      </trkpt>
      <trkpt lat="49.18043" lon="-0.77267">
        <ele>124</ele>
        <time>2023-04-25T13:11:53Z</time>
      </trkpt>
      <trkpt lat="49.18045" lon="-0.77257">
        <ele>124</ele>
        <time>2023-04-25T13:11:54Z</time>
      </trkpt>
      <trkpt lat="49.18047" lon="-0.77246">
        <ele>123.8</ele>
        <time>2023-04-25T13:11:55Z</time>
      </trkpt>
      <trkpt lat="49.18049" lon="-0.77236">
        <ele>123.6</ele>
        <time>2023-04-25T13:11:56Z</time>
      </trkpt>
      <trkpt lat="49.18052" lon="-0.77225">
        <ele>123.6</ele>
        <time>2023-04-25T13:11:57Z</time>
      </trkpt>
      <trkpt lat="49.18054" lon="-0.77214">
        <ele>123.4</ele>
        <time>2023-04-25T13:11:58Z</time>
      </trkpt>
      <trkpt lat="49.18056" lon="-0.77203">
        <ele>123</ele>
        <time>2023-04-25T13:11:59Z</time>
      </trkpt>
      <trkpt lat="49.18058" lon="-0.77192">
        <ele>123</ele>
        <time>2023-04-25T13:12:00Z</time>
      </trkpt>
      <trkpt lat="49.1806" lon="-0.77181">
        <ele>122.6</ele>
        <time>2023-04-25T13:12:01Z</time>
      </trkpt>
      <trkpt lat="49.18062" lon="-0.7717">
        <ele>122.6</ele>
        <time>2023-04-25T13:12:02Z</time>
      </trkpt>
      <trkpt lat="49.18064" lon="-0.77159">
        <ele>122.4</ele>
        <time>2023-04-25T13:12:03Z</time>
      </trkpt>
      <trkpt lat="49.18066" lon="-0.77148">
        <ele>122.4</ele>
        <time>2023-04-25T13:12:04Z</time>
      </trkpt>
      <trkpt lat="49.18069" lon="-0.77137">
        <ele>122.2</ele>
        <time>2023-04-25T13:12:05Z</time>
      </trkpt>
      <trkpt lat="49.18071" lon="-0.77125">
        <ele>122.2</ele>
        <time>2023-04-25T13:12:06Z</time>
      </trkpt>
      <trkpt lat="49.18073" lon="-0.77114">
        <ele>122</ele>
        <time>2023-04-25T13:12:07Z</time>
      </trkpt>
      <trkpt lat="49.18075" lon="-0.77103">
        <ele>122</ele>
        <time>2023-04-25T13:12:08Z</time>
      </trkpt>
      <trkpt lat="49.18077" lon="-0.77092">
        <ele>122</ele>
        <time>2023-04-25T13:12:09Z</time>
      </trkpt>
      <trkpt lat="49.18079" lon="-0.77081">
        <ele>122</ele>
        <time>2023-04-25T13:12:10Z</time>
      </trkpt>
      <trkpt lat="49.18081" lon="-0.7707">
        <ele>121.8</ele>
        <time>2023-04-25T13:12:11Z</time>
      </trkpt>
      <trkpt lat="49.18083" lon="-0.77059">
        <ele>121.6</ele>
        <time>2023-04-25T13:12:12Z</time>
      </trkpt>
      <trkpt lat="49.18085" lon="-0.77048">
        <ele>121.6</ele>
        <time>2023-04-25T13:12:13Z</time>
      </trkpt>
      <trkpt lat="49.18088" lon="-0.77037">
        <ele>121.4</ele>
        <time>2023-04-25T13:12:14Z</time>
      </trkpt>
      <trkpt lat="49.1809" lon="-0.77026">
        <ele>121.4</ele>
        <time>2023-04-25T13:12:15Z</time>
      </trkpt>
      <trkpt lat="49.18092" lon="-0.77015">
        <ele>121</ele>
        <time>2023-04-25T13:12:16Z</time>
      </trkpt>
      <trkpt lat="49.18094" lon="-0.77004">
        <ele>121</ele>
        <time>2023-04-25T13:12:17Z</time>
      </trkpt>
      <trkpt lat="49.18096" lon="-0.76992">
        <ele>121</ele>
        <time>2023-04-25T13:12:18Z</time>
      </trkpt>
      <trkpt lat="49.18098" lon="-0.76982">
        <ele>121</ele>
        <time>2023-04-25T13:12:19Z</time>
      </trkpt>
      <trkpt lat="49.181" lon="-0.7697">
        <ele>121</ele>
        <time>2023-04-25T13:12:20Z</time>
      </trkpt>
      <trkpt lat="49.18102" lon="-0.76959">
        <ele>121</ele>
        <time>2023-04-25T13:12:21Z</time>
      </trkpt>
      <trkpt lat="49.18105" lon="-0.76948">
        <ele>121.2</ele>
        <time>2023-04-25T13:12:22Z</time>
      </trkpt>
      <trkpt lat="49.18107" lon="-0.76937">
        <ele>121.2</ele>
        <time>2023-04-25T13:12:23Z</time>
      </trkpt>
      <trkpt lat="49.18109" lon="-0.76926">
        <ele>121.4</ele>
        <time>2023-04-25T13:12:24Z</time>
      </trkpt>
      <trkpt lat="49.18111" lon="-0.76914">
        <ele>121.4</ele>
        <time>2023-04-25T13:12:25Z</time>
      </trkpt>
      <trkpt lat="49.18113" lon="-0.76903">
        <ele>121</ele>
        <time>2023-04-25T13:12:26Z</time>
      </trkpt>
      <trkpt lat="49.18116" lon="-0.76892">
        <ele>121</ele>
        <time>2023-04-25T13:12:27Z</time>
      </trkpt>
      <trkpt lat="49.18118" lon="-0.76881">
        <ele>120.8</ele>
        <time>2023-04-25T13:12:28Z</time>
      </trkpt>
      <trkpt lat="49.1812" lon="-0.7687">
        <ele>120.6</ele>
        <time>2023-04-25T13:12:29Z</time>
      </trkpt>
      <trkpt lat="49.18122" lon="-0.76858">
        <ele>120.4</ele>
        <time>2023-04-25T13:12:30Z</time>
      </trkpt>
      <trkpt lat="49.18124" lon="-0.76847">
        <ele>120.2</ele>
        <time>2023-04-25T13:12:31Z</time>
      </trkpt>
      <trkpt lat="49.18127" lon="-0.76836">
        <ele>120</ele>
        <time>2023-04-25T13:12:32Z</time>
      </trkpt>
      <trkpt lat="49.18129" lon="-0.76825">
        <ele>120</ele>
        <time>2023-04-25T13:12:33Z</time>
      </trkpt>
      <trkpt lat="49.18131" lon="-0.76813">
        <ele>119.8</ele>
        <time>2023-04-25T13:12:34Z</time>
      </trkpt>
      <trkpt lat="49.18133" lon="-0.76802">
        <ele>119.6</ele>
        <time>2023-04-25T13:12:35Z</time>
      </trkpt>
      <trkpt lat="49.18135" lon="-0.76791">
        <ele>119.6</ele>
        <time>2023-04-25T13:12:36Z</time>
      </trkpt>
      <trkpt lat="49.18137" lon="-0.7678">
        <ele>119.4</ele>
        <time>2023-04-25T13:12:37Z</time>
      </trkpt>
      <trkpt lat="49.18139" lon="-0.76769">
        <ele>119.2</ele>
        <time>2023-04-25T13:12:38Z</time>
      </trkpt>
      <trkpt lat="49.18141" lon="-0.76758">
        <ele>119</ele>
        <time>2023-04-25T13:12:39Z</time>
      </trkpt>
      <trkpt lat="49.18144" lon="-0.76747">
        <ele>119</ele>
        <time>2023-04-25T13:12:40Z</time>
      </trkpt>
      <trkpt lat="49.18146" lon="-0.76736">
        <ele>119</ele>
        <time>2023-04-25T13:12:41Z</time>
      </trkpt>
      <trkpt lat="49.18148" lon="-0.76726">
        <ele>119</ele>
        <time>2023-04-25T13:12:42Z</time>
      </trkpt>
      <trkpt lat="49.1815" lon="-0.76715">
        <ele>119</ele>
        <time>2023-04-25T13:12:43Z</time>
      </trkpt>
      <trkpt lat="49.18152" lon="-0.76704">
        <ele>119</ele>
        <time>2023-04-25T13:12:44Z</time>
      </trkpt>
      <trkpt lat="49.18154" lon="-0.76693">
        <ele>119</ele>
        <time>2023-04-25T13:12:45Z</time>
      </trkpt>
      <trkpt lat="49.18156" lon="-0.76683">
        <ele>119</ele>
        <time>2023-04-25T13:12:46Z</time>
      </trkpt>
      <trkpt lat="49.18158" lon="-0.76672">
        <ele>119</ele>
        <time>2023-04-25T13:12:47Z</time>
      </trkpt>
      <trkpt lat="49.1816" lon="-0.76662">
        <ele>119</ele>
        <time>2023-04-25T13:12:48Z</time>
      </trkpt>
      <trkpt lat="49.18162" lon="-0.76652">
        <ele>118.8</ele>
        <time>2023-04-25T13:12:49Z</time>
      </trkpt>
      <trkpt lat="49.18164" lon="-0.76641">
        <ele>118.6</ele>
        <time>2023-04-25T13:12:50Z</time>
      </trkpt>
      <trkpt lat="49.18166" lon="-0.76631">
        <ele>118.6</ele>
        <time>2023-04-25T13:12:51Z</time>
      </trkpt>
      <trkpt lat="49.18168" lon="-0.76621">
        <ele>118.6</ele>
        <time>2023-04-25T13:12:52Z</time>
      </trkpt>
      <trkpt lat="49.1817" lon="-0.76611">
        <ele>118.4</ele>
        <time>2023-04-25T13:12:53Z</time>
      </trkpt>
      <trkpt lat="49.18172" lon="-0.76601">
        <ele>118.4</ele>
        <time>2023-04-25T13:12:54Z</time>
      </trkpt>
      <trkpt lat="49.18174" lon="-0.76592">
        <ele>118.4</ele>
        <time>2023-04-25T13:12:55Z</time>
      </trkpt>
      <trkpt lat="49.18176" lon="-0.76582">
        <ele>118.2</ele>
        <time>2023-04-25T13:12:56Z</time>
      </trkpt>
      <trkpt lat="49.18178" lon="-0.76572">
        <ele>118.4</ele>
        <time>2023-04-25T13:12:57Z</time>
      </trkpt>
      <trkpt lat="49.18179" lon="-0.76563">
        <ele>118.6</ele>
        <time>2023-04-25T13:12:58Z</time>
      </trkpt>
      <trkpt lat="49.18181" lon="-0.76553">
        <ele>118.6</ele>
        <time>2023-04-25T13:12:59Z</time>
      </trkpt>
      <trkpt lat="49.18183" lon="-0.76544">
        <ele>119</ele>
        <time>2023-04-25T13:13:00Z</time>
      </trkpt>
      <trkpt lat="49.18185" lon="-0.76535">
        <ele>119</ele>
        <time>2023-04-25T13:13:01Z</time>
      </trkpt>
      <trkpt lat="49.18187" lon="-0.76526">
        <ele>119.2</ele>
        <time>2023-04-25T13:13:02Z</time>
      </trkpt>
      <trkpt lat="49.18188" lon="-0.76517">
        <ele>119.4</ele>
        <time>2023-04-25T13:13:03Z</time>
      </trkpt>
      <trkpt lat="49.1819" lon="-0.76508">
        <ele>119.6</ele>
        <time>2023-04-25T13:13:04Z</time>
      </trkpt>
      <trkpt lat="49.18192" lon="-0.76499">
        <ele>119.6</ele>
        <time>2023-04-25T13:13:05Z</time>
      </trkpt>
      <trkpt lat="49.18194" lon="-0.76491">
        <ele>119.6</ele>
        <time>2023-04-25T13:13:06Z</time>
      </trkpt>
      <trkpt lat="49.18196" lon="-0.76482">
        <ele>119.6</ele>
        <time>2023-04-25T13:13:07Z</time>
      </trkpt>
      <trkpt lat="49.18197" lon="-0.76474">
        <ele>119.6</ele>
        <time>2023-04-25T13:13:08Z</time>
      </trkpt>
      <trkpt lat="49.18199" lon="-0.76465">
        <ele>119.8</ele>
        <time>2023-04-25T13:13:09Z</time>
      </trkpt>
      <trkpt lat="49.182" lon="-0.76457">
        <ele>119.8</ele>
        <time>2023-04-25T13:13:10Z</time>
      </trkpt>
      <trkpt lat="49.18202" lon="-0.76448">
        <ele>119.8</ele>
        <time>2023-04-25T13:13:11Z</time>
      </trkpt>
      <trkpt lat="49.18203" lon="-0.7644">
        <ele>120</ele>
        <time>2023-04-25T13:13:12Z</time>
      </trkpt>
      <trkpt lat="49.18205" lon="-0.76432">
        <ele>120</ele>
        <time>2023-04-25T13:13:13Z</time>
      </trkpt>
      <trkpt lat="49.18206" lon="-0.76424">
        <ele>120</ele>
        <time>2023-04-25T13:13:14Z</time>
      </trkpt>
      <trkpt lat="49.18208" lon="-0.76417">
        <ele>120</ele>
        <time>2023-04-25T13:13:15Z</time>
      </trkpt>
      <trkpt lat="49.18209" lon="-0.76409">
        <ele>120</ele>
        <time>2023-04-25T13:13:16Z</time>
      </trkpt>
      <trkpt lat="49.18211" lon="-0.76401">
        <ele>120</ele>
        <time>2023-04-25T13:13:17Z</time>
      </trkpt>
      <trkpt lat="49.18212" lon="-0.76393">
        <ele>120.2</ele>
        <time>2023-04-25T13:13:18Z</time>
      </trkpt>
      <trkpt lat="49.18213" lon="-0.76385">
        <ele>120.4</ele>
        <time>2023-04-25T13:13:19Z</time>
      </trkpt>
      <trkpt lat="49.18215" lon="-0.76378">
        <ele>120.4</ele>
        <time>2023-04-25T13:13:20Z</time>
      </trkpt>
      <trkpt lat="49.18216" lon="-0.7637">
        <ele>120.4</ele>
        <time>2023-04-25T13:13:21Z</time>
      </trkpt>
      <trkpt lat="49.18218" lon="-0.76362">
        <ele>120.6</ele>
        <time>2023-04-25T13:13:22Z</time>
      </trkpt>
      <trkpt lat="49.18219" lon="-0.76355">
        <ele>120.6</ele>
        <time>2023-04-25T13:13:23Z</time>
      </trkpt>
      <trkpt lat="49.18221" lon="-0.76347">
        <ele>120.6</ele>
        <time>2023-04-25T13:13:24Z</time>
      </trkpt>
      <trkpt lat="49.18222" lon="-0.76339">
        <ele>120.6</ele>
        <time>2023-04-25T13:13:25Z</time>
      </trkpt>
      <trkpt lat="49.18223" lon="-0.76332">
        <ele>120.6</ele>
        <time>2023-04-25T13:13:26Z</time>
      </trkpt>
      <trkpt lat="49.18225" lon="-0.76324">
        <ele>121</ele>
        <time>2023-04-25T13:13:27Z</time>
      </trkpt>
      <trkpt lat="49.18226" lon="-0.76316">
        <ele>121</ele>
        <time>2023-04-25T13:13:28Z</time>
      </trkpt>
      <trkpt lat="49.18228" lon="-0.76308">
        <ele>121.4</ele>
        <time>2023-04-25T13:13:29Z</time>
      </trkpt>
      <trkpt lat="49.18229" lon="-0.76301">
        <ele>121.4</ele>
        <time>2023-04-25T13:13:30Z</time>
      </trkpt>
      <trkpt lat="49.1823" lon="-0.76293">
        <ele>121.6</ele>
        <time>2023-04-25T13:13:31Z</time>
      </trkpt>
      <trkpt lat="49.18232" lon="-0.76285">
        <ele>121.8</ele>
        <time>2023-04-25T13:13:32Z</time>
      </trkpt>
      <trkpt lat="49.18233" lon="-0.76278">
        <ele>122</ele>
        <time>2023-04-25T13:13:33Z</time>
      </trkpt>
      <trkpt lat="49.18235" lon="-0.7627">
        <ele>122.2</ele>
        <time>2023-04-25T13:13:34Z</time>
      </trkpt>
      <trkpt lat="49.18236" lon="-0.76262">
        <ele>122.4</ele>
        <time>2023-04-25T13:13:35Z</time>
      </trkpt>
      <trkpt lat="49.18238" lon="-0.76255">
        <ele>122.6</ele>
        <time>2023-04-25T13:13:36Z</time>
      </trkpt>
      <trkpt lat="49.18239" lon="-0.76247">
        <ele>122.6</ele>
        <time>2023-04-25T13:13:37Z</time>
      </trkpt>
      <trkpt lat="49.1824" lon="-0.7624">
        <ele>122.8</ele>
        <time>2023-04-25T13:13:38Z</time>
      </trkpt>
      <trkpt lat="49.18242" lon="-0.76232">
        <ele>122.8</ele>
        <time>2023-04-25T13:13:39Z</time>
      </trkpt>
      <trkpt lat="49.18243" lon="-0.76224">
        <ele>123</ele>
        <time>2023-04-25T13:13:40Z</time>
      </trkpt>
      <trkpt lat="49.18245" lon="-0.76217">
        <ele>123</ele>
        <time>2023-04-25T13:13:41Z</time>
      </trkpt>
      <trkpt lat="49.18246" lon="-0.7621">
        <ele>123</ele>
        <time>2023-04-25T13:13:42Z</time>
      </trkpt>
      <trkpt lat="49.18247" lon="-0.76202">
        <ele>123</ele>
        <time>2023-04-25T13:13:43Z</time>
      </trkpt>
      <trkpt lat="49.18249" lon="-0.76195">
        <ele>123</ele>
        <time>2023-04-25T13:13:44Z</time>
      </trkpt>
      <trkpt lat="49.1825" lon="-0.76188">
        <ele>123</ele>
        <time>2023-04-25T13:13:45Z</time>
      </trkpt>
      <trkpt lat="49.18252" lon="-0.76181">
        <ele>123</ele>
        <time>2023-04-25T13:13:46Z</time>
      </trkpt>
      <trkpt lat="49.18253" lon="-0.76173">
        <ele>123</ele>
        <time>2023-04-25T13:13:47Z</time>
      </trkpt>
      <trkpt lat="49.18255" lon="-0.76166">
        <ele>123</ele>
        <time>2023-04-25T13:13:48Z</time>
      </trkpt>
      <trkpt lat="49.18256" lon="-0.76159">
        <ele>123</ele>
        <time>2023-04-25T13:13:49Z</time>
      </trkpt>
      <trkpt lat="49.18257" lon="-0.76152">
        <ele>122.8</ele>
        <time>2023-04-25T13:13:50Z</time>
      </trkpt>
      <trkpt lat="49.18259" lon="-0.76145">
        <ele>122.8</ele>
        <time>2023-04-25T13:13:51Z</time>
      </trkpt>
      <trkpt lat="49.1826" lon="-0.76138">
        <ele>122.6</ele>
        <time>2023-04-25T13:13:52Z</time>
      </trkpt>
      <trkpt lat="49.18261" lon="-0.76131">
        <ele>122.6</ele>
        <time>2023-04-25T13:13:53Z</time>
      </trkpt>
      <trkpt lat="49.18263" lon="-0.76123">
        <ele>122.6</ele>
        <time>2023-04-25T13:13:54Z</time>
      </trkpt>
      <trkpt lat="49.18264" lon="-0.76116">
        <ele>122.6</ele>
        <time>2023-04-25T13:13:55Z</time>
      </trkpt>
      <trkpt lat="49.18265" lon="-0.76109">
        <ele>122.4</ele>
        <time>2023-04-25T13:13:56Z</time>
      </trkpt>
      <trkpt lat="49.18267" lon="-0.76102">
        <ele>122.4</ele>
        <time>2023-04-25T13:13:57Z</time>
      </trkpt>
      <trkpt lat="49.18268" lon="-0.76095">
        <ele>122.4</ele>
        <time>2023-04-25T13:13:58Z</time>
      </trkpt>
      <trkpt lat="49.18269" lon="-0.76087">
        <ele>122.4</ele>
        <time>2023-04-25T13:13:59Z</time>
      </trkpt>
      <trkpt lat="49.18271" lon="-0.7608">
        <ele>122.2</ele>
        <time>2023-04-25T13:14:00Z</time>
      </trkpt>
      <trkpt lat="49.18272" lon="-0.76072">
        <ele>122</ele>
        <time>2023-04-25T13:14:01Z</time>
      </trkpt>
      <trkpt lat="49.18274" lon="-0.76065">
        <ele>122</ele>
        <time>2023-04-25T13:14:02Z</time>
      </trkpt>
      <trkpt lat="49.18275" lon="-0.76057">
        <ele>122</ele>
        <time>2023-04-25T13:14:03Z</time>
      </trkpt>
      <trkpt lat="49.18277" lon="-0.76049">
        <ele>121.8</ele>
        <time>2023-04-25T13:14:04Z</time>
      </trkpt>
      <trkpt lat="49.18278" lon="-0.76041">
        <ele>121.6</ele>
        <time>2023-04-25T13:14:05Z</time>
      </trkpt>
      <trkpt lat="49.1828" lon="-0.76033">
        <ele>121.6</ele>
        <time>2023-04-25T13:14:06Z</time>
      </trkpt>
      <trkpt lat="49.18281" lon="-0.76024">
        <ele>121.4</ele>
        <time>2023-04-25T13:14:07Z</time>
      </trkpt>
      <trkpt lat="49.18283" lon="-0.76016">
        <ele>121.4</ele>
        <time>2023-04-25T13:14:08Z</time>
      </trkpt>
      <trkpt lat="49.18285" lon="-0.76007">
        <ele>121</ele>
        <time>2023-04-25T13:14:09Z</time>
      </trkpt>
      <trkpt lat="49.18286" lon="-0.75998">
        <ele>121</ele>
        <time>2023-04-25T13:14:10Z</time>
      </trkpt>
      <trkpt lat="49.18288" lon="-0.75989">
        <ele>120.8</ele>
        <time>2023-04-25T13:14:11Z</time>
      </trkpt>
      <trkpt lat="49.1829" lon="-0.7598">
        <ele>120.6</ele>
        <time>2023-04-25T13:14:12Z</time>
      </trkpt>
      <trkpt lat="49.18292" lon="-0.75971">
        <ele>120.6</ele>
        <time>2023-04-25T13:14:13Z</time>
      </trkpt>
      <trkpt lat="49.18293" lon="-0.75961">
        <ele>120.4</ele>
        <time>2023-04-25T13:14:14Z</time>
      </trkpt>
      <trkpt lat="49.18295" lon="-0.75952">
        <ele>120.2</ele>
        <time>2023-04-25T13:14:15Z</time>
      </trkpt>
      <trkpt lat="49.18297" lon="-0.75942">
        <ele>120</ele>
        <time>2023-04-25T13:14:16Z</time>
      </trkpt>
      <trkpt lat="49.18299" lon="-0.75932">
        <ele>119.8</ele>
        <time>2023-04-25T13:14:17Z</time>
      </trkpt>
      <trkpt lat="49.18301" lon="-0.75922">
        <ele>119.6</ele>
        <time>2023-04-25T13:14:18Z</time>
      </trkpt>
      <trkpt lat="49.18303" lon="-0.75912">
        <ele>119.6</ele>
        <time>2023-04-25T13:14:19Z</time>
      </trkpt>
      <trkpt lat="49.18305" lon="-0.75902">
        <ele>119.4</ele>
        <time>2023-04-25T13:14:20Z</time>
      </trkpt>
      <trkpt lat="49.18307" lon="-0.75892">
        <ele>119.4</ele>
        <time>2023-04-25T13:14:21Z</time>
      </trkpt>
      <trkpt lat="49.18309" lon="-0.75881">
        <ele>119.2</ele>
        <time>2023-04-25T13:14:22Z</time>
      </trkpt>
      <trkpt lat="49.18311" lon="-0.75871">
        <ele>119</ele>
        <time>2023-04-25T13:14:23Z</time>
      </trkpt>
      <trkpt lat="49.18313" lon="-0.7586">
        <ele>119</ele>
        <time>2023-04-25T13:14:24Z</time>
      </trkpt>
      <trkpt lat="49.18315" lon="-0.75849">
        <ele>118.8</ele>
        <time>2023-04-25T13:14:25Z</time>
      </trkpt>
      <trkpt lat="49.18317" lon="-0.75838">
        <ele>118.6</ele>
        <time>2023-04-25T13:14:26Z</time>
      </trkpt>
      <trkpt lat="49.18319" lon="-0.75827">
        <ele>118.6</ele>
        <time>2023-04-25T13:14:27Z</time>
      </trkpt>
      <trkpt lat="49.18321" lon="-0.75817">
        <ele>118.6</ele>
        <time>2023-04-25T13:14:28Z</time>
      </trkpt>
      <trkpt lat="49.18323" lon="-0.75805">
        <ele>118.4</ele>
        <time>2023-04-25T13:14:29Z</time>
      </trkpt>
      <trkpt lat="49.18325" lon="-0.75794">
        <ele>118.4</ele>
        <time>2023-04-25T13:14:30Z</time>
      </trkpt>
      <trkpt lat="49.18328" lon="-0.75783">
        <ele>118.2</ele>
        <time>2023-04-25T13:14:31Z</time>
      </trkpt>
      <trkpt lat="49.1833" lon="-0.75772">
        <ele>118</ele>
        <time>2023-04-25T13:14:32Z</time>
      </trkpt>
      <trkpt lat="49.18332" lon="-0.7576">
        <ele>118</ele>
        <time>2023-04-25T13:14:33Z</time>
      </trkpt>
      <trkpt lat="49.18334" lon="-0.75749">
        <ele>118</ele>
        <time>2023-04-25T13:14:34Z</time>
      </trkpt>
      <trkpt lat="49.18337" lon="-0.75737">
        <ele>117.6</ele>
        <time>2023-04-25T13:14:35Z</time>
      </trkpt>
      <trkpt lat="49.18339" lon="-0.75725">
        <ele>117</ele>
        <time>2023-04-25T13:14:36Z</time>
      </trkpt>
      <trkpt lat="49.18341" lon="-0.75713">
        <ele>116.6</ele>
        <time>2023-04-25T13:14:37Z</time>
      </trkpt>
      <trkpt lat="49.18343" lon="-0.75702">
        <ele>116</ele>
        <time>2023-04-25T13:14:38Z</time>
      </trkpt>
      <trkpt lat="49.18346" lon="-0.7569">
        <ele>115.6</ele>
        <time>2023-04-25T13:14:39Z</time>
      </trkpt>
      <trkpt lat="49.18348" lon="-0.75678">
        <ele>115</ele>
        <time>2023-04-25T13:14:40Z</time>
      </trkpt>
      <trkpt lat="49.1835" lon="-0.75666">
        <ele>114.6</ele>
        <time>2023-04-25T13:14:41Z</time>
      </trkpt>
      <trkpt lat="49.18352" lon="-0.75653">
        <ele>114.4</ele>
        <time>2023-04-25T13:14:42Z</time>
      </trkpt>
      <trkpt lat="49.18355" lon="-0.75641">
        <ele>114</ele>
        <time>2023-04-25T13:14:43Z</time>
      </trkpt>
      <trkpt lat="49.18357" lon="-0.75629">
        <ele>113.8</ele>
        <time>2023-04-25T13:14:44Z</time>
      </trkpt>
      <trkpt lat="49.1836" lon="-0.75616">
        <ele>113.6</ele>
        <time>2023-04-25T13:14:45Z</time>
      </trkpt>
      <trkpt lat="49.18362" lon="-0.75604">
        <ele>113.4</ele>
        <time>2023-04-25T13:14:46Z</time>
      </trkpt>
      <trkpt lat="49.18364" lon="-0.75591">
        <ele>113</ele>
        <time>2023-04-25T13:14:47Z</time>
      </trkpt>
      <trkpt lat="49.18367" lon="-0.75578">
        <ele>112.6</ele>
        <time>2023-04-25T13:14:48Z</time>
      </trkpt>
      <trkpt lat="49.18369" lon="-0.75565">
        <ele>112.2</ele>
        <time>2023-04-25T13:14:49Z</time>
      </trkpt>
      <trkpt lat="49.18372" lon="-0.75553">
        <ele>111.8</ele>
        <time>2023-04-25T13:14:50Z</time>
      </trkpt>
      <trkpt lat="49.18374" lon="-0.7554">
        <ele>111.4</ele>
        <time>2023-04-25T13:14:51Z</time>
      </trkpt>
      <trkpt lat="49.18377" lon="-0.75527">
        <ele>111</ele>
        <time>2023-04-25T13:14:52Z</time>
      </trkpt>
      <trkpt lat="49.1838" lon="-0.75514">
        <ele>110.6</ele>
        <time>2023-04-25T13:14:53Z</time>
      </trkpt>
      <trkpt lat="49.18382" lon="-0.755">
        <ele>110.2</ele>
        <time>2023-04-25T13:14:54Z</time>
      </trkpt>
      <trkpt lat="49.18385" lon="-0.75487">
        <ele>109.8</ele>
        <time>2023-04-25T13:14:55Z</time>
      </trkpt>
      <trkpt lat="49.18387" lon="-0.75474">
        <ele>109.4</ele>
        <time>2023-04-25T13:14:56Z</time>
      </trkpt>
      <trkpt lat="49.1839" lon="-0.7546">
        <ele>109</ele>
        <time>2023-04-25T13:14:57Z</time>
      </trkpt>
      <trkpt lat="49.18393" lon="-0.75447">
        <ele>108.6</ele>
        <time>2023-04-25T13:14:58Z</time>
      </trkpt>
      <trkpt lat="49.18395" lon="-0.75433">
        <ele>108</ele>
        <time>2023-04-25T13:14:59Z</time>
      </trkpt>
      <trkpt lat="49.18398" lon="-0.7542">
        <ele>107.6</ele>
        <time>2023-04-25T13:15:00Z</time>
      </trkpt>
      <trkpt lat="49.184" lon="-0.75406">
        <ele>107.4</ele>
        <time>2023-04-25T13:15:01Z</time>
      </trkpt>
      <trkpt lat="49.18403" lon="-0.75393">
        <ele>107</ele>
        <time>2023-04-25T13:15:02Z</time>
      </trkpt>
      <trkpt lat="49.18406" lon="-0.75379">
        <ele>106.8</ele>
        <time>2023-04-25T13:15:03Z</time>
      </trkpt>
      <trkpt lat="49.18408" lon="-0.75366">
        <ele>106.6</ele>
        <time>2023-04-25T13:15:04Z</time>
      </trkpt>
      <trkpt lat="49.18411" lon="-0.75352">
        <ele>106.4</ele>
        <time>2023-04-25T13:15:05Z</time>
      </trkpt>
      <trkpt lat="49.18414" lon="-0.75338">
        <ele>106</ele>
        <time>2023-04-25T13:15:06Z</time>
      </trkpt>
      <trkpt lat="49.18416" lon="-0.75325">
        <ele>105.8</ele>
        <time>2023-04-25T13:15:07Z</time>
      </trkpt>
      <trkpt lat="49.18419" lon="-0.75311">
        <ele>105.6</ele>
        <time>2023-04-25T13:15:08Z</time>
      </trkpt>
      <trkpt lat="49.18422" lon="-0.75298">
        <ele>105</ele>
        <time>2023-04-25T13:15:09Z</time>
      </trkpt>
      <trkpt lat="49.18424" lon="-0.75284">
        <ele>104.8</ele>
        <time>2023-04-25T13:15:10Z</time>
      </trkpt>
      <trkpt lat="49.18427" lon="-0.7527">
        <ele>104.6</ele>
        <time>2023-04-25T13:15:11Z</time>
      </trkpt>
      <trkpt lat="49.18429" lon="-0.75257">
        <ele>104.2</ele>
        <time>2023-04-25T13:15:12Z</time>
      </trkpt>
      <trkpt lat="49.18432" lon="-0.75243">
        <ele>103.8</ele>
        <time>2023-04-25T13:15:13Z</time>
      </trkpt>
      <trkpt lat="49.18434" lon="-0.7523">
        <ele>103.4</ele>
        <time>2023-04-25T13:15:14Z</time>
      </trkpt>
      <trkpt lat="49.18437" lon="-0.75217">
        <ele>102.8</ele>
        <time>2023-04-25T13:15:15Z</time>
      </trkpt>
      <trkpt lat="49.18439" lon="-0.75203">
        <ele>102.4</ele>
        <time>2023-04-25T13:15:16Z</time>
      </trkpt>
      <trkpt lat="49.18442" lon="-0.7519">
        <ele>101.8</ele>
        <time>2023-04-25T13:15:17Z</time>
      </trkpt>
      <trkpt lat="49.18444" lon="-0.75177">
        <ele>101.4</ele>
        <time>2023-04-25T13:15:18Z</time>
      </trkpt>
      <trkpt lat="49.18447" lon="-0.75163">
        <ele>101</ele>
        <time>2023-04-25T13:15:19Z</time>
      </trkpt>
      <trkpt lat="49.18449" lon="-0.7515">
        <ele>100.8</ele>
        <time>2023-04-25T13:15:20Z</time>
      </trkpt>
      <trkpt lat="49.18452" lon="-0.75137">
        <ele>100.6</ele>
        <time>2023-04-25T13:15:21Z</time>
      </trkpt>
      <trkpt lat="49.18454" lon="-0.75124">
        <ele>100.4</ele>
        <time>2023-04-25T13:15:22Z</time>
      </trkpt>
      <trkpt lat="49.18456" lon="-0.75111">
        <ele>100.4</ele>
        <time>2023-04-25T13:15:23Z</time>
      </trkpt>
      <trkpt lat="49.18459" lon="-0.75098">
        <ele>100.2</ele>
        <time>2023-04-25T13:15:24Z</time>
      </trkpt>
      <trkpt lat="49.18461" lon="-0.75085">
        <ele>100</ele>
        <time>2023-04-25T13:15:25Z</time>
      </trkpt>
      <trkpt lat="49.18464" lon="-0.75072">
        <ele>100</ele>
        <time>2023-04-25T13:15:26Z</time>
      </trkpt>
      <trkpt lat="49.18466" lon="-0.7506">
        <ele>100</ele>
        <time>2023-04-25T13:15:27Z</time>
      </trkpt>
      <trkpt lat="49.18469" lon="-0.75047">
        <ele>99.8</ele>
        <time>2023-04-25T13:15:28Z</time>
      </trkpt>
      <trkpt lat="49.18471" lon="-0.75034">
        <ele>99.6</ele>
        <time>2023-04-25T13:15:29Z</time>
      </trkpt>
      <trkpt lat="49.18473" lon="-0.75021">
        <ele>99.6</ele>
        <time>2023-04-25T13:15:30Z</time>
      </trkpt>
      <trkpt lat="49.18476" lon="-0.75008">
        <ele>99.6</ele>
        <time>2023-04-25T13:15:31Z</time>
      </trkpt>
      <trkpt lat="49.18479" lon="-0.74995">
        <ele>99.4</ele>
        <time>2023-04-25T13:15:32Z</time>
      </trkpt>
      <trkpt lat="49.18481" lon="-0.74982">
        <ele>99</ele>
        <time>2023-04-25T13:15:33Z</time>
      </trkpt>
      <trkpt lat="49.18483" lon="-0.7497">
        <ele>98.6</ele>
        <time>2023-04-25T13:15:34Z</time>
      </trkpt>
      <trkpt lat="49.18486" lon="-0.74957">
        <ele>98.4</ele>
        <time>2023-04-25T13:15:35Z</time>
      </trkpt>
      <trkpt lat="49.18489" lon="-0.74944">
        <ele>98</ele>
        <time>2023-04-25T13:15:36Z</time>
      </trkpt>
      <trkpt lat="49.18491" lon="-0.74931">
        <ele>97.6</ele>
        <time>2023-04-25T13:15:37Z</time>
      </trkpt>
      <trkpt lat="49.18493" lon="-0.74918">
        <ele>97</ele>
        <time>2023-04-25T13:15:38Z</time>
      </trkpt>
      <trkpt lat="49.18496" lon="-0.74905">
        <ele>96.8</ele>
        <time>2023-04-25T13:15:39Z</time>
      </trkpt>
      <trkpt lat="49.18498" lon="-0.74892">
        <ele>96.4</ele>
        <time>2023-04-25T13:15:40Z</time>
      </trkpt>
      <trkpt lat="49.18501" lon="-0.74879">
        <ele>96</ele>
        <time>2023-04-25T13:15:41Z</time>
      </trkpt>
      <trkpt lat="49.18502" lon="-0.74865">
        <ele>95.8</ele>
        <time>2023-04-25T13:15:42Z</time>
      </trkpt>
      <trkpt lat="49.18504" lon="-0.74852">
        <ele>95.6</ele>
        <time>2023-04-25T13:15:43Z</time>
      </trkpt>
      <trkpt lat="49.18505" lon="-0.74838">
        <ele>95.2</ele>
        <time>2023-04-25T13:15:44Z</time>
      </trkpt>
      <trkpt lat="49.18505" lon="-0.74824">
        <ele>95</ele>
        <time>2023-04-25T13:15:45Z</time>
      </trkpt>
      <trkpt lat="49.18504" lon="-0.7481">
        <ele>94.8</ele>
        <time>2023-04-25T13:15:46Z</time>
      </trkpt>
      <trkpt lat="49.18502" lon="-0.74796">
        <ele>94.6</ele>
        <time>2023-04-25T13:15:47Z</time>
      </trkpt>
      <trkpt lat="49.185" lon="-0.74782">
        <ele>94.4</ele>
        <time>2023-04-25T13:15:48Z</time>
      </trkpt>
      <trkpt lat="49.18497" lon="-0.74769">
        <ele>94.4</ele>
        <time>2023-04-25T13:15:49Z</time>
      </trkpt>
      <trkpt lat="49.18494" lon="-0.74756">
        <ele>94.2</ele>
        <time>2023-04-25T13:15:50Z</time>
      </trkpt>
      <trkpt lat="49.1849" lon="-0.74744">
        <ele>94</ele>
        <time>2023-04-25T13:15:51Z</time>
      </trkpt>
      <trkpt lat="49.18485" lon="-0.74731">
        <ele>94</ele>
        <time>2023-04-25T13:15:52Z</time>
      </trkpt>
      <trkpt lat="49.1848" lon="-0.74719">
        <ele>94</ele>
        <time>2023-04-25T13:15:53Z</time>
      </trkpt>
      <trkpt lat="49.18476" lon="-0.74707">
        <ele>94</ele>
        <time>2023-04-25T13:15:54Z</time>
      </trkpt>
      <trkpt lat="49.18471" lon="-0.74695">
        <ele>94</ele>
        <time>2023-04-25T13:15:55Z</time>
      </trkpt>
      <trkpt lat="49.18466" lon="-0.74683">
        <ele>94</ele>
        <time>2023-04-25T13:15:56Z</time>
      </trkpt>
      <trkpt lat="49.18461" lon="-0.74671">
        <ele>94</ele>
        <time>2023-04-25T13:15:57Z</time>
      </trkpt>
      <trkpt lat="49.18456" lon="-0.74659">
        <ele>94</ele>
        <time>2023-04-25T13:15:58Z</time>
      </trkpt>
      <trkpt lat="49.18451" lon="-0.74647">
        <ele>93.6</ele>
        <time>2023-04-25T13:15:59Z</time>
      </trkpt>
      <trkpt lat="49.18446" lon="-0.74635">
        <ele>93.6</ele>
        <time>2023-04-25T13:16:00Z</time>
      </trkpt>
      <trkpt lat="49.18441" lon="-0.74623">
        <ele>93.4</ele>
        <time>2023-04-25T13:16:01Z</time>
      </trkpt>
      <trkpt lat="49.18436" lon="-0.7461">
        <ele>93.2</ele>
        <time>2023-04-25T13:16:02Z</time>
      </trkpt>
      <trkpt lat="49.18431" lon="-0.74598">
        <ele>93</ele>
        <time>2023-04-25T13:16:03Z</time>
      </trkpt>
      <trkpt lat="49.18426" lon="-0.74586">
        <ele>92.8</ele>
        <time>2023-04-25T13:16:04Z</time>
      </trkpt>
      <trkpt lat="49.18421" lon="-0.74574">
        <ele>92.8</ele>
        <time>2023-04-25T13:16:05Z</time>
      </trkpt>
      <trkpt lat="49.18417" lon="-0.74561">
        <ele>92.6</ele>
        <time>2023-04-25T13:16:06Z</time>
      </trkpt>
      <trkpt lat="49.18412" lon="-0.74549">
        <ele>92.6</ele>
        <time>2023-04-25T13:16:07Z</time>
      </trkpt>
      <trkpt lat="49.18407" lon="-0.74537">
        <ele>92.2</ele>
        <time>2023-04-25T13:16:08Z</time>
      </trkpt>
      <trkpt lat="49.18402" lon="-0.74524">
        <ele>92</ele>
        <time>2023-04-25T13:16:09Z</time>
      </trkpt>
      <trkpt lat="49.18397" lon="-0.74512">
        <ele>91.6</ele>
        <time>2023-04-25T13:16:10Z</time>
      </trkpt>
      <trkpt lat="49.18392" lon="-0.745">
        <ele>91.4</ele>
        <time>2023-04-25T13:16:11Z</time>
      </trkpt>
      <trkpt lat="49.18387" lon="-0.74488">
        <ele>91</ele>
        <time>2023-04-25T13:16:12Z</time>
      </trkpt>
      <trkpt lat="49.18382" lon="-0.74476">
        <ele>90.6</ele>
        <time>2023-04-25T13:16:13Z</time>
      </trkpt>
      <trkpt lat="49.18377" lon="-0.74463">
        <ele>90</ele>
        <time>2023-04-25T13:16:14Z</time>
      </trkpt>
      <trkpt lat="49.18372" lon="-0.74451">
        <ele>89.8</ele>
        <time>2023-04-25T13:16:15Z</time>
      </trkpt>
      <trkpt lat="49.18367" lon="-0.74439">
        <ele>89.6</ele>
        <time>2023-04-25T13:16:16Z</time>
      </trkpt>
      <trkpt lat="49.18362" lon="-0.74427">
        <ele>89.2</ele>
        <time>2023-04-25T13:16:17Z</time>
      </trkpt>
      <trkpt lat="49.18357" lon="-0.74415">
        <ele>89</ele>
        <time>2023-04-25T13:16:18Z</time>
      </trkpt>
      <trkpt lat="49.18352" lon="-0.74403">
        <ele>88.8</ele>
        <time>2023-04-25T13:16:19Z</time>
      </trkpt>
      <trkpt lat="49.18347" lon="-0.7439">
        <ele>88.6</ele>
        <time>2023-04-25T13:16:20Z</time>
      </trkpt>
      <trkpt lat="49.18342" lon="-0.74378">
        <ele>88.6</ele>
        <time>2023-04-25T13:16:21Z</time>
      </trkpt>
      <trkpt lat="49.18337" lon="-0.74366">
        <ele>88.4</ele>
        <time>2023-04-25T13:16:22Z</time>
      </trkpt>
      <trkpt lat="49.18332" lon="-0.74354">
        <ele>88.2</ele>
        <time>2023-04-25T13:16:23Z</time>
      </trkpt>
      <trkpt lat="49.18328" lon="-0.74342">
        <ele>88</ele>
        <time>2023-04-25T13:16:24Z</time>
      </trkpt>
      <trkpt lat="49.18323" lon="-0.7433">
        <ele>87.6</ele>
        <time>2023-04-25T13:16:25Z</time>
      </trkpt>
      <trkpt lat="49.18318" lon="-0.74318">
        <ele>87.6</ele>
        <time>2023-04-25T13:16:26Z</time>
      </trkpt>
      <trkpt lat="49.18313" lon="-0.74306">
        <ele>87.4</ele>
        <time>2023-04-25T13:16:27Z</time>
      </trkpt>
      <trkpt lat="49.18308" lon="-0.74294">
        <ele>87</ele>
        <time>2023-04-25T13:16:28Z</time>
      </trkpt>
      <trkpt lat="49.18303" lon="-0.74282">
        <ele>87</ele>
        <time>2023-04-25T13:16:29Z</time>
      </trkpt>
      <trkpt lat="49.18299" lon="-0.7427">
        <ele>86.6</ele>
        <time>2023-04-25T13:16:30Z</time>
      </trkpt>
      <trkpt lat="49.18294" lon="-0.74258">
        <ele>86.6</ele>
        <time>2023-04-25T13:16:31Z</time>
      </trkpt>
      <trkpt lat="49.18289" lon="-0.74246">
        <ele>86.4</ele>
        <time>2023-04-25T13:16:32Z</time>
      </trkpt>
      <trkpt lat="49.18284" lon="-0.74234">
        <ele>86</ele>
        <time>2023-04-25T13:16:33Z</time>
      </trkpt>
      <trkpt lat="49.18279" lon="-0.74222">
        <ele>85.6</ele>
        <time>2023-04-25T13:16:34Z</time>
      </trkpt>
      <trkpt lat="49.18274" lon="-0.7421">
        <ele>85.2</ele>
        <time>2023-04-25T13:16:35Z</time>
      </trkpt>
      <trkpt lat="49.18269" lon="-0.74198">
        <ele>84.8</ele>
        <time>2023-04-25T13:16:36Z</time>
      </trkpt>
      <trkpt lat="49.18264" lon="-0.74186">
        <ele>84.6</ele>
        <time>2023-04-25T13:16:37Z</time>
      </trkpt>
      <trkpt lat="49.18259" lon="-0.74174">
        <ele>84.2</ele>
        <time>2023-04-25T13:16:38Z</time>
      </trkpt>
      <trkpt lat="49.18254" lon="-0.74162">
        <ele>83.8</ele>
        <time>2023-04-25T13:16:39Z</time>
      </trkpt>
      <trkpt lat="49.18249" lon="-0.74149">
        <ele>83.4</ele>
        <time>2023-04-25T13:16:40Z</time>
      </trkpt>
      <trkpt lat="49.18244" lon="-0.74137">
        <ele>82.6</ele>
        <time>2023-04-25T13:16:41Z</time>
      </trkpt>
      <trkpt lat="49.18239" lon="-0.74124">
        <ele>82</ele>
        <time>2023-04-25T13:16:42Z</time>
      </trkpt>
      <trkpt lat="49.18234" lon="-0.74111">
        <ele>81.4</ele>
        <time>2023-04-25T13:16:43Z</time>
      </trkpt>
      <trkpt lat="49.18229" lon="-0.74099">
        <ele>80.8</ele>
        <time>2023-04-25T13:16:44Z</time>
      </trkpt>
      <trkpt lat="49.18223" lon="-0.74086">
        <ele>80</ele>
        <time>2023-04-25T13:16:45Z</time>
      </trkpt>
      <trkpt lat="49.18218" lon="-0.74073">
        <ele>79.6</ele>
        <time>2023-04-25T13:16:46Z</time>
      </trkpt>
      <trkpt lat="49.18213" lon="-0.7406">
        <ele>79</ele>
        <time>2023-04-25T13:16:47Z</time>
      </trkpt>
      <trkpt lat="49.18208" lon="-0.74046">
        <ele>78.6</ele>
        <time>2023-04-25T13:16:48Z</time>
      </trkpt>
      <trkpt lat="49.18202" lon="-0.74033">
        <ele>78</ele>
        <time>2023-04-25T13:16:49Z</time>
      </trkpt>
      <trkpt lat="49.18197" lon="-0.7402">
        <ele>77.6</ele>
        <time>2023-04-25T13:16:50Z</time>
      </trkpt>
      <trkpt lat="49.18191" lon="-0.74006">
        <ele>77</ele>
        <time>2023-04-25T13:16:51Z</time>
      </trkpt>
      <trkpt lat="49.18186" lon="-0.73993">
        <ele>76.6</ele>
        <time>2023-04-25T13:16:52Z</time>
      </trkpt>
      <trkpt lat="49.18181" lon="-0.7398">
        <ele>76</ele>
        <time>2023-04-25T13:16:53Z</time>
      </trkpt>
      <trkpt lat="49.18175" lon="-0.73966">
        <ele>75.4</ele>
        <time>2023-04-25T13:16:54Z</time>
      </trkpt>
      <trkpt lat="49.1817" lon="-0.73952">
        <ele>75</ele>
        <time>2023-04-25T13:16:55Z</time>
      </trkpt>
      <trkpt lat="49.18164" lon="-0.73939">
        <ele>74.6</ele>
        <time>2023-04-25T13:16:56Z</time>
      </trkpt>
      <trkpt lat="49.18158" lon="-0.73925">
        <ele>74</ele>
        <time>2023-04-25T13:16:57Z</time>
      </trkpt>
      <trkpt lat="49.18153" lon="-0.73911">
        <ele>73.6</ele>
        <time>2023-04-25T13:16:58Z</time>
      </trkpt>
      <trkpt lat="49.18147" lon="-0.73897">
        <ele>73.6</ele>
        <time>2023-04-25T13:16:59Z</time>
      </trkpt>
      <trkpt lat="49.18142" lon="-0.73883">
        <ele>73.4</ele>
        <time>2023-04-25T13:17:00Z</time>
      </trkpt>
      <trkpt lat="49.18136" lon="-0.73869">
        <ele>73</ele>
        <time>2023-04-25T13:17:01Z</time>
      </trkpt>
      <trkpt lat="49.1813" lon="-0.73855">
        <ele>72.8</ele>
        <time>2023-04-25T13:17:02Z</time>
      </trkpt>
      <trkpt lat="49.18125" lon="-0.73841">
        <ele>72.6</ele>
        <time>2023-04-25T13:17:03Z</time>
      </trkpt>
      <trkpt lat="49.18119" lon="-0.73827">
        <ele>72</ele>
        <time>2023-04-25T13:17:04Z</time>
      </trkpt>
      <trkpt lat="49.18114" lon="-0.73814">
        <ele>71.6</ele>
        <time>2023-04-25T13:17:05Z</time>
      </trkpt>
      <trkpt lat="49.18108" lon="-0.738">
        <ele>71</ele>
        <time>2023-04-25T13:17:06Z</time>
      </trkpt>
      <trkpt lat="49.18103" lon="-0.73788">
        <ele>70.8</ele>
        <time>2023-04-25T13:17:07Z</time>
      </trkpt>
      <trkpt lat="49.18098" lon="-0.73775">
        <ele>70.6</ele>
        <time>2023-04-25T13:17:08Z</time>
      </trkpt>
      <trkpt lat="49.18093" lon="-0.73763">
        <ele>70.2</ele>
        <time>2023-04-25T13:17:09Z</time>
      </trkpt>
      <trkpt lat="49.18088" lon="-0.73752">
        <ele>70</ele>
        <time>2023-04-25T13:17:10Z</time>
      </trkpt>
      <trkpt lat="49.18084" lon="-0.73742">
        <ele>70.2</ele>
        <time>2023-04-25T13:17:11Z</time>
      </trkpt>
      <trkpt lat="49.1808" lon="-0.73732">
        <ele>70.6</ele>
        <time>2023-04-25T13:17:12Z</time>
      </trkpt>
      <trkpt lat="49.18076" lon="-0.73722">
        <ele>71</ele>
        <time>2023-04-25T13:17:13Z</time>
      </trkpt>
      <trkpt lat="49.18072" lon="-0.73712">
        <ele>71.4</ele>
        <time>2023-04-25T13:17:14Z</time>
      </trkpt>
      <trkpt lat="49.18068" lon="-0.73703">
        <ele>71.6</ele>
        <time>2023-04-25T13:17:15Z</time>
      </trkpt>
      <trkpt lat="49.18064" lon="-0.73694">
        <ele>72</ele>
        <time>2023-04-25T13:17:16Z</time>
      </trkpt>
      <trkpt lat="49.18061" lon="-0.73686">
        <ele>72.4</ele>
        <time>2023-04-25T13:17:17Z</time>
      </trkpt>
      <trkpt lat="49.18057" lon="-0.73677">
        <ele>72.6</ele>
        <time>2023-04-25T13:17:18Z</time>
      </trkpt>
      <trkpt lat="49.18054" lon="-0.73669">
        <ele>73</ele>
        <time>2023-04-25T13:17:19Z</time>
      </trkpt>
      <trkpt lat="49.18051" lon="-0.73661">
        <ele>73.4</ele>
        <time>2023-04-25T13:17:20Z</time>
      </trkpt>
      <trkpt lat="49.18048" lon="-0.73654">
        <ele>73.8</ele>
        <time>2023-04-25T13:17:21Z</time>
      </trkpt>
      <trkpt lat="49.18045" lon="-0.73647">
        <ele>74</ele>
        <time>2023-04-25T13:17:22Z</time>
      </trkpt>
      <trkpt lat="49.18042" lon="-0.7364">
        <ele>74.6</ele>
        <time>2023-04-25T13:17:23Z</time>
      </trkpt>
      <trkpt lat="49.18039" lon="-0.73633">
        <ele>74.8</ele>
        <time>2023-04-25T13:17:24Z</time>
      </trkpt>
      <trkpt lat="49.18036" lon="-0.73626">
        <ele>75</ele>
        <time>2023-04-25T13:17:25Z</time>
      </trkpt>
      <trkpt lat="49.18034" lon="-0.7362">
        <ele>75.4</ele>
        <time>2023-04-25T13:17:26Z</time>
      </trkpt>
      <trkpt lat="49.18031" lon="-0.73614">
        <ele>75.6</ele>
        <time>2023-04-25T13:17:27Z</time>
      </trkpt>
      <trkpt lat="49.18029" lon="-0.73607">
        <ele>76</ele>
        <time>2023-04-25T13:17:28Z</time>
      </trkpt>
      <trkpt lat="49.18026" lon="-0.73601">
        <ele>76</ele>
        <time>2023-04-25T13:17:29Z</time>
      </trkpt>
      <trkpt lat="49.18024" lon="-0.73596">
        <ele>76.4</ele>
        <time>2023-04-25T13:17:30Z</time>
      </trkpt>
      <trkpt lat="49.18022" lon="-0.7359">
        <ele>76.6</ele>
        <time>2023-04-25T13:17:31Z</time>
      </trkpt>
      <trkpt lat="49.1802" lon="-0.73585">
        <ele>76.6</ele>
        <time>2023-04-25T13:17:32Z</time>
      </trkpt>
      <trkpt lat="49.18018" lon="-0.73579">
        <ele>77</ele>
        <time>2023-04-25T13:17:33Z</time>
      </trkpt>
      <trkpt lat="49.18017" lon="-0.73574">
        <ele>77.2</ele>
        <time>2023-04-25T13:17:34Z</time>
      </trkpt>
      <trkpt lat="49.18015" lon="-0.73568">
        <ele>77.4</ele>
        <time>2023-04-25T13:17:35Z</time>
      </trkpt>
      <trkpt lat="49.18014" lon="-0.73563">
        <ele>77.6</ele>
        <time>2023-04-25T13:17:36Z</time>
      </trkpt>
      <trkpt lat="49.18013" lon="-0.73557">
        <ele>77.8</ele>
        <time>2023-04-25T13:17:37Z</time>
      </trkpt>
      <trkpt lat="49.18011" lon="-0.73552">
        <ele>78</ele>
        <time>2023-04-25T13:17:38Z</time>
      </trkpt>
      <trkpt lat="49.1801" lon="-0.73546">
        <ele>78.4</ele>
        <time>2023-04-25T13:17:39Z</time>
      </trkpt>
      <trkpt lat="49.1801" lon="-0.7354">
        <ele>78.6</ele>
        <time>2023-04-25T13:17:40Z</time>
      </trkpt>
      <trkpt lat="49.18009" lon="-0.73534">
        <ele>78.6</ele>
        <time>2023-04-25T13:17:41Z</time>
      </trkpt>
      <trkpt lat="49.18008" lon="-0.73528">
        <ele>79</ele>
        <time>2023-04-25T13:17:42Z</time>
      </trkpt>
      <trkpt lat="49.18008" lon="-0.73522">
        <ele>79.2</ele>
        <time>2023-04-25T13:17:43Z</time>
      </trkpt>
      <trkpt lat="49.18007" lon="-0.73516">
        <ele>79.4</ele>
        <time>2023-04-25T13:17:44Z</time>
      </trkpt>
      <trkpt lat="49.18007" lon="-0.7351">
        <ele>79.6</ele>
        <time>2023-04-25T13:17:45Z</time>
      </trkpt>
      <trkpt lat="49.18007" lon="-0.73504">
        <ele>79.8</ele>
        <time>2023-04-25T13:17:46Z</time>
      </trkpt>
      <trkpt lat="49.18007" lon="-0.73498">
        <ele>80</ele>
        <time>2023-04-25T13:17:47Z</time>
      </trkpt>
      <trkpt lat="49.18007" lon="-0.73492">
        <ele>80.4</ele>
        <time>2023-04-25T13:17:48Z</time>
      </trkpt>
      <trkpt lat="49.18008" lon="-0.73487">
        <ele>80.6</ele>
        <time>2023-04-25T13:17:49Z</time>
      </trkpt>
      <trkpt lat="49.18008" lon="-0.73481">
        <ele>80.6</ele>
        <time>2023-04-25T13:17:50Z</time>
      </trkpt>
      <trkpt lat="49.18009" lon="-0.73475">
        <ele>81</ele>
        <time>2023-04-25T13:17:51Z</time>
      </trkpt>
      <trkpt lat="49.1801" lon="-0.73469">
        <ele>81</ele>
        <time>2023-04-25T13:17:52Z</time>
      </trkpt>
      <trkpt lat="49.18011" lon="-0.73463">
        <ele>81.4</ele>
        <time>2023-04-25T13:17:53Z</time>
      </trkpt>
      <trkpt lat="49.18012" lon="-0.73457">
        <ele>81.6</ele>
        <time>2023-04-25T13:17:54Z</time>
      </trkpt>
      <trkpt lat="49.18013" lon="-0.73451">
        <ele>81.6</ele>
        <time>2023-04-25T13:17:55Z</time>
      </trkpt>
      <trkpt lat="49.18014" lon="-0.73446">
        <ele>82</ele>
        <time>2023-04-25T13:17:56Z</time>
      </trkpt>
      <trkpt lat="49.18015" lon="-0.7344">
        <ele>82.2</ele>
        <time>2023-04-25T13:17:57Z</time>
      </trkpt>
      <trkpt lat="49.18017" lon="-0.73434">
        <ele>82.4</ele>
        <time>2023-04-25T13:17:58Z</time>
      </trkpt>
      <trkpt lat="49.18018" lon="-0.73428">
        <ele>82.6</ele>
        <time>2023-04-25T13:17:59Z</time>
      </trkpt>
      <trkpt lat="49.18019" lon="-0.73422">
        <ele>82.8</ele>
        <time>2023-04-25T13:18:00Z</time>
      </trkpt>
      <trkpt lat="49.1802" lon="-0.73416">
        <ele>83</ele>
        <time>2023-04-25T13:18:01Z</time>
      </trkpt>
      <trkpt lat="49.18021" lon="-0.7341">
        <ele>83.4</ele>
        <time>2023-04-25T13:18:02Z</time>
      </trkpt>
      <trkpt lat="49.18023" lon="-0.73404">
        <ele>83.6</ele>
        <time>2023-04-25T13:18:03Z</time>
      </trkpt>
      <trkpt lat="49.18024" lon="-0.73398">
        <ele>84</ele>
        <time>2023-04-25T13:18:04Z</time>
      </trkpt>
      <trkpt lat="49.18025" lon="-0.73392">
        <ele>84.2</ele>
        <time>2023-04-25T13:18:05Z</time>
      </trkpt>
      <trkpt lat="49.18026" lon="-0.73386">
        <ele>84.6</ele>
        <time>2023-04-25T13:18:06Z</time>
      </trkpt>
      <trkpt lat="49.18027" lon="-0.73381">
        <ele>84.6</ele>
        <time>2023-04-25T13:18:07Z</time>
      </trkpt>
      <trkpt lat="49.18029" lon="-0.73375">
        <ele>85</ele>
        <time>2023-04-25T13:18:08Z</time>
      </trkpt>
      <trkpt lat="49.1803" lon="-0.73369">
        <ele>85.4</ele>
        <time>2023-04-25T13:18:09Z</time>
      </trkpt>
      <trkpt lat="49.18031" lon="-0.73363">
        <ele>85.6</ele>
        <time>2023-04-25T13:18:10Z</time>
      </trkpt>
      <trkpt lat="49.18032" lon="-0.73357">
        <ele>86</ele>
        <time>2023-04-25T13:18:11Z</time>
      </trkpt>
      <trkpt lat="49.18033" lon="-0.73351">
        <ele>86</ele>
        <time>2023-04-25T13:18:12Z</time>
      </trkpt>
      <trkpt lat="49.18035" lon="-0.73345">
        <ele>86.4</ele>
        <time>2023-04-25T13:18:13Z</time>
      </trkpt>
      <trkpt lat="49.18036" lon="-0.73339">
        <ele>86.6</ele>
        <time>2023-04-25T13:18:14Z</time>
      </trkpt>
      <trkpt lat="49.18037" lon="-0.73334">
        <ele>87</ele>
        <time>2023-04-25T13:18:15Z</time>
      </trkpt>
      <trkpt lat="49.18038" lon="-0.73328">
        <ele>87.4</ele>
        <time>2023-04-25T13:18:16Z</time>
      </trkpt>
      <trkpt lat="49.18039" lon="-0.73322">
        <ele>87.6</ele>
        <time>2023-04-25T13:18:17Z</time>
      </trkpt>
      <trkpt lat="49.1804" lon="-0.73316">
        <ele>87.8</ele>
        <time>2023-04-25T13:18:18Z</time>
      </trkpt>
      <trkpt lat="49.18041" lon="-0.73311">
        <ele>88</ele>
        <time>2023-04-25T13:18:19Z</time>
      </trkpt>
      <trkpt lat="49.18042" lon="-0.73305">
        <ele>88.4</ele>
        <time>2023-04-25T13:18:20Z</time>
      </trkpt>
      <trkpt lat="49.18043" lon="-0.733">
        <ele>88.6</ele>
        <time>2023-04-25T13:18:21Z</time>
      </trkpt>
      <trkpt lat="49.18044" lon="-0.73295">
        <ele>89</ele>
        <time>2023-04-25T13:18:22Z</time>
      </trkpt>
      <trkpt lat="49.18046" lon="-0.73289">
        <ele>89.2</ele>
        <time>2023-04-25T13:18:23Z</time>
      </trkpt>
      <trkpt lat="49.18047" lon="-0.73284">
        <ele>89.4</ele>
        <time>2023-04-25T13:18:24Z</time>
      </trkpt>
      <trkpt lat="49.18048" lon="-0.73279">
        <ele>89.6</ele>
        <time>2023-04-25T13:18:25Z</time>
      </trkpt>
      <trkpt lat="49.18049" lon="-0.73274">
        <ele>90</ele>
        <time>2023-04-25T13:18:26Z</time>
      </trkpt>
      <trkpt lat="49.1805" lon="-0.73269">
        <ele>90.4</ele>
        <time>2023-04-25T13:18:27Z</time>
      </trkpt>
      <trkpt lat="49.18051" lon="-0.73263">
        <ele>90.6</ele>
        <time>2023-04-25T13:18:28Z</time>
      </trkpt>
      <trkpt lat="49.18053" lon="-0.73258">
        <ele>91</ele>
        <time>2023-04-25T13:18:29Z</time>
      </trkpt>
      <trkpt lat="49.18054" lon="-0.73253">
        <ele>91.2</ele>
        <time>2023-04-25T13:18:30Z</time>
      </trkpt>
      <trkpt lat="49.18055" lon="-0.73247">
        <ele>91.4</ele>
        <time>2023-04-25T13:18:31Z</time>
      </trkpt>
      <trkpt lat="49.18056" lon="-0.73242">
        <ele>91.6</ele>
        <time>2023-04-25T13:18:32Z</time>
      </trkpt>
      <trkpt lat="49.18057" lon="-0.73237">
        <ele>91.6</ele>
        <time>2023-04-25T13:18:33Z</time>
      </trkpt>
      <trkpt lat="49.18058" lon="-0.73231">
        <ele>92</ele>
        <time>2023-04-25T13:18:34Z</time>
      </trkpt>
      <trkpt lat="49.18059" lon="-0.73226">
        <ele>92</ele>
        <time>2023-04-25T13:18:35Z</time>
      </trkpt>
      <trkpt lat="49.1806" lon="-0.7322">
        <ele>92.2</ele>
        <time>2023-04-25T13:18:36Z</time>
      </trkpt>
      <trkpt lat="49.18062" lon="-0.73215">
        <ele>92.4</ele>
        <time>2023-04-25T13:18:37Z</time>
      </trkpt>
      <trkpt lat="49.18063" lon="-0.7321">
        <ele>92.6</ele>
        <time>2023-04-25T13:18:38Z</time>
      </trkpt>
      <trkpt lat="49.18064" lon="-0.73204">
        <ele>92.6</ele>
        <time>2023-04-25T13:18:39Z</time>
      </trkpt>
      <trkpt lat="49.18065" lon="-0.73199">
        <ele>92.8</ele>
        <time>2023-04-25T13:18:40Z</time>
      </trkpt>
      <trkpt lat="49.18066" lon="-0.73194">
        <ele>93</ele>
        <time>2023-04-25T13:18:41Z</time>
      </trkpt>
      <trkpt lat="49.18067" lon="-0.73188">
        <ele>93</ele>
        <time>2023-04-25T13:18:42Z</time>
      </trkpt>
      <trkpt lat="49.18068" lon="-0.73183">
        <ele>93.2</ele>
        <time>2023-04-25T13:18:43Z</time>
      </trkpt>
      <trkpt lat="49.18069" lon="-0.73178">
        <ele>93.4</ele>
        <time>2023-04-25T13:18:44Z</time>
      </trkpt>
      <trkpt lat="49.1807" lon="-0.73173">
        <ele>93.6</ele>
        <time>2023-04-25T13:18:45Z</time>
      </trkpt>
      <trkpt lat="49.18071" lon="-0.73168">
        <ele>93.6</ele>
        <time>2023-04-25T13:18:46Z</time>
      </trkpt>
      <trkpt lat="49.18072" lon="-0.73162">
        <ele>93.8</ele>
        <time>2023-04-25T13:18:47Z</time>
      </trkpt>
      <trkpt lat="49.18073" lon="-0.73157">
        <ele>94</ele>
        <time>2023-04-25T13:18:48Z</time>
      </trkpt>
      <trkpt lat="49.18074" lon="-0.73152">
        <ele>94</ele>
        <time>2023-04-25T13:18:49Z</time>
      </trkpt>
      <trkpt lat="49.18075" lon="-0.73147">
        <ele>94.4</ele>
        <time>2023-04-25T13:18:50Z</time>
      </trkpt>
      <trkpt lat="49.18076" lon="-0.73142">
        <ele>94.4</ele>
        <time>2023-04-25T13:18:51Z</time>
      </trkpt>
      <trkpt lat="49.18077" lon="-0.73136">
        <ele>94.6</ele>
        <time>2023-04-25T13:18:52Z</time>
      </trkpt>
      <trkpt lat="49.18079" lon="-0.73131">
        <ele>94.6</ele>
        <time>2023-04-25T13:18:53Z</time>
      </trkpt>
      <trkpt lat="49.18079" lon="-0.73126">
        <ele>95</ele>
        <time>2023-04-25T13:18:54Z</time>
      </trkpt>
      <trkpt lat="49.18081" lon="-0.73121">
        <ele>95</ele>
        <time>2023-04-25T13:18:55Z</time>
      </trkpt>
      <trkpt lat="49.18082" lon="-0.73116">
        <ele>95.2</ele>
        <time>2023-04-25T13:18:56Z</time>
      </trkpt>
      <trkpt lat="49.18082" lon="-0.7311">
        <ele>95.4</ele>
        <time>2023-04-25T13:18:57Z</time>
      </trkpt>
      <trkpt lat="49.18083" lon="-0.73105">
        <ele>95.6</ele>
        <time>2023-04-25T13:18:58Z</time>
      </trkpt>
      <trkpt lat="49.18085" lon="-0.731">
        <ele>95.6</ele>
        <time>2023-04-25T13:18:59Z</time>
      </trkpt>
      <trkpt lat="49.18085" lon="-0.73094">
        <ele>96</ele>
        <time>2023-04-25T13:19:00Z</time>
      </trkpt>
      <trkpt lat="49.18086" lon="-0.73089">
        <ele>96</ele>
        <time>2023-04-25T13:19:01Z</time>
      </trkpt>
      <trkpt lat="49.18088" lon="-0.73084">
        <ele>96.2</ele>
        <time>2023-04-25T13:19:02Z</time>
      </trkpt>
      <trkpt lat="49.18089" lon="-0.73078">
        <ele>96.2</ele>
        <time>2023-04-25T13:19:03Z</time>
      </trkpt>
      <trkpt lat="49.1809" lon="-0.73073">
        <ele>96.2</ele>
        <time>2023-04-25T13:19:04Z</time>
      </trkpt>
      <trkpt lat="49.18091" lon="-0.73067">
        <ele>96.2</ele>
        <time>2023-04-25T13:19:05Z</time>
      </trkpt>
      <trkpt lat="49.18092" lon="-0.73062">
        <ele>96.2</ele>
        <time>2023-04-25T13:19:06Z</time>
      </trkpt>
      <trkpt lat="49.18093" lon="-0.73056">
        <ele>96.2</ele>
        <time>2023-04-25T13:19:07Z</time>
      </trkpt>
      <trkpt lat="49.18094" lon="-0.7305">
        <ele>96.2</ele>
        <time>2023-04-25T13:19:08Z</time>
      </trkpt>
      <trkpt lat="49.18095" lon="-0.73044">
        <ele>96.2</ele>
        <time>2023-04-25T13:19:09Z</time>
      </trkpt>
      <trkpt lat="49.18096" lon="-0.73039">
        <ele>96.2</ele>
        <time>2023-04-25T13:19:10Z</time>
      </trkpt>
      <trkpt lat="49.18098" lon="-0.73033">
        <ele>96</ele>
        <time>2023-04-25T13:19:11Z</time>
      </trkpt>
      <trkpt lat="49.18099" lon="-0.73027">
        <ele>96</ele>
        <time>2023-04-25T13:19:12Z</time>
      </trkpt>
      <trkpt lat="49.181" lon="-0.73021">
        <ele>96</ele>
        <time>2023-04-25T13:19:13Z</time>
      </trkpt>
      <trkpt lat="49.18101" lon="-0.73014">
        <ele>96</ele>
        <time>2023-04-25T13:19:14Z</time>
      </trkpt>
      <trkpt lat="49.18103" lon="-0.73008">
        <ele>96</ele>
        <time>2023-04-25T13:19:15Z</time>
      </trkpt>
      <trkpt lat="49.18104" lon="-0.73002">
        <ele>96</ele>
        <time>2023-04-25T13:19:16Z</time>
      </trkpt>
      <trkpt lat="49.18105" lon="-0.72996">
        <ele>96</ele>
        <time>2023-04-25T13:19:17Z</time>
      </trkpt>
      <trkpt lat="49.18107" lon="-0.7299">
        <ele>96</ele>
        <time>2023-04-25T13:19:18Z</time>
      </trkpt>
      <trkpt lat="49.18108" lon="-0.72983">
        <ele>95.6</ele>
        <time>2023-04-25T13:19:19Z</time>
      </trkpt>
      <trkpt lat="49.18109" lon="-0.72977">
        <ele>95.6</ele>
        <time>2023-04-25T13:19:20Z</time>
      </trkpt>
      <trkpt lat="49.18111" lon="-0.7297">
        <ele>95.6</ele>
        <time>2023-04-25T13:19:21Z</time>
      </trkpt>
      <trkpt lat="49.18112" lon="-0.72963">
        <ele>95.4</ele>
        <time>2023-04-25T13:19:22Z</time>
      </trkpt>
      <trkpt lat="49.18113" lon="-0.72956">
        <ele>95</ele>
        <time>2023-04-25T13:19:23Z</time>
      </trkpt>
      <trkpt lat="49.18114" lon="-0.72949">
        <ele>95</ele>
        <time>2023-04-25T13:19:24Z</time>
      </trkpt>
      <trkpt lat="49.18115" lon="-0.72941">
        <ele>94.8</ele>
        <time>2023-04-25T13:19:25Z</time>
      </trkpt>
      <trkpt lat="49.18117" lon="-0.72934">
        <ele>94.6</ele>
        <time>2023-04-25T13:19:26Z</time>
      </trkpt>
      <trkpt lat="49.18118" lon="-0.72927">
        <ele>94.4</ele>
        <time>2023-04-25T13:19:27Z</time>
      </trkpt>
      <trkpt lat="49.1812" lon="-0.7292">
        <ele>94</ele>
        <time>2023-04-25T13:19:28Z</time>
      </trkpt>
      <trkpt lat="49.18121" lon="-0.72912">
        <ele>94</ele>
        <time>2023-04-25T13:19:29Z</time>
      </trkpt>
      <trkpt lat="49.18122" lon="-0.72905">
        <ele>94</ele>
        <time>2023-04-25T13:19:30Z</time>
      </trkpt>
      <trkpt lat="49.18124" lon="-0.72897">
        <ele>94</ele>
        <time>2023-04-25T13:19:31Z</time>
      </trkpt>
      <trkpt lat="49.18125" lon="-0.7289">
        <ele>93.8</ele>
        <time>2023-04-25T13:19:32Z</time>
      </trkpt>
      <trkpt lat="49.18127" lon="-0.72882">
        <ele>93.8</ele>
        <time>2023-04-25T13:19:33Z</time>
      </trkpt>
      <trkpt lat="49.18128" lon="-0.72875">
        <ele>93.6</ele>
        <time>2023-04-25T13:19:34Z</time>
      </trkpt>
      <trkpt lat="49.1813" lon="-0.72867">
        <ele>93.6</ele>
        <time>2023-04-25T13:19:35Z</time>
      </trkpt>
      <trkpt lat="49.18131" lon="-0.72859">
        <ele>93.6</ele>
        <time>2023-04-25T13:19:36Z</time>
      </trkpt>
      <trkpt lat="49.18133" lon="-0.72852">
        <ele>93.6</ele>
        <time>2023-04-25T13:19:37Z</time>
      </trkpt>
      <trkpt lat="49.18134" lon="-0.72844">
        <ele>93.6</ele>
        <time>2023-04-25T13:19:38Z</time>
      </trkpt>
      <trkpt lat="49.18136" lon="-0.72836">
        <ele>93.4</ele>
        <time>2023-04-25T13:19:39Z</time>
      </trkpt>
      <trkpt lat="49.18137" lon="-0.72828">
        <ele>93.4</ele>
        <time>2023-04-25T13:19:40Z</time>
      </trkpt>
      <trkpt lat="49.18139" lon="-0.7282">
        <ele>93.6</ele>
        <time>2023-04-25T13:19:41Z</time>
      </trkpt>
      <trkpt lat="49.1814" lon="-0.72813">
        <ele>93.6</ele>
        <time>2023-04-25T13:19:42Z</time>
      </trkpt>
      <trkpt lat="49.18142" lon="-0.72805">
        <ele>93.8</ele>
        <time>2023-04-25T13:19:43Z</time>
      </trkpt>
      <trkpt lat="49.18143" lon="-0.72797">
        <ele>94</ele>
        <time>2023-04-25T13:19:44Z</time>
      </trkpt>
      <trkpt lat="49.18145" lon="-0.72789">
        <ele>94</ele>
        <time>2023-04-25T13:19:45Z</time>
      </trkpt>
      <trkpt lat="49.18146" lon="-0.72781">
        <ele>94.2</ele>
        <time>2023-04-25T13:19:46Z</time>
      </trkpt>
      <trkpt lat="49.18148" lon="-0.72773">
        <ele>94.4</ele>
        <time>2023-04-25T13:19:47Z</time>
      </trkpt>
      <trkpt lat="49.1815" lon="-0.72765">
        <ele>94.6</ele>
        <time>2023-04-25T13:19:48Z</time>
      </trkpt>
      <trkpt lat="49.18151" lon="-0.72757">
        <ele>94.6</ele>
        <time>2023-04-25T13:19:49Z</time>
      </trkpt>
      <trkpt lat="49.18153" lon="-0.72749">
        <ele>94.8</ele>
        <time>2023-04-25T13:19:50Z</time>
      </trkpt>
      <trkpt lat="49.18154" lon="-0.72741">
        <ele>94.8</ele>
        <time>2023-04-25T13:19:51Z</time>
      </trkpt>
      <trkpt lat="49.18156" lon="-0.72733">
        <ele>94.6</ele>
        <time>2023-04-25T13:19:52Z</time>
      </trkpt>
      <trkpt lat="49.18157" lon="-0.72725">
        <ele>94.6</ele>
        <time>2023-04-25T13:19:53Z</time>
      </trkpt>
      <trkpt lat="49.18159" lon="-0.72718">
        <ele>94.6</ele>
        <time>2023-04-25T13:19:54Z</time>
      </trkpt>
      <trkpt lat="49.18161" lon="-0.7271">
        <ele>94.6</ele>
        <time>2023-04-25T13:19:55Z</time>
      </trkpt>
      <trkpt lat="49.18162" lon="-0.72702">
        <ele>94.4</ele>
        <time>2023-04-25T13:19:56Z</time>
      </trkpt>
      <trkpt lat="49.18164" lon="-0.72694">
        <ele>94.4</ele>
        <time>2023-04-25T13:19:57Z</time>
      </trkpt>
      <trkpt lat="49.18165" lon="-0.72686">
        <ele>94.2</ele>
        <time>2023-04-25T13:19:58Z</time>
      </trkpt>
      <trkpt lat="49.18167" lon="-0.72678">
        <ele>94</ele>
        <time>2023-04-25T13:19:59Z</time>
      </trkpt>
      <trkpt lat="49.18169" lon="-0.7267">
        <ele>94</ele>
        <time>2023-04-25T13:20:00Z</time>
      </trkpt>
      <trkpt lat="49.1817" lon="-0.72663">
        <ele>94</ele>
        <time>2023-04-25T13:20:01Z</time>
      </trkpt>
      <trkpt lat="49.18172" lon="-0.72655">
        <ele>93.8</ele>
        <time>2023-04-25T13:20:02Z</time>
      </trkpt>
      <trkpt lat="49.18174" lon="-0.72647">
        <ele>93.6</ele>
        <time>2023-04-25T13:20:03Z</time>
      </trkpt>
      <trkpt lat="49.18175" lon="-0.72639">
        <ele>93.6</ele>
        <time>2023-04-25T13:20:04Z</time>
      </trkpt>
      <trkpt lat="49.18177" lon="-0.72631">
        <ele>93.6</ele>
        <time>2023-04-25T13:20:05Z</time>
      </trkpt>
      <trkpt lat="49.18178" lon="-0.72623">
        <ele>93.4</ele>
        <time>2023-04-25T13:20:06Z</time>
      </trkpt>
      <trkpt lat="49.1818" lon="-0.72615">
        <ele>93.4</ele>
        <time>2023-04-25T13:20:07Z</time>
      </trkpt>
      <trkpt lat="49.18181" lon="-0.72607">
        <ele>93.2</ele>
        <time>2023-04-25T13:20:08Z</time>
      </trkpt>
      <trkpt lat="49.18183" lon="-0.72599">
        <ele>93</ele>
        <time>2023-04-25T13:20:09Z</time>
      </trkpt>
      <trkpt lat="49.18184" lon="-0.72591">
        <ele>93</ele>
        <time>2023-04-25T13:20:10Z</time>
      </trkpt>
      <trkpt lat="49.18186" lon="-0.72582">
        <ele>93</ele>
        <time>2023-04-25T13:20:11Z</time>
      </trkpt>
      <trkpt lat="49.18188" lon="-0.72574">
        <ele>93</ele>
        <time>2023-04-25T13:20:12Z</time>
      </trkpt>
      <trkpt lat="49.18189" lon="-0.72566">
        <ele>93</ele>
        <time>2023-04-25T13:20:13Z</time>
      </trkpt>
      <trkpt lat="49.1819" lon="-0.72558">
        <ele>93</ele>
        <time>2023-04-25T13:20:14Z</time>
      </trkpt>
      <trkpt lat="49.18192" lon="-0.7255">
        <ele>93</ele>
        <time>2023-04-25T13:20:15Z</time>
      </trkpt>
      <trkpt lat="49.18193" lon="-0.72541">
        <ele>93</ele>
        <time>2023-04-25T13:20:16Z</time>
      </trkpt>
      <trkpt lat="49.18194" lon="-0.72533">
        <ele>93</ele>
        <time>2023-04-25T13:20:17Z</time>
      </trkpt>
      <trkpt lat="49.18196" lon="-0.72525">
        <ele>93</ele>
        <time>2023-04-25T13:20:18Z</time>
      </trkpt>
      <trkpt lat="49.18197" lon="-0.72516">
        <ele>93</ele>
        <time>2023-04-25T13:20:19Z</time>
      </trkpt>
      <trkpt lat="49.18198" lon="-0.72508">
        <ele>93</ele>
        <time>2023-04-25T13:20:20Z</time>
      </trkpt>
      <trkpt lat="49.18199" lon="-0.72499">
        <ele>93</ele>
        <time>2023-04-25T13:20:21Z</time>
      </trkpt>
      <trkpt lat="49.182" lon="-0.7249">
        <ele>92.8</ele>
        <time>2023-04-25T13:20:22Z</time>
      </trkpt>
      <trkpt lat="49.18201" lon="-0.72482">
        <ele>92.6</ele>
        <time>2023-04-25T13:20:23Z</time>
      </trkpt>
      <trkpt lat="49.18202" lon="-0.72473">
        <ele>92.6</ele>
        <time>2023-04-25T13:20:24Z</time>
      </trkpt>
      <trkpt lat="49.18203" lon="-0.72465">
        <ele>92.4</ele>
        <time>2023-04-25T13:20:25Z</time>
      </trkpt>
      <trkpt lat="49.18203" lon="-0.72456">
        <ele>92.2</ele>
        <time>2023-04-25T13:20:26Z</time>
      </trkpt>
      <trkpt lat="49.18204" lon="-0.72448">
        <ele>92</ele>
        <time>2023-04-25T13:20:27Z</time>
      </trkpt>
      <trkpt lat="49.18204" lon="-0.7244">
        <ele>92</ele>
        <time>2023-04-25T13:20:28Z</time>
      </trkpt>
      <trkpt lat="49.18205" lon="-0.72431">
        <ele>91.6</ele>
        <time>2023-04-25T13:20:29Z</time>
      </trkpt>
      <trkpt lat="49.18205" lon="-0.72423">
        <ele>91.6</ele>
        <time>2023-04-25T13:20:30Z</time>
      </trkpt>
      <trkpt lat="49.18206" lon="-0.72414">
        <ele>91.4</ele>
        <time>2023-04-25T13:20:31Z</time>
      </trkpt>
      <trkpt lat="49.18206" lon="-0.72405">
        <ele>91.4</ele>
        <time>2023-04-25T13:20:32Z</time>
      </trkpt>
      <trkpt lat="49.18206" lon="-0.72396">
        <ele>91.2</ele>
        <time>2023-04-25T13:20:33Z</time>
      </trkpt>
      <trkpt lat="49.18206" lon="-0.72387">
        <ele>91</ele>
        <time>2023-04-25T13:20:34Z</time>
      </trkpt>
      <trkpt lat="49.18206" lon="-0.72377">
        <ele>91</ele>
        <time>2023-04-25T13:20:35Z</time>
      </trkpt>
      <trkpt lat="49.18207" lon="-0.72367">
        <ele>91</ele>
        <time>2023-04-25T13:20:36Z</time>
      </trkpt>
      <trkpt lat="49.18207" lon="-0.72357">
        <ele>90.6</ele>
        <time>2023-04-25T13:20:37Z</time>
      </trkpt>
      <trkpt lat="49.18206" lon="-0.72346">
        <ele>90.6</ele>
        <time>2023-04-25T13:20:38Z</time>
      </trkpt>
      <trkpt lat="49.18206" lon="-0.72335">
        <ele>90.4</ele>
        <time>2023-04-25T13:20:39Z</time>
      </trkpt>
      <trkpt lat="49.18206" lon="-0.72325">
        <ele>90.2</ele>
        <time>2023-04-25T13:20:40Z</time>
      </trkpt>
      <trkpt lat="49.18206" lon="-0.72313">
        <ele>90</ele>
        <time>2023-04-25T13:20:41Z</time>
      </trkpt>
      <trkpt lat="49.18205" lon="-0.72302">
        <ele>89.6</ele>
        <time>2023-04-25T13:20:42Z</time>
      </trkpt>
      <trkpt lat="49.18204" lon="-0.72291">
        <ele>89.4</ele>
        <time>2023-04-25T13:20:43Z</time>
      </trkpt>
      <trkpt lat="49.18203" lon="-0.72279">
        <ele>89</ele>
        <time>2023-04-25T13:20:44Z</time>
      </trkpt>
      <trkpt lat="49.18202" lon="-0.72267">
        <ele>88.6</ele>
        <time>2023-04-25T13:20:45Z</time>
      </trkpt>
      <trkpt lat="49.18201" lon="-0.72256">
        <ele>88.4</ele>
        <time>2023-04-25T13:20:46Z</time>
      </trkpt>
      <trkpt lat="49.182" lon="-0.72244">
        <ele>88</ele>
        <time>2023-04-25T13:20:47Z</time>
      </trkpt>
      <trkpt lat="49.18198" lon="-0.72232">
        <ele>87.6</ele>
        <time>2023-04-25T13:20:48Z</time>
      </trkpt>
      <trkpt lat="49.18196" lon="-0.72219">
        <ele>87</ele>
        <time>2023-04-25T13:20:49Z</time>
      </trkpt>
      <trkpt lat="49.18194" lon="-0.72207">
        <ele>86.6</ele>
        <time>2023-04-25T13:20:50Z</time>
      </trkpt>
      <trkpt lat="49.18192" lon="-0.72195">
        <ele>86</ele>
        <time>2023-04-25T13:20:51Z</time>
      </trkpt>
      <trkpt lat="49.1819" lon="-0.72182">
        <ele>85.4</ele>
        <time>2023-04-25T13:20:52Z</time>
      </trkpt>
      <trkpt lat="49.18187" lon="-0.7217">
        <ele>85</ele>
        <time>2023-04-25T13:20:53Z</time>
      </trkpt>
      <trkpt lat="49.18185" lon="-0.72157">
        <ele>84.4</ele>
        <time>2023-04-25T13:20:54Z</time>
      </trkpt>
      <trkpt lat="49.18182" lon="-0.72144">
        <ele>84</ele>
        <time>2023-04-25T13:20:55Z</time>
      </trkpt>
      <trkpt lat="49.18179" lon="-0.72131">
        <ele>83.4</ele>
        <time>2023-04-25T13:20:56Z</time>
      </trkpt>
      <trkpt lat="49.18176" lon="-0.72118">
        <ele>82.8</ele>
        <time>2023-04-25T13:20:57Z</time>
      </trkpt>
      <trkpt lat="49.18173" lon="-0.72105">
        <ele>82</ele>
        <time>2023-04-25T13:20:58Z</time>
      </trkpt>
      <trkpt lat="49.18169" lon="-0.72091">
        <ele>81.4</ele>
        <time>2023-04-25T13:20:59Z</time>
      </trkpt>
      <trkpt lat="49.18165" lon="-0.72078">
        <ele>80.8</ele>
        <time>2023-04-25T13:21:00Z</time>
      </trkpt>
      <trkpt lat="49.18162" lon="-0.72064">
        <ele>80.2</ele>
        <time>2023-04-25T13:21:01Z</time>
      </trkpt>
      <trkpt lat="49.18158" lon="-0.7205">
        <ele>79.6</ele>
        <time>2023-04-25T13:21:02Z</time>
      </trkpt>
      <trkpt lat="49.18154" lon="-0.72036">
        <ele>79</ele>
        <time>2023-04-25T13:21:03Z</time>
      </trkpt>
      <trkpt lat="49.1815" lon="-0.72023">
        <ele>78.6</ele>
        <time>2023-04-25T13:21:04Z</time>
      </trkpt>
      <trkpt lat="49.18145" lon="-0.72009">
        <ele>78</ele>
        <time>2023-04-25T13:21:05Z</time>
      </trkpt>
      <trkpt lat="49.18141" lon="-0.71995">
        <ele>77.4</ele>
        <time>2023-04-25T13:21:06Z</time>
      </trkpt>
      <trkpt lat="49.18137" lon="-0.7198">
        <ele>77</ele>
        <time>2023-04-25T13:21:07Z</time>
      </trkpt>
      <trkpt lat="49.18132" lon="-0.71966">
        <ele>76.6</ele>
        <time>2023-04-25T13:21:08Z</time>
      </trkpt>
      <trkpt lat="49.18128" lon="-0.71952">
        <ele>76.4</ele>
        <time>2023-04-25T13:21:09Z</time>
      </trkpt>
      <trkpt lat="49.18123" lon="-0.71938">
        <ele>76</ele>
        <time>2023-04-25T13:21:10Z</time>
      </trkpt>
      <trkpt lat="49.18119" lon="-0.71923">
        <ele>75.6</ele>
        <time>2023-04-25T13:21:11Z</time>
      </trkpt>
      <trkpt lat="49.18114" lon="-0.71909">
        <ele>75.4</ele>
        <time>2023-04-25T13:21:12Z</time>
      </trkpt>
      <trkpt lat="49.1811" lon="-0.71894">
        <ele>75</ele>
        <time>2023-04-25T13:21:13Z</time>
      </trkpt>
      <trkpt lat="49.18105" lon="-0.71879">
        <ele>74.6</ele>
        <time>2023-04-25T13:21:14Z</time>
      </trkpt>
      <trkpt lat="49.18101" lon="-0.71865">
        <ele>74.4</ele>
        <time>2023-04-25T13:21:15Z</time>
      </trkpt>
      <trkpt lat="49.18096" lon="-0.7185">
        <ele>74</ele>
        <time>2023-04-25T13:21:16Z</time>
      </trkpt>
      <trkpt lat="49.18092" lon="-0.71835">
        <ele>73.6</ele>
        <time>2023-04-25T13:21:17Z</time>
      </trkpt>
      <trkpt lat="49.18087" lon="-0.7182">
        <ele>73.2</ele>
        <time>2023-04-25T13:21:18Z</time>
      </trkpt>
      <trkpt lat="49.18082" lon="-0.71805">
        <ele>73</ele>
        <time>2023-04-25T13:21:19Z</time>
      </trkpt>
      <trkpt lat="49.18078" lon="-0.71791">
        <ele>73</ele>
        <time>2023-04-25T13:21:20Z</time>
      </trkpt>
      <trkpt lat="49.18073" lon="-0.71776">
        <ele>72.6</ele>
        <time>2023-04-25T13:21:21Z</time>
      </trkpt>
      <trkpt lat="49.18069" lon="-0.71761">
        <ele>72.6</ele>
        <time>2023-04-25T13:21:22Z</time>
      </trkpt>
      <trkpt lat="49.18064" lon="-0.71747">
        <ele>72.4</ele>
        <time>2023-04-25T13:21:23Z</time>
      </trkpt>
      <trkpt lat="49.1806" lon="-0.71732">
        <ele>72</ele>
        <time>2023-04-25T13:21:24Z</time>
      </trkpt>
      <trkpt lat="49.18055" lon="-0.71717">
        <ele>72</ele>
        <time>2023-04-25T13:21:25Z</time>
      </trkpt>
      <trkpt lat="49.18051" lon="-0.71703">
        <ele>71.6</ele>
        <time>2023-04-25T13:21:26Z</time>
      </trkpt>
      <trkpt lat="49.18046" lon="-0.71689">
        <ele>71.4</ele>
        <time>2023-04-25T13:21:27Z</time>
      </trkpt>
      <trkpt lat="49.18042" lon="-0.71675">
        <ele>71</ele>
        <time>2023-04-25T13:21:28Z</time>
      </trkpt>
      <trkpt lat="49.18037" lon="-0.71661">
        <ele>70.6</ele>
        <time>2023-04-25T13:21:29Z</time>
      </trkpt>
      <trkpt lat="49.18033" lon="-0.71647">
        <ele>70.4</ele>
        <time>2023-04-25T13:21:30Z</time>
      </trkpt>
      <trkpt lat="49.18029" lon="-0.71633">
        <ele>70</ele>
        <time>2023-04-25T13:21:31Z</time>
      </trkpt>
      <trkpt lat="49.18025" lon="-0.7162">
        <ele>69.6</ele>
        <time>2023-04-25T13:21:32Z</time>
      </trkpt>
      <trkpt lat="49.1802" lon="-0.71606">
        <ele>69.4</ele>
        <time>2023-04-25T13:21:33Z</time>
      </trkpt>
      <trkpt lat="49.18016" lon="-0.71592">
        <ele>69</ele>
        <time>2023-04-25T13:21:34Z</time>
      </trkpt>
      <trkpt lat="49.18012" lon="-0.71579">
        <ele>68.6</ele>
        <time>2023-04-25T13:21:35Z</time>
      </trkpt>
      <trkpt lat="49.18008" lon="-0.71565">
        <ele>68</ele>
        <time>2023-04-25T13:21:36Z</time>
      </trkpt>
      <trkpt lat="49.18003" lon="-0.71551">
        <ele>67.4</ele>
        <time>2023-04-25T13:21:37Z</time>
      </trkpt>
      <trkpt lat="49.17999" lon="-0.71537">
        <ele>67</ele>
        <time>2023-04-25T13:21:38Z</time>
      </trkpt>
      <trkpt lat="49.17995" lon="-0.71523">
        <ele>66.6</ele>
        <time>2023-04-25T13:21:39Z</time>
      </trkpt>
      <trkpt lat="49.17991" lon="-0.71509">
        <ele>66.6</ele>
        <time>2023-04-25T13:21:40Z</time>
      </trkpt>
      <trkpt lat="49.17987" lon="-0.71496">
        <ele>66.6</ele>
        <time>2023-04-25T13:21:41Z</time>
      </trkpt>
      <trkpt lat="49.17983" lon="-0.71483">
        <ele>67</ele>
        <time>2023-04-25T13:21:42Z</time>
      </trkpt>
      <trkpt lat="49.17979" lon="-0.71471">
        <ele>67.6</ele>
        <time>2023-04-25T13:21:43Z</time>
      </trkpt>
      <trkpt lat="49.17975" lon="-0.71459">
        <ele>68</ele>
        <time>2023-04-25T13:21:44Z</time>
      </trkpt>
      <trkpt lat="49.17971" lon="-0.71447">
        <ele>68.6</ele>
        <time>2023-04-25T13:21:45Z</time>
      </trkpt>
      <trkpt lat="49.17968" lon="-0.71436">
        <ele>69</ele>
        <time>2023-04-25T13:21:46Z</time>
      </trkpt>
      <trkpt lat="49.17965" lon="-0.71426">
        <ele>69.4</ele>
        <time>2023-04-25T13:21:47Z</time>
      </trkpt>
      <trkpt lat="49.17962" lon="-0.71417">
        <ele>69.8</ele>
        <time>2023-04-25T13:21:48Z</time>
      </trkpt>
      <trkpt lat="49.17959" lon="-0.71408">
        <ele>70.2</ele>
        <time>2023-04-25T13:21:49Z</time>
      </trkpt>
      <trkpt lat="49.17957" lon="-0.71399">
        <ele>70.6</ele>
        <time>2023-04-25T13:21:50Z</time>
      </trkpt>
      <trkpt lat="49.17954" lon="-0.71392">
        <ele>71</ele>
        <time>2023-04-25T13:21:51Z</time>
      </trkpt>
      <trkpt lat="49.17952" lon="-0.71385">
        <ele>71.2</ele>
        <time>2023-04-25T13:21:52Z</time>
      </trkpt>
      <trkpt lat="49.1795" lon="-0.71378">
        <ele>71.6</ele>
        <time>2023-04-25T13:21:53Z</time>
      </trkpt>
      <trkpt lat="49.17948" lon="-0.71372">
        <ele>71.8</ele>
        <time>2023-04-25T13:21:54Z</time>
      </trkpt>
      <trkpt lat="49.17946" lon="-0.71366">
        <ele>72</ele>
        <time>2023-04-25T13:21:55Z</time>
      </trkpt>
      <trkpt lat="49.17944" lon="-0.7136">
        <ele>72.4</ele>
        <time>2023-04-25T13:21:56Z</time>
      </trkpt>
      <trkpt lat="49.17943" lon="-0.71355">
        <ele>72.6</ele>
        <time>2023-04-25T13:21:57Z</time>
      </trkpt>
      <trkpt lat="49.17941" lon="-0.7135">
        <ele>72.6</ele>
        <time>2023-04-25T13:21:58Z</time>
      </trkpt>
      <trkpt lat="49.1794" lon="-0.71346">
        <ele>72.8</ele>
        <time>2023-04-25T13:21:59Z</time>
      </trkpt>
      <trkpt lat="49.17938" lon="-0.71341">
        <ele>73</ele>
        <time>2023-04-25T13:22:00Z</time>
      </trkpt>
      <trkpt lat="49.17937" lon="-0.71336">
        <ele>73.2</ele>
        <time>2023-04-25T13:22:01Z</time>
      </trkpt>
      <trkpt lat="49.17936" lon="-0.71332">
        <ele>73.4</ele>
        <time>2023-04-25T13:22:02Z</time>
      </trkpt>
      <trkpt lat="49.17934" lon="-0.71327">
        <ele>73.6</ele>
        <time>2023-04-25T13:22:03Z</time>
      </trkpt>
      <trkpt lat="49.17933" lon="-0.71323">
        <ele>73.6</ele>
        <time>2023-04-25T13:22:04Z</time>
      </trkpt>
      <trkpt lat="49.17932" lon="-0.71318">
        <ele>73.6</ele>
        <time>2023-04-25T13:22:05Z</time>
      </trkpt>
      <trkpt lat="49.1793" lon="-0.71314">
        <ele>73.8</ele>
        <time>2023-04-25T13:22:06Z</time>
      </trkpt>
      <trkpt lat="49.17929" lon="-0.71309">
        <ele>74</ele>
        <time>2023-04-25T13:22:07Z</time>
      </trkpt>
      <trkpt lat="49.17928" lon="-0.71305">
        <ele>74</ele>
        <time>2023-04-25T13:22:08Z</time>
      </trkpt>
      <trkpt lat="49.17926" lon="-0.71301">
        <ele>74</ele>
        <time>2023-04-25T13:22:09Z</time>
      </trkpt>
      <trkpt lat="49.17925" lon="-0.71296">
        <ele>74.2</ele>
        <time>2023-04-25T13:22:10Z</time>
      </trkpt>
      <trkpt lat="49.17924" lon="-0.71292">
        <ele>74.4</ele>
        <time>2023-04-25T13:22:11Z</time>
      </trkpt>
      <trkpt lat="49.17922" lon="-0.71288">
        <ele>74.4</ele>
        <time>2023-04-25T13:22:12Z</time>
      </trkpt>
      <trkpt lat="49.17921" lon="-0.71283">
        <ele>74.6</ele>
        <time>2023-04-25T13:22:13Z</time>
      </trkpt>
      <trkpt lat="49.1792" lon="-0.71279">
        <ele>74.6</ele>
        <time>2023-04-25T13:22:14Z</time>
      </trkpt>
      <trkpt lat="49.17918" lon="-0.71275">
        <ele>74.6</ele>
        <time>2023-04-25T13:22:15Z</time>
      </trkpt>
      <trkpt lat="49.17917" lon="-0.71271">
        <ele>74.6</ele>
        <time>2023-04-25T13:22:16Z</time>
      </trkpt>
      <trkpt lat="49.17916" lon="-0.71266">
        <ele>75</ele>
        <time>2023-04-25T13:22:17Z</time>
      </trkpt>
      <trkpt lat="49.17915" lon="-0.71262">
        <ele>75</ele>
        <time>2023-04-25T13:22:18Z</time>
      </trkpt>
      <trkpt lat="49.17913" lon="-0.71258">
        <ele>75.4</ele>
        <time>2023-04-25T13:22:19Z</time>
      </trkpt>
      <trkpt lat="49.17912" lon="-0.71254">
        <ele>75.6</ele>
        <time>2023-04-25T13:22:20Z</time>
      </trkpt>
      <trkpt lat="49.17911" lon="-0.71249">
        <ele>75.6</ele>
        <time>2023-04-25T13:22:21Z</time>
      </trkpt>
      <trkpt lat="49.1791" lon="-0.71245">
        <ele>76</ele>
        <time>2023-04-25T13:22:22Z</time>
      </trkpt>
      <trkpt lat="49.17908" lon="-0.71241">
        <ele>76.4</ele>
        <time>2023-04-25T13:22:23Z</time>
      </trkpt>
      <trkpt lat="49.17907" lon="-0.71237">
        <ele>76.6</ele>
        <time>2023-04-25T13:22:24Z</time>
      </trkpt>
      <trkpt lat="49.17906" lon="-0.71233">
        <ele>77</ele>
        <time>2023-04-25T13:22:25Z</time>
      </trkpt>
      <trkpt lat="49.17905" lon="-0.71229">
        <ele>77.4</ele>
        <time>2023-04-25T13:22:26Z</time>
      </trkpt>
      <trkpt lat="49.17903" lon="-0.71224">
        <ele>77.6</ele>
        <time>2023-04-25T13:22:27Z</time>
      </trkpt>
      <trkpt lat="49.17902" lon="-0.7122">
        <ele>78</ele>
        <time>2023-04-25T13:22:28Z</time>
      </trkpt>
      <trkpt lat="49.17901" lon="-0.71216">
        <ele>78.2</ele>
        <time>2023-04-25T13:22:29Z</time>
      </trkpt>
      <trkpt lat="49.179" lon="-0.71212">
        <ele>78.6</ele>
        <time>2023-04-25T13:22:30Z</time>
      </trkpt>
      <trkpt lat="49.17898" lon="-0.71208">
        <ele>78.8</ele>
        <time>2023-04-25T13:22:31Z</time>
      </trkpt>
      <trkpt lat="49.17897" lon="-0.71204">
        <ele>79</ele>
        <time>2023-04-25T13:22:32Z</time>
      </trkpt>
      <trkpt lat="49.17896" lon="-0.71199">
        <ele>79.4</ele>
        <time>2023-04-25T13:22:33Z</time>
      </trkpt>
      <trkpt lat="49.17895" lon="-0.71195">
        <ele>79.6</ele>
        <time>2023-04-25T13:22:34Z</time>
      </trkpt>
      <trkpt lat="49.17893" lon="-0.71192">
        <ele>80</ele>
        <time>2023-04-25T13:22:35Z</time>
      </trkpt>
      <trkpt lat="49.17892" lon="-0.71187">
        <ele>80.2</ele>
        <time>2023-04-25T13:22:36Z</time>
      </trkpt>
      <trkpt lat="49.17891" lon="-0.71183">
        <ele>80.6</ele>
        <time>2023-04-25T13:22:37Z</time>
      </trkpt>
      <trkpt lat="49.1789" lon="-0.71179">
        <ele>80.8</ele>
        <time>2023-04-25T13:22:38Z</time>
      </trkpt>
      <trkpt lat="49.17888" lon="-0.71176">
        <ele>81</ele>
        <time>2023-04-25T13:22:39Z</time>
      </trkpt>
      <trkpt lat="49.17887" lon="-0.71172">
        <ele>81.4</ele>
        <time>2023-04-25T13:22:40Z</time>
      </trkpt>
      <trkpt lat="49.17886" lon="-0.71168">
        <ele>81.6</ele>
        <time>2023-04-25T13:22:41Z</time>
      </trkpt>
      <trkpt lat="49.17885" lon="-0.71164">
        <ele>81.8</ele>
        <time>2023-04-25T13:22:42Z</time>
      </trkpt>
      <trkpt lat="49.17884" lon="-0.7116">
        <ele>82</ele>
        <time>2023-04-25T13:22:43Z</time>
      </trkpt>
      <trkpt lat="49.17882" lon="-0.71156">
        <ele>82.6</ele>
        <time>2023-04-25T13:22:44Z</time>
      </trkpt>
      <trkpt lat="49.17881" lon="-0.71152">
        <ele>82.8</ele>
        <time>2023-04-25T13:22:45Z</time>
      </trkpt>
      <trkpt lat="49.1788" lon="-0.71148">
        <ele>83</ele>
        <time>2023-04-25T13:22:46Z</time>
      </trkpt>
      <trkpt lat="49.17879" lon="-0.71144">
        <ele>83.4</ele>
        <time>2023-04-25T13:22:47Z</time>
      </trkpt>
      <trkpt lat="49.17878" lon="-0.7114">
        <ele>83.6</ele>
        <time>2023-04-25T13:22:48Z</time>
      </trkpt>
      <trkpt lat="49.17877" lon="-0.71136">
        <ele>84</ele>
        <time>2023-04-25T13:22:49Z</time>
      </trkpt>
      <trkpt lat="49.17875" lon="-0.71132">
        <ele>84.4</ele>
        <time>2023-04-25T13:22:50Z</time>
      </trkpt>
      <trkpt lat="49.17874" lon="-0.71129">
        <ele>84.6</ele>
        <time>2023-04-25T13:22:51Z</time>
      </trkpt>
      <trkpt lat="49.17873" lon="-0.71124">
        <ele>85</ele>
        <time>2023-04-25T13:22:52Z</time>
      </trkpt>
      <trkpt lat="49.17872" lon="-0.71121">
        <ele>85.2</ele>
        <time>2023-04-25T13:22:53Z</time>
      </trkpt>
      <trkpt lat="49.17871" lon="-0.71117">
        <ele>85.6</ele>
        <time>2023-04-25T13:22:54Z</time>
      </trkpt>
      <trkpt lat="49.17869" lon="-0.71113">
        <ele>86</ele>
        <time>2023-04-25T13:22:55Z</time>
      </trkpt>
      <trkpt lat="49.17868" lon="-0.71109">
        <ele>86.2</ele>
        <time>2023-04-25T13:22:56Z</time>
      </trkpt>
      <trkpt lat="49.17867" lon="-0.71105">
        <ele>86.6</ele>
        <time>2023-04-25T13:22:57Z</time>
      </trkpt>
      <trkpt lat="49.17866" lon="-0.71101">
        <ele>86.8</ele>
        <time>2023-04-25T13:22:58Z</time>
      </trkpt>
      <trkpt lat="49.17864" lon="-0.71097">
        <ele>87</ele>
        <time>2023-04-25T13:22:59Z</time>
      </trkpt>
      <trkpt lat="49.17863" lon="-0.71093">
        <ele>87.4</ele>
        <time>2023-04-25T13:23:00Z</time>
      </trkpt>
      <trkpt lat="49.17862" lon="-0.71089">
        <ele>87.6</ele>
        <time>2023-04-25T13:23:01Z</time>
      </trkpt>
      <trkpt lat="49.17861" lon="-0.71085">
        <ele>88</ele>
        <time>2023-04-25T13:23:02Z</time>
      </trkpt>
      <trkpt lat="49.1786" lon="-0.71081">
        <ele>88.2</ele>
        <time>2023-04-25T13:23:03Z</time>
      </trkpt>
      <trkpt lat="49.17859" lon="-0.71077">
        <ele>88.6</ele>
        <time>2023-04-25T13:23:04Z</time>
      </trkpt>
      <trkpt lat="49.17858" lon="-0.71073">
        <ele>88.8</ele>
        <time>2023-04-25T13:23:05Z</time>
      </trkpt>
      <trkpt lat="49.17856" lon="-0.7107">
        <ele>89</ele>
        <time>2023-04-25T13:23:06Z</time>
      </trkpt>
      <trkpt lat="49.17855" lon="-0.71066">
        <ele>89.4</ele>
        <time>2023-04-25T13:23:07Z</time>
      </trkpt>
      <trkpt lat="49.17854" lon="-0.71062">
        <ele>89.6</ele>
        <time>2023-04-25T13:23:08Z</time>
      </trkpt>
      <trkpt lat="49.17853" lon="-0.71058">
        <ele>90</ele>
        <time>2023-04-25T13:23:09Z</time>
      </trkpt>
      <trkpt lat="49.17852" lon="-0.71054">
        <ele>90.4</ele>
        <time>2023-04-25T13:23:10Z</time>
      </trkpt>
      <trkpt lat="49.17852" lon="-0.7105">
        <ele>90.6</ele>
        <time>2023-04-25T13:23:11Z</time>
      </trkpt>
      <trkpt lat="49.17851" lon="-0.71047">
        <ele>91</ele>
        <time>2023-04-25T13:23:12Z</time>
      </trkpt>
      <trkpt lat="49.1785" lon="-0.71043">
        <ele>91</ele>
        <time>2023-04-25T13:23:13Z</time>
      </trkpt>
      <trkpt lat="49.17849" lon="-0.71039">
        <ele>91.4</ele>
        <time>2023-04-25T13:23:14Z</time>
      </trkpt>
      <trkpt lat="49.17848" lon="-0.71035">
        <ele>91.6</ele>
        <time>2023-04-25T13:23:15Z</time>
      </trkpt>
      <trkpt lat="49.17848" lon="-0.7103">
        <ele>92</ele>
        <time>2023-04-25T13:23:16Z</time>
      </trkpt>
      <trkpt lat="49.17847" lon="-0.71026">
        <ele>92.4</ele>
        <time>2023-04-25T13:23:17Z</time>
      </trkpt>
      <trkpt lat="49.17846" lon="-0.71022">
        <ele>92.6</ele>
        <time>2023-04-25T13:23:18Z</time>
      </trkpt>
      <trkpt lat="49.17845" lon="-0.71017">
        <ele>93</ele>
        <time>2023-04-25T13:23:19Z</time>
      </trkpt>
      <trkpt lat="49.17844" lon="-0.71013">
        <ele>93.4</ele>
        <time>2023-04-25T13:23:20Z</time>
      </trkpt>
      <trkpt lat="49.17844" lon="-0.71008">
        <ele>93.6</ele>
        <time>2023-04-25T13:23:21Z</time>
      </trkpt>
      <trkpt lat="49.17843" lon="-0.71004">
        <ele>94</ele>
        <time>2023-04-25T13:23:22Z</time>
      </trkpt>
      <trkpt lat="49.17843" lon="-0.70999">
        <ele>94.2</ele>
        <time>2023-04-25T13:23:23Z</time>
      </trkpt>
      <trkpt lat="49.17842" lon="-0.70995">
        <ele>94.4</ele>
        <time>2023-04-25T13:23:24Z</time>
      </trkpt>
      <trkpt lat="49.17842" lon="-0.70991">
        <ele>94.6</ele>
        <time>2023-04-25T13:23:25Z</time>
      </trkpt>
      <trkpt lat="49.17842" lon="-0.70987">
        <ele>94.6</ele>
        <time>2023-04-25T13:23:26Z</time>
      </trkpt>
      <trkpt lat="49.17842" lon="-0.70982">
        <ele>95</ele>
        <time>2023-04-25T13:23:27Z</time>
      </trkpt>
      <trkpt lat="49.17842" lon="-0.70978">
        <ele>95</ele>
        <time>2023-04-25T13:23:28Z</time>
      </trkpt>
      <trkpt lat="49.17842" lon="-0.70974">
        <ele>95.2</ele>
        <time>2023-04-25T13:23:29Z</time>
      </trkpt>
      <trkpt lat="49.17842" lon="-0.70969">
        <ele>95.4</ele>
        <time>2023-04-25T13:23:30Z</time>
      </trkpt>
      <trkpt lat="49.17842" lon="-0.70965">
        <ele>95.6</ele>
        <time>2023-04-25T13:23:31Z</time>
      </trkpt>
      <trkpt lat="49.17842" lon="-0.70961">
        <ele>95.6</ele>
        <time>2023-04-25T13:23:32Z</time>
      </trkpt>
      <trkpt lat="49.17842" lon="-0.70956">
        <ele>95.8</ele>
        <time>2023-04-25T13:23:33Z</time>
      </trkpt>
      <trkpt lat="49.17842" lon="-0.70952">
        <ele>96</ele>
        <time>2023-04-25T13:23:34Z</time>
      </trkpt>
      <trkpt lat="49.17842" lon="-0.70948">
        <ele>96</ele>
        <time>2023-04-25T13:23:35Z</time>
      </trkpt>
      <trkpt lat="49.17842" lon="-0.70944">
        <ele>96.4</ele>
        <time>2023-04-25T13:23:36Z</time>
      </trkpt>
      <trkpt lat="49.17842" lon="-0.7094">
        <ele>96.4</ele>
        <time>2023-04-25T13:23:37Z</time>
      </trkpt>
      <trkpt lat="49.17842" lon="-0.70937">
        <ele>96.6</ele>
        <time>2023-04-25T13:23:38Z</time>
      </trkpt>
      <trkpt lat="49.17842" lon="-0.70933">
        <ele>96.6</ele>
        <time>2023-04-25T13:23:39Z</time>
      </trkpt>
      <trkpt lat="49.17841" lon="-0.70929">
        <ele>97</ele>
        <time>2023-04-25T13:23:40Z</time>
      </trkpt>
      <trkpt lat="49.17841" lon="-0.70926">
        <ele>97</ele>
        <time>2023-04-25T13:23:41Z</time>
      </trkpt>
      <trkpt lat="49.17841" lon="-0.70922">
        <ele>97</ele>
        <time>2023-04-25T13:23:42Z</time>
      </trkpt>
      <trkpt lat="49.17841" lon="-0.70918">
        <ele>97.4</ele>
        <time>2023-04-25T13:23:43Z</time>
      </trkpt>
      <trkpt lat="49.17842" lon="-0.70914">
        <ele>97.4</ele>
        <time>2023-04-25T13:23:44Z</time>
      </trkpt>
      <trkpt lat="49.17842" lon="-0.7091">
        <ele>97.6</ele>
        <time>2023-04-25T13:23:45Z</time>
      </trkpt>
      <trkpt lat="49.17842" lon="-0.70906">
        <ele>97.6</ele>
        <time>2023-04-25T13:23:46Z</time>
      </trkpt>
      <trkpt lat="49.17842" lon="-0.70902">
        <ele>97.8</ele>
        <time>2023-04-25T13:23:47Z</time>
      </trkpt>
      <trkpt lat="49.17842" lon="-0.70898">
        <ele>98</ele>
        <time>2023-04-25T13:23:48Z</time>
      </trkpt>
      <trkpt lat="49.17842" lon="-0.70894">
        <ele>98</ele>
        <time>2023-04-25T13:23:49Z</time>
      </trkpt>
      <trkpt lat="49.17842" lon="-0.70891">
        <ele>98.4</ele>
        <time>2023-04-25T13:23:50Z</time>
      </trkpt>
      <trkpt lat="49.17842" lon="-0.70887">
        <ele>98.4</ele>
        <time>2023-04-25T13:23:51Z</time>
      </trkpt>
      <trkpt lat="49.17842" lon="-0.70883">
        <ele>98.6</ele>
        <time>2023-04-25T13:23:52Z</time>
      </trkpt>
      <trkpt lat="49.17842" lon="-0.70879">
        <ele>98.6</ele>
        <time>2023-04-25T13:23:53Z</time>
      </trkpt>
      <trkpt lat="49.17843" lon="-0.70875">
        <ele>99</ele>
        <time>2023-04-25T13:23:54Z</time>
      </trkpt>
      <trkpt lat="49.17843" lon="-0.70871">
        <ele>99</ele>
        <time>2023-04-25T13:23:55Z</time>
      </trkpt>
      <trkpt lat="49.17843" lon="-0.70867">
        <ele>99.2</ele>
        <time>2023-04-25T13:23:56Z</time>
      </trkpt>
      <trkpt lat="49.17843" lon="-0.70864">
        <ele>99.4</ele>
        <time>2023-04-25T13:23:57Z</time>
      </trkpt>
      <trkpt lat="49.17843" lon="-0.7086">
        <ele>99.6</ele>
        <time>2023-04-25T13:23:58Z</time>
      </trkpt>
      <trkpt lat="49.17843" lon="-0.70856">
        <ele>99.6</ele>
        <time>2023-04-25T13:23:59Z</time>
      </trkpt>
      <trkpt lat="49.17843" lon="-0.70852">
        <ele>99.8</ele>
        <time>2023-04-25T13:24:00Z</time>
      </trkpt>
      <trkpt lat="49.17843" lon="-0.70848">
        <ele>100</ele>
        <time>2023-04-25T13:24:01Z</time>
      </trkpt>
      <trkpt lat="49.17844" lon="-0.70844">
        <ele>100</ele>
        <time>2023-04-25T13:24:02Z</time>
      </trkpt>
      <trkpt lat="49.17844" lon="-0.7084">
        <ele>100.2</ele>
        <time>2023-04-25T13:24:03Z</time>
      </trkpt>
      <trkpt lat="49.17844" lon="-0.70837">
        <ele>100.4</ele>
        <time>2023-04-25T13:24:04Z</time>
      </trkpt>
      <trkpt lat="49.17844" lon="-0.70832">
        <ele>100.6</ele>
        <time>2023-04-25T13:24:05Z</time>
      </trkpt>
      <trkpt lat="49.17844" lon="-0.70829">
        <ele>100.6</ele>
        <time>2023-04-25T13:24:06Z</time>
      </trkpt>
      <trkpt lat="49.17844" lon="-0.70825">
        <ele>101</ele>
        <time>2023-04-25T13:24:07Z</time>
      </trkpt>
      <trkpt lat="49.17844" lon="-0.70821">
        <ele>101</ele>
        <time>2023-04-25T13:24:08Z</time>
      </trkpt>
      <trkpt lat="49.17844" lon="-0.70816">
        <ele>101.4</ele>
        <time>2023-04-25T13:24:09Z</time>
      </trkpt>
      <trkpt lat="49.17845" lon="-0.70812">
        <ele>101.6</ele>
        <time>2023-04-25T13:24:10Z</time>
      </trkpt>
      <trkpt lat="49.17845" lon="-0.70808">
        <ele>101.6</ele>
        <time>2023-04-25T13:24:11Z</time>
      </trkpt>
      <trkpt lat="49.17845" lon="-0.70804">
        <ele>102</ele>
        <time>2023-04-25T13:24:12Z</time>
      </trkpt>
      <trkpt lat="49.17845" lon="-0.708">
        <ele>102</ele>
        <time>2023-04-25T13:24:13Z</time>
      </trkpt>
      <trkpt lat="49.17845" lon="-0.70796">
        <ele>102.2</ele>
        <time>2023-04-25T13:24:14Z</time>
      </trkpt>
      <trkpt lat="49.17845" lon="-0.70792">
        <ele>102.4</ele>
        <time>2023-04-25T13:24:15Z</time>
      </trkpt>
      <trkpt lat="49.17845" lon="-0.70788">
        <ele>102.6</ele>
        <time>2023-04-25T13:24:16Z</time>
      </trkpt>
      <trkpt lat="49.17845" lon="-0.70784">
        <ele>102.8</ele>
        <time>2023-04-25T13:24:17Z</time>
      </trkpt>
      <trkpt lat="49.17846" lon="-0.70781">
        <ele>103</ele>
        <time>2023-04-25T13:24:18Z</time>
      </trkpt>
      <trkpt lat="49.17846" lon="-0.70777">
        <ele>103</ele>
        <time>2023-04-25T13:24:19Z</time>
      </trkpt>
      <trkpt lat="49.17846" lon="-0.70773">
        <ele>103.4</ele>
        <time>2023-04-25T13:24:20Z</time>
      </trkpt>
      <trkpt lat="49.17846" lon="-0.70769">
        <ele>103.6</ele>
        <time>2023-04-25T13:24:21Z</time>
      </trkpt>
      <trkpt lat="49.17846" lon="-0.70765">
        <ele>103.6</ele>
        <time>2023-04-25T13:24:22Z</time>
      </trkpt>
      <trkpt lat="49.17847" lon="-0.70762">
        <ele>103.8</ele>
        <time>2023-04-25T13:24:23Z</time>
      </trkpt>
      <trkpt lat="49.17847" lon="-0.70758">
        <ele>104</ele>
        <time>2023-04-25T13:24:24Z</time>
      </trkpt>
      <trkpt lat="49.17847" lon="-0.70754">
        <ele>104</ele>
        <time>2023-04-25T13:24:25Z</time>
      </trkpt>
      <trkpt lat="49.17847" lon="-0.7075">
        <ele>104.4</ele>
        <time>2023-04-25T13:24:26Z</time>
      </trkpt>
      <trkpt lat="49.17848" lon="-0.70746">
        <ele>104.4</ele>
        <time>2023-04-25T13:24:27Z</time>
      </trkpt>
      <trkpt lat="49.17848" lon="-0.70743">
        <ele>104.6</ele>
        <time>2023-04-25T13:24:28Z</time>
      </trkpt>
      <trkpt lat="49.17848" lon="-0.70739">
        <ele>104.6</ele>
        <time>2023-04-25T13:24:29Z</time>
      </trkpt>
      <trkpt lat="49.17848" lon="-0.70735">
        <ele>104.6</ele>
        <time>2023-04-25T13:24:30Z</time>
      </trkpt>
      <trkpt lat="49.17848" lon="-0.70731">
        <ele>104.8</ele>
        <time>2023-04-25T13:24:31Z</time>
      </trkpt>
      <trkpt lat="49.17849" lon="-0.70728">
        <ele>105</ele>
        <time>2023-04-25T13:24:32Z</time>
      </trkpt>
      <trkpt lat="49.17849" lon="-0.70724">
        <ele>105</ele>
        <time>2023-04-25T13:24:33Z</time>
      </trkpt>
      <trkpt lat="49.17849" lon="-0.7072">
        <ele>105</ele>
        <time>2023-04-25T13:24:34Z</time>
      </trkpt>
      <trkpt lat="49.17849" lon="-0.70716">
        <ele>105</ele>
        <time>2023-04-25T13:24:35Z</time>
      </trkpt>
      <trkpt lat="49.17849" lon="-0.70713">
        <ele>105.2</ele>
        <time>2023-04-25T13:24:36Z</time>
      </trkpt>
      <trkpt lat="49.17849" lon="-0.70709">
        <ele>105.4</ele>
        <time>2023-04-25T13:24:37Z</time>
      </trkpt>
      <trkpt lat="49.17849" lon="-0.70705">
        <ele>105.4</ele>
        <time>2023-04-25T13:24:38Z</time>
      </trkpt>
      <trkpt lat="49.17849" lon="-0.70701">
        <ele>105.6</ele>
        <time>2023-04-25T13:24:39Z</time>
      </trkpt>
      <trkpt lat="49.17849" lon="-0.70697">
        <ele>105.6</ele>
        <time>2023-04-25T13:24:40Z</time>
      </trkpt>
      <trkpt lat="49.17849" lon="-0.70693">
        <ele>105.6</ele>
        <time>2023-04-25T13:24:41Z</time>
      </trkpt>
      <trkpt lat="49.1785" lon="-0.70689">
        <ele>105.8</ele>
        <time>2023-04-25T13:24:42Z</time>
      </trkpt>
      <trkpt lat="49.1785" lon="-0.70685">
        <ele>106</ele>
        <time>2023-04-25T13:24:43Z</time>
      </trkpt>
      <trkpt lat="49.1785" lon="-0.70681">
        <ele>106</ele>
        <time>2023-04-25T13:24:44Z</time>
      </trkpt>
      <trkpt lat="49.1785" lon="-0.70677">
        <ele>106</ele>
        <time>2023-04-25T13:24:45Z</time>
      </trkpt>
      <trkpt lat="49.1785" lon="-0.70673">
        <ele>106.4</ele>
        <time>2023-04-25T13:24:46Z</time>
      </trkpt>
      <trkpt lat="49.1785" lon="-0.70668">
        <ele>106.4</ele>
        <time>2023-04-25T13:24:47Z</time>
      </trkpt>
      <trkpt lat="49.1785" lon="-0.70664">
        <ele>106.4</ele>
        <time>2023-04-25T13:24:48Z</time>
      </trkpt>
      <trkpt lat="49.1785" lon="-0.7066">
        <ele>106.6</ele>
        <time>2023-04-25T13:24:49Z</time>
      </trkpt>
      <trkpt lat="49.1785" lon="-0.70655">
        <ele>106.6</ele>
        <time>2023-04-25T13:24:50Z</time>
      </trkpt>
      <trkpt lat="49.17849" lon="-0.70651">
        <ele>106.6</ele>
        <time>2023-04-25T13:24:51Z</time>
      </trkpt>
      <trkpt lat="49.17849" lon="-0.70646">
        <ele>106.6</ele>
        <time>2023-04-25T13:24:52Z</time>
      </trkpt>
      <trkpt lat="49.17849" lon="-0.70642">
        <ele>106.8</ele>
        <time>2023-04-25T13:24:53Z</time>
      </trkpt>
      <trkpt lat="49.17849" lon="-0.70637">
        <ele>107</ele>
        <time>2023-04-25T13:24:54Z</time>
      </trkpt>
      <trkpt lat="49.17848" lon="-0.70633">
        <ele>107</ele>
        <time>2023-04-25T13:24:55Z</time>
      </trkpt>
      <trkpt lat="49.17848" lon="-0.70628">
        <ele>107</ele>
        <time>2023-04-25T13:24:56Z</time>
      </trkpt>
      <trkpt lat="49.17848" lon="-0.70624">
        <ele>107</ele>
        <time>2023-04-25T13:24:57Z</time>
      </trkpt>
      <trkpt lat="49.17847" lon="-0.70619">
        <ele>107.2</ele>
        <time>2023-04-25T13:24:58Z</time>
      </trkpt>
      <trkpt lat="49.17847" lon="-0.70614">
        <ele>107.2</ele>
        <time>2023-04-25T13:24:59Z</time>
      </trkpt>
      <trkpt lat="49.17846" lon="-0.7061">
        <ele>107.4</ele>
        <time>2023-04-25T13:25:00Z</time>
      </trkpt>
      <trkpt lat="49.17846" lon="-0.70605">
        <ele>107.4</ele>
        <time>2023-04-25T13:25:01Z</time>
      </trkpt>
      <trkpt lat="49.17845" lon="-0.70601">
        <ele>107.6</ele>
        <time>2023-04-25T13:25:02Z</time>
      </trkpt>
      <trkpt lat="49.17845" lon="-0.70596">
        <ele>107.6</ele>
        <time>2023-04-25T13:25:03Z</time>
      </trkpt>
      <trkpt lat="49.17844" lon="-0.70591">
        <ele>107.6</ele>
        <time>2023-04-25T13:25:04Z</time>
      </trkpt>
      <trkpt lat="49.17844" lon="-0.70586">
        <ele>107.6</ele>
        <time>2023-04-25T13:25:05Z</time>
      </trkpt>
      <trkpt lat="49.17843" lon="-0.70581">
        <ele>107.8</ele>
        <time>2023-04-25T13:25:06Z</time>
      </trkpt>
      <trkpt lat="49.17843" lon="-0.70576">
        <ele>108</ele>
        <time>2023-04-25T13:25:07Z</time>
      </trkpt>
      <trkpt lat="49.17842" lon="-0.70571">
        <ele>108</ele>
        <time>2023-04-25T13:25:08Z</time>
      </trkpt>
      <trkpt lat="49.17842" lon="-0.70565">
        <ele>108</ele>
        <time>2023-04-25T13:25:09Z</time>
      </trkpt>
      <trkpt lat="49.17842" lon="-0.70559">
        <ele>108</ele>
        <time>2023-04-25T13:25:10Z</time>
      </trkpt>
      <trkpt lat="49.17841" lon="-0.70554">
        <ele>108</ele>
        <time>2023-04-25T13:25:11Z</time>
      </trkpt>
      <trkpt lat="49.1784" lon="-0.70548">
        <ele>108.2</ele>
        <time>2023-04-25T13:25:12Z</time>
      </trkpt>
      <trkpt lat="49.1784" lon="-0.70542">
        <ele>108.4</ele>
        <time>2023-04-25T13:25:13Z</time>
      </trkpt>
      <trkpt lat="49.17839" lon="-0.70535">
        <ele>108.4</ele>
        <time>2023-04-25T13:25:14Z</time>
      </trkpt>
      <trkpt lat="49.17839" lon="-0.70529">
        <ele>108.6</ele>
        <time>2023-04-25T13:25:15Z</time>
      </trkpt>
      <trkpt lat="49.17838" lon="-0.70523">
        <ele>108.6</ele>
        <time>2023-04-25T13:25:16Z</time>
      </trkpt>
      <trkpt lat="49.17838" lon="-0.70516">
        <ele>108.6</ele>
        <time>2023-04-25T13:25:17Z</time>
      </trkpt>
      <trkpt lat="49.17837" lon="-0.7051">
        <ele>108.8</ele>
        <time>2023-04-25T13:25:18Z</time>
      </trkpt>
      <trkpt lat="49.17837" lon="-0.70503">
        <ele>108.8</ele>
        <time>2023-04-25T13:25:19Z</time>
      </trkpt>
      <trkpt lat="49.17836" lon="-0.70496">
        <ele>109</ele>
        <time>2023-04-25T13:25:20Z</time>
      </trkpt>
      <trkpt lat="49.17835" lon="-0.7049">
        <ele>109</ele>
        <time>2023-04-25T13:25:21Z</time>
      </trkpt>
      <trkpt lat="49.17835" lon="-0.70483">
        <ele>109</ele>
        <time>2023-04-25T13:25:22Z</time>
      </trkpt>
      <trkpt lat="49.17834" lon="-0.70476">
        <ele>109</ele>
        <time>2023-04-25T13:25:23Z</time>
      </trkpt>
      <trkpt lat="49.17834" lon="-0.70469">
        <ele>109</ele>
        <time>2023-04-25T13:25:24Z</time>
      </trkpt>
      <trkpt lat="49.17833" lon="-0.70463">
        <ele>109</ele>
        <time>2023-04-25T13:25:25Z</time>
      </trkpt>
      <trkpt lat="49.17832" lon="-0.70456">
        <ele>109</ele>
        <time>2023-04-25T13:25:26Z</time>
      </trkpt>
      <trkpt lat="49.17832" lon="-0.70449">
        <ele>109</ele>
        <time>2023-04-25T13:25:27Z</time>
      </trkpt>
      <trkpt lat="49.17831" lon="-0.70442">
        <ele>109</ele>
        <time>2023-04-25T13:25:28Z</time>
      </trkpt>
      <trkpt lat="49.17831" lon="-0.70435">
        <ele>109</ele>
        <time>2023-04-25T13:25:29Z</time>
      </trkpt>
      <trkpt lat="49.1783" lon="-0.70428">
        <ele>109</ele>
        <time>2023-04-25T13:25:30Z</time>
      </trkpt>
      <trkpt lat="49.17829" lon="-0.70421">
        <ele>109</ele>
        <time>2023-04-25T13:25:31Z</time>
      </trkpt>
      <trkpt lat="49.17829" lon="-0.70414">
        <ele>109</ele>
        <time>2023-04-25T13:25:32Z</time>
      </trkpt>
      <trkpt lat="49.17828" lon="-0.70407">
        <ele>108.8</ele>
        <time>2023-04-25T13:25:33Z</time>
      </trkpt>
      <trkpt lat="49.17828" lon="-0.70399">
        <ele>108.6</ele>
        <time>2023-04-25T13:25:34Z</time>
      </trkpt>
      <trkpt lat="49.17827" lon="-0.70392">
        <ele>108.4</ele>
        <time>2023-04-25T13:25:35Z</time>
      </trkpt>
      <trkpt lat="49.17826" lon="-0.70385">
        <ele>108.2</ele>
        <time>2023-04-25T13:25:36Z</time>
      </trkpt>
      <trkpt lat="49.17826" lon="-0.70377">
        <ele>108</ele>
        <time>2023-04-25T13:25:37Z</time>
      </trkpt>
      <trkpt lat="49.17825" lon="-0.7037">
        <ele>108</ele>
        <time>2023-04-25T13:25:38Z</time>
      </trkpt>
      <trkpt lat="49.17825" lon="-0.70362">
        <ele>107.6</ele>
        <time>2023-04-25T13:25:39Z</time>
      </trkpt>
      <trkpt lat="49.17824" lon="-0.70355">
        <ele>107.6</ele>
        <time>2023-04-25T13:25:40Z</time>
      </trkpt>
      <trkpt lat="49.17823" lon="-0.70347">
        <ele>107.4</ele>
        <time>2023-04-25T13:25:41Z</time>
      </trkpt>
      <trkpt lat="49.17822" lon="-0.7034">
        <ele>107.2</ele>
        <time>2023-04-25T13:25:42Z</time>
      </trkpt>
      <trkpt lat="49.17822" lon="-0.70332">
        <ele>107</ele>
        <time>2023-04-25T13:25:43Z</time>
      </trkpt>
      <trkpt lat="49.17821" lon="-0.70324">
        <ele>107</ele>
        <time>2023-04-25T13:25:44Z</time>
      </trkpt>
      <trkpt lat="49.1782" lon="-0.70316">
        <ele>106.8</ele>
        <time>2023-04-25T13:25:45Z</time>
      </trkpt>
      <trkpt lat="49.17819" lon="-0.70308">
        <ele>106.8</ele>
        <time>2023-04-25T13:25:46Z</time>
      </trkpt>
      <trkpt lat="49.17818" lon="-0.703">
        <ele>106.6</ele>
        <time>2023-04-25T13:25:47Z</time>
      </trkpt>
      <trkpt lat="49.17818" lon="-0.70292">
        <ele>106.6</ele>
        <time>2023-04-25T13:25:48Z</time>
      </trkpt>
      <trkpt lat="49.17817" lon="-0.70284">
        <ele>106.6</ele>
        <time>2023-04-25T13:25:49Z</time>
      </trkpt>
      <trkpt lat="49.17816" lon="-0.70276">
        <ele>106.6</ele>
        <time>2023-04-25T13:25:50Z</time>
      </trkpt>
      <trkpt lat="49.17815" lon="-0.70267">
        <ele>106.4</ele>
        <time>2023-04-25T13:25:51Z</time>
      </trkpt>
      <trkpt lat="49.17814" lon="-0.70259">
        <ele>106.4</ele>
        <time>2023-04-25T13:25:52Z</time>
      </trkpt>
      <trkpt lat="49.17814" lon="-0.7025">
        <ele>106.2</ele>
        <time>2023-04-25T13:25:53Z</time>
      </trkpt>
      <trkpt lat="49.17813" lon="-0.70242">
        <ele>106.4</ele>
        <time>2023-04-25T13:25:54Z</time>
      </trkpt>
      <trkpt lat="49.17812" lon="-0.70233">
        <ele>106.4</ele>
        <time>2023-04-25T13:25:55Z</time>
      </trkpt>
      <trkpt lat="49.17811" lon="-0.70225">
        <ele>106.4</ele>
        <time>2023-04-25T13:25:56Z</time>
      </trkpt>
      <trkpt lat="49.1781" lon="-0.70216">
        <ele>106.6</ele>
        <time>2023-04-25T13:25:57Z</time>
      </trkpt>
      <trkpt lat="49.1781" lon="-0.70207">
        <ele>106.6</ele>
        <time>2023-04-25T13:25:58Z</time>
      </trkpt>
      <trkpt lat="49.17809" lon="-0.70198">
        <ele>106.6</ele>
        <time>2023-04-25T13:25:59Z</time>
      </trkpt>
      <trkpt lat="49.17808" lon="-0.70189">
        <ele>106.6</ele>
        <time>2023-04-25T13:26:00Z</time>
      </trkpt>
      <trkpt lat="49.17807" lon="-0.7018">
        <ele>106.6</ele>
        <time>2023-04-25T13:26:01Z</time>
      </trkpt>
      <trkpt lat="49.17806" lon="-0.70171">
        <ele>106.6</ele>
        <time>2023-04-25T13:26:02Z</time>
      </trkpt>
      <trkpt lat="49.17805" lon="-0.70162">
        <ele>106.6</ele>
        <time>2023-04-25T13:26:03Z</time>
      </trkpt>
      <trkpt lat="49.17804" lon="-0.70152">
        <ele>106.6</ele>
        <time>2023-04-25T13:26:04Z</time>
      </trkpt>
      <trkpt lat="49.17804" lon="-0.70143">
        <ele>106.6</ele>
        <time>2023-04-25T13:26:05Z</time>
      </trkpt>
      <trkpt lat="49.17803" lon="-0.70134">
        <ele>106.8</ele>
        <time>2023-04-25T13:26:06Z</time>
      </trkpt>
      <trkpt lat="49.17802" lon="-0.70124">
        <ele>106.8</ele>
        <time>2023-04-25T13:26:07Z</time>
      </trkpt>
      <trkpt lat="49.17801" lon="-0.70115">
        <ele>107</ele>
        <time>2023-04-25T13:26:08Z</time>
      </trkpt>
      <trkpt lat="49.178" lon="-0.70105">
        <ele>107</ele>
        <time>2023-04-25T13:26:09Z</time>
      </trkpt>
      <trkpt lat="49.17799" lon="-0.70095">
        <ele>107</ele>
        <time>2023-04-25T13:26:10Z</time>
      </trkpt>
      <trkpt lat="49.17798" lon="-0.70086">
        <ele>107</ele>
        <time>2023-04-25T13:26:11Z</time>
      </trkpt>
      <trkpt lat="49.17797" lon="-0.70076">
        <ele>107</ele>
        <time>2023-04-25T13:26:12Z</time>
      </trkpt>
      <trkpt lat="49.17797" lon="-0.70066">
        <ele>106.8</ele>
        <time>2023-04-25T13:26:13Z</time>
      </trkpt>
      <trkpt lat="49.17796" lon="-0.70056">
        <ele>106.6</ele>
        <time>2023-04-25T13:26:14Z</time>
      </trkpt>
      <trkpt lat="49.17795" lon="-0.70046">
        <ele>106.6</ele>
        <time>2023-04-25T13:26:15Z</time>
      </trkpt>
      <trkpt lat="49.17794" lon="-0.70036">
        <ele>106.4</ele>
        <time>2023-04-25T13:26:16Z</time>
      </trkpt>
      <trkpt lat="49.17793" lon="-0.70026">
        <ele>106.4</ele>
        <time>2023-04-25T13:26:17Z</time>
      </trkpt>
      <trkpt lat="49.17792" lon="-0.70015">
        <ele>106.2</ele>
        <time>2023-04-25T13:26:18Z</time>
      </trkpt>
      <trkpt lat="49.17791" lon="-0.70005">
        <ele>106</ele>
        <time>2023-04-25T13:26:19Z</time>
      </trkpt>
      <trkpt lat="49.1779" lon="-0.69994">
        <ele>106</ele>
        <time>2023-04-25T13:26:20Z</time>
      </trkpt>
      <trkpt lat="49.17789" lon="-0.69984">
        <ele>105.6</ele>
        <time>2023-04-25T13:26:21Z</time>
      </trkpt>
      <trkpt lat="49.17788" lon="-0.69973">
        <ele>105.4</ele>
        <time>2023-04-25T13:26:22Z</time>
      </trkpt>
      <trkpt lat="49.17787" lon="-0.69962">
        <ele>105</ele>
        <time>2023-04-25T13:26:23Z</time>
      </trkpt>
      <trkpt lat="49.17786" lon="-0.69951">
        <ele>104.8</ele>
        <time>2023-04-25T13:26:24Z</time>
      </trkpt>
      <trkpt lat="49.17785" lon="-0.6994">
        <ele>104.6</ele>
        <time>2023-04-25T13:26:25Z</time>
      </trkpt>
      <trkpt lat="49.17784" lon="-0.69929">
        <ele>104.4</ele>
        <time>2023-04-25T13:26:26Z</time>
      </trkpt>
      <trkpt lat="49.17783" lon="-0.69918">
        <ele>104</ele>
        <time>2023-04-25T13:26:27Z</time>
      </trkpt>
      <trkpt lat="49.17782" lon="-0.69907">
        <ele>103.8</ele>
        <time>2023-04-25T13:26:28Z</time>
      </trkpt>
      <trkpt lat="49.17781" lon="-0.69896">
        <ele>103.6</ele>
        <time>2023-04-25T13:26:29Z</time>
      </trkpt>
      <trkpt lat="49.1778" lon="-0.69885">
        <ele>103.6</ele>
        <time>2023-04-25T13:26:30Z</time>
      </trkpt>
      <trkpt lat="49.17779" lon="-0.69874">
        <ele>103.4</ele>
        <time>2023-04-25T13:26:31Z</time>
      </trkpt>
      <trkpt lat="49.17777" lon="-0.69863">
        <ele>103</ele>
        <time>2023-04-25T13:26:32Z</time>
      </trkpt>
      <trkpt lat="49.17777" lon="-0.69852">
        <ele>103</ele>
        <time>2023-04-25T13:26:33Z</time>
      </trkpt>
      <trkpt lat="49.17776" lon="-0.69841">
        <ele>102.8</ele>
        <time>2023-04-25T13:26:34Z</time>
      </trkpt>
      <trkpt lat="49.17774" lon="-0.6983">
        <ele>102.6</ele>
        <time>2023-04-25T13:26:35Z</time>
      </trkpt>
      <trkpt lat="49.17774" lon="-0.69819">
        <ele>102.4</ele>
        <time>2023-04-25T13:26:36Z</time>
      </trkpt>
      <trkpt lat="49.17773" lon="-0.69808">
        <ele>102.2</ele>
        <time>2023-04-25T13:26:37Z</time>
      </trkpt>
      <trkpt lat="49.17772" lon="-0.69798">
        <ele>102</ele>
        <time>2023-04-25T13:26:38Z</time>
      </trkpt>
      <trkpt lat="49.17771" lon="-0.69787">
        <ele>101.8</ele>
        <time>2023-04-25T13:26:39Z</time>
      </trkpt>
      <trkpt lat="49.1777" lon="-0.69777">
        <ele>101.6</ele>
        <time>2023-04-25T13:26:40Z</time>
      </trkpt>
      <trkpt lat="49.17769" lon="-0.69767">
        <ele>101.4</ele>
        <time>2023-04-25T13:26:41Z</time>
      </trkpt>
      <trkpt lat="49.17768" lon="-0.69756">
        <ele>101</ele>
        <time>2023-04-25T13:26:42Z</time>
      </trkpt>
      <trkpt lat="49.17767" lon="-0.69746">
        <ele>101</ele>
        <time>2023-04-25T13:26:43Z</time>
      </trkpt>
      <trkpt lat="49.17766" lon="-0.69736">
        <ele>101.4</ele>
        <time>2023-04-25T13:26:44Z</time>
      </trkpt>
      <trkpt lat="49.17765" lon="-0.69726">
        <ele>101.6</ele>
        <time>2023-04-25T13:26:45Z</time>
      </trkpt>
      <trkpt lat="49.17764" lon="-0.69715">
        <ele>101.6</ele>
        <time>2023-04-25T13:26:46Z</time>
      </trkpt>
      <trkpt lat="49.17764" lon="-0.69705">
        <ele>102</ele>
        <time>2023-04-25T13:26:47Z</time>
      </trkpt>
      <trkpt lat="49.17763" lon="-0.69695">
        <ele>102</ele>
        <time>2023-04-25T13:26:48Z</time>
      </trkpt>
      <trkpt lat="49.17762" lon="-0.69685">
        <ele>102.4</ele>
        <time>2023-04-25T13:26:49Z</time>
      </trkpt>
      <trkpt lat="49.17761" lon="-0.69674">
        <ele>102.6</ele>
        <time>2023-04-25T13:26:50Z</time>
      </trkpt>
      <trkpt lat="49.1776" lon="-0.69664">
        <ele>102.6</ele>
        <time>2023-04-25T13:26:51Z</time>
      </trkpt>
      <trkpt lat="49.17759" lon="-0.69653">
        <ele>102.6</ele>
        <time>2023-04-25T13:26:52Z</time>
      </trkpt>
      <trkpt lat="49.17758" lon="-0.69643">
        <ele>102.6</ele>
        <time>2023-04-25T13:26:53Z</time>
      </trkpt>
      <trkpt lat="49.17758" lon="-0.69632">
        <ele>102.4</ele>
        <time>2023-04-25T13:26:54Z</time>
      </trkpt>
      <trkpt lat="49.17757" lon="-0.69621">
        <ele>102.4</ele>
        <time>2023-04-25T13:26:55Z</time>
      </trkpt>
      <trkpt lat="49.17756" lon="-0.69611">
        <ele>102.2</ele>
        <time>2023-04-25T13:26:56Z</time>
      </trkpt>
      <trkpt lat="49.17755" lon="-0.696">
        <ele>102</ele>
        <time>2023-04-25T13:26:57Z</time>
      </trkpt>
      <trkpt lat="49.17754" lon="-0.69589">
        <ele>102</ele>
        <time>2023-04-25T13:26:58Z</time>
      </trkpt>
      <trkpt lat="49.17753" lon="-0.69578">
        <ele>101.8</ele>
        <time>2023-04-25T13:26:59Z</time>
      </trkpt>
      <trkpt lat="49.17752" lon="-0.69567">
        <ele>101.6</ele>
        <time>2023-04-25T13:27:00Z</time>
      </trkpt>
      <trkpt lat="49.17751" lon="-0.69556">
        <ele>101.4</ele>
        <time>2023-04-25T13:27:01Z</time>
      </trkpt>
      <trkpt lat="49.1775" lon="-0.69545">
        <ele>101</ele>
        <time>2023-04-25T13:27:02Z</time>
      </trkpt>
      <trkpt lat="49.17749" lon="-0.69534">
        <ele>101</ele>
        <time>2023-04-25T13:27:03Z</time>
      </trkpt>
      <trkpt lat="49.17748" lon="-0.69523">
        <ele>100.6</ele>
        <time>2023-04-25T13:27:04Z</time>
      </trkpt>
      <trkpt lat="49.17747" lon="-0.69512">
        <ele>100.6</ele>
        <time>2023-04-25T13:27:05Z</time>
      </trkpt>
      <trkpt lat="49.17746" lon="-0.695">
        <ele>100.4</ele>
        <time>2023-04-25T13:27:06Z</time>
      </trkpt>
      <trkpt lat="49.17745" lon="-0.69489">
        <ele>100</ele>
        <time>2023-04-25T13:27:07Z</time>
      </trkpt>
      <trkpt lat="49.17744" lon="-0.69478">
        <ele>99.8</ele>
        <time>2023-04-25T13:27:08Z</time>
      </trkpt>
      <trkpt lat="49.17743" lon="-0.69466">
        <ele>99.6</ele>
        <time>2023-04-25T13:27:09Z</time>
      </trkpt>
      <trkpt lat="49.17742" lon="-0.69455">
        <ele>99.4</ele>
        <time>2023-04-25T13:27:10Z</time>
      </trkpt>
      <trkpt lat="49.1774" lon="-0.69443">
        <ele>99</ele>
        <time>2023-04-25T13:27:11Z</time>
      </trkpt>
      <trkpt lat="49.17739" lon="-0.69432">
        <ele>98.8</ele>
        <time>2023-04-25T13:27:12Z</time>
      </trkpt>
      <trkpt lat="49.17738" lon="-0.6942">
        <ele>98.6</ele>
        <time>2023-04-25T13:27:13Z</time>
      </trkpt>
      <trkpt lat="49.17737" lon="-0.69409">
        <ele>98.4</ele>
        <time>2023-04-25T13:27:14Z</time>
      </trkpt>
      <trkpt lat="49.17735" lon="-0.69398">
        <ele>98</ele>
        <time>2023-04-25T13:27:15Z</time>
      </trkpt>
      <trkpt lat="49.17734" lon="-0.69387">
        <ele>97.6</ele>
        <time>2023-04-25T13:27:16Z</time>
      </trkpt>
      <trkpt lat="49.17733" lon="-0.69376">
        <ele>97.4</ele>
        <time>2023-04-25T13:27:17Z</time>
      </trkpt>
      <trkpt lat="49.17732" lon="-0.69365">
        <ele>97</ele>
        <time>2023-04-25T13:27:18Z</time>
      </trkpt>
      <trkpt lat="49.17731" lon="-0.69354">
        <ele>96.8</ele>
        <time>2023-04-25T13:27:19Z</time>
      </trkpt>
      <trkpt lat="49.17731" lon="-0.69343">
        <ele>96.6</ele>
        <time>2023-04-25T13:27:20Z</time>
      </trkpt>
      <trkpt lat="49.1773" lon="-0.69332">
        <ele>96.4</ele>
        <time>2023-04-25T13:27:21Z</time>
      </trkpt>
      <trkpt lat="49.17729" lon="-0.69322">
        <ele>96.4</ele>
        <time>2023-04-25T13:27:22Z</time>
      </trkpt>
      <trkpt lat="49.17728" lon="-0.69311">
        <ele>96.4</ele>
        <time>2023-04-25T13:27:23Z</time>
      </trkpt>
      <trkpt lat="49.17727" lon="-0.693">
        <ele>96.6</ele>
        <time>2023-04-25T13:27:24Z</time>
      </trkpt>
      <trkpt lat="49.17725" lon="-0.69288">
        <ele>96.6</ele>
        <time>2023-04-25T13:27:25Z</time>
      </trkpt>
      <trkpt lat="49.17724" lon="-0.69277">
        <ele>96.6</ele>
        <time>2023-04-25T13:27:26Z</time>
      </trkpt>
      <trkpt lat="49.17724" lon="-0.69266">
        <ele>96.6</ele>
        <time>2023-04-25T13:27:27Z</time>
      </trkpt>
      <trkpt lat="49.17722" lon="-0.69255">
        <ele>96.6</ele>
        <time>2023-04-25T13:27:28Z</time>
      </trkpt>
      <trkpt lat="49.17721" lon="-0.69244">
        <ele>96.6</ele>
        <time>2023-04-25T13:27:29Z</time>
      </trkpt>
      <trkpt lat="49.1772" lon="-0.69233">
        <ele>96.6</ele>
        <time>2023-04-25T13:27:30Z</time>
      </trkpt>
      <trkpt lat="49.17719" lon="-0.69221">
        <ele>96.8</ele>
        <time>2023-04-25T13:27:31Z</time>
      </trkpt>
      <trkpt lat="49.17718" lon="-0.6921">
        <ele>96.8</ele>
        <time>2023-04-25T13:27:32Z</time>
      </trkpt>
      <trkpt lat="49.17717" lon="-0.69199">
        <ele>96.8</ele>
        <time>2023-04-25T13:27:33Z</time>
      </trkpt>
      <trkpt lat="49.17716" lon="-0.69188">
        <ele>97</ele>
        <time>2023-04-25T13:27:34Z</time>
      </trkpt>
      <trkpt lat="49.17715" lon="-0.69177">
        <ele>97</ele>
        <time>2023-04-25T13:27:35Z</time>
      </trkpt>
      <trkpt lat="49.17714" lon="-0.69166">
        <ele>97</ele>
        <time>2023-04-25T13:27:36Z</time>
      </trkpt>
      <trkpt lat="49.17713" lon="-0.69155">
        <ele>96.8</ele>
        <time>2023-04-25T13:27:37Z</time>
      </trkpt>
      <trkpt lat="49.17712" lon="-0.69144">
        <ele>96.6</ele>
        <time>2023-04-25T13:27:38Z</time>
      </trkpt>
      <trkpt lat="49.17711" lon="-0.69132">
        <ele>96.4</ele>
        <time>2023-04-25T13:27:39Z</time>
      </trkpt>
      <trkpt lat="49.1771" lon="-0.69121">
        <ele>96.2</ele>
        <time>2023-04-25T13:27:40Z</time>
      </trkpt>
      <trkpt lat="49.17709" lon="-0.6911">
        <ele>96</ele>
        <time>2023-04-25T13:27:41Z</time>
      </trkpt>
      <trkpt lat="49.17708" lon="-0.69099">
        <ele>95.8</ele>
        <time>2023-04-25T13:27:42Z</time>
      </trkpt>
      <trkpt lat="49.17707" lon="-0.69088">
        <ele>95.6</ele>
        <time>2023-04-25T13:27:43Z</time>
      </trkpt>
      <trkpt lat="49.17706" lon="-0.69077">
        <ele>95.4</ele>
        <time>2023-04-25T13:27:44Z</time>
      </trkpt>
      <trkpt lat="49.17705" lon="-0.69066">
        <ele>95.4</ele>
        <time>2023-04-25T13:27:45Z</time>
      </trkpt>
      <trkpt lat="49.17704" lon="-0.69056">
        <ele>95</ele>
        <time>2023-04-25T13:27:46Z</time>
      </trkpt>
      <trkpt lat="49.17703" lon="-0.69045">
        <ele>95</ele>
        <time>2023-04-25T13:27:47Z</time>
      </trkpt>
      <trkpt lat="49.17702" lon="-0.69034">
        <ele>94.8</ele>
        <time>2023-04-25T13:27:48Z</time>
      </trkpt>
      <trkpt lat="49.17701" lon="-0.69023">
        <ele>94.6</ele>
        <time>2023-04-25T13:27:49Z</time>
      </trkpt>
      <trkpt lat="49.177" lon="-0.69012">
        <ele>94.6</ele>
        <time>2023-04-25T13:27:50Z</time>
      </trkpt>
      <trkpt lat="49.17699" lon="-0.69002">
        <ele>94.4</ele>
        <time>2023-04-25T13:27:51Z</time>
      </trkpt>
      <trkpt lat="49.17698" lon="-0.68991">
        <ele>94.4</ele>
        <time>2023-04-25T13:27:52Z</time>
      </trkpt>
      <trkpt lat="49.17697" lon="-0.6898">
        <ele>94.2</ele>
        <time>2023-04-25T13:27:53Z</time>
      </trkpt>
      <trkpt lat="49.17696" lon="-0.6897">
        <ele>94</ele>
        <time>2023-04-25T13:27:54Z</time>
      </trkpt>
      <trkpt lat="49.17695" lon="-0.6896">
        <ele>94</ele>
        <time>2023-04-25T13:27:55Z</time>
      </trkpt>
      <trkpt lat="49.17694" lon="-0.68949">
        <ele>94</ele>
        <time>2023-04-25T13:27:56Z</time>
      </trkpt>
      <trkpt lat="49.17693" lon="-0.68939">
        <ele>93.8</ele>
        <time>2023-04-25T13:27:57Z</time>
      </trkpt>
      <trkpt lat="49.17692" lon="-0.68929">
        <ele>93.6</ele>
        <time>2023-04-25T13:27:58Z</time>
      </trkpt>
      <trkpt lat="49.17691" lon="-0.68918">
        <ele>93.6</ele>
        <time>2023-04-25T13:27:59Z</time>
      </trkpt>
      <trkpt lat="49.1769" lon="-0.68908">
        <ele>93.6</ele>
        <time>2023-04-25T13:28:00Z</time>
      </trkpt>
      <trkpt lat="49.17689" lon="-0.68898">
        <ele>93.4</ele>
        <time>2023-04-25T13:28:01Z</time>
      </trkpt>
      <trkpt lat="49.17688" lon="-0.68889">
        <ele>93.4</ele>
        <time>2023-04-25T13:28:02Z</time>
      </trkpt>
      <trkpt lat="49.17688" lon="-0.68879">
        <ele>93.2</ele>
        <time>2023-04-25T13:28:03Z</time>
      </trkpt>
      <trkpt lat="49.17687" lon="-0.68869">
        <ele>93</ele>
        <time>2023-04-25T13:28:04Z</time>
      </trkpt>
      <trkpt lat="49.17686" lon="-0.6886">
        <ele>93</ele>
        <time>2023-04-25T13:28:05Z</time>
      </trkpt>
      <trkpt lat="49.17685" lon="-0.6885">
        <ele>93</ele>
        <time>2023-04-25T13:28:06Z</time>
      </trkpt>
      <trkpt lat="49.17684" lon="-0.68841">
        <ele>92.8</ele>
        <time>2023-04-25T13:28:07Z</time>
      </trkpt>
      <trkpt lat="49.17683" lon="-0.68832">
        <ele>92.8</ele>
        <time>2023-04-25T13:28:08Z</time>
      </trkpt>
      <trkpt lat="49.17682" lon="-0.68823">
        <ele>93</ele>
        <time>2023-04-25T13:28:09Z</time>
      </trkpt>
      <trkpt lat="49.17682" lon="-0.68814">
        <ele>93</ele>
        <time>2023-04-25T13:28:10Z</time>
      </trkpt>
      <trkpt lat="49.17681" lon="-0.68805">
        <ele>93</ele>
        <time>2023-04-25T13:28:11Z</time>
      </trkpt>
      <trkpt lat="49.1768" lon="-0.68796">
        <ele>93.2</ele>
        <time>2023-04-25T13:28:12Z</time>
      </trkpt>
      <trkpt lat="49.17679" lon="-0.68786">
        <ele>93.4</ele>
        <time>2023-04-25T13:28:13Z</time>
      </trkpt>
      <trkpt lat="49.17678" lon="-0.68777">
        <ele>93.4</ele>
        <time>2023-04-25T13:28:14Z</time>
      </trkpt>
      <trkpt lat="49.17677" lon="-0.68768">
        <ele>93.6</ele>
        <time>2023-04-25T13:28:15Z</time>
      </trkpt>
      <trkpt lat="49.17677" lon="-0.68759">
        <ele>93.6</ele>
        <time>2023-04-25T13:28:16Z</time>
      </trkpt>
      <trkpt lat="49.17676" lon="-0.6875">
        <ele>93.8</ele>
        <time>2023-04-25T13:28:17Z</time>
      </trkpt>
      <trkpt lat="49.17675" lon="-0.68741">
        <ele>93.6</ele>
        <time>2023-04-25T13:28:18Z</time>
      </trkpt>
      <trkpt lat="49.17674" lon="-0.68733">
        <ele>93.6</ele>
        <time>2023-04-25T13:28:19Z</time>
      </trkpt>
      <trkpt lat="49.17673" lon="-0.68724">
        <ele>93.6</ele>
        <time>2023-04-25T13:28:20Z</time>
      </trkpt>
      <trkpt lat="49.17672" lon="-0.68715">
        <ele>93.4</ele>
        <time>2023-04-25T13:28:21Z</time>
      </trkpt>
      <trkpt lat="49.17672" lon="-0.68706">
        <ele>93.4</ele>
        <time>2023-04-25T13:28:22Z</time>
      </trkpt>
      <trkpt lat="49.17671" lon="-0.68697">
        <ele>93.4</ele>
        <time>2023-04-25T13:28:23Z</time>
      </trkpt>
      <trkpt lat="49.1767" lon="-0.68688">
        <ele>93.2</ele>
        <time>2023-04-25T13:28:24Z</time>
      </trkpt>
      <trkpt lat="49.17669" lon="-0.68679">
        <ele>93</ele>
        <time>2023-04-25T13:28:25Z</time>
      </trkpt>
      <trkpt lat="49.17668" lon="-0.6867">
        <ele>93</ele>
        <time>2023-04-25T13:28:26Z</time>
      </trkpt>
      <trkpt lat="49.17668" lon="-0.68661">
        <ele>93</ele>
        <time>2023-04-25T13:28:27Z</time>
      </trkpt>
      <trkpt lat="49.17667" lon="-0.68652">
        <ele>92.8</ele>
        <time>2023-04-25T13:28:28Z</time>
      </trkpt>
      <trkpt lat="49.17666" lon="-0.68643">
        <ele>92.6</ele>
        <time>2023-04-25T13:28:29Z</time>
      </trkpt>
      <trkpt lat="49.17665" lon="-0.68634">
        <ele>92.6</ele>
        <time>2023-04-25T13:28:30Z</time>
      </trkpt>
      <trkpt lat="49.17664" lon="-0.68625">
        <ele>92.6</ele>
        <time>2023-04-25T13:28:31Z</time>
      </trkpt>
      <trkpt lat="49.17663" lon="-0.68616">
        <ele>92.6</ele>
        <time>2023-04-25T13:28:32Z</time>
      </trkpt>
      <trkpt lat="49.17662" lon="-0.68607">
        <ele>92.4</ele>
        <time>2023-04-25T13:28:33Z</time>
      </trkpt>
      <trkpt lat="49.17662" lon="-0.68598">
        <ele>92.4</ele>
        <time>2023-04-25T13:28:34Z</time>
      </trkpt>
      <trkpt lat="49.17661" lon="-0.68589">
        <ele>92.4</ele>
        <time>2023-04-25T13:28:35Z</time>
      </trkpt>
      <trkpt lat="49.1766" lon="-0.6858">
        <ele>92.4</ele>
        <time>2023-04-25T13:28:36Z</time>
      </trkpt>
      <trkpt lat="49.17659" lon="-0.68571">
        <ele>92.4</ele>
        <time>2023-04-25T13:28:37Z</time>
      </trkpt>
      <trkpt lat="49.17659" lon="-0.68562">
        <ele>92.6</ele>
        <time>2023-04-25T13:28:38Z</time>
      </trkpt>
      <trkpt lat="49.17658" lon="-0.68554">
        <ele>92.6</ele>
        <time>2023-04-25T13:28:39Z</time>
      </trkpt>
      <trkpt lat="49.17657" lon="-0.68545">
        <ele>92.8</ele>
        <time>2023-04-25T13:28:40Z</time>
      </trkpt>
      <trkpt lat="49.17656" lon="-0.68536">
        <ele>93</ele>
        <time>2023-04-25T13:28:41Z</time>
      </trkpt>
      <trkpt lat="49.17655" lon="-0.68528">
        <ele>93</ele>
        <time>2023-04-25T13:28:42Z</time>
      </trkpt>
      <trkpt lat="49.17655" lon="-0.68519">
        <ele>93</ele>
        <time>2023-04-25T13:28:43Z</time>
      </trkpt>
      <trkpt lat="49.17654" lon="-0.68511">
        <ele>93.2</ele>
        <time>2023-04-25T13:28:44Z</time>
      </trkpt>
      <trkpt lat="49.17653" lon="-0.68503">
        <ele>93.4</ele>
        <time>2023-04-25T13:28:45Z</time>
      </trkpt>
      <trkpt lat="49.17652" lon="-0.68494">
        <ele>93.4</ele>
        <time>2023-04-25T13:28:46Z</time>
      </trkpt>
      <trkpt lat="49.17651" lon="-0.68486">
        <ele>93.4</ele>
        <time>2023-04-25T13:28:47Z</time>
      </trkpt>
      <trkpt lat="49.17651" lon="-0.68477">
        <ele>93.6</ele>
        <time>2023-04-25T13:28:48Z</time>
      </trkpt>
      <trkpt lat="49.1765" lon="-0.68469">
        <ele>93.6</ele>
        <time>2023-04-25T13:28:49Z</time>
      </trkpt>
      <trkpt lat="49.17649" lon="-0.6846">
        <ele>93.6</ele>
        <time>2023-04-25T13:28:50Z</time>
      </trkpt>
      <trkpt lat="49.17648" lon="-0.68451">
        <ele>93.6</ele>
        <time>2023-04-25T13:28:51Z</time>
      </trkpt>
      <trkpt lat="49.17647" lon="-0.68443">
        <ele>93.6</ele>
        <time>2023-04-25T13:28:52Z</time>
      </trkpt>
      <trkpt lat="49.17647" lon="-0.68434">
        <ele>93.6</ele>
        <time>2023-04-25T13:28:53Z</time>
      </trkpt>
      <trkpt lat="49.17646" lon="-0.68425">
        <ele>93.6</ele>
        <time>2023-04-25T13:28:54Z</time>
      </trkpt>
      <trkpt lat="49.17645" lon="-0.68416">
        <ele>93.6</ele>
        <time>2023-04-25T13:28:55Z</time>
      </trkpt>
      <trkpt lat="49.17644" lon="-0.68407">
        <ele>93.6</ele>
        <time>2023-04-25T13:28:56Z</time>
      </trkpt>
      <trkpt lat="49.17643" lon="-0.68398">
        <ele>93.6</ele>
        <time>2023-04-25T13:28:57Z</time>
      </trkpt>
      <trkpt lat="49.17642" lon="-0.68388">
        <ele>93.6</ele>
        <time>2023-04-25T13:28:58Z</time>
      </trkpt>
      <trkpt lat="49.17642" lon="-0.68379">
        <ele>93.4</ele>
        <time>2023-04-25T13:28:59Z</time>
      </trkpt>
      <trkpt lat="49.17641" lon="-0.68369">
        <ele>93.4</ele>
        <time>2023-04-25T13:29:00Z</time>
      </trkpt>
      <trkpt lat="49.1764" lon="-0.6836">
        <ele>93.2</ele>
        <time>2023-04-25T13:29:01Z</time>
      </trkpt>
      <trkpt lat="49.17639" lon="-0.6835">
        <ele>93</ele>
        <time>2023-04-25T13:29:02Z</time>
      </trkpt>
      <trkpt lat="49.17638" lon="-0.6834">
        <ele>93</ele>
        <time>2023-04-25T13:29:03Z</time>
      </trkpt>
      <trkpt lat="49.17637" lon="-0.68331">
        <ele>93</ele>
        <time>2023-04-25T13:29:04Z</time>
      </trkpt>
      <trkpt lat="49.17636" lon="-0.68321">
        <ele>93</ele>
        <time>2023-04-25T13:29:05Z</time>
      </trkpt>
      <trkpt lat="49.17635" lon="-0.68311">
        <ele>93</ele>
        <time>2023-04-25T13:29:06Z</time>
      </trkpt>
      <trkpt lat="49.17634" lon="-0.683">
        <ele>93.2</ele>
        <time>2023-04-25T13:29:07Z</time>
      </trkpt>
      <trkpt lat="49.17633" lon="-0.6829">
        <ele>93.2</ele>
        <time>2023-04-25T13:29:08Z</time>
      </trkpt>
      <trkpt lat="49.17632" lon="-0.6828">
        <ele>93.4</ele>
        <time>2023-04-25T13:29:09Z</time>
      </trkpt>
      <trkpt lat="49.17631" lon="-0.68269">
        <ele>93.4</ele>
        <time>2023-04-25T13:29:10Z</time>
      </trkpt>
      <trkpt lat="49.1763" lon="-0.68259">
        <ele>93.4</ele>
        <time>2023-04-25T13:29:11Z</time>
      </trkpt>
      <trkpt lat="49.17629" lon="-0.68248">
        <ele>93.4</ele>
        <time>2023-04-25T13:29:12Z</time>
      </trkpt>
      <trkpt lat="49.17628" lon="-0.68237">
        <ele>93.4</ele>
        <time>2023-04-25T13:29:13Z</time>
      </trkpt>
      <trkpt lat="49.17627" lon="-0.68226">
        <ele>93.4</ele>
        <time>2023-04-25T13:29:14Z</time>
      </trkpt>
      <trkpt lat="49.17626" lon="-0.68215">
        <ele>93.4</ele>
        <time>2023-04-25T13:29:15Z</time>
      </trkpt>
      <trkpt lat="49.17625" lon="-0.68204">
        <ele>93.2</ele>
        <time>2023-04-25T13:29:16Z</time>
      </trkpt>
      <trkpt lat="49.17624" lon="-0.68193">
        <ele>93.2</ele>
        <time>2023-04-25T13:29:17Z</time>
      </trkpt>
      <trkpt lat="49.17623" lon="-0.68183">
        <ele>93</ele>
        <time>2023-04-25T13:29:18Z</time>
      </trkpt>
      <trkpt lat="49.17622" lon="-0.68172">
        <ele>93</ele>
        <time>2023-04-25T13:29:19Z</time>
      </trkpt>
      <trkpt lat="49.17621" lon="-0.68161">
        <ele>93</ele>
        <time>2023-04-25T13:29:20Z</time>
      </trkpt>
      <trkpt lat="49.1762" lon="-0.6815">
        <ele>93</ele>
        <time>2023-04-25T13:29:21Z</time>
      </trkpt>
      <trkpt lat="49.17619" lon="-0.68139">
        <ele>92.8</ele>
        <time>2023-04-25T13:29:22Z</time>
      </trkpt>
      <trkpt lat="49.17618" lon="-0.68129">
        <ele>92.6</ele>
        <time>2023-04-25T13:29:23Z</time>
      </trkpt>
      <trkpt lat="49.17617" lon="-0.68118">
        <ele>92.6</ele>
        <time>2023-04-25T13:29:24Z</time>
      </trkpt>
      <trkpt lat="49.17616" lon="-0.68107">
        <ele>92.6</ele>
        <time>2023-04-25T13:29:25Z</time>
      </trkpt>
      <trkpt lat="49.17615" lon="-0.68097">
        <ele>92.4</ele>
        <time>2023-04-25T13:29:26Z</time>
      </trkpt>
      <trkpt lat="49.17615" lon="-0.68086">
        <ele>92.4</ele>
        <time>2023-04-25T13:29:27Z</time>
      </trkpt>
      <trkpt lat="49.17613" lon="-0.68075">
        <ele>92</ele>
        <time>2023-04-25T13:29:28Z</time>
      </trkpt>
      <trkpt lat="49.17613" lon="-0.68065">
        <ele>91.6</ele>
        <time>2023-04-25T13:29:29Z</time>
      </trkpt>
      <trkpt lat="49.17612" lon="-0.68054">
        <ele>91.4</ele>
        <time>2023-04-25T13:29:30Z</time>
      </trkpt>
      <trkpt lat="49.1761" lon="-0.68043">
        <ele>91</ele>
        <time>2023-04-25T13:29:31Z</time>
      </trkpt>
      <trkpt lat="49.17609" lon="-0.68032">
        <ele>90.6</ele>
        <time>2023-04-25T13:29:32Z</time>
      </trkpt>
      <trkpt lat="49.17608" lon="-0.68021">
        <ele>90.4</ele>
        <time>2023-04-25T13:29:33Z</time>
      </trkpt>
      <trkpt lat="49.17607" lon="-0.6801">
        <ele>90</ele>
        <time>2023-04-25T13:29:34Z</time>
      </trkpt>
      <trkpt lat="49.17606" lon="-0.67999">
        <ele>89.6</ele>
        <time>2023-04-25T13:29:35Z</time>
      </trkpt>
      <trkpt lat="49.17605" lon="-0.67988">
        <ele>89.6</ele>
        <time>2023-04-25T13:29:36Z</time>
      </trkpt>
      <trkpt lat="49.17604" lon="-0.67977">
        <ele>89.4</ele>
        <time>2023-04-25T13:29:37Z</time>
      </trkpt>
      <trkpt lat="49.17603" lon="-0.67966">
        <ele>89</ele>
        <time>2023-04-25T13:29:38Z</time>
      </trkpt>
      <trkpt lat="49.17602" lon="-0.67955">
        <ele>88.8</ele>
        <time>2023-04-25T13:29:39Z</time>
      </trkpt>
      <trkpt lat="49.17601" lon="-0.67944">
        <ele>88.6</ele>
        <time>2023-04-25T13:29:40Z</time>
      </trkpt>
      <trkpt lat="49.176" lon="-0.67933">
        <ele>88.4</ele>
        <time>2023-04-25T13:29:41Z</time>
      </trkpt>
      <trkpt lat="49.17599" lon="-0.67922">
        <ele>88</ele>
        <time>2023-04-25T13:29:42Z</time>
      </trkpt>
      <trkpt lat="49.17598" lon="-0.67911">
        <ele>88</ele>
        <time>2023-04-25T13:29:43Z</time>
      </trkpt>
      <trkpt lat="49.17597" lon="-0.679">
        <ele>88</ele>
        <time>2023-04-25T13:29:44Z</time>
      </trkpt>
      <trkpt lat="49.17596" lon="-0.67889">
        <ele>88</ele>
        <time>2023-04-25T13:29:45Z</time>
      </trkpt>
      <trkpt lat="49.17595" lon="-0.67878">
        <ele>88</ele>
        <time>2023-04-25T13:29:46Z</time>
      </trkpt>
      <trkpt lat="49.17594" lon="-0.67867">
        <ele>88</ele>
        <time>2023-04-25T13:29:47Z</time>
      </trkpt>
      <trkpt lat="49.17593" lon="-0.67856">
        <ele>88</ele>
        <time>2023-04-25T13:29:48Z</time>
      </trkpt>
      <trkpt lat="49.17592" lon="-0.67845">
        <ele>88</ele>
        <time>2023-04-25T13:29:49Z</time>
      </trkpt>
      <trkpt lat="49.17591" lon="-0.67834">
        <ele>88</ele>
        <time>2023-04-25T13:29:50Z</time>
      </trkpt>
      <trkpt lat="49.1759" lon="-0.67822">
        <ele>88</ele>
        <time>2023-04-25T13:29:51Z</time>
      </trkpt>
      <trkpt lat="49.17589" lon="-0.67811">
        <ele>88</ele>
        <time>2023-04-25T13:29:52Z</time>
      </trkpt>
      <trkpt lat="49.17588" lon="-0.678">
        <ele>88</ele>
        <time>2023-04-25T13:29:53Z</time>
      </trkpt>
      <trkpt lat="49.17587" lon="-0.67789">
        <ele>88</ele>
        <time>2023-04-25T13:29:54Z</time>
      </trkpt>
      <trkpt lat="49.17586" lon="-0.67778">
        <ele>88</ele>
        <time>2023-04-25T13:29:55Z</time>
      </trkpt>
      <trkpt lat="49.17585" lon="-0.67766">
        <ele>88</ele>
        <time>2023-04-25T13:29:56Z</time>
      </trkpt>
      <trkpt lat="49.17584" lon="-0.67755">
        <ele>88</ele>
        <time>2023-04-25T13:29:57Z</time>
      </trkpt>
      <trkpt lat="49.17583" lon="-0.67744">
        <ele>87.8</ele>
        <time>2023-04-25T13:29:58Z</time>
      </trkpt>
      <trkpt lat="49.17582" lon="-0.67732">
        <ele>87.6</ele>
        <time>2023-04-25T13:29:59Z</time>
      </trkpt>
      <trkpt lat="49.17581" lon="-0.67721">
        <ele>87.4</ele>
        <time>2023-04-25T13:30:00Z</time>
      </trkpt>
      <trkpt lat="49.1758" lon="-0.67709">
        <ele>87</ele>
        <time>2023-04-25T13:30:01Z</time>
      </trkpt>
      <trkpt lat="49.17579" lon="-0.67698">
        <ele>86.6</ele>
        <time>2023-04-25T13:30:02Z</time>
      </trkpt>
      <trkpt lat="49.17578" lon="-0.67686">
        <ele>86.4</ele>
        <time>2023-04-25T13:30:03Z</time>
      </trkpt>
      <trkpt lat="49.17577" lon="-0.67674">
        <ele>86</ele>
        <time>2023-04-25T13:30:04Z</time>
      </trkpt>
      <trkpt lat="49.17576" lon="-0.67662">
        <ele>85.8</ele>
        <time>2023-04-25T13:30:05Z</time>
      </trkpt>
      <trkpt lat="49.17575" lon="-0.6765">
        <ele>85.6</ele>
        <time>2023-04-25T13:30:06Z</time>
      </trkpt>
      <trkpt lat="49.17573" lon="-0.67638">
        <ele>85.2</ele>
        <time>2023-04-25T13:30:07Z</time>
      </trkpt>
      <trkpt lat="49.17572" lon="-0.67625">
        <ele>85</ele>
        <time>2023-04-25T13:30:08Z</time>
      </trkpt>
      <trkpt lat="49.17571" lon="-0.67613">
        <ele>84.6</ele>
        <time>2023-04-25T13:30:09Z</time>
      </trkpt>
      <trkpt lat="49.1757" lon="-0.676">
        <ele>84.4</ele>
        <time>2023-04-25T13:30:10Z</time>
      </trkpt>
      <trkpt lat="49.17569" lon="-0.67587">
        <ele>84</ele>
        <time>2023-04-25T13:30:11Z</time>
      </trkpt>
      <trkpt lat="49.17567" lon="-0.67573">
        <ele>84</ele>
        <time>2023-04-25T13:30:12Z</time>
      </trkpt>
      <trkpt lat="49.17566" lon="-0.6756">
        <ele>83.8</ele>
        <time>2023-04-25T13:30:13Z</time>
      </trkpt>
      <trkpt lat="49.17564" lon="-0.67546">
        <ele>83.6</ele>
        <time>2023-04-25T13:30:14Z</time>
      </trkpt>
      <trkpt lat="49.17563" lon="-0.67532">
        <ele>83.6</ele>
        <time>2023-04-25T13:30:15Z</time>
      </trkpt>
      <trkpt lat="49.1756" lon="-0.67518">
        <ele>83.4</ele>
        <time>2023-04-25T13:30:16Z</time>
      </trkpt>
      <trkpt lat="49.17558" lon="-0.67504">
        <ele>83.4</ele>
        <time>2023-04-25T13:30:17Z</time>
      </trkpt>
      <trkpt lat="49.17555" lon="-0.6749">
        <ele>83.4</ele>
        <time>2023-04-25T13:30:18Z</time>
      </trkpt>
      <trkpt lat="49.17553" lon="-0.67477">
        <ele>83.2</ele>
        <time>2023-04-25T13:30:19Z</time>
      </trkpt>
      <trkpt lat="49.1755" lon="-0.67464">
        <ele>83.2</ele>
        <time>2023-04-25T13:30:20Z</time>
      </trkpt>
      <trkpt lat="49.17547" lon="-0.67451">
        <ele>83.4</ele>
        <time>2023-04-25T13:30:21Z</time>
      </trkpt>
      <trkpt lat="49.17545" lon="-0.67438">
        <ele>83.4</ele>
        <time>2023-04-25T13:30:22Z</time>
      </trkpt>
      <trkpt lat="49.17542" lon="-0.67427">
        <ele>83.6</ele>
        <time>2023-04-25T13:30:23Z</time>
      </trkpt>
      <trkpt lat="49.1754" lon="-0.67416">
        <ele>83.6</ele>
        <time>2023-04-25T13:30:24Z</time>
      </trkpt>
      <trkpt lat="49.17538" lon="-0.67405">
        <ele>83.8</ele>
        <time>2023-04-25T13:30:25Z</time>
      </trkpt>
      <trkpt lat="49.17536" lon="-0.67395">
        <ele>84</ele>
        <time>2023-04-25T13:30:26Z</time>
      </trkpt>
      <trkpt lat="49.17534" lon="-0.67385">
        <ele>84.2</ele>
        <time>2023-04-25T13:30:27Z</time>
      </trkpt>
      <trkpt lat="49.17532" lon="-0.67376">
        <ele>84.4</ele>
        <time>2023-04-25T13:30:28Z</time>
      </trkpt>
      <trkpt lat="49.1753" lon="-0.67367">
        <ele>84.6</ele>
        <time>2023-04-25T13:30:29Z</time>
      </trkpt>
      <trkpt lat="49.17529" lon="-0.67358">
        <ele>84.6</ele>
        <time>2023-04-25T13:30:30Z</time>
      </trkpt>
      <trkpt lat="49.17527" lon="-0.67349">
        <ele>85</ele>
        <time>2023-04-25T13:30:31Z</time>
      </trkpt>
      <trkpt lat="49.17525" lon="-0.67341">
        <ele>85</ele>
        <time>2023-04-25T13:30:32Z</time>
      </trkpt>
      <trkpt lat="49.17524" lon="-0.67332">
        <ele>85.4</ele>
        <time>2023-04-25T13:30:33Z</time>
      </trkpt>
      <trkpt lat="49.17522" lon="-0.67324">
        <ele>85.6</ele>
        <time>2023-04-25T13:30:34Z</time>
      </trkpt>
      <trkpt lat="49.17521" lon="-0.67316">
        <ele>86</ele>
        <time>2023-04-25T13:30:35Z</time>
      </trkpt>
      <trkpt lat="49.17519" lon="-0.67308">
        <ele>86.4</ele>
        <time>2023-04-25T13:30:36Z</time>
      </trkpt>
      <trkpt lat="49.17518" lon="-0.673">
        <ele>86.6</ele>
        <time>2023-04-25T13:30:37Z</time>
      </trkpt>
      <trkpt lat="49.17516" lon="-0.67293">
        <ele>87</ele>
        <time>2023-04-25T13:30:38Z</time>
      </trkpt>
      <trkpt lat="49.17515" lon="-0.67286">
        <ele>87.4</ele>
        <time>2023-04-25T13:30:39Z</time>
      </trkpt>
      <trkpt lat="49.17514" lon="-0.67279">
        <ele>87.6</ele>
        <time>2023-04-25T13:30:40Z</time>
      </trkpt>
      <trkpt lat="49.17512" lon="-0.67272">
        <ele>87.8</ele>
        <time>2023-04-25T13:30:41Z</time>
      </trkpt>
      <trkpt lat="49.17511" lon="-0.67266">
        <ele>88</ele>
        <time>2023-04-25T13:30:42Z</time>
      </trkpt>
      <trkpt lat="49.1751" lon="-0.67259">
        <ele>88.4</ele>
        <time>2023-04-25T13:30:43Z</time>
      </trkpt>
      <trkpt lat="49.17508" lon="-0.67252">
        <ele>88.6</ele>
        <time>2023-04-25T13:30:44Z</time>
      </trkpt>
      <trkpt lat="49.17507" lon="-0.67246">
        <ele>88.6</ele>
        <time>2023-04-25T13:30:45Z</time>
      </trkpt>
      <trkpt lat="49.17506" lon="-0.6724">
        <ele>88.6</ele>
        <time>2023-04-25T13:30:46Z</time>
      </trkpt>
      <trkpt lat="49.17505" lon="-0.67233">
        <ele>88.8</ele>
        <time>2023-04-25T13:30:47Z</time>
      </trkpt>
      <trkpt lat="49.17504" lon="-0.67227">
        <ele>88.8</ele>
        <time>2023-04-25T13:30:48Z</time>
      </trkpt>
      <trkpt lat="49.17502" lon="-0.6722">
        <ele>89</ele>
        <time>2023-04-25T13:30:49Z</time>
      </trkpt>
      <trkpt lat="49.17501" lon="-0.67214">
        <ele>89</ele>
        <time>2023-04-25T13:30:50Z</time>
      </trkpt>
      <trkpt lat="49.175" lon="-0.67207">
        <ele>89</ele>
        <time>2023-04-25T13:30:51Z</time>
      </trkpt>
      <trkpt lat="49.17499" lon="-0.672">
        <ele>89</ele>
        <time>2023-04-25T13:30:52Z</time>
      </trkpt>
      <trkpt lat="49.17497" lon="-0.67194">
        <ele>89</ele>
        <time>2023-04-25T13:30:53Z</time>
      </trkpt>
      <trkpt lat="49.17496" lon="-0.67187">
        <ele>89</ele>
        <time>2023-04-25T13:30:54Z</time>
      </trkpt>
      <trkpt lat="49.17495" lon="-0.6718">
        <ele>89</ele>
        <time>2023-04-25T13:30:55Z</time>
      </trkpt>
      <trkpt lat="49.17494" lon="-0.67173">
        <ele>89</ele>
        <time>2023-04-25T13:30:56Z</time>
      </trkpt>
      <trkpt lat="49.17492" lon="-0.67166">
        <ele>89.2</ele>
        <time>2023-04-25T13:30:57Z</time>
      </trkpt>
      <trkpt lat="49.17491" lon="-0.67159">
        <ele>89</ele>
        <time>2023-04-25T13:30:58Z</time>
      </trkpt>
      <trkpt lat="49.1749" lon="-0.67152">
        <ele>89</ele>
        <time>2023-04-25T13:30:59Z</time>
      </trkpt>
      <trkpt lat="49.17488" lon="-0.67145">
        <ele>88.8</ele>
        <time>2023-04-25T13:31:00Z</time>
      </trkpt>
      <trkpt lat="49.17487" lon="-0.67138">
        <ele>88.6</ele>
        <time>2023-04-25T13:31:01Z</time>
      </trkpt>
      <trkpt lat="49.17485" lon="-0.67131">
        <ele>88.6</ele>
        <time>2023-04-25T13:31:02Z</time>
      </trkpt>
      <trkpt lat="49.17484" lon="-0.67124">
        <ele>88.6</ele>
        <time>2023-04-25T13:31:03Z</time>
      </trkpt>
      <trkpt lat="49.17483" lon="-0.67117">
        <ele>88.4</ele>
        <time>2023-04-25T13:31:04Z</time>
      </trkpt>
      <trkpt lat="49.17481" lon="-0.6711">
        <ele>88.2</ele>
        <time>2023-04-25T13:31:05Z</time>
      </trkpt>
      <trkpt lat="49.1748" lon="-0.67103">
        <ele>88</ele>
        <time>2023-04-25T13:31:06Z</time>
      </trkpt>
      <trkpt lat="49.17478" lon="-0.67096">
        <ele>88</ele>
        <time>2023-04-25T13:31:07Z</time>
      </trkpt>
      <trkpt lat="49.17477" lon="-0.67089">
        <ele>88</ele>
        <time>2023-04-25T13:31:08Z</time>
      </trkpt>
      <trkpt lat="49.17476" lon="-0.67082">
        <ele>88</ele>
        <time>2023-04-25T13:31:09Z</time>
      </trkpt>
      <trkpt lat="49.17474" lon="-0.67075">
        <ele>87.8</ele>
        <time>2023-04-25T13:31:10Z</time>
      </trkpt>
      <trkpt lat="49.17473" lon="-0.67067">
        <ele>87.8</ele>
        <time>2023-04-25T13:31:11Z</time>
      </trkpt>
      <trkpt lat="49.17471" lon="-0.6706">
        <ele>87.8</ele>
        <time>2023-04-25T13:31:12Z</time>
      </trkpt>
      <trkpt lat="49.1747" lon="-0.67053">
        <ele>87.6</ele>
        <time>2023-04-25T13:31:13Z</time>
      </trkpt>
      <trkpt lat="49.17468" lon="-0.67045">
        <ele>87.6</ele>
        <time>2023-04-25T13:31:14Z</time>
      </trkpt>
      <trkpt lat="49.17467" lon="-0.67038">
        <ele>87.6</ele>
        <time>2023-04-25T13:31:15Z</time>
      </trkpt>
      <trkpt lat="49.17465" lon="-0.6703">
        <ele>87.6</ele>
        <time>2023-04-25T13:31:16Z</time>
      </trkpt>
      <trkpt lat="49.17464" lon="-0.67023">
        <ele>87.6</ele>
        <time>2023-04-25T13:31:17Z</time>
      </trkpt>
      <trkpt lat="49.17462" lon="-0.67015">
        <ele>87.6</ele>
        <time>2023-04-25T13:31:18Z</time>
      </trkpt>
      <trkpt lat="49.1746" lon="-0.67007">
        <ele>87.6</ele>
        <time>2023-04-25T13:31:19Z</time>
      </trkpt>
      <trkpt lat="49.17459" lon="-0.66999">
        <ele>87.6</ele>
        <time>2023-04-25T13:31:20Z</time>
      </trkpt>
      <trkpt lat="49.17457" lon="-0.66991">
        <ele>87.6</ele>
        <time>2023-04-25T13:31:21Z</time>
      </trkpt>
      <trkpt lat="49.17455" lon="-0.66982">
        <ele>87.6</ele>
        <time>2023-04-25T13:31:22Z</time>
      </trkpt>
      <trkpt lat="49.17454" lon="-0.66974">
        <ele>87.6</ele>
        <time>2023-04-25T13:31:23Z</time>
      </trkpt>
      <trkpt lat="49.17452" lon="-0.66965">
        <ele>87.6</ele>
        <time>2023-04-25T13:31:24Z</time>
      </trkpt>
      <trkpt lat="49.1745" lon="-0.66956">
        <ele>87.6</ele>
        <time>2023-04-25T13:31:25Z</time>
      </trkpt>
      <trkpt lat="49.17448" lon="-0.66947">
        <ele>87.6</ele>
        <time>2023-04-25T13:31:26Z</time>
      </trkpt>
      <trkpt lat="49.17446" lon="-0.66937">
        <ele>87.6</ele>
        <time>2023-04-25T13:31:27Z</time>
      </trkpt>
      <trkpt lat="49.17444" lon="-0.66928">
        <ele>87.4</ele>
        <time>2023-04-25T13:31:28Z</time>
      </trkpt>
      <trkpt lat="49.17442" lon="-0.66917">
        <ele>87.4</ele>
        <time>2023-04-25T13:31:29Z</time>
      </trkpt>
      <trkpt lat="49.1744" lon="-0.66907">
        <ele>87</ele>
        <time>2023-04-25T13:31:30Z</time>
      </trkpt>
      <trkpt lat="49.17438" lon="-0.66896">
        <ele>86.4</ele>
        <time>2023-04-25T13:31:31Z</time>
      </trkpt>
      <trkpt lat="49.17435" lon="-0.66885">
        <ele>85.6</ele>
        <time>2023-04-25T13:31:32Z</time>
      </trkpt>
      <trkpt lat="49.17433" lon="-0.66874">
        <ele>85</ele>
        <time>2023-04-25T13:31:33Z</time>
      </trkpt>
      <trkpt lat="49.17431" lon="-0.66862">
        <ele>84.2</ele>
        <time>2023-04-25T13:31:34Z</time>
      </trkpt>
      <trkpt lat="49.17428" lon="-0.6685">
        <ele>83.4</ele>
        <time>2023-04-25T13:31:35Z</time>
      </trkpt>
      <trkpt lat="49.17426" lon="-0.66838">
        <ele>82.6</ele>
        <time>2023-04-25T13:31:36Z</time>
      </trkpt>
      <trkpt lat="49.17424" lon="-0.66826">
        <ele>82</ele>
        <time>2023-04-25T13:31:37Z</time>
      </trkpt>
      <trkpt lat="49.17421" lon="-0.66814">
        <ele>81.4</ele>
        <time>2023-04-25T13:31:38Z</time>
      </trkpt>
      <trkpt lat="49.17419" lon="-0.66802">
        <ele>81</ele>
        <time>2023-04-25T13:31:39Z</time>
      </trkpt>
      <trkpt lat="49.17416" lon="-0.66789">
        <ele>80.4</ele>
        <time>2023-04-25T13:31:40Z</time>
      </trkpt>
      <trkpt lat="49.17414" lon="-0.66777">
        <ele>80</ele>
        <time>2023-04-25T13:31:41Z</time>
      </trkpt>
      <trkpt lat="49.17411" lon="-0.66764">
        <ele>79.6</ele>
        <time>2023-04-25T13:31:42Z</time>
      </trkpt>
      <trkpt lat="49.17409" lon="-0.66752">
        <ele>79.4</ele>
        <time>2023-04-25T13:31:43Z</time>
      </trkpt>
      <trkpt lat="49.17406" lon="-0.66739">
        <ele>80</ele>
        <time>2023-04-25T13:31:44Z</time>
      </trkpt>
      <trkpt lat="49.17404" lon="-0.66727">
        <ele>80.4</ele>
        <time>2023-04-25T13:31:45Z</time>
      </trkpt>
      <trkpt lat="49.17401" lon="-0.66716">
        <ele>81</ele>
        <time>2023-04-25T13:31:46Z</time>
      </trkpt>
      <trkpt lat="49.17399" lon="-0.66704">
        <ele>81.4</ele>
        <time>2023-04-25T13:31:47Z</time>
      </trkpt>
      <trkpt lat="49.17397" lon="-0.66694">
        <ele>81.8</ele>
        <time>2023-04-25T13:31:48Z</time>
      </trkpt>
      <trkpt lat="49.17395" lon="-0.66683">
        <ele>82.2</ele>
        <time>2023-04-25T13:31:49Z</time>
      </trkpt>
      <trkpt lat="49.17393" lon="-0.66674">
        <ele>82.6</ele>
        <time>2023-04-25T13:31:50Z</time>
      </trkpt>
      <trkpt lat="49.17391" lon="-0.66665">
        <ele>83</ele>
        <time>2023-04-25T13:31:51Z</time>
      </trkpt>
      <trkpt lat="49.17389" lon="-0.66656">
        <ele>83.2</ele>
        <time>2023-04-25T13:31:52Z</time>
      </trkpt>
      <trkpt lat="49.17388" lon="-0.66648">
        <ele>83.4</ele>
        <time>2023-04-25T13:31:53Z</time>
      </trkpt>
      <trkpt lat="49.17386" lon="-0.6664">
        <ele>83.6</ele>
        <time>2023-04-25T13:31:54Z</time>
      </trkpt>
      <trkpt lat="49.17385" lon="-0.66634">
        <ele>83.8</ele>
        <time>2023-04-25T13:31:55Z</time>
      </trkpt>
      <trkpt lat="49.17383" lon="-0.66627">
        <ele>84</ele>
        <time>2023-04-25T13:31:56Z</time>
      </trkpt>
      <trkpt lat="49.17382" lon="-0.66621">
        <ele>84.2</ele>
        <time>2023-04-25T13:31:57Z</time>
      </trkpt>
      <trkpt lat="49.17381" lon="-0.66615">
        <ele>84.4</ele>
        <time>2023-04-25T13:31:58Z</time>
      </trkpt>
      <trkpt lat="49.1738" lon="-0.66609">
        <ele>84.6</ele>
        <time>2023-04-25T13:31:59Z</time>
      </trkpt>
      <trkpt lat="49.17379" lon="-0.66603">
        <ele>84.8</ele>
        <time>2023-04-25T13:32:00Z</time>
      </trkpt>
      <trkpt lat="49.17378" lon="-0.66597">
        <ele>85</ele>
        <time>2023-04-25T13:32:01Z</time>
      </trkpt>
      <trkpt lat="49.17377" lon="-0.66592">
        <ele>85.2</ele>
        <time>2023-04-25T13:32:02Z</time>
      </trkpt>
      <trkpt lat="49.17376" lon="-0.66586">
        <ele>85.4</ele>
        <time>2023-04-25T13:32:03Z</time>
      </trkpt>
      <trkpt lat="49.17375" lon="-0.6658">
        <ele>85.6</ele>
        <time>2023-04-25T13:32:04Z</time>
      </trkpt>
      <trkpt lat="49.17374" lon="-0.66575">
        <ele>86</ele>
        <time>2023-04-25T13:32:05Z</time>
      </trkpt>
      <trkpt lat="49.17373" lon="-0.66569">
        <ele>86</ele>
        <time>2023-04-25T13:32:06Z</time>
      </trkpt>
      <trkpt lat="49.17373" lon="-0.66563">
        <ele>86.4</ele>
        <time>2023-04-25T13:32:07Z</time>
      </trkpt>
      <trkpt lat="49.17372" lon="-0.66557">
        <ele>86.6</ele>
        <time>2023-04-25T13:32:08Z</time>
      </trkpt>
      <trkpt lat="49.17371" lon="-0.66551">
        <ele>86.8</ele>
        <time>2023-04-25T13:32:09Z</time>
      </trkpt>
      <trkpt lat="49.17371" lon="-0.66546">
        <ele>87</ele>
        <time>2023-04-25T13:32:10Z</time>
      </trkpt>
      <trkpt lat="49.1737" lon="-0.6654">
        <ele>87.4</ele>
        <time>2023-04-25T13:32:11Z</time>
      </trkpt>
      <trkpt lat="49.1737" lon="-0.66534">
        <ele>87.6</ele>
        <time>2023-04-25T13:32:12Z</time>
      </trkpt>
      <trkpt lat="49.17369" lon="-0.66529">
        <ele>87.6</ele>
        <time>2023-04-25T13:32:13Z</time>
      </trkpt>
      <trkpt lat="49.17369" lon="-0.66524">
        <ele>88</ele>
        <time>2023-04-25T13:32:14Z</time>
      </trkpt>
      <trkpt lat="49.17369" lon="-0.66518">
        <ele>88</ele>
        <time>2023-04-25T13:32:15Z</time>
      </trkpt>
      <trkpt lat="49.17369" lon="-0.66513">
        <ele>88.4</ele>
        <time>2023-04-25T13:32:16Z</time>
      </trkpt>
      <trkpt lat="49.17368" lon="-0.66508">
        <ele>88.6</ele>
        <time>2023-04-25T13:32:17Z</time>
      </trkpt>
      <trkpt lat="49.17368" lon="-0.66503">
        <ele>88.6</ele>
        <time>2023-04-25T13:32:18Z</time>
      </trkpt>
      <trkpt lat="49.17368" lon="-0.66498">
        <ele>88.8</ele>
        <time>2023-04-25T13:32:19Z</time>
      </trkpt>
      <trkpt lat="49.17368" lon="-0.66493">
        <ele>89</ele>
        <time>2023-04-25T13:32:20Z</time>
      </trkpt>
      <trkpt lat="49.17368" lon="-0.66488">
        <ele>89</ele>
        <time>2023-04-25T13:32:21Z</time>
      </trkpt>
      <trkpt lat="49.17368" lon="-0.66483">
        <ele>89</ele>
        <time>2023-04-25T13:32:22Z</time>
      </trkpt>
      <trkpt lat="49.17369" lon="-0.66478">
        <ele>89</ele>
        <time>2023-04-25T13:32:23Z</time>
      </trkpt>
      <trkpt lat="49.17369" lon="-0.66473">
        <ele>89.2</ele>
        <time>2023-04-25T13:32:24Z</time>
      </trkpt>
      <trkpt lat="49.17369" lon="-0.66468">
        <ele>89.4</ele>
        <time>2023-04-25T13:32:25Z</time>
      </trkpt>
      <trkpt lat="49.17369" lon="-0.66463">
        <ele>89.4</ele>
        <time>2023-04-25T13:32:26Z</time>
      </trkpt>
      <trkpt lat="49.1737" lon="-0.66458">
        <ele>89.4</ele>
        <time>2023-04-25T13:32:27Z</time>
      </trkpt>
      <trkpt lat="49.1737" lon="-0.66454">
        <ele>89.6</ele>
        <time>2023-04-25T13:32:28Z</time>
      </trkpt>
      <trkpt lat="49.17371" lon="-0.66449">
        <ele>89.6</ele>
        <time>2023-04-25T13:32:29Z</time>
      </trkpt>
      <trkpt lat="49.17371" lon="-0.66444">
        <ele>89.6</ele>
        <time>2023-04-25T13:32:30Z</time>
      </trkpt>
      <trkpt lat="49.17371" lon="-0.66439">
        <ele>89.6</ele>
        <time>2023-04-25T13:32:31Z</time>
      </trkpt>
      <trkpt lat="49.17372" lon="-0.66435">
        <ele>89.8</ele>
        <time>2023-04-25T13:32:32Z</time>
      </trkpt>
      <trkpt lat="49.17372" lon="-0.6643">
        <ele>89.8</ele>
        <time>2023-04-25T13:32:33Z</time>
      </trkpt>
      <trkpt lat="49.17373" lon="-0.66425">
        <ele>90</ele>
        <time>2023-04-25T13:32:34Z</time>
      </trkpt>
      <trkpt lat="49.17373" lon="-0.6642">
        <ele>90</ele>
        <time>2023-04-25T13:32:35Z</time>
      </trkpt>
      <trkpt lat="49.17373" lon="-0.66415">
        <ele>90</ele>
        <time>2023-04-25T13:32:36Z</time>
      </trkpt>
      <trkpt lat="49.17374" lon="-0.6641">
        <ele>90</ele>
        <time>2023-04-25T13:32:37Z</time>
      </trkpt>
      <trkpt lat="49.17374" lon="-0.66405">
        <ele>90</ele>
        <time>2023-04-25T13:32:38Z</time>
      </trkpt>
      <trkpt lat="49.17375" lon="-0.664">
        <ele>90</ele>
        <time>2023-04-25T13:32:39Z</time>
      </trkpt>
      <trkpt lat="49.17375" lon="-0.66395">
        <ele>90</ele>
        <time>2023-04-25T13:32:40Z</time>
      </trkpt>
      <trkpt lat="49.17376" lon="-0.6639">
        <ele>90</ele>
        <time>2023-04-25T13:32:41Z</time>
      </trkpt>
      <trkpt lat="49.17376" lon="-0.66385">
        <ele>90</ele>
        <time>2023-04-25T13:32:42Z</time>
      </trkpt>
      <trkpt lat="49.17376" lon="-0.66379">
        <ele>90</ele>
        <time>2023-04-25T13:32:43Z</time>
      </trkpt>
      <trkpt lat="49.17377" lon="-0.66374">
        <ele>90</ele>
        <time>2023-04-25T13:32:44Z</time>
      </trkpt>
      <trkpt lat="49.17377" lon="-0.66368">
        <ele>90</ele>
        <time>2023-04-25T13:32:45Z</time>
      </trkpt>
      <trkpt lat="49.17378" lon="-0.66363">
        <ele>90</ele>
        <time>2023-04-25T13:32:46Z</time>
      </trkpt>
      <trkpt lat="49.17379" lon="-0.66357">
        <ele>90</ele>
        <time>2023-04-25T13:32:47Z</time>
      </trkpt>
      <trkpt lat="49.17379" lon="-0.66351">
        <ele>90</ele>
        <time>2023-04-25T13:32:48Z</time>
      </trkpt>
      <trkpt lat="49.1738" lon="-0.66345">
        <ele>90</ele>
        <time>2023-04-25T13:32:49Z</time>
      </trkpt>
      <trkpt lat="49.1738" lon="-0.66339">
        <ele>90</ele>
        <time>2023-04-25T13:32:50Z</time>
      </trkpt>
      <trkpt lat="49.17381" lon="-0.66333">
        <ele>90</ele>
        <time>2023-04-25T13:32:51Z</time>
      </trkpt>
      <trkpt lat="49.17381" lon="-0.66327">
        <ele>90</ele>
        <time>2023-04-25T13:32:52Z</time>
      </trkpt>
      <trkpt lat="49.17382" lon="-0.66321">
        <ele>90</ele>
        <time>2023-04-25T13:32:53Z</time>
      </trkpt>
      <trkpt lat="49.17383" lon="-0.66315">
        <ele>90</ele>
        <time>2023-04-25T13:32:54Z</time>
      </trkpt>
      <trkpt lat="49.17383" lon="-0.66309">
        <ele>90</ele>
        <time>2023-04-25T13:32:55Z</time>
      </trkpt>
      <trkpt lat="49.17384" lon="-0.66302">
        <ele>90</ele>
        <time>2023-04-25T13:32:56Z</time>
      </trkpt>
      <trkpt lat="49.17384" lon="-0.66296">
        <ele>90</ele>
        <time>2023-04-25T13:32:57Z</time>
      </trkpt>
      <trkpt lat="49.17385" lon="-0.66289">
        <ele>90.2</ele>
        <time>2023-04-25T13:32:58Z</time>
      </trkpt>
      <trkpt lat="49.17386" lon="-0.66283">
        <ele>90.2</ele>
        <time>2023-04-25T13:32:59Z</time>
      </trkpt>
      <trkpt lat="49.17386" lon="-0.66276">
        <ele>90.2</ele>
        <time>2023-04-25T13:33:00Z</time>
      </trkpt>
      <trkpt lat="49.17387" lon="-0.66269">
        <ele>90.4</ele>
        <time>2023-04-25T13:33:01Z</time>
      </trkpt>
      <trkpt lat="49.17388" lon="-0.66262">
        <ele>90.4</ele>
        <time>2023-04-25T13:33:02Z</time>
      </trkpt>
      <trkpt lat="49.17389" lon="-0.66255">
        <ele>90.4</ele>
        <time>2023-04-25T13:33:03Z</time>
      </trkpt>
      <trkpt lat="49.17389" lon="-0.66247">
        <ele>90.4</ele>
        <time>2023-04-25T13:33:04Z</time>
      </trkpt>
      <trkpt lat="49.1739" lon="-0.6624">
        <ele>90.4</ele>
        <time>2023-04-25T13:33:05Z</time>
      </trkpt>
      <trkpt lat="49.17391" lon="-0.66232">
        <ele>90.4</ele>
        <time>2023-04-25T13:33:06Z</time>
      </trkpt>
      <trkpt lat="49.17392" lon="-0.66224">
        <ele>90.4</ele>
        <time>2023-04-25T13:33:07Z</time>
      </trkpt>
      <trkpt lat="49.17392" lon="-0.66216">
        <ele>90.6</ele>
        <time>2023-04-25T13:33:08Z</time>
      </trkpt>
      <trkpt lat="49.17393" lon="-0.66208">
        <ele>90.6</ele>
        <time>2023-04-25T13:33:09Z</time>
      </trkpt>
      <trkpt lat="49.17394" lon="-0.662">
        <ele>90.6</ele>
        <time>2023-04-25T13:33:10Z</time>
      </trkpt>
      <trkpt lat="49.17395" lon="-0.66192">
        <ele>90.6</ele>
        <time>2023-04-25T13:33:11Z</time>
      </trkpt>
      <trkpt lat="49.17395" lon="-0.66184">
        <ele>90.6</ele>
        <time>2023-04-25T13:33:12Z</time>
      </trkpt>
      <trkpt lat="49.17396" lon="-0.66176">
        <ele>90.6</ele>
        <time>2023-04-25T13:33:13Z</time>
      </trkpt>
      <trkpt lat="49.17397" lon="-0.66168">
        <ele>90.6</ele>
        <time>2023-04-25T13:33:14Z</time>
      </trkpt>
      <trkpt lat="49.17398" lon="-0.66159">
        <ele>90.6</ele>
        <time>2023-04-25T13:33:15Z</time>
      </trkpt>
      <trkpt lat="49.17399" lon="-0.66151">
        <ele>90.6</ele>
        <time>2023-04-25T13:33:16Z</time>
      </trkpt>
      <trkpt lat="49.17399" lon="-0.66142">
        <ele>90.6</ele>
        <time>2023-04-25T13:33:17Z</time>
      </trkpt>
      <trkpt lat="49.174" lon="-0.66133">
        <ele>90.8</ele>
        <time>2023-04-25T13:33:18Z</time>
      </trkpt>
      <trkpt lat="49.17401" lon="-0.66124">
        <ele>90.8</ele>
        <time>2023-04-25T13:33:19Z</time>
      </trkpt>
      <trkpt lat="49.17402" lon="-0.66116">
        <ele>90.8</ele>
        <time>2023-04-25T13:33:20Z</time>
      </trkpt>
      <trkpt lat="49.17403" lon="-0.66107">
        <ele>91</ele>
        <time>2023-04-25T13:33:21Z</time>
      </trkpt>
      <trkpt lat="49.17403" lon="-0.66098">
        <ele>91</ele>
        <time>2023-04-25T13:33:22Z</time>
      </trkpt>
      <trkpt lat="49.17404" lon="-0.66088">
        <ele>91</ele>
        <time>2023-04-25T13:33:23Z</time>
      </trkpt>
      <trkpt lat="49.17405" lon="-0.66079">
        <ele>91</ele>
        <time>2023-04-25T13:33:24Z</time>
      </trkpt>
      <trkpt lat="49.17406" lon="-0.6607">
        <ele>91</ele>
        <time>2023-04-25T13:33:25Z</time>
      </trkpt>
      <trkpt lat="49.17407" lon="-0.66061">
        <ele>91</ele>
        <time>2023-04-25T13:33:26Z</time>
      </trkpt>
      <trkpt lat="49.17408" lon="-0.66052">
        <ele>91</ele>
        <time>2023-04-25T13:33:27Z</time>
      </trkpt>
      <trkpt lat="49.17409" lon="-0.66042">
        <ele>91</ele>
        <time>2023-04-25T13:33:28Z</time>
      </trkpt>
      <trkpt lat="49.1741" lon="-0.66033">
        <ele>91</ele>
        <time>2023-04-25T13:33:29Z</time>
      </trkpt>
      <trkpt lat="49.1741" lon="-0.66024">
        <ele>91</ele>
        <time>2023-04-25T13:33:30Z</time>
      </trkpt>
      <trkpt lat="49.17411" lon="-0.66015">
        <ele>91</ele>
        <time>2023-04-25T13:33:31Z</time>
      </trkpt>
      <trkpt lat="49.17412" lon="-0.66006">
        <ele>91</ele>
        <time>2023-04-25T13:33:32Z</time>
      </trkpt>
      <trkpt lat="49.17413" lon="-0.65996">
        <ele>91</ele>
        <time>2023-04-25T13:33:33Z</time>
      </trkpt>
      <trkpt lat="49.17414" lon="-0.65987">
        <ele>91</ele>
        <time>2023-04-25T13:33:34Z</time>
      </trkpt>
      <trkpt lat="49.17415" lon="-0.65977">
        <ele>91</ele>
        <time>2023-04-25T13:33:35Z</time>
      </trkpt>
      <trkpt lat="49.17416" lon="-0.65968">
        <ele>91</ele>
        <time>2023-04-25T13:33:36Z</time>
      </trkpt>
      <trkpt lat="49.17417" lon="-0.65958">
        <ele>91</ele>
        <time>2023-04-25T13:33:37Z</time>
      </trkpt>
      <trkpt lat="49.17418" lon="-0.65949">
        <ele>91</ele>
        <time>2023-04-25T13:33:38Z</time>
      </trkpt>
      <trkpt lat="49.17419" lon="-0.65939">
        <ele>91</ele>
        <time>2023-04-25T13:33:39Z</time>
      </trkpt>
      <trkpt lat="49.17419" lon="-0.6593">
        <ele>91</ele>
        <time>2023-04-25T13:33:40Z</time>
      </trkpt>
      <trkpt lat="49.1742" lon="-0.6592">
        <ele>91</ele>
        <time>2023-04-25T13:33:41Z</time>
      </trkpt>
      <trkpt lat="49.17421" lon="-0.65911">
        <ele>91</ele>
        <time>2023-04-25T13:33:42Z</time>
      </trkpt>
      <trkpt lat="49.17422" lon="-0.65901">
        <ele>91.4</ele>
        <time>2023-04-25T13:33:43Z</time>
      </trkpt>
      <trkpt lat="49.17423" lon="-0.65892">
        <ele>91.6</ele>
        <time>2023-04-25T13:33:44Z</time>
      </trkpt>
      <trkpt lat="49.17424" lon="-0.65882">
        <ele>91.8</ele>
        <time>2023-04-25T13:33:45Z</time>
      </trkpt>
      <trkpt lat="49.17425" lon="-0.65873">
        <ele>92</ele>
        <time>2023-04-25T13:33:46Z</time>
      </trkpt>
      <trkpt lat="49.17426" lon="-0.65864">
        <ele>92.4</ele>
        <time>2023-04-25T13:33:47Z</time>
      </trkpt>
      <trkpt lat="49.17427" lon="-0.65854">
        <ele>92.6</ele>
        <time>2023-04-25T13:33:48Z</time>
      </trkpt>
      <trkpt lat="49.17428" lon="-0.65845">
        <ele>92.8</ele>
        <time>2023-04-25T13:33:49Z</time>
      </trkpt>
      <trkpt lat="49.17429" lon="-0.65835">
        <ele>93</ele>
        <time>2023-04-25T13:33:50Z</time>
      </trkpt>
      <trkpt lat="49.1743" lon="-0.65826">
        <ele>93</ele>
        <time>2023-04-25T13:33:51Z</time>
      </trkpt>
      <trkpt lat="49.17431" lon="-0.65816">
        <ele>93</ele>
        <time>2023-04-25T13:33:52Z</time>
      </trkpt>
      <trkpt lat="49.17432" lon="-0.65807">
        <ele>93</ele>
        <time>2023-04-25T13:33:53Z</time>
      </trkpt>
      <trkpt lat="49.17433" lon="-0.65797">
        <ele>92.8</ele>
        <time>2023-04-25T13:33:54Z</time>
      </trkpt>
      <trkpt lat="49.17434" lon="-0.65787">
        <ele>92.8</ele>
        <time>2023-04-25T13:33:55Z</time>
      </trkpt>
      <trkpt lat="49.17435" lon="-0.65777">
        <ele>92.6</ele>
        <time>2023-04-25T13:33:56Z</time>
      </trkpt>
      <trkpt lat="49.17436" lon="-0.65767">
        <ele>92.6</ele>
        <time>2023-04-25T13:33:57Z</time>
      </trkpt>
      <trkpt lat="49.17437" lon="-0.65757">
        <ele>92.6</ele>
        <time>2023-04-25T13:33:58Z</time>
      </trkpt>
      <trkpt lat="49.17438" lon="-0.65747">
        <ele>92.6</ele>
        <time>2023-04-25T13:33:59Z</time>
      </trkpt>
      <trkpt lat="49.17439" lon="-0.65738">
        <ele>92.4</ele>
        <time>2023-04-25T13:34:00Z</time>
      </trkpt>
      <trkpt lat="49.1744" lon="-0.65728">
        <ele>92.4</ele>
        <time>2023-04-25T13:34:01Z</time>
      </trkpt>
      <trkpt lat="49.17441" lon="-0.65718">
        <ele>92.4</ele>
        <time>2023-04-25T13:34:02Z</time>
      </trkpt>
      <trkpt lat="49.17442" lon="-0.65708">
        <ele>92.4</ele>
        <time>2023-04-25T13:34:03Z</time>
      </trkpt>
      <trkpt lat="49.17443" lon="-0.65699">
        <ele>92.4</ele>
        <time>2023-04-25T13:34:04Z</time>
      </trkpt>
      <trkpt lat="49.17444" lon="-0.65689">
        <ele>92.4</ele>
        <time>2023-04-25T13:34:05Z</time>
      </trkpt>
      <trkpt lat="49.17445" lon="-0.6568">
        <ele>92.2</ele>
        <time>2023-04-25T13:34:06Z</time>
      </trkpt>
      <trkpt lat="49.17446" lon="-0.65671">
        <ele>92.2</ele>
        <time>2023-04-25T13:34:07Z</time>
      </trkpt>
      <trkpt lat="49.17447" lon="-0.65662">
        <ele>92</ele>
        <time>2023-04-25T13:34:08Z</time>
      </trkpt>
      <trkpt lat="49.17447" lon="-0.65653">
        <ele>92</ele>
        <time>2023-04-25T13:34:09Z</time>
      </trkpt>
      <trkpt lat="49.17448" lon="-0.65644">
        <ele>91.8</ele>
        <time>2023-04-25T13:34:10Z</time>
      </trkpt>
      <trkpt lat="49.17449" lon="-0.65635">
        <ele>91.6</ele>
        <time>2023-04-25T13:34:11Z</time>
      </trkpt>
      <trkpt lat="49.1745" lon="-0.65627">
        <ele>91.4</ele>
        <time>2023-04-25T13:34:12Z</time>
      </trkpt>
      <trkpt lat="49.17451" lon="-0.65618">
        <ele>91.4</ele>
        <time>2023-04-25T13:34:13Z</time>
      </trkpt>
      <trkpt lat="49.17451" lon="-0.6561">
        <ele>91</ele>
        <time>2023-04-25T13:34:14Z</time>
      </trkpt>
      <trkpt lat="49.17452" lon="-0.65601">
        <ele>91</ele>
        <time>2023-04-25T13:34:15Z</time>
      </trkpt>
      <trkpt lat="49.17453" lon="-0.65593">
        <ele>90.8</ele>
        <time>2023-04-25T13:34:16Z</time>
      </trkpt>
      <trkpt lat="49.17454" lon="-0.65585">
        <ele>90.6</ele>
        <time>2023-04-25T13:34:17Z</time>
      </trkpt>
      <trkpt lat="49.17455" lon="-0.65576">
        <ele>90.6</ele>
        <time>2023-04-25T13:34:18Z</time>
      </trkpt>
      <trkpt lat="49.17456" lon="-0.65568">
        <ele>90.8</ele>
        <time>2023-04-25T13:34:19Z</time>
      </trkpt>
      <trkpt lat="49.17456" lon="-0.65559">
        <ele>91</ele>
        <time>2023-04-25T13:34:20Z</time>
      </trkpt>
      <trkpt lat="49.17457" lon="-0.65551">
        <ele>91</ele>
        <time>2023-04-25T13:34:21Z</time>
      </trkpt>
      <trkpt lat="49.17458" lon="-0.65543">
        <ele>91</ele>
        <time>2023-04-25T13:34:22Z</time>
      </trkpt>
      <trkpt lat="49.17459" lon="-0.65534">
        <ele>91</ele>
        <time>2023-04-25T13:34:23Z</time>
      </trkpt>
      <trkpt lat="49.17459" lon="-0.65526">
        <ele>91</ele>
        <time>2023-04-25T13:34:24Z</time>
      </trkpt>
      <trkpt lat="49.1746" lon="-0.65517">
        <ele>91.2</ele>
        <time>2023-04-25T13:34:25Z</time>
      </trkpt>
      <trkpt lat="49.17461" lon="-0.65509">
        <ele>91.2</ele>
        <time>2023-04-25T13:34:26Z</time>
      </trkpt>
      <trkpt lat="49.17462" lon="-0.65501">
        <ele>91.4</ele>
        <time>2023-04-25T13:34:27Z</time>
      </trkpt>
      <trkpt lat="49.17462" lon="-0.65492">
        <ele>91.6</ele>
        <time>2023-04-25T13:34:28Z</time>
      </trkpt>
      <trkpt lat="49.17463" lon="-0.65484">
        <ele>91.6</ele>
        <time>2023-04-25T13:34:29Z</time>
      </trkpt>
      <trkpt lat="49.17464" lon="-0.65476">
        <ele>91.8</ele>
        <time>2023-04-25T13:34:30Z</time>
      </trkpt>
      <trkpt lat="49.17465" lon="-0.65467">
        <ele>92</ele>
        <time>2023-04-25T13:34:31Z</time>
      </trkpt>
      <trkpt lat="49.17466" lon="-0.65459">
        <ele>92.2</ele>
        <time>2023-04-25T13:34:32Z</time>
      </trkpt>
      <trkpt lat="49.17466" lon="-0.6545">
        <ele>92.4</ele>
        <time>2023-04-25T13:34:33Z</time>
      </trkpt>
      <trkpt lat="49.17467" lon="-0.65442">
        <ele>92.6</ele>
        <time>2023-04-25T13:34:34Z</time>
      </trkpt>
      <trkpt lat="49.17468" lon="-0.65433">
        <ele>92.6</ele>
        <time>2023-04-25T13:34:35Z</time>
      </trkpt>
      <trkpt lat="49.17469" lon="-0.65425">
        <ele>92.8</ele>
        <time>2023-04-25T13:34:36Z</time>
      </trkpt>
      <trkpt lat="49.1747" lon="-0.65416">
        <ele>93</ele>
        <time>2023-04-25T13:34:37Z</time>
      </trkpt>
      <trkpt lat="49.17471" lon="-0.65407">
        <ele>93</ele>
        <time>2023-04-25T13:34:38Z</time>
      </trkpt>
      <trkpt lat="49.17472" lon="-0.65398">
        <ele>93.2</ele>
        <time>2023-04-25T13:34:39Z</time>
      </trkpt>
      <trkpt lat="49.17472" lon="-0.65389">
        <ele>93.4</ele>
        <time>2023-04-25T13:34:40Z</time>
      </trkpt>
      <trkpt lat="49.17473" lon="-0.6538">
        <ele>93.4</ele>
        <time>2023-04-25T13:34:41Z</time>
      </trkpt>
      <trkpt lat="49.17474" lon="-0.65372">
        <ele>93.6</ele>
        <time>2023-04-25T13:34:42Z</time>
      </trkpt>
      <trkpt lat="49.17475" lon="-0.65363">
        <ele>93.6</ele>
        <time>2023-04-25T13:34:43Z</time>
      </trkpt>
      <trkpt lat="49.17476" lon="-0.65354">
        <ele>93.6</ele>
        <time>2023-04-25T13:34:44Z</time>
      </trkpt>
      <trkpt lat="49.17477" lon="-0.65345">
        <ele>93.8</ele>
        <time>2023-04-25T13:34:45Z</time>
      </trkpt>
      <trkpt lat="49.17478" lon="-0.65336">
        <ele>93.8</ele>
        <time>2023-04-25T13:34:46Z</time>
      </trkpt>
      <trkpt lat="49.17479" lon="-0.65327">
        <ele>94</ele>
        <time>2023-04-25T13:34:47Z</time>
      </trkpt>
      <trkpt lat="49.1748" lon="-0.65318">
        <ele>94</ele>
        <time>2023-04-25T13:34:48Z</time>
      </trkpt>
      <trkpt lat="49.17481" lon="-0.65309">
        <ele>94</ele>
        <time>2023-04-25T13:34:49Z</time>
      </trkpt>
      <trkpt lat="49.17482" lon="-0.65301">
        <ele>94</ele>
        <time>2023-04-25T13:34:50Z</time>
      </trkpt>
      <trkpt lat="49.17483" lon="-0.65292">
        <ele>94</ele>
        <time>2023-04-25T13:34:51Z</time>
      </trkpt>
      <trkpt lat="49.17484" lon="-0.65283">
        <ele>94</ele>
        <time>2023-04-25T13:34:52Z</time>
      </trkpt>
      <trkpt lat="49.17485" lon="-0.65274">
        <ele>94.2</ele>
        <time>2023-04-25T13:34:53Z</time>
      </trkpt>
      <trkpt lat="49.17485" lon="-0.65266">
        <ele>94.4</ele>
        <time>2023-04-25T13:34:54Z</time>
      </trkpt>
      <trkpt lat="49.17486" lon="-0.65257">
        <ele>94.4</ele>
        <time>2023-04-25T13:34:55Z</time>
      </trkpt>
      <trkpt lat="49.17487" lon="-0.65249">
        <ele>94.4</ele>
        <time>2023-04-25T13:34:56Z</time>
      </trkpt>
      <trkpt lat="49.17488" lon="-0.6524">
        <ele>94.2</ele>
        <time>2023-04-25T13:34:57Z</time>
      </trkpt>
      <trkpt lat="49.17489" lon="-0.65231">
        <ele>94</ele>
        <time>2023-04-25T13:34:58Z</time>
      </trkpt>
      <trkpt lat="49.1749" lon="-0.65223">
        <ele>94</ele>
        <time>2023-04-25T13:34:59Z</time>
      </trkpt>
      <trkpt lat="49.17491" lon="-0.65214">
        <ele>93.8</ele>
        <time>2023-04-25T13:35:00Z</time>
      </trkpt>
      <trkpt lat="49.17492" lon="-0.65206">
        <ele>93.6</ele>
        <time>2023-04-25T13:35:01Z</time>
      </trkpt>
      <trkpt lat="49.17492" lon="-0.65197">
        <ele>93.6</ele>
        <time>2023-04-25T13:35:02Z</time>
      </trkpt>
      <trkpt lat="49.17493" lon="-0.65189">
        <ele>93.4</ele>
        <time>2023-04-25T13:35:03Z</time>
      </trkpt>
      <trkpt lat="49.17494" lon="-0.6518">
        <ele>93.4</ele>
        <time>2023-04-25T13:35:04Z</time>
      </trkpt>
      <trkpt lat="49.17495" lon="-0.65172">
        <ele>93.4</ele>
        <time>2023-04-25T13:35:05Z</time>
      </trkpt>
      <trkpt lat="49.17496" lon="-0.65163">
        <ele>93.2</ele>
        <time>2023-04-25T13:35:06Z</time>
      </trkpt>
      <trkpt lat="49.17497" lon="-0.65155">
        <ele>93</ele>
        <time>2023-04-25T13:35:07Z</time>
      </trkpt>
      <trkpt lat="49.17498" lon="-0.65146">
        <ele>93</ele>
        <time>2023-04-25T13:35:08Z</time>
      </trkpt>
      <trkpt lat="49.17498" lon="-0.65138">
        <ele>93</ele>
        <time>2023-04-25T13:35:09Z</time>
      </trkpt>
      <trkpt lat="49.17499" lon="-0.65129">
        <ele>93</ele>
        <time>2023-04-25T13:35:10Z</time>
      </trkpt>
      <trkpt lat="49.175" lon="-0.65121">
        <ele>93</ele>
        <time>2023-04-25T13:35:11Z</time>
      </trkpt>
      <trkpt lat="49.17501" lon="-0.65112">
        <ele>93</ele>
        <time>2023-04-25T13:35:12Z</time>
      </trkpt>
      <trkpt lat="49.17501" lon="-0.65104">
        <ele>93</ele>
        <time>2023-04-25T13:35:13Z</time>
      </trkpt>
      <trkpt lat="49.17502" lon="-0.65095">
        <ele>93</ele>
        <time>2023-04-25T13:35:14Z</time>
      </trkpt>
      <trkpt lat="49.17503" lon="-0.65087">
        <ele>93</ele>
        <time>2023-04-25T13:35:15Z</time>
      </trkpt>
      <trkpt lat="49.17504" lon="-0.65078">
        <ele>92.8</ele>
        <time>2023-04-25T13:35:16Z</time>
      </trkpt>
      <trkpt lat="49.17504" lon="-0.6507">
        <ele>92.6</ele>
        <time>2023-04-25T13:35:17Z</time>
      </trkpt>
      <trkpt lat="49.17505" lon="-0.65061">
        <ele>92.4</ele>
        <time>2023-04-25T13:35:18Z</time>
      </trkpt>
      <trkpt lat="49.17505" lon="-0.65052">
        <ele>92</ele>
        <time>2023-04-25T13:35:19Z</time>
      </trkpt>
      <trkpt lat="49.17506" lon="-0.65043">
        <ele>92</ele>
        <time>2023-04-25T13:35:20Z</time>
      </trkpt>
      <trkpt lat="49.17506" lon="-0.65034">
        <ele>91.6</ele>
        <time>2023-04-25T13:35:21Z</time>
      </trkpt>
      <trkpt lat="49.17506" lon="-0.65025">
        <ele>91.6</ele>
        <time>2023-04-25T13:35:22Z</time>
      </trkpt>
      <trkpt lat="49.17506" lon="-0.65016">
        <ele>91.4</ele>
        <time>2023-04-25T13:35:23Z</time>
      </trkpt>
      <trkpt lat="49.17506" lon="-0.65007">
        <ele>91</ele>
        <time>2023-04-25T13:35:24Z</time>
      </trkpt>
      <trkpt lat="49.17506" lon="-0.64997">
        <ele>91</ele>
        <time>2023-04-25T13:35:25Z</time>
      </trkpt>
      <trkpt lat="49.17505" lon="-0.64988">
        <ele>90.6</ele>
        <time>2023-04-25T13:35:26Z</time>
      </trkpt>
      <trkpt lat="49.17504" lon="-0.64978">
        <ele>90.4</ele>
        <time>2023-04-25T13:35:27Z</time>
      </trkpt>
      <trkpt lat="49.17503" lon="-0.64968">
        <ele>90.2</ele>
        <time>2023-04-25T13:35:28Z</time>
      </trkpt>
      <trkpt lat="49.17502" lon="-0.64958">
        <ele>90</ele>
        <time>2023-04-25T13:35:29Z</time>
      </trkpt>
      <trkpt lat="49.17501" lon="-0.64947">
        <ele>89.6</ele>
        <time>2023-04-25T13:35:30Z</time>
      </trkpt>
      <trkpt lat="49.17499" lon="-0.64937">
        <ele>89.6</ele>
        <time>2023-04-25T13:35:31Z</time>
      </trkpt>
      <trkpt lat="49.17497" lon="-0.64926">
        <ele>89.2</ele>
        <time>2023-04-25T13:35:32Z</time>
      </trkpt>
      <trkpt lat="49.17495" lon="-0.64915">
        <ele>89</ele>
        <time>2023-04-25T13:35:33Z</time>
      </trkpt>
      <trkpt lat="49.17494" lon="-0.64904">
        <ele>88.8</ele>
        <time>2023-04-25T13:35:34Z</time>
      </trkpt>
      <trkpt lat="49.17491" lon="-0.64893">
        <ele>88.6</ele>
        <time>2023-04-25T13:35:35Z</time>
      </trkpt>
      <trkpt lat="49.17489" lon="-0.64881">
        <ele>88.6</ele>
        <time>2023-04-25T13:35:36Z</time>
      </trkpt>
      <trkpt lat="49.17487" lon="-0.6487">
        <ele>88.4</ele>
        <time>2023-04-25T13:35:37Z</time>
      </trkpt>
      <trkpt lat="49.17485" lon="-0.64857">
        <ele>88.2</ele>
        <time>2023-04-25T13:35:38Z</time>
      </trkpt>
      <trkpt lat="49.17483" lon="-0.64845">
        <ele>88</ele>
        <time>2023-04-25T13:35:39Z</time>
      </trkpt>
      <trkpt lat="49.1748" lon="-0.64832">
        <ele>87.6</ele>
        <time>2023-04-25T13:35:40Z</time>
      </trkpt>
      <trkpt lat="49.17478" lon="-0.64819">
        <ele>87.4</ele>
        <time>2023-04-25T13:35:41Z</time>
      </trkpt>
      <trkpt lat="49.17476" lon="-0.64805">
        <ele>87</ele>
        <time>2023-04-25T13:35:42Z</time>
      </trkpt>
      <trkpt lat="49.17474" lon="-0.64791">
        <ele>86.6</ele>
        <time>2023-04-25T13:35:43Z</time>
      </trkpt>
      <trkpt lat="49.17472" lon="-0.64776">
        <ele>86</ele>
        <time>2023-04-25T13:35:44Z</time>
      </trkpt>
      <trkpt lat="49.1747" lon="-0.64762">
        <ele>85.6</ele>
        <time>2023-04-25T13:35:45Z</time>
      </trkpt>
      <trkpt lat="49.17468" lon="-0.64747">
        <ele>85.2</ele>
        <time>2023-04-25T13:35:46Z</time>
      </trkpt>
      <trkpt lat="49.17466" lon="-0.64731">
        <ele>84.2</ele>
        <time>2023-04-25T13:35:47Z</time>
      </trkpt>
      <trkpt lat="49.17463" lon="-0.64715">
        <ele>83.2</ele>
        <time>2023-04-25T13:35:48Z</time>
      </trkpt>
      <trkpt lat="49.1746" lon="-0.64699">
        <ele>82.2</ele>
        <time>2023-04-25T13:35:49Z</time>
      </trkpt>
      <trkpt lat="49.17458" lon="-0.64682">
        <ele>81</ele>
        <time>2023-04-25T13:35:50Z</time>
      </trkpt>
      <trkpt lat="49.17455" lon="-0.64665">
        <ele>79.8</ele>
        <time>2023-04-25T13:35:51Z</time>
      </trkpt>
      <trkpt lat="49.17452" lon="-0.64648">
        <ele>78.8</ele>
        <time>2023-04-25T13:35:52Z</time>
      </trkpt>
      <trkpt lat="49.17448" lon="-0.64631">
        <ele>77.6</ele>
        <time>2023-04-25T13:35:53Z</time>
      </trkpt>
      <trkpt lat="49.17445" lon="-0.64614">
        <ele>76.6</ele>
        <time>2023-04-25T13:35:54Z</time>
      </trkpt>
      <trkpt lat="49.17442" lon="-0.64596">
        <ele>75.6</ele>
        <time>2023-04-25T13:35:55Z</time>
      </trkpt>
      <trkpt lat="49.17439" lon="-0.64579">
        <ele>75</ele>
        <time>2023-04-25T13:35:56Z</time>
      </trkpt>
      <trkpt lat="49.17436" lon="-0.64561">
        <ele>74.6</ele>
        <time>2023-04-25T13:35:57Z</time>
      </trkpt>
      <trkpt lat="49.17433" lon="-0.64544">
        <ele>74.4</ele>
        <time>2023-04-25T13:35:58Z</time>
      </trkpt>
      <trkpt lat="49.1743" lon="-0.64527">
        <ele>74</ele>
        <time>2023-04-25T13:35:59Z</time>
      </trkpt>
      <trkpt lat="49.17427" lon="-0.6451">
        <ele>73.8</ele>
        <time>2023-04-25T13:36:00Z</time>
      </trkpt>
      <trkpt lat="49.17424" lon="-0.64494">
        <ele>74</ele>
        <time>2023-04-25T13:36:01Z</time>
      </trkpt>
      <trkpt lat="49.17421" lon="-0.64479">
        <ele>75</ele>
        <time>2023-04-25T13:36:02Z</time>
      </trkpt>
      <trkpt lat="49.17419" lon="-0.64465">
        <ele>75.6</ele>
        <time>2023-04-25T13:36:03Z</time>
      </trkpt>
      <trkpt lat="49.17416" lon="-0.64452">
        <ele>76.4</ele>
        <time>2023-04-25T13:36:04Z</time>
      </trkpt>
      <trkpt lat="49.17414" lon="-0.6444">
        <ele>77</ele>
        <time>2023-04-25T13:36:05Z</time>
      </trkpt>
      <trkpt lat="49.17412" lon="-0.64429">
        <ele>77.4</ele>
        <time>2023-04-25T13:36:06Z</time>
      </trkpt>
      <trkpt lat="49.1741" lon="-0.64419">
        <ele>77.8</ele>
        <time>2023-04-25T13:36:07Z</time>
      </trkpt>
      <trkpt lat="49.17408" lon="-0.6441">
        <ele>78.4</ele>
        <time>2023-04-25T13:36:08Z</time>
      </trkpt>
      <trkpt lat="49.17407" lon="-0.64402">
        <ele>79</ele>
        <time>2023-04-25T13:36:09Z</time>
      </trkpt>
      <trkpt lat="49.17406" lon="-0.64394">
        <ele>79.6</ele>
        <time>2023-04-25T13:36:10Z</time>
      </trkpt>
      <trkpt lat="49.17404" lon="-0.64387">
        <ele>80</ele>
        <time>2023-04-25T13:36:11Z</time>
      </trkpt>
      <trkpt lat="49.17403" lon="-0.64381">
        <ele>80.6</ele>
        <time>2023-04-25T13:36:12Z</time>
      </trkpt>
      <trkpt lat="49.17402" lon="-0.64375">
        <ele>81</ele>
        <time>2023-04-25T13:36:13Z</time>
      </trkpt>
      <trkpt lat="49.17402" lon="-0.64369">
        <ele>81.4</ele>
        <time>2023-04-25T13:36:14Z</time>
      </trkpt>
      <trkpt lat="49.17401" lon="-0.64364">
        <ele>81.6</ele>
        <time>2023-04-25T13:36:15Z</time>
      </trkpt>
      <trkpt lat="49.174" lon="-0.64359">
        <ele>82</ele>
        <time>2023-04-25T13:36:16Z</time>
      </trkpt>
      <trkpt lat="49.17399" lon="-0.64354">
        <ele>82.6</ele>
        <time>2023-04-25T13:36:17Z</time>
      </trkpt>
      <trkpt lat="49.17399" lon="-0.64348">
        <ele>83</ele>
        <time>2023-04-25T13:36:18Z</time>
      </trkpt>
      <trkpt lat="49.17398" lon="-0.64343">
        <ele>83.4</ele>
        <time>2023-04-25T13:36:19Z</time>
      </trkpt>
      <trkpt lat="49.17397" lon="-0.64338">
        <ele>83.6</ele>
        <time>2023-04-25T13:36:20Z</time>
      </trkpt>
      <trkpt lat="49.17396" lon="-0.64333">
        <ele>84</ele>
        <time>2023-04-25T13:36:21Z</time>
      </trkpt>
      <trkpt lat="49.17395" lon="-0.64328">
        <ele>84.4</ele>
        <time>2023-04-25T13:36:22Z</time>
      </trkpt>
      <trkpt lat="49.17395" lon="-0.64323">
        <ele>84.6</ele>
        <time>2023-04-25T13:36:23Z</time>
      </trkpt>
      <trkpt lat="49.17394" lon="-0.64318">
        <ele>84.8</ele>
        <time>2023-04-25T13:36:24Z</time>
      </trkpt>
      <trkpt lat="49.17393" lon="-0.64313">
        <ele>85</ele>
        <time>2023-04-25T13:36:25Z</time>
      </trkpt>
      <trkpt lat="49.17392" lon="-0.64309">
        <ele>85.4</ele>
        <time>2023-04-25T13:36:26Z</time>
      </trkpt>
      <trkpt lat="49.17392" lon="-0.64304">
        <ele>85.6</ele>
        <time>2023-04-25T13:36:27Z</time>
      </trkpt>
      <trkpt lat="49.17391" lon="-0.643">
        <ele>85.6</ele>
        <time>2023-04-25T13:36:28Z</time>
      </trkpt>
      <trkpt lat="49.1739" lon="-0.64296">
        <ele>86</ele>
        <time>2023-04-25T13:36:29Z</time>
      </trkpt>
      <trkpt lat="49.17389" lon="-0.64291">
        <ele>86.2</ele>
        <time>2023-04-25T13:36:30Z</time>
      </trkpt>
      <trkpt lat="49.17389" lon="-0.64287">
        <ele>86.4</ele>
        <time>2023-04-25T13:36:31Z</time>
      </trkpt>
      <trkpt lat="49.17388" lon="-0.64283">
        <ele>86.6</ele>
        <time>2023-04-25T13:36:32Z</time>
      </trkpt>
      <trkpt lat="49.17387" lon="-0.64278">
        <ele>87</ele>
        <time>2023-04-25T13:36:33Z</time>
      </trkpt>
      <trkpt lat="49.17386" lon="-0.64274">
        <ele>87</ele>
        <time>2023-04-25T13:36:34Z</time>
      </trkpt>
      <trkpt lat="49.17385" lon="-0.6427">
        <ele>87.4</ele>
        <time>2023-04-25T13:36:35Z</time>
      </trkpt>
      <trkpt lat="49.17384" lon="-0.64266">
        <ele>87.6</ele>
        <time>2023-04-25T13:36:36Z</time>
      </trkpt>
      <trkpt lat="49.17384" lon="-0.64262">
        <ele>87.8</ele>
        <time>2023-04-25T13:36:37Z</time>
      </trkpt>
      <trkpt lat="49.17383" lon="-0.64258">
        <ele>88</ele>
        <time>2023-04-25T13:36:38Z</time>
      </trkpt>
      <trkpt lat="49.17382" lon="-0.64254">
        <ele>88.2</ele>
        <time>2023-04-25T13:36:39Z</time>
      </trkpt>
      <trkpt lat="49.17381" lon="-0.6425">
        <ele>88.4</ele>
        <time>2023-04-25T13:36:40Z</time>
      </trkpt>
      <trkpt lat="49.17381" lon="-0.64246">
        <ele>88.6</ele>
        <time>2023-04-25T13:36:41Z</time>
      </trkpt>
      <trkpt lat="49.1738" lon="-0.64242">
        <ele>88.6</ele>
        <time>2023-04-25T13:36:42Z</time>
      </trkpt>
      <trkpt lat="49.17379" lon="-0.64238">
        <ele>89</ele>
        <time>2023-04-25T13:36:43Z</time>
      </trkpt>
      <trkpt lat="49.17378" lon="-0.64234">
        <ele>89</ele>
        <time>2023-04-25T13:36:44Z</time>
      </trkpt>
      <trkpt lat="49.17378" lon="-0.6423">
        <ele>89.2</ele>
        <time>2023-04-25T13:36:45Z</time>
      </trkpt>
      <trkpt lat="49.17377" lon="-0.64226">
        <ele>89.4</ele>
        <time>2023-04-25T13:36:46Z</time>
      </trkpt>
      <trkpt lat="49.17376" lon="-0.64222">
        <ele>89.6</ele>
        <time>2023-04-25T13:36:47Z</time>
      </trkpt>
      <trkpt lat="49.17375" lon="-0.64218">
        <ele>89.6</ele>
        <time>2023-04-25T13:36:48Z</time>
      </trkpt>
      <trkpt lat="49.17374" lon="-0.64214">
        <ele>89.8</ele>
        <time>2023-04-25T13:36:49Z</time>
      </trkpt>
      <trkpt lat="49.17373" lon="-0.6421">
        <ele>90</ele>
        <time>2023-04-25T13:36:50Z</time>
      </trkpt>
      <trkpt lat="49.17373" lon="-0.64206">
        <ele>90</ele>
        <time>2023-04-25T13:36:51Z</time>
      </trkpt>
      <trkpt lat="49.17372" lon="-0.64202">
        <ele>90.4</ele>
        <time>2023-04-25T13:36:52Z</time>
      </trkpt>
      <trkpt lat="49.17371" lon="-0.64198">
        <ele>90.4</ele>
        <time>2023-04-25T13:36:53Z</time>
      </trkpt>
      <trkpt lat="49.1737" lon="-0.64194">
        <ele>90.6</ele>
        <time>2023-04-25T13:36:54Z</time>
      </trkpt>
      <trkpt lat="49.1737" lon="-0.6419">
        <ele>90.6</ele>
        <time>2023-04-25T13:36:55Z</time>
      </trkpt>
      <trkpt lat="49.17369" lon="-0.64186">
        <ele>91</ele>
        <time>2023-04-25T13:36:56Z</time>
      </trkpt>
      <trkpt lat="49.17369" lon="-0.64182">
        <ele>91</ele>
        <time>2023-04-25T13:36:57Z</time>
      </trkpt>
      <trkpt lat="49.17368" lon="-0.64178">
        <ele>91.2</ele>
        <time>2023-04-25T13:36:58Z</time>
      </trkpt>
      <trkpt lat="49.17367" lon="-0.64174">
        <ele>91.4</ele>
        <time>2023-04-25T13:36:59Z</time>
      </trkpt>
      <trkpt lat="49.17367" lon="-0.64169">
        <ele>91.6</ele>
        <time>2023-04-25T13:37:00Z</time>
      </trkpt>
      <trkpt lat="49.17366" lon="-0.64165">
        <ele>91.6</ele>
        <time>2023-04-25T13:37:01Z</time>
      </trkpt>
      <trkpt lat="49.17365" lon="-0.64161">
        <ele>91.6</ele>
        <time>2023-04-25T13:37:02Z</time>
      </trkpt>
      <trkpt lat="49.17364" lon="-0.64156">
        <ele>91.6</ele>
        <time>2023-04-25T13:37:03Z</time>
      </trkpt>
      <trkpt lat="49.17364" lon="-0.64151">
        <ele>91.8</ele>
        <time>2023-04-25T13:37:04Z</time>
      </trkpt>
      <trkpt lat="49.17363" lon="-0.64147">
        <ele>91.8</ele>
        <time>2023-04-25T13:37:05Z</time>
      </trkpt>
      <trkpt lat="49.17362" lon="-0.64142">
        <ele>91.8</ele>
        <time>2023-04-25T13:37:06Z</time>
      </trkpt>
      <trkpt lat="49.17362" lon="-0.64138">
        <ele>92</ele>
        <time>2023-04-25T13:37:07Z</time>
      </trkpt>
      <trkpt lat="49.17361" lon="-0.64133">
        <ele>92</ele>
        <time>2023-04-25T13:37:08Z</time>
      </trkpt>
      <trkpt lat="49.17361" lon="-0.64129">
        <ele>92</ele>
        <time>2023-04-25T13:37:09Z</time>
      </trkpt>
      <trkpt lat="49.1736" lon="-0.64124">
        <ele>92</ele>
        <time>2023-04-25T13:37:10Z</time>
      </trkpt>
      <trkpt lat="49.1736" lon="-0.64119">
        <ele>92</ele>
        <time>2023-04-25T13:37:11Z</time>
      </trkpt>
      <trkpt lat="49.1736" lon="-0.64115">
        <ele>92</ele>
        <time>2023-04-25T13:37:12Z</time>
      </trkpt>
      <trkpt lat="49.17359" lon="-0.6411">
        <ele>92.2</ele>
        <time>2023-04-25T13:37:13Z</time>
      </trkpt>
      <trkpt lat="49.17359" lon="-0.64105">
        <ele>92.2</ele>
        <time>2023-04-25T13:37:14Z</time>
      </trkpt>
      <trkpt lat="49.17359" lon="-0.641">
        <ele>92.2</ele>
        <time>2023-04-25T13:37:15Z</time>
      </trkpt>
      <trkpt lat="49.17359" lon="-0.64095">
        <ele>92.4</ele>
        <time>2023-04-25T13:37:16Z</time>
      </trkpt>
      <trkpt lat="49.17359" lon="-0.6409">
        <ele>92.4</ele>
        <time>2023-04-25T13:37:17Z</time>
      </trkpt>
      <trkpt lat="49.17359" lon="-0.64085">
        <ele>92.4</ele>
        <time>2023-04-25T13:37:18Z</time>
      </trkpt>
      <trkpt lat="49.1736" lon="-0.64079">
        <ele>92.4</ele>
        <time>2023-04-25T13:37:19Z</time>
      </trkpt>
      <trkpt lat="49.1736" lon="-0.64074">
        <ele>92.4</ele>
        <time>2023-04-25T13:37:20Z</time>
      </trkpt>
      <trkpt lat="49.1736" lon="-0.64068">
        <ele>92.4</ele>
        <time>2023-04-25T13:37:21Z</time>
      </trkpt>
      <trkpt lat="49.1736" lon="-0.64063">
        <ele>92.4</ele>
        <time>2023-04-25T13:37:22Z</time>
      </trkpt>
      <trkpt lat="49.17361" lon="-0.64057">
        <ele>92.4</ele>
        <time>2023-04-25T13:37:23Z</time>
      </trkpt>
      <trkpt lat="49.17361" lon="-0.64051">
        <ele>92.6</ele>
        <time>2023-04-25T13:37:24Z</time>
      </trkpt>
      <trkpt lat="49.17362" lon="-0.64046">
        <ele>92.6</ele>
        <time>2023-04-25T13:37:25Z</time>
      </trkpt>
      <trkpt lat="49.17362" lon="-0.6404">
        <ele>92.6</ele>
        <time>2023-04-25T13:37:26Z</time>
      </trkpt>
      <trkpt lat="49.17363" lon="-0.64034">
        <ele>92.6</ele>
        <time>2023-04-25T13:37:27Z</time>
      </trkpt>
      <trkpt lat="49.17363" lon="-0.64028">
        <ele>92.6</ele>
        <time>2023-04-25T13:37:28Z</time>
      </trkpt>
      <trkpt lat="49.17364" lon="-0.64022">
        <ele>92.6</ele>
        <time>2023-04-25T13:37:29Z</time>
      </trkpt>
      <trkpt lat="49.17364" lon="-0.64016">
        <ele>92.6</ele>
        <time>2023-04-25T13:37:30Z</time>
      </trkpt>
      <trkpt lat="49.17365" lon="-0.6401">
        <ele>92.6</ele>
        <time>2023-04-25T13:37:31Z</time>
      </trkpt>
      <trkpt lat="49.17366" lon="-0.64004">
        <ele>92.6</ele>
        <time>2023-04-25T13:37:32Z</time>
      </trkpt>
      <trkpt lat="49.17366" lon="-0.63998">
        <ele>92.6</ele>
        <time>2023-04-25T13:37:33Z</time>
      </trkpt>
      <trkpt lat="49.17367" lon="-0.63991">
        <ele>92.6</ele>
        <time>2023-04-25T13:37:34Z</time>
      </trkpt>
      <trkpt lat="49.17367" lon="-0.63985">
        <ele>92.6</ele>
        <time>2023-04-25T13:37:35Z</time>
      </trkpt>
      <trkpt lat="49.17368" lon="-0.63979">
        <ele>92.6</ele>
        <time>2023-04-25T13:37:36Z</time>
      </trkpt>
      <trkpt lat="49.17369" lon="-0.63973">
        <ele>92.6</ele>
        <time>2023-04-25T13:37:37Z</time>
      </trkpt>
      <trkpt lat="49.17369" lon="-0.63966">
        <ele>92.6</ele>
        <time>2023-04-25T13:37:38Z</time>
      </trkpt>
      <trkpt lat="49.1737" lon="-0.6396">
        <ele>92.8</ele>
        <time>2023-04-25T13:37:39Z</time>
      </trkpt>
      <trkpt lat="49.17371" lon="-0.63954">
        <ele>92.8</ele>
        <time>2023-04-25T13:37:40Z</time>
      </trkpt>
      <trkpt lat="49.17371" lon="-0.63947">
        <ele>92.8</ele>
        <time>2023-04-25T13:37:41Z</time>
      </trkpt>
      <trkpt lat="49.17372" lon="-0.63941">
        <ele>93</ele>
        <time>2023-04-25T13:37:42Z</time>
      </trkpt>
      <trkpt lat="49.17373" lon="-0.63934">
        <ele>93</ele>
        <time>2023-04-25T13:37:43Z</time>
      </trkpt>
      <trkpt lat="49.17373" lon="-0.63927">
        <ele>93</ele>
        <time>2023-04-25T13:37:44Z</time>
      </trkpt>
      <trkpt lat="49.17374" lon="-0.63921">
        <ele>93</ele>
        <time>2023-04-25T13:37:45Z</time>
      </trkpt>
      <trkpt lat="49.17374" lon="-0.63914">
        <ele>93</ele>
        <time>2023-04-25T13:37:46Z</time>
      </trkpt>
      <trkpt lat="49.17375" lon="-0.63907">
        <ele>93</ele>
        <time>2023-04-25T13:37:47Z</time>
      </trkpt>
      <trkpt lat="49.17376" lon="-0.63901">
        <ele>93.2</ele>
        <time>2023-04-25T13:37:48Z</time>
      </trkpt>
      <trkpt lat="49.17377" lon="-0.63894">
        <ele>93.4</ele>
        <time>2023-04-25T13:37:49Z</time>
      </trkpt>
      <trkpt lat="49.17377" lon="-0.63887">
        <ele>93.4</ele>
        <time>2023-04-25T13:37:50Z</time>
      </trkpt>
      <trkpt lat="49.17378" lon="-0.63881">
        <ele>93.4</ele>
        <time>2023-04-25T13:37:51Z</time>
      </trkpt>
      <trkpt lat="49.17379" lon="-0.63874">
        <ele>93.6</ele>
        <time>2023-04-25T13:37:52Z</time>
      </trkpt>
      <trkpt lat="49.1738" lon="-0.63867">
        <ele>93.6</ele>
        <time>2023-04-25T13:37:53Z</time>
      </trkpt>
      <trkpt lat="49.1738" lon="-0.6386">
        <ele>93.6</ele>
        <time>2023-04-25T13:37:54Z</time>
      </trkpt>
      <trkpt lat="49.17381" lon="-0.63854">
        <ele>93.8</ele>
        <time>2023-04-25T13:37:55Z</time>
      </trkpt>
      <trkpt lat="49.17382" lon="-0.63847">
        <ele>93.8</ele>
        <time>2023-04-25T13:37:56Z</time>
      </trkpt>
      <trkpt lat="49.17383" lon="-0.6384">
        <ele>94</ele>
        <time>2023-04-25T13:37:57Z</time>
      </trkpt>
      <trkpt lat="49.17383" lon="-0.63833">
        <ele>94</ele>
        <time>2023-04-25T13:37:58Z</time>
      </trkpt>
      <trkpt lat="49.17384" lon="-0.63826">
        <ele>94</ele>
        <time>2023-04-25T13:37:59Z</time>
      </trkpt>
      <trkpt lat="49.17385" lon="-0.63818">
        <ele>94</ele>
        <time>2023-04-25T13:38:00Z</time>
      </trkpt>
      <trkpt lat="49.17386" lon="-0.63811">
        <ele>94</ele>
        <time>2023-04-25T13:38:01Z</time>
      </trkpt>
      <trkpt lat="49.17387" lon="-0.63803">
        <ele>94</ele>
        <time>2023-04-25T13:38:02Z</time>
      </trkpt>
      <trkpt lat="49.17387" lon="-0.63795">
        <ele>94</ele>
        <time>2023-04-25T13:38:03Z</time>
      </trkpt>
      <trkpt lat="49.17388" lon="-0.63787">
        <ele>94</ele>
        <time>2023-04-25T13:38:04Z</time>
      </trkpt>
      <trkpt lat="49.17389" lon="-0.6378">
        <ele>94</ele>
        <time>2023-04-25T13:38:05Z</time>
      </trkpt>
      <trkpt lat="49.1739" lon="-0.63771">
        <ele>94</ele>
        <time>2023-04-25T13:38:06Z</time>
      </trkpt>
      <trkpt lat="49.17391" lon="-0.63763">
        <ele>94</ele>
        <time>2023-04-25T13:38:07Z</time>
      </trkpt>
      <trkpt lat="49.17392" lon="-0.63755">
        <ele>94</ele>
        <time>2023-04-25T13:38:08Z</time>
      </trkpt>
      <trkpt lat="49.17393" lon="-0.63747">
        <ele>94</ele>
        <time>2023-04-25T13:38:09Z</time>
      </trkpt>
      <trkpt lat="49.17394" lon="-0.63739">
        <ele>94</ele>
        <time>2023-04-25T13:38:10Z</time>
      </trkpt>
      <trkpt lat="49.17395" lon="-0.63731">
        <ele>94</ele>
        <time>2023-04-25T13:38:11Z</time>
      </trkpt>
      <trkpt lat="49.17396" lon="-0.63722">
        <ele>94</ele>
        <time>2023-04-25T13:38:12Z</time>
      </trkpt>
      <trkpt lat="49.17396" lon="-0.63714">
        <ele>94</ele>
        <time>2023-04-25T13:38:13Z</time>
      </trkpt>
      <trkpt lat="49.17397" lon="-0.63705">
        <ele>94</ele>
        <time>2023-04-25T13:38:14Z</time>
      </trkpt>
      <trkpt lat="49.17398" lon="-0.63697">
        <ele>94</ele>
        <time>2023-04-25T13:38:15Z</time>
      </trkpt>
      <trkpt lat="49.17399" lon="-0.63689">
        <ele>94.2</ele>
        <time>2023-04-25T13:38:16Z</time>
      </trkpt>
      <trkpt lat="49.174" lon="-0.6368">
        <ele>94.2</ele>
        <time>2023-04-25T13:38:17Z</time>
      </trkpt>
      <trkpt lat="49.17401" lon="-0.63672">
        <ele>94.2</ele>
        <time>2023-04-25T13:38:18Z</time>
      </trkpt>
      <trkpt lat="49.17402" lon="-0.63663">
        <ele>94</ele>
        <time>2023-04-25T13:38:19Z</time>
      </trkpt>
      <trkpt lat="49.17403" lon="-0.63654">
        <ele>93.8</ele>
        <time>2023-04-25T13:38:20Z</time>
      </trkpt>
      <trkpt lat="49.17404" lon="-0.63646">
        <ele>93.6</ele>
        <time>2023-04-25T13:38:21Z</time>
      </trkpt>
      <trkpt lat="49.17405" lon="-0.63637">
        <ele>93.2</ele>
        <time>2023-04-25T13:38:22Z</time>
      </trkpt>
      <trkpt lat="49.17406" lon="-0.63628">
        <ele>93</ele>
        <time>2023-04-25T13:38:23Z</time>
      </trkpt>
      <trkpt lat="49.17407" lon="-0.63619">
        <ele>92.6</ele>
        <time>2023-04-25T13:38:24Z</time>
      </trkpt>
      <trkpt lat="49.17408" lon="-0.6361">
        <ele>92.2</ele>
        <time>2023-04-25T13:38:25Z</time>
      </trkpt>
      <trkpt lat="49.17409" lon="-0.63602">
        <ele>92</ele>
        <time>2023-04-25T13:38:26Z</time>
      </trkpt>
      <trkpt lat="49.1741" lon="-0.63593">
        <ele>91.6</ele>
        <time>2023-04-25T13:38:27Z</time>
      </trkpt>
      <trkpt lat="49.17411" lon="-0.63584">
        <ele>91.2</ele>
        <time>2023-04-25T13:38:28Z</time>
      </trkpt>
      <trkpt lat="49.17412" lon="-0.63576">
        <ele>91.2</ele>
        <time>2023-04-25T13:38:29Z</time>
      </trkpt>
      <trkpt lat="49.17413" lon="-0.63567">
        <ele>91.4</ele>
        <time>2023-04-25T13:38:30Z</time>
      </trkpt>
      <trkpt lat="49.17414" lon="-0.63559">
        <ele>91.4</ele>
        <time>2023-04-25T13:38:31Z</time>
      </trkpt>
      <trkpt lat="49.17415" lon="-0.63551">
        <ele>91.4</ele>
        <time>2023-04-25T13:38:32Z</time>
      </trkpt>
      <trkpt lat="49.17416" lon="-0.63543">
        <ele>91.6</ele>
        <time>2023-04-25T13:38:33Z</time>
      </trkpt>
      <trkpt lat="49.17417" lon="-0.63534">
        <ele>91.6</ele>
        <time>2023-04-25T13:38:34Z</time>
      </trkpt>
      <trkpt lat="49.17418" lon="-0.63526">
        <ele>91.6</ele>
        <time>2023-04-25T13:38:35Z</time>
      </trkpt>
      <trkpt lat="49.17419" lon="-0.63517">
        <ele>91.6</ele>
        <time>2023-04-25T13:38:36Z</time>
      </trkpt>
      <trkpt lat="49.1742" lon="-0.63508">
        <ele>91.8</ele>
        <time>2023-04-25T13:38:37Z</time>
      </trkpt>
      <trkpt lat="49.17421" lon="-0.63499">
        <ele>92</ele>
        <time>2023-04-25T13:38:38Z</time>
      </trkpt>
      <trkpt lat="49.17422" lon="-0.63491">
        <ele>91.8</ele>
        <time>2023-04-25T13:38:39Z</time>
      </trkpt>
      <trkpt lat="49.17423" lon="-0.63481">
        <ele>91.6</ele>
        <time>2023-04-25T13:38:40Z</time>
      </trkpt>
      <trkpt lat="49.17424" lon="-0.63472">
        <ele>91.6</ele>
        <time>2023-04-25T13:38:41Z</time>
      </trkpt>
      <trkpt lat="49.17425" lon="-0.63463">
        <ele>91.4</ele>
        <time>2023-04-25T13:38:42Z</time>
      </trkpt>
      <trkpt lat="49.17426" lon="-0.63454">
        <ele>91.4</ele>
        <time>2023-04-25T13:38:43Z</time>
      </trkpt>
      <trkpt lat="49.17427" lon="-0.63445">
        <ele>91.2</ele>
        <time>2023-04-25T13:38:44Z</time>
      </trkpt>
      <trkpt lat="49.17428" lon="-0.63436">
        <ele>91</ele>
        <time>2023-04-25T13:38:45Z</time>
      </trkpt>
      <trkpt lat="49.17429" lon="-0.63426">
        <ele>91</ele>
        <time>2023-04-25T13:38:46Z</time>
      </trkpt>
      <trkpt lat="49.1743" lon="-0.63417">
        <ele>90.8</ele>
        <time>2023-04-25T13:38:47Z</time>
      </trkpt>
      <trkpt lat="49.17431" lon="-0.63408">
        <ele>90.6</ele>
        <time>2023-04-25T13:38:48Z</time>
      </trkpt>
      <trkpt lat="49.17432" lon="-0.63399">
        <ele>90.6</ele>
        <time>2023-04-25T13:38:49Z</time>
      </trkpt>
      <trkpt lat="49.17433" lon="-0.6339">
        <ele>90.4</ele>
        <time>2023-04-25T13:38:50Z</time>
      </trkpt>
      <trkpt lat="49.17434" lon="-0.6338">
        <ele>90.2</ele>
        <time>2023-04-25T13:38:51Z</time>
      </trkpt>
      <trkpt lat="49.17435" lon="-0.63371">
        <ele>90</ele>
        <time>2023-04-25T13:38:52Z</time>
      </trkpt>
      <trkpt lat="49.17436" lon="-0.63361">
        <ele>90</ele>
        <time>2023-04-25T13:38:53Z</time>
      </trkpt>
      <trkpt lat="49.17437" lon="-0.63352">
        <ele>89.8</ele>
        <time>2023-04-25T13:38:54Z</time>
      </trkpt>
      <trkpt lat="49.17438" lon="-0.63342">
        <ele>89.6</ele>
        <time>2023-04-25T13:38:55Z</time>
      </trkpt>
      <trkpt lat="49.17439" lon="-0.63333">
        <ele>89.6</ele>
        <time>2023-04-25T13:38:56Z</time>
      </trkpt>
      <trkpt lat="49.17441" lon="-0.63323">
        <ele>89.4</ele>
        <time>2023-04-25T13:38:57Z</time>
      </trkpt>
      <trkpt lat="49.17442" lon="-0.63314">
        <ele>89.4</ele>
        <time>2023-04-25T13:38:58Z</time>
      </trkpt>
      <trkpt lat="49.17443" lon="-0.63304">
        <ele>89.2</ele>
        <time>2023-04-25T13:38:59Z</time>
      </trkpt>
      <trkpt lat="49.17444" lon="-0.63295">
        <ele>89</ele>
        <time>2023-04-25T13:39:00Z</time>
      </trkpt>
      <trkpt lat="49.17445" lon="-0.63285">
        <ele>89</ele>
        <time>2023-04-25T13:39:01Z</time>
      </trkpt>
      <trkpt lat="49.17446" lon="-0.63276">
        <ele>88.8</ele>
        <time>2023-04-25T13:39:02Z</time>
      </trkpt>
      <trkpt lat="49.17447" lon="-0.63266">
        <ele>88.6</ele>
        <time>2023-04-25T13:39:03Z</time>
      </trkpt>
      <trkpt lat="49.17448" lon="-0.63256">
        <ele>88.6</ele>
        <time>2023-04-25T13:39:04Z</time>
      </trkpt>
      <trkpt lat="49.17449" lon="-0.63247">
        <ele>88.4</ele>
        <time>2023-04-25T13:39:05Z</time>
      </trkpt>
      <trkpt lat="49.1745" lon="-0.63237">
        <ele>88</ele>
        <time>2023-04-25T13:39:06Z</time>
      </trkpt>
      <trkpt lat="49.17451" lon="-0.63227">
        <ele>87.6</ele>
        <time>2023-04-25T13:39:07Z</time>
      </trkpt>
      <trkpt lat="49.17452" lon="-0.63217">
        <ele>87.6</ele>
        <time>2023-04-25T13:39:08Z</time>
      </trkpt>
      <trkpt lat="49.17453" lon="-0.63206">
        <ele>87.2</ele>
        <time>2023-04-25T13:39:09Z</time>
      </trkpt>
      <trkpt lat="49.17454" lon="-0.63196">
        <ele>86.8</ele>
        <time>2023-04-25T13:39:10Z</time>
      </trkpt>
      <trkpt lat="49.17455" lon="-0.63185">
        <ele>86.6</ele>
        <time>2023-04-25T13:39:11Z</time>
      </trkpt>
      <trkpt lat="49.17456" lon="-0.63173">
        <ele>86.2</ele>
        <time>2023-04-25T13:39:12Z</time>
      </trkpt>
      <trkpt lat="49.17457" lon="-0.63162">
        <ele>85.8</ele>
        <time>2023-04-25T13:39:13Z</time>
      </trkpt>
      <trkpt lat="49.17458" lon="-0.6315">
        <ele>85.4</ele>
        <time>2023-04-25T13:39:14Z</time>
      </trkpt>
      <trkpt lat="49.1746" lon="-0.63138">
        <ele>84.8</ele>
        <time>2023-04-25T13:39:15Z</time>
      </trkpt>
      <trkpt lat="49.17461" lon="-0.63126">
        <ele>84.4</ele>
        <time>2023-04-25T13:39:16Z</time>
      </trkpt>
      <trkpt lat="49.17462" lon="-0.63113">
        <ele>83.8</ele>
        <time>2023-04-25T13:39:17Z</time>
      </trkpt>
      <trkpt lat="49.17464" lon="-0.631">
        <ele>83.4</ele>
        <time>2023-04-25T13:39:18Z</time>
      </trkpt>
      <trkpt lat="49.17466" lon="-0.63087">
        <ele>82.6</ele>
        <time>2023-04-25T13:39:19Z</time>
      </trkpt>
      <trkpt lat="49.17467" lon="-0.63073">
        <ele>82</ele>
        <time>2023-04-25T13:39:20Z</time>
      </trkpt>
      <trkpt lat="49.17469" lon="-0.63059">
        <ele>81.4</ele>
        <time>2023-04-25T13:39:21Z</time>
      </trkpt>
      <trkpt lat="49.1747" lon="-0.63044">
        <ele>80.6</ele>
        <time>2023-04-25T13:39:22Z</time>
      </trkpt>
      <trkpt lat="49.17472" lon="-0.6303">
        <ele>80</ele>
        <time>2023-04-25T13:39:23Z</time>
      </trkpt>
      <trkpt lat="49.17474" lon="-0.63015">
        <ele>79</ele>
        <time>2023-04-25T13:39:24Z</time>
      </trkpt>
      <trkpt lat="49.17475" lon="-0.62999">
        <ele>78.4</ele>
        <time>2023-04-25T13:39:25Z</time>
      </trkpt>
      <trkpt lat="49.17477" lon="-0.62984">
        <ele>77.6</ele>
        <time>2023-04-25T13:39:26Z</time>
      </trkpt>
      <trkpt lat="49.17479" lon="-0.62968">
        <ele>76.6</ele>
        <time>2023-04-25T13:39:27Z</time>
      </trkpt>
      <trkpt lat="49.17481" lon="-0.62951">
        <ele>76</ele>
        <time>2023-04-25T13:39:28Z</time>
      </trkpt>
      <trkpt lat="49.17482" lon="-0.62935">
        <ele>75</ele>
        <time>2023-04-25T13:39:29Z</time>
      </trkpt>
      <trkpt lat="49.17484" lon="-0.62918">
        <ele>74.4</ele>
        <time>2023-04-25T13:39:30Z</time>
      </trkpt>
      <trkpt lat="49.17486" lon="-0.62901">
        <ele>73.4</ele>
        <time>2023-04-25T13:39:31Z</time>
      </trkpt>
      <trkpt lat="49.17488" lon="-0.62884">
        <ele>72.6</ele>
        <time>2023-04-25T13:39:32Z</time>
      </trkpt>
      <trkpt lat="49.17489" lon="-0.62867">
        <ele>71.6</ele>
        <time>2023-04-25T13:39:33Z</time>
      </trkpt>
      <trkpt lat="49.17491" lon="-0.6285">
        <ele>70.6</ele>
        <time>2023-04-25T13:39:34Z</time>
      </trkpt>
      <trkpt lat="49.17493" lon="-0.62833">
        <ele>69.6</ele>
        <time>2023-04-25T13:39:35Z</time>
      </trkpt>
      <trkpt lat="49.17495" lon="-0.62817">
        <ele>69</ele>
        <time>2023-04-25T13:39:36Z</time>
      </trkpt>
      <trkpt lat="49.17497" lon="-0.62801">
        <ele>68.4</ele>
        <time>2023-04-25T13:39:37Z</time>
      </trkpt>
      <trkpt lat="49.175" lon="-0.62785">
        <ele>67.6</ele>
        <time>2023-04-25T13:39:38Z</time>
      </trkpt>
      <trkpt lat="49.17502" lon="-0.6277">
        <ele>67</ele>
        <time>2023-04-25T13:39:39Z</time>
      </trkpt>
      <trkpt lat="49.17505" lon="-0.62756">
        <ele>66.6</ele>
        <time>2023-04-25T13:39:40Z</time>
      </trkpt>
      <trkpt lat="49.17508" lon="-0.62741">
        <ele>66</ele>
        <time>2023-04-25T13:39:41Z</time>
      </trkpt>
      <trkpt lat="49.17511" lon="-0.62727">
        <ele>65.4</ele>
        <time>2023-04-25T13:39:42Z</time>
      </trkpt>
      <trkpt lat="49.17514" lon="-0.62714">
        <ele>64.6</ele>
        <time>2023-04-25T13:39:43Z</time>
      </trkpt>
      <trkpt lat="49.17518" lon="-0.62701">
        <ele>64</ele>
        <time>2023-04-25T13:39:44Z</time>
      </trkpt>
      <trkpt lat="49.17521" lon="-0.62689">
        <ele>63.4</ele>
        <time>2023-04-25T13:39:45Z</time>
      </trkpt>
      <trkpt lat="49.17524" lon="-0.62678">
        <ele>63</ele>
        <time>2023-04-25T13:39:46Z</time>
      </trkpt>
      <trkpt lat="49.17527" lon="-0.62667">
        <ele>62.2</ele>
        <time>2023-04-25T13:39:47Z</time>
      </trkpt>
      <trkpt lat="49.1753" lon="-0.62657">
        <ele>62.2</ele>
        <time>2023-04-25T13:39:48Z</time>
      </trkpt>
      <trkpt lat="49.17533" lon="-0.62648">
        <ele>62</ele>
        <time>2023-04-25T13:39:49Z</time>
      </trkpt>
      <trkpt lat="49.17536" lon="-0.6264">
        <ele>61.8</ele>
        <time>2023-04-25T13:39:50Z</time>
      </trkpt>
      <trkpt lat="49.17539" lon="-0.62633">
        <ele>61.8</ele>
        <time>2023-04-25T13:39:51Z</time>
      </trkpt>
      <trkpt lat="49.17541" lon="-0.62626">
        <ele>61.6</ele>
        <time>2023-04-25T13:39:52Z</time>
      </trkpt>
      <trkpt lat="49.17543" lon="-0.6262">
        <ele>61.2</ele>
        <time>2023-04-25T13:39:53Z</time>
      </trkpt>
      <trkpt lat="49.17544" lon="-0.62615">
        <ele>61.2</ele>
        <time>2023-04-25T13:39:54Z</time>
      </trkpt>
      <trkpt lat="49.17545" lon="-0.62611">
        <ele>61</ele>
        <time>2023-04-25T13:39:55Z</time>
      </trkpt>
      <trkpt lat="49.17546" lon="-0.62608">
        <ele>61</ele>
        <time>2023-04-25T13:39:56Z</time>
      </trkpt>
      <trkpt lat="49.17547" lon="-0.62606">
        <ele>61</ele>
        <time>2023-04-25T13:39:57Z</time>
      </trkpt>
      <trkpt lat="49.17548" lon="-0.62605">
        <ele>61</ele>
        <time>2023-04-25T13:39:58Z</time>
      </trkpt>
      <trkpt lat="49.17548" lon="-0.62604">
        <ele>61</ele>
        <time>2023-04-25T13:39:59Z</time>
      </trkpt>
      <trkpt lat="49.17549" lon="-0.62603">
        <ele>61</ele>
        <time>2023-04-25T13:40:00Z</time>
      </trkpt>
      <trkpt lat="49.17549" lon="-0.62603">
        <ele>61</ele>
        <time>2023-04-25T13:40:01Z</time>
      </trkpt>
      <trkpt lat="49.17549" lon="-0.62603">
        <ele>61</ele>
        <time>2023-04-25T13:40:02Z</time>
      </trkpt>
      <trkpt lat="49.17549" lon="-0.62603">
        <ele>61</ele>
        <time>2023-04-25T13:40:03Z</time>
      </trkpt>
      <trkpt lat="49.17549" lon="-0.62603">
        <ele>61</ele>
        <time>2023-04-25T13:40:04Z</time>
      </trkpt>
      <trkpt lat="49.17549" lon="-0.62603">
        <ele>61</ele>
        <time>2023-04-25T13:40:05Z</time>
      </trkpt>
      <trkpt lat="49.17549" lon="-0.62603">
        <ele>61</ele>
        <time>2023-04-25T13:40:06Z</time>
      </trkpt>
      <trkpt lat="49.17549" lon="-0.62603">
        <ele>61</ele>
        <time>2023-04-25T13:40:07Z</time>
      </trkpt>
      <trkpt lat="49.17549" lon="-0.62603">
        <ele>61</ele>
        <time>2023-04-25T13:40:08Z</time>
      </trkpt>
      <trkpt lat="49.17549" lon="-0.62603">
        <ele>61</ele>
        <time>2023-04-25T13:40:09Z</time>
      </trkpt>
      <trkpt lat="49.17549" lon="-0.62603">
        <ele>61</ele>
        <time>2023-04-25T13:40:10Z</time>
      </trkpt>
      <trkpt lat="49.17549" lon="-0.62602">
        <ele>61</ele>
        <time>2023-04-25T13:40:11Z</time>
      </trkpt>
      <trkpt lat="49.1755" lon="-0.626">
        <ele>60.8</ele>
        <time>2023-04-25T13:40:12Z</time>
      </trkpt>
      <trkpt lat="49.17551" lon="-0.62597">
        <ele>60.8</ele>
        <time>2023-04-25T13:40:13Z</time>
      </trkpt>
      <trkpt lat="49.17553" lon="-0.62595">
        <ele>60.8</ele>
        <time>2023-04-25T13:40:14Z</time>
      </trkpt>
      <trkpt lat="49.17556" lon="-0.62594">
        <ele>60.8</ele>
        <time>2023-04-25T13:40:15Z</time>
      </trkpt>
      <trkpt lat="49.17558" lon="-0.62592">
        <ele>60.8</ele>
        <time>2023-04-25T13:40:16Z</time>
      </trkpt>
      <trkpt lat="49.17561" lon="-0.6259">
        <ele>60.8</ele>
        <time>2023-04-25T13:40:17Z</time>
      </trkpt>
      <trkpt lat="49.17563" lon="-0.62586">
        <ele>60.6</ele>
        <time>2023-04-25T13:40:18Z</time>
      </trkpt>
      <trkpt lat="49.17566" lon="-0.62582">
        <ele>60.6</ele>
        <time>2023-04-25T13:40:19Z</time>
      </trkpt>
      <trkpt lat="49.17569" lon="-0.62577">
        <ele>60.6</ele>
        <time>2023-04-25T13:40:20Z</time>
      </trkpt>
      <trkpt lat="49.17573" lon="-0.62572">
        <ele>60.6</ele>
        <time>2023-04-25T13:40:21Z</time>
      </trkpt>
      <trkpt lat="49.17577" lon="-0.62567">
        <ele>60.6</ele>
        <time>2023-04-25T13:40:22Z</time>
      </trkpt>
      <trkpt lat="49.17581" lon="-0.62562">
        <ele>60.4</ele>
        <time>2023-04-25T13:40:23Z</time>
      </trkpt>
      <trkpt lat="49.17585" lon="-0.62556">
        <ele>60.4</ele>
        <time>2023-04-25T13:40:24Z</time>
      </trkpt>
      <trkpt lat="49.17589" lon="-0.62551">
        <ele>60.4</ele>
        <time>2023-04-25T13:40:25Z</time>
      </trkpt>
      <trkpt lat="49.17594" lon="-0.62545">
        <ele>60.2</ele>
        <time>2023-04-25T13:40:26Z</time>
      </trkpt>
      <trkpt lat="49.17599" lon="-0.62539">
        <ele>60.2</ele>
        <time>2023-04-25T13:40:27Z</time>
      </trkpt>
      <trkpt lat="49.17603" lon="-0.62533">
        <ele>60</ele>
        <time>2023-04-25T13:40:28Z</time>
      </trkpt>
      <trkpt lat="49.17608" lon="-0.62527">
        <ele>60</ele>
        <time>2023-04-25T13:40:29Z</time>
      </trkpt>
      <trkpt lat="49.17613" lon="-0.62521">
        <ele>59.8</ele>
        <time>2023-04-25T13:40:30Z</time>
      </trkpt>
      <trkpt lat="49.17618" lon="-0.62514">
        <ele>59.6</ele>
        <time>2023-04-25T13:40:31Z</time>
      </trkpt>
      <trkpt lat="49.17623" lon="-0.62508">
        <ele>59.2</ele>
        <time>2023-04-25T13:40:32Z</time>
      </trkpt>
      <trkpt lat="49.17628" lon="-0.62501">
        <ele>59</ele>
        <time>2023-04-25T13:40:33Z</time>
      </trkpt>
      <trkpt lat="49.17634" lon="-0.62495">
        <ele>58.8</ele>
        <time>2023-04-25T13:40:34Z</time>
      </trkpt>
      <trkpt lat="49.17639" lon="-0.62488">
        <ele>58.6</ele>
        <time>2023-04-25T13:40:35Z</time>
      </trkpt>
      <trkpt lat="49.17644" lon="-0.62482">
        <ele>58.2</ele>
        <time>2023-04-25T13:40:36Z</time>
      </trkpt>
      <trkpt lat="49.1765" lon="-0.62475">
        <ele>58</ele>
        <time>2023-04-25T13:40:37Z</time>
      </trkpt>
      <trkpt lat="49.17655" lon="-0.62468">
        <ele>57.8</ele>
        <time>2023-04-25T13:40:38Z</time>
      </trkpt>
      <trkpt lat="49.17661" lon="-0.62461">
        <ele>57.6</ele>
        <time>2023-04-25T13:40:39Z</time>
      </trkpt>
      <trkpt lat="49.17666" lon="-0.62454">
        <ele>57.2</ele>
        <time>2023-04-25T13:40:40Z</time>
      </trkpt>
      <trkpt lat="49.17672" lon="-0.62446">
        <ele>57</ele>
        <time>2023-04-25T13:40:41Z</time>
      </trkpt>
      <trkpt lat="49.17677" lon="-0.62439">
        <ele>56.8</ele>
        <time>2023-04-25T13:40:42Z</time>
      </trkpt>
      <trkpt lat="49.17683" lon="-0.62431">
        <ele>56.6</ele>
        <time>2023-04-25T13:40:43Z</time>
      </trkpt>
      <trkpt lat="49.17689" lon="-0.62423">
        <ele>56</ele>
        <time>2023-04-25T13:40:44Z</time>
      </trkpt>
      <trkpt lat="49.17695" lon="-0.62416">
        <ele>55.6</ele>
        <time>2023-04-25T13:40:45Z</time>
      </trkpt>
      <trkpt lat="49.17701" lon="-0.62408">
        <ele>55.2</ele>
        <time>2023-04-25T13:40:46Z</time>
      </trkpt>
      <trkpt lat="49.17707" lon="-0.624">
        <ele>55</ele>
        <time>2023-04-25T13:40:47Z</time>
      </trkpt>
      <trkpt lat="49.17713" lon="-0.62391">
        <ele>54.8</ele>
        <time>2023-04-25T13:40:48Z</time>
      </trkpt>
      <trkpt lat="49.17719" lon="-0.62383">
        <ele>54.2</ele>
        <time>2023-04-25T13:40:49Z</time>
      </trkpt>
      <trkpt lat="49.17724" lon="-0.62374">
        <ele>54</ele>
        <time>2023-04-25T13:40:50Z</time>
      </trkpt>
      <trkpt lat="49.17729" lon="-0.62365">
        <ele>53.6</ele>
        <time>2023-04-25T13:40:51Z</time>
      </trkpt>
      <trkpt lat="49.17733" lon="-0.62354">
        <ele>53</ele>
        <time>2023-04-25T13:40:52Z</time>
      </trkpt>
      <trkpt lat="49.17737" lon="-0.62343">
        <ele>52.8</ele>
        <time>2023-04-25T13:40:53Z</time>
      </trkpt>
      <trkpt lat="49.1774" lon="-0.62332">
        <ele>52.2</ele>
        <time>2023-04-25T13:40:54Z</time>
      </trkpt>
      <trkpt lat="49.17743" lon="-0.6232">
        <ele>52</ele>
        <time>2023-04-25T13:40:55Z</time>
      </trkpt>
      <trkpt lat="49.17745" lon="-0.62308">
        <ele>51.8</ele>
        <time>2023-04-25T13:40:56Z</time>
      </trkpt>
      <trkpt lat="49.17746" lon="-0.62296">
        <ele>51.6</ele>
        <time>2023-04-25T13:40:57Z</time>
      </trkpt>
      <trkpt lat="49.17747" lon="-0.62284">
        <ele>51.6</ele>
        <time>2023-04-25T13:40:58Z</time>
      </trkpt>
      <trkpt lat="49.17747" lon="-0.62272">
        <ele>51.2</ele>
        <time>2023-04-25T13:40:59Z</time>
      </trkpt>
      <trkpt lat="49.17747" lon="-0.62261">
        <ele>51.2</ele>
        <time>2023-04-25T13:41:00Z</time>
      </trkpt>
      <trkpt lat="49.17747" lon="-0.62249">
        <ele>51</ele>
        <time>2023-04-25T13:41:01Z</time>
      </trkpt>
      <trkpt lat="49.17747" lon="-0.62238">
        <ele>51.2</ele>
        <time>2023-04-25T13:41:02Z</time>
      </trkpt>
      <trkpt lat="49.17747" lon="-0.62227">
        <ele>51.2</ele>
        <time>2023-04-25T13:41:03Z</time>
      </trkpt>
      <trkpt lat="49.17747" lon="-0.62217">
        <ele>51.4</ele>
        <time>2023-04-25T13:41:04Z</time>
      </trkpt>
      <trkpt lat="49.17747" lon="-0.62207">
        <ele>51.6</ele>
        <time>2023-04-25T13:41:05Z</time>
      </trkpt>
      <trkpt lat="49.17747" lon="-0.62197">
        <ele>51.6</ele>
        <time>2023-04-25T13:41:06Z</time>
      </trkpt>
      <trkpt lat="49.17747" lon="-0.62187">
        <ele>51.8</ele>
        <time>2023-04-25T13:41:07Z</time>
      </trkpt>
      <trkpt lat="49.17747" lon="-0.62178">
        <ele>51.8</ele>
        <time>2023-04-25T13:41:08Z</time>
      </trkpt>
      <trkpt lat="49.17746" lon="-0.62169">
        <ele>51.8</ele>
        <time>2023-04-25T13:41:09Z</time>
      </trkpt>
      <trkpt lat="49.17746" lon="-0.6216">
        <ele>51.8</ele>
        <time>2023-04-25T13:41:10Z</time>
      </trkpt>
      <trkpt lat="49.17746" lon="-0.62151">
        <ele>51.8</ele>
        <time>2023-04-25T13:41:11Z</time>
      </trkpt>
      <trkpt lat="49.17746" lon="-0.62143">
        <ele>51.8</ele>
        <time>2023-04-25T13:41:12Z</time>
      </trkpt>
      <trkpt lat="49.17746" lon="-0.62134">
        <ele>51.6</ele>
        <time>2023-04-25T13:41:13Z</time>
      </trkpt>
      <trkpt lat="49.17746" lon="-0.62126">
        <ele>51.6</ele>
        <time>2023-04-25T13:41:14Z</time>
      </trkpt>
      <trkpt lat="49.17746" lon="-0.62117">
        <ele>51.4</ele>
        <time>2023-04-25T13:41:15Z</time>
      </trkpt>
      <trkpt lat="49.17746" lon="-0.62108">
        <ele>51.4</ele>
        <time>2023-04-25T13:41:16Z</time>
      </trkpt>
      <trkpt lat="49.17746" lon="-0.621">
        <ele>51.2</ele>
        <time>2023-04-25T13:41:17Z</time>
      </trkpt>
      <trkpt lat="49.17746" lon="-0.62091">
        <ele>51.2</ele>
        <time>2023-04-25T13:41:18Z</time>
      </trkpt>
      <trkpt lat="49.17745" lon="-0.62083">
        <ele>51.2</ele>
        <time>2023-04-25T13:41:19Z</time>
      </trkpt>
      <trkpt lat="49.17745" lon="-0.62075">
        <ele>51.6</ele>
        <time>2023-04-25T13:41:20Z</time>
      </trkpt>
      <trkpt lat="49.17745" lon="-0.62068">
        <ele>52</ele>
        <time>2023-04-25T13:41:21Z</time>
      </trkpt>
      <trkpt lat="49.17744" lon="-0.62061">
        <ele>52.2</ele>
        <time>2023-04-25T13:41:22Z</time>
      </trkpt>
      <trkpt lat="49.17744" lon="-0.62054">
        <ele>52.8</ele>
        <time>2023-04-25T13:41:23Z</time>
      </trkpt>
      <trkpt lat="49.17743" lon="-0.62047">
        <ele>53</ele>
        <time>2023-04-25T13:41:24Z</time>
      </trkpt>
      <trkpt lat="49.17743" lon="-0.62041">
        <ele>53.4</ele>
        <time>2023-04-25T13:41:25Z</time>
      </trkpt>
      <trkpt lat="49.17742" lon="-0.62034">
        <ele>53.8</ele>
        <time>2023-04-25T13:41:26Z</time>
      </trkpt>
      <trkpt lat="49.17742" lon="-0.62028">
        <ele>54</ele>
        <time>2023-04-25T13:41:27Z</time>
      </trkpt>
      <trkpt lat="49.17742" lon="-0.62022">
        <ele>54.2</ele>
        <time>2023-04-25T13:41:28Z</time>
      </trkpt>
      <trkpt lat="49.17741" lon="-0.62016">
        <ele>54.6</ele>
        <time>2023-04-25T13:41:29Z</time>
      </trkpt>
      <trkpt lat="49.17741" lon="-0.6201">
        <ele>55</ele>
        <time>2023-04-25T13:41:30Z</time>
      </trkpt>
      <trkpt lat="49.17741" lon="-0.62005">
        <ele>55.2</ele>
        <time>2023-04-25T13:41:31Z</time>
      </trkpt>
      <trkpt lat="49.17741" lon="-0.61999">
        <ele>55.6</ele>
        <time>2023-04-25T13:41:32Z</time>
      </trkpt>
      <trkpt lat="49.17741" lon="-0.61993">
        <ele>55.8</ele>
        <time>2023-04-25T13:41:33Z</time>
      </trkpt>
      <trkpt lat="49.17741" lon="-0.61988">
        <ele>56.2</ele>
        <time>2023-04-25T13:41:34Z</time>
      </trkpt>
      <trkpt lat="49.17741" lon="-0.61982">
        <ele>56.6</ele>
        <time>2023-04-25T13:41:35Z</time>
      </trkpt>
      <trkpt lat="49.17741" lon="-0.61977">
        <ele>57</ele>
        <time>2023-04-25T13:41:36Z</time>
      </trkpt>
      <trkpt lat="49.17741" lon="-0.61971">
        <ele>57.2</ele>
        <time>2023-04-25T13:41:37Z</time>
      </trkpt>
      <trkpt lat="49.17741" lon="-0.61966">
        <ele>57.6</ele>
        <time>2023-04-25T13:41:38Z</time>
      </trkpt>
      <trkpt lat="49.17741" lon="-0.6196">
        <ele>58</ele>
        <time>2023-04-25T13:41:39Z</time>
      </trkpt>
      <trkpt lat="49.17741" lon="-0.61955">
        <ele>58.2</ele>
        <time>2023-04-25T13:41:40Z</time>
      </trkpt>
      <trkpt lat="49.17741" lon="-0.6195">
        <ele>58.6</ele>
        <time>2023-04-25T13:41:41Z</time>
      </trkpt>
      <trkpt lat="49.1774" lon="-0.61944">
        <ele>59</ele>
        <time>2023-04-25T13:41:42Z</time>
      </trkpt>
      <trkpt lat="49.1774" lon="-0.61939">
        <ele>59.2</ele>
        <time>2023-04-25T13:41:43Z</time>
      </trkpt>
      <trkpt lat="49.1774" lon="-0.61934">
        <ele>59.6</ele>
        <time>2023-04-25T13:41:44Z</time>
      </trkpt>
      <trkpt lat="49.1774" lon="-0.61929">
        <ele>60</ele>
        <time>2023-04-25T13:41:45Z</time>
      </trkpt>
      <trkpt lat="49.17739" lon="-0.61924">
        <ele>60.2</ele>
        <time>2023-04-25T13:41:46Z</time>
      </trkpt>
      <trkpt lat="49.17739" lon="-0.61919">
        <ele>60.6</ele>
        <time>2023-04-25T13:41:47Z</time>
      </trkpt>
      <trkpt lat="49.17739" lon="-0.61914">
        <ele>60.8</ele>
        <time>2023-04-25T13:41:48Z</time>
      </trkpt>
      <trkpt lat="49.17739" lon="-0.61909">
        <ele>61</ele>
        <time>2023-04-25T13:41:49Z</time>
      </trkpt>
      <trkpt lat="49.17739" lon="-0.61904">
        <ele>61.4</ele>
        <time>2023-04-25T13:41:50Z</time>
      </trkpt>
      <trkpt lat="49.17739" lon="-0.61899">
        <ele>61.8</ele>
        <time>2023-04-25T13:41:51Z</time>
      </trkpt>
      <trkpt lat="49.17739" lon="-0.61894">
        <ele>62</ele>
        <time>2023-04-25T13:41:52Z</time>
      </trkpt>
      <trkpt lat="49.1774" lon="-0.6189">
        <ele>62.2</ele>
        <time>2023-04-25T13:41:53Z</time>
      </trkpt>
      <trkpt lat="49.17741" lon="-0.61885">
        <ele>62.6</ele>
        <time>2023-04-25T13:41:54Z</time>
      </trkpt>
      <trkpt lat="49.17742" lon="-0.6188">
        <ele>62.8</ele>
        <time>2023-04-25T13:41:55Z</time>
      </trkpt>
      <trkpt lat="49.17743" lon="-0.61876">
        <ele>63</ele>
        <time>2023-04-25T13:41:56Z</time>
      </trkpt>
      <trkpt lat="49.17744" lon="-0.61871">
        <ele>63</ele>
        <time>2023-04-25T13:41:57Z</time>
      </trkpt>
      <trkpt lat="49.17745" lon="-0.61867">
        <ele>63.2</ele>
        <time>2023-04-25T13:41:58Z</time>
      </trkpt>
      <trkpt lat="49.17747" lon="-0.61863">
        <ele>63.4</ele>
        <time>2023-04-25T13:41:59Z</time>
      </trkpt>
      <trkpt lat="49.17748" lon="-0.61859">
        <ele>63.6</ele>
        <time>2023-04-25T13:42:00Z</time>
      </trkpt>
      <trkpt lat="49.1775" lon="-0.61855">
        <ele>63.8</ele>
        <time>2023-04-25T13:42:01Z</time>
      </trkpt>
      <trkpt lat="49.17751" lon="-0.61851">
        <ele>64</ele>
        <time>2023-04-25T13:42:02Z</time>
      </trkpt>
      <trkpt lat="49.17753" lon="-0.61847">
        <ele>64</ele>
        <time>2023-04-25T13:42:03Z</time>
      </trkpt>
      <trkpt lat="49.17755" lon="-0.61843">
        <ele>64.2</ele>
        <time>2023-04-25T13:42:04Z</time>
      </trkpt>
      <trkpt lat="49.17757" lon="-0.61839">
        <ele>64.4</ele>
        <time>2023-04-25T13:42:05Z</time>
      </trkpt>
      <trkpt lat="49.17759" lon="-0.61836">
        <ele>64.4</ele>
        <time>2023-04-25T13:42:06Z</time>
      </trkpt>
      <trkpt lat="49.17761" lon="-0.61832">
        <ele>64.6</ele>
        <time>2023-04-25T13:42:07Z</time>
      </trkpt>
      <trkpt lat="49.17763" lon="-0.61828">
        <ele>64.6</ele>
        <time>2023-04-25T13:42:08Z</time>
      </trkpt>
      <trkpt lat="49.17765" lon="-0.61825">
        <ele>64.6</ele>
        <time>2023-04-25T13:42:09Z</time>
      </trkpt>
      <trkpt lat="49.17767" lon="-0.61821">
        <ele>64.8</ele>
        <time>2023-04-25T13:42:10Z</time>
      </trkpt>
      <trkpt lat="49.1777" lon="-0.61818">
        <ele>64.8</ele>
        <time>2023-04-25T13:42:11Z</time>
      </trkpt>
      <trkpt lat="49.17772" lon="-0.61814">
        <ele>65</ele>
        <time>2023-04-25T13:42:12Z</time>
      </trkpt>
      <trkpt lat="49.17774" lon="-0.61811">
        <ele>65</ele>
        <time>2023-04-25T13:42:13Z</time>
      </trkpt>
      <trkpt lat="49.17776" lon="-0.61808">
        <ele>65</ele>
        <time>2023-04-25T13:42:14Z</time>
      </trkpt>
      <trkpt lat="49.17778" lon="-0.61804">
        <ele>65</ele>
        <time>2023-04-25T13:42:15Z</time>
      </trkpt>
      <trkpt lat="49.1778" lon="-0.61801">
        <ele>65</ele>
        <time>2023-04-25T13:42:16Z</time>
      </trkpt>
      <trkpt lat="49.17782" lon="-0.61798">
        <ele>65.2</ele>
        <time>2023-04-25T13:42:17Z</time>
      </trkpt>
      <trkpt lat="49.17784" lon="-0.61794">
        <ele>65.2</ele>
        <time>2023-04-25T13:42:18Z</time>
      </trkpt>
      <trkpt lat="49.17786" lon="-0.61791">
        <ele>65.4</ele>
        <time>2023-04-25T13:42:19Z</time>
      </trkpt>
      <trkpt lat="49.17788" lon="-0.61788">
        <ele>65.4</ele>
        <time>2023-04-25T13:42:20Z</time>
      </trkpt>
      <trkpt lat="49.1779" lon="-0.61785">
        <ele>65.4</ele>
        <time>2023-04-25T13:42:21Z</time>
      </trkpt>
      <trkpt lat="49.17792" lon="-0.61781">
        <ele>65.6</ele>
        <time>2023-04-25T13:42:22Z</time>
      </trkpt>
      <trkpt lat="49.17794" lon="-0.61778">
        <ele>65.6</ele>
        <time>2023-04-25T13:42:23Z</time>
      </trkpt>
      <trkpt lat="49.17796" lon="-0.61775">
        <ele>65.6</ele>
        <time>2023-04-25T13:42:24Z</time>
      </trkpt>
      <trkpt lat="49.17798" lon="-0.61772">
        <ele>65.6</ele>
        <time>2023-04-25T13:42:25Z</time>
      </trkpt>
      <trkpt lat="49.178" lon="-0.61769">
        <ele>65.6</ele>
        <time>2023-04-25T13:42:26Z</time>
      </trkpt>
      <trkpt lat="49.17802" lon="-0.61766">
        <ele>65.8</ele>
        <time>2023-04-25T13:42:27Z</time>
      </trkpt>
      <trkpt lat="49.17804" lon="-0.61762">
        <ele>65.8</ele>
        <time>2023-04-25T13:42:28Z</time>
      </trkpt>
      <trkpt lat="49.17806" lon="-0.61759">
        <ele>66</ele>
        <time>2023-04-25T13:42:29Z</time>
      </trkpt>
      <trkpt lat="49.17808" lon="-0.61756">
        <ele>66</ele>
        <time>2023-04-25T13:42:30Z</time>
      </trkpt>
      <trkpt lat="49.1781" lon="-0.61753">
        <ele>66</ele>
        <time>2023-04-25T13:42:31Z</time>
      </trkpt>
      <trkpt lat="49.17812" lon="-0.6175">
        <ele>66</ele>
        <time>2023-04-25T13:42:32Z</time>
      </trkpt>
      <trkpt lat="49.17814" lon="-0.61746">
        <ele>66</ele>
        <time>2023-04-25T13:42:33Z</time>
      </trkpt>
      <trkpt lat="49.17816" lon="-0.61743">
        <ele>66.2</ele>
        <time>2023-04-25T13:42:34Z</time>
      </trkpt>
      <trkpt lat="49.17818" lon="-0.6174">
        <ele>66.4</ele>
        <time>2023-04-25T13:42:35Z</time>
      </trkpt>
      <trkpt lat="49.1782" lon="-0.61737">
        <ele>66.4</ele>
        <time>2023-04-25T13:42:36Z</time>
      </trkpt>
      <trkpt lat="49.17822" lon="-0.61733">
        <ele>66.6</ele>
        <time>2023-04-25T13:42:37Z</time>
      </trkpt>
      <trkpt lat="49.17824" lon="-0.6173">
        <ele>66.6</ele>
        <time>2023-04-25T13:42:38Z</time>
      </trkpt>
      <trkpt lat="49.17826" lon="-0.61727">
        <ele>66.6</ele>
        <time>2023-04-25T13:42:39Z</time>
      </trkpt>
      <trkpt lat="49.17828" lon="-0.61723">
        <ele>66.8</ele>
        <time>2023-04-25T13:42:40Z</time>
      </trkpt>
      <trkpt lat="49.1783" lon="-0.6172">
        <ele>67</ele>
        <time>2023-04-25T13:42:41Z</time>
      </trkpt>
      <trkpt lat="49.17832" lon="-0.61717">
        <ele>67</ele>
        <time>2023-04-25T13:42:42Z</time>
      </trkpt>
      <trkpt lat="49.17834" lon="-0.61713">
        <ele>67.2</ele>
        <time>2023-04-25T13:42:43Z</time>
      </trkpt>
      <trkpt lat="49.17836" lon="-0.6171">
        <ele>67.4</ele>
        <time>2023-04-25T13:42:44Z</time>
      </trkpt>
      <trkpt lat="49.17838" lon="-0.61707">
        <ele>67.4</ele>
        <time>2023-04-25T13:42:45Z</time>
      </trkpt>
      <trkpt lat="49.1784" lon="-0.61703">
        <ele>67.6</ele>
        <time>2023-04-25T13:42:46Z</time>
      </trkpt>
      <trkpt lat="49.17842" lon="-0.617">
        <ele>67.6</ele>
        <time>2023-04-25T13:42:47Z</time>
      </trkpt>
      <trkpt lat="49.17845" lon="-0.61696">
        <ele>67.6</ele>
        <time>2023-04-25T13:42:48Z</time>
      </trkpt>
      <trkpt lat="49.17847" lon="-0.61693">
        <ele>67.8</ele>
        <time>2023-04-25T13:42:49Z</time>
      </trkpt>
      <trkpt lat="49.17849" lon="-0.61689">
        <ele>68</ele>
        <time>2023-04-25T13:42:50Z</time>
      </trkpt>
      <trkpt lat="49.17851" lon="-0.61685">
        <ele>68</ele>
        <time>2023-04-25T13:42:51Z</time>
      </trkpt>
      <trkpt lat="49.17852" lon="-0.61681">
        <ele>68.2</ele>
        <time>2023-04-25T13:42:52Z</time>
      </trkpt>
      <trkpt lat="49.17854" lon="-0.61677">
        <ele>68.4</ele>
        <time>2023-04-25T13:42:53Z</time>
      </trkpt>
      <trkpt lat="49.17856" lon="-0.61673">
        <ele>68.6</ele>
        <time>2023-04-25T13:42:54Z</time>
      </trkpt>
      <trkpt lat="49.17857" lon="-0.61669">
        <ele>68.8</ele>
        <time>2023-04-25T13:42:55Z</time>
      </trkpt>
      <trkpt lat="49.17858" lon="-0.61664">
        <ele>69</ele>
        <time>2023-04-25T13:42:56Z</time>
      </trkpt>
      <trkpt lat="49.17859" lon="-0.61659">
        <ele>69</ele>
        <time>2023-04-25T13:42:57Z</time>
      </trkpt>
      <trkpt lat="49.1786" lon="-0.61655">
        <ele>69.2</ele>
        <time>2023-04-25T13:42:58Z</time>
      </trkpt>
      <trkpt lat="49.17861" lon="-0.6165">
        <ele>69.4</ele>
        <time>2023-04-25T13:42:59Z</time>
      </trkpt>
      <trkpt lat="49.17862" lon="-0.61645">
        <ele>69.6</ele>
        <time>2023-04-25T13:43:00Z</time>
      </trkpt>
      <trkpt lat="49.17863" lon="-0.61641">
        <ele>69.6</ele>
        <time>2023-04-25T13:43:01Z</time>
      </trkpt>
      <trkpt lat="49.17863" lon="-0.61636">
        <ele>70</ele>
        <time>2023-04-25T13:43:02Z</time>
      </trkpt>
      <trkpt lat="49.17863" lon="-0.61631">
        <ele>70</ele>
        <time>2023-04-25T13:43:03Z</time>
      </trkpt>
      <trkpt lat="49.17863" lon="-0.61627">
        <ele>70.4</ele>
        <time>2023-04-25T13:43:04Z</time>
      </trkpt>
      <trkpt lat="49.17863" lon="-0.61622">
        <ele>70.6</ele>
        <time>2023-04-25T13:43:05Z</time>
      </trkpt>
      <trkpt lat="49.17863" lon="-0.61617">
        <ele>70.6</ele>
        <time>2023-04-25T13:43:06Z</time>
      </trkpt>
      <trkpt lat="49.17862" lon="-0.61612">
        <ele>71</ele>
        <time>2023-04-25T13:43:07Z</time>
      </trkpt>
      <trkpt lat="49.17862" lon="-0.61608">
        <ele>71.2</ele>
        <time>2023-04-25T13:43:08Z</time>
      </trkpt>
      <trkpt lat="49.17861" lon="-0.61603">
        <ele>71.6</ele>
        <time>2023-04-25T13:43:09Z</time>
      </trkpt>
      <trkpt lat="49.1786" lon="-0.61598">
        <ele>71.6</ele>
        <time>2023-04-25T13:43:10Z</time>
      </trkpt>
      <trkpt lat="49.1786" lon="-0.61593">
        <ele>72</ele>
        <time>2023-04-25T13:43:11Z</time>
      </trkpt>
      <trkpt lat="49.17859" lon="-0.61589">
        <ele>72.2</ele>
        <time>2023-04-25T13:43:12Z</time>
      </trkpt>
      <trkpt lat="49.17858" lon="-0.61584">
        <ele>72.6</ele>
        <time>2023-04-25T13:43:13Z</time>
      </trkpt>
      <trkpt lat="49.17857" lon="-0.61579">
        <ele>72.6</ele>
        <time>2023-04-25T13:43:14Z</time>
      </trkpt>
      <trkpt lat="49.17856" lon="-0.61575">
        <ele>72.8</ele>
        <time>2023-04-25T13:43:15Z</time>
      </trkpt>
      <trkpt lat="49.17856" lon="-0.6157">
        <ele>73</ele>
        <time>2023-04-25T13:43:16Z</time>
      </trkpt>
      <trkpt lat="49.17855" lon="-0.61565">
        <ele>73</ele>
        <time>2023-04-25T13:43:17Z</time>
      </trkpt>
      <trkpt lat="49.17854" lon="-0.61561">
        <ele>73.2</ele>
        <time>2023-04-25T13:43:18Z</time>
      </trkpt>
      <trkpt lat="49.17853" lon="-0.61556">
        <ele>73.4</ele>
        <time>2023-04-25T13:43:19Z</time>
      </trkpt>
      <trkpt lat="49.17852" lon="-0.61552">
        <ele>73.6</ele>
        <time>2023-04-25T13:43:20Z</time>
      </trkpt>
      <trkpt lat="49.17852" lon="-0.61547">
        <ele>73.6</ele>
        <time>2023-04-25T13:43:21Z</time>
      </trkpt>
      <trkpt lat="49.17851" lon="-0.61542">
        <ele>73.8</ele>
        <time>2023-04-25T13:43:22Z</time>
      </trkpt>
      <trkpt lat="49.1785" lon="-0.61538">
        <ele>74</ele>
        <time>2023-04-25T13:43:23Z</time>
      </trkpt>
      <trkpt lat="49.1785" lon="-0.61533">
        <ele>74</ele>
        <time>2023-04-25T13:43:24Z</time>
      </trkpt>
      <trkpt lat="49.17849" lon="-0.61529">
        <ele>74.4</ele>
        <time>2023-04-25T13:43:25Z</time>
      </trkpt>
      <trkpt lat="49.17848" lon="-0.61524">
        <ele>74.4</ele>
        <time>2023-04-25T13:43:26Z</time>
      </trkpt>
      <trkpt lat="49.17847" lon="-0.6152">
        <ele>74.6</ele>
        <time>2023-04-25T13:43:27Z</time>
      </trkpt>
      <trkpt lat="49.17847" lon="-0.61515">
        <ele>74.6</ele>
        <time>2023-04-25T13:43:28Z</time>
      </trkpt>
      <trkpt lat="49.17846" lon="-0.61511">
        <ele>75</ele>
        <time>2023-04-25T13:43:29Z</time>
      </trkpt>
      <trkpt lat="49.17845" lon="-0.61506">
        <ele>75</ele>
        <time>2023-04-25T13:43:30Z</time>
      </trkpt>
      <trkpt lat="49.17844" lon="-0.61502">
        <ele>75.2</ele>
        <time>2023-04-25T13:43:31Z</time>
      </trkpt>
      <trkpt lat="49.17843" lon="-0.61498">
        <ele>75.4</ele>
        <time>2023-04-25T13:43:32Z</time>
      </trkpt>
      <trkpt lat="49.17843" lon="-0.61493">
        <ele>75.4</ele>
        <time>2023-04-25T13:43:33Z</time>
      </trkpt>
      <trkpt lat="49.17842" lon="-0.61489">
        <ele>75.6</ele>
        <time>2023-04-25T13:43:34Z</time>
      </trkpt>
      <trkpt lat="49.17841" lon="-0.61484">
        <ele>75.6</ele>
        <time>2023-04-25T13:43:35Z</time>
      </trkpt>
      <trkpt lat="49.1784" lon="-0.6148">
        <ele>75.8</ele>
        <time>2023-04-25T13:43:36Z</time>
      </trkpt>
      <trkpt lat="49.17839" lon="-0.61475">
        <ele>76</ele>
        <time>2023-04-25T13:43:37Z</time>
      </trkpt>
      <trkpt lat="49.17839" lon="-0.61471">
        <ele>76</ele>
        <time>2023-04-25T13:43:38Z</time>
      </trkpt>
      <trkpt lat="49.17838" lon="-0.61466">
        <ele>76</ele>
        <time>2023-04-25T13:43:39Z</time>
      </trkpt>
      <trkpt lat="49.17837" lon="-0.61462">
        <ele>76.2</ele>
        <time>2023-04-25T13:43:40Z</time>
      </trkpt>
      <trkpt lat="49.17837" lon="-0.61457">
        <ele>76.4</ele>
        <time>2023-04-25T13:43:41Z</time>
      </trkpt>
      <trkpt lat="49.17836" lon="-0.61452">
        <ele>76.4</ele>
        <time>2023-04-25T13:43:42Z</time>
      </trkpt>
      <trkpt lat="49.17835" lon="-0.61448">
        <ele>76.6</ele>
        <time>2023-04-25T13:43:43Z</time>
      </trkpt>
      <trkpt lat="49.17834" lon="-0.61443">
        <ele>76.6</ele>
        <time>2023-04-25T13:43:44Z</time>
      </trkpt>
      <trkpt lat="49.17834" lon="-0.61439">
        <ele>76.6</ele>
        <time>2023-04-25T13:43:45Z</time>
      </trkpt>
      <trkpt lat="49.17833" lon="-0.61434">
        <ele>76.8</ele>
        <time>2023-04-25T13:43:46Z</time>
      </trkpt>
      <trkpt lat="49.17832" lon="-0.6143">
        <ele>77</ele>
        <time>2023-04-25T13:43:47Z</time>
      </trkpt>
      <trkpt lat="49.17831" lon="-0.61425">
        <ele>77</ele>
        <time>2023-04-25T13:43:48Z</time>
      </trkpt>
      <trkpt lat="49.17831" lon="-0.61421">
        <ele>77</ele>
        <time>2023-04-25T13:43:49Z</time>
      </trkpt>
      <trkpt lat="49.1783" lon="-0.61416">
        <ele>77.2</ele>
        <time>2023-04-25T13:43:50Z</time>
      </trkpt>
      <trkpt lat="49.17829" lon="-0.61412">
        <ele>77.4</ele>
        <time>2023-04-25T13:43:51Z</time>
      </trkpt>
      <trkpt lat="49.17828" lon="-0.61408">
        <ele>77.4</ele>
        <time>2023-04-25T13:43:52Z</time>
      </trkpt>
      <trkpt lat="49.17828" lon="-0.61403">
        <ele>77.6</ele>
        <time>2023-04-25T13:43:53Z</time>
      </trkpt>
      <trkpt lat="49.17827" lon="-0.61399">
        <ele>77.6</ele>
        <time>2023-04-25T13:43:54Z</time>
      </trkpt>
      <trkpt lat="49.17826" lon="-0.61395">
        <ele>77.8</ele>
        <time>2023-04-25T13:43:55Z</time>
      </trkpt>
      <trkpt lat="49.17826" lon="-0.6139">
        <ele>78</ele>
        <time>2023-04-25T13:43:56Z</time>
      </trkpt>
      <trkpt lat="49.17825" lon="-0.61386">
        <ele>78</ele>
        <time>2023-04-25T13:43:57Z</time>
      </trkpt>
      <trkpt lat="49.17825" lon="-0.61381">
        <ele>78</ele>
        <time>2023-04-25T13:43:58Z</time>
      </trkpt>
      <trkpt lat="49.17824" lon="-0.61377">
        <ele>78.2</ele>
        <time>2023-04-25T13:43:59Z</time>
      </trkpt>
      <trkpt lat="49.17824" lon="-0.61372">
        <ele>78.4</ele>
        <time>2023-04-25T13:44:00Z</time>
      </trkpt>
      <trkpt lat="49.17823" lon="-0.61368">
        <ele>78.4</ele>
        <time>2023-04-25T13:44:01Z</time>
      </trkpt>
      <trkpt lat="49.17823" lon="-0.61363">
        <ele>78.6</ele>
        <time>2023-04-25T13:44:02Z</time>
      </trkpt>
      <trkpt lat="49.17822" lon="-0.61358">
        <ele>78.6</ele>
        <time>2023-04-25T13:44:03Z</time>
      </trkpt>
      <trkpt lat="49.17821" lon="-0.61354">
        <ele>78.8</ele>
        <time>2023-04-25T13:44:04Z</time>
      </trkpt>
      <trkpt lat="49.17821" lon="-0.61349">
        <ele>79</ele>
        <time>2023-04-25T13:44:05Z</time>
      </trkpt>
      <trkpt lat="49.1782" lon="-0.61344">
        <ele>79</ele>
        <time>2023-04-25T13:44:06Z</time>
      </trkpt>
      <trkpt lat="49.17819" lon="-0.61339">
        <ele>79</ele>
        <time>2023-04-25T13:44:07Z</time>
      </trkpt>
      <trkpt lat="49.17818" lon="-0.61334">
        <ele>79.2</ele>
        <time>2023-04-25T13:44:08Z</time>
      </trkpt>
      <trkpt lat="49.17817" lon="-0.61329">
        <ele>79.4</ele>
        <time>2023-04-25T13:44:09Z</time>
      </trkpt>
      <trkpt lat="49.17816" lon="-0.61324">
        <ele>79.6</ele>
        <time>2023-04-25T13:44:10Z</time>
      </trkpt>
      <trkpt lat="49.17816" lon="-0.61319">
        <ele>79.6</ele>
        <time>2023-04-25T13:44:11Z</time>
      </trkpt>
      <trkpt lat="49.17815" lon="-0.61314">
        <ele>79.8</ele>
        <time>2023-04-25T13:44:12Z</time>
      </trkpt>
      <trkpt lat="49.17814" lon="-0.61308">
        <ele>80</ele>
        <time>2023-04-25T13:44:13Z</time>
      </trkpt>
      <trkpt lat="49.17813" lon="-0.61302">
        <ele>80</ele>
        <time>2023-04-25T13:44:14Z</time>
      </trkpt>
      <trkpt lat="49.17812" lon="-0.61297">
        <ele>80.2</ele>
        <time>2023-04-25T13:44:15Z</time>
      </trkpt>
      <trkpt lat="49.17811" lon="-0.61291">
        <ele>80.4</ele>
        <time>2023-04-25T13:44:16Z</time>
      </trkpt>
      <trkpt lat="49.1781" lon="-0.61285">
        <ele>80.6</ele>
        <time>2023-04-25T13:44:17Z</time>
      </trkpt>
      <trkpt lat="49.17809" lon="-0.61279">
        <ele>80.6</ele>
        <time>2023-04-25T13:44:18Z</time>
      </trkpt>
      <trkpt lat="49.17808" lon="-0.61273">
        <ele>80.8</ele>
        <time>2023-04-25T13:44:19Z</time>
      </trkpt>
      <trkpt lat="49.17807" lon="-0.61266">
        <ele>81</ele>
        <time>2023-04-25T13:44:20Z</time>
      </trkpt>
      <trkpt lat="49.17806" lon="-0.6126">
        <ele>81</ele>
        <time>2023-04-25T13:44:21Z</time>
      </trkpt>
      <trkpt lat="49.17804" lon="-0.61254">
        <ele>81.2</ele>
        <time>2023-04-25T13:44:22Z</time>
      </trkpt>
      <trkpt lat="49.17803" lon="-0.61247">
        <ele>81.4</ele>
        <time>2023-04-25T13:44:23Z</time>
      </trkpt>
      <trkpt lat="49.17802" lon="-0.61241">
        <ele>81.4</ele>
        <time>2023-04-25T13:44:24Z</time>
      </trkpt>
      <trkpt lat="49.178" lon="-0.61235">
        <ele>81.4</ele>
        <time>2023-04-25T13:44:25Z</time>
      </trkpt>
      <trkpt lat="49.17799" lon="-0.61229">
        <ele>81.4</ele>
        <time>2023-04-25T13:44:26Z</time>
      </trkpt>
      <trkpt lat="49.17798" lon="-0.61222">
        <ele>81.6</ele>
        <time>2023-04-25T13:44:27Z</time>
      </trkpt>
      <trkpt lat="49.17796" lon="-0.61216">
        <ele>81.6</ele>
        <time>2023-04-25T13:44:28Z</time>
      </trkpt>
      <trkpt lat="49.17795" lon="-0.61209">
        <ele>81.6</ele>
        <time>2023-04-25T13:44:29Z</time>
      </trkpt>
      <trkpt lat="49.17794" lon="-0.61203">
        <ele>81.6</ele>
        <time>2023-04-25T13:44:30Z</time>
      </trkpt>
      <trkpt lat="49.17793" lon="-0.61196">
        <ele>81.6</ele>
        <time>2023-04-25T13:44:31Z</time>
      </trkpt>
      <trkpt lat="49.17792" lon="-0.6119">
        <ele>81.6</ele>
        <time>2023-04-25T13:44:32Z</time>
      </trkpt>
      <trkpt lat="49.17791" lon="-0.61183">
        <ele>81.8</ele>
        <time>2023-04-25T13:44:33Z</time>
      </trkpt>
      <trkpt lat="49.1779" lon="-0.61176">
        <ele>81.8</ele>
        <time>2023-04-25T13:44:34Z</time>
      </trkpt>
      <trkpt lat="49.17789" lon="-0.61169">
        <ele>82</ele>
        <time>2023-04-25T13:44:35Z</time>
      </trkpt>
      <trkpt lat="49.17788" lon="-0.61162">
        <ele>82</ele>
        <time>2023-04-25T13:44:36Z</time>
      </trkpt>
      <trkpt lat="49.17787" lon="-0.61156">
        <ele>82</ele>
        <time>2023-04-25T13:44:37Z</time>
      </trkpt>
      <trkpt lat="49.17786" lon="-0.61149">
        <ele>82</ele>
        <time>2023-04-25T13:44:38Z</time>
      </trkpt>
      <trkpt lat="49.17785" lon="-0.61142">
        <ele>82</ele>
        <time>2023-04-25T13:44:39Z</time>
      </trkpt>
      <trkpt lat="49.17783" lon="-0.61135">
        <ele>82</ele>
        <time>2023-04-25T13:44:40Z</time>
      </trkpt>
      <trkpt lat="49.17782" lon="-0.61128">
        <ele>82</ele>
        <time>2023-04-25T13:44:41Z</time>
      </trkpt>
      <trkpt lat="49.17781" lon="-0.61121">
        <ele>82</ele>
        <time>2023-04-25T13:44:42Z</time>
      </trkpt>
      <trkpt lat="49.1778" lon="-0.61114">
        <ele>82</ele>
        <time>2023-04-25T13:44:43Z</time>
      </trkpt>
      <trkpt lat="49.17779" lon="-0.61107">
        <ele>82</ele>
        <time>2023-04-25T13:44:44Z</time>
      </trkpt>
      <trkpt lat="49.17777" lon="-0.611">
        <ele>82</ele>
        <time>2023-04-25T13:44:45Z</time>
      </trkpt>
      <trkpt lat="49.17776" lon="-0.61093">
        <ele>82</ele>
        <time>2023-04-25T13:44:46Z</time>
      </trkpt>
      <trkpt lat="49.17775" lon="-0.61086">
        <ele>82</ele>
        <time>2023-04-25T13:44:47Z</time>
      </trkpt>
      <trkpt lat="49.17774" lon="-0.61079">
        <ele>82</ele>
        <time>2023-04-25T13:44:48Z</time>
      </trkpt>
      <trkpt lat="49.17773" lon="-0.61072">
        <ele>82</ele>
        <time>2023-04-25T13:44:49Z</time>
      </trkpt>
      <trkpt lat="49.17771" lon="-0.61065">
        <ele>81.8</ele>
        <time>2023-04-25T13:44:50Z</time>
      </trkpt>
      <trkpt lat="49.1777" lon="-0.61058">
        <ele>81.6</ele>
        <time>2023-04-25T13:44:51Z</time>
      </trkpt>
      <trkpt lat="49.17769" lon="-0.61051">
        <ele>81.6</ele>
        <time>2023-04-25T13:44:52Z</time>
      </trkpt>
      <trkpt lat="49.17768" lon="-0.61043">
        <ele>81.6</ele>
        <time>2023-04-25T13:44:53Z</time>
      </trkpt>
      <trkpt lat="49.17767" lon="-0.61036">
        <ele>81.4</ele>
        <time>2023-04-25T13:44:54Z</time>
      </trkpt>
      <trkpt lat="49.17765" lon="-0.61029">
        <ele>81.4</ele>
        <time>2023-04-25T13:44:55Z</time>
      </trkpt>
      <trkpt lat="49.17764" lon="-0.61021">
        <ele>81.4</ele>
        <time>2023-04-25T13:44:56Z</time>
      </trkpt>
      <trkpt lat="49.17763" lon="-0.61014">
        <ele>81.2</ele>
        <time>2023-04-25T13:44:57Z</time>
      </trkpt>
      <trkpt lat="49.17762" lon="-0.61007">
        <ele>81</ele>
        <time>2023-04-25T13:44:58Z</time>
      </trkpt>
      <trkpt lat="49.1776" lon="-0.60999">
        <ele>81</ele>
        <time>2023-04-25T13:44:59Z</time>
      </trkpt>
      <trkpt lat="49.17759" lon="-0.60992">
        <ele>81</ele>
        <time>2023-04-25T13:45:00Z</time>
      </trkpt>
      <trkpt lat="49.17758" lon="-0.60984">
        <ele>81</ele>
        <time>2023-04-25T13:45:01Z</time>
      </trkpt>
      <trkpt lat="49.17757" lon="-0.60977">
        <ele>81</ele>
        <time>2023-04-25T13:45:02Z</time>
      </trkpt>
      <trkpt lat="49.17755" lon="-0.6097">
        <ele>81</ele>
        <time>2023-04-25T13:45:03Z</time>
      </trkpt>
      <trkpt lat="49.17754" lon="-0.60962">
        <ele>81</ele>
        <time>2023-04-25T13:45:04Z</time>
      </trkpt>
      <trkpt lat="49.17753" lon="-0.60955">
        <ele>81</ele>
        <time>2023-04-25T13:45:05Z</time>
      </trkpt>
      <trkpt lat="49.17752" lon="-0.60947">
        <ele>81</ele>
        <time>2023-04-25T13:45:06Z</time>
      </trkpt>
      <trkpt lat="49.1775" lon="-0.6094">
        <ele>81</ele>
        <time>2023-04-25T13:45:07Z</time>
      </trkpt>
      <trkpt lat="49.17749" lon="-0.60933">
        <ele>81</ele>
        <time>2023-04-25T13:45:08Z</time>
      </trkpt>
      <trkpt lat="49.17748" lon="-0.60925">
        <ele>81</ele>
        <time>2023-04-25T13:45:09Z</time>
      </trkpt>
      <trkpt lat="49.17747" lon="-0.60918">
        <ele>81</ele>
        <time>2023-04-25T13:45:10Z</time>
      </trkpt>
      <trkpt lat="49.17745" lon="-0.60911">
        <ele>81</ele>
        <time>2023-04-25T13:45:11Z</time>
      </trkpt>
      <trkpt lat="49.17744" lon="-0.60903">
        <ele>81</ele>
        <time>2023-04-25T13:45:12Z</time>
      </trkpt>
      <trkpt lat="49.17743" lon="-0.60896">
        <ele>81</ele>
        <time>2023-04-25T13:45:13Z</time>
      </trkpt>
      <trkpt lat="49.17742" lon="-0.60889">
        <ele>81</ele>
        <time>2023-04-25T13:45:14Z</time>
      </trkpt>
      <trkpt lat="49.1774" lon="-0.60881">
        <ele>81</ele>
        <time>2023-04-25T13:45:15Z</time>
      </trkpt>
      <trkpt lat="49.17739" lon="-0.60874">
        <ele>81</ele>
        <time>2023-04-25T13:45:16Z</time>
      </trkpt>
      <trkpt lat="49.17738" lon="-0.60866">
        <ele>81</ele>
        <time>2023-04-25T13:45:17Z</time>
      </trkpt>
      <trkpt lat="49.17737" lon="-0.60859">
        <ele>81</ele>
        <time>2023-04-25T13:45:18Z</time>
      </trkpt>
      <trkpt lat="49.17735" lon="-0.60852">
        <ele>81</ele>
        <time>2023-04-25T13:45:19Z</time>
      </trkpt>
      <trkpt lat="49.17734" lon="-0.60844">
        <ele>81</ele>
        <time>2023-04-25T13:45:20Z</time>
      </trkpt>
      <trkpt lat="49.17733" lon="-0.60836">
        <ele>81</ele>
        <time>2023-04-25T13:45:21Z</time>
      </trkpt>
      <trkpt lat="49.17732" lon="-0.60829">
        <ele>81</ele>
        <time>2023-04-25T13:45:22Z</time>
      </trkpt>
      <trkpt lat="49.17731" lon="-0.60821">
        <ele>81</ele>
        <time>2023-04-25T13:45:23Z</time>
      </trkpt>
      <trkpt lat="49.17729" lon="-0.60813">
        <ele>80.8</ele>
        <time>2023-04-25T13:45:24Z</time>
      </trkpt>
      <trkpt lat="49.17728" lon="-0.60805">
        <ele>80.6</ele>
        <time>2023-04-25T13:45:25Z</time>
      </trkpt>
      <trkpt lat="49.17727" lon="-0.60797">
        <ele>80.6</ele>
        <time>2023-04-25T13:45:26Z</time>
      </trkpt>
      <trkpt lat="49.17725" lon="-0.60789">
        <ele>80.6</ele>
        <time>2023-04-25T13:45:27Z</time>
      </trkpt>
      <trkpt lat="49.17724" lon="-0.60781">
        <ele>80.4</ele>
        <time>2023-04-25T13:45:28Z</time>
      </trkpt>
      <trkpt lat="49.17722" lon="-0.60772">
        <ele>80.4</ele>
        <time>2023-04-25T13:45:29Z</time>
      </trkpt>
      <trkpt lat="49.17721" lon="-0.60764">
        <ele>80.2</ele>
        <time>2023-04-25T13:45:30Z</time>
      </trkpt>
      <trkpt lat="49.17719" lon="-0.60755">
        <ele>80</ele>
        <time>2023-04-25T13:45:31Z</time>
      </trkpt>
      <trkpt lat="49.17718" lon="-0.60746">
        <ele>80</ele>
        <time>2023-04-25T13:45:32Z</time>
      </trkpt>
      <trkpt lat="49.17716" lon="-0.60737">
        <ele>80</ele>
        <time>2023-04-25T13:45:33Z</time>
      </trkpt>
      <trkpt lat="49.17714" lon="-0.60728">
        <ele>80</ele>
        <time>2023-04-25T13:45:34Z</time>
      </trkpt>
      <trkpt lat="49.17713" lon="-0.60718">
        <ele>80</ele>
        <time>2023-04-25T13:45:35Z</time>
      </trkpt>
      <trkpt lat="49.17711" lon="-0.60708">
        <ele>80</ele>
        <time>2023-04-25T13:45:36Z</time>
      </trkpt>
      <trkpt lat="49.17709" lon="-0.60698">
        <ele>80</ele>
        <time>2023-04-25T13:45:37Z</time>
      </trkpt>
      <trkpt lat="49.17708" lon="-0.60688">
        <ele>80</ele>
        <time>2023-04-25T13:45:38Z</time>
      </trkpt>
      <trkpt lat="49.17706" lon="-0.60678">
        <ele>80</ele>
        <time>2023-04-25T13:45:39Z</time>
      </trkpt>
      <trkpt lat="49.17704" lon="-0.60668">
        <ele>80</ele>
        <time>2023-04-25T13:45:40Z</time>
      </trkpt>
      <trkpt lat="49.17703" lon="-0.60658">
        <ele>80</ele>
        <time>2023-04-25T13:45:41Z</time>
      </trkpt>
      <trkpt lat="49.17701" lon="-0.60647">
        <ele>80</ele>
        <time>2023-04-25T13:45:42Z</time>
      </trkpt>
      <trkpt lat="49.17699" lon="-0.60637">
        <ele>79.8</ele>
        <time>2023-04-25T13:45:43Z</time>
      </trkpt>
      <trkpt lat="49.17698" lon="-0.60626">
        <ele>79.6</ele>
        <time>2023-04-25T13:45:44Z</time>
      </trkpt>
      <trkpt lat="49.17696" lon="-0.60616">
        <ele>79.6</ele>
        <time>2023-04-25T13:45:45Z</time>
      </trkpt>
      <trkpt lat="49.17694" lon="-0.60605">
        <ele>79.4</ele>
        <time>2023-04-25T13:45:46Z</time>
      </trkpt>
      <trkpt lat="49.17693" lon="-0.60594">
        <ele>79.2</ele>
        <time>2023-04-25T13:45:47Z</time>
      </trkpt>
      <trkpt lat="49.17691" lon="-0.60583">
        <ele>79</ele>
        <time>2023-04-25T13:45:48Z</time>
      </trkpt>
      <trkpt lat="49.17689" lon="-0.60572">
        <ele>78.6</ele>
        <time>2023-04-25T13:45:49Z</time>
      </trkpt>
      <trkpt lat="49.17688" lon="-0.60561">
        <ele>78.4</ele>
        <time>2023-04-25T13:45:50Z</time>
      </trkpt>
      <trkpt lat="49.17686" lon="-0.6055">
        <ele>78</ele>
        <time>2023-04-25T13:45:51Z</time>
      </trkpt>
      <trkpt lat="49.17684" lon="-0.6054">
        <ele>77.8</ele>
        <time>2023-04-25T13:45:52Z</time>
      </trkpt>
      <trkpt lat="49.17682" lon="-0.60528">
        <ele>77.4</ele>
        <time>2023-04-25T13:45:53Z</time>
      </trkpt>
      <trkpt lat="49.17681" lon="-0.60517">
        <ele>77</ele>
        <time>2023-04-25T13:45:54Z</time>
      </trkpt>
      <trkpt lat="49.17679" lon="-0.60506">
        <ele>76.6</ele>
        <time>2023-04-25T13:45:55Z</time>
      </trkpt>
      <trkpt lat="49.17677" lon="-0.60495">
        <ele>76.2</ele>
        <time>2023-04-25T13:45:56Z</time>
      </trkpt>
      <trkpt lat="49.17675" lon="-0.60483">
        <ele>76</ele>
        <time>2023-04-25T13:45:57Z</time>
      </trkpt>
      <trkpt lat="49.17673" lon="-0.60472">
        <ele>75.6</ele>
        <time>2023-04-25T13:45:58Z</time>
      </trkpt>
      <trkpt lat="49.17671" lon="-0.6046">
        <ele>75.2</ele>
        <time>2023-04-25T13:45:59Z</time>
      </trkpt>
      <trkpt lat="49.17669" lon="-0.60449">
        <ele>74.8</ele>
        <time>2023-04-25T13:46:00Z</time>
      </trkpt>
      <trkpt lat="49.17667" lon="-0.60437">
        <ele>74.6</ele>
        <time>2023-04-25T13:46:01Z</time>
      </trkpt>
      <trkpt lat="49.17665" lon="-0.60425">
        <ele>74</ele>
        <time>2023-04-25T13:46:02Z</time>
      </trkpt>
      <trkpt lat="49.17663" lon="-0.60413">
        <ele>74</ele>
        <time>2023-04-25T13:46:03Z</time>
      </trkpt>
      <trkpt lat="49.17661" lon="-0.60401">
        <ele>73.8</ele>
        <time>2023-04-25T13:46:04Z</time>
      </trkpt>
      <trkpt lat="49.17659" lon="-0.60389">
        <ele>73.8</ele>
        <time>2023-04-25T13:46:05Z</time>
      </trkpt>
      <trkpt lat="49.17657" lon="-0.60376">
        <ele>73.6</ele>
        <time>2023-04-25T13:46:06Z</time>
      </trkpt>
      <trkpt lat="49.17655" lon="-0.60364">
        <ele>73.6</ele>
        <time>2023-04-25T13:46:07Z</time>
      </trkpt>
      <trkpt lat="49.17653" lon="-0.60352">
        <ele>73.6</ele>
        <time>2023-04-25T13:46:08Z</time>
      </trkpt>
      <trkpt lat="49.17651" lon="-0.6034">
        <ele>73.6</ele>
        <time>2023-04-25T13:46:09Z</time>
      </trkpt>
      <trkpt lat="49.17649" lon="-0.60328">
        <ele>73.6</ele>
        <time>2023-04-25T13:46:10Z</time>
      </trkpt>
      <trkpt lat="49.17647" lon="-0.60316">
        <ele>73.8</ele>
        <time>2023-04-25T13:46:11Z</time>
      </trkpt>
      <trkpt lat="49.17645" lon="-0.60305">
        <ele>74</ele>
        <time>2023-04-25T13:46:12Z</time>
      </trkpt>
      <trkpt lat="49.17643" lon="-0.60293">
        <ele>74.2</ele>
        <time>2023-04-25T13:46:13Z</time>
      </trkpt>
      <trkpt lat="49.17641" lon="-0.60282">
        <ele>74.4</ele>
        <time>2023-04-25T13:46:14Z</time>
      </trkpt>
      <trkpt lat="49.17639" lon="-0.60271">
        <ele>74.6</ele>
        <time>2023-04-25T13:46:15Z</time>
      </trkpt>
      <trkpt lat="49.17638" lon="-0.6026">
        <ele>74.8</ele>
        <time>2023-04-25T13:46:16Z</time>
      </trkpt>
      <trkpt lat="49.17636" lon="-0.6025">
        <ele>75</ele>
        <time>2023-04-25T13:46:17Z</time>
      </trkpt>
      <trkpt lat="49.17634" lon="-0.6024">
        <ele>75.4</ele>
        <time>2023-04-25T13:46:18Z</time>
      </trkpt>
      <trkpt lat="49.17632" lon="-0.6023">
        <ele>75.6</ele>
        <time>2023-04-25T13:46:19Z</time>
      </trkpt>
      <trkpt lat="49.17631" lon="-0.60221">
        <ele>76</ele>
        <time>2023-04-25T13:46:20Z</time>
      </trkpt>
      <trkpt lat="49.17629" lon="-0.60212">
        <ele>76</ele>
        <time>2023-04-25T13:46:21Z</time>
      </trkpt>
      <trkpt lat="49.17628" lon="-0.60203">
        <ele>76.4</ele>
        <time>2023-04-25T13:46:22Z</time>
      </trkpt>
      <trkpt lat="49.17626" lon="-0.60194">
        <ele>76.6</ele>
        <time>2023-04-25T13:46:23Z</time>
      </trkpt>
      <trkpt lat="49.17625" lon="-0.60186">
        <ele>77</ele>
        <time>2023-04-25T13:46:24Z</time>
      </trkpt>
      <trkpt lat="49.17624" lon="-0.60177">
        <ele>77.2</ele>
        <time>2023-04-25T13:46:25Z</time>
      </trkpt>
      <trkpt lat="49.17622" lon="-0.60169">
        <ele>77.6</ele>
        <time>2023-04-25T13:46:26Z</time>
      </trkpt>
      <trkpt lat="49.17621" lon="-0.60161">
        <ele>77.6</ele>
        <time>2023-04-25T13:46:27Z</time>
      </trkpt>
      <trkpt lat="49.1762" lon="-0.60153">
        <ele>77.6</ele>
        <time>2023-04-25T13:46:28Z</time>
      </trkpt>
      <trkpt lat="49.17618" lon="-0.60146">
        <ele>77.6</ele>
        <time>2023-04-25T13:46:29Z</time>
      </trkpt>
      <trkpt lat="49.17617" lon="-0.60138">
        <ele>77.8</ele>
        <time>2023-04-25T13:46:30Z</time>
      </trkpt>
      <trkpt lat="49.17616" lon="-0.60131">
        <ele>78</ele>
        <time>2023-04-25T13:46:31Z</time>
      </trkpt>
      <trkpt lat="49.17615" lon="-0.60123">
        <ele>78</ele>
        <time>2023-04-25T13:46:32Z</time>
      </trkpt>
      <trkpt lat="49.17613" lon="-0.60116">
        <ele>78</ele>
        <time>2023-04-25T13:46:33Z</time>
      </trkpt>
      <trkpt lat="49.17612" lon="-0.60108">
        <ele>78</ele>
        <time>2023-04-25T13:46:34Z</time>
      </trkpt>
      <trkpt lat="49.17611" lon="-0.60101">
        <ele>78.2</ele>
        <time>2023-04-25T13:46:35Z</time>
      </trkpt>
      <trkpt lat="49.1761" lon="-0.60094">
        <ele>78.4</ele>
        <time>2023-04-25T13:46:36Z</time>
      </trkpt>
      <trkpt lat="49.17609" lon="-0.60086">
        <ele>78.4</ele>
        <time>2023-04-25T13:46:37Z</time>
      </trkpt>
      <trkpt lat="49.17607" lon="-0.60079">
        <ele>78.4</ele>
        <time>2023-04-25T13:46:38Z</time>
      </trkpt>
      <trkpt lat="49.17606" lon="-0.60072">
        <ele>78.6</ele>
        <time>2023-04-25T13:46:39Z</time>
      </trkpt>
      <trkpt lat="49.17605" lon="-0.60065">
        <ele>78.6</ele>
        <time>2023-04-25T13:46:40Z</time>
      </trkpt>
      <trkpt lat="49.17604" lon="-0.60058">
        <ele>78.6</ele>
        <time>2023-04-25T13:46:41Z</time>
      </trkpt>
      <trkpt lat="49.17603" lon="-0.60051">
        <ele>78.6</ele>
        <time>2023-04-25T13:46:42Z</time>
      </trkpt>
      <trkpt lat="49.17601" lon="-0.60044">
        <ele>78.6</ele>
        <time>2023-04-25T13:46:43Z</time>
      </trkpt>
      <trkpt lat="49.176" lon="-0.60037">
        <ele>78.6</ele>
        <time>2023-04-25T13:46:44Z</time>
      </trkpt>
      <trkpt lat="49.17599" lon="-0.6003">
        <ele>78.6</ele>
        <time>2023-04-25T13:46:45Z</time>
      </trkpt>
      <trkpt lat="49.17598" lon="-0.60023">
        <ele>78.8</ele>
        <time>2023-04-25T13:46:46Z</time>
      </trkpt>
      <trkpt lat="49.17597" lon="-0.60017">
        <ele>78.8</ele>
        <time>2023-04-25T13:46:47Z</time>
      </trkpt>
      <trkpt lat="49.17596" lon="-0.6001">
        <ele>78.8</ele>
        <time>2023-04-25T13:46:48Z</time>
      </trkpt>
      <trkpt lat="49.17594" lon="-0.60004">
        <ele>79</ele>
        <time>2023-04-25T13:46:49Z</time>
      </trkpt>
      <trkpt lat="49.17593" lon="-0.59997">
        <ele>79</ele>
        <time>2023-04-25T13:46:50Z</time>
      </trkpt>
      <trkpt lat="49.17592" lon="-0.59991">
        <ele>79</ele>
        <time>2023-04-25T13:46:51Z</time>
      </trkpt>
      <trkpt lat="49.17591" lon="-0.59984">
        <ele>79</ele>
        <time>2023-04-25T13:46:52Z</time>
      </trkpt>
      <trkpt lat="49.1759" lon="-0.59977">
        <ele>79.2</ele>
        <time>2023-04-25T13:46:53Z</time>
      </trkpt>
      <trkpt lat="49.17589" lon="-0.59971">
        <ele>79.4</ele>
        <time>2023-04-25T13:46:54Z</time>
      </trkpt>
      <trkpt lat="49.17588" lon="-0.59964">
        <ele>79.4</ele>
        <time>2023-04-25T13:46:55Z</time>
      </trkpt>
      <trkpt lat="49.17587" lon="-0.59957">
        <ele>79.6</ele>
        <time>2023-04-25T13:46:56Z</time>
      </trkpt>
      <trkpt lat="49.17586" lon="-0.5995">
        <ele>79.6</ele>
        <time>2023-04-25T13:46:57Z</time>
      </trkpt>
      <trkpt lat="49.17584" lon="-0.59943">
        <ele>79.6</ele>
        <time>2023-04-25T13:46:58Z</time>
      </trkpt>
      <trkpt lat="49.17583" lon="-0.59936">
        <ele>79.8</ele>
        <time>2023-04-25T13:46:59Z</time>
      </trkpt>
      <trkpt lat="49.17582" lon="-0.59929">
        <ele>80</ele>
        <time>2023-04-25T13:47:00Z</time>
      </trkpt>
      <trkpt lat="49.17581" lon="-0.59922">
        <ele>80</ele>
        <time>2023-04-25T13:47:01Z</time>
      </trkpt>
      <trkpt lat="49.1758" lon="-0.59915">
        <ele>80</ele>
        <time>2023-04-25T13:47:02Z</time>
      </trkpt>
      <trkpt lat="49.17578" lon="-0.59908">
        <ele>80</ele>
        <time>2023-04-25T13:47:03Z</time>
      </trkpt>
      <trkpt lat="49.17577" lon="-0.59901">
        <ele>80</ele>
        <time>2023-04-25T13:47:04Z</time>
      </trkpt>
      <trkpt lat="49.17576" lon="-0.59894">
        <ele>80</ele>
        <time>2023-04-25T13:47:05Z</time>
      </trkpt>
      <trkpt lat="49.17575" lon="-0.59886">
        <ele>80</ele>
        <time>2023-04-25T13:47:06Z</time>
      </trkpt>
      <trkpt lat="49.17573" lon="-0.59879">
        <ele>80.2</ele>
        <time>2023-04-25T13:47:07Z</time>
      </trkpt>
      <trkpt lat="49.17572" lon="-0.59872">
        <ele>80.2</ele>
        <time>2023-04-25T13:47:08Z</time>
      </trkpt>
      <trkpt lat="49.17571" lon="-0.59864">
        <ele>80.2</ele>
        <time>2023-04-25T13:47:09Z</time>
      </trkpt>
      <trkpt lat="49.1757" lon="-0.59857">
        <ele>80.4</ele>
        <time>2023-04-25T13:47:10Z</time>
      </trkpt>
      <trkpt lat="49.17569" lon="-0.5985">
        <ele>80.4</ele>
        <time>2023-04-25T13:47:11Z</time>
      </trkpt>
      <trkpt lat="49.17567" lon="-0.59843">
        <ele>80.4</ele>
        <time>2023-04-25T13:47:12Z</time>
      </trkpt>
      <trkpt lat="49.17566" lon="-0.59835">
        <ele>80.4</ele>
        <time>2023-04-25T13:47:13Z</time>
      </trkpt>
      <trkpt lat="49.17565" lon="-0.59828">
        <ele>80.6</ele>
        <time>2023-04-25T13:47:14Z</time>
      </trkpt>
      <trkpt lat="49.17564" lon="-0.59821">
        <ele>80.6</ele>
        <time>2023-04-25T13:47:15Z</time>
      </trkpt>
      <trkpt lat="49.17563" lon="-0.59814">
        <ele>80.6</ele>
        <time>2023-04-25T13:47:16Z</time>
      </trkpt>
      <trkpt lat="49.17561" lon="-0.59806">
        <ele>80.8</ele>
        <time>2023-04-25T13:47:17Z</time>
      </trkpt>
      <trkpt lat="49.1756" lon="-0.59799">
        <ele>81</ele>
        <time>2023-04-25T13:47:18Z</time>
      </trkpt>
      <trkpt lat="49.17559" lon="-0.59792">
        <ele>81</ele>
        <time>2023-04-25T13:47:19Z</time>
      </trkpt>
      <trkpt lat="49.17558" lon="-0.59784">
        <ele>81</ele>
        <time>2023-04-25T13:47:20Z</time>
      </trkpt>
      <trkpt lat="49.17556" lon="-0.59777">
        <ele>81</ele>
        <time>2023-04-25T13:47:21Z</time>
      </trkpt>
      <trkpt lat="49.17555" lon="-0.5977">
        <ele>81.2</ele>
        <time>2023-04-25T13:47:22Z</time>
      </trkpt>
      <trkpt lat="49.17554" lon="-0.59763">
        <ele>81.4</ele>
        <time>2023-04-25T13:47:23Z</time>
      </trkpt>
      <trkpt lat="49.17553" lon="-0.59755">
        <ele>81.4</ele>
        <time>2023-04-25T13:47:24Z</time>
      </trkpt>
      <trkpt lat="49.17551" lon="-0.59748">
        <ele>81.4</ele>
        <time>2023-04-25T13:47:25Z</time>
      </trkpt>
      <trkpt lat="49.1755" lon="-0.5974">
        <ele>81.6</ele>
        <time>2023-04-25T13:47:26Z</time>
      </trkpt>
      <trkpt lat="49.17549" lon="-0.59733">
        <ele>81.6</ele>
        <time>2023-04-25T13:47:27Z</time>
      </trkpt>
      <trkpt lat="49.17548" lon="-0.59726">
        <ele>81.8</ele>
        <time>2023-04-25T13:47:28Z</time>
      </trkpt>
      <trkpt lat="49.17547" lon="-0.59718">
        <ele>82</ele>
        <time>2023-04-25T13:47:29Z</time>
      </trkpt>
      <trkpt lat="49.17545" lon="-0.59711">
        <ele>82</ele>
        <time>2023-04-25T13:47:30Z</time>
      </trkpt>
      <trkpt lat="49.17544" lon="-0.59704">
        <ele>82.4</ele>
        <time>2023-04-25T13:47:31Z</time>
      </trkpt>
      <trkpt lat="49.17543" lon="-0.59696">
        <ele>82.4</ele>
        <time>2023-04-25T13:47:32Z</time>
      </trkpt>
      <trkpt lat="49.17542" lon="-0.59689">
        <ele>82.6</ele>
        <time>2023-04-25T13:47:33Z</time>
      </trkpt>
      <trkpt lat="49.1754" lon="-0.59682">
        <ele>82.8</ele>
        <time>2023-04-25T13:47:34Z</time>
      </trkpt>
      <trkpt lat="49.17539" lon="-0.59674">
        <ele>83</ele>
        <time>2023-04-25T13:47:35Z</time>
      </trkpt>
      <trkpt lat="49.17538" lon="-0.59667">
        <ele>83</ele>
        <time>2023-04-25T13:47:36Z</time>
      </trkpt>
      <trkpt lat="49.17537" lon="-0.5966">
        <ele>83.2</ele>
        <time>2023-04-25T13:47:37Z</time>
      </trkpt>
      <trkpt lat="49.17535" lon="-0.59652">
        <ele>83.2</ele>
        <time>2023-04-25T13:47:38Z</time>
      </trkpt>
      <trkpt lat="49.17534" lon="-0.59645">
        <ele>83.4</ele>
        <time>2023-04-25T13:47:39Z</time>
      </trkpt>
      <trkpt lat="49.17533" lon="-0.59638">
        <ele>83.4</ele>
        <time>2023-04-25T13:47:40Z</time>
      </trkpt>
      <trkpt lat="49.17532" lon="-0.59631">
        <ele>83.4</ele>
        <time>2023-04-25T13:47:41Z</time>
      </trkpt>
      <trkpt lat="49.17531" lon="-0.59624">
        <ele>83.6</ele>
        <time>2023-04-25T13:47:42Z</time>
      </trkpt>
      <trkpt lat="49.17529" lon="-0.59616">
        <ele>83.6</ele>
        <time>2023-04-25T13:47:43Z</time>
      </trkpt>
      <trkpt lat="49.17528" lon="-0.59609">
        <ele>83.6</ele>
        <time>2023-04-25T13:47:44Z</time>
      </trkpt>
      <trkpt lat="49.17527" lon="-0.59602">
        <ele>83.6</ele>
        <time>2023-04-25T13:47:45Z</time>
      </trkpt>
      <trkpt lat="49.17526" lon="-0.59595">
        <ele>83.6</ele>
        <time>2023-04-25T13:47:46Z</time>
      </trkpt>
      <trkpt lat="49.17525" lon="-0.59588">
        <ele>83.6</ele>
        <time>2023-04-25T13:47:47Z</time>
      </trkpt>
      <trkpt lat="49.17523" lon="-0.5958">
        <ele>83.6</ele>
        <time>2023-04-25T13:47:48Z</time>
      </trkpt>
      <trkpt lat="49.17522" lon="-0.59573">
        <ele>83.6</ele>
        <time>2023-04-25T13:47:49Z</time>
      </trkpt>
      <trkpt lat="49.17521" lon="-0.59566">
        <ele>83.6</ele>
        <time>2023-04-25T13:47:50Z</time>
      </trkpt>
      <trkpt lat="49.1752" lon="-0.59559">
        <ele>83.6</ele>
        <time>2023-04-25T13:47:51Z</time>
      </trkpt>
      <trkpt lat="49.17519" lon="-0.59551">
        <ele>83.6</ele>
        <time>2023-04-25T13:47:52Z</time>
      </trkpt>
      <trkpt lat="49.17517" lon="-0.59544">
        <ele>83.6</ele>
        <time>2023-04-25T13:47:53Z</time>
      </trkpt>
      <trkpt lat="49.17516" lon="-0.59536">
        <ele>83.6</ele>
        <time>2023-04-25T13:47:54Z</time>
      </trkpt>
      <trkpt lat="49.17515" lon="-0.59529">
        <ele>83.6</ele>
        <time>2023-04-25T13:47:55Z</time>
      </trkpt>
      <trkpt lat="49.17514" lon="-0.59522">
        <ele>83.6</ele>
        <time>2023-04-25T13:47:56Z</time>
      </trkpt>
      <trkpt lat="49.17512" lon="-0.59514">
        <ele>83.6</ele>
        <time>2023-04-25T13:47:57Z</time>
      </trkpt>
      <trkpt lat="49.17511" lon="-0.59507">
        <ele>83.6</ele>
        <time>2023-04-25T13:47:58Z</time>
      </trkpt>
      <trkpt lat="49.1751" lon="-0.59499">
        <ele>83.6</ele>
        <time>2023-04-25T13:47:59Z</time>
      </trkpt>
      <trkpt lat="49.17509" lon="-0.59491">
        <ele>83.6</ele>
        <time>2023-04-25T13:48:00Z</time>
      </trkpt>
      <trkpt lat="49.17508" lon="-0.59484">
        <ele>83.6</ele>
        <time>2023-04-25T13:48:01Z</time>
      </trkpt>
      <trkpt lat="49.17506" lon="-0.59476">
        <ele>83.6</ele>
        <time>2023-04-25T13:48:02Z</time>
      </trkpt>
      <trkpt lat="49.17505" lon="-0.59469">
        <ele>83.6</ele>
        <time>2023-04-25T13:48:03Z</time>
      </trkpt>
      <trkpt lat="49.17504" lon="-0.59461">
        <ele>83.4</ele>
        <time>2023-04-25T13:48:04Z</time>
      </trkpt>
      <trkpt lat="49.17502" lon="-0.59453">
        <ele>83.4</ele>
        <time>2023-04-25T13:48:05Z</time>
      </trkpt>
      <trkpt lat="49.17501" lon="-0.59445">
        <ele>83.4</ele>
        <time>2023-04-25T13:48:06Z</time>
      </trkpt>
      <trkpt lat="49.175" lon="-0.59437">
        <ele>83.4</ele>
        <time>2023-04-25T13:48:07Z</time>
      </trkpt>
      <trkpt lat="49.17498" lon="-0.5943">
        <ele>83.2</ele>
        <time>2023-04-25T13:48:08Z</time>
      </trkpt>
      <trkpt lat="49.17497" lon="-0.59422">
        <ele>83</ele>
        <time>2023-04-25T13:48:09Z</time>
      </trkpt>
      <trkpt lat="49.17496" lon="-0.59414">
        <ele>83</ele>
        <time>2023-04-25T13:48:10Z</time>
      </trkpt>
      <trkpt lat="49.17495" lon="-0.59406">
        <ele>83</ele>
        <time>2023-04-25T13:48:11Z</time>
      </trkpt>
      <trkpt lat="49.17493" lon="-0.59398">
        <ele>83.2</ele>
        <time>2023-04-25T13:48:12Z</time>
      </trkpt>
      <trkpt lat="49.17492" lon="-0.5939">
        <ele>83.2</ele>
        <time>2023-04-25T13:48:13Z</time>
      </trkpt>
      <trkpt lat="49.17491" lon="-0.59382">
        <ele>83.2</ele>
        <time>2023-04-25T13:48:14Z</time>
      </trkpt>
      <trkpt lat="49.17489" lon="-0.59374">
        <ele>83.4</ele>
        <time>2023-04-25T13:48:15Z</time>
      </trkpt>
      <trkpt lat="49.17488" lon="-0.59366">
        <ele>83.4</ele>
        <time>2023-04-25T13:48:16Z</time>
      </trkpt>
      <trkpt lat="49.17486" lon="-0.59358">
        <ele>83.4</ele>
        <time>2023-04-25T13:48:17Z</time>
      </trkpt>
      <trkpt lat="49.17485" lon="-0.5935">
        <ele>83.4</ele>
        <time>2023-04-25T13:48:18Z</time>
      </trkpt>
      <trkpt lat="49.17484" lon="-0.59342">
        <ele>83.4</ele>
        <time>2023-04-25T13:48:19Z</time>
      </trkpt>
      <trkpt lat="49.17482" lon="-0.59334">
        <ele>83.4</ele>
        <time>2023-04-25T13:48:20Z</time>
      </trkpt>
      <trkpt lat="49.17481" lon="-0.59326">
        <ele>83.6</ele>
        <time>2023-04-25T13:48:21Z</time>
      </trkpt>
      <trkpt lat="49.1748" lon="-0.59319">
        <ele>83.6</ele>
        <time>2023-04-25T13:48:22Z</time>
      </trkpt>
      <trkpt lat="49.17479" lon="-0.59311">
        <ele>83.6</ele>
        <time>2023-04-25T13:48:23Z</time>
      </trkpt>
      <trkpt lat="49.17478" lon="-0.59304">
        <ele>83.6</ele>
        <time>2023-04-25T13:48:24Z</time>
      </trkpt>
      <trkpt lat="49.17476" lon="-0.59296">
        <ele>83.8</ele>
        <time>2023-04-25T13:48:25Z</time>
      </trkpt>
      <trkpt lat="49.17475" lon="-0.59289">
        <ele>83.8</ele>
        <time>2023-04-25T13:48:26Z</time>
      </trkpt>
      <trkpt lat="49.17474" lon="-0.59282">
        <ele>84</ele>
        <time>2023-04-25T13:48:27Z</time>
      </trkpt>
      <trkpt lat="49.17473" lon="-0.59275">
        <ele>84</ele>
        <time>2023-04-25T13:48:28Z</time>
      </trkpt>
      <trkpt lat="49.17472" lon="-0.59268">
        <ele>84</ele>
        <time>2023-04-25T13:48:29Z</time>
      </trkpt>
      <trkpt lat="49.1747" lon="-0.59261">
        <ele>84</ele>
        <time>2023-04-25T13:48:30Z</time>
      </trkpt>
      <trkpt lat="49.17469" lon="-0.59254">
        <ele>84</ele>
        <time>2023-04-25T13:48:31Z</time>
      </trkpt>
      <trkpt lat="49.17468" lon="-0.59247">
        <ele>84</ele>
        <time>2023-04-25T13:48:32Z</time>
      </trkpt>
      <trkpt lat="49.17467" lon="-0.59239">
        <ele>84</ele>
        <time>2023-04-25T13:48:33Z</time>
      </trkpt>
      <trkpt lat="49.17465" lon="-0.59232">
        <ele>83.8</ele>
        <time>2023-04-25T13:48:34Z</time>
      </trkpt>
      <trkpt lat="49.17464" lon="-0.59225">
        <ele>83.6</ele>
        <time>2023-04-25T13:48:35Z</time>
      </trkpt>
      <trkpt lat="49.17463" lon="-0.59218">
        <ele>83.6</ele>
        <time>2023-04-25T13:48:36Z</time>
      </trkpt>
      <trkpt lat="49.17462" lon="-0.5921">
        <ele>83.6</ele>
        <time>2023-04-25T13:48:37Z</time>
      </trkpt>
      <trkpt lat="49.1746" lon="-0.59202">
        <ele>83.4</ele>
        <time>2023-04-25T13:48:38Z</time>
      </trkpt>
      <trkpt lat="49.17459" lon="-0.59195">
        <ele>83.4</ele>
        <time>2023-04-25T13:48:39Z</time>
      </trkpt>
      <trkpt lat="49.17458" lon="-0.59187">
        <ele>83.2</ele>
        <time>2023-04-25T13:48:40Z</time>
      </trkpt>
      <trkpt lat="49.17456" lon="-0.59179">
        <ele>83.2</ele>
        <time>2023-04-25T13:48:41Z</time>
      </trkpt>
      <trkpt lat="49.17455" lon="-0.59172">
        <ele>83</ele>
        <time>2023-04-25T13:48:42Z</time>
      </trkpt>
      <trkpt lat="49.17454" lon="-0.59164">
        <ele>83</ele>
        <time>2023-04-25T13:48:43Z</time>
      </trkpt>
      <trkpt lat="49.17453" lon="-0.59157">
        <ele>83</ele>
        <time>2023-04-25T13:48:44Z</time>
      </trkpt>
      <trkpt lat="49.17452" lon="-0.59149">
        <ele>83</ele>
        <time>2023-04-25T13:48:45Z</time>
      </trkpt>
      <trkpt lat="49.1745" lon="-0.59142">
        <ele>83</ele>
        <time>2023-04-25T13:48:46Z</time>
      </trkpt>
      <trkpt lat="49.17449" lon="-0.59134">
        <ele>83</ele>
        <time>2023-04-25T13:48:47Z</time>
      </trkpt>
      <trkpt lat="49.17448" lon="-0.59127">
        <ele>83</ele>
        <time>2023-04-25T13:48:48Z</time>
      </trkpt>
      <trkpt lat="49.17447" lon="-0.5912">
        <ele>83</ele>
        <time>2023-04-25T13:48:49Z</time>
      </trkpt>
      <trkpt lat="49.17445" lon="-0.59112">
        <ele>83</ele>
        <time>2023-04-25T13:48:50Z</time>
      </trkpt>
      <trkpt lat="49.17444" lon="-0.59105">
        <ele>83</ele>
        <time>2023-04-25T13:48:51Z</time>
      </trkpt>
      <trkpt lat="49.17443" lon="-0.59097">
        <ele>83</ele>
        <time>2023-04-25T13:48:52Z</time>
      </trkpt>
      <trkpt lat="49.17442" lon="-0.5909">
        <ele>83</ele>
        <time>2023-04-25T13:48:53Z</time>
      </trkpt>
      <trkpt lat="49.1744" lon="-0.59082">
        <ele>83</ele>
        <time>2023-04-25T13:48:54Z</time>
      </trkpt>
      <trkpt lat="49.17439" lon="-0.59075">
        <ele>83</ele>
        <time>2023-04-25T13:48:55Z</time>
      </trkpt>
      <trkpt lat="49.17438" lon="-0.59067">
        <ele>83.2</ele>
        <time>2023-04-25T13:48:56Z</time>
      </trkpt>
      <trkpt lat="49.17436" lon="-0.59059">
        <ele>83.4</ele>
        <time>2023-04-25T13:48:57Z</time>
      </trkpt>
      <trkpt lat="49.17435" lon="-0.59052">
        <ele>83.4</ele>
        <time>2023-04-25T13:48:58Z</time>
      </trkpt>
      <trkpt lat="49.17434" lon="-0.59044">
        <ele>83.6</ele>
        <time>2023-04-25T13:48:59Z</time>
      </trkpt>
      <trkpt lat="49.17432" lon="-0.59036">
        <ele>83.6</ele>
        <time>2023-04-25T13:49:00Z</time>
      </trkpt>
      <trkpt lat="49.17431" lon="-0.59029">
        <ele>83.6</ele>
        <time>2023-04-25T13:49:01Z</time>
      </trkpt>
      <trkpt lat="49.1743" lon="-0.59021">
        <ele>83.6</ele>
        <time>2023-04-25T13:49:02Z</time>
      </trkpt>
      <trkpt lat="49.17429" lon="-0.59014">
        <ele>83.8</ele>
        <time>2023-04-25T13:49:03Z</time>
      </trkpt>
      <trkpt lat="49.17428" lon="-0.59007">
        <ele>84</ele>
        <time>2023-04-25T13:49:04Z</time>
      </trkpt>
      <trkpt lat="49.17426" lon="-0.59">
        <ele>84</ele>
        <time>2023-04-25T13:49:05Z</time>
      </trkpt>
      <trkpt lat="49.17425" lon="-0.58994">
        <ele>84</ele>
        <time>2023-04-25T13:49:06Z</time>
      </trkpt>
      <trkpt lat="49.17424" lon="-0.58987">
        <ele>84</ele>
        <time>2023-04-25T13:49:07Z</time>
      </trkpt>
      <trkpt lat="49.17423" lon="-0.5898">
        <ele>84</ele>
        <time>2023-04-25T13:49:08Z</time>
      </trkpt>
      <trkpt lat="49.17422" lon="-0.58973">
        <ele>84</ele>
        <time>2023-04-25T13:49:09Z</time>
      </trkpt>
      <trkpt lat="49.17421" lon="-0.58966">
        <ele>84</ele>
        <time>2023-04-25T13:49:10Z</time>
      </trkpt>
      <trkpt lat="49.17419" lon="-0.58959">
        <ele>84</ele>
        <time>2023-04-25T13:49:11Z</time>
      </trkpt>
      <trkpt lat="49.17418" lon="-0.58952">
        <ele>84</ele>
        <time>2023-04-25T13:49:12Z</time>
      </trkpt>
      <trkpt lat="49.17417" lon="-0.58944">
        <ele>84</ele>
        <time>2023-04-25T13:49:13Z</time>
      </trkpt>
      <trkpt lat="49.17416" lon="-0.58937">
        <ele>84</ele>
        <time>2023-04-25T13:49:14Z</time>
      </trkpt>
      <trkpt lat="49.17415" lon="-0.5893">
        <ele>84</ele>
        <time>2023-04-25T13:49:15Z</time>
      </trkpt>
      <trkpt lat="49.17413" lon="-0.58923">
        <ele>84</ele>
        <time>2023-04-25T13:49:16Z</time>
      </trkpt>
      <trkpt lat="49.17412" lon="-0.58916">
        <ele>84</ele>
        <time>2023-04-25T13:49:17Z</time>
      </trkpt>
      <trkpt lat="49.17411" lon="-0.58908">
        <ele>84</ele>
        <time>2023-04-25T13:49:18Z</time>
      </trkpt>
      <trkpt lat="49.1741" lon="-0.58901">
        <ele>84</ele>
        <time>2023-04-25T13:49:19Z</time>
      </trkpt>
      <trkpt lat="49.17409" lon="-0.58894">
        <ele>84</ele>
        <time>2023-04-25T13:49:20Z</time>
      </trkpt>
      <trkpt lat="49.17407" lon="-0.58886">
        <ele>84</ele>
        <time>2023-04-25T13:49:21Z</time>
      </trkpt>
      <trkpt lat="49.17406" lon="-0.58879">
        <ele>84</ele>
        <time>2023-04-25T13:49:22Z</time>
      </trkpt>
      <trkpt lat="49.17405" lon="-0.58872">
        <ele>84</ele>
        <time>2023-04-25T13:49:23Z</time>
      </trkpt>
      <trkpt lat="49.17404" lon="-0.58864">
        <ele>84</ele>
        <time>2023-04-25T13:49:24Z</time>
      </trkpt>
      <trkpt lat="49.17403" lon="-0.58857">
        <ele>84</ele>
        <time>2023-04-25T13:49:25Z</time>
      </trkpt>
      <trkpt lat="49.17401" lon="-0.5885">
        <ele>84</ele>
        <time>2023-04-25T13:49:26Z</time>
      </trkpt>
      <trkpt lat="49.174" lon="-0.58842">
        <ele>84</ele>
        <time>2023-04-25T13:49:27Z</time>
      </trkpt>
      <trkpt lat="49.17399" lon="-0.58835">
        <ele>84</ele>
        <time>2023-04-25T13:49:28Z</time>
      </trkpt>
      <trkpt lat="49.17398" lon="-0.58827">
        <ele>84</ele>
        <time>2023-04-25T13:49:29Z</time>
      </trkpt>
      <trkpt lat="49.17396" lon="-0.5882">
        <ele>84</ele>
        <time>2023-04-25T13:49:30Z</time>
      </trkpt>
      <trkpt lat="49.17395" lon="-0.58813">
        <ele>84</ele>
        <time>2023-04-25T13:49:31Z</time>
      </trkpt>
      <trkpt lat="49.17394" lon="-0.58805">
        <ele>84</ele>
        <time>2023-04-25T13:49:32Z</time>
      </trkpt>
      <trkpt lat="49.17393" lon="-0.58797">
        <ele>84</ele>
        <time>2023-04-25T13:49:33Z</time>
      </trkpt>
      <trkpt lat="49.17391" lon="-0.5879">
        <ele>84.2</ele>
        <time>2023-04-25T13:49:34Z</time>
      </trkpt>
      <trkpt lat="49.1739" lon="-0.58782">
        <ele>84.2</ele>
        <time>2023-04-25T13:49:35Z</time>
      </trkpt>
      <trkpt lat="49.17389" lon="-0.58775">
        <ele>84.2</ele>
        <time>2023-04-25T13:49:36Z</time>
      </trkpt>
      <trkpt lat="49.17387" lon="-0.58767">
        <ele>84.4</ele>
        <time>2023-04-25T13:49:37Z</time>
      </trkpt>
      <trkpt lat="49.17386" lon="-0.58759">
        <ele>84.4</ele>
        <time>2023-04-25T13:49:38Z</time>
      </trkpt>
      <trkpt lat="49.17385" lon="-0.58752">
        <ele>84.4</ele>
        <time>2023-04-25T13:49:39Z</time>
      </trkpt>
      <trkpt lat="49.17384" lon="-0.58744">
        <ele>84.4</ele>
        <time>2023-04-25T13:49:40Z</time>
      </trkpt>
      <trkpt lat="49.17382" lon="-0.58736">
        <ele>84.4</ele>
        <time>2023-04-25T13:49:41Z</time>
      </trkpt>
      <trkpt lat="49.17381" lon="-0.58728">
        <ele>84.4</ele>
        <time>2023-04-25T13:49:42Z</time>
      </trkpt>
      <trkpt lat="49.1738" lon="-0.5872">
        <ele>84.4</ele>
        <time>2023-04-25T13:49:43Z</time>
      </trkpt>
      <trkpt lat="49.17378" lon="-0.58713">
        <ele>84.6</ele>
        <time>2023-04-25T13:49:44Z</time>
      </trkpt>
      <trkpt lat="49.17377" lon="-0.58705">
        <ele>84.6</ele>
        <time>2023-04-25T13:49:45Z</time>
      </trkpt>
      <trkpt lat="49.17376" lon="-0.58697">
        <ele>84.6</ele>
        <time>2023-04-25T13:49:46Z</time>
      </trkpt>
      <trkpt lat="49.17374" lon="-0.58689">
        <ele>84.6</ele>
        <time>2023-04-25T13:49:47Z</time>
      </trkpt>
      <trkpt lat="49.17373" lon="-0.58681">
        <ele>84.6</ele>
        <time>2023-04-25T13:49:48Z</time>
      </trkpt>
      <trkpt lat="49.17372" lon="-0.58673">
        <ele>84.6</ele>
        <time>2023-04-25T13:49:49Z</time>
      </trkpt>
      <trkpt lat="49.1737" lon="-0.58665">
        <ele>84.6</ele>
        <time>2023-04-25T13:49:50Z</time>
      </trkpt>
      <trkpt lat="49.17369" lon="-0.58656">
        <ele>84.6</ele>
        <time>2023-04-25T13:49:51Z</time>
      </trkpt>
      <trkpt lat="49.17368" lon="-0.58648">
        <ele>84.6</ele>
        <time>2023-04-25T13:49:52Z</time>
      </trkpt>
      <trkpt lat="49.17366" lon="-0.5864">
        <ele>84.4</ele>
        <time>2023-04-25T13:49:53Z</time>
      </trkpt>
      <trkpt lat="49.17365" lon="-0.58632">
        <ele>84.4</ele>
        <time>2023-04-25T13:49:54Z</time>
      </trkpt>
      <trkpt lat="49.17363" lon="-0.58624">
        <ele>84.4</ele>
        <time>2023-04-25T13:49:55Z</time>
      </trkpt>
      <trkpt lat="49.17362" lon="-0.58615">
        <ele>84.4</ele>
        <time>2023-04-25T13:49:56Z</time>
      </trkpt>
      <trkpt lat="49.17361" lon="-0.58607">
        <ele>84.2</ele>
        <time>2023-04-25T13:49:57Z</time>
      </trkpt>
      <trkpt lat="49.17359" lon="-0.58598">
        <ele>84</ele>
        <time>2023-04-25T13:49:58Z</time>
      </trkpt>
      <trkpt lat="49.17358" lon="-0.5859">
        <ele>84</ele>
        <time>2023-04-25T13:49:59Z</time>
      </trkpt>
      <trkpt lat="49.17357" lon="-0.58582">
        <ele>84</ele>
        <time>2023-04-25T13:50:00Z</time>
      </trkpt>
      <trkpt lat="49.17355" lon="-0.58573">
        <ele>84</ele>
        <time>2023-04-25T13:50:01Z</time>
      </trkpt>
      <trkpt lat="49.17354" lon="-0.58564">
        <ele>84</ele>
        <time>2023-04-25T13:50:02Z</time>
      </trkpt>
      <trkpt lat="49.17352" lon="-0.58556">
        <ele>84</ele>
        <time>2023-04-25T13:50:03Z</time>
      </trkpt>
      <trkpt lat="49.17351" lon="-0.58547">
        <ele>84</ele>
        <time>2023-04-25T13:50:04Z</time>
      </trkpt>
      <trkpt lat="49.17349" lon="-0.58539">
        <ele>84</ele>
        <time>2023-04-25T13:50:05Z</time>
      </trkpt>
      <trkpt lat="49.17348" lon="-0.5853">
        <ele>84</ele>
        <time>2023-04-25T13:50:06Z</time>
      </trkpt>
      <trkpt lat="49.17347" lon="-0.58521">
        <ele>84</ele>
        <time>2023-04-25T13:50:07Z</time>
      </trkpt>
      <trkpt lat="49.17345" lon="-0.58513">
        <ele>84</ele>
        <time>2023-04-25T13:50:08Z</time>
      </trkpt>
      <trkpt lat="49.17344" lon="-0.58504">
        <ele>84</ele>
        <time>2023-04-25T13:50:09Z</time>
      </trkpt>
      <trkpt lat="49.17342" lon="-0.58495">
        <ele>84</ele>
        <time>2023-04-25T13:50:10Z</time>
      </trkpt>
      <trkpt lat="49.17341" lon="-0.58486">
        <ele>84</ele>
        <time>2023-04-25T13:50:11Z</time>
      </trkpt>
      <trkpt lat="49.17339" lon="-0.58477">
        <ele>84</ele>
        <time>2023-04-25T13:50:12Z</time>
      </trkpt>
      <trkpt lat="49.17338" lon="-0.58469">
        <ele>84</ele>
        <time>2023-04-25T13:50:13Z</time>
      </trkpt>
      <trkpt lat="49.17336" lon="-0.5846">
        <ele>84</ele>
        <time>2023-04-25T13:50:14Z</time>
      </trkpt>
      <trkpt lat="49.17335" lon="-0.58451">
        <ele>84</ele>
        <time>2023-04-25T13:50:15Z</time>
      </trkpt>
      <trkpt lat="49.17333" lon="-0.58442">
        <ele>84</ele>
        <time>2023-04-25T13:50:16Z</time>
      </trkpt>
      <trkpt lat="49.17332" lon="-0.58433">
        <ele>84</ele>
        <time>2023-04-25T13:50:17Z</time>
      </trkpt>
      <trkpt lat="49.1733" lon="-0.58424">
        <ele>84</ele>
        <time>2023-04-25T13:50:18Z</time>
      </trkpt>
      <trkpt lat="49.17329" lon="-0.58415">
        <ele>84</ele>
        <time>2023-04-25T13:50:19Z</time>
      </trkpt>
      <trkpt lat="49.17327" lon="-0.58407">
        <ele>84</ele>
        <time>2023-04-25T13:50:20Z</time>
      </trkpt>
      <trkpt lat="49.17326" lon="-0.58398">
        <ele>84.2</ele>
        <time>2023-04-25T13:50:21Z</time>
      </trkpt>
      <trkpt lat="49.17325" lon="-0.58389">
        <ele>84.4</ele>
        <time>2023-04-25T13:50:22Z</time>
      </trkpt>
      <trkpt lat="49.17323" lon="-0.58381">
        <ele>84.4</ele>
        <time>2023-04-25T13:50:23Z</time>
      </trkpt>
      <trkpt lat="49.17322" lon="-0.58372">
        <ele>84.6</ele>
        <time>2023-04-25T13:50:24Z</time>
      </trkpt>
      <trkpt lat="49.1732" lon="-0.58364">
        <ele>84.6</ele>
        <time>2023-04-25T13:50:25Z</time>
      </trkpt>
      <trkpt lat="49.17319" lon="-0.58356">
        <ele>84.8</ele>
        <time>2023-04-25T13:50:26Z</time>
      </trkpt>
      <trkpt lat="49.17318" lon="-0.58348">
        <ele>85</ele>
        <time>2023-04-25T13:50:27Z</time>
      </trkpt>
      <trkpt lat="49.17317" lon="-0.5834">
        <ele>85</ele>
        <time>2023-04-25T13:50:28Z</time>
      </trkpt>
      <trkpt lat="49.17315" lon="-0.58332">
        <ele>85</ele>
        <time>2023-04-25T13:50:29Z</time>
      </trkpt>
      <trkpt lat="49.17314" lon="-0.58324">
        <ele>85</ele>
        <time>2023-04-25T13:50:30Z</time>
      </trkpt>
      <trkpt lat="49.17313" lon="-0.58316">
        <ele>85</ele>
        <time>2023-04-25T13:50:31Z</time>
      </trkpt>
      <trkpt lat="49.17311" lon="-0.58308">
        <ele>85</ele>
        <time>2023-04-25T13:50:32Z</time>
      </trkpt>
      <trkpt lat="49.1731" lon="-0.58301">
        <ele>85</ele>
        <time>2023-04-25T13:50:33Z</time>
      </trkpt>
      <trkpt lat="49.17309" lon="-0.58293">
        <ele>84.8</ele>
        <time>2023-04-25T13:50:34Z</time>
      </trkpt>
      <trkpt lat="49.17308" lon="-0.58285">
        <ele>84.8</ele>
        <time>2023-04-25T13:50:35Z</time>
      </trkpt>
      <trkpt lat="49.17306" lon="-0.58277">
        <ele>84.6</ele>
        <time>2023-04-25T13:50:36Z</time>
      </trkpt>
      <trkpt lat="49.17305" lon="-0.5827">
        <ele>84.6</ele>
        <time>2023-04-25T13:50:37Z</time>
      </trkpt>
      <trkpt lat="49.17304" lon="-0.58262">
        <ele>84.6</ele>
        <time>2023-04-25T13:50:38Z</time>
      </trkpt>
      <trkpt lat="49.17303" lon="-0.58254">
        <ele>84.6</ele>
        <time>2023-04-25T13:50:39Z</time>
      </trkpt>
      <trkpt lat="49.17301" lon="-0.58246">
        <ele>84.4</ele>
        <time>2023-04-25T13:50:40Z</time>
      </trkpt>
      <trkpt lat="49.173" lon="-0.58239">
        <ele>84.4</ele>
        <time>2023-04-25T13:50:41Z</time>
      </trkpt>
      <trkpt lat="49.17298" lon="-0.58231">
        <ele>84.4</ele>
        <time>2023-04-25T13:50:42Z</time>
      </trkpt>
      <trkpt lat="49.17297" lon="-0.58223">
        <ele>84.2</ele>
        <time>2023-04-25T13:50:43Z</time>
      </trkpt>
      <trkpt lat="49.17296" lon="-0.58215">
        <ele>84.2</ele>
        <time>2023-04-25T13:50:44Z</time>
      </trkpt>
      <trkpt lat="49.17294" lon="-0.58207">
        <ele>84</ele>
        <time>2023-04-25T13:50:45Z</time>
      </trkpt>
      <trkpt lat="49.17293" lon="-0.58199">
        <ele>84</ele>
        <time>2023-04-25T13:50:46Z</time>
      </trkpt>
      <trkpt lat="49.17292" lon="-0.58191">
        <ele>84</ele>
        <time>2023-04-25T13:50:47Z</time>
      </trkpt>
      <trkpt lat="49.1729" lon="-0.58183">
        <ele>84</ele>
        <time>2023-04-25T13:50:48Z</time>
      </trkpt>
      <trkpt lat="49.17289" lon="-0.58175">
        <ele>84</ele>
        <time>2023-04-25T13:50:49Z</time>
      </trkpt>
      <trkpt lat="49.17288" lon="-0.58167">
        <ele>84</ele>
        <time>2023-04-25T13:50:50Z</time>
      </trkpt>
      <trkpt lat="49.17286" lon="-0.58159">
        <ele>84</ele>
        <time>2023-04-25T13:50:51Z</time>
      </trkpt>
      <trkpt lat="49.17285" lon="-0.58151">
        <ele>83.8</ele>
        <time>2023-04-25T13:50:52Z</time>
      </trkpt>
      <trkpt lat="49.17284" lon="-0.58142">
        <ele>83.8</ele>
        <time>2023-04-25T13:50:53Z</time>
      </trkpt>
      <trkpt lat="49.17282" lon="-0.58134">
        <ele>83.8</ele>
        <time>2023-04-25T13:50:54Z</time>
      </trkpt>
      <trkpt lat="49.17281" lon="-0.58126">
        <ele>83.6</ele>
        <time>2023-04-25T13:50:55Z</time>
      </trkpt>
      <trkpt lat="49.17279" lon="-0.58117">
        <ele>83.6</ele>
        <time>2023-04-25T13:50:56Z</time>
      </trkpt>
      <trkpt lat="49.17278" lon="-0.58109">
        <ele>83.6</ele>
        <time>2023-04-25T13:50:57Z</time>
      </trkpt>
      <trkpt lat="49.17277" lon="-0.58101">
        <ele>83.6</ele>
        <time>2023-04-25T13:50:58Z</time>
      </trkpt>
      <trkpt lat="49.17275" lon="-0.58092">
        <ele>83.6</ele>
        <time>2023-04-25T13:50:59Z</time>
      </trkpt>
      <trkpt lat="49.17274" lon="-0.58084">
        <ele>83.6</ele>
        <time>2023-04-25T13:51:00Z</time>
      </trkpt>
      <trkpt lat="49.17272" lon="-0.58075">
        <ele>83.6</ele>
        <time>2023-04-25T13:51:01Z</time>
      </trkpt>
      <trkpt lat="49.17271" lon="-0.58066">
        <ele>83.6</ele>
        <time>2023-04-25T13:51:02Z</time>
      </trkpt>
      <trkpt lat="49.1727" lon="-0.58058">
        <ele>83.6</ele>
        <time>2023-04-25T13:51:03Z</time>
      </trkpt>
      <trkpt lat="49.17268" lon="-0.58049">
        <ele>83.6</ele>
        <time>2023-04-25T13:51:04Z</time>
      </trkpt>
      <trkpt lat="49.17267" lon="-0.58041">
        <ele>83.6</ele>
        <time>2023-04-25T13:51:05Z</time>
      </trkpt>
      <trkpt lat="49.17265" lon="-0.58032">
        <ele>83.6</ele>
        <time>2023-04-25T13:51:06Z</time>
      </trkpt>
      <trkpt lat="49.17264" lon="-0.58024">
        <ele>83.6</ele>
        <time>2023-04-25T13:51:07Z</time>
      </trkpt>
      <trkpt lat="49.17262" lon="-0.58015">
        <ele>83.4</ele>
        <time>2023-04-25T13:51:08Z</time>
      </trkpt>
      <trkpt lat="49.17261" lon="-0.58007">
        <ele>83.4</ele>
        <time>2023-04-25T13:51:09Z</time>
      </trkpt>
      <trkpt lat="49.1726" lon="-0.57999">
        <ele>83.4</ele>
        <time>2023-04-25T13:51:10Z</time>
      </trkpt>
      <trkpt lat="49.17258" lon="-0.57991">
        <ele>83.4</ele>
        <time>2023-04-25T13:51:11Z</time>
      </trkpt>
      <trkpt lat="49.17257" lon="-0.57983">
        <ele>83.2</ele>
        <time>2023-04-25T13:51:12Z</time>
      </trkpt>
      <trkpt lat="49.17255" lon="-0.57974">
        <ele>83.2</ele>
        <time>2023-04-25T13:51:13Z</time>
      </trkpt>
      <trkpt lat="49.17254" lon="-0.57966">
        <ele>83</ele>
        <time>2023-04-25T13:51:14Z</time>
      </trkpt>
      <trkpt lat="49.17253" lon="-0.57958">
        <ele>83</ele>
        <time>2023-04-25T13:51:15Z</time>
      </trkpt>
      <trkpt lat="49.17251" lon="-0.5795">
        <ele>83</ele>
        <time>2023-04-25T13:51:16Z</time>
      </trkpt>
      <trkpt lat="49.1725" lon="-0.57941">
        <ele>83</ele>
        <time>2023-04-25T13:51:17Z</time>
      </trkpt>
      <trkpt lat="49.17249" lon="-0.57932">
        <ele>83</ele>
        <time>2023-04-25T13:51:18Z</time>
      </trkpt>
      <trkpt lat="49.17247" lon="-0.57924">
        <ele>83</ele>
        <time>2023-04-25T13:51:19Z</time>
      </trkpt>
      <trkpt lat="49.17246" lon="-0.57915">
        <ele>83</ele>
        <time>2023-04-25T13:51:20Z</time>
      </trkpt>
      <trkpt lat="49.17244" lon="-0.57906">
        <ele>83.2</ele>
        <time>2023-04-25T13:51:21Z</time>
      </trkpt>
      <trkpt lat="49.17243" lon="-0.57898">
        <ele>83.4</ele>
        <time>2023-04-25T13:51:22Z</time>
      </trkpt>
      <trkpt lat="49.17241" lon="-0.57889">
        <ele>83.6</ele>
        <time>2023-04-25T13:51:23Z</time>
      </trkpt>
      <trkpt lat="49.1724" lon="-0.57881">
        <ele>83.6</ele>
        <time>2023-04-25T13:51:24Z</time>
      </trkpt>
      <trkpt lat="49.17238" lon="-0.57872">
        <ele>83.6</ele>
        <time>2023-04-25T13:51:25Z</time>
      </trkpt>
      <trkpt lat="49.17237" lon="-0.57864">
        <ele>84</ele>
        <time>2023-04-25T13:51:26Z</time>
      </trkpt>
      <trkpt lat="49.17236" lon="-0.57855">
        <ele>84</ele>
        <time>2023-04-25T13:51:27Z</time>
      </trkpt>
      <trkpt lat="49.17234" lon="-0.57847">
        <ele>84.2</ele>
        <time>2023-04-25T13:51:28Z</time>
      </trkpt>
      <trkpt lat="49.17233" lon="-0.57839">
        <ele>84.4</ele>
        <time>2023-04-25T13:51:29Z</time>
      </trkpt>
      <trkpt lat="49.17231" lon="-0.57831">
        <ele>84.6</ele>
        <time>2023-04-25T13:51:30Z</time>
      </trkpt>
      <trkpt lat="49.1723" lon="-0.57823">
        <ele>84.6</ele>
        <time>2023-04-25T13:51:31Z</time>
      </trkpt>
      <trkpt lat="49.17229" lon="-0.57815">
        <ele>84.6</ele>
        <time>2023-04-25T13:51:32Z</time>
      </trkpt>
      <trkpt lat="49.17227" lon="-0.57807">
        <ele>85</ele>
        <time>2023-04-25T13:51:33Z</time>
      </trkpt>
      <trkpt lat="49.17226" lon="-0.57799">
        <ele>85</ele>
        <time>2023-04-25T13:51:34Z</time>
      </trkpt>
      <trkpt lat="49.17225" lon="-0.57791">
        <ele>85</ele>
        <time>2023-04-25T13:51:35Z</time>
      </trkpt>
      <trkpt lat="49.17223" lon="-0.57784">
        <ele>85.2</ele>
        <time>2023-04-25T13:51:36Z</time>
      </trkpt>
      <trkpt lat="49.17222" lon="-0.57776">
        <ele>85.4</ele>
        <time>2023-04-25T13:51:37Z</time>
      </trkpt>
      <trkpt lat="49.17221" lon="-0.57769">
        <ele>85.6</ele>
        <time>2023-04-25T13:51:38Z</time>
      </trkpt>
      <trkpt lat="49.17219" lon="-0.57762">
        <ele>85.6</ele>
        <time>2023-04-25T13:51:39Z</time>
      </trkpt>
      <trkpt lat="49.17218" lon="-0.57754">
        <ele>85.6</ele>
        <time>2023-04-25T13:51:40Z</time>
      </trkpt>
      <trkpt lat="49.17217" lon="-0.57747">
        <ele>85.8</ele>
        <time>2023-04-25T13:51:41Z</time>
      </trkpt>
      <trkpt lat="49.17216" lon="-0.5774">
        <ele>86</ele>
        <time>2023-04-25T13:51:42Z</time>
      </trkpt>
      <trkpt lat="49.17215" lon="-0.57733">
        <ele>86</ele>
        <time>2023-04-25T13:51:43Z</time>
      </trkpt>
      <trkpt lat="49.17213" lon="-0.57726">
        <ele>86.2</ele>
        <time>2023-04-25T13:51:44Z</time>
      </trkpt>
      <trkpt lat="49.17212" lon="-0.57718">
        <ele>86.4</ele>
        <time>2023-04-25T13:51:45Z</time>
      </trkpt>
      <trkpt lat="49.17211" lon="-0.57711">
        <ele>86.4</ele>
        <time>2023-04-25T13:51:46Z</time>
      </trkpt>
      <trkpt lat="49.1721" lon="-0.57703">
        <ele>86.6</ele>
        <time>2023-04-25T13:51:47Z</time>
      </trkpt>
      <trkpt lat="49.17208" lon="-0.57696">
        <ele>86.6</ele>
        <time>2023-04-25T13:51:48Z</time>
      </trkpt>
      <trkpt lat="49.17207" lon="-0.57688">
        <ele>86.8</ele>
        <time>2023-04-25T13:51:49Z</time>
      </trkpt>
      <trkpt lat="49.17206" lon="-0.57681">
        <ele>87</ele>
        <time>2023-04-25T13:51:50Z</time>
      </trkpt>
      <trkpt lat="49.17205" lon="-0.57674">
        <ele>87</ele>
        <time>2023-04-25T13:51:51Z</time>
      </trkpt>
      <trkpt lat="49.17203" lon="-0.57666">
        <ele>87</ele>
        <time>2023-04-25T13:51:52Z</time>
      </trkpt>
      <trkpt lat="49.17202" lon="-0.57659">
        <ele>87</ele>
        <time>2023-04-25T13:51:53Z</time>
      </trkpt>
      <trkpt lat="49.17201" lon="-0.57652">
        <ele>87</ele>
        <time>2023-04-25T13:51:54Z</time>
      </trkpt>
      <trkpt lat="49.17199" lon="-0.57645">
        <ele>87</ele>
        <time>2023-04-25T13:51:55Z</time>
      </trkpt>
      <trkpt lat="49.17198" lon="-0.57638">
        <ele>87</ele>
        <time>2023-04-25T13:51:56Z</time>
      </trkpt>
      <trkpt lat="49.17197" lon="-0.5763">
        <ele>87</ele>
        <time>2023-04-25T13:51:57Z</time>
      </trkpt>
      <trkpt lat="49.17196" lon="-0.57624">
        <ele>87</ele>
        <time>2023-04-25T13:51:58Z</time>
      </trkpt>
      <trkpt lat="49.17195" lon="-0.57617">
        <ele>87</ele>
        <time>2023-04-25T13:51:59Z</time>
      </trkpt>
      <trkpt lat="49.17194" lon="-0.5761">
        <ele>87</ele>
        <time>2023-04-25T13:52:00Z</time>
      </trkpt>
      <trkpt lat="49.17193" lon="-0.57603">
        <ele>87</ele>
        <time>2023-04-25T13:52:01Z</time>
      </trkpt>
      <trkpt lat="49.17192" lon="-0.57596">
        <ele>87</ele>
        <time>2023-04-25T13:52:02Z</time>
      </trkpt>
      <trkpt lat="49.17191" lon="-0.57589">
        <ele>87.2</ele>
        <time>2023-04-25T13:52:03Z</time>
      </trkpt>
      <trkpt lat="49.17189" lon="-0.57582">
        <ele>87.2</ele>
        <time>2023-04-25T13:52:04Z</time>
      </trkpt>
      <trkpt lat="49.17188" lon="-0.57575">
        <ele>87.2</ele>
        <time>2023-04-25T13:52:05Z</time>
      </trkpt>
      <trkpt lat="49.17187" lon="-0.57567">
        <ele>87.4</ele>
        <time>2023-04-25T13:52:06Z</time>
      </trkpt>
      <trkpt lat="49.17186" lon="-0.5756">
        <ele>87.4</ele>
        <time>2023-04-25T13:52:07Z</time>
      </trkpt>
      <trkpt lat="49.17185" lon="-0.57553">
        <ele>87.4</ele>
        <time>2023-04-25T13:52:08Z</time>
      </trkpt>
      <trkpt lat="49.17184" lon="-0.57546">
        <ele>87.6</ele>
        <time>2023-04-25T13:52:09Z</time>
      </trkpt>
      <trkpt lat="49.17183" lon="-0.57539">
        <ele>87.6</ele>
        <time>2023-04-25T13:52:10Z</time>
      </trkpt>
      <trkpt lat="49.17181" lon="-0.57532">
        <ele>87.6</ele>
        <time>2023-04-25T13:52:11Z</time>
      </trkpt>
      <trkpt lat="49.1718" lon="-0.57525">
        <ele>87.6</ele>
        <time>2023-04-25T13:52:12Z</time>
      </trkpt>
      <trkpt lat="49.17179" lon="-0.57518">
        <ele>87.6</ele>
        <time>2023-04-25T13:52:13Z</time>
      </trkpt>
      <trkpt lat="49.17178" lon="-0.57511">
        <ele>87.6</ele>
        <time>2023-04-25T13:52:14Z</time>
      </trkpt>
      <trkpt lat="49.17177" lon="-0.57504">
        <ele>87.8</ele>
        <time>2023-04-25T13:52:15Z</time>
      </trkpt>
      <trkpt lat="49.17175" lon="-0.57497">
        <ele>87.8</ele>
        <time>2023-04-25T13:52:16Z</time>
      </trkpt>
      <trkpt lat="49.17174" lon="-0.5749">
        <ele>87.8</ele>
        <time>2023-04-25T13:52:17Z</time>
      </trkpt>
      <trkpt lat="49.17173" lon="-0.57483">
        <ele>88</ele>
        <time>2023-04-25T13:52:18Z</time>
      </trkpt>
      <trkpt lat="49.17172" lon="-0.57476">
        <ele>88</ele>
        <time>2023-04-25T13:52:19Z</time>
      </trkpt>
      <trkpt lat="49.17171" lon="-0.57469">
        <ele>88</ele>
        <time>2023-04-25T13:52:20Z</time>
      </trkpt>
      <trkpt lat="49.17169" lon="-0.57462">
        <ele>88</ele>
        <time>2023-04-25T13:52:21Z</time>
      </trkpt>
      <trkpt lat="49.17168" lon="-0.57455">
        <ele>88</ele>
        <time>2023-04-25T13:52:22Z</time>
      </trkpt>
      <trkpt lat="49.17167" lon="-0.57449">
        <ele>88</ele>
        <time>2023-04-25T13:52:23Z</time>
      </trkpt>
      <trkpt lat="49.17166" lon="-0.57442">
        <ele>88</ele>
        <time>2023-04-25T13:52:24Z</time>
      </trkpt>
      <trkpt lat="49.17165" lon="-0.57435">
        <ele>88</ele>
        <time>2023-04-25T13:52:25Z</time>
      </trkpt>
      <trkpt lat="49.17163" lon="-0.57428">
        <ele>88</ele>
        <time>2023-04-25T13:52:26Z</time>
      </trkpt>
      <trkpt lat="49.17162" lon="-0.57421">
        <ele>88</ele>
        <time>2023-04-25T13:52:27Z</time>
      </trkpt>
      <trkpt lat="49.17161" lon="-0.57414">
        <ele>88</ele>
        <time>2023-04-25T13:52:28Z</time>
      </trkpt>
      <trkpt lat="49.1716" lon="-0.57407">
        <ele>88.2</ele>
        <time>2023-04-25T13:52:29Z</time>
      </trkpt>
      <trkpt lat="49.17159" lon="-0.574">
        <ele>88.4</ele>
        <time>2023-04-25T13:52:30Z</time>
      </trkpt>
      <trkpt lat="49.17157" lon="-0.57394">
        <ele>88.4</ele>
        <time>2023-04-25T13:52:31Z</time>
      </trkpt>
      <trkpt lat="49.17156" lon="-0.57387">
        <ele>88.6</ele>
        <time>2023-04-25T13:52:32Z</time>
      </trkpt>
      <trkpt lat="49.17155" lon="-0.5738">
        <ele>88.6</ele>
        <time>2023-04-25T13:52:33Z</time>
      </trkpt>
      <trkpt lat="49.17154" lon="-0.57373">
        <ele>88.6</ele>
        <time>2023-04-25T13:52:34Z</time>
      </trkpt>
      <trkpt lat="49.17153" lon="-0.57366">
        <ele>88.8</ele>
        <time>2023-04-25T13:52:35Z</time>
      </trkpt>
      <trkpt lat="49.17152" lon="-0.57359">
        <ele>89</ele>
        <time>2023-04-25T13:52:36Z</time>
      </trkpt>
      <trkpt lat="49.1715" lon="-0.57352">
        <ele>89</ele>
        <time>2023-04-25T13:52:37Z</time>
      </trkpt>
      <trkpt lat="49.17149" lon="-0.57344">
        <ele>89</ele>
        <time>2023-04-25T13:52:38Z</time>
      </trkpt>
      <trkpt lat="49.17148" lon="-0.57337">
        <ele>89.2</ele>
        <time>2023-04-25T13:52:39Z</time>
      </trkpt>
      <trkpt lat="49.17147" lon="-0.5733">
        <ele>89.2</ele>
        <time>2023-04-25T13:52:40Z</time>
      </trkpt>
      <trkpt lat="49.17146" lon="-0.57323">
        <ele>89.4</ele>
        <time>2023-04-25T13:52:41Z</time>
      </trkpt>
      <trkpt lat="49.17145" lon="-0.57316">
        <ele>89.4</ele>
        <time>2023-04-25T13:52:42Z</time>
      </trkpt>
      <trkpt lat="49.17143" lon="-0.57309">
        <ele>89.4</ele>
        <time>2023-04-25T13:52:43Z</time>
      </trkpt>
      <trkpt lat="49.17142" lon="-0.57301">
        <ele>89.4</ele>
        <time>2023-04-25T13:52:44Z</time>
      </trkpt>
      <trkpt lat="49.17141" lon="-0.57294">
        <ele>89.6</ele>
        <time>2023-04-25T13:52:45Z</time>
      </trkpt>
      <trkpt lat="49.1714" lon="-0.57287">
        <ele>89.6</ele>
        <time>2023-04-25T13:52:46Z</time>
      </trkpt>
      <trkpt lat="49.17139" lon="-0.5728">
        <ele>89.6</ele>
        <time>2023-04-25T13:52:47Z</time>
      </trkpt>
      <trkpt lat="49.17138" lon="-0.57272">
        <ele>89.6</ele>
        <time>2023-04-25T13:52:48Z</time>
      </trkpt>
      <trkpt lat="49.17137" lon="-0.57265">
        <ele>89.6</ele>
        <time>2023-04-25T13:52:49Z</time>
      </trkpt>
      <trkpt lat="49.17135" lon="-0.57258">
        <ele>89.6</ele>
        <time>2023-04-25T13:52:50Z</time>
      </trkpt>
      <trkpt lat="49.17134" lon="-0.5725">
        <ele>89.8</ele>
        <time>2023-04-25T13:52:51Z</time>
      </trkpt>
      <trkpt lat="49.17133" lon="-0.57243">
        <ele>90</ele>
        <time>2023-04-25T13:52:52Z</time>
      </trkpt>
      <trkpt lat="49.17132" lon="-0.57235">
        <ele>90</ele>
        <time>2023-04-25T13:52:53Z</time>
      </trkpt>
      <trkpt lat="49.17131" lon="-0.57228">
        <ele>90.2</ele>
        <time>2023-04-25T13:52:54Z</time>
      </trkpt>
      <trkpt lat="49.1713" lon="-0.5722">
        <ele>90.4</ele>
        <time>2023-04-25T13:52:55Z</time>
      </trkpt>
      <trkpt lat="49.17128" lon="-0.57213">
        <ele>90.6</ele>
        <time>2023-04-25T13:52:56Z</time>
      </trkpt>
      <trkpt lat="49.17127" lon="-0.57205">
        <ele>90.6</ele>
        <time>2023-04-25T13:52:57Z</time>
      </trkpt>
      <trkpt lat="49.17126" lon="-0.57198">
        <ele>91</ele>
        <time>2023-04-25T13:52:58Z</time>
      </trkpt>
      <trkpt lat="49.17124" lon="-0.5719">
        <ele>91</ele>
        <time>2023-04-25T13:52:59Z</time>
      </trkpt>
      <trkpt lat="49.17123" lon="-0.57182">
        <ele>91.4</ele>
        <time>2023-04-25T13:53:00Z</time>
      </trkpt>
      <trkpt lat="49.17122" lon="-0.57175">
        <ele>91.6</ele>
        <time>2023-04-25T13:53:01Z</time>
      </trkpt>
      <trkpt lat="49.17121" lon="-0.57167">
        <ele>91.6</ele>
        <time>2023-04-25T13:53:02Z</time>
      </trkpt>
      <trkpt lat="49.17119" lon="-0.57159">
        <ele>91.6</ele>
        <time>2023-04-25T13:53:03Z</time>
      </trkpt>
      <trkpt lat="49.17118" lon="-0.57151">
        <ele>91.6</ele>
        <time>2023-04-25T13:53:04Z</time>
      </trkpt>
      <trkpt lat="49.17117" lon="-0.57143">
        <ele>91.6</ele>
        <time>2023-04-25T13:53:05Z</time>
      </trkpt>
      <trkpt lat="49.17115" lon="-0.57136">
        <ele>91.6</ele>
        <time>2023-04-25T13:53:06Z</time>
      </trkpt>
      <trkpt lat="49.17114" lon="-0.57128">
        <ele>91.6</ele>
        <time>2023-04-25T13:53:07Z</time>
      </trkpt>
      <trkpt lat="49.17113" lon="-0.5712">
        <ele>91.6</ele>
        <time>2023-04-25T13:53:08Z</time>
      </trkpt>
      <trkpt lat="49.17111" lon="-0.57112">
        <ele>91.6</ele>
        <time>2023-04-25T13:53:09Z</time>
      </trkpt>
      <trkpt lat="49.1711" lon="-0.57104">
        <ele>91.6</ele>
        <time>2023-04-25T13:53:10Z</time>
      </trkpt>
      <trkpt lat="49.17109" lon="-0.57096">
        <ele>91.6</ele>
        <time>2023-04-25T13:53:11Z</time>
      </trkpt>
      <trkpt lat="49.17107" lon="-0.57088">
        <ele>91.6</ele>
        <time>2023-04-25T13:53:12Z</time>
      </trkpt>
      <trkpt lat="49.17106" lon="-0.5708">
        <ele>91.6</ele>
        <time>2023-04-25T13:53:13Z</time>
      </trkpt>
      <trkpt lat="49.17105" lon="-0.57073">
        <ele>91.6</ele>
        <time>2023-04-25T13:53:14Z</time>
      </trkpt>
      <trkpt lat="49.17104" lon="-0.57065">
        <ele>91.6</ele>
        <time>2023-04-25T13:53:15Z</time>
      </trkpt>
      <trkpt lat="49.17102" lon="-0.57057">
        <ele>91.6</ele>
        <time>2023-04-25T13:53:16Z</time>
      </trkpt>
      <trkpt lat="49.17101" lon="-0.57049">
        <ele>91.8</ele>
        <time>2023-04-25T13:53:17Z</time>
      </trkpt>
      <trkpt lat="49.171" lon="-0.57041">
        <ele>91.8</ele>
        <time>2023-04-25T13:53:18Z</time>
      </trkpt>
      <trkpt lat="49.17098" lon="-0.57034">
        <ele>92</ele>
        <time>2023-04-25T13:53:19Z</time>
      </trkpt>
      <trkpt lat="49.17097" lon="-0.57026">
        <ele>92</ele>
        <time>2023-04-25T13:53:20Z</time>
      </trkpt>
      <trkpt lat="49.17096" lon="-0.57018">
        <ele>92</ele>
        <time>2023-04-25T13:53:21Z</time>
      </trkpt>
      <trkpt lat="49.17094" lon="-0.57011">
        <ele>92</ele>
        <time>2023-04-25T13:53:22Z</time>
      </trkpt>
      <trkpt lat="49.17093" lon="-0.57003">
        <ele>92</ele>
        <time>2023-04-25T13:53:23Z</time>
      </trkpt>
      <trkpt lat="49.17092" lon="-0.56995">
        <ele>92</ele>
        <time>2023-04-25T13:53:24Z</time>
      </trkpt>
      <trkpt lat="49.17091" lon="-0.56988">
        <ele>92</ele>
        <time>2023-04-25T13:53:25Z</time>
      </trkpt>
      <trkpt lat="49.17089" lon="-0.5698">
        <ele>92</ele>
        <time>2023-04-25T13:53:26Z</time>
      </trkpt>
      <trkpt lat="49.17088" lon="-0.56972">
        <ele>92</ele>
        <time>2023-04-25T13:53:27Z</time>
      </trkpt>
      <trkpt lat="49.17087" lon="-0.56965">
        <ele>92</ele>
        <time>2023-04-25T13:53:28Z</time>
      </trkpt>
      <trkpt lat="49.17085" lon="-0.56957">
        <ele>92</ele>
        <time>2023-04-25T13:53:29Z</time>
      </trkpt>
      <trkpt lat="49.17084" lon="-0.56949">
        <ele>92</ele>
        <time>2023-04-25T13:53:30Z</time>
      </trkpt>
      <trkpt lat="49.17083" lon="-0.56942">
        <ele>92</ele>
        <time>2023-04-25T13:53:31Z</time>
      </trkpt>
      <trkpt lat="49.17081" lon="-0.56934">
        <ele>92</ele>
        <time>2023-04-25T13:53:32Z</time>
      </trkpt>
      <trkpt lat="49.1708" lon="-0.56926">
        <ele>92</ele>
        <time>2023-04-25T13:53:33Z</time>
      </trkpt>
      <trkpt lat="49.17079" lon="-0.56918">
        <ele>92</ele>
        <time>2023-04-25T13:53:34Z</time>
      </trkpt>
      <trkpt lat="49.17077" lon="-0.56911">
        <ele>92.4</ele>
        <time>2023-04-25T13:53:35Z</time>
      </trkpt>
      <trkpt lat="49.17076" lon="-0.56903">
        <ele>92.6</ele>
        <time>2023-04-25T13:53:36Z</time>
      </trkpt>
      <trkpt lat="49.17075" lon="-0.56896">
        <ele>92.8</ele>
        <time>2023-04-25T13:53:37Z</time>
      </trkpt>
      <trkpt lat="49.17074" lon="-0.56888">
        <ele>93</ele>
        <time>2023-04-25T13:53:38Z</time>
      </trkpt>
      <trkpt lat="49.17072" lon="-0.56881">
        <ele>93.4</ele>
        <time>2023-04-25T13:53:39Z</time>
      </trkpt>
      <trkpt lat="49.17071" lon="-0.56873">
        <ele>93.6</ele>
        <time>2023-04-25T13:53:40Z</time>
      </trkpt>
      <trkpt lat="49.1707" lon="-0.56866">
        <ele>93.8</ele>
        <time>2023-04-25T13:53:41Z</time>
      </trkpt>
      <trkpt lat="49.17069" lon="-0.56859">
        <ele>94</ele>
        <time>2023-04-25T13:53:42Z</time>
      </trkpt>
      <trkpt lat="49.17068" lon="-0.56852">
        <ele>94.2</ele>
        <time>2023-04-25T13:53:43Z</time>
      </trkpt>
      <trkpt lat="49.17067" lon="-0.56846">
        <ele>94.4</ele>
        <time>2023-04-25T13:53:44Z</time>
      </trkpt>
      <trkpt lat="49.17065" lon="-0.56839">
        <ele>94.6</ele>
        <time>2023-04-25T13:53:45Z</time>
      </trkpt>
      <trkpt lat="49.17064" lon="-0.56833">
        <ele>94.8</ele>
        <time>2023-04-25T13:53:46Z</time>
      </trkpt>
      <trkpt lat="49.17062" lon="-0.56828">
        <ele>94.8</ele>
        <time>2023-04-25T13:53:47Z</time>
      </trkpt>
      <trkpt lat="49.17061" lon="-0.56822">
        <ele>95</ele>
        <time>2023-04-25T13:53:48Z</time>
      </trkpt>
      <trkpt lat="49.17058" lon="-0.56818">
        <ele>95</ele>
        <time>2023-04-25T13:53:49Z</time>
      </trkpt>
      <trkpt lat="49.17055" lon="-0.56814">
        <ele>95</ele>
        <time>2023-04-25T13:53:50Z</time>
      </trkpt>
      <trkpt lat="49.17053" lon="-0.56811">
        <ele>95</ele>
        <time>2023-04-25T13:53:51Z</time>
      </trkpt>
      <trkpt lat="49.1705" lon="-0.56807">
        <ele>95</ele>
        <time>2023-04-25T13:53:52Z</time>
      </trkpt>
      <trkpt lat="49.17049" lon="-0.56802">
        <ele>95</ele>
        <time>2023-04-25T13:53:53Z</time>
      </trkpt>
      <trkpt lat="49.17049" lon="-0.56796">
        <ele>95</ele>
        <time>2023-04-25T13:53:54Z</time>
      </trkpt>
      <trkpt lat="49.17049" lon="-0.56789">
        <ele>95</ele>
        <time>2023-04-25T13:53:55Z</time>
      </trkpt>
      <trkpt lat="49.1705" lon="-0.56782">
        <ele>95.2</ele>
        <time>2023-04-25T13:53:56Z</time>
      </trkpt>
      <trkpt lat="49.17051" lon="-0.56776">
        <ele>95.4</ele>
        <time>2023-04-25T13:53:57Z</time>
      </trkpt>
      <trkpt lat="49.17051" lon="-0.56769">
        <ele>95.4</ele>
        <time>2023-04-25T13:53:58Z</time>
      </trkpt>
      <trkpt lat="49.17052" lon="-0.56762">
        <ele>95.6</ele>
        <time>2023-04-25T13:53:59Z</time>
      </trkpt>
      <trkpt lat="49.17053" lon="-0.56756">
        <ele>95.6</ele>
        <time>2023-04-25T13:54:00Z</time>
      </trkpt>
      <trkpt lat="49.17054" lon="-0.56749">
        <ele>95.6</ele>
        <time>2023-04-25T13:54:01Z</time>
      </trkpt>
      <trkpt lat="49.17055" lon="-0.56742">
        <ele>95.6</ele>
        <time>2023-04-25T13:54:02Z</time>
      </trkpt>
      <trkpt lat="49.17055" lon="-0.56736">
        <ele>95.6</ele>
        <time>2023-04-25T13:54:03Z</time>
      </trkpt>
      <trkpt lat="49.17056" lon="-0.56729">
        <ele>95.6</ele>
        <time>2023-04-25T13:54:04Z</time>
      </trkpt>
      <trkpt lat="49.17057" lon="-0.56722">
        <ele>95.6</ele>
        <time>2023-04-25T13:54:05Z</time>
      </trkpt>
      <trkpt lat="49.17058" lon="-0.56715">
        <ele>95.6</ele>
        <time>2023-04-25T13:54:06Z</time>
      </trkpt>
      <trkpt lat="49.17059" lon="-0.56708">
        <ele>95.6</ele>
        <time>2023-04-25T13:54:07Z</time>
      </trkpt>
      <trkpt lat="49.17059" lon="-0.56701">
        <ele>95.6</ele>
        <time>2023-04-25T13:54:08Z</time>
      </trkpt>
      <trkpt lat="49.1706" lon="-0.56694">
        <ele>95.6</ele>
        <time>2023-04-25T13:54:09Z</time>
      </trkpt>
      <trkpt lat="49.17061" lon="-0.56687">
        <ele>95.6</ele>
        <time>2023-04-25T13:54:10Z</time>
      </trkpt>
      <trkpt lat="49.17062" lon="-0.5668">
        <ele>95.6</ele>
        <time>2023-04-25T13:54:11Z</time>
      </trkpt>
      <trkpt lat="49.17062" lon="-0.56672">
        <ele>95.6</ele>
        <time>2023-04-25T13:54:12Z</time>
      </trkpt>
      <trkpt lat="49.17063" lon="-0.56665">
        <ele>95.8</ele>
        <time>2023-04-25T13:54:13Z</time>
      </trkpt>
      <trkpt lat="49.17064" lon="-0.56657">
        <ele>95.8</ele>
        <time>2023-04-25T13:54:14Z</time>
      </trkpt>
      <trkpt lat="49.17065" lon="-0.5665">
        <ele>95.8</ele>
        <time>2023-04-25T13:54:15Z</time>
      </trkpt>
      <trkpt lat="49.17066" lon="-0.56642">
        <ele>95.8</ele>
        <time>2023-04-25T13:54:16Z</time>
      </trkpt>
      <trkpt lat="49.17067" lon="-0.56634">
        <ele>95.8</ele>
        <time>2023-04-25T13:54:17Z</time>
      </trkpt>
      <trkpt lat="49.17068" lon="-0.56627">
        <ele>95.8</ele>
        <time>2023-04-25T13:54:18Z</time>
      </trkpt>
      <trkpt lat="49.17068" lon="-0.56619">
        <ele>95.8</ele>
        <time>2023-04-25T13:54:19Z</time>
      </trkpt>
      <trkpt lat="49.1707" lon="-0.56611">
        <ele>95.8</ele>
        <time>2023-04-25T13:54:20Z</time>
      </trkpt>
      <trkpt lat="49.1707" lon="-0.56603">
        <ele>95.8</ele>
        <time>2023-04-25T13:54:21Z</time>
      </trkpt>
      <trkpt lat="49.17071" lon="-0.56595">
        <ele>96</ele>
        <time>2023-04-25T13:54:22Z</time>
      </trkpt>
      <trkpt lat="49.17072" lon="-0.56587">
        <ele>96</ele>
        <time>2023-04-25T13:54:23Z</time>
      </trkpt>
      <trkpt lat="49.17073" lon="-0.56579">
        <ele>96</ele>
        <time>2023-04-25T13:54:24Z</time>
      </trkpt>
      <trkpt lat="49.17074" lon="-0.56571">
        <ele>96</ele>
        <time>2023-04-25T13:54:25Z</time>
      </trkpt>
      <trkpt lat="49.17075" lon="-0.56563">
        <ele>96</ele>
        <time>2023-04-25T13:54:26Z</time>
      </trkpt>
      <trkpt lat="49.17076" lon="-0.56555">
        <ele>96</ele>
        <time>2023-04-25T13:54:27Z</time>
      </trkpt>
      <trkpt lat="49.17077" lon="-0.56547">
        <ele>96</ele>
        <time>2023-04-25T13:54:28Z</time>
      </trkpt>
      <trkpt lat="49.17078" lon="-0.56539">
        <ele>96</ele>
        <time>2023-04-25T13:54:29Z</time>
      </trkpt>
      <trkpt lat="49.17079" lon="-0.56531">
        <ele>96</ele>
        <time>2023-04-25T13:54:30Z</time>
      </trkpt>
      <trkpt lat="49.1708" lon="-0.56523">
        <ele>96</ele>
        <time>2023-04-25T13:54:31Z</time>
      </trkpt>
      <trkpt lat="49.17081" lon="-0.56515">
        <ele>96</ele>
        <time>2023-04-25T13:54:32Z</time>
      </trkpt>
      <trkpt lat="49.17081" lon="-0.56507">
        <ele>96</ele>
        <time>2023-04-25T13:54:33Z</time>
      </trkpt>
      <trkpt lat="49.17082" lon="-0.56499">
        <ele>96</ele>
        <time>2023-04-25T13:54:34Z</time>
      </trkpt>
      <trkpt lat="49.17083" lon="-0.5649">
        <ele>96</ele>
        <time>2023-04-25T13:54:35Z</time>
      </trkpt>
      <trkpt lat="49.17084" lon="-0.56482">
        <ele>95.8</ele>
        <time>2023-04-25T13:54:36Z</time>
      </trkpt>
      <trkpt lat="49.17085" lon="-0.56474">
        <ele>95.6</ele>
        <time>2023-04-25T13:54:37Z</time>
      </trkpt>
      <trkpt lat="49.17086" lon="-0.56466">
        <ele>95.6</ele>
        <time>2023-04-25T13:54:38Z</time>
      </trkpt>
      <trkpt lat="49.17087" lon="-0.56458">
        <ele>95.6</ele>
        <time>2023-04-25T13:54:39Z</time>
      </trkpt>
      <trkpt lat="49.17088" lon="-0.5645">
        <ele>95.6</ele>
        <time>2023-04-25T13:54:40Z</time>
      </trkpt>
      <trkpt lat="49.17089" lon="-0.56442">
        <ele>95.4</ele>
        <time>2023-04-25T13:54:41Z</time>
      </trkpt>
      <trkpt lat="49.1709" lon="-0.56434">
        <ele>95.4</ele>
        <time>2023-04-25T13:54:42Z</time>
      </trkpt>
      <trkpt lat="49.17091" lon="-0.56426">
        <ele>95.4</ele>
        <time>2023-04-25T13:54:43Z</time>
      </trkpt>
      <trkpt lat="49.17092" lon="-0.56418">
        <ele>95.2</ele>
        <time>2023-04-25T13:54:44Z</time>
      </trkpt>
      <trkpt lat="49.17093" lon="-0.5641">
        <ele>95</ele>
        <time>2023-04-25T13:54:45Z</time>
      </trkpt>
      <trkpt lat="49.17094" lon="-0.56402">
        <ele>95</ele>
        <time>2023-04-25T13:54:46Z</time>
      </trkpt>
      <trkpt lat="49.17095" lon="-0.56394">
        <ele>95</ele>
        <time>2023-04-25T13:54:47Z</time>
      </trkpt>
      <trkpt lat="49.17096" lon="-0.56385">
        <ele>94.8</ele>
        <time>2023-04-25T13:54:48Z</time>
      </trkpt>
      <trkpt lat="49.17097" lon="-0.56377">
        <ele>94.6</ele>
        <time>2023-04-25T13:54:49Z</time>
      </trkpt>
      <trkpt lat="49.17098" lon="-0.56369">
        <ele>94.6</ele>
        <time>2023-04-25T13:54:50Z</time>
      </trkpt>
      <trkpt lat="49.17099" lon="-0.56361">
        <ele>94.4</ele>
        <time>2023-04-25T13:54:51Z</time>
      </trkpt>
      <trkpt lat="49.171" lon="-0.56352">
        <ele>94.4</ele>
        <time>2023-04-25T13:54:52Z</time>
      </trkpt>
      <trkpt lat="49.17101" lon="-0.56344">
        <ele>94.2</ele>
        <time>2023-04-25T13:54:53Z</time>
      </trkpt>
      <trkpt lat="49.17102" lon="-0.56336">
        <ele>94</ele>
        <time>2023-04-25T13:54:54Z</time>
      </trkpt>
      <trkpt lat="49.17103" lon="-0.56328">
        <ele>94</ele>
        <time>2023-04-25T13:54:55Z</time>
      </trkpt>
      <trkpt lat="49.17104" lon="-0.56319">
        <ele>94</ele>
        <time>2023-04-25T13:54:56Z</time>
      </trkpt>
      <trkpt lat="49.17105" lon="-0.56311">
        <ele>94</ele>
        <time>2023-04-25T13:54:57Z</time>
      </trkpt>
      <trkpt lat="49.17106" lon="-0.56303">
        <ele>94</ele>
        <time>2023-04-25T13:54:58Z</time>
      </trkpt>
      <trkpt lat="49.17107" lon="-0.56294">
        <ele>94</ele>
        <time>2023-04-25T13:54:59Z</time>
      </trkpt>
      <trkpt lat="49.17108" lon="-0.56286">
        <ele>94</ele>
        <time>2023-04-25T13:55:00Z</time>
      </trkpt>
      <trkpt lat="49.17109" lon="-0.56278">
        <ele>94</ele>
        <time>2023-04-25T13:55:01Z</time>
      </trkpt>
      <trkpt lat="49.1711" lon="-0.56269">
        <ele>94</ele>
        <time>2023-04-25T13:55:02Z</time>
      </trkpt>
      <trkpt lat="49.17111" lon="-0.56261">
        <ele>94</ele>
        <time>2023-04-25T13:55:03Z</time>
      </trkpt>
      <trkpt lat="49.17112" lon="-0.56253">
        <ele>94</ele>
        <time>2023-04-25T13:55:04Z</time>
      </trkpt>
      <trkpt lat="49.17113" lon="-0.56244">
        <ele>94</ele>
        <time>2023-04-25T13:55:05Z</time>
      </trkpt>
      <trkpt lat="49.17114" lon="-0.56236">
        <ele>94</ele>
        <time>2023-04-25T13:55:06Z</time>
      </trkpt>
      <trkpt lat="49.17115" lon="-0.56227">
        <ele>94</ele>
        <time>2023-04-25T13:55:07Z</time>
      </trkpt>
      <trkpt lat="49.17116" lon="-0.56218">
        <ele>94</ele>
        <time>2023-04-25T13:55:08Z</time>
      </trkpt>
      <trkpt lat="49.17117" lon="-0.5621">
        <ele>93.8</ele>
        <time>2023-04-25T13:55:09Z</time>
      </trkpt>
      <trkpt lat="49.17118" lon="-0.56201">
        <ele>93.8</ele>
        <time>2023-04-25T13:55:10Z</time>
      </trkpt>
      <trkpt lat="49.17119" lon="-0.56192">
        <ele>93.6</ele>
        <time>2023-04-25T13:55:11Z</time>
      </trkpt>
      <trkpt lat="49.1712" lon="-0.56184">
        <ele>93.6</ele>
        <time>2023-04-25T13:55:12Z</time>
      </trkpt>
      <trkpt lat="49.17121" lon="-0.56175">
        <ele>93.6</ele>
        <time>2023-04-25T13:55:13Z</time>
      </trkpt>
      <trkpt lat="49.17122" lon="-0.56166">
        <ele>93.6</ele>
        <time>2023-04-25T13:55:14Z</time>
      </trkpt>
      <trkpt lat="49.17123" lon="-0.56158">
        <ele>93.6</ele>
        <time>2023-04-25T13:55:15Z</time>
      </trkpt>
      <trkpt lat="49.17124" lon="-0.56149">
        <ele>93.6</ele>
        <time>2023-04-25T13:55:16Z</time>
      </trkpt>
      <trkpt lat="49.17126" lon="-0.5614">
        <ele>93.6</ele>
        <time>2023-04-25T13:55:17Z</time>
      </trkpt>
      <trkpt lat="49.17127" lon="-0.56131">
        <ele>93.6</ele>
        <time>2023-04-25T13:55:18Z</time>
      </trkpt>
      <trkpt lat="49.17128" lon="-0.56123">
        <ele>93.6</ele>
        <time>2023-04-25T13:55:19Z</time>
      </trkpt>
      <trkpt lat="49.17129" lon="-0.56114">
        <ele>93.6</ele>
        <time>2023-04-25T13:55:20Z</time>
      </trkpt>
      <trkpt lat="49.1713" lon="-0.56105">
        <ele>93.4</ele>
        <time>2023-04-25T13:55:21Z</time>
      </trkpt>
      <trkpt lat="49.17131" lon="-0.56096">
        <ele>93.4</ele>
        <time>2023-04-25T13:55:22Z</time>
      </trkpt>
      <trkpt lat="49.17132" lon="-0.56087">
        <ele>93.4</ele>
        <time>2023-04-25T13:55:23Z</time>
      </trkpt>
      <trkpt lat="49.17133" lon="-0.56078">
        <ele>93.4</ele>
        <time>2023-04-25T13:55:24Z</time>
      </trkpt>
      <trkpt lat="49.17134" lon="-0.56069">
        <ele>93.4</ele>
        <time>2023-04-25T13:55:25Z</time>
      </trkpt>
      <trkpt lat="49.17135" lon="-0.5606">
        <ele>93.4</ele>
        <time>2023-04-25T13:55:26Z</time>
      </trkpt>
      <trkpt lat="49.17136" lon="-0.5605">
        <ele>93.6</ele>
        <time>2023-04-25T13:55:27Z</time>
      </trkpt>
      <trkpt lat="49.17137" lon="-0.56041">
        <ele>93.6</ele>
        <time>2023-04-25T13:55:28Z</time>
      </trkpt>
      <trkpt lat="49.17139" lon="-0.56032">
        <ele>93.6</ele>
        <time>2023-04-25T13:55:29Z</time>
      </trkpt>
      <trkpt lat="49.1714" lon="-0.56023">
        <ele>93.6</ele>
        <time>2023-04-25T13:55:30Z</time>
      </trkpt>
      <trkpt lat="49.17141" lon="-0.56013">
        <ele>93.6</ele>
        <time>2023-04-25T13:55:31Z</time>
      </trkpt>
      <trkpt lat="49.17142" lon="-0.56004">
        <ele>93.6</ele>
        <time>2023-04-25T13:55:32Z</time>
      </trkpt>
      <trkpt lat="49.17143" lon="-0.55995">
        <ele>93.6</ele>
        <time>2023-04-25T13:55:33Z</time>
      </trkpt>
      <trkpt lat="49.17144" lon="-0.55985">
        <ele>93.6</ele>
        <time>2023-04-25T13:55:34Z</time>
      </trkpt>
      <trkpt lat="49.17146" lon="-0.55976">
        <ele>93.4</ele>
        <time>2023-04-25T13:55:35Z</time>
      </trkpt>
      <trkpt lat="49.17147" lon="-0.55967">
        <ele>93.4</ele>
        <time>2023-04-25T13:55:36Z</time>
      </trkpt>
      <trkpt lat="49.17148" lon="-0.55957">
        <ele>93</ele>
        <time>2023-04-25T13:55:37Z</time>
      </trkpt>
      <trkpt lat="49.17149" lon="-0.55948">
        <ele>93</ele>
        <time>2023-04-25T13:55:38Z</time>
      </trkpt>
      <trkpt lat="49.1715" lon="-0.55939">
        <ele>93</ele>
        <time>2023-04-25T13:55:39Z</time>
      </trkpt>
      <trkpt lat="49.17151" lon="-0.5593">
        <ele>92.8</ele>
        <time>2023-04-25T13:55:40Z</time>
      </trkpt>
      <trkpt lat="49.17152" lon="-0.55921">
        <ele>92.6</ele>
        <time>2023-04-25T13:55:41Z</time>
      </trkpt>
      <trkpt lat="49.17153" lon="-0.55912">
        <ele>92.6</ele>
        <time>2023-04-25T13:55:42Z</time>
      </trkpt>
      <trkpt lat="49.17154" lon="-0.55902">
        <ele>92.4</ele>
        <time>2023-04-25T13:55:43Z</time>
      </trkpt>
      <trkpt lat="49.17156" lon="-0.55893">
        <ele>92.2</ele>
        <time>2023-04-25T13:55:44Z</time>
      </trkpt>
      <trkpt lat="49.17157" lon="-0.55884">
        <ele>92</ele>
        <time>2023-04-25T13:55:45Z</time>
      </trkpt>
      <trkpt lat="49.17158" lon="-0.55875">
        <ele>92</ele>
        <time>2023-04-25T13:55:46Z</time>
      </trkpt>
      <trkpt lat="49.17159" lon="-0.55866">
        <ele>91.6</ele>
        <time>2023-04-25T13:55:47Z</time>
      </trkpt>
      <trkpt lat="49.1716" lon="-0.55857">
        <ele>91.6</ele>
        <time>2023-04-25T13:55:48Z</time>
      </trkpt>
      <trkpt lat="49.17161" lon="-0.55848">
        <ele>91.4</ele>
        <time>2023-04-25T13:55:49Z</time>
      </trkpt>
      <trkpt lat="49.17162" lon="-0.55838">
        <ele>91</ele>
        <time>2023-04-25T13:55:50Z</time>
      </trkpt>
      <trkpt lat="49.17163" lon="-0.55829">
        <ele>91</ele>
        <time>2023-04-25T13:55:51Z</time>
      </trkpt>
      <trkpt lat="49.17164" lon="-0.5582">
        <ele>90.8</ele>
        <time>2023-04-25T13:55:52Z</time>
      </trkpt>
      <trkpt lat="49.17166" lon="-0.55811">
        <ele>90.6</ele>
        <time>2023-04-25T13:55:53Z</time>
      </trkpt>
      <trkpt lat="49.17167" lon="-0.55801">
        <ele>90.6</ele>
        <time>2023-04-25T13:55:54Z</time>
      </trkpt>
      <trkpt lat="49.17168" lon="-0.55792">
        <ele>90.6</ele>
        <time>2023-04-25T13:55:55Z</time>
      </trkpt>
      <trkpt lat="49.17169" lon="-0.55783">
        <ele>90.4</ele>
        <time>2023-04-25T13:55:56Z</time>
      </trkpt>
      <trkpt lat="49.1717" lon="-0.55774">
        <ele>90.4</ele>
        <time>2023-04-25T13:55:57Z</time>
      </trkpt>
      <trkpt lat="49.17171" lon="-0.55764">
        <ele>90.2</ele>
        <time>2023-04-25T13:55:58Z</time>
      </trkpt>
      <trkpt lat="49.17172" lon="-0.55755">
        <ele>90</ele>
        <time>2023-04-25T13:55:59Z</time>
      </trkpt>
      <trkpt lat="49.17173" lon="-0.55745">
        <ele>90</ele>
        <time>2023-04-25T13:56:00Z</time>
      </trkpt>
      <trkpt lat="49.17175" lon="-0.55736">
        <ele>90</ele>
        <time>2023-04-25T13:56:01Z</time>
      </trkpt>
      <trkpt lat="49.17176" lon="-0.55726">
        <ele>90</ele>
        <time>2023-04-25T13:56:02Z</time>
      </trkpt>
      <trkpt lat="49.17177" lon="-0.55717">
        <ele>90</ele>
        <time>2023-04-25T13:56:03Z</time>
      </trkpt>
      <trkpt lat="49.17178" lon="-0.55707">
        <ele>90</ele>
        <time>2023-04-25T13:56:04Z</time>
      </trkpt>
      <trkpt lat="49.17179" lon="-0.55697">
        <ele>90.2</ele>
        <time>2023-04-25T13:56:05Z</time>
      </trkpt>
      <trkpt lat="49.1718" lon="-0.55688">
        <ele>90.2</ele>
        <time>2023-04-25T13:56:06Z</time>
      </trkpt>
      <trkpt lat="49.17182" lon="-0.55678">
        <ele>90.2</ele>
        <time>2023-04-25T13:56:07Z</time>
      </trkpt>
      <trkpt lat="49.17183" lon="-0.55668">
        <ele>90.2</ele>
        <time>2023-04-25T13:56:08Z</time>
      </trkpt>
      <trkpt lat="49.17184" lon="-0.55659">
        <ele>90.2</ele>
        <time>2023-04-25T13:56:09Z</time>
      </trkpt>
      <trkpt lat="49.17185" lon="-0.55649">
        <ele>90.2</ele>
        <time>2023-04-25T13:56:10Z</time>
      </trkpt>
      <trkpt lat="49.17186" lon="-0.55639">
        <ele>90.2</ele>
        <time>2023-04-25T13:56:11Z</time>
      </trkpt>
      <trkpt lat="49.17187" lon="-0.55629">
        <ele>90.4</ele>
        <time>2023-04-25T13:56:12Z</time>
      </trkpt>
      <trkpt lat="49.17189" lon="-0.5562">
        <ele>90.4</ele>
        <time>2023-04-25T13:56:13Z</time>
      </trkpt>
      <trkpt lat="49.1719" lon="-0.5561">
        <ele>90.4</ele>
        <time>2023-04-25T13:56:14Z</time>
      </trkpt>
      <trkpt lat="49.17191" lon="-0.556">
        <ele>90.4</ele>
        <time>2023-04-25T13:56:15Z</time>
      </trkpt>
      <trkpt lat="49.17192" lon="-0.5559">
        <ele>90.4</ele>
        <time>2023-04-25T13:56:16Z</time>
      </trkpt>
      <trkpt lat="49.17193" lon="-0.5558">
        <ele>90.4</ele>
        <time>2023-04-25T13:56:17Z</time>
      </trkpt>
      <trkpt lat="49.17195" lon="-0.55571">
        <ele>90</ele>
        <time>2023-04-25T13:56:18Z</time>
      </trkpt>
      <trkpt lat="49.17196" lon="-0.55561">
        <ele>90</ele>
        <time>2023-04-25T13:56:19Z</time>
      </trkpt>
      <trkpt lat="49.17197" lon="-0.55551">
        <ele>89.8</ele>
        <time>2023-04-25T13:56:20Z</time>
      </trkpt>
      <trkpt lat="49.17198" lon="-0.55541">
        <ele>89.6</ele>
        <time>2023-04-25T13:56:21Z</time>
      </trkpt>
      <trkpt lat="49.17199" lon="-0.55532">
        <ele>89.6</ele>
        <time>2023-04-25T13:56:22Z</time>
      </trkpt>
      <trkpt lat="49.17201" lon="-0.55522">
        <ele>89.4</ele>
        <time>2023-04-25T13:56:23Z</time>
      </trkpt>
      <trkpt lat="49.17202" lon="-0.55512">
        <ele>89.2</ele>
        <time>2023-04-25T13:56:24Z</time>
      </trkpt>
      <trkpt lat="49.17203" lon="-0.55502">
        <ele>89</ele>
        <time>2023-04-25T13:56:25Z</time>
      </trkpt>
      <trkpt lat="49.17204" lon="-0.55492">
        <ele>89</ele>
        <time>2023-04-25T13:56:26Z</time>
      </trkpt>
      <trkpt lat="49.17205" lon="-0.55483">
        <ele>89</ele>
        <time>2023-04-25T13:56:27Z</time>
      </trkpt>
      <trkpt lat="49.17206" lon="-0.55473">
        <ele>89.2</ele>
        <time>2023-04-25T13:56:28Z</time>
      </trkpt>
      <trkpt lat="49.17208" lon="-0.55463">
        <ele>89.2</ele>
        <time>2023-04-25T13:56:29Z</time>
      </trkpt>
      <trkpt lat="49.17209" lon="-0.55453">
        <ele>89.4</ele>
        <time>2023-04-25T13:56:30Z</time>
      </trkpt>
      <trkpt lat="49.1721" lon="-0.55442">
        <ele>89.4</ele>
        <time>2023-04-25T13:56:31Z</time>
      </trkpt>
      <trkpt lat="49.17212" lon="-0.55432">
        <ele>89.4</ele>
        <time>2023-04-25T13:56:32Z</time>
      </trkpt>
      <trkpt lat="49.17213" lon="-0.55422">
        <ele>89.6</ele>
        <time>2023-04-25T13:56:33Z</time>
      </trkpt>
      <trkpt lat="49.17214" lon="-0.55412">
        <ele>89.6</ele>
        <time>2023-04-25T13:56:34Z</time>
      </trkpt>
      <trkpt lat="49.17216" lon="-0.55401">
        <ele>89.6</ele>
        <time>2023-04-25T13:56:35Z</time>
      </trkpt>
      <trkpt lat="49.17217" lon="-0.55391">
        <ele>89.6</ele>
        <time>2023-04-25T13:56:36Z</time>
      </trkpt>
      <trkpt lat="49.17218" lon="-0.5538">
        <ele>89.6</ele>
        <time>2023-04-25T13:56:37Z</time>
      </trkpt>
      <trkpt lat="49.17219" lon="-0.5537">
        <ele>89.4</ele>
        <time>2023-04-25T13:56:38Z</time>
      </trkpt>
      <trkpt lat="49.17221" lon="-0.55359">
        <ele>89.4</ele>
        <time>2023-04-25T13:56:39Z</time>
      </trkpt>
      <trkpt lat="49.17222" lon="-0.55348">
        <ele>89.4</ele>
        <time>2023-04-25T13:56:40Z</time>
      </trkpt>
      <trkpt lat="49.17223" lon="-0.55338">
        <ele>89.4</ele>
        <time>2023-04-25T13:56:41Z</time>
      </trkpt>
      <trkpt lat="49.17224" lon="-0.55327">
        <ele>89.4</ele>
        <time>2023-04-25T13:56:42Z</time>
      </trkpt>
      <trkpt lat="49.17225" lon="-0.55316">
        <ele>89</ele>
        <time>2023-04-25T13:56:43Z</time>
      </trkpt>
      <trkpt lat="49.17227" lon="-0.55305">
        <ele>89</ele>
        <time>2023-04-25T13:56:44Z</time>
      </trkpt>
      <trkpt lat="49.17228" lon="-0.55295">
        <ele>88.6</ele>
        <time>2023-04-25T13:56:45Z</time>
      </trkpt>
      <trkpt lat="49.17229" lon="-0.55284">
        <ele>88.6</ele>
        <time>2023-04-25T13:56:46Z</time>
      </trkpt>
      <trkpt lat="49.17231" lon="-0.55273">
        <ele>88.4</ele>
        <time>2023-04-25T13:56:47Z</time>
      </trkpt>
      <trkpt lat="49.17232" lon="-0.55262">
        <ele>88</ele>
        <time>2023-04-25T13:56:48Z</time>
      </trkpt>
      <trkpt lat="49.17233" lon="-0.55251">
        <ele>87.8</ele>
        <time>2023-04-25T13:56:49Z</time>
      </trkpt>
      <trkpt lat="49.17235" lon="-0.5524">
        <ele>87.6</ele>
        <time>2023-04-25T13:56:50Z</time>
      </trkpt>
      <trkpt lat="49.17236" lon="-0.5523">
        <ele>87.6</ele>
        <time>2023-04-25T13:56:51Z</time>
      </trkpt>
      <trkpt lat="49.17237" lon="-0.55219">
        <ele>87.6</ele>
        <time>2023-04-25T13:56:52Z</time>
      </trkpt>
      <trkpt lat="49.17239" lon="-0.55209">
        <ele>87.4</ele>
        <time>2023-04-25T13:56:53Z</time>
      </trkpt>
      <trkpt lat="49.1724" lon="-0.55198">
        <ele>87.4</ele>
        <time>2023-04-25T13:56:54Z</time>
      </trkpt>
      <trkpt lat="49.17241" lon="-0.55188">
        <ele>87</ele>
        <time>2023-04-25T13:56:55Z</time>
      </trkpt>
      <trkpt lat="49.17242" lon="-0.55178">
        <ele>87</ele>
        <time>2023-04-25T13:56:56Z</time>
      </trkpt>
      <trkpt lat="49.17244" lon="-0.55167">
        <ele>87</ele>
        <time>2023-04-25T13:56:57Z</time>
      </trkpt>
      <trkpt lat="49.17245" lon="-0.55157">
        <ele>86.6</ele>
        <time>2023-04-25T13:56:58Z</time>
      </trkpt>
      <trkpt lat="49.17246" lon="-0.55146">
        <ele>86.6</ele>
        <time>2023-04-25T13:56:59Z</time>
      </trkpt>
      <trkpt lat="49.17247" lon="-0.55136">
        <ele>86.4</ele>
        <time>2023-04-25T13:57:00Z</time>
      </trkpt>
      <trkpt lat="49.17249" lon="-0.55125">
        <ele>86</ele>
        <time>2023-04-25T13:57:01Z</time>
      </trkpt>
      <trkpt lat="49.1725" lon="-0.55115">
        <ele>85.8</ele>
        <time>2023-04-25T13:57:02Z</time>
      </trkpt>
      <trkpt lat="49.17251" lon="-0.55104">
        <ele>85.6</ele>
        <time>2023-04-25T13:57:03Z</time>
      </trkpt>
      <trkpt lat="49.17253" lon="-0.55093">
        <ele>85.4</ele>
        <time>2023-04-25T13:57:04Z</time>
      </trkpt>
      <trkpt lat="49.17254" lon="-0.55083">
        <ele>85</ele>
        <time>2023-04-25T13:57:05Z</time>
      </trkpt>
      <trkpt lat="49.17255" lon="-0.55072">
        <ele>85</ele>
        <time>2023-04-25T13:57:06Z</time>
      </trkpt>
      <trkpt lat="49.17256" lon="-0.55062">
        <ele>84.8</ele>
        <time>2023-04-25T13:57:07Z</time>
      </trkpt>
      <trkpt lat="49.17258" lon="-0.55052">
        <ele>84.6</ele>
        <time>2023-04-25T13:57:08Z</time>
      </trkpt>
      <trkpt lat="49.17259" lon="-0.55041">
        <ele>84.6</ele>
        <time>2023-04-25T13:57:09Z</time>
      </trkpt>
      <trkpt lat="49.1726" lon="-0.5503">
        <ele>84.6</ele>
        <time>2023-04-25T13:57:10Z</time>
      </trkpt>
      <trkpt lat="49.17261" lon="-0.5502">
        <ele>84.6</ele>
        <time>2023-04-25T13:57:11Z</time>
      </trkpt>
      <trkpt lat="49.17262" lon="-0.55009">
        <ele>84.4</ele>
        <time>2023-04-25T13:57:12Z</time>
      </trkpt>
      <trkpt lat="49.17264" lon="-0.54998">
        <ele>84.4</ele>
        <time>2023-04-25T13:57:13Z</time>
      </trkpt>
      <trkpt lat="49.17265" lon="-0.54987">
        <ele>84.2</ele>
        <time>2023-04-25T13:57:14Z</time>
      </trkpt>
      <trkpt lat="49.17266" lon="-0.54976">
        <ele>84</ele>
        <time>2023-04-25T13:57:15Z</time>
      </trkpt>
      <trkpt lat="49.17268" lon="-0.54965">
        <ele>84</ele>
        <time>2023-04-25T13:57:16Z</time>
      </trkpt>
      <trkpt lat="49.17269" lon="-0.54954">
        <ele>84</ele>
        <time>2023-04-25T13:57:17Z</time>
      </trkpt>
      <trkpt lat="49.1727" lon="-0.54943">
        <ele>83.8</ele>
        <time>2023-04-25T13:57:18Z</time>
      </trkpt>
      <trkpt lat="49.17272" lon="-0.54931">
        <ele>83.6</ele>
        <time>2023-04-25T13:57:19Z</time>
      </trkpt>
      <trkpt lat="49.17273" lon="-0.5492">
        <ele>83.6</ele>
        <time>2023-04-25T13:57:20Z</time>
      </trkpt>
      <trkpt lat="49.17274" lon="-0.54909">
        <ele>83.6</ele>
        <time>2023-04-25T13:57:21Z</time>
      </trkpt>
      <trkpt lat="49.17276" lon="-0.54898">
        <ele>83.6</ele>
        <time>2023-04-25T13:57:22Z</time>
      </trkpt>
      <trkpt lat="49.17277" lon="-0.54887">
        <ele>83.4</ele>
        <time>2023-04-25T13:57:23Z</time>
      </trkpt>
      <trkpt lat="49.17278" lon="-0.54876">
        <ele>83.4</ele>
        <time>2023-04-25T13:57:24Z</time>
      </trkpt>
      <trkpt lat="49.1728" lon="-0.54865">
        <ele>83.4</ele>
        <time>2023-04-25T13:57:25Z</time>
      </trkpt>
      <trkpt lat="49.17281" lon="-0.54854">
        <ele>83.2</ele>
        <time>2023-04-25T13:57:26Z</time>
      </trkpt>
      <trkpt lat="49.17282" lon="-0.54843">
        <ele>83</ele>
        <time>2023-04-25T13:57:27Z</time>
      </trkpt>
      <trkpt lat="49.17284" lon="-0.54832">
        <ele>83</ele>
        <time>2023-04-25T13:57:28Z</time>
      </trkpt>
      <trkpt lat="49.17285" lon="-0.54821">
        <ele>82.8</ele>
        <time>2023-04-25T13:57:29Z</time>
      </trkpt>
      <trkpt lat="49.17287" lon="-0.5481">
        <ele>82.6</ele>
        <time>2023-04-25T13:57:30Z</time>
      </trkpt>
      <trkpt lat="49.17288" lon="-0.54799">
        <ele>82.4</ele>
        <time>2023-04-25T13:57:31Z</time>
      </trkpt>
      <trkpt lat="49.17289" lon="-0.54788">
        <ele>82.2</ele>
        <time>2023-04-25T13:57:32Z</time>
      </trkpt>
      <trkpt lat="49.17291" lon="-0.54776">
        <ele>82</ele>
        <time>2023-04-25T13:57:33Z</time>
      </trkpt>
      <trkpt lat="49.17292" lon="-0.54765">
        <ele>81.8</ele>
        <time>2023-04-25T13:57:34Z</time>
      </trkpt>
      <trkpt lat="49.17293" lon="-0.54754">
        <ele>81.6</ele>
        <time>2023-04-25T13:57:35Z</time>
      </trkpt>
      <trkpt lat="49.17295" lon="-0.54743">
        <ele>81.6</ele>
        <time>2023-04-25T13:57:36Z</time>
      </trkpt>
      <trkpt lat="49.17296" lon="-0.54732">
        <ele>81.6</ele>
        <time>2023-04-25T13:57:37Z</time>
      </trkpt>
      <trkpt lat="49.17298" lon="-0.54721">
        <ele>81.6</ele>
        <time>2023-04-25T13:57:38Z</time>
      </trkpt>
      <trkpt lat="49.17299" lon="-0.5471">
        <ele>81.6</ele>
        <time>2023-04-25T13:57:39Z</time>
      </trkpt>
      <trkpt lat="49.173" lon="-0.54699">
        <ele>81.6</ele>
        <time>2023-04-25T13:57:40Z</time>
      </trkpt>
      <trkpt lat="49.17301" lon="-0.54688">
        <ele>81.6</ele>
        <time>2023-04-25T13:57:41Z</time>
      </trkpt>
      <trkpt lat="49.17303" lon="-0.54676">
        <ele>81.6</ele>
        <time>2023-04-25T13:57:42Z</time>
      </trkpt>
      <trkpt lat="49.17304" lon="-0.54665">
        <ele>81.6</ele>
        <time>2023-04-25T13:57:43Z</time>
      </trkpt>
      <trkpt lat="49.17306" lon="-0.54654">
        <ele>81.4</ele>
        <time>2023-04-25T13:57:44Z</time>
      </trkpt>
      <trkpt lat="49.17307" lon="-0.54643">
        <ele>81.2</ele>
        <time>2023-04-25T13:57:45Z</time>
      </trkpt>
      <trkpt lat="49.17308" lon="-0.54632">
        <ele>81</ele>
        <time>2023-04-25T13:57:46Z</time>
      </trkpt>
      <trkpt lat="49.1731" lon="-0.54621">
        <ele>81</ele>
        <time>2023-04-25T13:57:47Z</time>
      </trkpt>
      <trkpt lat="49.17311" lon="-0.5461">
        <ele>80.6</ele>
        <time>2023-04-25T13:57:48Z</time>
      </trkpt>
      <trkpt lat="49.17312" lon="-0.54599">
        <ele>80.6</ele>
        <time>2023-04-25T13:57:49Z</time>
      </trkpt>
      <trkpt lat="49.17314" lon="-0.54588">
        <ele>80.4</ele>
        <time>2023-04-25T13:57:50Z</time>
      </trkpt>
      <trkpt lat="49.17315" lon="-0.54577">
        <ele>80.4</ele>
        <time>2023-04-25T13:57:51Z</time>
      </trkpt>
      <trkpt lat="49.17316" lon="-0.54566">
        <ele>80.2</ele>
        <time>2023-04-25T13:57:52Z</time>
      </trkpt>
      <trkpt lat="49.17318" lon="-0.54555">
        <ele>80.2</ele>
        <time>2023-04-25T13:57:53Z</time>
      </trkpt>
      <trkpt lat="49.17319" lon="-0.54544">
        <ele>80</ele>
        <time>2023-04-25T13:57:54Z</time>
      </trkpt>
      <trkpt lat="49.1732" lon="-0.54533">
        <ele>80</ele>
        <time>2023-04-25T13:57:55Z</time>
      </trkpt>
      <trkpt lat="49.17322" lon="-0.54522">
        <ele>80</ele>
        <time>2023-04-25T13:57:56Z</time>
      </trkpt>
      <trkpt lat="49.17323" lon="-0.54511">
        <ele>80</ele>
        <time>2023-04-25T13:57:57Z</time>
      </trkpt>
      <trkpt lat="49.17324" lon="-0.54499">
        <ele>79.8</ele>
        <time>2023-04-25T13:57:58Z</time>
      </trkpt>
      <trkpt lat="49.17325" lon="-0.54488">
        <ele>79.6</ele>
        <time>2023-04-25T13:57:59Z</time>
      </trkpt>
      <trkpt lat="49.17327" lon="-0.54477">
        <ele>79.6</ele>
        <time>2023-04-25T13:58:00Z</time>
      </trkpt>
      <trkpt lat="49.17328" lon="-0.54466">
        <ele>79.6</ele>
        <time>2023-04-25T13:58:01Z</time>
      </trkpt>
      <trkpt lat="49.17329" lon="-0.54455">
        <ele>79.4</ele>
        <time>2023-04-25T13:58:02Z</time>
      </trkpt>
      <trkpt lat="49.17331" lon="-0.54444">
        <ele>79.4</ele>
        <time>2023-04-25T13:58:03Z</time>
      </trkpt>
      <trkpt lat="49.17332" lon="-0.54432">
        <ele>79.2</ele>
        <time>2023-04-25T13:58:04Z</time>
      </trkpt>
      <trkpt lat="49.17334" lon="-0.54421">
        <ele>79</ele>
        <time>2023-04-25T13:58:05Z</time>
      </trkpt>
      <trkpt lat="49.17335" lon="-0.5441">
        <ele>79</ele>
        <time>2023-04-25T13:58:06Z</time>
      </trkpt>
      <trkpt lat="49.17336" lon="-0.54399">
        <ele>78.6</ele>
        <time>2023-04-25T13:58:07Z</time>
      </trkpt>
      <trkpt lat="49.17338" lon="-0.54388">
        <ele>78.6</ele>
        <time>2023-04-25T13:58:08Z</time>
      </trkpt>
      <trkpt lat="49.17339" lon="-0.54377">
        <ele>78.4</ele>
        <time>2023-04-25T13:58:09Z</time>
      </trkpt>
      <trkpt lat="49.1734" lon="-0.54366">
        <ele>78.4</ele>
        <time>2023-04-25T13:58:10Z</time>
      </trkpt>
      <trkpt lat="49.17342" lon="-0.54355">
        <ele>78</ele>
        <time>2023-04-25T13:58:11Z</time>
      </trkpt>
      <trkpt lat="49.17343" lon="-0.54344">
        <ele>78</ele>
        <time>2023-04-25T13:58:12Z</time>
      </trkpt>
      <trkpt lat="49.17344" lon="-0.54333">
        <ele>77.6</ele>
        <time>2023-04-25T13:58:13Z</time>
      </trkpt>
      <trkpt lat="49.17346" lon="-0.54322">
        <ele>77.6</ele>
        <time>2023-04-25T13:58:14Z</time>
      </trkpt>
      <trkpt lat="49.17347" lon="-0.54312">
        <ele>77.6</ele>
        <time>2023-04-25T13:58:15Z</time>
      </trkpt>
      <trkpt lat="49.17348" lon="-0.54301">
        <ele>77.6</ele>
        <time>2023-04-25T13:58:16Z</time>
      </trkpt>
      <trkpt lat="49.17349" lon="-0.54291">
        <ele>77.6</ele>
        <time>2023-04-25T13:58:17Z</time>
      </trkpt>
      <trkpt lat="49.17351" lon="-0.5428">
        <ele>77.6</ele>
        <time>2023-04-25T13:58:18Z</time>
      </trkpt>
      <trkpt lat="49.17352" lon="-0.5427">
        <ele>77.4</ele>
        <time>2023-04-25T13:58:19Z</time>
      </trkpt>
      <trkpt lat="49.17353" lon="-0.5426">
        <ele>77.4</ele>
        <time>2023-04-25T13:58:20Z</time>
      </trkpt>
      <trkpt lat="49.17354" lon="-0.5425">
        <ele>77.4</ele>
        <time>2023-04-25T13:58:21Z</time>
      </trkpt>
      <trkpt lat="49.17355" lon="-0.5424">
        <ele>77.4</ele>
        <time>2023-04-25T13:58:22Z</time>
      </trkpt>
      <trkpt lat="49.17357" lon="-0.5423">
        <ele>77.4</ele>
        <time>2023-04-25T13:58:23Z</time>
      </trkpt>
      <trkpt lat="49.17358" lon="-0.5422">
        <ele>77.4</ele>
        <time>2023-04-25T13:58:24Z</time>
      </trkpt>
      <trkpt lat="49.17359" lon="-0.54211">
        <ele>77.4</ele>
        <time>2023-04-25T13:58:25Z</time>
      </trkpt>
      <trkpt lat="49.1736" lon="-0.54202">
        <ele>77.4</ele>
        <time>2023-04-25T13:58:26Z</time>
      </trkpt>
      <trkpt lat="49.17361" lon="-0.54193">
        <ele>77.6</ele>
        <time>2023-04-25T13:58:27Z</time>
      </trkpt>
      <trkpt lat="49.17362" lon="-0.54184">
        <ele>77.6</ele>
        <time>2023-04-25T13:58:28Z</time>
      </trkpt>
      <trkpt lat="49.17363" lon="-0.54176">
        <ele>77.6</ele>
        <time>2023-04-25T13:58:29Z</time>
      </trkpt>
      <trkpt lat="49.17364" lon="-0.54168">
        <ele>77.6</ele>
        <time>2023-04-25T13:58:30Z</time>
      </trkpt>
      <trkpt lat="49.17365" lon="-0.54159">
        <ele>77.6</ele>
        <time>2023-04-25T13:58:31Z</time>
      </trkpt>
      <trkpt lat="49.17366" lon="-0.54152">
        <ele>77.6</ele>
        <time>2023-04-25T13:58:32Z</time>
      </trkpt>
      <trkpt lat="49.17367" lon="-0.54144">
        <ele>77.6</ele>
        <time>2023-04-25T13:58:33Z</time>
      </trkpt>
      <trkpt lat="49.17367" lon="-0.54136">
        <ele>77.6</ele>
        <time>2023-04-25T13:58:34Z</time>
      </trkpt>
      <trkpt lat="49.17368" lon="-0.54129">
        <ele>77.6</ele>
        <time>2023-04-25T13:58:35Z</time>
      </trkpt>
      <trkpt lat="49.17369" lon="-0.54121">
        <ele>77.6</ele>
        <time>2023-04-25T13:58:36Z</time>
      </trkpt>
      <trkpt lat="49.1737" lon="-0.54114">
        <ele>77.6</ele>
        <time>2023-04-25T13:58:37Z</time>
      </trkpt>
      <trkpt lat="49.17371" lon="-0.54107">
        <ele>77.6</ele>
        <time>2023-04-25T13:58:38Z</time>
      </trkpt>
      <trkpt lat="49.17372" lon="-0.54099">
        <ele>77.6</ele>
        <time>2023-04-25T13:58:39Z</time>
      </trkpt>
      <trkpt lat="49.17373" lon="-0.54092">
        <ele>77.6</ele>
        <time>2023-04-25T13:58:40Z</time>
      </trkpt>
      <trkpt lat="49.17373" lon="-0.54085">
        <ele>77.6</ele>
        <time>2023-04-25T13:58:41Z</time>
      </trkpt>
      <trkpt lat="49.17374" lon="-0.54079">
        <ele>77.6</ele>
        <time>2023-04-25T13:58:42Z</time>
      </trkpt>
      <trkpt lat="49.17375" lon="-0.54072">
        <ele>77.6</ele>
        <time>2023-04-25T13:58:43Z</time>
      </trkpt>
      <trkpt lat="49.17376" lon="-0.54065">
        <ele>77.6</ele>
        <time>2023-04-25T13:58:44Z</time>
      </trkpt>
      <trkpt lat="49.17377" lon="-0.54059">
        <ele>77.6</ele>
        <time>2023-04-25T13:58:45Z</time>
      </trkpt>
      <trkpt lat="49.17377" lon="-0.54052">
        <ele>77.8</ele>
        <time>2023-04-25T13:58:46Z</time>
      </trkpt>
      <trkpt lat="49.17378" lon="-0.54046">
        <ele>78</ele>
        <time>2023-04-25T13:58:47Z</time>
      </trkpt>
      <trkpt lat="49.17379" lon="-0.54039">
        <ele>78</ele>
        <time>2023-04-25T13:58:48Z</time>
      </trkpt>
      <trkpt lat="49.1738" lon="-0.54033">
        <ele>78</ele>
        <time>2023-04-25T13:58:49Z</time>
      </trkpt>
      <trkpt lat="49.17381" lon="-0.54026">
        <ele>78</ele>
        <time>2023-04-25T13:58:50Z</time>
      </trkpt>
      <trkpt lat="49.17381" lon="-0.5402">
        <ele>78.2</ele>
        <time>2023-04-25T13:58:51Z</time>
      </trkpt>
      <trkpt lat="49.17382" lon="-0.54013">
        <ele>78.2</ele>
        <time>2023-04-25T13:58:52Z</time>
      </trkpt>
      <trkpt lat="49.17383" lon="-0.54007">
        <ele>78.4</ele>
        <time>2023-04-25T13:58:53Z</time>
      </trkpt>
      <trkpt lat="49.17384" lon="-0.54">
        <ele>78.4</ele>
        <time>2023-04-25T13:58:54Z</time>
      </trkpt>
      <trkpt lat="49.17385" lon="-0.53994">
        <ele>78.6</ele>
        <time>2023-04-25T13:58:55Z</time>
      </trkpt>
      <trkpt lat="49.17385" lon="-0.53987">
        <ele>78.6</ele>
        <time>2023-04-25T13:58:56Z</time>
      </trkpt>
      <trkpt lat="49.17386" lon="-0.53981">
        <ele>79</ele>
        <time>2023-04-25T13:58:57Z</time>
      </trkpt>
      <trkpt lat="49.17387" lon="-0.53974">
        <ele>79</ele>
        <time>2023-04-25T13:58:58Z</time>
      </trkpt>
      <trkpt lat="49.17388" lon="-0.53967">
        <ele>79.4</ele>
        <time>2023-04-25T13:58:59Z</time>
      </trkpt>
      <trkpt lat="49.17389" lon="-0.53961">
        <ele>79.4</ele>
        <time>2023-04-25T13:59:00Z</time>
      </trkpt>
      <trkpt lat="49.17389" lon="-0.53954">
        <ele>79.6</ele>
        <time>2023-04-25T13:59:01Z</time>
      </trkpt>
      <trkpt lat="49.1739" lon="-0.53947">
        <ele>79.8</ele>
        <time>2023-04-25T13:59:02Z</time>
      </trkpt>
      <trkpt lat="49.17391" lon="-0.5394">
        <ele>80</ele>
        <time>2023-04-25T13:59:03Z</time>
      </trkpt>
      <trkpt lat="49.17392" lon="-0.53933">
        <ele>80</ele>
        <time>2023-04-25T13:59:04Z</time>
      </trkpt>
      <trkpt lat="49.17393" lon="-0.53927">
        <ele>80.4</ele>
        <time>2023-04-25T13:59:05Z</time>
      </trkpt>
      <trkpt lat="49.17393" lon="-0.5392">
        <ele>80.6</ele>
        <time>2023-04-25T13:59:06Z</time>
      </trkpt>
      <trkpt lat="49.17394" lon="-0.53913">
        <ele>80.6</ele>
        <time>2023-04-25T13:59:07Z</time>
      </trkpt>
      <trkpt lat="49.17395" lon="-0.53906">
        <ele>80.6</ele>
        <time>2023-04-25T13:59:08Z</time>
      </trkpt>
      <trkpt lat="49.17396" lon="-0.539">
        <ele>80.6</ele>
        <time>2023-04-25T13:59:09Z</time>
      </trkpt>
      <trkpt lat="49.17397" lon="-0.53893">
        <ele>80.6</ele>
        <time>2023-04-25T13:59:10Z</time>
      </trkpt>
      <trkpt lat="49.17398" lon="-0.53886">
        <ele>80.6</ele>
        <time>2023-04-25T13:59:11Z</time>
      </trkpt>
      <trkpt lat="49.17398" lon="-0.53879">
        <ele>80.6</ele>
        <time>2023-04-25T13:59:12Z</time>
      </trkpt>
      <trkpt lat="49.17399" lon="-0.53873">
        <ele>80.6</ele>
        <time>2023-04-25T13:59:13Z</time>
      </trkpt>
      <trkpt lat="49.174" lon="-0.53866">
        <ele>80.6</ele>
        <time>2023-04-25T13:59:14Z</time>
      </trkpt>
      <trkpt lat="49.17401" lon="-0.53859">
        <ele>80.6</ele>
        <time>2023-04-25T13:59:15Z</time>
      </trkpt>
      <trkpt lat="49.17402" lon="-0.53852">
        <ele>80.6</ele>
        <time>2023-04-25T13:59:16Z</time>
      </trkpt>
      <trkpt lat="49.17403" lon="-0.53846">
        <ele>80.6</ele>
        <time>2023-04-25T13:59:17Z</time>
      </trkpt>
      <trkpt lat="49.17403" lon="-0.53839">
        <ele>80.6</ele>
        <time>2023-04-25T13:59:18Z</time>
      </trkpt>
      <trkpt lat="49.17404" lon="-0.53832">
        <ele>80.6</ele>
        <time>2023-04-25T13:59:19Z</time>
      </trkpt>
      <trkpt lat="49.17405" lon="-0.53825">
        <ele>80.4</ele>
        <time>2023-04-25T13:59:20Z</time>
      </trkpt>
      <trkpt lat="49.17406" lon="-0.53819">
        <ele>80.4</ele>
        <time>2023-04-25T13:59:21Z</time>
      </trkpt>
      <trkpt lat="49.17407" lon="-0.53812">
        <ele>80.4</ele>
        <time>2023-04-25T13:59:22Z</time>
      </trkpt>
      <trkpt lat="49.17407" lon="-0.53805">
        <ele>80.4</ele>
        <time>2023-04-25T13:59:23Z</time>
      </trkpt>
      <trkpt lat="49.17408" lon="-0.53798">
        <ele>80.4</ele>
        <time>2023-04-25T13:59:24Z</time>
      </trkpt>
      <trkpt lat="49.17409" lon="-0.53791">
        <ele>80.4</ele>
        <time>2023-04-25T13:59:25Z</time>
      </trkpt>
      <trkpt lat="49.1741" lon="-0.53784">
        <ele>80.4</ele>
        <time>2023-04-25T13:59:26Z</time>
      </trkpt>
      <trkpt lat="49.17411" lon="-0.53778">
        <ele>80.4</ele>
        <time>2023-04-25T13:59:27Z</time>
      </trkpt>
      <trkpt lat="49.17412" lon="-0.53771">
        <ele>80.2</ele>
        <time>2023-04-25T13:59:28Z</time>
      </trkpt>
      <trkpt lat="49.17412" lon="-0.53763">
        <ele>80.2</ele>
        <time>2023-04-25T13:59:29Z</time>
      </trkpt>
      <trkpt lat="49.17413" lon="-0.53756">
        <ele>80.2</ele>
        <time>2023-04-25T13:59:30Z</time>
      </trkpt>
      <trkpt lat="49.17414" lon="-0.53749">
        <ele>80</ele>
        <time>2023-04-25T13:59:31Z</time>
      </trkpt>
      <trkpt lat="49.17415" lon="-0.53742">
        <ele>80.2</ele>
        <time>2023-04-25T13:59:32Z</time>
      </trkpt>
      <trkpt lat="49.17416" lon="-0.53735">
        <ele>80.2</ele>
        <time>2023-04-25T13:59:33Z</time>
      </trkpt>
      <trkpt lat="49.17417" lon="-0.53728">
        <ele>80.4</ele>
        <time>2023-04-25T13:59:34Z</time>
      </trkpt>
      <trkpt lat="49.17418" lon="-0.53721">
        <ele>80.4</ele>
        <time>2023-04-25T13:59:35Z</time>
      </trkpt>
      <trkpt lat="49.17419" lon="-0.53713">
        <ele>80.4</ele>
        <time>2023-04-25T13:59:36Z</time>
      </trkpt>
      <trkpt lat="49.1742" lon="-0.53706">
        <ele>80.4</ele>
        <time>2023-04-25T13:59:37Z</time>
      </trkpt>
      <trkpt lat="49.1742" lon="-0.53699">
        <ele>80.6</ele>
        <time>2023-04-25T13:59:38Z</time>
      </trkpt>
      <trkpt lat="49.17421" lon="-0.53691">
        <ele>80.6</ele>
        <time>2023-04-25T13:59:39Z</time>
      </trkpt>
      <trkpt lat="49.17422" lon="-0.53684">
        <ele>80.6</ele>
        <time>2023-04-25T13:59:40Z</time>
      </trkpt>
      <trkpt lat="49.17423" lon="-0.53676">
        <ele>80.6</ele>
        <time>2023-04-25T13:59:41Z</time>
      </trkpt>
      <trkpt lat="49.17424" lon="-0.53669">
        <ele>80.6</ele>
        <time>2023-04-25T13:59:42Z</time>
      </trkpt>
      <trkpt lat="49.17425" lon="-0.53661">
        <ele>80.6</ele>
        <time>2023-04-25T13:59:43Z</time>
      </trkpt>
      <trkpt lat="49.17426" lon="-0.53654">
        <ele>80.6</ele>
        <time>2023-04-25T13:59:44Z</time>
      </trkpt>
      <trkpt lat="49.17427" lon="-0.53647">
        <ele>80.6</ele>
        <time>2023-04-25T13:59:45Z</time>
      </trkpt>
      <trkpt lat="49.17428" lon="-0.53639">
        <ele>80.6</ele>
        <time>2023-04-25T13:59:46Z</time>
      </trkpt>
      <trkpt lat="49.17429" lon="-0.53632">
        <ele>80.6</ele>
        <time>2023-04-25T13:59:47Z</time>
      </trkpt>
      <trkpt lat="49.1743" lon="-0.53625">
        <ele>80.6</ele>
        <time>2023-04-25T13:59:48Z</time>
      </trkpt>
      <trkpt lat="49.17431" lon="-0.53617">
        <ele>80.6</ele>
        <time>2023-04-25T13:59:49Z</time>
      </trkpt>
      <trkpt lat="49.17432" lon="-0.5361">
        <ele>80.6</ele>
        <time>2023-04-25T13:59:50Z</time>
      </trkpt>
      <trkpt lat="49.17433" lon="-0.53603">
        <ele>80.6</ele>
        <time>2023-04-25T13:59:51Z</time>
      </trkpt>
      <trkpt lat="49.17433" lon="-0.53595">
        <ele>80.6</ele>
        <time>2023-04-25T13:59:52Z</time>
      </trkpt>
      <trkpt lat="49.17434" lon="-0.53588">
        <ele>80.6</ele>
        <time>2023-04-25T13:59:53Z</time>
      </trkpt>
      <trkpt lat="49.17435" lon="-0.53581">
        <ele>80.6</ele>
        <time>2023-04-25T13:59:54Z</time>
      </trkpt>
      <trkpt lat="49.17436" lon="-0.53573">
        <ele>80.6</ele>
        <time>2023-04-25T13:59:55Z</time>
      </trkpt>
      <trkpt lat="49.17437" lon="-0.53565">
        <ele>80.6</ele>
        <time>2023-04-25T13:59:56Z</time>
      </trkpt>
      <trkpt lat="49.17438" lon="-0.53558">
        <ele>80.8</ele>
        <time>2023-04-25T13:59:57Z</time>
      </trkpt>
      <trkpt lat="49.17439" lon="-0.5355">
        <ele>81</ele>
        <time>2023-04-25T13:59:58Z</time>
      </trkpt>
      <trkpt lat="49.1744" lon="-0.53542">
        <ele>81</ele>
        <time>2023-04-25T13:59:59Z</time>
      </trkpt>
      <trkpt lat="49.17441" lon="-0.53535">
        <ele>81</ele>
        <time>2023-04-25T14:00:00Z</time>
      </trkpt>
      <trkpt lat="49.17442" lon="-0.53527">
        <ele>81</ele>
        <time>2023-04-25T14:00:01Z</time>
      </trkpt>
      <trkpt lat="49.17443" lon="-0.53519">
        <ele>81</ele>
        <time>2023-04-25T14:00:02Z</time>
      </trkpt>
      <trkpt lat="49.17444" lon="-0.53512">
        <ele>81.2</ele>
        <time>2023-04-25T14:00:03Z</time>
      </trkpt>
      <trkpt lat="49.17445" lon="-0.53505">
        <ele>81.4</ele>
        <time>2023-04-25T14:00:04Z</time>
      </trkpt>
      <trkpt lat="49.17445" lon="-0.53497">
        <ele>81.4</ele>
        <time>2023-04-25T14:00:05Z</time>
      </trkpt>
      <trkpt lat="49.17446" lon="-0.5349">
        <ele>81.6</ele>
        <time>2023-04-25T14:00:06Z</time>
      </trkpt>
      <trkpt lat="49.17447" lon="-0.53482">
        <ele>81.6</ele>
        <time>2023-04-25T14:00:07Z</time>
      </trkpt>
      <trkpt lat="49.17448" lon="-0.53475">
        <ele>81.6</ele>
        <time>2023-04-25T14:00:08Z</time>
      </trkpt>
      <trkpt lat="49.17449" lon="-0.53468">
        <ele>82</ele>
        <time>2023-04-25T14:00:09Z</time>
      </trkpt>
      <trkpt lat="49.1745" lon="-0.5346">
        <ele>82</ele>
        <time>2023-04-25T14:00:10Z</time>
      </trkpt>
      <trkpt lat="49.17451" lon="-0.53453">
        <ele>82</ele>
        <time>2023-04-25T14:00:11Z</time>
      </trkpt>
      <trkpt lat="49.17451" lon="-0.53446">
        <ele>82.2</ele>
        <time>2023-04-25T14:00:12Z</time>
      </trkpt>
      <trkpt lat="49.17452" lon="-0.53438">
        <ele>82.4</ele>
        <time>2023-04-25T14:00:13Z</time>
      </trkpt>
      <trkpt lat="49.17453" lon="-0.53431">
        <ele>82.4</ele>
        <time>2023-04-25T14:00:14Z</time>
      </trkpt>
      <trkpt lat="49.17454" lon="-0.53423">
        <ele>82.6</ele>
        <time>2023-04-25T14:00:15Z</time>
      </trkpt>
      <trkpt lat="49.17455" lon="-0.53416">
        <ele>82.6</ele>
        <time>2023-04-25T14:00:16Z</time>
      </trkpt>
      <trkpt lat="49.17456" lon="-0.53408">
        <ele>82.6</ele>
        <time>2023-04-25T14:00:17Z</time>
      </trkpt>
      <trkpt lat="49.17457" lon="-0.53401">
        <ele>82.8</ele>
        <time>2023-04-25T14:00:18Z</time>
      </trkpt>
      <trkpt lat="49.17458" lon="-0.53393">
        <ele>83</ele>
        <time>2023-04-25T14:00:19Z</time>
      </trkpt>
      <trkpt lat="49.17459" lon="-0.53386">
        <ele>83</ele>
        <time>2023-04-25T14:00:20Z</time>
      </trkpt>
      <trkpt lat="49.1746" lon="-0.53378">
        <ele>83</ele>
        <time>2023-04-25T14:00:21Z</time>
      </trkpt>
      <trkpt lat="49.17461" lon="-0.53371">
        <ele>83.2</ele>
        <time>2023-04-25T14:00:22Z</time>
      </trkpt>
      <trkpt lat="49.17461" lon="-0.53363">
        <ele>83.4</ele>
        <time>2023-04-25T14:00:23Z</time>
      </trkpt>
      <trkpt lat="49.17462" lon="-0.53355">
        <ele>83.4</ele>
        <time>2023-04-25T14:00:24Z</time>
      </trkpt>
      <trkpt lat="49.17463" lon="-0.53348">
        <ele>83.6</ele>
        <time>2023-04-25T14:00:25Z</time>
      </trkpt>
      <trkpt lat="49.17464" lon="-0.5334">
        <ele>83.6</ele>
        <time>2023-04-25T14:00:26Z</time>
      </trkpt>
      <trkpt lat="49.17465" lon="-0.53332">
        <ele>83.6</ele>
        <time>2023-04-25T14:00:27Z</time>
      </trkpt>
      <trkpt lat="49.17466" lon="-0.53325">
        <ele>83.6</ele>
        <time>2023-04-25T14:00:28Z</time>
      </trkpt>
      <trkpt lat="49.17467" lon="-0.53317">
        <ele>83.6</ele>
        <time>2023-04-25T14:00:29Z</time>
      </trkpt>
      <trkpt lat="49.17467" lon="-0.53309">
        <ele>83.6</ele>
        <time>2023-04-25T14:00:30Z</time>
      </trkpt>
      <trkpt lat="49.17468" lon="-0.53302">
        <ele>83.6</ele>
        <time>2023-04-25T14:00:31Z</time>
      </trkpt>
      <trkpt lat="49.17469" lon="-0.53294">
        <ele>83.6</ele>
        <time>2023-04-25T14:00:32Z</time>
      </trkpt>
      <trkpt lat="49.1747" lon="-0.53287">
        <ele>83.6</ele>
        <time>2023-04-25T14:00:33Z</time>
      </trkpt>
      <trkpt lat="49.17471" lon="-0.53279">
        <ele>83.6</ele>
        <time>2023-04-25T14:00:34Z</time>
      </trkpt>
      <trkpt lat="49.17472" lon="-0.53272">
        <ele>83.6</ele>
        <time>2023-04-25T14:00:35Z</time>
      </trkpt>
      <trkpt lat="49.17472" lon="-0.53265">
        <ele>83.6</ele>
        <time>2023-04-25T14:00:36Z</time>
      </trkpt>
      <trkpt lat="49.17473" lon="-0.53258">
        <ele>83.6</ele>
        <time>2023-04-25T14:00:37Z</time>
      </trkpt>
      <trkpt lat="49.17474" lon="-0.53251">
        <ele>83.6</ele>
        <time>2023-04-25T14:00:38Z</time>
      </trkpt>
      <trkpt lat="49.17475" lon="-0.53244">
        <ele>83.6</ele>
        <time>2023-04-25T14:00:39Z</time>
      </trkpt>
      <trkpt lat="49.17476" lon="-0.53237">
        <ele>83.6</ele>
        <time>2023-04-25T14:00:40Z</time>
      </trkpt>
      <trkpt lat="49.17477" lon="-0.53231">
        <ele>83.6</ele>
        <time>2023-04-25T14:00:41Z</time>
      </trkpt>
      <trkpt lat="49.17477" lon="-0.53225">
        <ele>83.6</ele>
        <time>2023-04-25T14:00:42Z</time>
      </trkpt>
      <trkpt lat="49.17478" lon="-0.53218">
        <ele>83.6</ele>
        <time>2023-04-25T14:00:43Z</time>
      </trkpt>
      <trkpt lat="49.17479" lon="-0.53212">
        <ele>83.6</ele>
        <time>2023-04-25T14:00:44Z</time>
      </trkpt>
      <trkpt lat="49.1748" lon="-0.53205">
        <ele>83.6</ele>
        <time>2023-04-25T14:00:45Z</time>
      </trkpt>
      <trkpt lat="49.17481" lon="-0.53198">
        <ele>83.6</ele>
        <time>2023-04-25T14:00:46Z</time>
      </trkpt>
      <trkpt lat="49.17481" lon="-0.53192">
        <ele>83.6</ele>
        <time>2023-04-25T14:00:47Z</time>
      </trkpt>
      <trkpt lat="49.17482" lon="-0.53185">
        <ele>83.6</ele>
        <time>2023-04-25T14:00:48Z</time>
      </trkpt>
      <trkpt lat="49.17483" lon="-0.53178">
        <ele>83.6</ele>
        <time>2023-04-25T14:00:49Z</time>
      </trkpt>
      <trkpt lat="49.17484" lon="-0.53171">
        <ele>83.6</ele>
        <time>2023-04-25T14:00:50Z</time>
      </trkpt>
      <trkpt lat="49.17485" lon="-0.53164">
        <ele>83.8</ele>
        <time>2023-04-25T14:00:51Z</time>
      </trkpt>
      <trkpt lat="49.17485" lon="-0.53157">
        <ele>84</ele>
        <time>2023-04-25T14:00:52Z</time>
      </trkpt>
      <trkpt lat="49.17486" lon="-0.5315">
        <ele>84</ele>
        <time>2023-04-25T14:00:53Z</time>
      </trkpt>
      <trkpt lat="49.17487" lon="-0.53143">
        <ele>84</ele>
        <time>2023-04-25T14:00:54Z</time>
      </trkpt>
      <trkpt lat="49.17488" lon="-0.53136">
        <ele>84.4</ele>
        <time>2023-04-25T14:00:55Z</time>
      </trkpt>
      <trkpt lat="49.17489" lon="-0.53129">
        <ele>84.4</ele>
        <time>2023-04-25T14:00:56Z</time>
      </trkpt>
      <trkpt lat="49.1749" lon="-0.53122">
        <ele>84.6</ele>
        <time>2023-04-25T14:00:57Z</time>
      </trkpt>
      <trkpt lat="49.17491" lon="-0.53116">
        <ele>84.6</ele>
        <time>2023-04-25T14:00:58Z</time>
      </trkpt>
      <trkpt lat="49.17491" lon="-0.53109">
        <ele>84.6</ele>
        <time>2023-04-25T14:00:59Z</time>
      </trkpt>
      <trkpt lat="49.17492" lon="-0.53102">
        <ele>85</ele>
        <time>2023-04-25T14:01:00Z</time>
      </trkpt>
      <trkpt lat="49.17493" lon="-0.53095">
        <ele>85</ele>
        <time>2023-04-25T14:01:01Z</time>
      </trkpt>
      <trkpt lat="49.17494" lon="-0.53088">
        <ele>85</ele>
        <time>2023-04-25T14:01:02Z</time>
      </trkpt>
      <trkpt lat="49.17495" lon="-0.53081">
        <ele>85.4</ele>
        <time>2023-04-25T14:01:03Z</time>
      </trkpt>
      <trkpt lat="49.17495" lon="-0.53074">
        <ele>85.6</ele>
        <time>2023-04-25T14:01:04Z</time>
      </trkpt>
      <trkpt lat="49.17496" lon="-0.53068">
        <ele>85.6</ele>
        <time>2023-04-25T14:01:05Z</time>
      </trkpt>
      <trkpt lat="49.17497" lon="-0.53061">
        <ele>86</ele>
        <time>2023-04-25T14:01:06Z</time>
      </trkpt>
      <trkpt lat="49.17498" lon="-0.53054">
        <ele>86</ele>
        <time>2023-04-25T14:01:07Z</time>
      </trkpt>
      <trkpt lat="49.17499" lon="-0.53047">
        <ele>86.4</ele>
        <time>2023-04-25T14:01:08Z</time>
      </trkpt>
      <trkpt lat="49.17499" lon="-0.5304">
        <ele>86.6</ele>
        <time>2023-04-25T14:01:09Z</time>
      </trkpt>
      <trkpt lat="49.175" lon="-0.53033">
        <ele>86.8</ele>
        <time>2023-04-25T14:01:10Z</time>
      </trkpt>
      <trkpt lat="49.17501" lon="-0.53026">
        <ele>87</ele>
        <time>2023-04-25T14:01:11Z</time>
      </trkpt>
      <trkpt lat="49.17502" lon="-0.53019">
        <ele>87.2</ele>
        <time>2023-04-25T14:01:12Z</time>
      </trkpt>
      <trkpt lat="49.17503" lon="-0.53012">
        <ele>87.4</ele>
        <time>2023-04-25T14:01:13Z</time>
      </trkpt>
      <trkpt lat="49.17503" lon="-0.53005">
        <ele>87.6</ele>
        <time>2023-04-25T14:01:14Z</time>
      </trkpt>
      <trkpt lat="49.17504" lon="-0.52998">
        <ele>87.6</ele>
        <time>2023-04-25T14:01:15Z</time>
      </trkpt>
      <trkpt lat="49.17505" lon="-0.52991">
        <ele>87.6</ele>
        <time>2023-04-25T14:01:16Z</time>
      </trkpt>
      <trkpt lat="49.17506" lon="-0.52984">
        <ele>87.6</ele>
        <time>2023-04-25T14:01:17Z</time>
      </trkpt>
      <trkpt lat="49.17507" lon="-0.52978">
        <ele>87.4</ele>
        <time>2023-04-25T14:01:18Z</time>
      </trkpt>
      <trkpt lat="49.17508" lon="-0.52971">
        <ele>87.4</ele>
        <time>2023-04-25T14:01:19Z</time>
      </trkpt>
      <trkpt lat="49.17508" lon="-0.52964">
        <ele>87.2</ele>
        <time>2023-04-25T14:01:20Z</time>
      </trkpt>
      <trkpt lat="49.17509" lon="-0.52957">
        <ele>87</ele>
        <time>2023-04-25T14:01:21Z</time>
      </trkpt>
      <trkpt lat="49.1751" lon="-0.5295">
        <ele>87</ele>
        <time>2023-04-25T14:01:22Z</time>
      </trkpt>
      <trkpt lat="49.17511" lon="-0.52943">
        <ele>86.8</ele>
        <time>2023-04-25T14:01:23Z</time>
      </trkpt>
      <trkpt lat="49.17512" lon="-0.52936">
        <ele>86.8</ele>
        <time>2023-04-25T14:01:24Z</time>
      </trkpt>
      <trkpt lat="49.17512" lon="-0.52929">
        <ele>86.6</ele>
        <time>2023-04-25T14:01:25Z</time>
      </trkpt>
      <trkpt lat="49.17513" lon="-0.52922">
        <ele>86.6</ele>
        <time>2023-04-25T14:01:26Z</time>
      </trkpt>
      <trkpt lat="49.17514" lon="-0.52915">
        <ele>86.6</ele>
        <time>2023-04-25T14:01:27Z</time>
      </trkpt>
      <trkpt lat="49.17515" lon="-0.52908">
        <ele>86.6</ele>
        <time>2023-04-25T14:01:28Z</time>
      </trkpt>
      <trkpt lat="49.17516" lon="-0.52901">
        <ele>86.6</ele>
        <time>2023-04-25T14:01:29Z</time>
      </trkpt>
      <trkpt lat="49.17517" lon="-0.52893">
        <ele>86.6</ele>
        <time>2023-04-25T14:01:30Z</time>
      </trkpt>
      <trkpt lat="49.17517" lon="-0.52886">
        <ele>86.6</ele>
        <time>2023-04-25T14:01:31Z</time>
      </trkpt>
      <trkpt lat="49.17518" lon="-0.52879">
        <ele>86.8</ele>
        <time>2023-04-25T14:01:32Z</time>
      </trkpt>
      <trkpt lat="49.17519" lon="-0.52872">
        <ele>87</ele>
        <time>2023-04-25T14:01:33Z</time>
      </trkpt>
      <trkpt lat="49.1752" lon="-0.52865">
        <ele>87</ele>
        <time>2023-04-25T14:01:34Z</time>
      </trkpt>
      <trkpt lat="49.17521" lon="-0.52857">
        <ele>87</ele>
        <time>2023-04-25T14:01:35Z</time>
      </trkpt>
      <trkpt lat="49.17521" lon="-0.5285">
        <ele>87</ele>
        <time>2023-04-25T14:01:36Z</time>
      </trkpt>
      <trkpt lat="49.17522" lon="-0.52844">
        <ele>87</ele>
        <time>2023-04-25T14:01:37Z</time>
      </trkpt>
      <trkpt lat="49.17523" lon="-0.52837">
        <ele>87</ele>
        <time>2023-04-25T14:01:38Z</time>
      </trkpt>
      <trkpt lat="49.17524" lon="-0.5283">
        <ele>87.2</ele>
        <time>2023-04-25T14:01:39Z</time>
      </trkpt>
      <trkpt lat="49.17525" lon="-0.52823">
        <ele>87.4</ele>
        <time>2023-04-25T14:01:40Z</time>
      </trkpt>
      <trkpt lat="49.17525" lon="-0.52816">
        <ele>87.4</ele>
        <time>2023-04-25T14:01:41Z</time>
      </trkpt>
      <trkpt lat="49.17526" lon="-0.52809">
        <ele>87.4</ele>
        <time>2023-04-25T14:01:42Z</time>
      </trkpt>
      <trkpt lat="49.17527" lon="-0.52802">
        <ele>87.6</ele>
        <time>2023-04-25T14:01:43Z</time>
      </trkpt>
      <trkpt lat="49.17528" lon="-0.52795">
        <ele>87.6</ele>
        <time>2023-04-25T14:01:44Z</time>
      </trkpt>
      <trkpt lat="49.17529" lon="-0.52788">
        <ele>87.6</ele>
        <time>2023-04-25T14:01:45Z</time>
      </trkpt>
      <trkpt lat="49.1753" lon="-0.52781">
        <ele>87.8</ele>
        <time>2023-04-25T14:01:46Z</time>
      </trkpt>
      <trkpt lat="49.1753" lon="-0.52774">
        <ele>88</ele>
        <time>2023-04-25T14:01:47Z</time>
      </trkpt>
      <trkpt lat="49.17531" lon="-0.52767">
        <ele>88</ele>
        <time>2023-04-25T14:01:48Z</time>
      </trkpt>
      <trkpt lat="49.17532" lon="-0.5276">
        <ele>88</ele>
        <time>2023-04-25T14:01:49Z</time>
      </trkpt>
      <trkpt lat="49.17533" lon="-0.52753">
        <ele>88.2</ele>
        <time>2023-04-25T14:01:50Z</time>
      </trkpt>
      <trkpt lat="49.17533" lon="-0.52747">
        <ele>88.2</ele>
        <time>2023-04-25T14:01:51Z</time>
      </trkpt>
      <trkpt lat="49.17534" lon="-0.52739">
        <ele>88.2</ele>
        <time>2023-04-25T14:01:52Z</time>
      </trkpt>
      <trkpt lat="49.17535" lon="-0.52732">
        <ele>88.2</ele>
        <time>2023-04-25T14:01:53Z</time>
      </trkpt>
      <trkpt lat="49.17536" lon="-0.52725">
        <ele>88.4</ele>
        <time>2023-04-25T14:01:54Z</time>
      </trkpt>
      <trkpt lat="49.17537" lon="-0.52718">
        <ele>88.4</ele>
        <time>2023-04-25T14:01:55Z</time>
      </trkpt>
      <trkpt lat="49.17538" lon="-0.5271">
        <ele>88.4</ele>
        <time>2023-04-25T14:01:56Z</time>
      </trkpt>
      <trkpt lat="49.17539" lon="-0.52702">
        <ele>88.4</ele>
        <time>2023-04-25T14:01:57Z</time>
      </trkpt>
      <trkpt lat="49.1754" lon="-0.52695">
        <ele>88.4</ele>
        <time>2023-04-25T14:01:58Z</time>
      </trkpt>
      <trkpt lat="49.1754" lon="-0.52686">
        <ele>88.4</ele>
        <time>2023-04-25T14:01:59Z</time>
      </trkpt>
      <trkpt lat="49.17541" lon="-0.52678">
        <ele>88.4</ele>
        <time>2023-04-25T14:02:00Z</time>
      </trkpt>
      <trkpt lat="49.17542" lon="-0.5267">
        <ele>88.6</ele>
        <time>2023-04-25T14:02:01Z</time>
      </trkpt>
      <trkpt lat="49.17543" lon="-0.52662">
        <ele>88.6</ele>
        <time>2023-04-25T14:02:02Z</time>
      </trkpt>
      <trkpt lat="49.17544" lon="-0.52654">
        <ele>88.6</ele>
        <time>2023-04-25T14:02:03Z</time>
      </trkpt>
      <trkpt lat="49.17545" lon="-0.52646">
        <ele>88.6</ele>
        <time>2023-04-25T14:02:04Z</time>
      </trkpt>
      <trkpt lat="49.17546" lon="-0.52638">
        <ele>88.8</ele>
        <time>2023-04-25T14:02:05Z</time>
      </trkpt>
      <trkpt lat="49.17547" lon="-0.5263">
        <ele>89</ele>
        <time>2023-04-25T14:02:06Z</time>
      </trkpt>
      <trkpt lat="49.17548" lon="-0.52622">
        <ele>89</ele>
        <time>2023-04-25T14:02:07Z</time>
      </trkpt>
      <trkpt lat="49.17548" lon="-0.52614">
        <ele>89</ele>
        <time>2023-04-25T14:02:08Z</time>
      </trkpt>
      <trkpt lat="49.1755" lon="-0.52605">
        <ele>89</ele>
        <time>2023-04-25T14:02:09Z</time>
      </trkpt>
      <trkpt lat="49.1755" lon="-0.52597">
        <ele>89.2</ele>
        <time>2023-04-25T14:02:10Z</time>
      </trkpt>
      <trkpt lat="49.17551" lon="-0.52589">
        <ele>89.4</ele>
        <time>2023-04-25T14:02:11Z</time>
      </trkpt>
      <trkpt lat="49.17552" lon="-0.52581">
        <ele>89.4</ele>
        <time>2023-04-25T14:02:12Z</time>
      </trkpt>
      <trkpt lat="49.17553" lon="-0.52572">
        <ele>89.2</ele>
        <time>2023-04-25T14:02:13Z</time>
      </trkpt>
      <trkpt lat="49.17554" lon="-0.52564">
        <ele>89</ele>
        <time>2023-04-25T14:02:14Z</time>
      </trkpt>
      <trkpt lat="49.17555" lon="-0.52555">
        <ele>89</ele>
        <time>2023-04-25T14:02:15Z</time>
      </trkpt>
      <trkpt lat="49.17556" lon="-0.52547">
        <ele>88.6</ele>
        <time>2023-04-25T14:02:16Z</time>
      </trkpt>
      <trkpt lat="49.17557" lon="-0.52538">
        <ele>88.6</ele>
        <time>2023-04-25T14:02:17Z</time>
      </trkpt>
      <trkpt lat="49.17558" lon="-0.5253">
        <ele>88.6</ele>
        <time>2023-04-25T14:02:18Z</time>
      </trkpt>
      <trkpt lat="49.17559" lon="-0.52521">
        <ele>88.4</ele>
        <time>2023-04-25T14:02:19Z</time>
      </trkpt>
      <trkpt lat="49.1756" lon="-0.52512">
        <ele>88.2</ele>
        <time>2023-04-25T14:02:20Z</time>
      </trkpt>
      <trkpt lat="49.17561" lon="-0.52504">
        <ele>88</ele>
        <time>2023-04-25T14:02:21Z</time>
      </trkpt>
      <trkpt lat="49.17562" lon="-0.52495">
        <ele>88</ele>
        <time>2023-04-25T14:02:22Z</time>
      </trkpt>
      <trkpt lat="49.17563" lon="-0.52486">
        <ele>88</ele>
        <time>2023-04-25T14:02:23Z</time>
      </trkpt>
      <trkpt lat="49.17564" lon="-0.52478">
        <ele>87.8</ele>
        <time>2023-04-25T14:02:24Z</time>
      </trkpt>
      <trkpt lat="49.17565" lon="-0.52469">
        <ele>87.6</ele>
        <time>2023-04-25T14:02:25Z</time>
      </trkpt>
      <trkpt lat="49.17566" lon="-0.5246">
        <ele>87.6</ele>
        <time>2023-04-25T14:02:26Z</time>
      </trkpt>
      <trkpt lat="49.17567" lon="-0.52452">
        <ele>87.6</ele>
        <time>2023-04-25T14:02:27Z</time>
      </trkpt>
      <trkpt lat="49.17568" lon="-0.52443">
        <ele>87.4</ele>
        <time>2023-04-25T14:02:28Z</time>
      </trkpt>
      <trkpt lat="49.17569" lon="-0.52435">
        <ele>87.4</ele>
        <time>2023-04-25T14:02:29Z</time>
      </trkpt>
      <trkpt lat="49.1757" lon="-0.52426">
        <ele>87.2</ele>
        <time>2023-04-25T14:02:30Z</time>
      </trkpt>
      <trkpt lat="49.17571" lon="-0.52417">
        <ele>87</ele>
        <time>2023-04-25T14:02:31Z</time>
      </trkpt>
      <trkpt lat="49.17573" lon="-0.52408">
        <ele>87</ele>
        <time>2023-04-25T14:02:32Z</time>
      </trkpt>
      <trkpt lat="49.17573" lon="-0.524">
        <ele>87</ele>
        <time>2023-04-25T14:02:33Z</time>
      </trkpt>
      <trkpt lat="49.17575" lon="-0.52391">
        <ele>87</ele>
        <time>2023-04-25T14:02:34Z</time>
      </trkpt>
      <trkpt lat="49.17576" lon="-0.52382">
        <ele>87</ele>
        <time>2023-04-25T14:02:35Z</time>
      </trkpt>
      <trkpt lat="49.17577" lon="-0.52373">
        <ele>87</ele>
        <time>2023-04-25T14:02:36Z</time>
      </trkpt>
      <trkpt lat="49.17578" lon="-0.52364">
        <ele>87</ele>
        <time>2023-04-25T14:02:37Z</time>
      </trkpt>
      <trkpt lat="49.17579" lon="-0.52355">
        <ele>87</ele>
        <time>2023-04-25T14:02:38Z</time>
      </trkpt>
      <trkpt lat="49.1758" lon="-0.52346">
        <ele>87</ele>
        <time>2023-04-25T14:02:39Z</time>
      </trkpt>
      <trkpt lat="49.17581" lon="-0.52336">
        <ele>87</ele>
        <time>2023-04-25T14:02:40Z</time>
      </trkpt>
      <trkpt lat="49.17583" lon="-0.52326">
        <ele>86.8</ele>
        <time>2023-04-25T14:02:41Z</time>
      </trkpt>
      <trkpt lat="49.17584" lon="-0.52316">
        <ele>86.6</ele>
        <time>2023-04-25T14:02:42Z</time>
      </trkpt>
      <trkpt lat="49.17585" lon="-0.52306">
        <ele>86.4</ele>
        <time>2023-04-25T14:02:43Z</time>
      </trkpt>
      <trkpt lat="49.17586" lon="-0.52296">
        <ele>86</ele>
        <time>2023-04-25T14:02:44Z</time>
      </trkpt>
      <trkpt lat="49.17588" lon="-0.52285">
        <ele>85.8</ele>
        <time>2023-04-25T14:02:45Z</time>
      </trkpt>
      <trkpt lat="49.17589" lon="-0.52275">
        <ele>85.6</ele>
        <time>2023-04-25T14:02:46Z</time>
      </trkpt>
      <trkpt lat="49.1759" lon="-0.52265">
        <ele>85.4</ele>
        <time>2023-04-25T14:02:47Z</time>
      </trkpt>
      <trkpt lat="49.17591" lon="-0.52255">
        <ele>85</ele>
        <time>2023-04-25T14:02:48Z</time>
      </trkpt>
      <trkpt lat="49.17592" lon="-0.52245">
        <ele>85</ele>
        <time>2023-04-25T14:02:49Z</time>
      </trkpt>
      <trkpt lat="49.17594" lon="-0.52235">
        <ele>84.8</ele>
        <time>2023-04-25T14:02:50Z</time>
      </trkpt>
      <trkpt lat="49.17595" lon="-0.52225">
        <ele>84.6</ele>
        <time>2023-04-25T14:02:51Z</time>
      </trkpt>
      <trkpt lat="49.17596" lon="-0.52215">
        <ele>84.6</ele>
        <time>2023-04-25T14:02:52Z</time>
      </trkpt>
      <trkpt lat="49.17597" lon="-0.52205">
        <ele>84.6</ele>
        <time>2023-04-25T14:02:53Z</time>
      </trkpt>
      <trkpt lat="49.17599" lon="-0.52195">
        <ele>84.4</ele>
        <time>2023-04-25T14:02:54Z</time>
      </trkpt>
      <trkpt lat="49.176" lon="-0.52184">
        <ele>84.2</ele>
        <time>2023-04-25T14:02:55Z</time>
      </trkpt>
      <trkpt lat="49.17601" lon="-0.52174">
        <ele>84</ele>
        <time>2023-04-25T14:02:56Z</time>
      </trkpt>
      <trkpt lat="49.17602" lon="-0.52164">
        <ele>84</ele>
        <time>2023-04-25T14:02:57Z</time>
      </trkpt>
      <trkpt lat="49.17603" lon="-0.52154">
        <ele>84</ele>
        <time>2023-04-25T14:02:58Z</time>
      </trkpt>
      <trkpt lat="49.17605" lon="-0.52143">
        <ele>83.8</ele>
        <time>2023-04-25T14:02:59Z</time>
      </trkpt>
      <trkpt lat="49.17606" lon="-0.52133">
        <ele>83.6</ele>
        <time>2023-04-25T14:03:00Z</time>
      </trkpt>
      <trkpt lat="49.17607" lon="-0.52123">
        <ele>83.6</ele>
        <time>2023-04-25T14:03:01Z</time>
      </trkpt>
      <trkpt lat="49.17609" lon="-0.52112">
        <ele>83.6</ele>
        <time>2023-04-25T14:03:02Z</time>
      </trkpt>
      <trkpt lat="49.1761" lon="-0.52102">
        <ele>83.6</ele>
        <time>2023-04-25T14:03:03Z</time>
      </trkpt>
      <trkpt lat="49.17611" lon="-0.52091">
        <ele>83.4</ele>
        <time>2023-04-25T14:03:04Z</time>
      </trkpt>
      <trkpt lat="49.17613" lon="-0.5208">
        <ele>83.4</ele>
        <time>2023-04-25T14:03:05Z</time>
      </trkpt>
      <trkpt lat="49.17614" lon="-0.5207">
        <ele>83.2</ele>
        <time>2023-04-25T14:03:06Z</time>
      </trkpt>
      <trkpt lat="49.17615" lon="-0.52059">
        <ele>83</ele>
        <time>2023-04-25T14:03:07Z</time>
      </trkpt>
      <trkpt lat="49.17616" lon="-0.52048">
        <ele>83</ele>
        <time>2023-04-25T14:03:08Z</time>
      </trkpt>
      <trkpt lat="49.17618" lon="-0.52037">
        <ele>83</ele>
        <time>2023-04-25T14:03:09Z</time>
      </trkpt>
      <trkpt lat="49.17619" lon="-0.52026">
        <ele>82.6</ele>
        <time>2023-04-25T14:03:10Z</time>
      </trkpt>
      <trkpt lat="49.1762" lon="-0.52015">
        <ele>82.6</ele>
        <time>2023-04-25T14:03:11Z</time>
      </trkpt>
      <trkpt lat="49.17622" lon="-0.52004">
        <ele>82.6</ele>
        <time>2023-04-25T14:03:12Z</time>
      </trkpt>
      <trkpt lat="49.17623" lon="-0.51992">
        <ele>82.4</ele>
        <time>2023-04-25T14:03:13Z</time>
      </trkpt>
      <trkpt lat="49.17624" lon="-0.51981">
        <ele>82.4</ele>
        <time>2023-04-25T14:03:14Z</time>
      </trkpt>
      <trkpt lat="49.17626" lon="-0.5197">
        <ele>82</ele>
        <time>2023-04-25T14:03:15Z</time>
      </trkpt>
      <trkpt lat="49.17627" lon="-0.51958">
        <ele>82</ele>
        <time>2023-04-25T14:03:16Z</time>
      </trkpt>
      <trkpt lat="49.17628" lon="-0.51947">
        <ele>82</ele>
        <time>2023-04-25T14:03:17Z</time>
      </trkpt>
      <trkpt lat="49.17629" lon="-0.51936">
        <ele>81.8</ele>
        <time>2023-04-25T14:03:18Z</time>
      </trkpt>
      <trkpt lat="49.17631" lon="-0.51924">
        <ele>81.6</ele>
        <time>2023-04-25T14:03:19Z</time>
      </trkpt>
      <trkpt lat="49.17632" lon="-0.51913">
        <ele>81.6</ele>
        <time>2023-04-25T14:03:20Z</time>
      </trkpt>
      <trkpt lat="49.17633" lon="-0.51901">
        <ele>81.4</ele>
        <time>2023-04-25T14:03:21Z</time>
      </trkpt>
      <trkpt lat="49.17635" lon="-0.5189">
        <ele>81.2</ele>
        <time>2023-04-25T14:03:22Z</time>
      </trkpt>
      <trkpt lat="49.17636" lon="-0.51879">
        <ele>81</ele>
        <time>2023-04-25T14:03:23Z</time>
      </trkpt>
      <trkpt lat="49.17638" lon="-0.51867">
        <ele>81</ele>
        <time>2023-04-25T14:03:24Z</time>
      </trkpt>
      <trkpt lat="49.17639" lon="-0.51856">
        <ele>80.6</ele>
        <time>2023-04-25T14:03:25Z</time>
      </trkpt>
      <trkpt lat="49.1764" lon="-0.51844">
        <ele>80.6</ele>
        <time>2023-04-25T14:03:26Z</time>
      </trkpt>
      <trkpt lat="49.17642" lon="-0.51833">
        <ele>80.4</ele>
        <time>2023-04-25T14:03:27Z</time>
      </trkpt>
      <trkpt lat="49.17643" lon="-0.51822">
        <ele>80</ele>
        <time>2023-04-25T14:03:28Z</time>
      </trkpt>
      <trkpt lat="49.17645" lon="-0.5181">
        <ele>79.6</ele>
        <time>2023-04-25T14:03:29Z</time>
      </trkpt>
      <trkpt lat="49.17646" lon="-0.51798">
        <ele>79.4</ele>
        <time>2023-04-25T14:03:30Z</time>
      </trkpt>
      <trkpt lat="49.17647" lon="-0.51787">
        <ele>79</ele>
        <time>2023-04-25T14:03:31Z</time>
      </trkpt>
      <trkpt lat="49.17649" lon="-0.51775">
        <ele>78.6</ele>
        <time>2023-04-25T14:03:32Z</time>
      </trkpt>
      <trkpt lat="49.1765" lon="-0.51763">
        <ele>78.4</ele>
        <time>2023-04-25T14:03:33Z</time>
      </trkpt>
      <trkpt lat="49.17652" lon="-0.51752">
        <ele>78</ele>
        <time>2023-04-25T14:03:34Z</time>
      </trkpt>
      <trkpt lat="49.17653" lon="-0.5174">
        <ele>77.6</ele>
        <time>2023-04-25T14:03:35Z</time>
      </trkpt>
      <trkpt lat="49.17655" lon="-0.51728">
        <ele>77.6</ele>
        <time>2023-04-25T14:03:36Z</time>
      </trkpt>
      <trkpt lat="49.17656" lon="-0.51716">
        <ele>77.6</ele>
        <time>2023-04-25T14:03:37Z</time>
      </trkpt>
      <trkpt lat="49.17658" lon="-0.51704">
        <ele>77.4</ele>
        <time>2023-04-25T14:03:38Z</time>
      </trkpt>
      <trkpt lat="49.17659" lon="-0.51692">
        <ele>77.2</ele>
        <time>2023-04-25T14:03:39Z</time>
      </trkpt>
      <trkpt lat="49.17661" lon="-0.51679">
        <ele>77</ele>
        <time>2023-04-25T14:03:40Z</time>
      </trkpt>
      <trkpt lat="49.17662" lon="-0.51667">
        <ele>77</ele>
        <time>2023-04-25T14:03:41Z</time>
      </trkpt>
      <trkpt lat="49.17663" lon="-0.51655">
        <ele>76.6</ele>
        <time>2023-04-25T14:03:42Z</time>
      </trkpt>
      <trkpt lat="49.17665" lon="-0.51642">
        <ele>76.4</ele>
        <time>2023-04-25T14:03:43Z</time>
      </trkpt>
      <trkpt lat="49.17666" lon="-0.5163">
        <ele>76</ele>
        <time>2023-04-25T14:03:44Z</time>
      </trkpt>
      <trkpt lat="49.17668" lon="-0.51617">
        <ele>75.8</ele>
        <time>2023-04-25T14:03:45Z</time>
      </trkpt>
      <trkpt lat="49.1767" lon="-0.51604">
        <ele>75.6</ele>
        <time>2023-04-25T14:03:46Z</time>
      </trkpt>
      <trkpt lat="49.17671" lon="-0.51591">
        <ele>75.2</ele>
        <time>2023-04-25T14:03:47Z</time>
      </trkpt>
      <trkpt lat="49.17673" lon="-0.51579">
        <ele>75</ele>
        <time>2023-04-25T14:03:48Z</time>
      </trkpt>
      <trkpt lat="49.17674" lon="-0.51566">
        <ele>75</ele>
        <time>2023-04-25T14:03:49Z</time>
      </trkpt>
      <trkpt lat="49.17676" lon="-0.51552">
        <ele>75</ele>
        <time>2023-04-25T14:03:50Z</time>
      </trkpt>
      <trkpt lat="49.17677" lon="-0.51539">
        <ele>75</ele>
        <time>2023-04-25T14:03:51Z</time>
      </trkpt>
      <trkpt lat="49.17679" lon="-0.51526">
        <ele>75</ele>
        <time>2023-04-25T14:03:52Z</time>
      </trkpt>
      <trkpt lat="49.17681" lon="-0.51513">
        <ele>75.2</ele>
        <time>2023-04-25T14:03:53Z</time>
      </trkpt>
      <trkpt lat="49.17682" lon="-0.515">
        <ele>75.2</ele>
        <time>2023-04-25T14:03:54Z</time>
      </trkpt>
      <trkpt lat="49.17684" lon="-0.51487">
        <ele>75</ele>
        <time>2023-04-25T14:03:55Z</time>
      </trkpt>
      <trkpt lat="49.17685" lon="-0.51474">
        <ele>74.6</ele>
        <time>2023-04-25T14:03:56Z</time>
      </trkpt>
      <trkpt lat="49.17687" lon="-0.51461">
        <ele>74.2</ele>
        <time>2023-04-25T14:03:57Z</time>
      </trkpt>
      <trkpt lat="49.17688" lon="-0.51448">
        <ele>73.8</ele>
        <time>2023-04-25T14:03:58Z</time>
      </trkpt>
      <trkpt lat="49.17689" lon="-0.51435">
        <ele>73.6</ele>
        <time>2023-04-25T14:03:59Z</time>
      </trkpt>
      <trkpt lat="49.17691" lon="-0.51422">
        <ele>73.2</ele>
        <time>2023-04-25T14:04:00Z</time>
      </trkpt>
      <trkpt lat="49.17692" lon="-0.5141">
        <ele>73</ele>
        <time>2023-04-25T14:04:01Z</time>
      </trkpt>
      <trkpt lat="49.17694" lon="-0.51397">
        <ele>72.8</ele>
        <time>2023-04-25T14:04:02Z</time>
      </trkpt>
      <trkpt lat="49.17695" lon="-0.51385">
        <ele>72.6</ele>
        <time>2023-04-25T14:04:03Z</time>
      </trkpt>
      <trkpt lat="49.17696" lon="-0.51374">
        <ele>72.6</ele>
        <time>2023-04-25T14:04:04Z</time>
      </trkpt>
      <trkpt lat="49.17697" lon="-0.51363">
        <ele>72.4</ele>
        <time>2023-04-25T14:04:05Z</time>
      </trkpt>
      <trkpt lat="49.17698" lon="-0.51353">
        <ele>72.2</ele>
        <time>2023-04-25T14:04:06Z</time>
      </trkpt>
      <trkpt lat="49.17699" lon="-0.51343">
        <ele>72</ele>
        <time>2023-04-25T14:04:07Z</time>
      </trkpt>
      <trkpt lat="49.177" lon="-0.51333">
        <ele>72</ele>
        <time>2023-04-25T14:04:08Z</time>
      </trkpt>
      <trkpt lat="49.17701" lon="-0.51323">
        <ele>72</ele>
        <time>2023-04-25T14:04:09Z</time>
      </trkpt>
      <trkpt lat="49.17702" lon="-0.51313">
        <ele>72</ele>
        <time>2023-04-25T14:04:10Z</time>
      </trkpt>
      <trkpt lat="49.17704" lon="-0.51302">
        <ele>72.2</ele>
        <time>2023-04-25T14:04:11Z</time>
      </trkpt>
      <trkpt lat="49.17705" lon="-0.51291">
        <ele>72.4</ele>
        <time>2023-04-25T14:04:12Z</time>
      </trkpt>
      <trkpt lat="49.17706" lon="-0.51281">
        <ele>72.4</ele>
        <time>2023-04-25T14:04:13Z</time>
      </trkpt>
      <trkpt lat="49.17708" lon="-0.51269">
        <ele>72.4</ele>
        <time>2023-04-25T14:04:14Z</time>
      </trkpt>
      <trkpt lat="49.17708" lon="-0.51258">
        <ele>72.6</ele>
        <time>2023-04-25T14:04:15Z</time>
      </trkpt>
      <trkpt lat="49.17709" lon="-0.51246">
        <ele>72.4</ele>
        <time>2023-04-25T14:04:16Z</time>
      </trkpt>
      <trkpt lat="49.17709" lon="-0.51234">
        <ele>71.6</ele>
        <time>2023-04-25T14:04:17Z</time>
      </trkpt>
      <trkpt lat="49.17709" lon="-0.51222">
        <ele>71.2</ele>
        <time>2023-04-25T14:04:18Z</time>
      </trkpt>
      <trkpt lat="49.17708" lon="-0.51211">
        <ele>70.6</ele>
        <time>2023-04-25T14:04:19Z</time>
      </trkpt>
      <trkpt lat="49.17708" lon="-0.51199">
        <ele>70</ele>
        <time>2023-04-25T14:04:20Z</time>
      </trkpt>
      <trkpt lat="49.17707" lon="-0.51187">
        <ele>69.6</ele>
        <time>2023-04-25T14:04:21Z</time>
      </trkpt>
      <trkpt lat="49.17705" lon="-0.51175">
        <ele>69</ele>
        <time>2023-04-25T14:04:22Z</time>
      </trkpt>
      <trkpt lat="49.17704" lon="-0.51163">
        <ele>68.6</ele>
        <time>2023-04-25T14:04:23Z</time>
      </trkpt>
      <trkpt lat="49.17703" lon="-0.51151">
        <ele>68.4</ele>
        <time>2023-04-25T14:04:24Z</time>
      </trkpt>
      <trkpt lat="49.17702" lon="-0.51139">
        <ele>68</ele>
        <time>2023-04-25T14:04:25Z</time>
      </trkpt>
      <trkpt lat="49.17701" lon="-0.51127">
        <ele>68</ele>
        <time>2023-04-25T14:04:26Z</time>
      </trkpt>
      <trkpt lat="49.17699" lon="-0.51116">
        <ele>67.8</ele>
        <time>2023-04-25T14:04:27Z</time>
      </trkpt>
      <trkpt lat="49.17698" lon="-0.51104">
        <ele>67.6</ele>
        <time>2023-04-25T14:04:28Z</time>
      </trkpt>
      <trkpt lat="49.17697" lon="-0.51093">
        <ele>67.4</ele>
        <time>2023-04-25T14:04:29Z</time>
      </trkpt>
      <trkpt lat="49.17696" lon="-0.51081">
        <ele>67.4</ele>
        <time>2023-04-25T14:04:30Z</time>
      </trkpt>
      <trkpt lat="49.17696" lon="-0.5107">
        <ele>67.6</ele>
        <time>2023-04-25T14:04:31Z</time>
      </trkpt>
      <trkpt lat="49.17695" lon="-0.51058">
        <ele>67.6</ele>
        <time>2023-04-25T14:04:32Z</time>
      </trkpt>
      <trkpt lat="49.17694" lon="-0.51047">
        <ele>68</ele>
        <time>2023-04-25T14:04:33Z</time>
      </trkpt>
      <trkpt lat="49.17694" lon="-0.51035">
        <ele>68</ele>
        <time>2023-04-25T14:04:34Z</time>
      </trkpt>
      <trkpt lat="49.17694" lon="-0.51024">
        <ele>68.4</ele>
        <time>2023-04-25T14:04:35Z</time>
      </trkpt>
      <trkpt lat="49.17694" lon="-0.51013">
        <ele>68.6</ele>
        <time>2023-04-25T14:04:36Z</time>
      </trkpt>
      <trkpt lat="49.17694" lon="-0.51002">
        <ele>68.6</ele>
        <time>2023-04-25T14:04:37Z</time>
      </trkpt>
      <trkpt lat="49.17694" lon="-0.50992">
        <ele>69</ele>
        <time>2023-04-25T14:04:38Z</time>
      </trkpt>
      <trkpt lat="49.17694" lon="-0.50981">
        <ele>69.4</ele>
        <time>2023-04-25T14:04:39Z</time>
      </trkpt>
      <trkpt lat="49.17694" lon="-0.50971">
        <ele>69.6</ele>
        <time>2023-04-25T14:04:40Z</time>
      </trkpt>
      <trkpt lat="49.17694" lon="-0.50962">
        <ele>70</ele>
        <time>2023-04-25T14:04:41Z</time>
      </trkpt>
      <trkpt lat="49.17694" lon="-0.50952">
        <ele>70.4</ele>
        <time>2023-04-25T14:04:42Z</time>
      </trkpt>
      <trkpt lat="49.17694" lon="-0.50943">
        <ele>70.6</ele>
        <time>2023-04-25T14:04:43Z</time>
      </trkpt>
      <trkpt lat="49.17694" lon="-0.50935">
        <ele>71</ele>
        <time>2023-04-25T14:04:44Z</time>
      </trkpt>
      <trkpt lat="49.17694" lon="-0.50926">
        <ele>71.4</ele>
        <time>2023-04-25T14:04:45Z</time>
      </trkpt>
      <trkpt lat="49.17694" lon="-0.50919">
        <ele>71.6</ele>
        <time>2023-04-25T14:04:46Z</time>
      </trkpt>
      <trkpt lat="49.17695" lon="-0.50912">
        <ele>71.8</ele>
        <time>2023-04-25T14:04:47Z</time>
      </trkpt>
      <trkpt lat="49.17695" lon="-0.50905">
        <ele>72</ele>
        <time>2023-04-25T14:04:48Z</time>
      </trkpt>
      <trkpt lat="49.17695" lon="-0.50898">
        <ele>72.2</ele>
        <time>2023-04-25T14:04:49Z</time>
      </trkpt>
      <trkpt lat="49.17695" lon="-0.50892">
        <ele>72.4</ele>
        <time>2023-04-25T14:04:50Z</time>
      </trkpt>
      <trkpt lat="49.17695" lon="-0.50886">
        <ele>72.6</ele>
        <time>2023-04-25T14:04:51Z</time>
      </trkpt>
      <trkpt lat="49.17695" lon="-0.5088">
        <ele>72.6</ele>
        <time>2023-04-25T14:04:52Z</time>
      </trkpt>
      <trkpt lat="49.17696" lon="-0.50874">
        <ele>72.8</ele>
        <time>2023-04-25T14:04:53Z</time>
      </trkpt>
      <trkpt lat="49.17696" lon="-0.50869">
        <ele>73</ele>
        <time>2023-04-25T14:04:54Z</time>
      </trkpt>
      <trkpt lat="49.17696" lon="-0.50863">
        <ele>73.2</ele>
        <time>2023-04-25T14:04:55Z</time>
      </trkpt>
      <trkpt lat="49.17697" lon="-0.50858">
        <ele>73.4</ele>
        <time>2023-04-25T14:04:56Z</time>
      </trkpt>
      <trkpt lat="49.17697" lon="-0.50852">
        <ele>73.6</ele>
        <time>2023-04-25T14:04:57Z</time>
      </trkpt>
      <trkpt lat="49.17697" lon="-0.50847">
        <ele>73.6</ele>
        <time>2023-04-25T14:04:58Z</time>
      </trkpt>
      <trkpt lat="49.17697" lon="-0.50841">
        <ele>73.8</ele>
        <time>2023-04-25T14:04:59Z</time>
      </trkpt>
      <trkpt lat="49.17698" lon="-0.50836">
        <ele>74</ele>
        <time>2023-04-25T14:05:00Z</time>
      </trkpt>
      <trkpt lat="49.17698" lon="-0.50831">
        <ele>74</ele>
        <time>2023-04-25T14:05:01Z</time>
      </trkpt>
      <trkpt lat="49.17699" lon="-0.50826">
        <ele>74.4</ele>
        <time>2023-04-25T14:05:02Z</time>
      </trkpt>
      <trkpt lat="49.17699" lon="-0.5082">
        <ele>74.6</ele>
        <time>2023-04-25T14:05:03Z</time>
      </trkpt>
      <trkpt lat="49.177" lon="-0.50815">
        <ele>74.6</ele>
        <time>2023-04-25T14:05:04Z</time>
      </trkpt>
      <trkpt lat="49.177" lon="-0.5081">
        <ele>75</ele>
        <time>2023-04-25T14:05:05Z</time>
      </trkpt>
      <trkpt lat="49.17701" lon="-0.50805">
        <ele>75</ele>
        <time>2023-04-25T14:05:06Z</time>
      </trkpt>
      <trkpt lat="49.17701" lon="-0.508">
        <ele>75.4</ele>
        <time>2023-04-25T14:05:07Z</time>
      </trkpt>
      <trkpt lat="49.17702" lon="-0.50795">
        <ele>75.6</ele>
        <time>2023-04-25T14:05:08Z</time>
      </trkpt>
      <trkpt lat="49.17703" lon="-0.5079">
        <ele>75.6</ele>
        <time>2023-04-25T14:05:09Z</time>
      </trkpt>
      <trkpt lat="49.17703" lon="-0.50785">
        <ele>75.8</ele>
        <time>2023-04-25T14:05:10Z</time>
      </trkpt>
      <trkpt lat="49.17704" lon="-0.5078">
        <ele>76</ele>
        <time>2023-04-25T14:05:11Z</time>
      </trkpt>
      <trkpt lat="49.17705" lon="-0.50775">
        <ele>76.2</ele>
        <time>2023-04-25T14:05:12Z</time>
      </trkpt>
      <trkpt lat="49.17705" lon="-0.5077">
        <ele>76.4</ele>
        <time>2023-04-25T14:05:13Z</time>
      </trkpt>
      <trkpt lat="49.17706" lon="-0.50765">
        <ele>76.6</ele>
        <time>2023-04-25T14:05:14Z</time>
      </trkpt>
      <trkpt lat="49.17707" lon="-0.5076">
        <ele>76.6</ele>
        <time>2023-04-25T14:05:15Z</time>
      </trkpt>
      <trkpt lat="49.17707" lon="-0.50755">
        <ele>76.8</ele>
        <time>2023-04-25T14:05:16Z</time>
      </trkpt>
      <trkpt lat="49.17708" lon="-0.5075">
        <ele>77</ele>
        <time>2023-04-25T14:05:17Z</time>
      </trkpt>
      <trkpt lat="49.17709" lon="-0.50746">
        <ele>77.2</ele>
        <time>2023-04-25T14:05:18Z</time>
      </trkpt>
      <trkpt lat="49.17709" lon="-0.50741">
        <ele>77.4</ele>
        <time>2023-04-25T14:05:19Z</time>
      </trkpt>
      <trkpt lat="49.1771" lon="-0.50736">
        <ele>77.6</ele>
        <time>2023-04-25T14:05:20Z</time>
      </trkpt>
      <trkpt lat="49.17711" lon="-0.50731">
        <ele>77.8</ele>
        <time>2023-04-25T14:05:21Z</time>
      </trkpt>
      <trkpt lat="49.17711" lon="-0.50726">
        <ele>78</ele>
        <time>2023-04-25T14:05:22Z</time>
      </trkpt>
      <trkpt lat="49.17712" lon="-0.50721">
        <ele>78.4</ele>
        <time>2023-04-25T14:05:23Z</time>
      </trkpt>
      <trkpt lat="49.17713" lon="-0.50716">
        <ele>78.6</ele>
        <time>2023-04-25T14:05:24Z</time>
      </trkpt>
      <trkpt lat="49.17713" lon="-0.50712">
        <ele>78.6</ele>
        <time>2023-04-25T14:05:25Z</time>
      </trkpt>
      <trkpt lat="49.17714" lon="-0.50707">
        <ele>79</ele>
        <time>2023-04-25T14:05:26Z</time>
      </trkpt>
      <trkpt lat="49.17714" lon="-0.50702">
        <ele>79</ele>
        <time>2023-04-25T14:05:27Z</time>
      </trkpt>
      <trkpt lat="49.17715" lon="-0.50697">
        <ele>79.4</ele>
        <time>2023-04-25T14:05:28Z</time>
      </trkpt>
      <trkpt lat="49.17716" lon="-0.50692">
        <ele>79.6</ele>
        <time>2023-04-25T14:05:29Z</time>
      </trkpt>
      <trkpt lat="49.17717" lon="-0.50687">
        <ele>79.6</ele>
        <time>2023-04-25T14:05:30Z</time>
      </trkpt>
      <trkpt lat="49.17717" lon="-0.50683">
        <ele>80</ele>
        <time>2023-04-25T14:05:31Z</time>
      </trkpt>
      <trkpt lat="49.17718" lon="-0.50677">
        <ele>80</ele>
        <time>2023-04-25T14:05:32Z</time>
      </trkpt>
      <trkpt lat="49.17719" lon="-0.50673">
        <ele>80.2</ele>
        <time>2023-04-25T14:05:33Z</time>
      </trkpt>
      <trkpt lat="49.17719" lon="-0.50668">
        <ele>80.4</ele>
        <time>2023-04-25T14:05:34Z</time>
      </trkpt>
      <trkpt lat="49.1772" lon="-0.50663">
        <ele>80.6</ele>
        <time>2023-04-25T14:05:35Z</time>
      </trkpt>
      <trkpt lat="49.17721" lon="-0.50657">
        <ele>80.6</ele>
        <time>2023-04-25T14:05:36Z</time>
      </trkpt>
      <trkpt lat="49.17721" lon="-0.50652">
        <ele>80.8</ele>
        <time>2023-04-25T14:05:37Z</time>
      </trkpt>
      <trkpt lat="49.17722" lon="-0.50647">
        <ele>81</ele>
        <time>2023-04-25T14:05:38Z</time>
      </trkpt>
      <trkpt lat="49.17723" lon="-0.50642">
        <ele>81</ele>
        <time>2023-04-25T14:05:39Z</time>
      </trkpt>
      <trkpt lat="49.17724" lon="-0.50637">
        <ele>81</ele>
        <time>2023-04-25T14:05:40Z</time>
      </trkpt>
      <trkpt lat="49.17724" lon="-0.50631">
        <ele>81.2</ele>
        <time>2023-04-25T14:05:41Z</time>
      </trkpt>
      <trkpt lat="49.17725" lon="-0.50626">
        <ele>81.4</ele>
        <time>2023-04-25T14:05:42Z</time>
      </trkpt>
      <trkpt lat="49.17726" lon="-0.5062">
        <ele>81.4</ele>
        <time>2023-04-25T14:05:43Z</time>
      </trkpt>
      <trkpt lat="49.17727" lon="-0.50614">
        <ele>81.6</ele>
        <time>2023-04-25T14:05:44Z</time>
      </trkpt>
      <trkpt lat="49.17728" lon="-0.50609">
        <ele>81.6</ele>
        <time>2023-04-25T14:05:45Z</time>
      </trkpt>
      <trkpt lat="49.17729" lon="-0.50603">
        <ele>81.6</ele>
        <time>2023-04-25T14:05:46Z</time>
      </trkpt>
      <trkpt lat="49.1773" lon="-0.50597">
        <ele>82</ele>
        <time>2023-04-25T14:05:47Z</time>
      </trkpt>
      <trkpt lat="49.1773" lon="-0.50592">
        <ele>82</ele>
        <time>2023-04-25T14:05:48Z</time>
      </trkpt>
      <trkpt lat="49.17731" lon="-0.50586">
        <ele>82</ele>
        <time>2023-04-25T14:05:49Z</time>
      </trkpt>
      <trkpt lat="49.17732" lon="-0.5058">
        <ele>82</ele>
        <time>2023-04-25T14:05:50Z</time>
      </trkpt>
      <trkpt lat="49.17733" lon="-0.50574">
        <ele>82</ele>
        <time>2023-04-25T14:05:51Z</time>
      </trkpt>
      <trkpt lat="49.17734" lon="-0.50568">
        <ele>82</ele>
        <time>2023-04-25T14:05:52Z</time>
      </trkpt>
      <trkpt lat="49.17735" lon="-0.50561">
        <ele>82</ele>
        <time>2023-04-25T14:05:53Z</time>
      </trkpt>
      <trkpt lat="49.17736" lon="-0.50555">
        <ele>81.8</ele>
        <time>2023-04-25T14:05:54Z</time>
      </trkpt>
      <trkpt lat="49.17737" lon="-0.50548">
        <ele>81.6</ele>
        <time>2023-04-25T14:05:55Z</time>
      </trkpt>
      <trkpt lat="49.17738" lon="-0.50541">
        <ele>81.6</ele>
        <time>2023-04-25T14:05:56Z</time>
      </trkpt>
      <trkpt lat="49.17739" lon="-0.50534">
        <ele>81.6</ele>
        <time>2023-04-25T14:05:57Z</time>
      </trkpt>
      <trkpt lat="49.1774" lon="-0.50527">
        <ele>81.6</ele>
        <time>2023-04-25T14:05:58Z</time>
      </trkpt>
      <trkpt lat="49.17741" lon="-0.5052">
        <ele>81.4</ele>
        <time>2023-04-25T14:05:59Z</time>
      </trkpt>
      <trkpt lat="49.17742" lon="-0.50513">
        <ele>81.4</ele>
        <time>2023-04-25T14:06:00Z</time>
      </trkpt>
      <trkpt lat="49.17743" lon="-0.50506">
        <ele>81.4</ele>
        <time>2023-04-25T14:06:01Z</time>
      </trkpt>
      <trkpt lat="49.17744" lon="-0.50499">
        <ele>81.4</ele>
        <time>2023-04-25T14:06:02Z</time>
      </trkpt>
      <trkpt lat="49.17745" lon="-0.50491">
        <ele>81.2</ele>
        <time>2023-04-25T14:06:03Z</time>
      </trkpt>
      <trkpt lat="49.17747" lon="-0.50484">
        <ele>81.2</ele>
        <time>2023-04-25T14:06:04Z</time>
      </trkpt>
      <trkpt lat="49.17748" lon="-0.50477">
        <ele>81</ele>
        <time>2023-04-25T14:06:05Z</time>
      </trkpt>
      <trkpt lat="49.17749" lon="-0.5047">
        <ele>81</ele>
        <time>2023-04-25T14:06:06Z</time>
      </trkpt>
      <trkpt lat="49.1775" lon="-0.50463">
        <ele>81</ele>
        <time>2023-04-25T14:06:07Z</time>
      </trkpt>
      <trkpt lat="49.17751" lon="-0.50456">
        <ele>81</ele>
        <time>2023-04-25T14:06:08Z</time>
      </trkpt>
      <trkpt lat="49.17752" lon="-0.50448">
        <ele>81</ele>
        <time>2023-04-25T14:06:09Z</time>
      </trkpt>
      <trkpt lat="49.17753" lon="-0.50441">
        <ele>81</ele>
        <time>2023-04-25T14:06:10Z</time>
      </trkpt>
      <trkpt lat="49.17754" lon="-0.50434">
        <ele>81</ele>
        <time>2023-04-25T14:06:11Z</time>
      </trkpt>
      <trkpt lat="49.17755" lon="-0.50427">
        <ele>81</ele>
        <time>2023-04-25T14:06:12Z</time>
      </trkpt>
      <trkpt lat="49.17756" lon="-0.50419">
        <ele>81</ele>
        <time>2023-04-25T14:06:13Z</time>
      </trkpt>
      <trkpt lat="49.17757" lon="-0.50412">
        <ele>81</ele>
        <time>2023-04-25T14:06:14Z</time>
      </trkpt>
      <trkpt lat="49.17758" lon="-0.50405">
        <ele>80.8</ele>
        <time>2023-04-25T14:06:15Z</time>
      </trkpt>
      <trkpt lat="49.1776" lon="-0.50397">
        <ele>80.6</ele>
        <time>2023-04-25T14:06:16Z</time>
      </trkpt>
      <trkpt lat="49.17761" lon="-0.5039">
        <ele>80.6</ele>
        <time>2023-04-25T14:06:17Z</time>
      </trkpt>
      <trkpt lat="49.17762" lon="-0.50382">
        <ele>80.6</ele>
        <time>2023-04-25T14:06:18Z</time>
      </trkpt>
      <trkpt lat="49.17763" lon="-0.50375">
        <ele>80.4</ele>
        <time>2023-04-25T14:06:19Z</time>
      </trkpt>
      <trkpt lat="49.17764" lon="-0.50368">
        <ele>80.4</ele>
        <time>2023-04-25T14:06:20Z</time>
      </trkpt>
      <trkpt lat="49.17765" lon="-0.5036">
        <ele>80.4</ele>
        <time>2023-04-25T14:06:21Z</time>
      </trkpt>
      <trkpt lat="49.17766" lon="-0.50353">
        <ele>80.2</ele>
        <time>2023-04-25T14:06:22Z</time>
      </trkpt>
      <trkpt lat="49.17767" lon="-0.50345">
        <ele>80</ele>
        <time>2023-04-25T14:06:23Z</time>
      </trkpt>
      <trkpt lat="49.17768" lon="-0.50337">
        <ele>80</ele>
        <time>2023-04-25T14:06:24Z</time>
      </trkpt>
      <trkpt lat="49.1777" lon="-0.5033">
        <ele>80</ele>
        <time>2023-04-25T14:06:25Z</time>
      </trkpt>
      <trkpt lat="49.17771" lon="-0.50322">
        <ele>80</ele>
        <time>2023-04-25T14:06:26Z</time>
      </trkpt>
      <trkpt lat="49.17772" lon="-0.50314">
        <ele>79.8</ele>
        <time>2023-04-25T14:06:27Z</time>
      </trkpt>
      <trkpt lat="49.17773" lon="-0.50306">
        <ele>79.8</ele>
        <time>2023-04-25T14:06:28Z</time>
      </trkpt>
      <trkpt lat="49.17774" lon="-0.50299">
        <ele>79.6</ele>
        <time>2023-04-25T14:06:29Z</time>
      </trkpt>
      <trkpt lat="49.17775" lon="-0.50291">
        <ele>79.6</ele>
        <time>2023-04-25T14:06:30Z</time>
      </trkpt>
      <trkpt lat="49.17776" lon="-0.50283">
        <ele>79.6</ele>
        <time>2023-04-25T14:06:31Z</time>
      </trkpt>
      <trkpt lat="49.17777" lon="-0.50275">
        <ele>79.6</ele>
        <time>2023-04-25T14:06:32Z</time>
      </trkpt>
      <trkpt lat="49.17778" lon="-0.50267">
        <ele>79.6</ele>
        <time>2023-04-25T14:06:33Z</time>
      </trkpt>
      <trkpt lat="49.17779" lon="-0.50259">
        <ele>79.4</ele>
        <time>2023-04-25T14:06:34Z</time>
      </trkpt>
      <trkpt lat="49.1778" lon="-0.50251">
        <ele>79.4</ele>
        <time>2023-04-25T14:06:35Z</time>
      </trkpt>
      <trkpt lat="49.17781" lon="-0.50243">
        <ele>79.4</ele>
        <time>2023-04-25T14:06:36Z</time>
      </trkpt>
      <trkpt lat="49.17783" lon="-0.50235">
        <ele>79.6</ele>
        <time>2023-04-25T14:06:37Z</time>
      </trkpt>
      <trkpt lat="49.17784" lon="-0.50226">
        <ele>79.6</ele>
        <time>2023-04-25T14:06:38Z</time>
      </trkpt>
      <trkpt lat="49.17785" lon="-0.50218">
        <ele>79.6</ele>
        <time>2023-04-25T14:06:39Z</time>
      </trkpt>
      <trkpt lat="49.17787" lon="-0.5021">
        <ele>79.6</ele>
        <time>2023-04-25T14:06:40Z</time>
      </trkpt>
      <trkpt lat="49.17788" lon="-0.50201">
        <ele>79.8</ele>
        <time>2023-04-25T14:06:41Z</time>
      </trkpt>
      <trkpt lat="49.17789" lon="-0.50193">
        <ele>79.8</ele>
        <time>2023-04-25T14:06:42Z</time>
      </trkpt>
      <trkpt lat="49.17791" lon="-0.50184">
        <ele>80</ele>
        <time>2023-04-25T14:06:43Z</time>
      </trkpt>
      <trkpt lat="49.17792" lon="-0.50176">
        <ele>80</ele>
        <time>2023-04-25T14:06:44Z</time>
      </trkpt>
      <trkpt lat="49.17794" lon="-0.50167">
        <ele>80</ele>
        <time>2023-04-25T14:06:45Z</time>
      </trkpt>
      <trkpt lat="49.17795" lon="-0.50159">
        <ele>80</ele>
        <time>2023-04-25T14:06:46Z</time>
      </trkpt>
      <trkpt lat="49.17797" lon="-0.5015">
        <ele>80</ele>
        <time>2023-04-25T14:06:47Z</time>
      </trkpt>
      <trkpt lat="49.17799" lon="-0.50141">
        <ele>80</ele>
        <time>2023-04-25T14:06:48Z</time>
      </trkpt>
      <trkpt lat="49.17801" lon="-0.50132">
        <ele>79.8</ele>
        <time>2023-04-25T14:06:49Z</time>
      </trkpt>
      <trkpt lat="49.17803" lon="-0.50124">
        <ele>79.8</ele>
        <time>2023-04-25T14:06:50Z</time>
      </trkpt>
      <trkpt lat="49.17805" lon="-0.50115">
        <ele>79.8</ele>
        <time>2023-04-25T14:06:51Z</time>
      </trkpt>
      <trkpt lat="49.17807" lon="-0.50107">
        <ele>79.8</ele>
        <time>2023-04-25T14:06:52Z</time>
      </trkpt>
      <trkpt lat="49.1781" lon="-0.50098">
        <ele>79.8</ele>
        <time>2023-04-25T14:06:53Z</time>
      </trkpt>
      <trkpt lat="49.17812" lon="-0.5009">
        <ele>79.8</ele>
        <time>2023-04-25T14:06:54Z</time>
      </trkpt>
      <trkpt lat="49.17815" lon="-0.50081">
        <ele>79.8</ele>
        <time>2023-04-25T14:06:55Z</time>
      </trkpt>
      <trkpt lat="49.17817" lon="-0.50073">
        <ele>79.8</ele>
        <time>2023-04-25T14:06:56Z</time>
      </trkpt>
      <trkpt lat="49.1782" lon="-0.50065">
        <ele>79.8</ele>
        <time>2023-04-25T14:06:57Z</time>
      </trkpt>
      <trkpt lat="49.17823" lon="-0.50056">
        <ele>80</ele>
        <time>2023-04-25T14:06:58Z</time>
      </trkpt>
      <trkpt lat="49.17826" lon="-0.50048">
        <ele>80</ele>
        <time>2023-04-25T14:06:59Z</time>
      </trkpt>
      <trkpt lat="49.17829" lon="-0.50039">
        <ele>80</ele>
        <time>2023-04-25T14:07:00Z</time>
      </trkpt>
      <trkpt lat="49.17831" lon="-0.50031">
        <ele>80</ele>
        <time>2023-04-25T14:07:01Z</time>
      </trkpt>
      <trkpt lat="49.17834" lon="-0.50022">
        <ele>80</ele>
        <time>2023-04-25T14:07:02Z</time>
      </trkpt>
      <trkpt lat="49.17837" lon="-0.50014">
        <ele>80</ele>
        <time>2023-04-25T14:07:03Z</time>
      </trkpt>
      <trkpt lat="49.1784" lon="-0.50006">
        <ele>80</ele>
        <time>2023-04-25T14:07:04Z</time>
      </trkpt>
      <trkpt lat="49.17843" lon="-0.49997">
        <ele>79.8</ele>
        <time>2023-04-25T14:07:05Z</time>
      </trkpt>
      <trkpt lat="49.17846" lon="-0.49989">
        <ele>79.6</ele>
        <time>2023-04-25T14:07:06Z</time>
      </trkpt>
      <trkpt lat="49.17849" lon="-0.4998">
        <ele>79.6</ele>
        <time>2023-04-25T14:07:07Z</time>
      </trkpt>
      <trkpt lat="49.17852" lon="-0.49972">
        <ele>79.4</ele>
        <time>2023-04-25T14:07:08Z</time>
      </trkpt>
      <trkpt lat="49.17855" lon="-0.49963">
        <ele>79.4</ele>
        <time>2023-04-25T14:07:09Z</time>
      </trkpt>
      <trkpt lat="49.17858" lon="-0.49955">
        <ele>79.2</ele>
        <time>2023-04-25T14:07:10Z</time>
      </trkpt>
      <trkpt lat="49.1786" lon="-0.49947">
        <ele>79</ele>
        <time>2023-04-25T14:07:11Z</time>
      </trkpt>
      <trkpt lat="49.17863" lon="-0.49938">
        <ele>79</ele>
        <time>2023-04-25T14:07:12Z</time>
      </trkpt>
      <trkpt lat="49.17866" lon="-0.4993">
        <ele>78.8</ele>
        <time>2023-04-25T14:07:13Z</time>
      </trkpt>
      <trkpt lat="49.17869" lon="-0.49922">
        <ele>78.6</ele>
        <time>2023-04-25T14:07:14Z</time>
      </trkpt>
      <trkpt lat="49.17872" lon="-0.49914">
        <ele>78.6</ele>
        <time>2023-04-25T14:07:15Z</time>
      </trkpt>
      <trkpt lat="49.17874" lon="-0.49906">
        <ele>78.2</ele>
        <time>2023-04-25T14:07:16Z</time>
      </trkpt>
      <trkpt lat="49.17877" lon="-0.49898">
        <ele>78</ele>
        <time>2023-04-25T14:07:17Z</time>
      </trkpt>
      <trkpt lat="49.1788" lon="-0.4989">
        <ele>77.8</ele>
        <time>2023-04-25T14:07:18Z</time>
      </trkpt>
      <trkpt lat="49.17882" lon="-0.49882">
        <ele>77.6</ele>
        <time>2023-04-25T14:07:19Z</time>
      </trkpt>
      <trkpt lat="49.17885" lon="-0.49875">
        <ele>77.6</ele>
        <time>2023-04-25T14:07:20Z</time>
      </trkpt>
      <trkpt lat="49.17888" lon="-0.49866">
        <ele>77.4</ele>
        <time>2023-04-25T14:07:21Z</time>
      </trkpt>
      <trkpt lat="49.17891" lon="-0.49858">
        <ele>77.2</ele>
        <time>2023-04-25T14:07:22Z</time>
      </trkpt>
      <trkpt lat="49.17894" lon="-0.4985">
        <ele>77</ele>
        <time>2023-04-25T14:07:23Z</time>
      </trkpt>
      <trkpt lat="49.17896" lon="-0.49842">
        <ele>77</ele>
        <time>2023-04-25T14:07:24Z</time>
      </trkpt>
      <trkpt lat="49.17899" lon="-0.49834">
        <ele>76.8</ele>
        <time>2023-04-25T14:07:25Z</time>
      </trkpt>
      <trkpt lat="49.17902" lon="-0.49826">
        <ele>76.8</ele>
        <time>2023-04-25T14:07:26Z</time>
      </trkpt>
      <trkpt lat="49.17905" lon="-0.49818">
        <ele>76.8</ele>
        <time>2023-04-25T14:07:27Z</time>
      </trkpt>
      <trkpt lat="49.17907" lon="-0.4981">
        <ele>77</ele>
        <time>2023-04-25T14:07:28Z</time>
      </trkpt>
      <trkpt lat="49.1791" lon="-0.49801">
        <ele>77</ele>
        <time>2023-04-25T14:07:29Z</time>
      </trkpt>
      <trkpt lat="49.17913" lon="-0.49793">
        <ele>77</ele>
        <time>2023-04-25T14:07:30Z</time>
      </trkpt>
      <trkpt lat="49.17915" lon="-0.49785">
        <ele>77</ele>
        <time>2023-04-25T14:07:31Z</time>
      </trkpt>
      <trkpt lat="49.17918" lon="-0.49777">
        <ele>77</ele>
        <time>2023-04-25T14:07:32Z</time>
      </trkpt>
      <trkpt lat="49.17921" lon="-0.49769">
        <ele>77</ele>
        <time>2023-04-25T14:07:33Z</time>
      </trkpt>
      <trkpt lat="49.17924" lon="-0.49761">
        <ele>77</ele>
        <time>2023-04-25T14:07:34Z</time>
      </trkpt>
      <trkpt lat="49.17927" lon="-0.49753">
        <ele>77</ele>
        <time>2023-04-25T14:07:35Z</time>
      </trkpt>
      <trkpt lat="49.17929" lon="-0.49745">
        <ele>76.8</ele>
        <time>2023-04-25T14:07:36Z</time>
      </trkpt>
      <trkpt lat="49.17932" lon="-0.49737">
        <ele>76.6</ele>
        <time>2023-04-25T14:07:37Z</time>
      </trkpt>
      <trkpt lat="49.17935" lon="-0.49729">
        <ele>76.6</ele>
        <time>2023-04-25T14:07:38Z</time>
      </trkpt>
      <trkpt lat="49.17938" lon="-0.4972">
        <ele>76.4</ele>
        <time>2023-04-25T14:07:39Z</time>
      </trkpt>
      <trkpt lat="49.17941" lon="-0.49712">
        <ele>76.4</ele>
        <time>2023-04-25T14:07:40Z</time>
      </trkpt>
      <trkpt lat="49.17943" lon="-0.49704">
        <ele>76</ele>
        <time>2023-04-25T14:07:41Z</time>
      </trkpt>
      <trkpt lat="49.17946" lon="-0.49695">
        <ele>76</ele>
        <time>2023-04-25T14:07:42Z</time>
      </trkpt>
      <trkpt lat="49.17949" lon="-0.49687">
        <ele>76</ele>
        <time>2023-04-25T14:07:43Z</time>
      </trkpt>
      <trkpt lat="49.17952" lon="-0.49678">
        <ele>75.6</ele>
        <time>2023-04-25T14:07:44Z</time>
      </trkpt>
      <trkpt lat="49.17955" lon="-0.4967">
        <ele>75.6</ele>
        <time>2023-04-25T14:07:45Z</time>
      </trkpt>
      <trkpt lat="49.17958" lon="-0.49661">
        <ele>75.4</ele>
        <time>2023-04-25T14:07:46Z</time>
      </trkpt>
      <trkpt lat="49.17961" lon="-0.49652">
        <ele>75.4</ele>
        <time>2023-04-25T14:07:47Z</time>
      </trkpt>
      <trkpt lat="49.17964" lon="-0.49643">
        <ele>75</ele>
        <time>2023-04-25T14:07:48Z</time>
      </trkpt>
      <trkpt lat="49.17967" lon="-0.49634">
        <ele>75</ele>
        <time>2023-04-25T14:07:49Z</time>
      </trkpt>
      <trkpt lat="49.1797" lon="-0.49625">
        <ele>75</ele>
        <time>2023-04-25T14:07:50Z</time>
      </trkpt>
      <trkpt lat="49.17973" lon="-0.49616">
        <ele>74.6</ele>
        <time>2023-04-25T14:07:51Z</time>
      </trkpt>
      <trkpt lat="49.17977" lon="-0.49606">
        <ele>74.6</ele>
        <time>2023-04-25T14:07:52Z</time>
      </trkpt>
      <trkpt lat="49.1798" lon="-0.49597">
        <ele>74.4</ele>
        <time>2023-04-25T14:07:53Z</time>
      </trkpt>
      <trkpt lat="49.17983" lon="-0.49588">
        <ele>74.4</ele>
        <time>2023-04-25T14:07:54Z</time>
      </trkpt>
      <trkpt lat="49.17986" lon="-0.49578">
        <ele>74.2</ele>
        <time>2023-04-25T14:07:55Z</time>
      </trkpt>
      <trkpt lat="49.17989" lon="-0.49569">
        <ele>74.4</ele>
        <time>2023-04-25T14:07:56Z</time>
      </trkpt>
      <trkpt lat="49.17992" lon="-0.4956">
        <ele>74.4</ele>
        <time>2023-04-25T14:07:57Z</time>
      </trkpt>
      <trkpt lat="49.17996" lon="-0.49551">
        <ele>74.4</ele>
        <time>2023-04-25T14:07:58Z</time>
      </trkpt>
      <trkpt lat="49.17999" lon="-0.49542">
        <ele>74.6</ele>
        <time>2023-04-25T14:07:59Z</time>
      </trkpt>
      <trkpt lat="49.18002" lon="-0.49533">
        <ele>74.6</ele>
        <time>2023-04-25T14:08:00Z</time>
      </trkpt>
      <trkpt lat="49.18005" lon="-0.49524">
        <ele>74.6</ele>
        <time>2023-04-25T14:08:01Z</time>
      </trkpt>
      <trkpt lat="49.18008" lon="-0.49515">
        <ele>74.6</ele>
        <time>2023-04-25T14:08:02Z</time>
      </trkpt>
      <trkpt lat="49.18011" lon="-0.49507">
        <ele>74.8</ele>
        <time>2023-04-25T14:08:03Z</time>
      </trkpt>
      <trkpt lat="49.18013" lon="-0.49498">
        <ele>74.8</ele>
        <time>2023-04-25T14:08:04Z</time>
      </trkpt>
      <trkpt lat="49.18016" lon="-0.4949">
        <ele>74.8</ele>
        <time>2023-04-25T14:08:05Z</time>
      </trkpt>
      <trkpt lat="49.18019" lon="-0.49481">
        <ele>74.8</ele>
        <time>2023-04-25T14:08:06Z</time>
      </trkpt>
      <trkpt lat="49.18022" lon="-0.49473">
        <ele>74.6</ele>
        <time>2023-04-25T14:08:07Z</time>
      </trkpt>
      <trkpt lat="49.18025" lon="-0.49465">
        <ele>74.6</ele>
        <time>2023-04-25T14:08:08Z</time>
      </trkpt>
      <trkpt lat="49.18028" lon="-0.49457">
        <ele>74.6</ele>
        <time>2023-04-25T14:08:09Z</time>
      </trkpt>
      <trkpt lat="49.1803" lon="-0.49449">
        <ele>74.6</ele>
        <time>2023-04-25T14:08:10Z</time>
      </trkpt>
      <trkpt lat="49.18033" lon="-0.4944">
        <ele>74.6</ele>
        <time>2023-04-25T14:08:11Z</time>
      </trkpt>
      <trkpt lat="49.18036" lon="-0.49432">
        <ele>74.6</ele>
        <time>2023-04-25T14:08:12Z</time>
      </trkpt>
      <trkpt lat="49.18039" lon="-0.49424">
        <ele>74.6</ele>
        <time>2023-04-25T14:08:13Z</time>
      </trkpt>
      <trkpt lat="49.18042" lon="-0.49416">
        <ele>74.6</ele>
        <time>2023-04-25T14:08:14Z</time>
      </trkpt>
      <trkpt lat="49.18045" lon="-0.49408">
        <ele>74.6</ele>
        <time>2023-04-25T14:08:15Z</time>
      </trkpt>
      <trkpt lat="49.18047" lon="-0.494">
        <ele>74.4</ele>
        <time>2023-04-25T14:08:16Z</time>
      </trkpt>
      <trkpt lat="49.1805" lon="-0.49391">
        <ele>74.4</ele>
        <time>2023-04-25T14:08:17Z</time>
      </trkpt>
      <trkpt lat="49.18053" lon="-0.49383">
        <ele>74.4</ele>
        <time>2023-04-25T14:08:18Z</time>
      </trkpt>
      <trkpt lat="49.18056" lon="-0.49375">
        <ele>74.4</ele>
        <time>2023-04-25T14:08:19Z</time>
      </trkpt>
      <trkpt lat="49.18059" lon="-0.49367">
        <ele>74.4</ele>
        <time>2023-04-25T14:08:20Z</time>
      </trkpt>
      <trkpt lat="49.18061" lon="-0.49359">
        <ele>74.4</ele>
        <time>2023-04-25T14:08:21Z</time>
      </trkpt>
      <trkpt lat="49.18064" lon="-0.49351">
        <ele>74.2</ele>
        <time>2023-04-25T14:08:22Z</time>
      </trkpt>
      <trkpt lat="49.18067" lon="-0.49343">
        <ele>74.2</ele>
        <time>2023-04-25T14:08:23Z</time>
      </trkpt>
      <trkpt lat="49.18069" lon="-0.49335">
        <ele>74.2</ele>
        <time>2023-04-25T14:08:24Z</time>
      </trkpt>
      <trkpt lat="49.18072" lon="-0.49327">
        <ele>74</ele>
        <time>2023-04-25T14:08:25Z</time>
      </trkpt>
      <trkpt lat="49.18074" lon="-0.49319">
        <ele>74</ele>
        <time>2023-04-25T14:08:26Z</time>
      </trkpt>
      <trkpt lat="49.18077" lon="-0.49311">
        <ele>73.8</ele>
        <time>2023-04-25T14:08:27Z</time>
      </trkpt>
      <trkpt lat="49.18079" lon="-0.49303">
        <ele>73.6</ele>
        <time>2023-04-25T14:08:28Z</time>
      </trkpt>
      <trkpt lat="49.18082" lon="-0.49295">
        <ele>73.6</ele>
        <time>2023-04-25T14:08:29Z</time>
      </trkpt>
      <trkpt lat="49.18085" lon="-0.49287">
        <ele>73.4</ele>
        <time>2023-04-25T14:08:30Z</time>
      </trkpt>
      <trkpt lat="49.18087" lon="-0.49279">
        <ele>73.4</ele>
        <time>2023-04-25T14:08:31Z</time>
      </trkpt>
      <trkpt lat="49.1809" lon="-0.49272">
        <ele>73.2</ele>
        <time>2023-04-25T14:08:32Z</time>
      </trkpt>
      <trkpt lat="49.18092" lon="-0.49264">
        <ele>73</ele>
        <time>2023-04-25T14:08:33Z</time>
      </trkpt>
      <trkpt lat="49.18095" lon="-0.49256">
        <ele>73</ele>
        <time>2023-04-25T14:08:34Z</time>
      </trkpt>
      <trkpt lat="49.18098" lon="-0.49248">
        <ele>73</ele>
        <time>2023-04-25T14:08:35Z</time>
      </trkpt>
      <trkpt lat="49.181" lon="-0.4924">
        <ele>73</ele>
        <time>2023-04-25T14:08:36Z</time>
      </trkpt>
      <trkpt lat="49.18103" lon="-0.49232">
        <ele>72.8</ele>
        <time>2023-04-25T14:08:37Z</time>
      </trkpt>
      <trkpt lat="49.18106" lon="-0.49225">
        <ele>72.6</ele>
        <time>2023-04-25T14:08:38Z</time>
      </trkpt>
      <trkpt lat="49.18108" lon="-0.49217">
        <ele>72.6</ele>
        <time>2023-04-25T14:08:39Z</time>
      </trkpt>
      <trkpt lat="49.18111" lon="-0.49209">
        <ele>72.6</ele>
        <time>2023-04-25T14:08:40Z</time>
      </trkpt>
      <trkpt lat="49.18114" lon="-0.49202">
        <ele>72.4</ele>
        <time>2023-04-25T14:08:41Z</time>
      </trkpt>
      <trkpt lat="49.18116" lon="-0.49194">
        <ele>72.4</ele>
        <time>2023-04-25T14:08:42Z</time>
      </trkpt>
      <trkpt lat="49.18119" lon="-0.49186">
        <ele>72.2</ele>
        <time>2023-04-25T14:08:43Z</time>
      </trkpt>
      <trkpt lat="49.18121" lon="-0.49178">
        <ele>72</ele>
        <time>2023-04-25T14:08:44Z</time>
      </trkpt>
      <trkpt lat="49.18123" lon="-0.49169">
        <ele>72</ele>
        <time>2023-04-25T14:08:45Z</time>
      </trkpt>
      <trkpt lat="49.18123" lon="-0.4916">
        <ele>72</ele>
        <time>2023-04-25T14:08:46Z</time>
      </trkpt>
      <trkpt lat="49.18122" lon="-0.49151">
        <ele>72</ele>
        <time>2023-04-25T14:08:47Z</time>
      </trkpt>
      <trkpt lat="49.18122" lon="-0.49142">
        <ele>72</ele>
        <time>2023-04-25T14:08:48Z</time>
      </trkpt>
      <trkpt lat="49.18121" lon="-0.49133">
        <ele>71.8</ele>
        <time>2023-04-25T14:08:49Z</time>
      </trkpt>
      <trkpt lat="49.18121" lon="-0.49124">
        <ele>71.8</ele>
        <time>2023-04-25T14:08:50Z</time>
      </trkpt>
      <trkpt lat="49.18123" lon="-0.49116">
        <ele>71.6</ele>
        <time>2023-04-25T14:08:51Z</time>
      </trkpt>
      <trkpt lat="49.18125" lon="-0.49109">
        <ele>71.6</ele>
        <time>2023-04-25T14:08:52Z</time>
      </trkpt>
      <trkpt lat="49.18129" lon="-0.49102">
        <ele>71.6</ele>
        <time>2023-04-25T14:08:53Z</time>
      </trkpt>
      <trkpt lat="49.18134" lon="-0.49097">
        <ele>71.6</ele>
        <time>2023-04-25T14:08:54Z</time>
      </trkpt>
      <trkpt lat="49.18139" lon="-0.49093">
        <ele>71.4</ele>
        <time>2023-04-25T14:08:55Z</time>
      </trkpt>
      <trkpt lat="49.18144" lon="-0.49089">
        <ele>71.4</ele>
        <time>2023-04-25T14:08:56Z</time>
      </trkpt>
      <trkpt lat="49.1815" lon="-0.49085">
        <ele>71.2</ele>
        <time>2023-04-25T14:08:57Z</time>
      </trkpt>
      <trkpt lat="49.18154" lon="-0.49081">
        <ele>71</ele>
        <time>2023-04-25T14:08:58Z</time>
      </trkpt>
      <trkpt lat="49.18158" lon="-0.49075">
        <ele>71</ele>
        <time>2023-04-25T14:08:59Z</time>
      </trkpt>
      <trkpt lat="49.18161" lon="-0.49067">
        <ele>71</ele>
        <time>2023-04-25T14:09:00Z</time>
      </trkpt>
      <trkpt lat="49.18164" lon="-0.49059">
        <ele>71</ele>
        <time>2023-04-25T14:09:01Z</time>
      </trkpt>
      <trkpt lat="49.18167" lon="-0.49051">
        <ele>71</ele>
        <time>2023-04-25T14:09:02Z</time>
      </trkpt>
      <trkpt lat="49.18169" lon="-0.49043">
        <ele>71</ele>
        <time>2023-04-25T14:09:03Z</time>
      </trkpt>
      <trkpt lat="49.18172" lon="-0.49035">
        <ele>71</ele>
        <time>2023-04-25T14:09:04Z</time>
      </trkpt>
      <trkpt lat="49.18175" lon="-0.49026">
        <ele>71</ele>
        <time>2023-04-25T14:09:05Z</time>
      </trkpt>
      <trkpt lat="49.18178" lon="-0.49018">
        <ele>71</ele>
        <time>2023-04-25T14:09:06Z</time>
      </trkpt>
      <trkpt lat="49.18181" lon="-0.4901">
        <ele>71</ele>
        <time>2023-04-25T14:09:07Z</time>
      </trkpt>
      <trkpt lat="49.18183" lon="-0.49002">
        <ele>70.8</ele>
        <time>2023-04-25T14:09:08Z</time>
      </trkpt>
      <trkpt lat="49.18186" lon="-0.48993">
        <ele>70.8</ele>
        <time>2023-04-25T14:09:09Z</time>
      </trkpt>
      <trkpt lat="49.18189" lon="-0.48985">
        <ele>71</ele>
        <time>2023-04-25T14:09:10Z</time>
      </trkpt>
      <trkpt lat="49.18192" lon="-0.48977">
        <ele>71</ele>
        <time>2023-04-25T14:09:11Z</time>
      </trkpt>
      <trkpt lat="49.18194" lon="-0.48968">
        <ele>71</ele>
        <time>2023-04-25T14:09:12Z</time>
      </trkpt>
      <trkpt lat="49.18197" lon="-0.48959">
        <ele>71</ele>
        <time>2023-04-25T14:09:13Z</time>
      </trkpt>
      <trkpt lat="49.182" lon="-0.48951">
        <ele>71</ele>
        <time>2023-04-25T14:09:14Z</time>
      </trkpt>
      <trkpt lat="49.18202" lon="-0.48942">
        <ele>71</ele>
        <time>2023-04-25T14:09:15Z</time>
      </trkpt>
      <trkpt lat="49.18205" lon="-0.48933">
        <ele>71</ele>
        <time>2023-04-25T14:09:16Z</time>
      </trkpt>
      <trkpt lat="49.18207" lon="-0.48924">
        <ele>71</ele>
        <time>2023-04-25T14:09:17Z</time>
      </trkpt>
      <trkpt lat="49.1821" lon="-0.48915">
        <ele>71</ele>
        <time>2023-04-25T14:09:18Z</time>
      </trkpt>
      <trkpt lat="49.18212" lon="-0.48906">
        <ele>70.8</ele>
        <time>2023-04-25T14:09:19Z</time>
      </trkpt>
      <trkpt lat="49.18214" lon="-0.48896">
        <ele>70.6</ele>
        <time>2023-04-25T14:09:20Z</time>
      </trkpt>
      <trkpt lat="49.18216" lon="-0.48887">
        <ele>70.6</ele>
        <time>2023-04-25T14:09:21Z</time>
      </trkpt>
      <trkpt lat="49.18218" lon="-0.48878">
        <ele>70.4</ele>
        <time>2023-04-25T14:09:22Z</time>
      </trkpt>
      <trkpt lat="49.1822" lon="-0.48869">
        <ele>70.4</ele>
        <time>2023-04-25T14:09:23Z</time>
      </trkpt>
      <trkpt lat="49.18222" lon="-0.4886">
        <ele>70.2</ele>
        <time>2023-04-25T14:09:24Z</time>
      </trkpt>
      <trkpt lat="49.18223" lon="-0.48851">
        <ele>70</ele>
        <time>2023-04-25T14:09:25Z</time>
      </trkpt>
      <trkpt lat="49.18225" lon="-0.48842">
        <ele>70</ele>
        <time>2023-04-25T14:09:26Z</time>
      </trkpt>
      <trkpt lat="49.18227" lon="-0.48833">
        <ele>70</ele>
        <time>2023-04-25T14:09:27Z</time>
      </trkpt>
      <trkpt lat="49.18228" lon="-0.48824">
        <ele>70</ele>
        <time>2023-04-25T14:09:28Z</time>
      </trkpt>
      <trkpt lat="49.1823" lon="-0.48816">
        <ele>69.6</ele>
        <time>2023-04-25T14:09:29Z</time>
      </trkpt>
      <trkpt lat="49.18231" lon="-0.48808">
        <ele>69.6</ele>
        <time>2023-04-25T14:09:30Z</time>
      </trkpt>
      <trkpt lat="49.18233" lon="-0.488">
        <ele>69.6</ele>
        <time>2023-04-25T14:09:31Z</time>
      </trkpt>
      <trkpt lat="49.18234" lon="-0.48792">
        <ele>69.4</ele>
        <time>2023-04-25T14:09:32Z</time>
      </trkpt>
      <trkpt lat="49.18236" lon="-0.48784">
        <ele>69.4</ele>
        <time>2023-04-25T14:09:33Z</time>
      </trkpt>
      <trkpt lat="49.18237" lon="-0.48776">
        <ele>69.2</ele>
        <time>2023-04-25T14:09:34Z</time>
      </trkpt>
      <trkpt lat="49.18238" lon="-0.48768">
        <ele>69</ele>
        <time>2023-04-25T14:09:35Z</time>
      </trkpt>
      <trkpt lat="49.1824" lon="-0.4876">
        <ele>69</ele>
        <time>2023-04-25T14:09:36Z</time>
      </trkpt>
      <trkpt lat="49.18241" lon="-0.48751">
        <ele>69</ele>
        <time>2023-04-25T14:09:37Z</time>
      </trkpt>
      <trkpt lat="49.18243" lon="-0.48743">
        <ele>68.8</ele>
        <time>2023-04-25T14:09:38Z</time>
      </trkpt>
      <trkpt lat="49.18244" lon="-0.48734">
        <ele>68.8</ele>
        <time>2023-04-25T14:09:39Z</time>
      </trkpt>
      <trkpt lat="49.18246" lon="-0.48726">
        <ele>68.6</ele>
        <time>2023-04-25T14:09:40Z</time>
      </trkpt>
      <trkpt lat="49.18247" lon="-0.48717">
        <ele>68.6</ele>
        <time>2023-04-25T14:09:41Z</time>
      </trkpt>
      <trkpt lat="49.18249" lon="-0.48708">
        <ele>68.6</ele>
        <time>2023-04-25T14:09:42Z</time>
      </trkpt>
      <trkpt lat="49.18251" lon="-0.487">
        <ele>68.4</ele>
        <time>2023-04-25T14:09:43Z</time>
      </trkpt>
      <trkpt lat="49.18252" lon="-0.48691">
        <ele>68.4</ele>
        <time>2023-04-25T14:09:44Z</time>
      </trkpt>
      <trkpt lat="49.18254" lon="-0.48683">
        <ele>68.2</ele>
        <time>2023-04-25T14:09:45Z</time>
      </trkpt>
      <trkpt lat="49.18255" lon="-0.48674">
        <ele>68</ele>
        <time>2023-04-25T14:09:46Z</time>
      </trkpt>
      <trkpt lat="49.18257" lon="-0.48666">
        <ele>68</ele>
        <time>2023-04-25T14:09:47Z</time>
      </trkpt>
      <trkpt lat="49.18258" lon="-0.48658">
        <ele>68</ele>
        <time>2023-04-25T14:09:48Z</time>
      </trkpt>
      <trkpt lat="49.1826" lon="-0.48649">
        <ele>68</ele>
        <time>2023-04-25T14:09:49Z</time>
      </trkpt>
      <trkpt lat="49.18261" lon="-0.48641">
        <ele>68</ele>
        <time>2023-04-25T14:09:50Z</time>
      </trkpt>
      <trkpt lat="49.18262" lon="-0.48633">
        <ele>68</ele>
        <time>2023-04-25T14:09:51Z</time>
      </trkpt>
      <trkpt lat="49.18264" lon="-0.48625">
        <ele>68</ele>
        <time>2023-04-25T14:09:52Z</time>
      </trkpt>
      <trkpt lat="49.18265" lon="-0.48617">
        <ele>68</ele>
        <time>2023-04-25T14:09:53Z</time>
      </trkpt>
      <trkpt lat="49.18267" lon="-0.48609">
        <ele>68</ele>
        <time>2023-04-25T14:09:54Z</time>
      </trkpt>
      <trkpt lat="49.18268" lon="-0.486">
        <ele>68</ele>
        <time>2023-04-25T14:09:55Z</time>
      </trkpt>
      <trkpt lat="49.1827" lon="-0.48591">
        <ele>68.2</ele>
        <time>2023-04-25T14:09:56Z</time>
      </trkpt>
      <trkpt lat="49.18271" lon="-0.48583">
        <ele>68.4</ele>
        <time>2023-04-25T14:09:57Z</time>
      </trkpt>
      <trkpt lat="49.18273" lon="-0.48574">
        <ele>68.4</ele>
        <time>2023-04-25T14:09:58Z</time>
      </trkpt>
      <trkpt lat="49.18274" lon="-0.48565">
        <ele>68.4</ele>
        <time>2023-04-25T14:09:59Z</time>
      </trkpt>
      <trkpt lat="49.18276" lon="-0.48556">
        <ele>68.4</ele>
        <time>2023-04-25T14:10:00Z</time>
      </trkpt>
      <trkpt lat="49.18277" lon="-0.48547">
        <ele>68.4</ele>
        <time>2023-04-25T14:10:01Z</time>
      </trkpt>
      <trkpt lat="49.18278" lon="-0.48539">
        <ele>68.4</ele>
        <time>2023-04-25T14:10:02Z</time>
      </trkpt>
      <trkpt lat="49.18279" lon="-0.4853">
        <ele>68.4</ele>
        <time>2023-04-25T14:10:03Z</time>
      </trkpt>
      <trkpt lat="49.18281" lon="-0.48521">
        <ele>68.4</ele>
        <time>2023-04-25T14:10:04Z</time>
      </trkpt>
      <trkpt lat="49.18282" lon="-0.48513">
        <ele>68.4</ele>
        <time>2023-04-25T14:10:05Z</time>
      </trkpt>
      <trkpt lat="49.18283" lon="-0.48504">
        <ele>68.4</ele>
        <time>2023-04-25T14:10:06Z</time>
      </trkpt>
      <trkpt lat="49.18285" lon="-0.48495">
        <ele>68.6</ele>
        <time>2023-04-25T14:10:07Z</time>
      </trkpt>
      <trkpt lat="49.18287" lon="-0.48487">
        <ele>68.6</ele>
        <time>2023-04-25T14:10:08Z</time>
      </trkpt>
      <trkpt lat="49.18288" lon="-0.48478">
        <ele>68.6</ele>
        <time>2023-04-25T14:10:09Z</time>
      </trkpt>
      <trkpt lat="49.1829" lon="-0.4847">
        <ele>68.8</ele>
        <time>2023-04-25T14:10:10Z</time>
      </trkpt>
      <trkpt lat="49.18291" lon="-0.48462">
        <ele>69</ele>
        <time>2023-04-25T14:10:11Z</time>
      </trkpt>
      <trkpt lat="49.18293" lon="-0.48453">
        <ele>69</ele>
        <time>2023-04-25T14:10:12Z</time>
      </trkpt>
      <trkpt lat="49.18294" lon="-0.48445">
        <ele>69.2</ele>
        <time>2023-04-25T14:10:13Z</time>
      </trkpt>
      <trkpt lat="49.18296" lon="-0.48437">
        <ele>69.4</ele>
        <time>2023-04-25T14:10:14Z</time>
      </trkpt>
      <trkpt lat="49.18297" lon="-0.48428">
        <ele>69.4</ele>
        <time>2023-04-25T14:10:15Z</time>
      </trkpt>
      <trkpt lat="49.18299" lon="-0.4842">
        <ele>69.6</ele>
        <time>2023-04-25T14:10:16Z</time>
      </trkpt>
      <trkpt lat="49.183" lon="-0.48412">
        <ele>69.6</ele>
        <time>2023-04-25T14:10:17Z</time>
      </trkpt>
      <trkpt lat="49.18302" lon="-0.48403">
        <ele>69.6</ele>
        <time>2023-04-25T14:10:18Z</time>
      </trkpt>
      <trkpt lat="49.18304" lon="-0.48395">
        <ele>69.8</ele>
        <time>2023-04-25T14:10:19Z</time>
      </trkpt>
      <trkpt lat="49.18306" lon="-0.48387">
        <ele>70</ele>
        <time>2023-04-25T14:10:20Z</time>
      </trkpt>
      <trkpt lat="49.18308" lon="-0.48379">
        <ele>70</ele>
        <time>2023-04-25T14:10:21Z</time>
      </trkpt>
      <trkpt lat="49.1831" lon="-0.48371">
        <ele>70</ele>
        <time>2023-04-25T14:10:22Z</time>
      </trkpt>
      <trkpt lat="49.18311" lon="-0.48363">
        <ele>70</ele>
        <time>2023-04-25T14:10:23Z</time>
      </trkpt>
      <trkpt lat="49.18312" lon="-0.48355">
        <ele>70</ele>
        <time>2023-04-25T14:10:24Z</time>
      </trkpt>
      <trkpt lat="49.18313" lon="-0.48346">
        <ele>70.2</ele>
        <time>2023-04-25T14:10:25Z</time>
      </trkpt>
      <trkpt lat="49.18315" lon="-0.48338">
        <ele>70.2</ele>
        <time>2023-04-25T14:10:26Z</time>
      </trkpt>
      <trkpt lat="49.18315" lon="-0.48329">
        <ele>70.4</ele>
        <time>2023-04-25T14:10:27Z</time>
      </trkpt>
      <trkpt lat="49.18316" lon="-0.4832">
        <ele>70.4</ele>
        <time>2023-04-25T14:10:28Z</time>
      </trkpt>
      <trkpt lat="49.18317" lon="-0.48312">
        <ele>70.6</ele>
        <time>2023-04-25T14:10:29Z</time>
      </trkpt>
      <trkpt lat="49.18318" lon="-0.48303">
        <ele>70.6</ele>
        <time>2023-04-25T14:10:30Z</time>
      </trkpt>
      <trkpt lat="49.18319" lon="-0.48295">
        <ele>70.6</ele>
        <time>2023-04-25T14:10:31Z</time>
      </trkpt>
      <trkpt lat="49.18319" lon="-0.48286">
        <ele>70.8</ele>
        <time>2023-04-25T14:10:32Z</time>
      </trkpt>
      <trkpt lat="49.1832" lon="-0.48278">
        <ele>71</ele>
        <time>2023-04-25T14:10:33Z</time>
      </trkpt>
      <trkpt lat="49.1832" lon="-0.48269">
        <ele>71</ele>
        <time>2023-04-25T14:10:34Z</time>
      </trkpt>
      <trkpt lat="49.18321" lon="-0.48261">
        <ele>71.2</ele>
        <time>2023-04-25T14:10:35Z</time>
      </trkpt>
      <trkpt lat="49.18321" lon="-0.48253">
        <ele>71.4</ele>
        <time>2023-04-25T14:10:36Z</time>
      </trkpt>
      <trkpt lat="49.18321" lon="-0.48244">
        <ele>71.4</ele>
        <time>2023-04-25T14:10:37Z</time>
      </trkpt>
      <trkpt lat="49.18322" lon="-0.48236">
        <ele>71.4</ele>
        <time>2023-04-25T14:10:38Z</time>
      </trkpt>
      <trkpt lat="49.18322" lon="-0.48227">
        <ele>71.4</ele>
        <time>2023-04-25T14:10:39Z</time>
      </trkpt>
      <trkpt lat="49.18322" lon="-0.48218">
        <ele>71.4</ele>
        <time>2023-04-25T14:10:40Z</time>
      </trkpt>
      <trkpt lat="49.18323" lon="-0.4821">
        <ele>71.4</ele>
        <time>2023-04-25T14:10:41Z</time>
      </trkpt>
      <trkpt lat="49.18323" lon="-0.48201">
        <ele>71.2</ele>
        <time>2023-04-25T14:10:42Z</time>
      </trkpt>
      <trkpt lat="49.18323" lon="-0.48193">
        <ele>71.2</ele>
        <time>2023-04-25T14:10:43Z</time>
      </trkpt>
      <trkpt lat="49.18324" lon="-0.48184">
        <ele>71.2</ele>
        <time>2023-04-25T14:10:44Z</time>
      </trkpt>
      <trkpt lat="49.18324" lon="-0.48176">
        <ele>71.2</ele>
        <time>2023-04-25T14:10:45Z</time>
      </trkpt>
      <trkpt lat="49.18324" lon="-0.48167">
        <ele>71.2</ele>
        <time>2023-04-25T14:10:46Z</time>
      </trkpt>
      <trkpt lat="49.18325" lon="-0.48159">
        <ele>71.2</ele>
        <time>2023-04-25T14:10:47Z</time>
      </trkpt>
      <trkpt lat="49.18325" lon="-0.48151">
        <ele>71.2</ele>
        <time>2023-04-25T14:10:48Z</time>
      </trkpt>
      <trkpt lat="49.18325" lon="-0.48143">
        <ele>71.2</ele>
        <time>2023-04-25T14:10:49Z</time>
      </trkpt>
      <trkpt lat="49.18325" lon="-0.48134">
        <ele>71.2</ele>
        <time>2023-04-25T14:10:50Z</time>
      </trkpt>
      <trkpt lat="49.18325" lon="-0.48126">
        <ele>71.2</ele>
        <time>2023-04-25T14:10:51Z</time>
      </trkpt>
      <trkpt lat="49.18326" lon="-0.48117">
        <ele>71.2</ele>
        <time>2023-04-25T14:10:52Z</time>
      </trkpt>
      <trkpt lat="49.18326" lon="-0.48109">
        <ele>71.2</ele>
        <time>2023-04-25T14:10:53Z</time>
      </trkpt>
      <trkpt lat="49.18326" lon="-0.481">
        <ele>71.2</ele>
        <time>2023-04-25T14:10:54Z</time>
      </trkpt>
      <trkpt lat="49.18326" lon="-0.48092">
        <ele>71.2</ele>
        <time>2023-04-25T14:10:55Z</time>
      </trkpt>
      <trkpt lat="49.18326" lon="-0.48084">
        <ele>71.2</ele>
        <time>2023-04-25T14:10:56Z</time>
      </trkpt>
      <trkpt lat="49.18326" lon="-0.48075">
        <ele>71</ele>
        <time>2023-04-25T14:10:57Z</time>
      </trkpt>
      <trkpt lat="49.18327" lon="-0.48067">
        <ele>71</ele>
        <time>2023-04-25T14:10:58Z</time>
      </trkpt>
      <trkpt lat="49.18327" lon="-0.48058">
        <ele>71</ele>
        <time>2023-04-25T14:10:59Z</time>
      </trkpt>
      <trkpt lat="49.18327" lon="-0.4805">
        <ele>70.6</ele>
        <time>2023-04-25T14:11:00Z</time>
      </trkpt>
      <trkpt lat="49.18327" lon="-0.48041">
        <ele>70.6</ele>
        <time>2023-04-25T14:11:01Z</time>
      </trkpt>
      <trkpt lat="49.18327" lon="-0.48033">
        <ele>70.6</ele>
        <time>2023-04-25T14:11:02Z</time>
      </trkpt>
      <trkpt lat="49.18328" lon="-0.48024">
        <ele>70.4</ele>
        <time>2023-04-25T14:11:03Z</time>
      </trkpt>
      <trkpt lat="49.18328" lon="-0.48016">
        <ele>70.4</ele>
        <time>2023-04-25T14:11:04Z</time>
      </trkpt>
      <trkpt lat="49.18328" lon="-0.48007">
        <ele>70.2</ele>
        <time>2023-04-25T14:11:05Z</time>
      </trkpt>
      <trkpt lat="49.18328" lon="-0.47999">
        <ele>70</ele>
        <time>2023-04-25T14:11:06Z</time>
      </trkpt>
      <trkpt lat="49.18328" lon="-0.4799">
        <ele>70</ele>
        <time>2023-04-25T14:11:07Z</time>
      </trkpt>
      <trkpt lat="49.18328" lon="-0.47982">
        <ele>70</ele>
        <time>2023-04-25T14:11:08Z</time>
      </trkpt>
      <trkpt lat="49.18328" lon="-0.47973">
        <ele>70</ele>
        <time>2023-04-25T14:11:09Z</time>
      </trkpt>
      <trkpt lat="49.18329" lon="-0.47964">
        <ele>70</ele>
        <time>2023-04-25T14:11:10Z</time>
      </trkpt>
      <trkpt lat="49.18329" lon="-0.47955">
        <ele>70</ele>
        <time>2023-04-25T14:11:11Z</time>
      </trkpt>
      <trkpt lat="49.18329" lon="-0.47946">
        <ele>70</ele>
        <time>2023-04-25T14:11:12Z</time>
      </trkpt>
      <trkpt lat="49.18329" lon="-0.47937">
        <ele>70</ele>
        <time>2023-04-25T14:11:13Z</time>
      </trkpt>
      <trkpt lat="49.18329" lon="-0.47928">
        <ele>70</ele>
        <time>2023-04-25T14:11:14Z</time>
      </trkpt>
      <trkpt lat="49.18329" lon="-0.47919">
        <ele>70</ele>
        <time>2023-04-25T14:11:15Z</time>
      </trkpt>
      <trkpt lat="49.18329" lon="-0.4791">
        <ele>70</ele>
        <time>2023-04-25T14:11:16Z</time>
      </trkpt>
      <trkpt lat="49.18329" lon="-0.47901">
        <ele>70</ele>
        <time>2023-04-25T14:11:17Z</time>
      </trkpt>
      <trkpt lat="49.18329" lon="-0.47891">
        <ele>70</ele>
        <time>2023-04-25T14:11:18Z</time>
      </trkpt>
      <trkpt lat="49.18329" lon="-0.47882">
        <ele>70</ele>
        <time>2023-04-25T14:11:19Z</time>
      </trkpt>
      <trkpt lat="49.18329" lon="-0.47873">
        <ele>70</ele>
        <time>2023-04-25T14:11:20Z</time>
      </trkpt>
      <trkpt lat="49.18329" lon="-0.47864">
        <ele>70</ele>
        <time>2023-04-25T14:11:21Z</time>
      </trkpt>
      <trkpt lat="49.18329" lon="-0.47855">
        <ele>70</ele>
        <time>2023-04-25T14:11:22Z</time>
      </trkpt>
      <trkpt lat="49.18329" lon="-0.47845">
        <ele>70</ele>
        <time>2023-04-25T14:11:23Z</time>
      </trkpt>
      <trkpt lat="49.18329" lon="-0.47836">
        <ele>70</ele>
        <time>2023-04-25T14:11:24Z</time>
      </trkpt>
      <trkpt lat="49.18329" lon="-0.47827">
        <ele>70</ele>
        <time>2023-04-25T14:11:25Z</time>
      </trkpt>
      <trkpt lat="49.1833" lon="-0.47818">
        <ele>70</ele>
        <time>2023-04-25T14:11:26Z</time>
      </trkpt>
      <trkpt lat="49.1833" lon="-0.47809">
        <ele>70</ele>
        <time>2023-04-25T14:11:27Z</time>
      </trkpt>
      <trkpt lat="49.1833" lon="-0.478">
        <ele>70</ele>
        <time>2023-04-25T14:11:28Z</time>
      </trkpt>
      <trkpt lat="49.1833" lon="-0.4779">
        <ele>70</ele>
        <time>2023-04-25T14:11:29Z</time>
      </trkpt>
      <trkpt lat="49.1833" lon="-0.47781">
        <ele>70</ele>
        <time>2023-04-25T14:11:30Z</time>
      </trkpt>
      <trkpt lat="49.1833" lon="-0.47771">
        <ele>70</ele>
        <time>2023-04-25T14:11:31Z</time>
      </trkpt>
      <trkpt lat="49.1833" lon="-0.47762">
        <ele>70</ele>
        <time>2023-04-25T14:11:32Z</time>
      </trkpt>
      <trkpt lat="49.1833" lon="-0.47752">
        <ele>70</ele>
        <time>2023-04-25T14:11:33Z</time>
      </trkpt>
      <trkpt lat="49.1833" lon="-0.47742">
        <ele>69.8</ele>
        <time>2023-04-25T14:11:34Z</time>
      </trkpt>
      <trkpt lat="49.1833" lon="-0.47733">
        <ele>69.6</ele>
        <time>2023-04-25T14:11:35Z</time>
      </trkpt>
      <trkpt lat="49.1833" lon="-0.47723">
        <ele>69.6</ele>
        <time>2023-04-25T14:11:36Z</time>
      </trkpt>
      <trkpt lat="49.18329" lon="-0.47713">
        <ele>69.6</ele>
        <time>2023-04-25T14:11:37Z</time>
      </trkpt>
      <trkpt lat="49.18329" lon="-0.47704">
        <ele>69.4</ele>
        <time>2023-04-25T14:11:38Z</time>
      </trkpt>
      <trkpt lat="49.18328" lon="-0.47694">
        <ele>69.4</ele>
        <time>2023-04-25T14:11:39Z</time>
      </trkpt>
      <trkpt lat="49.18328" lon="-0.47685">
        <ele>69.2</ele>
        <time>2023-04-25T14:11:40Z</time>
      </trkpt>
      <trkpt lat="49.18327" lon="-0.47675">
        <ele>69</ele>
        <time>2023-04-25T14:11:41Z</time>
      </trkpt>
      <trkpt lat="49.18326" lon="-0.47666">
        <ele>69</ele>
        <time>2023-04-25T14:11:42Z</time>
      </trkpt>
      <trkpt lat="49.18326" lon="-0.47657">
        <ele>69</ele>
        <time>2023-04-25T14:11:43Z</time>
      </trkpt>
      <trkpt lat="49.18325" lon="-0.47647">
        <ele>69</ele>
        <time>2023-04-25T14:11:44Z</time>
      </trkpt>
      <trkpt lat="49.18324" lon="-0.47638">
        <ele>69</ele>
        <time>2023-04-25T14:11:45Z</time>
      </trkpt>
      <trkpt lat="49.18323" lon="-0.47629">
        <ele>69</ele>
        <time>2023-04-25T14:11:46Z</time>
      </trkpt>
      <trkpt lat="49.18322" lon="-0.4762">
        <ele>69</ele>
        <time>2023-04-25T14:11:47Z</time>
      </trkpt>
      <trkpt lat="49.18322" lon="-0.47611">
        <ele>69</ele>
        <time>2023-04-25T14:11:48Z</time>
      </trkpt>
      <trkpt lat="49.18321" lon="-0.47602">
        <ele>69</ele>
        <time>2023-04-25T14:11:49Z</time>
      </trkpt>
      <trkpt lat="49.1832" lon="-0.47593">
        <ele>69</ele>
        <time>2023-04-25T14:11:50Z</time>
      </trkpt>
      <trkpt lat="49.18319" lon="-0.47584">
        <ele>69.2</ele>
        <time>2023-04-25T14:11:51Z</time>
      </trkpt>
      <trkpt lat="49.18318" lon="-0.47575">
        <ele>69.2</ele>
        <time>2023-04-25T14:11:52Z</time>
      </trkpt>
      <trkpt lat="49.18317" lon="-0.47565">
        <ele>69.2</ele>
        <time>2023-04-25T14:11:53Z</time>
      </trkpt>
      <trkpt lat="49.18317" lon="-0.47556">
        <ele>69.4</ele>
        <time>2023-04-25T14:11:54Z</time>
      </trkpt>
      <trkpt lat="49.18316" lon="-0.47547">
        <ele>69.4</ele>
        <time>2023-04-25T14:11:55Z</time>
      </trkpt>
      <trkpt lat="49.18315" lon="-0.47537">
        <ele>69.4</ele>
        <time>2023-04-25T14:11:56Z</time>
      </trkpt>
      <trkpt lat="49.18314" lon="-0.47528">
        <ele>69.4</ele>
        <time>2023-04-25T14:11:57Z</time>
      </trkpt>
      <trkpt lat="49.18313" lon="-0.47518">
        <ele>69.4</ele>
        <time>2023-04-25T14:11:58Z</time>
      </trkpt>
      <trkpt lat="49.18312" lon="-0.47509">
        <ele>69.6</ele>
        <time>2023-04-25T14:11:59Z</time>
      </trkpt>
      <trkpt lat="49.18311" lon="-0.47499">
        <ele>69.6</ele>
        <time>2023-04-25T14:12:00Z</time>
      </trkpt>
      <trkpt lat="49.18311" lon="-0.4749">
        <ele>69.4</ele>
        <time>2023-04-25T14:12:01Z</time>
      </trkpt>
      <trkpt lat="49.1831" lon="-0.4748">
        <ele>69.4</ele>
        <time>2023-04-25T14:12:02Z</time>
      </trkpt>
      <trkpt lat="49.18309" lon="-0.47471">
        <ele>69</ele>
        <time>2023-04-25T14:12:03Z</time>
      </trkpt>
      <trkpt lat="49.18308" lon="-0.47462">
        <ele>69</ele>
        <time>2023-04-25T14:12:04Z</time>
      </trkpt>
      <trkpt lat="49.18307" lon="-0.47452">
        <ele>69</ele>
        <time>2023-04-25T14:12:05Z</time>
      </trkpt>
      <trkpt lat="49.18307" lon="-0.47443">
        <ele>68.6</ele>
        <time>2023-04-25T14:12:06Z</time>
      </trkpt>
      <trkpt lat="49.18306" lon="-0.47434">
        <ele>68.6</ele>
        <time>2023-04-25T14:12:07Z</time>
      </trkpt>
      <trkpt lat="49.18305" lon="-0.47425">
        <ele>68.6</ele>
        <time>2023-04-25T14:12:08Z</time>
      </trkpt>
      <trkpt lat="49.18304" lon="-0.47416">
        <ele>68.4</ele>
        <time>2023-04-25T14:12:09Z</time>
      </trkpt>
      <trkpt lat="49.18303" lon="-0.47407">
        <ele>68.4</ele>
        <time>2023-04-25T14:12:10Z</time>
      </trkpt>
      <trkpt lat="49.18303" lon="-0.47398">
        <ele>68.6</ele>
        <time>2023-04-25T14:12:11Z</time>
      </trkpt>
      <trkpt lat="49.18302" lon="-0.47389">
        <ele>68.6</ele>
        <time>2023-04-25T14:12:12Z</time>
      </trkpt>
      <trkpt lat="49.18301" lon="-0.4738">
        <ele>68.6</ele>
        <time>2023-04-25T14:12:13Z</time>
      </trkpt>
      <trkpt lat="49.18301" lon="-0.47371">
        <ele>68.6</ele>
        <time>2023-04-25T14:12:14Z</time>
      </trkpt>
      <trkpt lat="49.183" lon="-0.47363">
        <ele>68.6</ele>
        <time>2023-04-25T14:12:15Z</time>
      </trkpt>
      <trkpt lat="49.18299" lon="-0.47354">
        <ele>68.6</ele>
        <time>2023-04-25T14:12:16Z</time>
      </trkpt>
      <trkpt lat="49.18298" lon="-0.47345">
        <ele>68.8</ele>
        <time>2023-04-25T14:12:17Z</time>
      </trkpt>
      <trkpt lat="49.18298" lon="-0.47337">
        <ele>68.8</ele>
        <time>2023-04-25T14:12:18Z</time>
      </trkpt>
      <trkpt lat="49.18297" lon="-0.47328">
        <ele>69</ele>
        <time>2023-04-25T14:12:19Z</time>
      </trkpt>
      <trkpt lat="49.18296" lon="-0.47319">
        <ele>69</ele>
        <time>2023-04-25T14:12:20Z</time>
      </trkpt>
      <trkpt lat="49.18296" lon="-0.47311">
        <ele>69</ele>
        <time>2023-04-25T14:12:21Z</time>
      </trkpt>
      <trkpt lat="49.18295" lon="-0.47302">
        <ele>69</ele>
        <time>2023-04-25T14:12:22Z</time>
      </trkpt>
      <trkpt lat="49.18295" lon="-0.47294">
        <ele>69</ele>
        <time>2023-04-25T14:12:23Z</time>
      </trkpt>
      <trkpt lat="49.18294" lon="-0.47285">
        <ele>69</ele>
        <time>2023-04-25T14:12:24Z</time>
      </trkpt>
      <trkpt lat="49.18293" lon="-0.47277">
        <ele>69</ele>
        <time>2023-04-25T14:12:25Z</time>
      </trkpt>
      <trkpt lat="49.18293" lon="-0.47268">
        <ele>69</ele>
        <time>2023-04-25T14:12:26Z</time>
      </trkpt>
      <trkpt lat="49.18292" lon="-0.4726">
        <ele>69</ele>
        <time>2023-04-25T14:12:27Z</time>
      </trkpt>
      <trkpt lat="49.18292" lon="-0.47251">
        <ele>69</ele>
        <time>2023-04-25T14:12:28Z</time>
      </trkpt>
      <trkpt lat="49.18292" lon="-0.47242">
        <ele>69</ele>
        <time>2023-04-25T14:12:29Z</time>
      </trkpt>
      <trkpt lat="49.18291" lon="-0.47233">
        <ele>69</ele>
        <time>2023-04-25T14:12:30Z</time>
      </trkpt>
      <trkpt lat="49.18291" lon="-0.47224">
        <ele>69</ele>
        <time>2023-04-25T14:12:31Z</time>
      </trkpt>
      <trkpt lat="49.18291" lon="-0.47215">
        <ele>69</ele>
        <time>2023-04-25T14:12:32Z</time>
      </trkpt>
      <trkpt lat="49.1829" lon="-0.47206">
        <ele>69</ele>
        <time>2023-04-25T14:12:33Z</time>
      </trkpt>
      <trkpt lat="49.1829" lon="-0.47196">
        <ele>69</ele>
        <time>2023-04-25T14:12:34Z</time>
      </trkpt>
      <trkpt lat="49.1829" lon="-0.47187">
        <ele>69</ele>
        <time>2023-04-25T14:12:35Z</time>
      </trkpt>
      <trkpt lat="49.18289" lon="-0.47177">
        <ele>69</ele>
        <time>2023-04-25T14:12:36Z</time>
      </trkpt>
      <trkpt lat="49.18289" lon="-0.47168">
        <ele>69</ele>
        <time>2023-04-25T14:12:37Z</time>
      </trkpt>
      <trkpt lat="49.18289" lon="-0.47158">
        <ele>69</ele>
        <time>2023-04-25T14:12:38Z</time>
      </trkpt>
      <trkpt lat="49.18289" lon="-0.47149">
        <ele>68.8</ele>
        <time>2023-04-25T14:12:39Z</time>
      </trkpt>
      <trkpt lat="49.18288" lon="-0.47139">
        <ele>68.6</ele>
        <time>2023-04-25T14:12:40Z</time>
      </trkpt>
      <trkpt lat="49.18288" lon="-0.4713">
        <ele>68.6</ele>
        <time>2023-04-25T14:12:41Z</time>
      </trkpt>
      <trkpt lat="49.18288" lon="-0.4712">
        <ele>68.4</ele>
        <time>2023-04-25T14:12:42Z</time>
      </trkpt>
      <trkpt lat="49.18288" lon="-0.4711">
        <ele>68.4</ele>
        <time>2023-04-25T14:12:43Z</time>
      </trkpt>
      <trkpt lat="49.18287" lon="-0.471">
        <ele>68.2</ele>
        <time>2023-04-25T14:12:44Z</time>
      </trkpt>
      <trkpt lat="49.18287" lon="-0.4709">
        <ele>68</ele>
        <time>2023-04-25T14:12:45Z</time>
      </trkpt>
      <trkpt lat="49.18287" lon="-0.4708">
        <ele>68</ele>
        <time>2023-04-25T14:12:46Z</time>
      </trkpt>
      <trkpt lat="49.18286" lon="-0.47069">
        <ele>68</ele>
        <time>2023-04-25T14:12:47Z</time>
      </trkpt>
      <trkpt lat="49.18286" lon="-0.47059">
        <ele>67.6</ele>
        <time>2023-04-25T14:12:48Z</time>
      </trkpt>
      <trkpt lat="49.18286" lon="-0.47049">
        <ele>67.6</ele>
        <time>2023-04-25T14:12:49Z</time>
      </trkpt>
      <trkpt lat="49.18286" lon="-0.47038">
        <ele>67.6</ele>
        <time>2023-04-25T14:12:50Z</time>
      </trkpt>
      <trkpt lat="49.18285" lon="-0.47028">
        <ele>67.4</ele>
        <time>2023-04-25T14:12:51Z</time>
      </trkpt>
      <trkpt lat="49.18285" lon="-0.47017">
        <ele>67.4</ele>
        <time>2023-04-25T14:12:52Z</time>
      </trkpt>
      <trkpt lat="49.18285" lon="-0.47007">
        <ele>67.2</ele>
        <time>2023-04-25T14:12:53Z</time>
      </trkpt>
      <trkpt lat="49.18285" lon="-0.46996">
        <ele>67.2</ele>
        <time>2023-04-25T14:12:54Z</time>
      </trkpt>
      <trkpt lat="49.18284" lon="-0.46986">
        <ele>67.4</ele>
        <time>2023-04-25T14:12:55Z</time>
      </trkpt>
      <trkpt lat="49.18284" lon="-0.46975">
        <ele>67.4</ele>
        <time>2023-04-25T14:12:56Z</time>
      </trkpt>
      <trkpt lat="49.18284" lon="-0.46965">
        <ele>67.4</ele>
        <time>2023-04-25T14:12:57Z</time>
      </trkpt>
      <trkpt lat="49.18283" lon="-0.46955">
        <ele>67.4</ele>
        <time>2023-04-25T14:12:58Z</time>
      </trkpt>
      <trkpt lat="49.18283" lon="-0.46945">
        <ele>67.6</ele>
        <time>2023-04-25T14:12:59Z</time>
      </trkpt>
      <trkpt lat="49.18283" lon="-0.46935">
        <ele>67.6</ele>
        <time>2023-04-25T14:13:00Z</time>
      </trkpt>
      <trkpt lat="49.18282" lon="-0.46924">
        <ele>67.6</ele>
        <time>2023-04-25T14:13:01Z</time>
      </trkpt>
      <trkpt lat="49.18282" lon="-0.46915">
        <ele>67.6</ele>
        <time>2023-04-25T14:13:02Z</time>
      </trkpt>
      <trkpt lat="49.18282" lon="-0.46905">
        <ele>67.6</ele>
        <time>2023-04-25T14:13:03Z</time>
      </trkpt>
      <trkpt lat="49.18281" lon="-0.46895">
        <ele>67.6</ele>
        <time>2023-04-25T14:13:04Z</time>
      </trkpt>
      <trkpt lat="49.18281" lon="-0.46885">
        <ele>67.6</ele>
        <time>2023-04-25T14:13:05Z</time>
      </trkpt>
      <trkpt lat="49.18281" lon="-0.46875">
        <ele>67.6</ele>
        <time>2023-04-25T14:13:06Z</time>
      </trkpt>
      <trkpt lat="49.18281" lon="-0.46866">
        <ele>67.6</ele>
        <time>2023-04-25T14:13:07Z</time>
      </trkpt>
      <trkpt lat="49.1828" lon="-0.46856">
        <ele>67.6</ele>
        <time>2023-04-25T14:13:08Z</time>
      </trkpt>
      <trkpt lat="49.1828" lon="-0.46847">
        <ele>67.6</ele>
        <time>2023-04-25T14:13:09Z</time>
      </trkpt>
      <trkpt lat="49.1828" lon="-0.46837">
        <ele>67.6</ele>
        <time>2023-04-25T14:13:10Z</time>
      </trkpt>
      <trkpt lat="49.1828" lon="-0.46828">
        <ele>67.6</ele>
        <time>2023-04-25T14:13:11Z</time>
      </trkpt>
      <trkpt lat="49.18279" lon="-0.46818">
        <ele>67.8</ele>
        <time>2023-04-25T14:13:12Z</time>
      </trkpt>
      <trkpt lat="49.18279" lon="-0.46809">
        <ele>67.8</ele>
        <time>2023-04-25T14:13:13Z</time>
      </trkpt>
      <trkpt lat="49.18279" lon="-0.46799">
        <ele>68</ele>
        <time>2023-04-25T14:13:14Z</time>
      </trkpt>
      <trkpt lat="49.18279" lon="-0.4679">
        <ele>68</ele>
        <time>2023-04-25T14:13:15Z</time>
      </trkpt>
      <trkpt lat="49.18279" lon="-0.46781">
        <ele>68</ele>
        <time>2023-04-25T14:13:16Z</time>
      </trkpt>
      <trkpt lat="49.18279" lon="-0.46771">
        <ele>68</ele>
        <time>2023-04-25T14:13:17Z</time>
      </trkpt>
      <trkpt lat="49.18278" lon="-0.46762">
        <ele>68.2</ele>
        <time>2023-04-25T14:13:18Z</time>
      </trkpt>
      <trkpt lat="49.18278" lon="-0.46753">
        <ele>68.4</ele>
        <time>2023-04-25T14:13:19Z</time>
      </trkpt>
      <trkpt lat="49.18278" lon="-0.46743">
        <ele>68.4</ele>
        <time>2023-04-25T14:13:20Z</time>
      </trkpt>
      <trkpt lat="49.18278" lon="-0.46734">
        <ele>68.4</ele>
        <time>2023-04-25T14:13:21Z</time>
      </trkpt>
      <trkpt lat="49.18278" lon="-0.46725">
        <ele>68.4</ele>
        <time>2023-04-25T14:13:22Z</time>
      </trkpt>
      <trkpt lat="49.18278" lon="-0.46715">
        <ele>68.6</ele>
        <time>2023-04-25T14:13:23Z</time>
      </trkpt>
      <trkpt lat="49.18278" lon="-0.46706">
        <ele>68.6</ele>
        <time>2023-04-25T14:13:24Z</time>
      </trkpt>
      <trkpt lat="49.18278" lon="-0.46697">
        <ele>68.6</ele>
        <time>2023-04-25T14:13:25Z</time>
      </trkpt>
      <trkpt lat="49.18278" lon="-0.46687">
        <ele>68.6</ele>
        <time>2023-04-25T14:13:26Z</time>
      </trkpt>
      <trkpt lat="49.18278" lon="-0.46678">
        <ele>68.6</ele>
        <time>2023-04-25T14:13:27Z</time>
      </trkpt>
      <trkpt lat="49.18278" lon="-0.46669">
        <ele>68.6</ele>
        <time>2023-04-25T14:13:28Z</time>
      </trkpt>
      <trkpt lat="49.18278" lon="-0.4666">
        <ele>68.6</ele>
        <time>2023-04-25T14:13:29Z</time>
      </trkpt>
      <trkpt lat="49.18278" lon="-0.46651">
        <ele>68.6</ele>
        <time>2023-04-25T14:13:30Z</time>
      </trkpt>
      <trkpt lat="49.18279" lon="-0.46641">
        <ele>68.6</ele>
        <time>2023-04-25T14:13:31Z</time>
      </trkpt>
      <trkpt lat="49.18279" lon="-0.46632">
        <ele>68.6</ele>
        <time>2023-04-25T14:13:32Z</time>
      </trkpt>
      <trkpt lat="49.18279" lon="-0.46623">
        <ele>68.6</ele>
        <time>2023-04-25T14:13:33Z</time>
      </trkpt>
      <trkpt lat="49.18279" lon="-0.46614">
        <ele>68.6</ele>
        <time>2023-04-25T14:13:34Z</time>
      </trkpt>
      <trkpt lat="49.1828" lon="-0.46605">
        <ele>68.6</ele>
        <time>2023-04-25T14:13:35Z</time>
      </trkpt>
      <trkpt lat="49.1828" lon="-0.46596">
        <ele>68.6</ele>
        <time>2023-04-25T14:13:36Z</time>
      </trkpt>
      <trkpt lat="49.1828" lon="-0.46587">
        <ele>68.6</ele>
        <time>2023-04-25T14:13:37Z</time>
      </trkpt>
      <trkpt lat="49.18281" lon="-0.46577">
        <ele>68.6</ele>
        <time>2023-04-25T14:13:38Z</time>
      </trkpt>
      <trkpt lat="49.18281" lon="-0.46568">
        <ele>68.6</ele>
        <time>2023-04-25T14:13:39Z</time>
      </trkpt>
      <trkpt lat="49.18281" lon="-0.46559">
        <ele>68.4</ele>
        <time>2023-04-25T14:13:40Z</time>
      </trkpt>
      <trkpt lat="49.18282" lon="-0.4655">
        <ele>68.4</ele>
        <time>2023-04-25T14:13:41Z</time>
      </trkpt>
      <trkpt lat="49.18282" lon="-0.46542">
        <ele>68.2</ele>
        <time>2023-04-25T14:13:42Z</time>
      </trkpt>
      <trkpt lat="49.18282" lon="-0.46533">
        <ele>68</ele>
        <time>2023-04-25T14:13:43Z</time>
      </trkpt>
      <trkpt lat="49.18283" lon="-0.46525">
        <ele>68</ele>
        <time>2023-04-25T14:13:44Z</time>
      </trkpt>
      <trkpt lat="49.18283" lon="-0.46516">
        <ele>68</ele>
        <time>2023-04-25T14:13:45Z</time>
      </trkpt>
      <trkpt lat="49.18284" lon="-0.46507">
        <ele>67.8</ele>
        <time>2023-04-25T14:13:46Z</time>
      </trkpt>
      <trkpt lat="49.18285" lon="-0.46498">
        <ele>67.6</ele>
        <time>2023-04-25T14:13:47Z</time>
      </trkpt>
      <trkpt lat="49.18285" lon="-0.46489">
        <ele>67.6</ele>
        <time>2023-04-25T14:13:48Z</time>
      </trkpt>
      <trkpt lat="49.18286" lon="-0.4648">
        <ele>67.6</ele>
        <time>2023-04-25T14:13:49Z</time>
      </trkpt>
      <trkpt lat="49.18287" lon="-0.46471">
        <ele>67.6</ele>
        <time>2023-04-25T14:13:50Z</time>
      </trkpt>
      <trkpt lat="49.18287" lon="-0.46462">
        <ele>67.6</ele>
        <time>2023-04-25T14:13:51Z</time>
      </trkpt>
      <trkpt lat="49.18288" lon="-0.46453">
        <ele>67.6</ele>
        <time>2023-04-25T14:13:52Z</time>
      </trkpt>
      <trkpt lat="49.18289" lon="-0.46445">
        <ele>67.6</ele>
        <time>2023-04-25T14:13:53Z</time>
      </trkpt>
      <trkpt lat="49.1829" lon="-0.46436">
        <ele>67.6</ele>
        <time>2023-04-25T14:13:54Z</time>
      </trkpt>
      <trkpt lat="49.18291" lon="-0.46427">
        <ele>67.6</ele>
        <time>2023-04-25T14:13:55Z</time>
      </trkpt>
      <trkpt lat="49.18292" lon="-0.46418">
        <ele>67.6</ele>
        <time>2023-04-25T14:13:56Z</time>
      </trkpt>
      <trkpt lat="49.18293" lon="-0.46409">
        <ele>67.6</ele>
        <time>2023-04-25T14:13:57Z</time>
      </trkpt>
      <trkpt lat="49.18294" lon="-0.464">
        <ele>67.6</ele>
        <time>2023-04-25T14:13:58Z</time>
      </trkpt>
      <trkpt lat="49.18295" lon="-0.4639">
        <ele>67.6</ele>
        <time>2023-04-25T14:13:59Z</time>
      </trkpt>
      <trkpt lat="49.18296" lon="-0.46381">
        <ele>67.4</ele>
        <time>2023-04-25T14:14:00Z</time>
      </trkpt>
      <trkpt lat="49.18298" lon="-0.46372">
        <ele>67.4</ele>
        <time>2023-04-25T14:14:01Z</time>
      </trkpt>
      <trkpt lat="49.18299" lon="-0.46363">
        <ele>67.4</ele>
        <time>2023-04-25T14:14:02Z</time>
      </trkpt>
      <trkpt lat="49.18301" lon="-0.46354">
        <ele>67.4</ele>
        <time>2023-04-25T14:14:03Z</time>
      </trkpt>
      <trkpt lat="49.18302" lon="-0.46346">
        <ele>67.4</ele>
        <time>2023-04-25T14:14:04Z</time>
      </trkpt>
      <trkpt lat="49.18304" lon="-0.46337">
        <ele>67.4</ele>
        <time>2023-04-25T14:14:05Z</time>
      </trkpt>
      <trkpt lat="49.18306" lon="-0.46328">
        <ele>67.4</ele>
        <time>2023-04-25T14:14:06Z</time>
      </trkpt>
      <trkpt lat="49.18308" lon="-0.46319">
        <ele>67</ele>
        <time>2023-04-25T14:14:07Z</time>
      </trkpt>
      <trkpt lat="49.18309" lon="-0.4631">
        <ele>67</ele>
        <time>2023-04-25T14:14:08Z</time>
      </trkpt>
      <trkpt lat="49.18311" lon="-0.46301">
        <ele>67</ele>
        <time>2023-04-25T14:14:09Z</time>
      </trkpt>
      <trkpt lat="49.18313" lon="-0.46292">
        <ele>66.6</ele>
        <time>2023-04-25T14:14:10Z</time>
      </trkpt>
      <trkpt lat="49.18315" lon="-0.46283">
        <ele>66.6</ele>
        <time>2023-04-25T14:14:11Z</time>
      </trkpt>
      <trkpt lat="49.18317" lon="-0.46274">
        <ele>66.6</ele>
        <time>2023-04-25T14:14:12Z</time>
      </trkpt>
      <trkpt lat="49.18319" lon="-0.46265">
        <ele>66.4</ele>
        <time>2023-04-25T14:14:13Z</time>
      </trkpt>
      <trkpt lat="49.18321" lon="-0.46256">
        <ele>66.2</ele>
        <time>2023-04-25T14:14:14Z</time>
      </trkpt>
      <trkpt lat="49.18323" lon="-0.46247">
        <ele>66</ele>
        <time>2023-04-25T14:14:15Z</time>
      </trkpt>
      <trkpt lat="49.18325" lon="-0.46238">
        <ele>66</ele>
        <time>2023-04-25T14:14:16Z</time>
      </trkpt>
      <trkpt lat="49.18326" lon="-0.46229">
        <ele>66</ele>
        <time>2023-04-25T14:14:17Z</time>
      </trkpt>
      <trkpt lat="49.18328" lon="-0.4622">
        <ele>66</ele>
        <time>2023-04-25T14:14:18Z</time>
      </trkpt>
      <trkpt lat="49.1833" lon="-0.46211">
        <ele>66</ele>
        <time>2023-04-25T14:14:19Z</time>
      </trkpt>
      <trkpt lat="49.18332" lon="-0.46201">
        <ele>66</ele>
        <time>2023-04-25T14:14:20Z</time>
      </trkpt>
      <trkpt lat="49.18334" lon="-0.46192">
        <ele>66</ele>
        <time>2023-04-25T14:14:21Z</time>
      </trkpt>
      <trkpt lat="49.18336" lon="-0.46183">
        <ele>66</ele>
        <time>2023-04-25T14:14:22Z</time>
      </trkpt>
      <trkpt lat="49.18338" lon="-0.46173">
        <ele>66</ele>
        <time>2023-04-25T14:14:23Z</time>
      </trkpt>
      <trkpt lat="49.1834" lon="-0.46164">
        <ele>66</ele>
        <time>2023-04-25T14:14:24Z</time>
      </trkpt>
      <trkpt lat="49.18342" lon="-0.46155">
        <ele>65.6</ele>
        <time>2023-04-25T14:14:25Z</time>
      </trkpt>
      <trkpt lat="49.18344" lon="-0.46145">
        <ele>65.6</ele>
        <time>2023-04-25T14:14:26Z</time>
      </trkpt>
      <trkpt lat="49.18346" lon="-0.46136">
        <ele>65.4</ele>
        <time>2023-04-25T14:14:27Z</time>
      </trkpt>
      <trkpt lat="49.18348" lon="-0.46127">
        <ele>65.2</ele>
        <time>2023-04-25T14:14:28Z</time>
      </trkpt>
      <trkpt lat="49.1835" lon="-0.46118">
        <ele>65</ele>
        <time>2023-04-25T14:14:29Z</time>
      </trkpt>
      <trkpt lat="49.18352" lon="-0.46109">
        <ele>65</ele>
        <time>2023-04-25T14:14:30Z</time>
      </trkpt>
      <trkpt lat="49.18354" lon="-0.461">
        <ele>64.8</ele>
        <time>2023-04-25T14:14:31Z</time>
      </trkpt>
      <trkpt lat="49.18356" lon="-0.46091">
        <ele>64.6</ele>
        <time>2023-04-25T14:14:32Z</time>
      </trkpt>
      <trkpt lat="49.18358" lon="-0.46082">
        <ele>64.6</ele>
        <time>2023-04-25T14:14:33Z</time>
      </trkpt>
      <trkpt lat="49.1836" lon="-0.46073">
        <ele>64.6</ele>
        <time>2023-04-25T14:14:34Z</time>
      </trkpt>
      <trkpt lat="49.18362" lon="-0.46063">
        <ele>64.6</ele>
        <time>2023-04-25T14:14:35Z</time>
      </trkpt>
      <trkpt lat="49.18364" lon="-0.46054">
        <ele>64.6</ele>
        <time>2023-04-25T14:14:36Z</time>
      </trkpt>
      <trkpt lat="49.18366" lon="-0.46045">
        <ele>64.6</ele>
        <time>2023-04-25T14:14:37Z</time>
      </trkpt>
      <trkpt lat="49.18368" lon="-0.46036">
        <ele>64.6</ele>
        <time>2023-04-25T14:14:38Z</time>
      </trkpt>
      <trkpt lat="49.1837" lon="-0.46026">
        <ele>64.6</ele>
        <time>2023-04-25T14:14:39Z</time>
      </trkpt>
      <trkpt lat="49.18372" lon="-0.46017">
        <ele>64.6</ele>
        <time>2023-04-25T14:14:40Z</time>
      </trkpt>
      <trkpt lat="49.18374" lon="-0.46008">
        <ele>64.6</ele>
        <time>2023-04-25T14:14:41Z</time>
      </trkpt>
      <trkpt lat="49.18375" lon="-0.45999">
        <ele>64.6</ele>
        <time>2023-04-25T14:14:42Z</time>
      </trkpt>
      <trkpt lat="49.18377" lon="-0.4599">
        <ele>64.6</ele>
        <time>2023-04-25T14:14:43Z</time>
      </trkpt>
      <trkpt lat="49.18379" lon="-0.45981">
        <ele>64.4</ele>
        <time>2023-04-25T14:14:44Z</time>
      </trkpt>
      <trkpt lat="49.18381" lon="-0.45972">
        <ele>64.4</ele>
        <time>2023-04-25T14:14:45Z</time>
      </trkpt>
      <trkpt lat="49.18383" lon="-0.45963">
        <ele>64.4</ele>
        <time>2023-04-25T14:14:46Z</time>
      </trkpt>
      <trkpt lat="49.18385" lon="-0.45955">
        <ele>64.4</ele>
        <time>2023-04-25T14:14:47Z</time>
      </trkpt>
      <trkpt lat="49.18387" lon="-0.45946">
        <ele>64.4</ele>
        <time>2023-04-25T14:14:48Z</time>
      </trkpt>
      <trkpt lat="49.18389" lon="-0.45937">
        <ele>64.4</ele>
        <time>2023-04-25T14:14:49Z</time>
      </trkpt>
      <trkpt lat="49.18391" lon="-0.45928">
        <ele>64.4</ele>
        <time>2023-04-25T14:14:50Z</time>
      </trkpt>
      <trkpt lat="49.18392" lon="-0.45919">
        <ele>64.4</ele>
        <time>2023-04-25T14:14:51Z</time>
      </trkpt>
      <trkpt lat="49.18394" lon="-0.4591">
        <ele>64.4</ele>
        <time>2023-04-25T14:14:52Z</time>
      </trkpt>
      <trkpt lat="49.18396" lon="-0.459">
        <ele>64.4</ele>
        <time>2023-04-25T14:14:53Z</time>
      </trkpt>
      <trkpt lat="49.18398" lon="-0.45891">
        <ele>64.4</ele>
        <time>2023-04-25T14:14:54Z</time>
      </trkpt>
      <trkpt lat="49.184" lon="-0.45881">
        <ele>64.4</ele>
        <time>2023-04-25T14:14:55Z</time>
      </trkpt>
      <trkpt lat="49.18402" lon="-0.45872">
        <ele>64.2</ele>
        <time>2023-04-25T14:14:56Z</time>
      </trkpt>
      <trkpt lat="49.18404" lon="-0.45862">
        <ele>64</ele>
        <time>2023-04-25T14:14:57Z</time>
      </trkpt>
      <trkpt lat="49.18406" lon="-0.45852">
        <ele>64</ele>
        <time>2023-04-25T14:14:58Z</time>
      </trkpt>
      <trkpt lat="49.18408" lon="-0.45842">
        <ele>64</ele>
        <time>2023-04-25T14:14:59Z</time>
      </trkpt>
      <trkpt lat="49.1841" lon="-0.45833">
        <ele>64</ele>
        <time>2023-04-25T14:15:00Z</time>
      </trkpt>
      <trkpt lat="49.18412" lon="-0.45823">
        <ele>63.8</ele>
        <time>2023-04-25T14:15:01Z</time>
      </trkpt>
      <trkpt lat="49.18414" lon="-0.45813">
        <ele>63.6</ele>
        <time>2023-04-25T14:15:02Z</time>
      </trkpt>
      <trkpt lat="49.18416" lon="-0.45804">
        <ele>63.2</ele>
        <time>2023-04-25T14:15:03Z</time>
      </trkpt>
      <trkpt lat="49.18418" lon="-0.45794">
        <ele>63</ele>
        <time>2023-04-25T14:15:04Z</time>
      </trkpt>
      <trkpt lat="49.1842" lon="-0.45784">
        <ele>62.8</ele>
        <time>2023-04-25T14:15:05Z</time>
      </trkpt>
      <trkpt lat="49.18423" lon="-0.45774">
        <ele>62.6</ele>
        <time>2023-04-25T14:15:06Z</time>
      </trkpt>
      <trkpt lat="49.18425" lon="-0.45764">
        <ele>62.2</ele>
        <time>2023-04-25T14:15:07Z</time>
      </trkpt>
      <trkpt lat="49.18427" lon="-0.45754">
        <ele>62</ele>
        <time>2023-04-25T14:15:08Z</time>
      </trkpt>
      <trkpt lat="49.1843" lon="-0.45744">
        <ele>62</ele>
        <time>2023-04-25T14:15:09Z</time>
      </trkpt>
      <trkpt lat="49.18432" lon="-0.45733">
        <ele>62</ele>
        <time>2023-04-25T14:15:10Z</time>
      </trkpt>
      <trkpt lat="49.18434" lon="-0.45723">
        <ele>62</ele>
        <time>2023-04-25T14:15:11Z</time>
      </trkpt>
      <trkpt lat="49.18436" lon="-0.45713">
        <ele>62</ele>
        <time>2023-04-25T14:15:12Z</time>
      </trkpt>
      <trkpt lat="49.18438" lon="-0.45703">
        <ele>62</ele>
        <time>2023-04-25T14:15:13Z</time>
      </trkpt>
      <trkpt lat="49.18441" lon="-0.45692">
        <ele>62</ele>
        <time>2023-04-25T14:15:14Z</time>
      </trkpt>
      <trkpt lat="49.18443" lon="-0.45682">
        <ele>62</ele>
        <time>2023-04-25T14:15:15Z</time>
      </trkpt>
      <trkpt lat="49.18445" lon="-0.45672">
        <ele>62</ele>
        <time>2023-04-25T14:15:16Z</time>
      </trkpt>
      <trkpt lat="49.18447" lon="-0.45661">
        <ele>62</ele>
        <time>2023-04-25T14:15:17Z</time>
      </trkpt>
      <trkpt lat="49.18449" lon="-0.45651">
        <ele>61.6</ele>
        <time>2023-04-25T14:15:18Z</time>
      </trkpt>
      <trkpt lat="49.1845" lon="-0.4564">
        <ele>61.4</ele>
        <time>2023-04-25T14:15:19Z</time>
      </trkpt>
      <trkpt lat="49.18452" lon="-0.45629">
        <ele>61</ele>
        <time>2023-04-25T14:15:20Z</time>
      </trkpt>
      <trkpt lat="49.18454" lon="-0.45619">
        <ele>60.8</ele>
        <time>2023-04-25T14:15:21Z</time>
      </trkpt>
      <trkpt lat="49.18455" lon="-0.45608">
        <ele>60.6</ele>
        <time>2023-04-25T14:15:22Z</time>
      </trkpt>
      <trkpt lat="49.18456" lon="-0.45597">
        <ele>60.2</ele>
        <time>2023-04-25T14:15:23Z</time>
      </trkpt>
      <trkpt lat="49.18458" lon="-0.45586">
        <ele>60</ele>
        <time>2023-04-25T14:15:24Z</time>
      </trkpt>
      <trkpt lat="49.18459" lon="-0.45575">
        <ele>60</ele>
        <time>2023-04-25T14:15:25Z</time>
      </trkpt>
      <trkpt lat="49.1846" lon="-0.45564">
        <ele>60</ele>
        <time>2023-04-25T14:15:26Z</time>
      </trkpt>
      <trkpt lat="49.18461" lon="-0.45553">
        <ele>59.8</ele>
        <time>2023-04-25T14:15:27Z</time>
      </trkpt>
      <trkpt lat="49.18462" lon="-0.45542">
        <ele>59.8</ele>
        <time>2023-04-25T14:15:28Z</time>
      </trkpt>
      <trkpt lat="49.18462" lon="-0.45531">
        <ele>59.8</ele>
        <time>2023-04-25T14:15:29Z</time>
      </trkpt>
      <trkpt lat="49.18463" lon="-0.4552">
        <ele>59.8</ele>
        <time>2023-04-25T14:15:30Z</time>
      </trkpt>
      <trkpt lat="49.18463" lon="-0.45509">
        <ele>59.6</ele>
        <time>2023-04-25T14:15:31Z</time>
      </trkpt>
      <trkpt lat="49.18463" lon="-0.45498">
        <ele>59.6</ele>
        <time>2023-04-25T14:15:32Z</time>
      </trkpt>
      <trkpt lat="49.18463" lon="-0.45487">
        <ele>59.8</ele>
        <time>2023-04-25T14:15:33Z</time>
      </trkpt>
      <trkpt lat="49.18463" lon="-0.45476">
        <ele>60</ele>
        <time>2023-04-25T14:15:34Z</time>
      </trkpt>
      <trkpt lat="49.18462" lon="-0.45465">
        <ele>60.2</ele>
        <time>2023-04-25T14:15:35Z</time>
      </trkpt>
      <trkpt lat="49.18462" lon="-0.45454">
        <ele>60.4</ele>
        <time>2023-04-25T14:15:36Z</time>
      </trkpt>
      <trkpt lat="49.18461" lon="-0.45443">
        <ele>60.6</ele>
        <time>2023-04-25T14:15:37Z</time>
      </trkpt>
      <trkpt lat="49.18461" lon="-0.45432">
        <ele>60.8</ele>
        <time>2023-04-25T14:15:38Z</time>
      </trkpt>
      <trkpt lat="49.1846" lon="-0.45421">
        <ele>61</ele>
        <time>2023-04-25T14:15:39Z</time>
      </trkpt>
      <trkpt lat="49.18459" lon="-0.45409">
        <ele>61</ele>
        <time>2023-04-25T14:15:40Z</time>
      </trkpt>
      <trkpt lat="49.18459" lon="-0.45399">
        <ele>61.2</ele>
        <time>2023-04-25T14:15:41Z</time>
      </trkpt>
      <trkpt lat="49.18458" lon="-0.45388">
        <ele>61.2</ele>
        <time>2023-04-25T14:15:42Z</time>
      </trkpt>
      <trkpt lat="49.18457" lon="-0.45377">
        <ele>61.6</ele>
        <time>2023-04-25T14:15:43Z</time>
      </trkpt>
      <trkpt lat="49.18457" lon="-0.45366">
        <ele>61.6</ele>
        <time>2023-04-25T14:15:44Z</time>
      </trkpt>
      <trkpt lat="49.18456" lon="-0.45355">
        <ele>61.8</ele>
        <time>2023-04-25T14:15:45Z</time>
      </trkpt>
      <trkpt lat="49.18456" lon="-0.45344">
        <ele>61.8</ele>
        <time>2023-04-25T14:15:46Z</time>
      </trkpt>
      <trkpt lat="49.18455" lon="-0.45333">
        <ele>62</ele>
        <time>2023-04-25T14:15:47Z</time>
      </trkpt>
      <trkpt lat="49.18454" lon="-0.45322">
        <ele>61.8</ele>
        <time>2023-04-25T14:15:48Z</time>
      </trkpt>
      <trkpt lat="49.18453" lon="-0.4531">
        <ele>61.6</ele>
        <time>2023-04-25T14:15:49Z</time>
      </trkpt>
      <trkpt lat="49.18452" lon="-0.45299">
        <ele>61.4</ele>
        <time>2023-04-25T14:15:50Z</time>
      </trkpt>
      <trkpt lat="49.18451" lon="-0.45288">
        <ele>61.2</ele>
        <time>2023-04-25T14:15:51Z</time>
      </trkpt>
      <trkpt lat="49.18451" lon="-0.45277">
        <ele>61</ele>
        <time>2023-04-25T14:15:52Z</time>
      </trkpt>
      <trkpt lat="49.1845" lon="-0.45266">
        <ele>61</ele>
        <time>2023-04-25T14:15:53Z</time>
      </trkpt>
      <trkpt lat="49.18449" lon="-0.45255">
        <ele>60.8</ele>
        <time>2023-04-25T14:15:54Z</time>
      </trkpt>
      <trkpt lat="49.18449" lon="-0.45244">
        <ele>60.8</ele>
        <time>2023-04-25T14:15:55Z</time>
      </trkpt>
      <trkpt lat="49.18448" lon="-0.45233">
        <ele>60.6</ele>
        <time>2023-04-25T14:15:56Z</time>
      </trkpt>
      <trkpt lat="49.18447" lon="-0.45223">
        <ele>60.2</ele>
        <time>2023-04-25T14:15:57Z</time>
      </trkpt>
      <trkpt lat="49.18446" lon="-0.45212">
        <ele>60</ele>
        <time>2023-04-25T14:15:58Z</time>
      </trkpt>
      <trkpt lat="49.18446" lon="-0.45202">
        <ele>60</ele>
        <time>2023-04-25T14:15:59Z</time>
      </trkpt>
      <trkpt lat="49.18445" lon="-0.45192">
        <ele>59.8</ele>
        <time>2023-04-25T14:16:00Z</time>
      </trkpt>
      <trkpt lat="49.18445" lon="-0.45182">
        <ele>59.6</ele>
        <time>2023-04-25T14:16:01Z</time>
      </trkpt>
      <trkpt lat="49.18444" lon="-0.45173">
        <ele>59.4</ele>
        <time>2023-04-25T14:16:02Z</time>
      </trkpt>
      <trkpt lat="49.18443" lon="-0.45163">
        <ele>59.2</ele>
        <time>2023-04-25T14:16:03Z</time>
      </trkpt>
      <trkpt lat="49.18443" lon="-0.45153">
        <ele>59.2</ele>
        <time>2023-04-25T14:16:04Z</time>
      </trkpt>
      <trkpt lat="49.18442" lon="-0.45144">
        <ele>59</ele>
        <time>2023-04-25T14:16:05Z</time>
      </trkpt>
      <trkpt lat="49.18441" lon="-0.45134">
        <ele>59</ele>
        <time>2023-04-25T14:16:06Z</time>
      </trkpt>
      <trkpt lat="49.1844" lon="-0.45124">
        <ele>58.8</ele>
        <time>2023-04-25T14:16:07Z</time>
      </trkpt>
      <trkpt lat="49.1844" lon="-0.45115">
        <ele>58.8</ele>
        <time>2023-04-25T14:16:08Z</time>
      </trkpt>
      <trkpt lat="49.18439" lon="-0.45105">
        <ele>58.6</ele>
        <time>2023-04-25T14:16:09Z</time>
      </trkpt>
      <trkpt lat="49.18439" lon="-0.45096">
        <ele>58.4</ele>
        <time>2023-04-25T14:16:10Z</time>
      </trkpt>
      <trkpt lat="49.18438" lon="-0.45086">
        <ele>58.2</ele>
        <time>2023-04-25T14:16:11Z</time>
      </trkpt>
      <trkpt lat="49.18437" lon="-0.45077">
        <ele>58.2</ele>
        <time>2023-04-25T14:16:12Z</time>
      </trkpt>
      <trkpt lat="49.18436" lon="-0.45067">
        <ele>58.2</ele>
        <time>2023-04-25T14:16:13Z</time>
      </trkpt>
      <trkpt lat="49.18436" lon="-0.45057">
        <ele>58.2</ele>
        <time>2023-04-25T14:16:14Z</time>
      </trkpt>
      <trkpt lat="49.18435" lon="-0.45048">
        <ele>58</ele>
        <time>2023-04-25T14:16:15Z</time>
      </trkpt>
      <trkpt lat="49.18434" lon="-0.45038">
        <ele>58</ele>
        <time>2023-04-25T14:16:16Z</time>
      </trkpt>
      <trkpt lat="49.18434" lon="-0.45029">
        <ele>58</ele>
        <time>2023-04-25T14:16:17Z</time>
      </trkpt>
      <trkpt lat="49.18433" lon="-0.4502">
        <ele>58</ele>
        <time>2023-04-25T14:16:18Z</time>
      </trkpt>
      <trkpt lat="49.18432" lon="-0.4501">
        <ele>58</ele>
        <time>2023-04-25T14:16:19Z</time>
      </trkpt>
      <trkpt lat="49.18432" lon="-0.45">
        <ele>58</ele>
        <time>2023-04-25T14:16:20Z</time>
      </trkpt>
      <trkpt lat="49.18431" lon="-0.44991">
        <ele>58</ele>
        <time>2023-04-25T14:16:21Z</time>
      </trkpt>
      <trkpt lat="49.1843" lon="-0.44981">
        <ele>58</ele>
        <time>2023-04-25T14:16:22Z</time>
      </trkpt>
      <trkpt lat="49.1843" lon="-0.44971">
        <ele>58</ele>
        <time>2023-04-25T14:16:23Z</time>
      </trkpt>
      <trkpt lat="49.18429" lon="-0.44963">
        <ele>58</ele>
        <time>2023-04-25T14:16:24Z</time>
      </trkpt>
      <trkpt lat="49.18429" lon="-0.44954">
        <ele>58</ele>
        <time>2023-04-25T14:16:25Z</time>
      </trkpt>
      <trkpt lat="49.18428" lon="-0.44947">
        <ele>58</ele>
        <time>2023-04-25T14:16:26Z</time>
      </trkpt>
      <trkpt lat="49.18427" lon="-0.44941">
        <ele>58</ele>
        <time>2023-04-25T14:16:27Z</time>
      </trkpt>
      <trkpt lat="49.18426" lon="-0.44936">
        <ele>58</ele>
        <time>2023-04-25T14:16:28Z</time>
      </trkpt>
      <trkpt lat="49.18425" lon="-0.44932">
        <ele>58</ele>
        <time>2023-04-25T14:16:29Z</time>
      </trkpt>
      <trkpt lat="49.18423" lon="-0.44928">
        <ele>58</ele>
        <time>2023-04-25T14:16:30Z</time>
      </trkpt>
      <trkpt lat="49.18422" lon="-0.44924">
        <ele>58</ele>
        <time>2023-04-25T14:16:31Z</time>
      </trkpt>
      <trkpt lat="49.18422" lon="-0.44918">
        <ele>58</ele>
        <time>2023-04-25T14:16:32Z</time>
      </trkpt>
      <trkpt lat="49.18423" lon="-0.44912">
        <ele>58</ele>
        <time>2023-04-25T14:16:33Z</time>
      </trkpt>
      <trkpt lat="49.18423" lon="-0.44904">
        <ele>58.2</ele>
        <time>2023-04-25T14:16:34Z</time>
      </trkpt>
      <trkpt lat="49.18423" lon="-0.44896">
        <ele>58.6</ele>
        <time>2023-04-25T14:16:35Z</time>
      </trkpt>
      <trkpt lat="49.18423" lon="-0.44888">
        <ele>58.8</ele>
        <time>2023-04-25T14:16:36Z</time>
      </trkpt>
      <trkpt lat="49.18422" lon="-0.4488">
        <ele>59</ele>
        <time>2023-04-25T14:16:37Z</time>
      </trkpt>
      <trkpt lat="49.18422" lon="-0.44872">
        <ele>59</ele>
        <time>2023-04-25T14:16:38Z</time>
      </trkpt>
      <trkpt lat="49.18421" lon="-0.44863">
        <ele>59.2</ele>
        <time>2023-04-25T14:16:39Z</time>
      </trkpt>
      <trkpt lat="49.1842" lon="-0.44855">
        <ele>59.6</ele>
        <time>2023-04-25T14:16:40Z</time>
      </trkpt>
      <trkpt lat="49.18419" lon="-0.44846">
        <ele>59.8</ele>
        <time>2023-04-25T14:16:41Z</time>
      </trkpt>
      <trkpt lat="49.18418" lon="-0.44838">
        <ele>60</ele>
        <time>2023-04-25T14:16:42Z</time>
      </trkpt>
      <trkpt lat="49.18417" lon="-0.44829">
        <ele>60</ele>
        <time>2023-04-25T14:16:43Z</time>
      </trkpt>
      <trkpt lat="49.18416" lon="-0.4482">
        <ele>59.8</ele>
        <time>2023-04-25T14:16:44Z</time>
      </trkpt>
      <trkpt lat="49.18415" lon="-0.44811">
        <ele>59.8</ele>
        <time>2023-04-25T14:16:45Z</time>
      </trkpt>
      <trkpt lat="49.18414" lon="-0.44803">
        <ele>59.6</ele>
        <time>2023-04-25T14:16:46Z</time>
      </trkpt>
      <trkpt lat="49.18414" lon="-0.44794">
        <ele>59.6</ele>
        <time>2023-04-25T14:16:47Z</time>
      </trkpt>
      <trkpt lat="49.18413" lon="-0.44785">
        <ele>59.4</ele>
        <time>2023-04-25T14:16:48Z</time>
      </trkpt>
      <trkpt lat="49.18412" lon="-0.44776">
        <ele>59.4</ele>
        <time>2023-04-25T14:16:49Z</time>
      </trkpt>
      <trkpt lat="49.18411" lon="-0.44767">
        <ele>59.2</ele>
        <time>2023-04-25T14:16:50Z</time>
      </trkpt>
      <trkpt lat="49.1841" lon="-0.44758">
        <ele>59.2</ele>
        <time>2023-04-25T14:16:51Z</time>
      </trkpt>
      <trkpt lat="49.18409" lon="-0.44749">
        <ele>59</ele>
        <time>2023-04-25T14:16:52Z</time>
      </trkpt>
      <trkpt lat="49.18408" lon="-0.4474">
        <ele>59</ele>
        <time>2023-04-25T14:16:53Z</time>
      </trkpt>
      <trkpt lat="49.18407" lon="-0.44731">
        <ele>59</ele>
        <time>2023-04-25T14:16:54Z</time>
      </trkpt>
      <trkpt lat="49.18407" lon="-0.44722">
        <ele>58.8</ele>
        <time>2023-04-25T14:16:55Z</time>
      </trkpt>
      <trkpt lat="49.18406" lon="-0.44713">
        <ele>58.8</ele>
        <time>2023-04-25T14:16:56Z</time>
      </trkpt>
      <trkpt lat="49.18407" lon="-0.44704">
        <ele>58.6</ele>
        <time>2023-04-25T14:16:57Z</time>
      </trkpt>
      <trkpt lat="49.18407" lon="-0.44695">
        <ele>58.6</ele>
        <time>2023-04-25T14:16:58Z</time>
      </trkpt>
      <trkpt lat="49.18407" lon="-0.44686">
        <ele>58.4</ele>
        <time>2023-04-25T14:16:59Z</time>
      </trkpt>
      <trkpt lat="49.18407" lon="-0.44678">
        <ele>58.4</ele>
        <time>2023-04-25T14:17:00Z</time>
      </trkpt>
      <trkpt lat="49.18406" lon="-0.44669">
        <ele>58.2</ele>
        <time>2023-04-25T14:17:01Z</time>
      </trkpt>
      <trkpt lat="49.18404" lon="-0.44661">
        <ele>58.4</ele>
        <time>2023-04-25T14:17:02Z</time>
      </trkpt>
      <trkpt lat="49.18401" lon="-0.44653">
        <ele>58.6</ele>
        <time>2023-04-25T14:17:03Z</time>
      </trkpt>
      <trkpt lat="49.18399" lon="-0.44646">
        <ele>58.6</ele>
        <time>2023-04-25T14:17:04Z</time>
      </trkpt>
      <trkpt lat="49.18397" lon="-0.44638">
        <ele>58.8</ele>
        <time>2023-04-25T14:17:05Z</time>
      </trkpt>
      <trkpt lat="49.18396" lon="-0.4463">
        <ele>58.8</ele>
        <time>2023-04-25T14:17:06Z</time>
      </trkpt>
      <trkpt lat="49.18395" lon="-0.44621">
        <ele>58.8</ele>
        <time>2023-04-25T14:17:07Z</time>
      </trkpt>
      <trkpt lat="49.18394" lon="-0.44613">
        <ele>58.8</ele>
        <time>2023-04-25T14:17:08Z</time>
      </trkpt>
      <trkpt lat="49.18393" lon="-0.44604">
        <ele>59</ele>
        <time>2023-04-25T14:17:09Z</time>
      </trkpt>
      <trkpt lat="49.18392" lon="-0.44596">
        <ele>59</ele>
        <time>2023-04-25T14:17:10Z</time>
      </trkpt>
      <trkpt lat="49.18391" lon="-0.44587">
        <ele>59</ele>
        <time>2023-04-25T14:17:11Z</time>
      </trkpt>
      <trkpt lat="49.18391" lon="-0.44578">
        <ele>59</ele>
        <time>2023-04-25T14:17:12Z</time>
      </trkpt>
      <trkpt lat="49.1839" lon="-0.4457">
        <ele>59</ele>
        <time>2023-04-25T14:17:13Z</time>
      </trkpt>
      <trkpt lat="49.18389" lon="-0.44561">
        <ele>59</ele>
        <time>2023-04-25T14:17:14Z</time>
      </trkpt>
      <trkpt lat="49.18388" lon="-0.44552">
        <ele>59</ele>
        <time>2023-04-25T14:17:15Z</time>
      </trkpt>
      <trkpt lat="49.18387" lon="-0.44544">
        <ele>59</ele>
        <time>2023-04-25T14:17:16Z</time>
      </trkpt>
      <trkpt lat="49.18387" lon="-0.44535">
        <ele>59</ele>
        <time>2023-04-25T14:17:17Z</time>
      </trkpt>
      <trkpt lat="49.18386" lon="-0.44527">
        <ele>59</ele>
        <time>2023-04-25T14:17:18Z</time>
      </trkpt>
      <trkpt lat="49.18385" lon="-0.44519">
        <ele>59</ele>
        <time>2023-04-25T14:17:19Z</time>
      </trkpt>
      <trkpt lat="49.18385" lon="-0.44511">
        <ele>59</ele>
        <time>2023-04-25T14:17:20Z</time>
      </trkpt>
      <trkpt lat="49.18384" lon="-0.44503">
        <ele>59</ele>
        <time>2023-04-25T14:17:21Z</time>
      </trkpt>
      <trkpt lat="49.18383" lon="-0.44495">
        <ele>59</ele>
        <time>2023-04-25T14:17:22Z</time>
      </trkpt>
      <trkpt lat="49.18381" lon="-0.44487">
        <ele>58.8</ele>
        <time>2023-04-25T14:17:23Z</time>
      </trkpt>
      <trkpt lat="49.1838" lon="-0.44479">
        <ele>58.6</ele>
        <time>2023-04-25T14:17:24Z</time>
      </trkpt>
      <trkpt lat="49.18379" lon="-0.44471">
        <ele>58.2</ele>
        <time>2023-04-25T14:17:25Z</time>
      </trkpt>
      <trkpt lat="49.18378" lon="-0.44463">
        <ele>58</ele>
        <time>2023-04-25T14:17:26Z</time>
      </trkpt>
      <trkpt lat="49.18377" lon="-0.44455">
        <ele>58</ele>
        <time>2023-04-25T14:17:27Z</time>
      </trkpt>
      <trkpt lat="49.18377" lon="-0.44447">
        <ele>57.8</ele>
        <time>2023-04-25T14:17:28Z</time>
      </trkpt>
      <trkpt lat="49.18376" lon="-0.4444">
        <ele>57.6</ele>
        <time>2023-04-25T14:17:29Z</time>
      </trkpt>
      <trkpt lat="49.18376" lon="-0.44434">
        <ele>57.4</ele>
        <time>2023-04-25T14:17:30Z</time>
      </trkpt>
      <trkpt lat="49.18375" lon="-0.44428">
        <ele>57.2</ele>
        <time>2023-04-25T14:17:31Z</time>
      </trkpt>
      <trkpt lat="49.18375" lon="-0.44422">
        <ele>57</ele>
        <time>2023-04-25T14:17:32Z</time>
      </trkpt>
      <trkpt lat="49.18375" lon="-0.44416">
        <ele>57</ele>
        <time>2023-04-25T14:17:33Z</time>
      </trkpt>
      <trkpt lat="49.18374" lon="-0.4441">
        <ele>57</ele>
        <time>2023-04-25T14:17:34Z</time>
      </trkpt>
      <trkpt lat="49.18374" lon="-0.44404">
        <ele>57</ele>
        <time>2023-04-25T14:17:35Z</time>
      </trkpt>
      <trkpt lat="49.18374" lon="-0.44399">
        <ele>57</ele>
        <time>2023-04-25T14:17:36Z</time>
      </trkpt>
      <trkpt lat="49.18374" lon="-0.44393">
        <ele>57</ele>
        <time>2023-04-25T14:17:37Z</time>
      </trkpt>
      <trkpt lat="49.18374" lon="-0.44386">
        <ele>56.8</ele>
        <time>2023-04-25T14:17:38Z</time>
      </trkpt>
      <trkpt lat="49.18374" lon="-0.4438">
        <ele>56.8</ele>
        <time>2023-04-25T14:17:39Z</time>
      </trkpt>
      <trkpt lat="49.18374" lon="-0.44372">
        <ele>56.8</ele>
        <time>2023-04-25T14:17:40Z</time>
      </trkpt>
      <trkpt lat="49.18374" lon="-0.44365">
        <ele>56.8</ele>
        <time>2023-04-25T14:17:41Z</time>
      </trkpt>
      <trkpt lat="49.18373" lon="-0.44357">
        <ele>56.8</ele>
        <time>2023-04-25T14:17:42Z</time>
      </trkpt>
      <trkpt lat="49.18373" lon="-0.44349">
        <ele>56.6</ele>
        <time>2023-04-25T14:17:43Z</time>
      </trkpt>
      <trkpt lat="49.18371" lon="-0.44342">
        <ele>56.6</ele>
        <time>2023-04-25T14:17:44Z</time>
      </trkpt>
      <trkpt lat="49.1837" lon="-0.44334">
        <ele>56.6</ele>
        <time>2023-04-25T14:17:45Z</time>
      </trkpt>
      <trkpt lat="49.18368" lon="-0.44326">
        <ele>56.6</ele>
        <time>2023-04-25T14:17:46Z</time>
      </trkpt>
      <trkpt lat="49.18365" lon="-0.44318">
        <ele>56.8</ele>
        <time>2023-04-25T14:17:47Z</time>
      </trkpt>
      <trkpt lat="49.18362" lon="-0.4431">
        <ele>56.8</ele>
        <time>2023-04-25T14:17:48Z</time>
      </trkpt>
      <trkpt lat="49.1836" lon="-0.44302">
        <ele>57</ele>
        <time>2023-04-25T14:17:49Z</time>
      </trkpt>
      <trkpt lat="49.18358" lon="-0.44294">
        <ele>57</ele>
        <time>2023-04-25T14:17:50Z</time>
      </trkpt>
      <trkpt lat="49.18357" lon="-0.44286">
        <ele>57</ele>
        <time>2023-04-25T14:17:51Z</time>
      </trkpt>
      <trkpt lat="49.18356" lon="-0.44277">
        <ele>57.2</ele>
        <time>2023-04-25T14:17:52Z</time>
      </trkpt>
      <trkpt lat="49.18355" lon="-0.44269">
        <ele>57.2</ele>
        <time>2023-04-25T14:17:53Z</time>
      </trkpt>
      <trkpt lat="49.18354" lon="-0.4426">
        <ele>57.4</ele>
        <time>2023-04-25T14:17:54Z</time>
      </trkpt>
      <trkpt lat="49.18352" lon="-0.44251">
        <ele>57.6</ele>
        <time>2023-04-25T14:17:55Z</time>
      </trkpt>
      <trkpt lat="49.18351" lon="-0.44243">
        <ele>57.6</ele>
        <time>2023-04-25T14:17:56Z</time>
      </trkpt>
      <trkpt lat="49.1835" lon="-0.44234">
        <ele>57.6</ele>
        <time>2023-04-25T14:17:57Z</time>
      </trkpt>
      <trkpt lat="49.18349" lon="-0.44225">
        <ele>57.8</ele>
        <time>2023-04-25T14:17:58Z</time>
      </trkpt>
      <trkpt lat="49.18348" lon="-0.44217">
        <ele>57.8</ele>
        <time>2023-04-25T14:17:59Z</time>
      </trkpt>
      <trkpt lat="49.18347" lon="-0.44208">
        <ele>57.8</ele>
        <time>2023-04-25T14:18:00Z</time>
      </trkpt>
      <trkpt lat="49.18346" lon="-0.442">
        <ele>57.8</ele>
        <time>2023-04-25T14:18:01Z</time>
      </trkpt>
      <trkpt lat="49.18345" lon="-0.44191">
        <ele>57.8</ele>
        <time>2023-04-25T14:18:02Z</time>
      </trkpt>
      <trkpt lat="49.18344" lon="-0.44183">
        <ele>57.8</ele>
        <time>2023-04-25T14:18:03Z</time>
      </trkpt>
      <trkpt lat="49.18343" lon="-0.44175">
        <ele>58</ele>
        <time>2023-04-25T14:18:04Z</time>
      </trkpt>
      <trkpt lat="49.18342" lon="-0.44167">
        <ele>58</ele>
        <time>2023-04-25T14:18:05Z</time>
      </trkpt>
      <trkpt lat="49.18341" lon="-0.44158">
        <ele>58</ele>
        <time>2023-04-25T14:18:06Z</time>
      </trkpt>
      <trkpt lat="49.18341" lon="-0.44151">
        <ele>58</ele>
        <time>2023-04-25T14:18:07Z</time>
      </trkpt>
      <trkpt lat="49.18341" lon="-0.44143">
        <ele>58</ele>
        <time>2023-04-25T14:18:08Z</time>
      </trkpt>
      <trkpt lat="49.1834" lon="-0.44136">
        <ele>58</ele>
        <time>2023-04-25T14:18:09Z</time>
      </trkpt>
      <trkpt lat="49.1834" lon="-0.44129">
        <ele>57.8</ele>
        <time>2023-04-25T14:18:10Z</time>
      </trkpt>
      <trkpt lat="49.1834" lon="-0.44124">
        <ele>57.8</ele>
        <time>2023-04-25T14:18:11Z</time>
      </trkpt>
      <trkpt lat="49.1834" lon="-0.44119">
        <ele>57.8</ele>
        <time>2023-04-25T14:18:12Z</time>
      </trkpt>
      <trkpt lat="49.1834" lon="-0.44115">
        <ele>57.8</ele>
        <time>2023-04-25T14:18:13Z</time>
      </trkpt>
      <trkpt lat="49.1834" lon="-0.44112">
        <ele>57.8</ele>
        <time>2023-04-25T14:18:14Z</time>
      </trkpt>
      <trkpt lat="49.1834" lon="-0.4411">
        <ele>57.8</ele>
        <time>2023-04-25T14:18:15Z</time>
      </trkpt>
      <trkpt lat="49.1834" lon="-0.44109">
        <ele>57.8</ele>
        <time>2023-04-25T14:18:16Z</time>
      </trkpt>
      <trkpt lat="49.1834" lon="-0.44109">
        <ele>57.8</ele>
        <time>2023-04-25T14:18:17Z</time>
      </trkpt>
      <trkpt lat="49.1834" lon="-0.4411">
        <ele>57.8</ele>
        <time>2023-04-25T14:18:18Z</time>
      </trkpt>
      <trkpt lat="49.1834" lon="-0.4411">
        <ele>57.8</ele>
        <time>2023-04-25T14:18:19Z</time>
      </trkpt>
      <trkpt lat="49.1834" lon="-0.4411">
        <ele>57.8</ele>
        <time>2023-04-25T14:18:20Z</time>
      </trkpt>
      <trkpt lat="49.1834" lon="-0.4411">
        <ele>57.8</ele>
        <time>2023-04-25T14:18:21Z</time>
      </trkpt>
      <trkpt lat="49.1834" lon="-0.4411">
        <ele>57.8</ele>
        <time>2023-04-25T14:18:22Z</time>
      </trkpt>
      <trkpt lat="49.1834" lon="-0.4411">
        <ele>57.8</ele>
        <time>2023-04-25T14:18:23Z</time>
      </trkpt>
      <trkpt lat="49.1834" lon="-0.4411">
        <ele>57.8</ele>
        <time>2023-04-25T14:18:24Z</time>
      </trkpt>
      <trkpt lat="49.1834" lon="-0.4411">
        <ele>57.8</ele>
        <time>2023-04-25T14:18:25Z</time>
      </trkpt>
      <trkpt lat="49.1834" lon="-0.4411">
        <ele>57.8</ele>
        <time>2023-04-25T14:18:26Z</time>
      </trkpt>
      <trkpt lat="49.1834" lon="-0.4411">
        <ele>57.8</ele>
        <time>2023-04-25T14:18:27Z</time>
      </trkpt>
      <trkpt lat="49.1834" lon="-0.4411">
        <ele>57.8</ele>
        <time>2023-04-25T14:18:28Z</time>
      </trkpt>
      <trkpt lat="49.1834" lon="-0.4411">
        <ele>57.8</ele>
        <time>2023-04-25T14:18:29Z</time>
      </trkpt>
      <trkpt lat="49.1834" lon="-0.4411">
        <ele>57.8</ele>
        <time>2023-04-25T14:18:30Z</time>
      </trkpt>
      <trkpt lat="49.1834" lon="-0.4411">
        <ele>57.8</ele>
        <time>2023-04-25T14:18:31Z</time>
      </trkpt>
      <trkpt lat="49.1834" lon="-0.4411">
        <ele>57.8</ele>
        <time>2023-04-25T14:18:32Z</time>
      </trkpt>
      <trkpt lat="49.1834" lon="-0.4411">
        <ele>57.8</ele>
        <time>2023-04-25T14:18:33Z</time>
      </trkpt>
      <trkpt lat="49.1834" lon="-0.4411">
        <ele>57.8</ele>
        <time>2023-04-25T14:18:34Z</time>
      </trkpt>
      <trkpt lat="49.1834" lon="-0.4411">
        <ele>57.8</ele>
        <time>2023-04-25T14:18:35Z</time>
      </trkpt>
      <trkpt lat="49.1834" lon="-0.4411">
        <ele>57.8</ele>
        <time>2023-04-25T14:18:36Z</time>
      </trkpt>
      <trkpt lat="49.1834" lon="-0.4411">
        <ele>57.8</ele>
        <time>2023-04-25T14:18:37Z</time>
      </trkpt>
      <trkpt lat="49.1834" lon="-0.4411">
        <ele>57.8</ele>
        <time>2023-04-25T14:18:38Z</time>
      </trkpt>
      <trkpt lat="49.1834" lon="-0.4411">
        <ele>57.8</ele>
        <time>2023-04-25T14:18:39Z</time>
      </trkpt>
      <trkpt lat="49.1834" lon="-0.4411">
        <ele>57.8</ele>
        <time>2023-04-25T14:18:40Z</time>
      </trkpt>
      <trkpt lat="49.1834" lon="-0.4411">
        <ele>57.8</ele>
        <time>2023-04-25T14:18:41Z</time>
      </trkpt>
      <trkpt lat="49.1834" lon="-0.4411">
        <ele>57.8</ele>
        <time>2023-04-25T14:18:42Z</time>
      </trkpt>
      <trkpt lat="49.1834" lon="-0.4411">
        <ele>57.8</ele>
        <time>2023-04-25T14:18:43Z</time>
      </trkpt>
      <trkpt lat="49.1834" lon="-0.4411">
        <ele>57.8</ele>
        <time>2023-04-25T14:18:44Z</time>
      </trkpt>
      <trkpt lat="49.1834" lon="-0.4411">
        <ele>57.8</ele>
        <time>2023-04-25T14:18:45Z</time>
      </trkpt>
      <trkpt lat="49.1834" lon="-0.4411">
        <ele>57.8</ele>
        <time>2023-04-25T14:18:46Z</time>
      </trkpt>
      <trkpt lat="49.1834" lon="-0.4411">
        <ele>57.8</ele>
        <time>2023-04-25T14:18:47Z</time>
      </trkpt>
      <trkpt lat="49.1834" lon="-0.4411">
        <ele>57.8</ele>
        <time>2023-04-25T14:18:48Z</time>
      </trkpt>
      <trkpt lat="49.1834" lon="-0.4411">
        <ele>57.8</ele>
        <time>2023-04-25T14:18:49Z</time>
      </trkpt>
      <trkpt lat="49.1834" lon="-0.4411">
        <ele>57.8</ele>
        <time>2023-04-25T14:18:50Z</time>
      </trkpt>
      <trkpt lat="49.1834" lon="-0.4411">
        <ele>57.8</ele>
        <time>2023-04-25T14:18:51Z</time>
      </trkpt>
      <trkpt lat="49.1834" lon="-0.4411">
        <ele>57.8</ele>
        <time>2023-04-25T14:18:52Z</time>
      </trkpt>
      <trkpt lat="49.1834" lon="-0.4411">
        <ele>57.8</ele>
        <time>2023-04-25T14:18:53Z</time>
      </trkpt>
      <trkpt lat="49.1834" lon="-0.44109">
        <ele>57.8</ele>
        <time>2023-04-25T14:18:54Z</time>
      </trkpt>
      <trkpt lat="49.1834" lon="-0.44106">
        <ele>57.8</ele>
        <time>2023-04-25T14:18:55Z</time>
      </trkpt>
      <trkpt lat="49.1834" lon="-0.44103">
        <ele>57.8</ele>
        <time>2023-04-25T14:18:56Z</time>
      </trkpt>
      <trkpt lat="49.1834" lon="-0.44097">
        <ele>57.8</ele>
        <time>2023-04-25T14:18:57Z</time>
      </trkpt>
      <trkpt lat="49.1834" lon="-0.44091">
        <ele>57.8</ele>
        <time>2023-04-25T14:18:58Z</time>
      </trkpt>
      <trkpt lat="49.1834" lon="-0.44083">
        <ele>57.8</ele>
        <time>2023-04-25T14:18:59Z</time>
      </trkpt>
      <trkpt lat="49.18339" lon="-0.44076">
        <ele>57.8</ele>
        <time>2023-04-25T14:19:00Z</time>
      </trkpt>
      <trkpt lat="49.18339" lon="-0.44067">
        <ele>57.6</ele>
        <time>2023-04-25T14:19:01Z</time>
      </trkpt>
      <trkpt lat="49.18339" lon="-0.44059">
        <ele>57.6</ele>
        <time>2023-04-25T14:19:02Z</time>
      </trkpt>
      <trkpt lat="49.1834" lon="-0.4405">
        <ele>57.4</ele>
        <time>2023-04-25T14:19:03Z</time>
      </trkpt>
      <trkpt lat="49.18341" lon="-0.44042">
        <ele>57.2</ele>
        <time>2023-04-25T14:19:04Z</time>
      </trkpt>
      <trkpt lat="49.18342" lon="-0.44033">
        <ele>57.2</ele>
        <time>2023-04-25T14:19:05Z</time>
      </trkpt>
      <trkpt lat="49.18345" lon="-0.44024">
        <ele>57</ele>
        <time>2023-04-25T14:19:06Z</time>
      </trkpt>
      <trkpt lat="49.18347" lon="-0.44015">
        <ele>57</ele>
        <time>2023-04-25T14:19:07Z</time>
      </trkpt>
      <trkpt lat="49.18349" lon="-0.44006">
        <ele>57</ele>
        <time>2023-04-25T14:19:08Z</time>
      </trkpt>
      <trkpt lat="49.18352" lon="-0.43997">
        <ele>56.8</ele>
        <time>2023-04-25T14:19:09Z</time>
      </trkpt>
      <trkpt lat="49.18355" lon="-0.43989">
        <ele>56.8</ele>
        <time>2023-04-25T14:19:10Z</time>
      </trkpt>
      <trkpt lat="49.18357" lon="-0.4398">
        <ele>56.8</ele>
        <time>2023-04-25T14:19:11Z</time>
      </trkpt>
      <trkpt lat="49.1836" lon="-0.43971">
        <ele>56.8</ele>
        <time>2023-04-25T14:19:12Z</time>
      </trkpt>
      <trkpt lat="49.18363" lon="-0.43962">
        <ele>56.6</ele>
        <time>2023-04-25T14:19:13Z</time>
      </trkpt>
      <trkpt lat="49.18366" lon="-0.43953">
        <ele>56.6</ele>
        <time>2023-04-25T14:19:14Z</time>
      </trkpt>
      <trkpt lat="49.18368" lon="-0.43943">
        <ele>56.6</ele>
        <time>2023-04-25T14:19:15Z</time>
      </trkpt>
      <trkpt lat="49.18371" lon="-0.43934">
        <ele>56.6</ele>
        <time>2023-04-25T14:19:16Z</time>
      </trkpt>
      <trkpt lat="49.18374" lon="-0.43925">
        <ele>56.6</ele>
        <time>2023-04-25T14:19:17Z</time>
      </trkpt>
      <trkpt lat="49.18377" lon="-0.43916">
        <ele>56.6</ele>
        <time>2023-04-25T14:19:18Z</time>
      </trkpt>
      <trkpt lat="49.1838" lon="-0.43907">
        <ele>56.4</ele>
        <time>2023-04-25T14:19:19Z</time>
      </trkpt>
      <trkpt lat="49.18382" lon="-0.43898">
        <ele>56.2</ele>
        <time>2023-04-25T14:19:20Z</time>
      </trkpt>
      <trkpt lat="49.18385" lon="-0.43889">
        <ele>56.2</ele>
        <time>2023-04-25T14:19:21Z</time>
      </trkpt>
      <trkpt lat="49.18388" lon="-0.4388">
        <ele>56.2</ele>
        <time>2023-04-25T14:19:22Z</time>
      </trkpt>
      <trkpt lat="49.1839" lon="-0.43871">
        <ele>56</ele>
        <time>2023-04-25T14:19:23Z</time>
      </trkpt>
      <trkpt lat="49.18393" lon="-0.43862">
        <ele>56</ele>
        <time>2023-04-25T14:19:24Z</time>
      </trkpt>
      <trkpt lat="49.18396" lon="-0.43854">
        <ele>56</ele>
        <time>2023-04-25T14:19:25Z</time>
      </trkpt>
      <trkpt lat="49.18399" lon="-0.43845">
        <ele>56</ele>
        <time>2023-04-25T14:19:26Z</time>
      </trkpt>
      <trkpt lat="49.18402" lon="-0.43837">
        <ele>56</ele>
        <time>2023-04-25T14:19:27Z</time>
      </trkpt>
      <trkpt lat="49.18405" lon="-0.43829">
        <ele>56</ele>
        <time>2023-04-25T14:19:28Z</time>
      </trkpt>
      <trkpt lat="49.18408" lon="-0.4382">
        <ele>55.8</ele>
        <time>2023-04-25T14:19:29Z</time>
      </trkpt>
      <trkpt lat="49.18412" lon="-0.43812">
        <ele>55.8</ele>
        <time>2023-04-25T14:19:30Z</time>
      </trkpt>
      <trkpt lat="49.18415" lon="-0.43804">
        <ele>55.6</ele>
        <time>2023-04-25T14:19:31Z</time>
      </trkpt>
      <trkpt lat="49.18419" lon="-0.43796">
        <ele>55.6</ele>
        <time>2023-04-25T14:19:32Z</time>
      </trkpt>
      <trkpt lat="49.18422" lon="-0.43788">
        <ele>55.2</ele>
        <time>2023-04-25T14:19:33Z</time>
      </trkpt>
      <trkpt lat="49.18425" lon="-0.4378">
        <ele>55</ele>
        <time>2023-04-25T14:19:34Z</time>
      </trkpt>
      <trkpt lat="49.18429" lon="-0.43771">
        <ele>55</ele>
        <time>2023-04-25T14:19:35Z</time>
      </trkpt>
      <trkpt lat="49.18432" lon="-0.43763">
        <ele>54.8</ele>
        <time>2023-04-25T14:19:36Z</time>
      </trkpt>
      <trkpt lat="49.18435" lon="-0.43755">
        <ele>54.6</ele>
        <time>2023-04-25T14:19:37Z</time>
      </trkpt>
      <trkpt lat="49.18439" lon="-0.43746">
        <ele>54.6</ele>
        <time>2023-04-25T14:19:38Z</time>
      </trkpt>
      <trkpt lat="49.18442" lon="-0.43738">
        <ele>54.6</ele>
        <time>2023-04-25T14:19:39Z</time>
      </trkpt>
      <trkpt lat="49.18445" lon="-0.4373">
        <ele>54.6</ele>
        <time>2023-04-25T14:19:40Z</time>
      </trkpt>
      <trkpt lat="49.18449" lon="-0.43722">
        <ele>54.4</ele>
        <time>2023-04-25T14:19:41Z</time>
      </trkpt>
      <trkpt lat="49.18452" lon="-0.43714">
        <ele>54.4</ele>
        <time>2023-04-25T14:19:42Z</time>
      </trkpt>
      <trkpt lat="49.18455" lon="-0.43706">
        <ele>54.4</ele>
        <time>2023-04-25T14:19:43Z</time>
      </trkpt>
      <trkpt lat="49.18458" lon="-0.43698">
        <ele>54.2</ele>
        <time>2023-04-25T14:19:44Z</time>
      </trkpt>
      <trkpt lat="49.18461" lon="-0.43689">
        <ele>54.2</ele>
        <time>2023-04-25T14:19:45Z</time>
      </trkpt>
      <trkpt lat="49.18465" lon="-0.43681">
        <ele>54.2</ele>
        <time>2023-04-25T14:19:46Z</time>
      </trkpt>
      <trkpt lat="49.18468" lon="-0.43673">
        <ele>54</ele>
        <time>2023-04-25T14:19:47Z</time>
      </trkpt>
      <trkpt lat="49.18471" lon="-0.43664">
        <ele>54</ele>
        <time>2023-04-25T14:19:48Z</time>
      </trkpt>
      <trkpt lat="49.18474" lon="-0.43656">
        <ele>54</ele>
        <time>2023-04-25T14:19:49Z</time>
      </trkpt>
      <trkpt lat="49.18477" lon="-0.43647">
        <ele>54</ele>
        <time>2023-04-25T14:19:50Z</time>
      </trkpt>
      <trkpt lat="49.18479" lon="-0.43639">
        <ele>54.2</ele>
        <time>2023-04-25T14:19:51Z</time>
      </trkpt>
      <trkpt lat="49.18482" lon="-0.4363">
        <ele>54.2</ele>
        <time>2023-04-25T14:19:52Z</time>
      </trkpt>
      <trkpt lat="49.18485" lon="-0.43622">
        <ele>54.2</ele>
        <time>2023-04-25T14:19:53Z</time>
      </trkpt>
      <trkpt lat="49.18488" lon="-0.43613">
        <ele>54.4</ele>
        <time>2023-04-25T14:19:54Z</time>
      </trkpt>
      <trkpt lat="49.18491" lon="-0.43604">
        <ele>54.6</ele>
        <time>2023-04-25T14:19:55Z</time>
      </trkpt>
      <trkpt lat="49.18493" lon="-0.43596">
        <ele>54.8</ele>
        <time>2023-04-25T14:19:56Z</time>
      </trkpt>
      <trkpt lat="49.18496" lon="-0.43587">
        <ele>55</ele>
        <time>2023-04-25T14:19:57Z</time>
      </trkpt>
      <trkpt lat="49.18499" lon="-0.43578">
        <ele>55</ele>
        <time>2023-04-25T14:19:58Z</time>
      </trkpt>
      <trkpt lat="49.18502" lon="-0.4357">
        <ele>54.8</ele>
        <time>2023-04-25T14:19:59Z</time>
      </trkpt>
      <trkpt lat="49.18505" lon="-0.43561">
        <ele>54.6</ele>
        <time>2023-04-25T14:20:00Z</time>
      </trkpt>
      <trkpt lat="49.18508" lon="-0.43552">
        <ele>54.2</ele>
        <time>2023-04-25T14:20:01Z</time>
      </trkpt>
      <trkpt lat="49.1851" lon="-0.43543">
        <ele>54</ele>
        <time>2023-04-25T14:20:02Z</time>
      </trkpt>
      <trkpt lat="49.18513" lon="-0.43535">
        <ele>54</ele>
        <time>2023-04-25T14:20:03Z</time>
      </trkpt>
      <trkpt lat="49.18516" lon="-0.43526">
        <ele>53.8</ele>
        <time>2023-04-25T14:20:04Z</time>
      </trkpt>
      <trkpt lat="49.18519" lon="-0.43518">
        <ele>53.8</ele>
        <time>2023-04-25T14:20:05Z</time>
      </trkpt>
      <trkpt lat="49.18521" lon="-0.43509">
        <ele>53.6</ele>
        <time>2023-04-25T14:20:06Z</time>
      </trkpt>
      <trkpt lat="49.18523" lon="-0.435">
        <ele>53.4</ele>
        <time>2023-04-25T14:20:07Z</time>
      </trkpt>
      <trkpt lat="49.18526" lon="-0.43492">
        <ele>53.4</ele>
        <time>2023-04-25T14:20:08Z</time>
      </trkpt>
      <trkpt lat="49.18528" lon="-0.43483">
        <ele>53.2</ele>
        <time>2023-04-25T14:20:09Z</time>
      </trkpt>
      <trkpt lat="49.1853" lon="-0.43475">
        <ele>53.2</ele>
        <time>2023-04-25T14:20:10Z</time>
      </trkpt>
      <trkpt lat="49.18533" lon="-0.43466">
        <ele>53.2</ele>
        <time>2023-04-25T14:20:11Z</time>
      </trkpt>
      <trkpt lat="49.18535" lon="-0.43457">
        <ele>53.2</ele>
        <time>2023-04-25T14:20:12Z</time>
      </trkpt>
      <trkpt lat="49.18537" lon="-0.43448">
        <ele>53</ele>
        <time>2023-04-25T14:20:13Z</time>
      </trkpt>
      <trkpt lat="49.18539" lon="-0.43439">
        <ele>53</ele>
        <time>2023-04-25T14:20:14Z</time>
      </trkpt>
      <trkpt lat="49.18542" lon="-0.4343">
        <ele>53</ele>
        <time>2023-04-25T14:20:15Z</time>
      </trkpt>
      <trkpt lat="49.18544" lon="-0.43421">
        <ele>53</ele>
        <time>2023-04-25T14:20:16Z</time>
      </trkpt>
      <trkpt lat="49.18546" lon="-0.43412">
        <ele>53</ele>
        <time>2023-04-25T14:20:17Z</time>
      </trkpt>
      <trkpt lat="49.18548" lon="-0.43403">
        <ele>52.8</ele>
        <time>2023-04-25T14:20:18Z</time>
      </trkpt>
      <trkpt lat="49.1855" lon="-0.43394">
        <ele>52.8</ele>
        <time>2023-04-25T14:20:19Z</time>
      </trkpt>
      <trkpt lat="49.18552" lon="-0.43385">
        <ele>52.6</ele>
        <time>2023-04-25T14:20:20Z</time>
      </trkpt>
      <trkpt lat="49.18554" lon="-0.43376">
        <ele>52.6</ele>
        <time>2023-04-25T14:20:21Z</time>
      </trkpt>
      <trkpt lat="49.18555" lon="-0.43367">
        <ele>52.6</ele>
        <time>2023-04-25T14:20:22Z</time>
      </trkpt>
      <trkpt lat="49.18557" lon="-0.43358">
        <ele>52.4</ele>
        <time>2023-04-25T14:20:23Z</time>
      </trkpt>
      <trkpt lat="49.18559" lon="-0.43349">
        <ele>52.2</ele>
        <time>2023-04-25T14:20:24Z</time>
      </trkpt>
      <trkpt lat="49.18561" lon="-0.4334">
        <ele>52.2</ele>
        <time>2023-04-25T14:20:25Z</time>
      </trkpt>
      <trkpt lat="49.18563" lon="-0.43331">
        <ele>52.2</ele>
        <time>2023-04-25T14:20:26Z</time>
      </trkpt>
      <trkpt lat="49.18565" lon="-0.43322">
        <ele>52</ele>
        <time>2023-04-25T14:20:27Z</time>
      </trkpt>
      <trkpt lat="49.18567" lon="-0.43313">
        <ele>52</ele>
        <time>2023-04-25T14:20:28Z</time>
      </trkpt>
      <trkpt lat="49.18569" lon="-0.43303">
        <ele>52</ele>
        <time>2023-04-25T14:20:29Z</time>
      </trkpt>
      <trkpt lat="49.18571" lon="-0.43294">
        <ele>51.8</ele>
        <time>2023-04-25T14:20:30Z</time>
      </trkpt>
      <trkpt lat="49.18573" lon="-0.43285">
        <ele>51.6</ele>
        <time>2023-04-25T14:20:31Z</time>
      </trkpt>
      <trkpt lat="49.18575" lon="-0.43275">
        <ele>51.6</ele>
        <time>2023-04-25T14:20:32Z</time>
      </trkpt>
      <trkpt lat="49.18577" lon="-0.43265">
        <ele>51.2</ele>
        <time>2023-04-25T14:20:33Z</time>
      </trkpt>
      <trkpt lat="49.18579" lon="-0.43256">
        <ele>51.2</ele>
        <time>2023-04-25T14:20:34Z</time>
      </trkpt>
      <trkpt lat="49.18581" lon="-0.43246">
        <ele>51</ele>
        <time>2023-04-25T14:20:35Z</time>
      </trkpt>
      <trkpt lat="49.18583" lon="-0.43237">
        <ele>50.8</ele>
        <time>2023-04-25T14:20:36Z</time>
      </trkpt>
      <trkpt lat="49.18585" lon="-0.43227">
        <ele>50.4</ele>
        <time>2023-04-25T14:20:37Z</time>
      </trkpt>
      <trkpt lat="49.18588" lon="-0.43217">
        <ele>50</ele>
        <time>2023-04-25T14:20:38Z</time>
      </trkpt>
      <trkpt lat="49.1859" lon="-0.43208">
        <ele>50</ele>
        <time>2023-04-25T14:20:39Z</time>
      </trkpt>
      <trkpt lat="49.18592" lon="-0.43198">
        <ele>49.6</ele>
        <time>2023-04-25T14:20:40Z</time>
      </trkpt>
      <trkpt lat="49.18594" lon="-0.43188">
        <ele>49.4</ele>
        <time>2023-04-25T14:20:41Z</time>
      </trkpt>
      <trkpt lat="49.18596" lon="-0.43179">
        <ele>49</ele>
        <time>2023-04-25T14:20:42Z</time>
      </trkpt>
      <trkpt lat="49.18598" lon="-0.43169">
        <ele>49</ele>
        <time>2023-04-25T14:20:43Z</time>
      </trkpt>
      <trkpt lat="49.186" lon="-0.4316">
        <ele>48.8</ele>
        <time>2023-04-25T14:20:44Z</time>
      </trkpt>
      <trkpt lat="49.18602" lon="-0.4315">
        <ele>48.8</ele>
        <time>2023-04-25T14:20:45Z</time>
      </trkpt>
      <trkpt lat="49.18604" lon="-0.4314">
        <ele>48.8</ele>
        <time>2023-04-25T14:20:46Z</time>
      </trkpt>
      <trkpt lat="49.18606" lon="-0.43131">
        <ele>48.6</ele>
        <time>2023-04-25T14:20:47Z</time>
      </trkpt>
      <trkpt lat="49.18608" lon="-0.43121">
        <ele>48.6</ele>
        <time>2023-04-25T14:20:48Z</time>
      </trkpt>
      <trkpt lat="49.1861" lon="-0.43112">
        <ele>48.6</ele>
        <time>2023-04-25T14:20:49Z</time>
      </trkpt>
      <trkpt lat="49.18612" lon="-0.43102">
        <ele>48.4</ele>
        <time>2023-04-25T14:20:50Z</time>
      </trkpt>
      <trkpt lat="49.18614" lon="-0.43093">
        <ele>48.2</ele>
        <time>2023-04-25T14:20:51Z</time>
      </trkpt>
      <trkpt lat="49.18617" lon="-0.43084">
        <ele>48.2</ele>
        <time>2023-04-25T14:20:52Z</time>
      </trkpt>
      <trkpt lat="49.18619" lon="-0.43074">
        <ele>48</ele>
        <time>2023-04-25T14:20:53Z</time>
      </trkpt>
      <trkpt lat="49.18621" lon="-0.43065">
        <ele>48</ele>
        <time>2023-04-25T14:20:54Z</time>
      </trkpt>
      <trkpt lat="49.18623" lon="-0.43055">
        <ele>47.8</ele>
        <time>2023-04-25T14:20:55Z</time>
      </trkpt>
      <trkpt lat="49.18625" lon="-0.43046">
        <ele>47.6</ele>
        <time>2023-04-25T14:20:56Z</time>
      </trkpt>
      <trkpt lat="49.18627" lon="-0.43036">
        <ele>47.4</ele>
        <time>2023-04-25T14:20:57Z</time>
      </trkpt>
      <trkpt lat="49.18629" lon="-0.43027">
        <ele>47.2</ele>
        <time>2023-04-25T14:20:58Z</time>
      </trkpt>
      <trkpt lat="49.18631" lon="-0.43017">
        <ele>47</ele>
        <time>2023-04-25T14:20:59Z</time>
      </trkpt>
      <trkpt lat="49.18633" lon="-0.43008">
        <ele>47</ele>
        <time>2023-04-25T14:21:00Z</time>
      </trkpt>
      <trkpt lat="49.18635" lon="-0.42998">
        <ele>46.8</ele>
        <time>2023-04-25T14:21:01Z</time>
      </trkpt>
      <trkpt lat="49.18637" lon="-0.42989">
        <ele>46.8</ele>
        <time>2023-04-25T14:21:02Z</time>
      </trkpt>
      <trkpt lat="49.18639" lon="-0.4298">
        <ele>46.8</ele>
        <time>2023-04-25T14:21:03Z</time>
      </trkpt>
      <trkpt lat="49.18641" lon="-0.4297">
        <ele>46.6</ele>
        <time>2023-04-25T14:21:04Z</time>
      </trkpt>
      <trkpt lat="49.18643" lon="-0.42961">
        <ele>46.6</ele>
        <time>2023-04-25T14:21:05Z</time>
      </trkpt>
      <trkpt lat="49.18645" lon="-0.42952">
        <ele>46.6</ele>
        <time>2023-04-25T14:21:06Z</time>
      </trkpt>
      <trkpt lat="49.18647" lon="-0.42943">
        <ele>46.6</ele>
        <time>2023-04-25T14:21:07Z</time>
      </trkpt>
      <trkpt lat="49.18648" lon="-0.42934">
        <ele>46.4</ele>
        <time>2023-04-25T14:21:08Z</time>
      </trkpt>
      <trkpt lat="49.1865" lon="-0.42925">
        <ele>46.4</ele>
        <time>2023-04-25T14:21:09Z</time>
      </trkpt>
      <trkpt lat="49.18652" lon="-0.42916">
        <ele>46.4</ele>
        <time>2023-04-25T14:21:10Z</time>
      </trkpt>
      <trkpt lat="49.18654" lon="-0.42906">
        <ele>46.4</ele>
        <time>2023-04-25T14:21:11Z</time>
      </trkpt>
      <trkpt lat="49.18656" lon="-0.42897">
        <ele>46.4</ele>
        <time>2023-04-25T14:21:12Z</time>
      </trkpt>
      <trkpt lat="49.18658" lon="-0.42888">
        <ele>46.6</ele>
        <time>2023-04-25T14:21:13Z</time>
      </trkpt>
      <trkpt lat="49.1866" lon="-0.42878">
        <ele>46.6</ele>
        <time>2023-04-25T14:21:14Z</time>
      </trkpt>
      <trkpt lat="49.18662" lon="-0.42869">
        <ele>46.6</ele>
        <time>2023-04-25T14:21:15Z</time>
      </trkpt>
      <trkpt lat="49.18664" lon="-0.42859">
        <ele>46.8</ele>
        <time>2023-04-25T14:21:16Z</time>
      </trkpt>
      <trkpt lat="49.18666" lon="-0.42849">
        <ele>46.8</ele>
        <time>2023-04-25T14:21:17Z</time>
      </trkpt>
      <trkpt lat="49.18668" lon="-0.42839">
        <ele>47</ele>
        <time>2023-04-25T14:21:18Z</time>
      </trkpt>
      <trkpt lat="49.1867" lon="-0.42829">
        <ele>47</ele>
        <time>2023-04-25T14:21:19Z</time>
      </trkpt>
      <trkpt lat="49.18672" lon="-0.42819">
        <ele>47</ele>
        <time>2023-04-25T14:21:20Z</time>
      </trkpt>
      <trkpt lat="49.18674" lon="-0.42809">
        <ele>46.8</ele>
        <time>2023-04-25T14:21:21Z</time>
      </trkpt>
      <trkpt lat="49.18677" lon="-0.42799">
        <ele>46.8</ele>
        <time>2023-04-25T14:21:22Z</time>
      </trkpt>
      <trkpt lat="49.18679" lon="-0.42788">
        <ele>46.8</ele>
        <time>2023-04-25T14:21:23Z</time>
      </trkpt>
      <trkpt lat="49.18681" lon="-0.42778">
        <ele>46.6</ele>
        <time>2023-04-25T14:21:24Z</time>
      </trkpt>
      <trkpt lat="49.18683" lon="-0.42767">
        <ele>46.6</ele>
        <time>2023-04-25T14:21:25Z</time>
      </trkpt>
      <trkpt lat="49.18685" lon="-0.42756">
        <ele>46.6</ele>
        <time>2023-04-25T14:21:26Z</time>
      </trkpt>
      <trkpt lat="49.18687" lon="-0.42746">
        <ele>46.8</ele>
        <time>2023-04-25T14:21:27Z</time>
      </trkpt>
      <trkpt lat="49.18689" lon="-0.42736">
        <ele>47</ele>
        <time>2023-04-25T14:21:28Z</time>
      </trkpt>
      <trkpt lat="49.18691" lon="-0.42725">
        <ele>47.4</ele>
        <time>2023-04-25T14:21:29Z</time>
      </trkpt>
      <trkpt lat="49.18693" lon="-0.42715">
        <ele>47.8</ele>
        <time>2023-04-25T14:21:30Z</time>
      </trkpt>
      <trkpt lat="49.18695" lon="-0.42705">
        <ele>48</ele>
        <time>2023-04-25T14:21:31Z</time>
      </trkpt>
      <trkpt lat="49.18696" lon="-0.42695">
        <ele>48.4</ele>
        <time>2023-04-25T14:21:32Z</time>
      </trkpt>
      <trkpt lat="49.18698" lon="-0.42686">
        <ele>48.8</ele>
        <time>2023-04-25T14:21:33Z</time>
      </trkpt>
      <trkpt lat="49.18699" lon="-0.42676">
        <ele>49</ele>
        <time>2023-04-25T14:21:34Z</time>
      </trkpt>
      <trkpt lat="49.187" lon="-0.42667">
        <ele>49.2</ele>
        <time>2023-04-25T14:21:35Z</time>
      </trkpt>
      <trkpt lat="49.18701" lon="-0.42657">
        <ele>49.8</ele>
        <time>2023-04-25T14:21:36Z</time>
      </trkpt>
      <trkpt lat="49.18702" lon="-0.42648">
        <ele>50.2</ele>
        <time>2023-04-25T14:21:37Z</time>
      </trkpt>
      <trkpt lat="49.18703" lon="-0.42639">
        <ele>50.6</ele>
        <time>2023-04-25T14:21:38Z</time>
      </trkpt>
      <trkpt lat="49.18704" lon="-0.4263">
        <ele>51</ele>
        <time>2023-04-25T14:21:39Z</time>
      </trkpt>
      <trkpt lat="49.18705" lon="-0.42622">
        <ele>51.4</ele>
        <time>2023-04-25T14:21:40Z</time>
      </trkpt>
      <trkpt lat="49.18705" lon="-0.42613">
        <ele>51.8</ele>
        <time>2023-04-25T14:21:41Z</time>
      </trkpt>
      <trkpt lat="49.18706" lon="-0.42605">
        <ele>52</ele>
        <time>2023-04-25T14:21:42Z</time>
      </trkpt>
      <trkpt lat="49.18706" lon="-0.42597">
        <ele>52.4</ele>
        <time>2023-04-25T14:21:43Z</time>
      </trkpt>
      <trkpt lat="49.18706" lon="-0.42589">
        <ele>52.8</ele>
        <time>2023-04-25T14:21:44Z</time>
      </trkpt>
      <trkpt lat="49.18707" lon="-0.4258">
        <ele>53</ele>
        <time>2023-04-25T14:21:45Z</time>
      </trkpt>
      <trkpt lat="49.18707" lon="-0.42572">
        <ele>53</ele>
        <time>2023-04-25T14:21:46Z</time>
      </trkpt>
      <trkpt lat="49.18708" lon="-0.42564">
        <ele>53.2</ele>
        <time>2023-04-25T14:21:47Z</time>
      </trkpt>
      <trkpt lat="49.18708" lon="-0.42555">
        <ele>53.2</ele>
        <time>2023-04-25T14:21:48Z</time>
      </trkpt>
      <trkpt lat="49.18709" lon="-0.42546">
        <ele>53.4</ele>
        <time>2023-04-25T14:21:49Z</time>
      </trkpt>
      <trkpt lat="49.18709" lon="-0.42538">
        <ele>53.6</ele>
        <time>2023-04-25T14:21:50Z</time>
      </trkpt>
      <trkpt lat="49.1871" lon="-0.42529">
        <ele>53.8</ele>
        <time>2023-04-25T14:21:51Z</time>
      </trkpt>
      <trkpt lat="49.1871" lon="-0.42519">
        <ele>53.8</ele>
        <time>2023-04-25T14:21:52Z</time>
      </trkpt>
      <trkpt lat="49.18711" lon="-0.4251">
        <ele>54</ele>
        <time>2023-04-25T14:21:53Z</time>
      </trkpt>
      <trkpt lat="49.18711" lon="-0.425">
        <ele>54</ele>
        <time>2023-04-25T14:21:54Z</time>
      </trkpt>
      <trkpt lat="49.18711" lon="-0.4249">
        <ele>54</ele>
        <time>2023-04-25T14:21:55Z</time>
      </trkpt>
      <trkpt lat="49.18712" lon="-0.4248">
        <ele>53.8</ele>
        <time>2023-04-25T14:21:56Z</time>
      </trkpt>
      <trkpt lat="49.18712" lon="-0.4247">
        <ele>53.8</ele>
        <time>2023-04-25T14:21:57Z</time>
      </trkpt>
      <trkpt lat="49.18712" lon="-0.4246">
        <ele>53.6</ele>
        <time>2023-04-25T14:21:58Z</time>
      </trkpt>
      <trkpt lat="49.18712" lon="-0.4245">
        <ele>53.6</ele>
        <time>2023-04-25T14:21:59Z</time>
      </trkpt>
      <trkpt lat="49.18713" lon="-0.4244">
        <ele>53.4</ele>
        <time>2023-04-25T14:22:00Z</time>
      </trkpt>
      <trkpt lat="49.18713" lon="-0.4243">
        <ele>53.2</ele>
        <time>2023-04-25T14:22:01Z</time>
      </trkpt>
      <trkpt lat="49.18714" lon="-0.42419">
        <ele>53.2</ele>
        <time>2023-04-25T14:22:02Z</time>
      </trkpt>
      <trkpt lat="49.18715" lon="-0.42408">
        <ele>53.2</ele>
        <time>2023-04-25T14:22:03Z</time>
      </trkpt>
      <trkpt lat="49.18715" lon="-0.42397">
        <ele>53.2</ele>
        <time>2023-04-25T14:22:04Z</time>
      </trkpt>
      <trkpt lat="49.18716" lon="-0.42386">
        <ele>53.2</ele>
        <time>2023-04-25T14:22:05Z</time>
      </trkpt>
      <trkpt lat="49.18716" lon="-0.42376">
        <ele>53.4</ele>
        <time>2023-04-25T14:22:06Z</time>
      </trkpt>
      <trkpt lat="49.18716" lon="-0.42365">
        <ele>53.4</ele>
        <time>2023-04-25T14:22:07Z</time>
      </trkpt>
      <trkpt lat="49.18716" lon="-0.42356">
        <ele>53.6</ele>
        <time>2023-04-25T14:22:08Z</time>
      </trkpt>
      <trkpt lat="49.18716" lon="-0.42346">
        <ele>53.6</ele>
        <time>2023-04-25T14:22:09Z</time>
      </trkpt>
      <trkpt lat="49.18716" lon="-0.42337">
        <ele>53.6</ele>
        <time>2023-04-25T14:22:10Z</time>
      </trkpt>
      <trkpt lat="49.18716" lon="-0.42328">
        <ele>53.6</ele>
        <time>2023-04-25T14:22:11Z</time>
      </trkpt>
      <trkpt lat="49.18717" lon="-0.42319">
        <ele>53.6</ele>
        <time>2023-04-25T14:22:12Z</time>
      </trkpt>
      <trkpt lat="49.18717" lon="-0.42312">
        <ele>53.6</ele>
        <time>2023-04-25T14:22:13Z</time>
      </trkpt>
      <trkpt lat="49.18717" lon="-0.42304">
        <ele>53.6</ele>
        <time>2023-04-25T14:22:14Z</time>
      </trkpt>
      <trkpt lat="49.18717" lon="-0.42297">
        <ele>53.6</ele>
        <time>2023-04-25T14:22:15Z</time>
      </trkpt>
      <trkpt lat="49.18717" lon="-0.42291">
        <ele>53.6</ele>
        <time>2023-04-25T14:22:16Z</time>
      </trkpt>
      <trkpt lat="49.18717" lon="-0.42286">
        <ele>53.6</ele>
        <time>2023-04-25T14:22:17Z</time>
      </trkpt>
      <trkpt lat="49.18717" lon="-0.42281">
        <ele>53.6</ele>
        <time>2023-04-25T14:22:18Z</time>
      </trkpt>
      <trkpt lat="49.18717" lon="-0.42276">
        <ele>53.6</ele>
        <time>2023-04-25T14:22:19Z</time>
      </trkpt>
      <trkpt lat="49.18717" lon="-0.42272">
        <ele>53.6</ele>
        <time>2023-04-25T14:22:20Z</time>
      </trkpt>
      <trkpt lat="49.18716" lon="-0.42267">
        <ele>53.6</ele>
        <time>2023-04-25T14:22:21Z</time>
      </trkpt>
      <trkpt lat="49.18716" lon="-0.42261">
        <ele>53.6</ele>
        <time>2023-04-25T14:22:22Z</time>
      </trkpt>
      <trkpt lat="49.18716" lon="-0.42256">
        <ele>53.6</ele>
        <time>2023-04-25T14:22:23Z</time>
      </trkpt>
      <trkpt lat="49.18716" lon="-0.42249">
        <ele>53.6</ele>
        <time>2023-04-25T14:22:24Z</time>
      </trkpt>
      <trkpt lat="49.18716" lon="-0.42241">
        <ele>53.6</ele>
        <time>2023-04-25T14:22:25Z</time>
      </trkpt>
      <trkpt lat="49.18716" lon="-0.42233">
        <ele>53.6</ele>
        <time>2023-04-25T14:22:26Z</time>
      </trkpt>
      <trkpt lat="49.18716" lon="-0.42224">
        <ele>53.6</ele>
        <time>2023-04-25T14:22:27Z</time>
      </trkpt>
      <trkpt lat="49.18716" lon="-0.42215">
        <ele>53.6</ele>
        <time>2023-04-25T14:22:28Z</time>
      </trkpt>
      <trkpt lat="49.18716" lon="-0.42206">
        <ele>53.6</ele>
        <time>2023-04-25T14:22:29Z</time>
      </trkpt>
      <trkpt lat="49.18716" lon="-0.42196">
        <ele>53.6</ele>
        <time>2023-04-25T14:22:30Z</time>
      </trkpt>
      <trkpt lat="49.18716" lon="-0.42187">
        <ele>53.6</ele>
        <time>2023-04-25T14:22:31Z</time>
      </trkpt>
      <trkpt lat="49.18716" lon="-0.42178">
        <ele>53.6</ele>
        <time>2023-04-25T14:22:32Z</time>
      </trkpt>
      <trkpt lat="49.18716" lon="-0.4217">
        <ele>53.6</ele>
        <time>2023-04-25T14:22:33Z</time>
      </trkpt>
      <trkpt lat="49.18717" lon="-0.42161">
        <ele>53.6</ele>
        <time>2023-04-25T14:22:34Z</time>
      </trkpt>
      <trkpt lat="49.18717" lon="-0.42152">
        <ele>53.6</ele>
        <time>2023-04-25T14:22:35Z</time>
      </trkpt>
      <trkpt lat="49.18717" lon="-0.42143">
        <ele>53.6</ele>
        <time>2023-04-25T14:22:36Z</time>
      </trkpt>
      <trkpt lat="49.18717" lon="-0.42135">
        <ele>53.6</ele>
        <time>2023-04-25T14:22:37Z</time>
      </trkpt>
      <trkpt lat="49.18717" lon="-0.42126">
        <ele>53.6</ele>
        <time>2023-04-25T14:22:38Z</time>
      </trkpt>
      <trkpt lat="49.18717" lon="-0.42117">
        <ele>53.6</ele>
        <time>2023-04-25T14:22:39Z</time>
      </trkpt>
      <trkpt lat="49.18717" lon="-0.42108">
        <ele>53.6</ele>
        <time>2023-04-25T14:22:40Z</time>
      </trkpt>
      <trkpt lat="49.18717" lon="-0.42099">
        <ele>53.6</ele>
        <time>2023-04-25T14:22:41Z</time>
      </trkpt>
      <trkpt lat="49.18717" lon="-0.4209">
        <ele>53.6</ele>
        <time>2023-04-25T14:22:42Z</time>
      </trkpt>
      <trkpt lat="49.18718" lon="-0.42082">
        <ele>53.6</ele>
        <time>2023-04-25T14:22:43Z</time>
      </trkpt>
      <trkpt lat="49.18718" lon="-0.42073">
        <ele>53.6</ele>
        <time>2023-04-25T14:22:44Z</time>
      </trkpt>
      <trkpt lat="49.18718" lon="-0.42065">
        <ele>53.6</ele>
        <time>2023-04-25T14:22:45Z</time>
      </trkpt>
      <trkpt lat="49.18718" lon="-0.42057">
        <ele>53.8</ele>
        <time>2023-04-25T14:22:46Z</time>
      </trkpt>
      <trkpt lat="49.18719" lon="-0.42048">
        <ele>53.8</ele>
        <time>2023-04-25T14:22:47Z</time>
      </trkpt>
      <trkpt lat="49.18719" lon="-0.4204">
        <ele>53.8</ele>
        <time>2023-04-25T14:22:48Z</time>
      </trkpt>
      <trkpt lat="49.18719" lon="-0.42032">
        <ele>54</ele>
        <time>2023-04-25T14:22:49Z</time>
      </trkpt>
      <trkpt lat="49.18719" lon="-0.42024">
        <ele>54</ele>
        <time>2023-04-25T14:22:50Z</time>
      </trkpt>
      <trkpt lat="49.1872" lon="-0.42015">
        <ele>54</ele>
        <time>2023-04-25T14:22:51Z</time>
      </trkpt>
      <trkpt lat="49.1872" lon="-0.42007">
        <ele>54</ele>
        <time>2023-04-25T14:22:52Z</time>
      </trkpt>
      <trkpt lat="49.1872" lon="-0.41999">
        <ele>54.2</ele>
        <time>2023-04-25T14:22:53Z</time>
      </trkpt>
      <trkpt lat="49.1872" lon="-0.41991">
        <ele>54.2</ele>
        <time>2023-04-25T14:22:54Z</time>
      </trkpt>
      <trkpt lat="49.1872" lon="-0.41983">
        <ele>54.2</ele>
        <time>2023-04-25T14:22:55Z</time>
      </trkpt>
      <trkpt lat="49.18721" lon="-0.41975">
        <ele>54</ele>
        <time>2023-04-25T14:22:56Z</time>
      </trkpt>
      <trkpt lat="49.18721" lon="-0.41968">
        <ele>54</ele>
        <time>2023-04-25T14:22:57Z</time>
      </trkpt>
      <trkpt lat="49.18721" lon="-0.4196">
        <ele>54</ele>
        <time>2023-04-25T14:22:58Z</time>
      </trkpt>
      <trkpt lat="49.18721" lon="-0.41952">
        <ele>54</ele>
        <time>2023-04-25T14:22:59Z</time>
      </trkpt>
      <trkpt lat="49.18721" lon="-0.41945">
        <ele>54</ele>
        <time>2023-04-25T14:23:00Z</time>
      </trkpt>
      <trkpt lat="49.18721" lon="-0.41937">
        <ele>54</ele>
        <time>2023-04-25T14:23:01Z</time>
      </trkpt>
      <trkpt lat="49.18721" lon="-0.4193">
        <ele>54</ele>
        <time>2023-04-25T14:23:02Z</time>
      </trkpt>
      <trkpt lat="49.18722" lon="-0.41922">
        <ele>54</ele>
        <time>2023-04-25T14:23:03Z</time>
      </trkpt>
      <trkpt lat="49.18722" lon="-0.41915">
        <ele>54</ele>
        <time>2023-04-25T14:23:04Z</time>
      </trkpt>
      <trkpt lat="49.18722" lon="-0.41907">
        <ele>54.2</ele>
        <time>2023-04-25T14:23:05Z</time>
      </trkpt>
      <trkpt lat="49.18722" lon="-0.419">
        <ele>54.2</ele>
        <time>2023-04-25T14:23:06Z</time>
      </trkpt>
      <trkpt lat="49.18722" lon="-0.41892">
        <ele>54.6</ele>
        <time>2023-04-25T14:23:07Z</time>
      </trkpt>
      <trkpt lat="49.18722" lon="-0.41885">
        <ele>54.6</ele>
        <time>2023-04-25T14:23:08Z</time>
      </trkpt>
      <trkpt lat="49.18722" lon="-0.41878">
        <ele>54.8</ele>
        <time>2023-04-25T14:23:09Z</time>
      </trkpt>
      <trkpt lat="49.18722" lon="-0.4187">
        <ele>55</ele>
        <time>2023-04-25T14:23:10Z</time>
      </trkpt>
      <trkpt lat="49.18723" lon="-0.41863">
        <ele>55</ele>
        <time>2023-04-25T14:23:11Z</time>
      </trkpt>
      <trkpt lat="49.18723" lon="-0.41856">
        <ele>55.2</ele>
        <time>2023-04-25T14:23:12Z</time>
      </trkpt>
      <trkpt lat="49.18723" lon="-0.41848">
        <ele>55.4</ele>
        <time>2023-04-25T14:23:13Z</time>
      </trkpt>
      <trkpt lat="49.18723" lon="-0.41841">
        <ele>55.6</ele>
        <time>2023-04-25T14:23:14Z</time>
      </trkpt>
      <trkpt lat="49.18723" lon="-0.41834">
        <ele>55.8</ele>
        <time>2023-04-25T14:23:15Z</time>
      </trkpt>
      <trkpt lat="49.18723" lon="-0.41827">
        <ele>55.8</ele>
        <time>2023-04-25T14:23:16Z</time>
      </trkpt>
      <trkpt lat="49.18723" lon="-0.41819">
        <ele>55.8</ele>
        <time>2023-04-25T14:23:17Z</time>
      </trkpt>
      <trkpt lat="49.18724" lon="-0.41812">
        <ele>55.8</ele>
        <time>2023-04-25T14:23:18Z</time>
      </trkpt>
      <trkpt lat="49.18724" lon="-0.41805">
        <ele>55.8</ele>
        <time>2023-04-25T14:23:19Z</time>
      </trkpt>
      <trkpt lat="49.18724" lon="-0.41798">
        <ele>55.8</ele>
        <time>2023-04-25T14:23:20Z</time>
      </trkpt>
      <trkpt lat="49.18724" lon="-0.4179">
        <ele>55.8</ele>
        <time>2023-04-25T14:23:21Z</time>
      </trkpt>
      <trkpt lat="49.18724" lon="-0.41783">
        <ele>55.8</ele>
        <time>2023-04-25T14:23:22Z</time>
      </trkpt>
      <trkpt lat="49.18724" lon="-0.41776">
        <ele>55.6</ele>
        <time>2023-04-25T14:23:23Z</time>
      </trkpt>
      <trkpt lat="49.18725" lon="-0.41768">
        <ele>55.6</ele>
        <time>2023-04-25T14:23:24Z</time>
      </trkpt>
      <trkpt lat="49.18725" lon="-0.41761">
        <ele>55.6</ele>
        <time>2023-04-25T14:23:25Z</time>
      </trkpt>
      <trkpt lat="49.18725" lon="-0.41753">
        <ele>55.6</ele>
        <time>2023-04-25T14:23:26Z</time>
      </trkpt>
      <trkpt lat="49.18725" lon="-0.41746">
        <ele>55.6</ele>
        <time>2023-04-25T14:23:27Z</time>
      </trkpt>
      <trkpt lat="49.18725" lon="-0.41739">
        <ele>55.6</ele>
        <time>2023-04-25T14:23:28Z</time>
      </trkpt>
      <trkpt lat="49.18725" lon="-0.41731">
        <ele>55.6</ele>
        <time>2023-04-25T14:23:29Z</time>
      </trkpt>
      <trkpt lat="49.18725" lon="-0.41724">
        <ele>55.6</ele>
        <time>2023-04-25T14:23:30Z</time>
      </trkpt>
      <trkpt lat="49.18725" lon="-0.41717">
        <ele>55.6</ele>
        <time>2023-04-25T14:23:31Z</time>
      </trkpt>
      <trkpt lat="49.18726" lon="-0.41709">
        <ele>55.8</ele>
        <time>2023-04-25T14:23:32Z</time>
      </trkpt>
      <trkpt lat="49.18726" lon="-0.41702">
        <ele>55.8</ele>
        <time>2023-04-25T14:23:33Z</time>
      </trkpt>
      <trkpt lat="49.18726" lon="-0.41695">
        <ele>55.8</ele>
        <time>2023-04-25T14:23:34Z</time>
      </trkpt>
      <trkpt lat="49.18726" lon="-0.41688">
        <ele>55.8</ele>
        <time>2023-04-25T14:23:35Z</time>
      </trkpt>
      <trkpt lat="49.18726" lon="-0.4168">
        <ele>55.8</ele>
        <time>2023-04-25T14:23:36Z</time>
      </trkpt>
      <trkpt lat="49.18726" lon="-0.41673">
        <ele>55.8</ele>
        <time>2023-04-25T14:23:37Z</time>
      </trkpt>
      <trkpt lat="49.18726" lon="-0.41666">
        <ele>55.8</ele>
        <time>2023-04-25T14:23:38Z</time>
      </trkpt>
      <trkpt lat="49.18726" lon="-0.41659">
        <ele>55.8</ele>
        <time>2023-04-25T14:23:39Z</time>
      </trkpt>
      <trkpt lat="49.18727" lon="-0.41651">
        <ele>55.8</ele>
        <time>2023-04-25T14:23:40Z</time>
      </trkpt>
      <trkpt lat="49.18727" lon="-0.41644">
        <ele>55.8</ele>
        <time>2023-04-25T14:23:41Z</time>
      </trkpt>
      <trkpt lat="49.18727" lon="-0.41637">
        <ele>55.8</ele>
        <time>2023-04-25T14:23:42Z</time>
      </trkpt>
      <trkpt lat="49.18727" lon="-0.41629">
        <ele>55.8</ele>
        <time>2023-04-25T14:23:43Z</time>
      </trkpt>
      <trkpt lat="49.18727" lon="-0.41622">
        <ele>55.8</ele>
        <time>2023-04-25T14:23:44Z</time>
      </trkpt>
      <trkpt lat="49.18727" lon="-0.41615">
        <ele>55.8</ele>
        <time>2023-04-25T14:23:45Z</time>
      </trkpt>
      <trkpt lat="49.18727" lon="-0.41607">
        <ele>55.8</ele>
        <time>2023-04-25T14:23:46Z</time>
      </trkpt>
      <trkpt lat="49.18727" lon="-0.416">
        <ele>55.8</ele>
        <time>2023-04-25T14:23:47Z</time>
      </trkpt>
      <trkpt lat="49.18728" lon="-0.41592">
        <ele>55.8</ele>
        <time>2023-04-25T14:23:48Z</time>
      </trkpt>
      <trkpt lat="49.18728" lon="-0.41585">
        <ele>55.8</ele>
        <time>2023-04-25T14:23:49Z</time>
      </trkpt>
      <trkpt lat="49.18728" lon="-0.41578">
        <ele>56</ele>
        <time>2023-04-25T14:23:50Z</time>
      </trkpt>
      <trkpt lat="49.18728" lon="-0.4157">
        <ele>56</ele>
        <time>2023-04-25T14:23:51Z</time>
      </trkpt>
      <trkpt lat="49.18728" lon="-0.41562">
        <ele>56</ele>
        <time>2023-04-25T14:23:52Z</time>
      </trkpt>
      <trkpt lat="49.18728" lon="-0.41555">
        <ele>56.2</ele>
        <time>2023-04-25T14:23:53Z</time>
      </trkpt>
      <trkpt lat="49.18728" lon="-0.41547">
        <ele>56.2</ele>
        <time>2023-04-25T14:23:54Z</time>
      </trkpt>
      <trkpt lat="49.18728" lon="-0.41539">
        <ele>56.2</ele>
        <time>2023-04-25T14:23:55Z</time>
      </trkpt>
      <trkpt lat="49.18728" lon="-0.41532">
        <ele>56.4</ele>
        <time>2023-04-25T14:23:56Z</time>
      </trkpt>
      <trkpt lat="49.18729" lon="-0.41524">
        <ele>56.6</ele>
        <time>2023-04-25T14:23:57Z</time>
      </trkpt>
      <trkpt lat="49.18729" lon="-0.41516">
        <ele>56.6</ele>
        <time>2023-04-25T14:23:58Z</time>
      </trkpt>
      <trkpt lat="49.18729" lon="-0.41508">
        <ele>56.6</ele>
        <time>2023-04-25T14:23:59Z</time>
      </trkpt>
      <trkpt lat="49.18729" lon="-0.415">
        <ele>56.8</ele>
        <time>2023-04-25T14:24:00Z</time>
      </trkpt>
      <trkpt lat="49.18729" lon="-0.41492">
        <ele>56.8</ele>
        <time>2023-04-25T14:24:01Z</time>
      </trkpt>
      <trkpt lat="49.18729" lon="-0.41485">
        <ele>56.8</ele>
        <time>2023-04-25T14:24:02Z</time>
      </trkpt>
      <trkpt lat="49.18729" lon="-0.41477">
        <ele>56.8</ele>
        <time>2023-04-25T14:24:03Z</time>
      </trkpt>
      <trkpt lat="49.18729" lon="-0.41469">
        <ele>56.8</ele>
        <time>2023-04-25T14:24:04Z</time>
      </trkpt>
      <trkpt lat="49.18729" lon="-0.41461">
        <ele>56.8</ele>
        <time>2023-04-25T14:24:05Z</time>
      </trkpt>
      <trkpt lat="49.1873" lon="-0.41453">
        <ele>56.8</ele>
        <time>2023-04-25T14:24:06Z</time>
      </trkpt>
      <trkpt lat="49.1873" lon="-0.41445">
        <ele>56.8</ele>
        <time>2023-04-25T14:24:07Z</time>
      </trkpt>
      <trkpt lat="49.1873" lon="-0.41437">
        <ele>56.8</ele>
        <time>2023-04-25T14:24:08Z</time>
      </trkpt>
      <trkpt lat="49.1873" lon="-0.41429">
        <ele>56.8</ele>
        <time>2023-04-25T14:24:09Z</time>
      </trkpt>
      <trkpt lat="49.1873" lon="-0.41421">
        <ele>57</ele>
        <time>2023-04-25T14:24:10Z</time>
      </trkpt>
      <trkpt lat="49.1873" lon="-0.41413">
        <ele>56.8</ele>
        <time>2023-04-25T14:24:11Z</time>
      </trkpt>
      <trkpt lat="49.1873" lon="-0.41405">
        <ele>56.6</ele>
        <time>2023-04-25T14:24:12Z</time>
      </trkpt>
      <trkpt lat="49.18731" lon="-0.41397">
        <ele>56.6</ele>
        <time>2023-04-25T14:24:13Z</time>
      </trkpt>
      <trkpt lat="49.18731" lon="-0.41389">
        <ele>56.2</ele>
        <time>2023-04-25T14:24:14Z</time>
      </trkpt>
      <trkpt lat="49.18731" lon="-0.41381">
        <ele>56.2</ele>
        <time>2023-04-25T14:24:15Z</time>
      </trkpt>
      <trkpt lat="49.18731" lon="-0.41373">
        <ele>56</ele>
        <time>2023-04-25T14:24:16Z</time>
      </trkpt>
      <trkpt lat="49.18731" lon="-0.41364">
        <ele>56</ele>
        <time>2023-04-25T14:24:17Z</time>
      </trkpt>
      <trkpt lat="49.18731" lon="-0.41356">
        <ele>55.8</ele>
        <time>2023-04-25T14:24:18Z</time>
      </trkpt>
      <trkpt lat="49.18732" lon="-0.41348">
        <ele>55.6</ele>
        <time>2023-04-25T14:24:19Z</time>
      </trkpt>
      <trkpt lat="49.18732" lon="-0.41339">
        <ele>55.4</ele>
        <time>2023-04-25T14:24:20Z</time>
      </trkpt>
      <trkpt lat="49.18732" lon="-0.4133">
        <ele>55.2</ele>
        <time>2023-04-25T14:24:21Z</time>
      </trkpt>
      <trkpt lat="49.18732" lon="-0.41322">
        <ele>55.4</ele>
        <time>2023-04-25T14:24:22Z</time>
      </trkpt>
      <trkpt lat="49.18732" lon="-0.41313">
        <ele>55.6</ele>
        <time>2023-04-25T14:24:23Z</time>
      </trkpt>
      <trkpt lat="49.18732" lon="-0.41304">
        <ele>55.6</ele>
        <time>2023-04-25T14:24:24Z</time>
      </trkpt>
      <trkpt lat="49.18732" lon="-0.41295">
        <ele>55.8</ele>
        <time>2023-04-25T14:24:25Z</time>
      </trkpt>
      <trkpt lat="49.18732" lon="-0.41286">
        <ele>55.8</ele>
        <time>2023-04-25T14:24:26Z</time>
      </trkpt>
      <trkpt lat="49.18732" lon="-0.41277">
        <ele>56</ele>
        <time>2023-04-25T14:24:27Z</time>
      </trkpt>
      <trkpt lat="49.18732" lon="-0.41268">
        <ele>56</ele>
        <time>2023-04-25T14:24:28Z</time>
      </trkpt>
      <trkpt lat="49.18732" lon="-0.41259">
        <ele>56</ele>
        <time>2023-04-25T14:24:29Z</time>
      </trkpt>
      <trkpt lat="49.18732" lon="-0.4125">
        <ele>56</ele>
        <time>2023-04-25T14:24:30Z</time>
      </trkpt>
      <trkpt lat="49.18732" lon="-0.41241">
        <ele>56</ele>
        <time>2023-04-25T14:24:31Z</time>
      </trkpt>
      <trkpt lat="49.18732" lon="-0.41232">
        <ele>56</ele>
        <time>2023-04-25T14:24:32Z</time>
      </trkpt>
      <trkpt lat="49.18732" lon="-0.41223">
        <ele>55.8</ele>
        <time>2023-04-25T14:24:33Z</time>
      </trkpt>
      <trkpt lat="49.18732" lon="-0.41214">
        <ele>55.6</ele>
        <time>2023-04-25T14:24:34Z</time>
      </trkpt>
      <trkpt lat="49.18732" lon="-0.41205">
        <ele>55.4</ele>
        <time>2023-04-25T14:24:35Z</time>
      </trkpt>
      <trkpt lat="49.18732" lon="-0.41196">
        <ele>55.2</ele>
        <time>2023-04-25T14:24:36Z</time>
      </trkpt>
      <trkpt lat="49.18732" lon="-0.41187">
        <ele>55.2</ele>
        <time>2023-04-25T14:24:37Z</time>
      </trkpt>
      <trkpt lat="49.18731" lon="-0.41178">
        <ele>55</ele>
        <time>2023-04-25T14:24:38Z</time>
      </trkpt>
      <trkpt lat="49.18731" lon="-0.41168">
        <ele>55</ele>
        <time>2023-04-25T14:24:39Z</time>
      </trkpt>
      <trkpt lat="49.18729" lon="-0.4116">
        <ele>54.8</ele>
        <time>2023-04-25T14:24:40Z</time>
      </trkpt>
      <trkpt lat="49.18728" lon="-0.41151">
        <ele>54.6</ele>
        <time>2023-04-25T14:24:41Z</time>
      </trkpt>
      <trkpt lat="49.18726" lon="-0.41143">
        <ele>54.2</ele>
        <time>2023-04-25T14:24:42Z</time>
      </trkpt>
      <trkpt lat="49.18725" lon="-0.41134">
        <ele>54</ele>
        <time>2023-04-25T14:24:43Z</time>
      </trkpt>
      <trkpt lat="49.18722" lon="-0.41126">
        <ele>53.8</ele>
        <time>2023-04-25T14:24:44Z</time>
      </trkpt>
      <trkpt lat="49.18721" lon="-0.41118">
        <ele>53.6</ele>
        <time>2023-04-25T14:24:45Z</time>
      </trkpt>
      <trkpt lat="49.18719" lon="-0.41111">
        <ele>53.2</ele>
        <time>2023-04-25T14:24:46Z</time>
      </trkpt>
      <trkpt lat="49.18717" lon="-0.41104">
        <ele>53</ele>
        <time>2023-04-25T14:24:47Z</time>
      </trkpt>
      <trkpt lat="49.18715" lon="-0.41097">
        <ele>52.8</ele>
        <time>2023-04-25T14:24:48Z</time>
      </trkpt>
      <trkpt lat="49.18713" lon="-0.4109">
        <ele>52.4</ele>
        <time>2023-04-25T14:24:49Z</time>
      </trkpt>
      <trkpt lat="49.1871" lon="-0.41083">
        <ele>52.2</ele>
        <time>2023-04-25T14:24:50Z</time>
      </trkpt>
      <trkpt lat="49.18708" lon="-0.41075">
        <ele>52</ele>
        <time>2023-04-25T14:24:51Z</time>
      </trkpt>
      <trkpt lat="49.18707" lon="-0.41066">
        <ele>52</ele>
        <time>2023-04-25T14:24:52Z</time>
      </trkpt>
      <trkpt lat="49.18708" lon="-0.41058">
        <ele>52</ele>
        <time>2023-04-25T14:24:53Z</time>
      </trkpt>
      <trkpt lat="49.1871" lon="-0.4105">
        <ele>52.4</ele>
        <time>2023-04-25T14:24:54Z</time>
      </trkpt>
      <trkpt lat="49.18714" lon="-0.41043">
        <ele>52.8</ele>
        <time>2023-04-25T14:24:55Z</time>
      </trkpt>
      <trkpt lat="49.18718" lon="-0.41037">
        <ele>53.2</ele>
        <time>2023-04-25T14:24:56Z</time>
      </trkpt>
      <trkpt lat="49.18723" lon="-0.41033">
        <ele>53.8</ele>
        <time>2023-04-25T14:24:57Z</time>
      </trkpt>
      <trkpt lat="49.18728" lon="-0.41027">
        <ele>54.2</ele>
        <time>2023-04-25T14:24:58Z</time>
      </trkpt>
      <trkpt lat="49.18731" lon="-0.41021">
        <ele>54.6</ele>
        <time>2023-04-25T14:24:59Z</time>
      </trkpt>
      <trkpt lat="49.18733" lon="-0.41013">
        <ele>55</ele>
        <time>2023-04-25T14:25:00Z</time>
      </trkpt>
      <trkpt lat="49.18735" lon="-0.41005">
        <ele>55.2</ele>
        <time>2023-04-25T14:25:01Z</time>
      </trkpt>
      <trkpt lat="49.18735" lon="-0.40997">
        <ele>55.2</ele>
        <time>2023-04-25T14:25:02Z</time>
      </trkpt>
      <trkpt lat="49.18735" lon="-0.40988">
        <ele>55</ele>
        <time>2023-04-25T14:25:03Z</time>
      </trkpt>
      <trkpt lat="49.18734" lon="-0.40979">
        <ele>55</ele>
        <time>2023-04-25T14:25:04Z</time>
      </trkpt>
      <trkpt lat="49.18734" lon="-0.4097">
        <ele>54.8</ele>
        <time>2023-04-25T14:25:05Z</time>
      </trkpt>
      <trkpt lat="49.18733" lon="-0.40962">
        <ele>54.6</ele>
        <time>2023-04-25T14:25:06Z</time>
      </trkpt>
      <trkpt lat="49.18733" lon="-0.40953">
        <ele>54.2</ele>
        <time>2023-04-25T14:25:07Z</time>
      </trkpt>
      <trkpt lat="49.18732" lon="-0.40944">
        <ele>54</ele>
        <time>2023-04-25T14:25:08Z</time>
      </trkpt>
      <trkpt lat="49.18732" lon="-0.40934">
        <ele>53.8</ele>
        <time>2023-04-25T14:25:09Z</time>
      </trkpt>
      <trkpt lat="49.18732" lon="-0.40925">
        <ele>53.6</ele>
        <time>2023-04-25T14:25:10Z</time>
      </trkpt>
      <trkpt lat="49.18731" lon="-0.40916">
        <ele>53.4</ele>
        <time>2023-04-25T14:25:11Z</time>
      </trkpt>
      <trkpt lat="49.18731" lon="-0.40907">
        <ele>53.2</ele>
        <time>2023-04-25T14:25:12Z</time>
      </trkpt>
      <trkpt lat="49.1873" lon="-0.40897">
        <ele>53</ele>
        <time>2023-04-25T14:25:13Z</time>
      </trkpt>
      <trkpt lat="49.18729" lon="-0.40888">
        <ele>53</ele>
        <time>2023-04-25T14:25:14Z</time>
      </trkpt>
      <trkpt lat="49.18729" lon="-0.40878">
        <ele>53</ele>
        <time>2023-04-25T14:25:15Z</time>
      </trkpt>
      <trkpt lat="49.18728" lon="-0.40868">
        <ele>52.8</ele>
        <time>2023-04-25T14:25:16Z</time>
      </trkpt>
      <trkpt lat="49.18728" lon="-0.40859">
        <ele>52.6</ele>
        <time>2023-04-25T14:25:17Z</time>
      </trkpt>
      <trkpt lat="49.18727" lon="-0.40849">
        <ele>52.6</ele>
        <time>2023-04-25T14:25:18Z</time>
      </trkpt>
      <trkpt lat="49.18726" lon="-0.40839">
        <ele>52.4</ele>
        <time>2023-04-25T14:25:19Z</time>
      </trkpt>
      <trkpt lat="49.18726" lon="-0.4083">
        <ele>52.2</ele>
        <time>2023-04-25T14:25:20Z</time>
      </trkpt>
      <trkpt lat="49.18726" lon="-0.4082">
        <ele>52.2</ele>
        <time>2023-04-25T14:25:21Z</time>
      </trkpt>
      <trkpt lat="49.18725" lon="-0.4081">
        <ele>52.2</ele>
        <time>2023-04-25T14:25:22Z</time>
      </trkpt>
      <trkpt lat="49.18725" lon="-0.40801">
        <ele>52.2</ele>
        <time>2023-04-25T14:25:23Z</time>
      </trkpt>
      <trkpt lat="49.18724" lon="-0.40791">
        <ele>52</ele>
        <time>2023-04-25T14:25:24Z</time>
      </trkpt>
      <trkpt lat="49.18723" lon="-0.40781">
        <ele>52</ele>
        <time>2023-04-25T14:25:25Z</time>
      </trkpt>
      <trkpt lat="49.18723" lon="-0.40772">
        <ele>52</ele>
        <time>2023-04-25T14:25:26Z</time>
      </trkpt>
      <trkpt lat="49.18722" lon="-0.40762">
        <ele>52</ele>
        <time>2023-04-25T14:25:27Z</time>
      </trkpt>
      <trkpt lat="49.18722" lon="-0.40753">
        <ele>52</ele>
        <time>2023-04-25T14:25:28Z</time>
      </trkpt>
      <trkpt lat="49.18722" lon="-0.40743">
        <ele>52</ele>
        <time>2023-04-25T14:25:29Z</time>
      </trkpt>
      <trkpt lat="49.18722" lon="-0.40734">
        <ele>52</ele>
        <time>2023-04-25T14:25:30Z</time>
      </trkpt>
      <trkpt lat="49.18722" lon="-0.40724">
        <ele>52</ele>
        <time>2023-04-25T14:25:31Z</time>
      </trkpt>
      <trkpt lat="49.18722" lon="-0.40715">
        <ele>52</ele>
        <time>2023-04-25T14:25:32Z</time>
      </trkpt>
      <trkpt lat="49.18722" lon="-0.40705">
        <ele>52.2</ele>
        <time>2023-04-25T14:25:33Z</time>
      </trkpt>
      <trkpt lat="49.18722" lon="-0.40696">
        <ele>52.2</ele>
        <time>2023-04-25T14:25:34Z</time>
      </trkpt>
      <trkpt lat="49.18722" lon="-0.40687">
        <ele>52.2</ele>
        <time>2023-04-25T14:25:35Z</time>
      </trkpt>
      <trkpt lat="49.18723" lon="-0.40678">
        <ele>52.2</ele>
        <time>2023-04-25T14:25:36Z</time>
      </trkpt>
      <trkpt lat="49.18723" lon="-0.40669">
        <ele>52.4</ele>
        <time>2023-04-25T14:25:37Z</time>
      </trkpt>
      <trkpt lat="49.18724" lon="-0.4066">
        <ele>52.4</ele>
        <time>2023-04-25T14:25:38Z</time>
      </trkpt>
      <trkpt lat="49.18724" lon="-0.40651">
        <ele>52.4</ele>
        <time>2023-04-25T14:25:39Z</time>
      </trkpt>
      <trkpt lat="49.18725" lon="-0.40642">
        <ele>52.4</ele>
        <time>2023-04-25T14:25:40Z</time>
      </trkpt>
      <trkpt lat="49.18726" lon="-0.40633">
        <ele>52.4</ele>
        <time>2023-04-25T14:25:41Z</time>
      </trkpt>
      <trkpt lat="49.18727" lon="-0.40625">
        <ele>52.4</ele>
        <time>2023-04-25T14:25:42Z</time>
      </trkpt>
      <trkpt lat="49.18728" lon="-0.40616">
        <ele>52.4</ele>
        <time>2023-04-25T14:25:43Z</time>
      </trkpt>
      <trkpt lat="49.18728" lon="-0.40607">
        <ele>52.4</ele>
        <time>2023-04-25T14:25:44Z</time>
      </trkpt>
      <trkpt lat="49.18729" lon="-0.40598">
        <ele>52.4</ele>
        <time>2023-04-25T14:25:45Z</time>
      </trkpt>
      <trkpt lat="49.18729" lon="-0.40588">
        <ele>52.2</ele>
        <time>2023-04-25T14:25:46Z</time>
      </trkpt>
      <trkpt lat="49.18729" lon="-0.40579">
        <ele>52.2</ele>
        <time>2023-04-25T14:25:47Z</time>
      </trkpt>
      <trkpt lat="49.18729" lon="-0.40569">
        <ele>52</ele>
        <time>2023-04-25T14:25:48Z</time>
      </trkpt>
      <trkpt lat="49.18729" lon="-0.4056">
        <ele>52</ele>
        <time>2023-04-25T14:25:49Z</time>
      </trkpt>
      <trkpt lat="49.18728" lon="-0.4055">
        <ele>51.8</ele>
        <time>2023-04-25T14:25:50Z</time>
      </trkpt>
      <trkpt lat="49.18728" lon="-0.40541">
        <ele>51.6</ele>
        <time>2023-04-25T14:25:51Z</time>
      </trkpt>
      <trkpt lat="49.18727" lon="-0.40531">
        <ele>51.6</ele>
        <time>2023-04-25T14:25:52Z</time>
      </trkpt>
      <trkpt lat="49.18726" lon="-0.40522">
        <ele>51.2</ele>
        <time>2023-04-25T14:25:53Z</time>
      </trkpt>
      <trkpt lat="49.18725" lon="-0.40513">
        <ele>51</ele>
        <time>2023-04-25T14:25:54Z</time>
      </trkpt>
      <trkpt lat="49.18725" lon="-0.40504">
        <ele>51</ele>
        <time>2023-04-25T14:25:55Z</time>
      </trkpt>
      <trkpt lat="49.18724" lon="-0.40494">
        <ele>50.8</ele>
        <time>2023-04-25T14:25:56Z</time>
      </trkpt>
      <trkpt lat="49.18723" lon="-0.40485">
        <ele>50.6</ele>
        <time>2023-04-25T14:25:57Z</time>
      </trkpt>
      <trkpt lat="49.18722" lon="-0.40476">
        <ele>50.4</ele>
        <time>2023-04-25T14:25:58Z</time>
      </trkpt>
      <trkpt lat="49.18722" lon="-0.40466">
        <ele>50.2</ele>
        <time>2023-04-25T14:25:59Z</time>
      </trkpt>
      <trkpt lat="49.18721" lon="-0.40457">
        <ele>50</ele>
        <time>2023-04-25T14:26:00Z</time>
      </trkpt>
      <trkpt lat="49.1872" lon="-0.40447">
        <ele>50</ele>
        <time>2023-04-25T14:26:01Z</time>
      </trkpt>
      <trkpt lat="49.1872" lon="-0.40437">
        <ele>49.8</ele>
        <time>2023-04-25T14:26:02Z</time>
      </trkpt>
      <trkpt lat="49.18719" lon="-0.40427">
        <ele>49.6</ele>
        <time>2023-04-25T14:26:03Z</time>
      </trkpt>
      <trkpt lat="49.18718" lon="-0.40417">
        <ele>49.6</ele>
        <time>2023-04-25T14:26:04Z</time>
      </trkpt>
      <trkpt lat="49.18717" lon="-0.40407">
        <ele>49.2</ele>
        <time>2023-04-25T14:26:05Z</time>
      </trkpt>
      <trkpt lat="49.18716" lon="-0.40397">
        <ele>49</ele>
        <time>2023-04-25T14:26:06Z</time>
      </trkpt>
      <trkpt lat="49.18715" lon="-0.40387">
        <ele>48.8</ele>
        <time>2023-04-25T14:26:07Z</time>
      </trkpt>
      <trkpt lat="49.18714" lon="-0.40377">
        <ele>48.6</ele>
        <time>2023-04-25T14:26:08Z</time>
      </trkpt>
      <trkpt lat="49.18714" lon="-0.40367">
        <ele>48.2</ele>
        <time>2023-04-25T14:26:09Z</time>
      </trkpt>
      <trkpt lat="49.18713" lon="-0.40357">
        <ele>48</ele>
        <time>2023-04-25T14:26:10Z</time>
      </trkpt>
      <trkpt lat="49.18712" lon="-0.40347">
        <ele>48</ele>
        <time>2023-04-25T14:26:11Z</time>
      </trkpt>
      <trkpt lat="49.18712" lon="-0.40337">
        <ele>47.8</ele>
        <time>2023-04-25T14:26:12Z</time>
      </trkpt>
      <trkpt lat="49.18712" lon="-0.40327">
        <ele>47.6</ele>
        <time>2023-04-25T14:26:13Z</time>
      </trkpt>
      <trkpt lat="49.18711" lon="-0.40317">
        <ele>47.4</ele>
        <time>2023-04-25T14:26:14Z</time>
      </trkpt>
      <trkpt lat="49.1871" lon="-0.40308">
        <ele>47.2</ele>
        <time>2023-04-25T14:26:15Z</time>
      </trkpt>
      <trkpt lat="49.18709" lon="-0.403">
        <ele>47</ele>
        <time>2023-04-25T14:26:16Z</time>
      </trkpt>
      <trkpt lat="49.1871" lon="-0.40293">
        <ele>47</ele>
        <time>2023-04-25T14:26:17Z</time>
      </trkpt>
      <trkpt lat="49.18713" lon="-0.40287">
        <ele>47</ele>
        <time>2023-04-25T14:26:18Z</time>
      </trkpt>
      <trkpt lat="49.18716" lon="-0.40283">
        <ele>47.2</ele>
        <time>2023-04-25T14:26:19Z</time>
      </trkpt>
      <trkpt lat="49.1872" lon="-0.40281">
        <ele>47.2</ele>
        <time>2023-04-25T14:26:20Z</time>
      </trkpt>
      <trkpt lat="49.18725" lon="-0.4028">
        <ele>47.6</ele>
        <time>2023-04-25T14:26:21Z</time>
      </trkpt>
      <trkpt lat="49.1873" lon="-0.40278">
        <ele>47.6</ele>
        <time>2023-04-25T14:26:22Z</time>
      </trkpt>
      <trkpt lat="49.18735" lon="-0.40277">
        <ele>47.8</ele>
        <time>2023-04-25T14:26:23Z</time>
      </trkpt>
      <trkpt lat="49.1874" lon="-0.40275">
        <ele>48</ele>
        <time>2023-04-25T14:26:24Z</time>
      </trkpt>
      <trkpt lat="49.18745" lon="-0.40273">
        <ele>48</ele>
        <time>2023-04-25T14:26:25Z</time>
      </trkpt>
      <trkpt lat="49.18749" lon="-0.40271">
        <ele>48.2</ele>
        <time>2023-04-25T14:26:26Z</time>
      </trkpt>
      <trkpt lat="49.18754" lon="-0.40268">
        <ele>48.6</ele>
        <time>2023-04-25T14:26:27Z</time>
      </trkpt>
      <trkpt lat="49.18759" lon="-0.40265">
        <ele>48.8</ele>
        <time>2023-04-25T14:26:28Z</time>
      </trkpt>
      <trkpt lat="49.18765" lon="-0.40262">
        <ele>49</ele>
        <time>2023-04-25T14:26:29Z</time>
      </trkpt>
      <trkpt lat="49.1877" lon="-0.40259">
        <ele>49.2</ele>
        <time>2023-04-25T14:26:30Z</time>
      </trkpt>
      <trkpt lat="49.18775" lon="-0.40256">
        <ele>49.6</ele>
        <time>2023-04-25T14:26:31Z</time>
      </trkpt>
      <trkpt lat="49.18781" lon="-0.40253">
        <ele>50</ele>
        <time>2023-04-25T14:26:32Z</time>
      </trkpt>
      <trkpt lat="49.18786" lon="-0.4025">
        <ele>50.2</ele>
        <time>2023-04-25T14:26:33Z</time>
      </trkpt>
      <trkpt lat="49.18792" lon="-0.40247">
        <ele>50.6</ele>
        <time>2023-04-25T14:26:34Z</time>
      </trkpt>
      <trkpt lat="49.18797" lon="-0.40245">
        <ele>50.8</ele>
        <time>2023-04-25T14:26:35Z</time>
      </trkpt>
      <trkpt lat="49.18803" lon="-0.40242">
        <ele>51</ele>
        <time>2023-04-25T14:26:36Z</time>
      </trkpt>
      <trkpt lat="49.18808" lon="-0.4024">
        <ele>51.2</ele>
        <time>2023-04-25T14:26:37Z</time>
      </trkpt>
      <trkpt lat="49.18814" lon="-0.40238">
        <ele>51.6</ele>
        <time>2023-04-25T14:26:38Z</time>
      </trkpt>
      <trkpt lat="49.18819" lon="-0.40236">
        <ele>52</ele>
        <time>2023-04-25T14:26:39Z</time>
      </trkpt>
      <trkpt lat="49.18825" lon="-0.40235">
        <ele>52</ele>
        <time>2023-04-25T14:26:40Z</time>
      </trkpt>
      <trkpt lat="49.1883" lon="-0.40234">
        <ele>52.4</ele>
        <time>2023-04-25T14:26:41Z</time>
      </trkpt>
      <trkpt lat="49.18835" lon="-0.40232">
        <ele>52.8</ele>
        <time>2023-04-25T14:26:42Z</time>
      </trkpt>
      <trkpt lat="49.1884" lon="-0.40232">
        <ele>53</ele>
        <time>2023-04-25T14:26:43Z</time>
      </trkpt>
      <trkpt lat="49.18845" lon="-0.40232">
        <ele>53.2</ele>
        <time>2023-04-25T14:26:44Z</time>
      </trkpt>
      <trkpt lat="49.1885" lon="-0.40232">
        <ele>53.6</ele>
        <time>2023-04-25T14:26:45Z</time>
      </trkpt>
      <trkpt lat="49.18854" lon="-0.40231">
        <ele>53.8</ele>
        <time>2023-04-25T14:26:46Z</time>
      </trkpt>
      <trkpt lat="49.18858" lon="-0.4023">
        <ele>54</ele>
        <time>2023-04-25T14:26:47Z</time>
      </trkpt>
      <trkpt lat="49.18862" lon="-0.40228">
        <ele>54.2</ele>
        <time>2023-04-25T14:26:48Z</time>
      </trkpt>
      <trkpt lat="49.18866" lon="-0.40224">
        <ele>54.2</ele>
        <time>2023-04-25T14:26:49Z</time>
      </trkpt>
      <trkpt lat="49.18868" lon="-0.40219">
        <ele>54.2</ele>
        <time>2023-04-25T14:26:50Z</time>
      </trkpt>
      <trkpt lat="49.1887" lon="-0.40214">
        <ele>54.2</ele>
        <time>2023-04-25T14:26:51Z</time>
      </trkpt>
      <trkpt lat="49.1887" lon="-0.40208">
        <ele>54.2</ele>
        <time>2023-04-25T14:26:52Z</time>
      </trkpt>
      <trkpt lat="49.18871" lon="-0.40202">
        <ele>54</ele>
        <time>2023-04-25T14:26:53Z</time>
      </trkpt>
      <trkpt lat="49.18871" lon="-0.40197">
        <ele>54</ele>
        <time>2023-04-25T14:26:54Z</time>
      </trkpt>
      <trkpt lat="49.18872" lon="-0.40191">
        <ele>54</ele>
        <time>2023-04-25T14:26:55Z</time>
      </trkpt>
      <trkpt lat="49.18873" lon="-0.40186">
        <ele>53.8</ele>
        <time>2023-04-25T14:26:56Z</time>
      </trkpt>
      <trkpt lat="49.18874" lon="-0.4018">
        <ele>53.8</ele>
        <time>2023-04-25T14:26:57Z</time>
      </trkpt>
      <trkpt lat="49.18874" lon="-0.40175">
        <ele>53.8</ele>
        <time>2023-04-25T14:26:58Z</time>
      </trkpt>
      <trkpt lat="49.18875" lon="-0.40171">
        <ele>53.6</ele>
        <time>2023-04-25T14:26:59Z</time>
      </trkpt>
      <trkpt lat="49.18876" lon="-0.40166">
        <ele>53.6</ele>
        <time>2023-04-25T14:27:00Z</time>
      </trkpt>
      <trkpt lat="49.18877" lon="-0.40162">
        <ele>53.6</ele>
        <time>2023-04-25T14:27:01Z</time>
      </trkpt>
      <trkpt lat="49.18877" lon="-0.40158">
        <ele>53.6</ele>
        <time>2023-04-25T14:27:02Z</time>
      </trkpt>
      <trkpt lat="49.18878" lon="-0.40154">
        <ele>53.6</ele>
        <time>2023-04-25T14:27:03Z</time>
      </trkpt>
      <trkpt lat="49.18878" lon="-0.4015">
        <ele>53.6</ele>
        <time>2023-04-25T14:27:04Z</time>
      </trkpt>
      <trkpt lat="49.18879" lon="-0.40146">
        <ele>53.6</ele>
        <time>2023-04-25T14:27:05Z</time>
      </trkpt>
      <trkpt lat="49.1888" lon="-0.40142">
        <ele>53.8</ele>
        <time>2023-04-25T14:27:06Z</time>
      </trkpt>
      <trkpt lat="49.18882" lon="-0.40138">
        <ele>53.8</ele>
        <time>2023-04-25T14:27:07Z</time>
      </trkpt>
      <trkpt lat="49.18883" lon="-0.40134">
        <ele>53.8</ele>
        <time>2023-04-25T14:27:08Z</time>
      </trkpt>
      <trkpt lat="49.18884" lon="-0.40131">
        <ele>54</ele>
        <time>2023-04-25T14:27:09Z</time>
      </trkpt>
      <trkpt lat="49.18884" lon="-0.40128">
        <ele>54</ele>
        <time>2023-04-25T14:27:10Z</time>
      </trkpt>
      <trkpt lat="49.18884" lon="-0.40126">
        <ele>54</ele>
        <time>2023-04-25T14:27:11Z</time>
      </trkpt>
      <trkpt lat="49.18884" lon="-0.40124">
        <ele>53.8</ele>
        <time>2023-04-25T14:27:12Z</time>
      </trkpt>
      <trkpt lat="49.18883" lon="-0.40123">
        <ele>53.8</ele>
        <time>2023-04-25T14:27:13Z</time>
      </trkpt>
      <trkpt lat="49.18883" lon="-0.40122">
        <ele>53.8</ele>
        <time>2023-04-25T14:27:14Z</time>
      </trkpt>
      <trkpt lat="49.18883" lon="-0.40122">
        <ele>53.8</ele>
        <time>2023-04-25T14:27:15Z</time>
      </trkpt>
      <trkpt lat="49.18882" lon="-0.40122">
        <ele>53.8</ele>
        <time>2023-04-25T14:27:16Z</time>
      </trkpt>
      <trkpt lat="49.18882" lon="-0.40122">
        <ele>53.8</ele>
        <time>2023-04-25T14:27:17Z</time>
      </trkpt>
    </trkseg>
  </trk>
</gpx>